<?xml version="1.0" encoding="UTF-8"?>
<gpx version="1.1" creator="https://www.youtrack.es" xsi:schemaLocation="http://www.topografix.com/GPX/1/1 http://www.topografix.com/GPX/1/1/gpx.xsd http://www.garmin.com/xmlschemas/GpxExtensions/v3 http://www.garmin.com/xmlschemas/GpxExtensionsv3.xsd http://www.garmin.com/xmlschemas/TrackPointExtension/v1 http://www.garmin.com/xmlschemas/TrackPointExtensionv1.xsd" xmlns:gpxtpx="http://www.garmin.com/xmlschemas/TrackPointExtension/v1" xmlns:gpxx="http://www.garmin.com/xmlschemas/GpxExtensions/v3" xmlns:xsi="http://www.w3.org/2001/XMLSchema-instance">
  <metadata>
    <link href="https://www.youtrack.es">
      <text>YouTrack.es</text>
    </link>
    <time>2026-05-10T17:43:57Z</time>
  </metadata>
  <trk>
    <src>https://www.youtrack.es</src>
    <link href="https://www.youtrack.es/ruta/23686-primera-parte-ruta-castillos-guadalajara">
      <text>YouTrack.es</text>
    </link>
    <trkseg>
      <trkpt lat="40.7434" lon="-3.03119">
        <time>2021-06-19T08:00:54+0000</time>
      </trkpt>
      <trkpt lat="40.74342" lon="-3.0311800000000004">
        <time>2021-06-19T08:00:55+0000</time>
      </trkpt>
      <trkpt lat="40.743430000000004" lon="-3.0311800000000004">
        <time>2021-06-19T08:01:08+0000</time>
      </trkpt>
      <trkpt lat="40.743430000000004" lon="-3.0311800000000004">
        <time>2021-06-19T08:01:09+0000</time>
      </trkpt>
      <trkpt lat="40.74342" lon="-3.0312200000000002">
        <time>2021-06-19T08:01:14+0000</time>
      </trkpt>
      <trkpt lat="40.743430000000004" lon="-3.0312500000000004">
        <time>2021-06-19T08:01:15+0000</time>
      </trkpt>
      <trkpt lat="40.74345" lon="-3.03127">
        <time>2021-06-19T08:01:16+0000</time>
      </trkpt>
      <trkpt lat="40.74345" lon="-3.03128">
        <time>2021-06-19T08:01:17+0000</time>
      </trkpt>
      <trkpt lat="40.74345" lon="-3.0312900000000003">
        <time>2021-06-19T08:01:18+0000</time>
      </trkpt>
      <trkpt lat="40.743460000000006" lon="-3.0313200000000005">
        <time>2021-06-19T08:01:19+0000</time>
      </trkpt>
      <trkpt lat="40.74347" lon="-3.03134">
        <time>2021-06-19T08:01:20+0000</time>
      </trkpt>
      <trkpt lat="40.74347" lon="-3.03135">
        <time>2021-06-19T08:01:21+0000</time>
      </trkpt>
      <trkpt lat="40.74349" lon="-3.03134">
        <time>2021-06-19T08:01:28+0000</time>
      </trkpt>
      <trkpt lat="40.74351" lon="-3.03134">
        <time>2021-06-19T08:01:36+0000</time>
      </trkpt>
      <trkpt lat="40.743520000000004" lon="-3.0313800000000004">
        <time>2021-06-19T08:01:39+0000</time>
      </trkpt>
      <trkpt lat="40.74353" lon="-3.0314">
        <time>2021-06-19T08:01:40+0000</time>
      </trkpt>
      <trkpt lat="40.74354" lon="-3.0314200000000002">
        <time>2021-06-19T08:01:41+0000</time>
      </trkpt>
      <trkpt lat="40.74356" lon="-3.0314400000000004">
        <time>2021-06-19T08:01:42+0000</time>
      </trkpt>
      <trkpt lat="40.743570000000005" lon="-3.0314500000000004">
        <time>2021-06-19T08:01:43+0000</time>
      </trkpt>
      <trkpt lat="40.743590000000005" lon="-3.03146">
        <time>2021-06-19T08:01:44+0000</time>
      </trkpt>
      <trkpt lat="40.743610000000004" lon="-3.03147">
        <time>2021-06-19T08:01:45+0000</time>
      </trkpt>
      <trkpt lat="40.74362" lon="-3.03146">
        <time>2021-06-19T08:01:46+0000</time>
      </trkpt>
      <trkpt lat="40.743640000000006" lon="-3.0314500000000004">
        <time>2021-06-19T08:01:48+0000</time>
      </trkpt>
      <trkpt lat="40.743660000000006" lon="-3.03146">
        <time>2021-06-19T08:01:49+0000</time>
      </trkpt>
      <trkpt lat="40.74369" lon="-3.03146">
        <time>2021-06-19T08:01:50+0000</time>
      </trkpt>
      <trkpt lat="40.74371" lon="-3.03147">
        <time>2021-06-19T08:01:51+0000</time>
      </trkpt>
      <trkpt lat="40.74374" lon="-3.03148">
        <time>2021-06-19T08:01:52+0000</time>
      </trkpt>
      <trkpt lat="40.74374" lon="-3.03147">
        <time>2021-06-19T08:01:53+0000</time>
      </trkpt>
      <trkpt lat="40.74376" lon="-3.03148">
        <time>2021-06-19T08:01:54+0000</time>
      </trkpt>
      <trkpt lat="40.743790000000004" lon="-3.03148">
        <time>2021-06-19T08:01:55+0000</time>
      </trkpt>
      <trkpt lat="40.74381" lon="-3.03148">
        <time>2021-06-19T08:01:56+0000</time>
      </trkpt>
      <trkpt lat="40.74383" lon="-3.03147">
        <time>2021-06-19T08:01:57+0000</time>
      </trkpt>
      <trkpt lat="40.74385" lon="-3.03146">
        <time>2021-06-19T08:01:58+0000</time>
      </trkpt>
      <trkpt lat="40.74387" lon="-3.03146">
        <time>2021-06-19T08:01:59+0000</time>
      </trkpt>
      <trkpt lat="40.743880000000004" lon="-3.03146">
        <time>2021-06-19T08:02:00+0000</time>
      </trkpt>
      <trkpt lat="40.74391000000001" lon="-3.03146">
        <time>2021-06-19T08:02:01+0000</time>
      </trkpt>
      <trkpt lat="40.743930000000006" lon="-3.03146">
        <time>2021-06-19T08:02:02+0000</time>
      </trkpt>
      <trkpt lat="40.743950000000005" lon="-3.03146">
        <time>2021-06-19T08:02:03+0000</time>
      </trkpt>
      <trkpt lat="40.743970000000004" lon="-3.03146">
        <time>2021-06-19T08:02:04+0000</time>
      </trkpt>
      <trkpt lat="40.743990000000004" lon="-3.0314500000000004">
        <time>2021-06-19T08:02:05+0000</time>
      </trkpt>
      <trkpt lat="40.74401" lon="-3.0314500000000004">
        <time>2021-06-19T08:02:06+0000</time>
      </trkpt>
      <trkpt lat="40.74403" lon="-3.0314500000000004">
        <time>2021-06-19T08:02:07+0000</time>
      </trkpt>
      <trkpt lat="40.744040000000005" lon="-3.03146">
        <time>2021-06-19T08:02:08+0000</time>
      </trkpt>
      <trkpt lat="40.74407" lon="-3.0314500000000004">
        <time>2021-06-19T08:02:09+0000</time>
      </trkpt>
      <trkpt lat="40.7441" lon="-3.0314500000000004">
        <time>2021-06-19T08:02:10+0000</time>
      </trkpt>
      <trkpt lat="40.744130000000006" lon="-3.0314400000000004">
        <time>2021-06-19T08:02:11+0000</time>
      </trkpt>
      <trkpt lat="40.74416" lon="-3.0314500000000004">
        <time>2021-06-19T08:02:12+0000</time>
      </trkpt>
      <trkpt lat="40.74418" lon="-3.03146">
        <time>2021-06-19T08:02:13+0000</time>
      </trkpt>
      <trkpt lat="40.744200000000006" lon="-3.03147">
        <time>2021-06-19T08:02:14+0000</time>
      </trkpt>
      <trkpt lat="40.744220000000006" lon="-3.03147">
        <time>2021-06-19T08:02:15+0000</time>
      </trkpt>
      <trkpt lat="40.744240000000005" lon="-3.03147">
        <time>2021-06-19T08:02:16+0000</time>
      </trkpt>
      <trkpt lat="40.744260000000004" lon="-3.03148">
        <time>2021-06-19T08:02:17+0000</time>
      </trkpt>
      <trkpt lat="40.74428" lon="-3.03148">
        <time>2021-06-19T08:02:18+0000</time>
      </trkpt>
      <trkpt lat="40.74429000000001" lon="-3.03148">
        <time>2021-06-19T08:02:19+0000</time>
      </trkpt>
      <trkpt lat="40.744310000000006" lon="-3.03147">
        <time>2021-06-19T08:02:20+0000</time>
      </trkpt>
      <trkpt lat="40.74432" lon="-3.03146">
        <time>2021-06-19T08:02:21+0000</time>
      </trkpt>
      <trkpt lat="40.74434" lon="-3.0314500000000004">
        <time>2021-06-19T08:02:22+0000</time>
      </trkpt>
      <trkpt lat="40.744350000000004" lon="-3.0314500000000004">
        <time>2021-06-19T08:02:23+0000</time>
      </trkpt>
      <trkpt lat="40.74439" lon="-3.03148">
        <time>2021-06-19T08:02:31+0000</time>
      </trkpt>
      <trkpt lat="40.74441" lon="-3.03148">
        <time>2021-06-19T08:02:32+0000</time>
      </trkpt>
      <trkpt lat="40.74443" lon="-3.03148">
        <time>2021-06-19T08:02:33+0000</time>
      </trkpt>
      <trkpt lat="40.74445" lon="-3.0314900000000002">
        <time>2021-06-19T08:02:34+0000</time>
      </trkpt>
      <trkpt lat="40.74447000000001" lon="-3.0315000000000003">
        <time>2021-06-19T08:02:35+0000</time>
      </trkpt>
      <trkpt lat="40.7445" lon="-3.0315100000000004">
        <time>2021-06-19T08:02:36+0000</time>
      </trkpt>
      <trkpt lat="40.744530000000005" lon="-3.0315100000000004">
        <time>2021-06-19T08:02:37+0000</time>
      </trkpt>
      <trkpt lat="40.744550000000004" lon="-3.0315200000000004">
        <time>2021-06-19T08:02:38+0000</time>
      </trkpt>
      <trkpt lat="40.74457" lon="-3.03153">
        <time>2021-06-19T08:02:39+0000</time>
      </trkpt>
      <trkpt lat="40.74459" lon="-3.03153">
        <time>2021-06-19T08:02:40+0000</time>
      </trkpt>
      <trkpt lat="40.744600000000005" lon="-3.03154">
        <time>2021-06-19T08:02:41+0000</time>
      </trkpt>
      <trkpt lat="40.744620000000005" lon="-3.03154">
        <time>2021-06-19T08:02:42+0000</time>
      </trkpt>
      <trkpt lat="40.744640000000004" lon="-3.03154">
        <time>2021-06-19T08:02:43+0000</time>
      </trkpt>
      <trkpt lat="40.744670000000006" lon="-3.0315600000000003">
        <time>2021-06-19T08:02:44+0000</time>
      </trkpt>
      <trkpt lat="40.744690000000006" lon="-3.0315700000000003">
        <time>2021-06-19T08:02:45+0000</time>
      </trkpt>
      <trkpt lat="40.7447" lon="-3.0315700000000003">
        <time>2021-06-19T08:02:46+0000</time>
      </trkpt>
      <trkpt lat="40.744710000000005" lon="-3.0315800000000004">
        <time>2021-06-19T08:02:47+0000</time>
      </trkpt>
      <trkpt lat="40.744730000000004" lon="-3.0315900000000005">
        <time>2021-06-19T08:02:48+0000</time>
      </trkpt>
      <trkpt lat="40.74475" lon="-3.0315900000000005">
        <time>2021-06-19T08:02:49+0000</time>
      </trkpt>
      <trkpt lat="40.74477" lon="-3.0316">
        <time>2021-06-19T08:02:50+0000</time>
      </trkpt>
      <trkpt lat="40.744800000000005" lon="-3.03161">
        <time>2021-06-19T08:02:51+0000</time>
      </trkpt>
      <trkpt lat="40.74483" lon="-3.03161">
        <time>2021-06-19T08:02:52+0000</time>
      </trkpt>
      <trkpt lat="40.74485000000001" lon="-3.0316">
        <time>2021-06-19T08:02:53+0000</time>
      </trkpt>
      <trkpt lat="40.74488" lon="-3.03161">
        <time>2021-06-19T08:02:54+0000</time>
      </trkpt>
      <trkpt lat="40.7449" lon="-3.03162">
        <time>2021-06-19T08:02:55+0000</time>
      </trkpt>
      <trkpt lat="40.744930000000004" lon="-3.0316300000000003">
        <time>2021-06-19T08:02:56+0000</time>
      </trkpt>
      <trkpt lat="40.74495" lon="-3.0316400000000003">
        <time>2021-06-19T08:02:57+0000</time>
      </trkpt>
      <trkpt lat="40.74499" lon="-3.0316500000000004">
        <time>2021-06-19T08:02:58+0000</time>
      </trkpt>
      <trkpt lat="40.74504" lon="-3.03167">
        <time>2021-06-19T08:02:59+0000</time>
      </trkpt>
      <trkpt lat="40.74508" lon="-3.03168">
        <time>2021-06-19T08:03:00+0000</time>
      </trkpt>
      <trkpt lat="40.74513" lon="-3.03169">
        <time>2021-06-19T08:03:01+0000</time>
      </trkpt>
      <trkpt lat="40.74517" lon="-3.0317000000000003">
        <time>2021-06-19T08:03:02+0000</time>
      </trkpt>
      <trkpt lat="40.74521" lon="-3.0317200000000004">
        <time>2021-06-19T08:03:03+0000</time>
      </trkpt>
      <trkpt lat="40.74524" lon="-3.03173">
        <time>2021-06-19T08:03:04+0000</time>
      </trkpt>
      <trkpt lat="40.74528" lon="-3.0317200000000004">
        <time>2021-06-19T08:03:05+0000</time>
      </trkpt>
      <trkpt lat="40.74532000000001" lon="-3.0317200000000004">
        <time>2021-06-19T08:03:06+0000</time>
      </trkpt>
      <trkpt lat="40.745360000000005" lon="-3.0317200000000004">
        <time>2021-06-19T08:03:07+0000</time>
      </trkpt>
      <trkpt lat="40.74539" lon="-3.0317100000000003">
        <time>2021-06-19T08:03:08+0000</time>
      </trkpt>
      <trkpt lat="40.745430000000006" lon="-3.0317000000000003">
        <time>2021-06-19T08:03:09+0000</time>
      </trkpt>
      <trkpt lat="40.74546" lon="-3.03169">
        <time>2021-06-19T08:03:10+0000</time>
      </trkpt>
      <trkpt lat="40.745490000000004" lon="-3.03167">
        <time>2021-06-19T08:03:11+0000</time>
      </trkpt>
      <trkpt lat="40.745520000000006" lon="-3.03167">
        <time>2021-06-19T08:03:12+0000</time>
      </trkpt>
      <trkpt lat="40.745540000000005" lon="-3.0316600000000005">
        <time>2021-06-19T08:03:13+0000</time>
      </trkpt>
      <trkpt lat="40.74557" lon="-3.0316600000000005">
        <time>2021-06-19T08:03:14+0000</time>
      </trkpt>
      <trkpt lat="40.74559" lon="-3.0316500000000004">
        <time>2021-06-19T08:03:15+0000</time>
      </trkpt>
      <trkpt lat="40.74562" lon="-3.03162">
        <time>2021-06-19T08:03:16+0000</time>
      </trkpt>
      <trkpt lat="40.74562" lon="-3.0315900000000005">
        <time>2021-06-19T08:03:17+0000</time>
      </trkpt>
      <trkpt lat="40.74562" lon="-3.03155">
        <time>2021-06-19T08:03:18+0000</time>
      </trkpt>
      <trkpt lat="40.74562" lon="-3.03148">
        <time>2021-06-19T08:03:19+0000</time>
      </trkpt>
      <trkpt lat="40.745610000000006" lon="-3.0314300000000003">
        <time>2021-06-19T08:03:20+0000</time>
      </trkpt>
      <trkpt lat="40.7456" lon="-3.0313800000000004">
        <time>2021-06-19T08:03:21+0000</time>
      </trkpt>
      <trkpt lat="40.74557" lon="-3.03133">
        <time>2021-06-19T08:03:22+0000</time>
      </trkpt>
      <trkpt lat="40.745540000000005" lon="-3.03128">
        <time>2021-06-19T08:03:23+0000</time>
      </trkpt>
      <trkpt lat="40.745490000000004" lon="-3.03121">
        <time>2021-06-19T08:03:24+0000</time>
      </trkpt>
      <trkpt lat="40.745430000000006" lon="-3.0311100000000004">
        <time>2021-06-19T08:03:25+0000</time>
      </trkpt>
      <trkpt lat="40.74533" lon="-3.0310500000000005">
        <time>2021-06-19T08:03:26+0000</time>
      </trkpt>
      <trkpt lat="40.74523000000001" lon="-3.0309800000000005">
        <time>2021-06-19T08:03:27+0000</time>
      </trkpt>
      <trkpt lat="40.7451" lon="-3.0308900000000003">
        <time>2021-06-19T08:03:28+0000</time>
      </trkpt>
      <trkpt lat="40.744960000000006" lon="-3.0308300000000004">
        <time>2021-06-19T08:03:29+0000</time>
      </trkpt>
      <trkpt lat="40.744870000000006" lon="-3.0307700000000004">
        <time>2021-06-19T08:03:30+0000</time>
      </trkpt>
      <trkpt lat="40.74479" lon="-3.03072">
        <time>2021-06-19T08:03:31+0000</time>
      </trkpt>
      <trkpt lat="40.74472" lon="-3.0306900000000003">
        <time>2021-06-19T08:03:32+0000</time>
      </trkpt>
      <trkpt lat="40.74463" lon="-3.0306900000000003">
        <time>2021-06-19T08:03:33+0000</time>
      </trkpt>
      <trkpt lat="40.74457" lon="-3.03066">
        <time>2021-06-19T08:03:34+0000</time>
      </trkpt>
      <trkpt lat="40.744530000000005" lon="-3.0306300000000004">
        <time>2021-06-19T08:03:35+0000</time>
      </trkpt>
      <trkpt lat="40.7445" lon="-3.0306200000000003">
        <time>2021-06-19T08:03:36+0000</time>
      </trkpt>
      <trkpt lat="40.744490000000006" lon="-3.0306100000000002">
        <time>2021-06-19T08:03:37+0000</time>
      </trkpt>
      <trkpt lat="40.74448" lon="-3.0306">
        <time>2021-06-19T08:03:38+0000</time>
      </trkpt>
      <trkpt lat="40.74448" lon="-3.0306">
        <time>2021-06-19T08:03:39+0000</time>
      </trkpt>
      <trkpt lat="40.74448" lon="-3.03059">
        <time>2021-06-19T08:03:41+0000</time>
      </trkpt>
      <trkpt lat="40.744510000000005" lon="-3.0304100000000003">
        <time>2021-06-19T08:03:42+0000</time>
      </trkpt>
      <trkpt lat="40.744530000000005" lon="-3.0303500000000003">
        <time>2021-06-19T08:03:55+0000</time>
      </trkpt>
      <trkpt lat="40.74454" lon="-3.03031">
        <time>2021-06-19T08:03:56+0000</time>
      </trkpt>
      <trkpt lat="40.744550000000004" lon="-3.03025">
        <time>2021-06-19T08:03:57+0000</time>
      </trkpt>
      <trkpt lat="40.74457" lon="-3.0302000000000002">
        <time>2021-06-19T08:03:58+0000</time>
      </trkpt>
      <trkpt lat="40.74459" lon="-3.0301400000000003">
        <time>2021-06-19T08:03:59+0000</time>
      </trkpt>
      <trkpt lat="40.744600000000005" lon="-3.0300800000000003">
        <time>2021-06-19T08:04:00+0000</time>
      </trkpt>
      <trkpt lat="40.744620000000005" lon="-3.0300200000000004">
        <time>2021-06-19T08:04:01+0000</time>
      </trkpt>
      <trkpt lat="40.74463" lon="-3.02997">
        <time>2021-06-19T08:04:02+0000</time>
      </trkpt>
      <trkpt lat="40.74465" lon="-3.0299">
        <time>2021-06-19T08:04:03+0000</time>
      </trkpt>
      <trkpt lat="40.744670000000006" lon="-3.02984">
        <time>2021-06-19T08:04:04+0000</time>
      </trkpt>
      <trkpt lat="40.744690000000006" lon="-3.02977">
        <time>2021-06-19T08:04:05+0000</time>
      </trkpt>
      <trkpt lat="40.744710000000005" lon="-3.0296900000000004">
        <time>2021-06-19T08:04:06+0000</time>
      </trkpt>
      <trkpt lat="40.744730000000004" lon="-3.0296200000000004">
        <time>2021-06-19T08:04:07+0000</time>
      </trkpt>
      <trkpt lat="40.74475" lon="-3.0295400000000003">
        <time>2021-06-19T08:04:08+0000</time>
      </trkpt>
      <trkpt lat="40.74477" lon="-3.0294600000000003">
        <time>2021-06-19T08:04:09+0000</time>
      </trkpt>
      <trkpt lat="40.744800000000005" lon="-3.02937">
        <time>2021-06-19T08:04:10+0000</time>
      </trkpt>
      <trkpt lat="40.744820000000004" lon="-3.0292800000000004">
        <time>2021-06-19T08:04:11+0000</time>
      </trkpt>
      <trkpt lat="40.74485000000001" lon="-3.02918">
        <time>2021-06-19T08:04:12+0000</time>
      </trkpt>
      <trkpt lat="40.74488" lon="-3.0290800000000004">
        <time>2021-06-19T08:04:13+0000</time>
      </trkpt>
      <trkpt lat="40.7449" lon="-3.02897">
        <time>2021-06-19T08:04:14+0000</time>
      </trkpt>
      <trkpt lat="40.744930000000004" lon="-3.0288700000000004">
        <time>2021-06-19T08:04:15+0000</time>
      </trkpt>
      <trkpt lat="40.744960000000006" lon="-3.02875">
        <time>2021-06-19T08:04:16+0000</time>
      </trkpt>
      <trkpt lat="40.745000000000005" lon="-3.02862">
        <time>2021-06-19T08:04:17+0000</time>
      </trkpt>
      <trkpt lat="40.74504" lon="-3.0284700000000004">
        <time>2021-06-19T08:04:18+0000</time>
      </trkpt>
      <trkpt lat="40.74508" lon="-3.0283100000000003">
        <time>2021-06-19T08:04:19+0000</time>
      </trkpt>
      <trkpt lat="40.74513" lon="-3.02815">
        <time>2021-06-19T08:04:20+0000</time>
      </trkpt>
      <trkpt lat="40.745180000000005" lon="-3.0279700000000003">
        <time>2021-06-19T08:04:21+0000</time>
      </trkpt>
      <trkpt lat="40.74523000000001" lon="-3.0277900000000004">
        <time>2021-06-19T08:04:22+0000</time>
      </trkpt>
      <trkpt lat="40.74528" lon="-3.0276300000000003">
        <time>2021-06-19T08:04:23+0000</time>
      </trkpt>
      <trkpt lat="40.74531" lon="-3.0274900000000002">
        <time>2021-06-19T08:04:24+0000</time>
      </trkpt>
      <trkpt lat="40.74535" lon="-3.0273700000000003">
        <time>2021-06-19T08:04:25+0000</time>
      </trkpt>
      <trkpt lat="40.745380000000004" lon="-3.0272500000000004">
        <time>2021-06-19T08:04:26+0000</time>
      </trkpt>
      <trkpt lat="40.74541000000001" lon="-3.0271500000000002">
        <time>2021-06-19T08:04:27+0000</time>
      </trkpt>
      <trkpt lat="40.74544" lon="-3.0270300000000003">
        <time>2021-06-19T08:04:28+0000</time>
      </trkpt>
      <trkpt lat="40.74548" lon="-3.0269100000000004">
        <time>2021-06-19T08:04:29+0000</time>
      </trkpt>
      <trkpt lat="40.74551" lon="-3.02679">
        <time>2021-06-19T08:04:30+0000</time>
      </trkpt>
      <trkpt lat="40.74555" lon="-3.02665">
        <time>2021-06-19T08:04:31+0000</time>
      </trkpt>
      <trkpt lat="40.745580000000004" lon="-3.02652">
        <time>2021-06-19T08:04:32+0000</time>
      </trkpt>
      <trkpt lat="40.74562" lon="-3.02639">
        <time>2021-06-19T08:04:33+0000</time>
      </trkpt>
      <trkpt lat="40.745650000000005" lon="-3.0262800000000003">
        <time>2021-06-19T08:04:34+0000</time>
      </trkpt>
      <trkpt lat="40.74568" lon="-3.02618">
        <time>2021-06-19T08:04:35+0000</time>
      </trkpt>
      <trkpt lat="40.74571" lon="-3.0260800000000003">
        <time>2021-06-19T08:04:36+0000</time>
      </trkpt>
      <trkpt lat="40.74573" lon="-3.02598">
        <time>2021-06-19T08:04:37+0000</time>
      </trkpt>
      <trkpt lat="40.745760000000004" lon="-3.0258900000000004">
        <time>2021-06-19T08:04:38+0000</time>
      </trkpt>
      <trkpt lat="40.74578" lon="-3.0258100000000003">
        <time>2021-06-19T08:04:39+0000</time>
      </trkpt>
      <trkpt lat="40.7458" lon="-3.02572">
        <time>2021-06-19T08:04:40+0000</time>
      </trkpt>
      <trkpt lat="40.745830000000005" lon="-3.02563">
        <time>2021-06-19T08:04:41+0000</time>
      </trkpt>
      <trkpt lat="40.745850000000004" lon="-3.0255500000000004">
        <time>2021-06-19T08:04:42+0000</time>
      </trkpt>
      <trkpt lat="40.74588000000001" lon="-3.0254700000000003">
        <time>2021-06-19T08:04:43+0000</time>
      </trkpt>
      <trkpt lat="40.745900000000006" lon="-3.0253900000000002">
        <time>2021-06-19T08:04:44+0000</time>
      </trkpt>
      <trkpt lat="40.74591" lon="-3.0253300000000003">
        <time>2021-06-19T08:04:45+0000</time>
      </trkpt>
      <trkpt lat="40.745940000000004" lon="-3.02525">
        <time>2021-06-19T08:04:46+0000</time>
      </trkpt>
      <trkpt lat="40.745960000000004" lon="-3.02517">
        <time>2021-06-19T08:04:47+0000</time>
      </trkpt>
      <trkpt lat="40.745990000000006" lon="-3.0250500000000002">
        <time>2021-06-19T08:04:48+0000</time>
      </trkpt>
      <trkpt lat="40.746030000000005" lon="-3.02496">
        <time>2021-06-19T08:04:49+0000</time>
      </trkpt>
      <trkpt lat="40.746050000000004" lon="-3.0248700000000004">
        <time>2021-06-19T08:04:50+0000</time>
      </trkpt>
      <trkpt lat="40.74607" lon="-3.0247800000000002">
        <time>2021-06-19T08:04:51+0000</time>
      </trkpt>
      <trkpt lat="40.746100000000006" lon="-3.0247">
        <time>2021-06-19T08:04:52+0000</time>
      </trkpt>
      <trkpt lat="40.746120000000005" lon="-3.02463">
        <time>2021-06-19T08:04:53+0000</time>
      </trkpt>
      <trkpt lat="40.74613" lon="-3.0245400000000005">
        <time>2021-06-19T08:04:54+0000</time>
      </trkpt>
      <trkpt lat="40.74615" lon="-3.0244600000000004">
        <time>2021-06-19T08:04:55+0000</time>
      </trkpt>
      <trkpt lat="40.746170000000006" lon="-3.0243800000000003">
        <time>2021-06-19T08:04:56+0000</time>
      </trkpt>
      <trkpt lat="40.746190000000006" lon="-3.0243100000000003">
        <time>2021-06-19T08:04:57+0000</time>
      </trkpt>
      <trkpt lat="40.746210000000005" lon="-3.0242400000000003">
        <time>2021-06-19T08:04:58+0000</time>
      </trkpt>
      <trkpt lat="40.746230000000004" lon="-3.0241800000000003">
        <time>2021-06-19T08:04:59+0000</time>
      </trkpt>
      <trkpt lat="40.74624" lon="-3.0241300000000004">
        <time>2021-06-19T08:05:00+0000</time>
      </trkpt>
      <trkpt lat="40.74625" lon="-3.02408">
        <time>2021-06-19T08:05:01+0000</time>
      </trkpt>
      <trkpt lat="40.74627" lon="-3.02403">
        <time>2021-06-19T08:05:02+0000</time>
      </trkpt>
      <trkpt lat="40.74629" lon="-3.02396">
        <time>2021-06-19T08:05:03+0000</time>
      </trkpt>
      <trkpt lat="40.74631" lon="-3.02388">
        <time>2021-06-19T08:05:04+0000</time>
      </trkpt>
      <trkpt lat="40.74633" lon="-3.02381">
        <time>2021-06-19T08:05:05+0000</time>
      </trkpt>
      <trkpt lat="40.74635000000001" lon="-3.02373">
        <time>2021-06-19T08:05:06+0000</time>
      </trkpt>
      <trkpt lat="40.74638" lon="-3.0236600000000005">
        <time>2021-06-19T08:05:07+0000</time>
      </trkpt>
      <trkpt lat="40.746430000000004" lon="-3.0235900000000004">
        <time>2021-06-19T08:05:08+0000</time>
      </trkpt>
      <trkpt lat="40.746480000000005" lon="-3.0234900000000002">
        <time>2021-06-19T08:05:09+0000</time>
      </trkpt>
      <trkpt lat="40.746500000000005" lon="-3.0233900000000005">
        <time>2021-06-19T08:05:10+0000</time>
      </trkpt>
      <trkpt lat="40.746550000000006" lon="-3.0232900000000003">
        <time>2021-06-19T08:05:11+0000</time>
      </trkpt>
      <trkpt lat="40.746590000000005" lon="-3.0231700000000004">
        <time>2021-06-19T08:05:12+0000</time>
      </trkpt>
      <trkpt lat="40.74662" lon="-3.0230500000000005">
        <time>2021-06-19T08:05:13+0000</time>
      </trkpt>
      <trkpt lat="40.74667" lon="-3.02293">
        <time>2021-06-19T08:05:14+0000</time>
      </trkpt>
      <trkpt lat="40.74672" lon="-3.0228">
        <time>2021-06-19T08:05:15+0000</time>
      </trkpt>
      <trkpt lat="40.746700000000004" lon="-3.0226">
        <time>2021-06-19T08:05:16+0000</time>
      </trkpt>
      <trkpt lat="40.74674" lon="-3.0224200000000003">
        <time>2021-06-19T08:05:17+0000</time>
      </trkpt>
      <trkpt lat="40.746790000000004" lon="-3.0222200000000004">
        <time>2021-06-19T08:05:18+0000</time>
      </trkpt>
      <trkpt lat="40.746840000000006" lon="-3.0220200000000004">
        <time>2021-06-19T08:05:19+0000</time>
      </trkpt>
      <trkpt lat="40.74689" lon="-3.0218300000000005">
        <time>2021-06-19T08:05:20+0000</time>
      </trkpt>
      <trkpt lat="40.746950000000005" lon="-3.02164">
        <time>2021-06-19T08:05:21+0000</time>
      </trkpt>
      <trkpt lat="40.747" lon="-3.0214600000000003">
        <time>2021-06-19T08:05:22+0000</time>
      </trkpt>
      <trkpt lat="40.74705" lon="-3.0212700000000003">
        <time>2021-06-19T08:05:23+0000</time>
      </trkpt>
      <trkpt lat="40.7471" lon="-3.0210800000000004">
        <time>2021-06-19T08:05:24+0000</time>
      </trkpt>
      <trkpt lat="40.74716" lon="-3.02089">
        <time>2021-06-19T08:05:25+0000</time>
      </trkpt>
      <trkpt lat="40.74721" lon="-3.0207100000000002">
        <time>2021-06-19T08:05:26+0000</time>
      </trkpt>
      <trkpt lat="40.747260000000004" lon="-3.0205200000000003">
        <time>2021-06-19T08:05:27+0000</time>
      </trkpt>
      <trkpt lat="40.74732" lon="-3.0203300000000004">
        <time>2021-06-19T08:05:28+0000</time>
      </trkpt>
      <trkpt lat="40.747370000000004" lon="-3.0201300000000004">
        <time>2021-06-19T08:05:29+0000</time>
      </trkpt>
      <trkpt lat="40.747420000000005" lon="-3.01994">
        <time>2021-06-19T08:05:30+0000</time>
      </trkpt>
      <trkpt lat="40.74748" lon="-3.01974">
        <time>2021-06-19T08:05:31+0000</time>
      </trkpt>
      <trkpt lat="40.747530000000005" lon="-3.01954">
        <time>2021-06-19T08:05:32+0000</time>
      </trkpt>
      <trkpt lat="40.74759" lon="-3.01934">
        <time>2021-06-19T08:05:33+0000</time>
      </trkpt>
      <trkpt lat="40.74763" lon="-3.01912">
        <time>2021-06-19T08:05:34+0000</time>
      </trkpt>
      <trkpt lat="40.747690000000006" lon="-3.0189000000000004">
        <time>2021-06-19T08:05:35+0000</time>
      </trkpt>
      <trkpt lat="40.74775" lon="-3.01867">
        <time>2021-06-19T08:05:36+0000</time>
      </trkpt>
      <trkpt lat="40.747820000000004" lon="-3.0184300000000004">
        <time>2021-06-19T08:05:37+0000</time>
      </trkpt>
      <trkpt lat="40.747890000000005" lon="-3.01818">
        <time>2021-06-19T08:05:38+0000</time>
      </trkpt>
      <trkpt lat="40.747960000000006" lon="-3.0179400000000003">
        <time>2021-06-19T08:05:39+0000</time>
      </trkpt>
      <trkpt lat="40.74803" lon="-3.0176800000000004">
        <time>2021-06-19T08:05:40+0000</time>
      </trkpt>
      <trkpt lat="40.7481" lon="-3.01743">
        <time>2021-06-19T08:05:41+0000</time>
      </trkpt>
      <trkpt lat="40.74817" lon="-3.01716">
        <time>2021-06-19T08:05:42+0000</time>
      </trkpt>
      <trkpt lat="40.74824" lon="-3.01689">
        <time>2021-06-19T08:05:43+0000</time>
      </trkpt>
      <trkpt lat="40.74832000000001" lon="-3.01662">
        <time>2021-06-19T08:05:44+0000</time>
      </trkpt>
      <trkpt lat="40.74839" lon="-3.0163400000000005">
        <time>2021-06-19T08:05:45+0000</time>
      </trkpt>
      <trkpt lat="40.748470000000005" lon="-3.0160600000000004">
        <time>2021-06-19T08:05:46+0000</time>
      </trkpt>
      <trkpt lat="40.74855" lon="-3.0157800000000003">
        <time>2021-06-19T08:05:47+0000</time>
      </trkpt>
      <trkpt lat="40.748630000000006" lon="-3.0155000000000003">
        <time>2021-06-19T08:05:48+0000</time>
      </trkpt>
      <trkpt lat="40.74870000000001" lon="-3.0152200000000002">
        <time>2021-06-19T08:05:49+0000</time>
      </trkpt>
      <trkpt lat="40.748780000000004" lon="-3.0149500000000002">
        <time>2021-06-19T08:05:50+0000</time>
      </trkpt>
      <trkpt lat="40.748850000000004" lon="-3.0146800000000002">
        <time>2021-06-19T08:05:51+0000</time>
      </trkpt>
      <trkpt lat="40.74893" lon="-3.0144">
        <time>2021-06-19T08:05:52+0000</time>
      </trkpt>
      <trkpt lat="40.749" lon="-3.01413">
        <time>2021-06-19T08:05:53+0000</time>
      </trkpt>
      <trkpt lat="40.749080000000006" lon="-3.01385">
        <time>2021-06-19T08:05:54+0000</time>
      </trkpt>
      <trkpt lat="40.74915" lon="-3.01359">
        <time>2021-06-19T08:05:55+0000</time>
      </trkpt>
      <trkpt lat="40.749230000000004" lon="-3.01331">
        <time>2021-06-19T08:05:56+0000</time>
      </trkpt>
      <trkpt lat="40.749300000000005" lon="-3.01304">
        <time>2021-06-19T08:05:57+0000</time>
      </trkpt>
      <trkpt lat="40.74938" lon="-3.01277">
        <time>2021-06-19T08:05:58+0000</time>
      </trkpt>
      <trkpt lat="40.74945" lon="-3.0125">
        <time>2021-06-19T08:05:59+0000</time>
      </trkpt>
      <trkpt lat="40.749520000000004" lon="-3.0122500000000003">
        <time>2021-06-19T08:06:00+0000</time>
      </trkpt>
      <trkpt lat="40.749590000000005" lon="-3.0120000000000005">
        <time>2021-06-19T08:06:01+0000</time>
      </trkpt>
      <trkpt lat="40.749660000000006" lon="-3.01176">
        <time>2021-06-19T08:06:02+0000</time>
      </trkpt>
      <trkpt lat="40.74972" lon="-3.0115200000000004">
        <time>2021-06-19T08:06:03+0000</time>
      </trkpt>
      <trkpt lat="40.74978" lon="-3.0112900000000002">
        <time>2021-06-19T08:06:04+0000</time>
      </trkpt>
      <trkpt lat="40.74985" lon="-3.01107">
        <time>2021-06-19T08:06:05+0000</time>
      </trkpt>
      <trkpt lat="40.749900000000004" lon="-3.01085">
        <time>2021-06-19T08:06:06+0000</time>
      </trkpt>
      <trkpt lat="40.749970000000005" lon="-3.0106300000000004">
        <time>2021-06-19T08:06:07+0000</time>
      </trkpt>
      <trkpt lat="40.75003" lon="-3.0104">
        <time>2021-06-19T08:06:08+0000</time>
      </trkpt>
      <trkpt lat="40.7501" lon="-3.0101600000000004">
        <time>2021-06-19T08:06:09+0000</time>
      </trkpt>
      <trkpt lat="40.75016" lon="-3.00992">
        <time>2021-06-19T08:06:10+0000</time>
      </trkpt>
      <trkpt lat="40.75023" lon="-3.0096700000000003">
        <time>2021-06-19T08:06:11+0000</time>
      </trkpt>
      <trkpt lat="40.7503" lon="-3.0094200000000004">
        <time>2021-06-19T08:06:12+0000</time>
      </trkpt>
      <trkpt lat="40.750370000000004" lon="-3.00917">
        <time>2021-06-19T08:06:13+0000</time>
      </trkpt>
      <trkpt lat="40.750440000000005" lon="-3.00891">
        <time>2021-06-19T08:06:14+0000</time>
      </trkpt>
      <trkpt lat="40.750510000000006" lon="-3.0086500000000003">
        <time>2021-06-19T08:06:15+0000</time>
      </trkpt>
      <trkpt lat="40.75058000000001" lon="-3.0083900000000003">
        <time>2021-06-19T08:06:16+0000</time>
      </trkpt>
      <trkpt lat="40.75065" lon="-3.0081300000000004">
        <time>2021-06-19T08:06:17+0000</time>
      </trkpt>
      <trkpt lat="40.750730000000004" lon="-3.00788">
        <time>2021-06-19T08:06:18+0000</time>
      </trkpt>
      <trkpt lat="40.750800000000005" lon="-3.0076300000000002">
        <time>2021-06-19T08:06:19+0000</time>
      </trkpt>
      <trkpt lat="40.75086" lon="-3.0073900000000005">
        <time>2021-06-19T08:06:20+0000</time>
      </trkpt>
      <trkpt lat="40.75095" lon="-3.0071600000000003">
        <time>2021-06-19T08:06:21+0000</time>
      </trkpt>
      <trkpt lat="40.75101" lon="-3.00692">
        <time>2021-06-19T08:06:22+0000</time>
      </trkpt>
      <trkpt lat="40.75108" lon="-3.0066900000000003">
        <time>2021-06-19T08:06:23+0000</time>
      </trkpt>
      <trkpt lat="40.75114000000001" lon="-3.00645">
        <time>2021-06-19T08:06:24+0000</time>
      </trkpt>
      <trkpt lat="40.75121" lon="-3.0062100000000003">
        <time>2021-06-19T08:06:25+0000</time>
      </trkpt>
      <trkpt lat="40.75128" lon="-3.00597">
        <time>2021-06-19T08:06:26+0000</time>
      </trkpt>
      <trkpt lat="40.751340000000006" lon="-3.00571">
        <time>2021-06-19T08:06:27+0000</time>
      </trkpt>
      <trkpt lat="40.75141" lon="-3.00545">
        <time>2021-06-19T08:06:28+0000</time>
      </trkpt>
      <trkpt lat="40.751490000000004" lon="-3.0051900000000002">
        <time>2021-06-19T08:06:29+0000</time>
      </trkpt>
      <trkpt lat="40.751560000000005" lon="-3.0049200000000003">
        <time>2021-06-19T08:06:30+0000</time>
      </trkpt>
      <trkpt lat="40.75164" lon="-3.0046600000000003">
        <time>2021-06-19T08:06:31+0000</time>
      </trkpt>
      <trkpt lat="40.75170000000001" lon="-3.0043800000000003">
        <time>2021-06-19T08:06:32+0000</time>
      </trkpt>
      <trkpt lat="40.751760000000004" lon="-3.0041">
        <time>2021-06-19T08:06:33+0000</time>
      </trkpt>
      <trkpt lat="40.75184" lon="-3.00382">
        <time>2021-06-19T08:06:34+0000</time>
      </trkpt>
      <trkpt lat="40.751920000000005" lon="-3.00353">
        <time>2021-06-19T08:06:35+0000</time>
      </trkpt>
      <trkpt lat="40.752" lon="-3.0032400000000004">
        <time>2021-06-19T08:06:36+0000</time>
      </trkpt>
      <trkpt lat="40.75208000000001" lon="-3.00294">
        <time>2021-06-19T08:06:37+0000</time>
      </trkpt>
      <trkpt lat="40.75216" lon="-3.00266">
        <time>2021-06-19T08:06:38+0000</time>
      </trkpt>
      <trkpt lat="40.75224" lon="-3.00238">
        <time>2021-06-19T08:06:39+0000</time>
      </trkpt>
      <trkpt lat="40.75231" lon="-3.00212">
        <time>2021-06-19T08:06:40+0000</time>
      </trkpt>
      <trkpt lat="40.75238" lon="-3.0018700000000003">
        <time>2021-06-19T08:06:41+0000</time>
      </trkpt>
      <trkpt lat="40.75245" lon="-3.00164">
        <time>2021-06-19T08:06:42+0000</time>
      </trkpt>
      <trkpt lat="40.75251" lon="-3.00143">
        <time>2021-06-19T08:06:43+0000</time>
      </trkpt>
      <trkpt lat="40.75256" lon="-3.00124">
        <time>2021-06-19T08:06:44+0000</time>
      </trkpt>
      <trkpt lat="40.752610000000004" lon="-3.0010600000000003">
        <time>2021-06-19T08:06:45+0000</time>
      </trkpt>
      <trkpt lat="40.752660000000006" lon="-3.0008800000000004">
        <time>2021-06-19T08:06:46+0000</time>
      </trkpt>
      <trkpt lat="40.752720000000004" lon="-3.00069">
        <time>2021-06-19T08:06:47+0000</time>
      </trkpt>
      <trkpt lat="40.75276" lon="-3.0005100000000002">
        <time>2021-06-19T08:06:48+0000</time>
      </trkpt>
      <trkpt lat="40.752810000000004" lon="-3.0003200000000003">
        <time>2021-06-19T08:06:49+0000</time>
      </trkpt>
      <trkpt lat="40.75285" lon="-3.00014">
        <time>2021-06-19T08:06:50+0000</time>
      </trkpt>
      <trkpt lat="40.752900000000004" lon="-2.9999800000000003">
        <time>2021-06-19T08:06:51+0000</time>
      </trkpt>
      <trkpt lat="40.752950000000006" lon="-2.99983">
        <time>2021-06-19T08:06:52+0000</time>
      </trkpt>
      <trkpt lat="40.752970000000005" lon="-2.99967">
        <time>2021-06-19T08:06:53+0000</time>
      </trkpt>
      <trkpt lat="40.753" lon="-2.9995200000000004">
        <time>2021-06-19T08:06:54+0000</time>
      </trkpt>
      <trkpt lat="40.753040000000006" lon="-2.9993600000000002">
        <time>2021-06-19T08:06:55+0000</time>
      </trkpt>
      <trkpt lat="40.753080000000004" lon="-2.9992">
        <time>2021-06-19T08:06:56+0000</time>
      </trkpt>
      <trkpt lat="40.753130000000006" lon="-2.9990200000000002">
        <time>2021-06-19T08:06:57+0000</time>
      </trkpt>
      <trkpt lat="40.75318" lon="-2.9988400000000004">
        <time>2021-06-19T08:06:58+0000</time>
      </trkpt>
      <trkpt lat="40.75323" lon="-2.99866">
        <time>2021-06-19T08:06:59+0000</time>
      </trkpt>
      <trkpt lat="40.753280000000004" lon="-2.99847">
        <time>2021-06-19T08:07:00+0000</time>
      </trkpt>
      <trkpt lat="40.753330000000005" lon="-2.99827">
        <time>2021-06-19T08:07:01+0000</time>
      </trkpt>
      <trkpt lat="40.75339" lon="-2.9980700000000002">
        <time>2021-06-19T08:07:02+0000</time>
      </trkpt>
      <trkpt lat="40.753440000000005" lon="-2.9978700000000003">
        <time>2021-06-19T08:07:03+0000</time>
      </trkpt>
      <trkpt lat="40.753510000000006" lon="-2.99766">
        <time>2021-06-19T08:07:04+0000</time>
      </trkpt>
      <trkpt lat="40.75356" lon="-2.99744">
        <time>2021-06-19T08:07:05+0000</time>
      </trkpt>
      <trkpt lat="40.75363" lon="-2.99723">
        <time>2021-06-19T08:07:06+0000</time>
      </trkpt>
      <trkpt lat="40.753690000000006" lon="-2.9970000000000003">
        <time>2021-06-19T08:07:07+0000</time>
      </trkpt>
      <trkpt lat="40.75376000000001" lon="-2.99678">
        <time>2021-06-19T08:07:08+0000</time>
      </trkpt>
      <trkpt lat="40.75383" lon="-2.99655">
        <time>2021-06-19T08:07:09+0000</time>
      </trkpt>
      <trkpt lat="40.7539" lon="-2.9963100000000003">
        <time>2021-06-19T08:07:10+0000</time>
      </trkpt>
      <trkpt lat="40.75397" lon="-2.9960700000000005">
        <time>2021-06-19T08:07:11+0000</time>
      </trkpt>
      <trkpt lat="40.75405000000001" lon="-2.99583">
        <time>2021-06-19T08:07:12+0000</time>
      </trkpt>
      <trkpt lat="40.75415" lon="-2.9956">
        <time>2021-06-19T08:07:13+0000</time>
      </trkpt>
      <trkpt lat="40.75424" lon="-2.9953700000000003">
        <time>2021-06-19T08:07:14+0000</time>
      </trkpt>
      <trkpt lat="40.75435" lon="-2.99515">
        <time>2021-06-19T08:07:15+0000</time>
      </trkpt>
      <trkpt lat="40.75446" lon="-2.99492">
        <time>2021-06-19T08:07:16+0000</time>
      </trkpt>
      <trkpt lat="40.7546" lon="-2.9947100000000004">
        <time>2021-06-19T08:07:17+0000</time>
      </trkpt>
      <trkpt lat="40.75473" lon="-2.9945100000000004">
        <time>2021-06-19T08:07:18+0000</time>
      </trkpt>
      <trkpt lat="40.75488" lon="-2.99431">
        <time>2021-06-19T08:07:19+0000</time>
      </trkpt>
      <trkpt lat="40.75502" lon="-2.9941000000000004">
        <time>2021-06-19T08:07:20+0000</time>
      </trkpt>
      <trkpt lat="40.75517000000001" lon="-2.9938900000000004">
        <time>2021-06-19T08:07:21+0000</time>
      </trkpt>
      <trkpt lat="40.75531" lon="-2.9936800000000003">
        <time>2021-06-19T08:07:22+0000</time>
      </trkpt>
      <trkpt lat="40.75544" lon="-2.9934800000000004">
        <time>2021-06-19T08:07:23+0000</time>
      </trkpt>
      <trkpt lat="40.755570000000006" lon="-2.9932800000000004">
        <time>2021-06-19T08:07:24+0000</time>
      </trkpt>
      <trkpt lat="40.755700000000004" lon="-2.9930600000000003">
        <time>2021-06-19T08:07:25+0000</time>
      </trkpt>
      <trkpt lat="40.7558" lon="-2.99283">
        <time>2021-06-19T08:07:26+0000</time>
      </trkpt>
      <trkpt lat="40.75591" lon="-2.9925900000000003">
        <time>2021-06-19T08:07:27+0000</time>
      </trkpt>
      <trkpt lat="40.75601" lon="-2.99235">
        <time>2021-06-19T08:07:28+0000</time>
      </trkpt>
      <trkpt lat="40.7561" lon="-2.99209">
        <time>2021-06-19T08:07:29+0000</time>
      </trkpt>
      <trkpt lat="40.75618" lon="-2.99182">
        <time>2021-06-19T08:07:30+0000</time>
      </trkpt>
      <trkpt lat="40.756260000000005" lon="-2.99154">
        <time>2021-06-19T08:07:31+0000</time>
      </trkpt>
      <trkpt lat="40.75634" lon="-2.9912500000000004">
        <time>2021-06-19T08:07:32+0000</time>
      </trkpt>
      <trkpt lat="40.756420000000006" lon="-2.99094">
        <time>2021-06-19T08:07:33+0000</time>
      </trkpt>
      <trkpt lat="40.7565" lon="-2.9906300000000003">
        <time>2021-06-19T08:07:34+0000</time>
      </trkpt>
      <trkpt lat="40.75658000000001" lon="-2.99033">
        <time>2021-06-19T08:07:35+0000</time>
      </trkpt>
      <trkpt lat="40.756660000000004" lon="-2.9900300000000004">
        <time>2021-06-19T08:07:36+0000</time>
      </trkpt>
      <trkpt lat="40.75674" lon="-2.9897400000000003">
        <time>2021-06-19T08:07:37+0000</time>
      </trkpt>
      <trkpt lat="40.75681" lon="-2.9894600000000002">
        <time>2021-06-19T08:07:38+0000</time>
      </trkpt>
      <trkpt lat="40.756890000000006" lon="-2.98918">
        <time>2021-06-19T08:07:39+0000</time>
      </trkpt>
      <trkpt lat="40.75695" lon="-2.9889300000000003">
        <time>2021-06-19T08:07:40+0000</time>
      </trkpt>
      <trkpt lat="40.757020000000004" lon="-2.9886800000000004">
        <time>2021-06-19T08:07:41+0000</time>
      </trkpt>
      <trkpt lat="40.757090000000005" lon="-2.98843">
        <time>2021-06-19T08:07:42+0000</time>
      </trkpt>
      <trkpt lat="40.75715" lon="-2.9881900000000003">
        <time>2021-06-19T08:07:43+0000</time>
      </trkpt>
      <trkpt lat="40.75721" lon="-2.98796">
        <time>2021-06-19T08:07:44+0000</time>
      </trkpt>
      <trkpt lat="40.757270000000005" lon="-2.9877300000000004">
        <time>2021-06-19T08:07:45+0000</time>
      </trkpt>
      <trkpt lat="40.75733" lon="-2.9875100000000003">
        <time>2021-06-19T08:07:46+0000</time>
      </trkpt>
      <trkpt lat="40.75739" lon="-2.9872900000000002">
        <time>2021-06-19T08:07:47+0000</time>
      </trkpt>
      <trkpt lat="40.75744" lon="-2.9870900000000002">
        <time>2021-06-19T08:07:48+0000</time>
      </trkpt>
      <trkpt lat="40.75751" lon="-2.9869100000000004">
        <time>2021-06-19T08:07:49+0000</time>
      </trkpt>
      <trkpt lat="40.757540000000006" lon="-2.98674">
        <time>2021-06-19T08:07:50+0000</time>
      </trkpt>
      <trkpt lat="40.757580000000004" lon="-2.9865700000000004">
        <time>2021-06-19T08:07:51+0000</time>
      </trkpt>
      <trkpt lat="40.75762" lon="-2.9864100000000002">
        <time>2021-06-19T08:07:52+0000</time>
      </trkpt>
      <trkpt lat="40.75766" lon="-2.98626">
        <time>2021-06-19T08:07:53+0000</time>
      </trkpt>
      <trkpt lat="40.7577" lon="-2.98611">
        <time>2021-06-19T08:07:54+0000</time>
      </trkpt>
      <trkpt lat="40.75773" lon="-2.9859600000000004">
        <time>2021-06-19T08:07:55+0000</time>
      </trkpt>
      <trkpt lat="40.757760000000005" lon="-2.9858200000000004">
        <time>2021-06-19T08:07:56+0000</time>
      </trkpt>
      <trkpt lat="40.75779" lon="-2.9857000000000005">
        <time>2021-06-19T08:07:57+0000</time>
      </trkpt>
      <trkpt lat="40.75782" lon="-2.98558">
        <time>2021-06-19T08:07:58+0000</time>
      </trkpt>
      <trkpt lat="40.757850000000005" lon="-2.9854600000000002">
        <time>2021-06-19T08:07:59+0000</time>
      </trkpt>
      <trkpt lat="40.75788" lon="-2.9853400000000003">
        <time>2021-06-19T08:08:00+0000</time>
      </trkpt>
      <trkpt lat="40.757920000000006" lon="-2.9852000000000003">
        <time>2021-06-19T08:08:01+0000</time>
      </trkpt>
      <trkpt lat="40.757960000000004" lon="-2.98505">
        <time>2021-06-19T08:08:02+0000</time>
      </trkpt>
      <trkpt lat="40.758" lon="-2.9849">
        <time>2021-06-19T08:08:03+0000</time>
      </trkpt>
      <trkpt lat="40.75804" lon="-2.9847500000000005">
        <time>2021-06-19T08:08:04+0000</time>
      </trkpt>
      <trkpt lat="40.75808000000001" lon="-2.9845900000000003">
        <time>2021-06-19T08:08:05+0000</time>
      </trkpt>
      <trkpt lat="40.758120000000005" lon="-2.98442">
        <time>2021-06-19T08:08:06+0000</time>
      </trkpt>
      <trkpt lat="40.75817" lon="-2.9842600000000004">
        <time>2021-06-19T08:08:07+0000</time>
      </trkpt>
      <trkpt lat="40.758210000000005" lon="-2.98408">
        <time>2021-06-19T08:08:08+0000</time>
      </trkpt>
      <trkpt lat="40.75826" lon="-2.98389">
        <time>2021-06-19T08:08:09+0000</time>
      </trkpt>
      <trkpt lat="40.758320000000005" lon="-2.98369">
        <time>2021-06-19T08:08:10+0000</time>
      </trkpt>
      <trkpt lat="40.758370000000006" lon="-2.98349">
        <time>2021-06-19T08:08:11+0000</time>
      </trkpt>
      <trkpt lat="40.758430000000004" lon="-2.98328">
        <time>2021-06-19T08:08:12+0000</time>
      </trkpt>
      <trkpt lat="40.758480000000006" lon="-2.98307">
        <time>2021-06-19T08:08:13+0000</time>
      </trkpt>
      <trkpt lat="40.75854" lon="-2.9828500000000004">
        <time>2021-06-19T08:08:14+0000</time>
      </trkpt>
      <trkpt lat="40.7586" lon="-2.9826300000000003">
        <time>2021-06-19T08:08:15+0000</time>
      </trkpt>
      <trkpt lat="40.758660000000006" lon="-2.9824100000000002">
        <time>2021-06-19T08:08:16+0000</time>
      </trkpt>
      <trkpt lat="40.75873" lon="-2.98218">
        <time>2021-06-19T08:08:17+0000</time>
      </trkpt>
      <trkpt lat="40.758790000000005" lon="-2.9819400000000003">
        <time>2021-06-19T08:08:18+0000</time>
      </trkpt>
      <trkpt lat="40.75885" lon="-2.98171">
        <time>2021-06-19T08:08:19+0000</time>
      </trkpt>
      <trkpt lat="40.75891" lon="-2.9814800000000004">
        <time>2021-06-19T08:08:20+0000</time>
      </trkpt>
      <trkpt lat="40.758970000000005" lon="-2.98124">
        <time>2021-06-19T08:08:21+0000</time>
      </trkpt>
      <trkpt lat="40.759040000000006" lon="-2.98098">
        <time>2021-06-19T08:08:22+0000</time>
      </trkpt>
      <trkpt lat="40.759100000000004" lon="-2.9807200000000003">
        <time>2021-06-19T08:08:23+0000</time>
      </trkpt>
      <trkpt lat="40.759170000000005" lon="-2.9804500000000003">
        <time>2021-06-19T08:08:24+0000</time>
      </trkpt>
      <trkpt lat="40.75923" lon="-2.9801800000000003">
        <time>2021-06-19T08:08:25+0000</time>
      </trkpt>
      <trkpt lat="40.75929" lon="-2.9799100000000003">
        <time>2021-06-19T08:08:26+0000</time>
      </trkpt>
      <trkpt lat="40.759350000000005" lon="-2.9796500000000004">
        <time>2021-06-19T08:08:27+0000</time>
      </trkpt>
      <trkpt lat="40.75941" lon="-2.9794">
        <time>2021-06-19T08:08:28+0000</time>
      </trkpt>
      <trkpt lat="40.75947" lon="-2.97915">
        <time>2021-06-19T08:08:29+0000</time>
      </trkpt>
      <trkpt lat="40.759530000000005" lon="-2.9789000000000003">
        <time>2021-06-19T08:08:30+0000</time>
      </trkpt>
      <trkpt lat="40.75958000000001" lon="-2.9786500000000005">
        <time>2021-06-19T08:08:31+0000</time>
      </trkpt>
      <trkpt lat="40.759640000000005" lon="-2.9784">
        <time>2021-06-19T08:08:32+0000</time>
      </trkpt>
      <trkpt lat="40.759690000000006" lon="-2.9781600000000004">
        <time>2021-06-19T08:08:33+0000</time>
      </trkpt>
      <trkpt lat="40.759730000000005" lon="-2.97792">
        <time>2021-06-19T08:08:34+0000</time>
      </trkpt>
      <trkpt lat="40.759780000000006" lon="-2.9776700000000003">
        <time>2021-06-19T08:08:35+0000</time>
      </trkpt>
      <trkpt lat="40.759840000000004" lon="-2.9774300000000005">
        <time>2021-06-19T08:08:36+0000</time>
      </trkpt>
      <trkpt lat="40.759890000000006" lon="-2.97718">
        <time>2021-06-19T08:08:37+0000</time>
      </trkpt>
      <trkpt lat="40.75994" lon="-2.9769400000000004">
        <time>2021-06-19T08:08:38+0000</time>
      </trkpt>
      <trkpt lat="40.760000000000005" lon="-2.9767">
        <time>2021-06-19T08:08:39+0000</time>
      </trkpt>
      <trkpt lat="40.76005000000001" lon="-2.9764600000000003">
        <time>2021-06-19T08:08:40+0000</time>
      </trkpt>
      <trkpt lat="40.7601" lon="-2.97622">
        <time>2021-06-19T08:08:41+0000</time>
      </trkpt>
      <trkpt lat="40.76015" lon="-2.9759900000000004">
        <time>2021-06-19T08:08:42+0000</time>
      </trkpt>
      <trkpt lat="40.760200000000005" lon="-2.97576">
        <time>2021-06-19T08:08:43+0000</time>
      </trkpt>
      <trkpt lat="40.760250000000006" lon="-2.9755300000000005">
        <time>2021-06-19T08:08:44+0000</time>
      </trkpt>
      <trkpt lat="40.760310000000004" lon="-2.97529">
        <time>2021-06-19T08:08:45+0000</time>
      </trkpt>
      <trkpt lat="40.760360000000006" lon="-2.97506">
        <time>2021-06-19T08:08:46+0000</time>
      </trkpt>
      <trkpt lat="40.76041" lon="-2.9748200000000002">
        <time>2021-06-19T08:08:47+0000</time>
      </trkpt>
      <trkpt lat="40.76048" lon="-2.97459">
        <time>2021-06-19T08:08:48+0000</time>
      </trkpt>
      <trkpt lat="40.76053" lon="-2.97434">
        <time>2021-06-19T08:08:49+0000</time>
      </trkpt>
      <trkpt lat="40.76059" lon="-2.9740800000000003">
        <time>2021-06-19T08:08:50+0000</time>
      </trkpt>
      <trkpt lat="40.760630000000006" lon="-2.9738100000000003">
        <time>2021-06-19T08:08:51+0000</time>
      </trkpt>
      <trkpt lat="40.760690000000004" lon="-2.9735400000000003">
        <time>2021-06-19T08:08:52+0000</time>
      </trkpt>
      <trkpt lat="40.76075" lon="-2.9732600000000002">
        <time>2021-06-19T08:08:53+0000</time>
      </trkpt>
      <trkpt lat="40.760810000000006" lon="-2.9729900000000002">
        <time>2021-06-19T08:08:54+0000</time>
      </trkpt>
      <trkpt lat="40.76088" lon="-2.97271">
        <time>2021-06-19T08:08:55+0000</time>
      </trkpt>
      <trkpt lat="40.760940000000005" lon="-2.97243">
        <time>2021-06-19T08:08:56+0000</time>
      </trkpt>
      <trkpt lat="40.761" lon="-2.97216">
        <time>2021-06-19T08:08:57+0000</time>
      </trkpt>
      <trkpt lat="40.76106" lon="-2.97189">
        <time>2021-06-19T08:08:58+0000</time>
      </trkpt>
      <trkpt lat="40.76111" lon="-2.97162">
        <time>2021-06-19T08:08:59+0000</time>
      </trkpt>
      <trkpt lat="40.76117" lon="-2.9713600000000002">
        <time>2021-06-19T08:09:00+0000</time>
      </trkpt>
      <trkpt lat="40.761230000000005" lon="-2.9710900000000002">
        <time>2021-06-19T08:09:01+0000</time>
      </trkpt>
      <trkpt lat="40.76129" lon="-2.9708300000000003">
        <time>2021-06-19T08:09:02+0000</time>
      </trkpt>
      <trkpt lat="40.76135" lon="-2.9705600000000003">
        <time>2021-06-19T08:09:03+0000</time>
      </trkpt>
      <trkpt lat="40.761410000000005" lon="-2.9703000000000004">
        <time>2021-06-19T08:09:04+0000</time>
      </trkpt>
      <trkpt lat="40.76146000000001" lon="-2.97005">
        <time>2021-06-19T08:09:05+0000</time>
      </trkpt>
      <trkpt lat="40.76151" lon="-2.9698100000000003">
        <time>2021-06-19T08:09:06+0000</time>
      </trkpt>
      <trkpt lat="40.76156" lon="-2.96958">
        <time>2021-06-19T08:09:07+0000</time>
      </trkpt>
      <trkpt lat="40.761610000000005" lon="-2.9693600000000004">
        <time>2021-06-19T08:09:08+0000</time>
      </trkpt>
      <trkpt lat="40.761660000000006" lon="-2.9691500000000004">
        <time>2021-06-19T08:09:09+0000</time>
      </trkpt>
      <trkpt lat="40.761700000000005" lon="-2.96897">
        <time>2021-06-19T08:09:10+0000</time>
      </trkpt>
      <trkpt lat="40.76174" lon="-2.9687900000000003">
        <time>2021-06-19T08:09:11+0000</time>
      </trkpt>
      <trkpt lat="40.761770000000006" lon="-2.96862">
        <time>2021-06-19T08:09:12+0000</time>
      </trkpt>
      <trkpt lat="40.761810000000004" lon="-2.9684500000000003">
        <time>2021-06-19T08:09:13+0000</time>
      </trkpt>
      <trkpt lat="40.76185" lon="-2.9682700000000004">
        <time>2021-06-19T08:09:14+0000</time>
      </trkpt>
      <trkpt lat="40.76189" lon="-2.96808">
        <time>2021-06-19T08:09:15+0000</time>
      </trkpt>
      <trkpt lat="40.76193000000001" lon="-2.96788">
        <time>2021-06-19T08:09:16+0000</time>
      </trkpt>
      <trkpt lat="40.76198" lon="-2.96768">
        <time>2021-06-19T08:09:17+0000</time>
      </trkpt>
      <trkpt lat="40.76202000000001" lon="-2.96749">
        <time>2021-06-19T08:09:18+0000</time>
      </trkpt>
      <trkpt lat="40.762060000000005" lon="-2.9673000000000003">
        <time>2021-06-19T08:09:19+0000</time>
      </trkpt>
      <trkpt lat="40.762100000000004" lon="-2.9671100000000004">
        <time>2021-06-19T08:09:20+0000</time>
      </trkpt>
      <trkpt lat="40.76214" lon="-2.9669100000000004">
        <time>2021-06-19T08:09:21+0000</time>
      </trkpt>
      <trkpt lat="40.762190000000004" lon="-2.9667000000000003">
        <time>2021-06-19T08:09:22+0000</time>
      </trkpt>
      <trkpt lat="40.762240000000006" lon="-2.9664800000000002">
        <time>2021-06-19T08:09:23+0000</time>
      </trkpt>
      <trkpt lat="40.762280000000004" lon="-2.96625">
        <time>2021-06-19T08:09:24+0000</time>
      </trkpt>
      <trkpt lat="40.762330000000006" lon="-2.9660200000000003">
        <time>2021-06-19T08:09:25+0000</time>
      </trkpt>
      <trkpt lat="40.76239" lon="-2.96578">
        <time>2021-06-19T08:09:26+0000</time>
      </trkpt>
      <trkpt lat="40.762440000000005" lon="-2.9655400000000003">
        <time>2021-06-19T08:09:27+0000</time>
      </trkpt>
      <trkpt lat="40.76249000000001" lon="-2.9653">
        <time>2021-06-19T08:09:28+0000</time>
      </trkpt>
      <trkpt lat="40.76254" lon="-2.9650600000000003">
        <time>2021-06-19T08:09:29+0000</time>
      </trkpt>
      <trkpt lat="40.76259" lon="-2.9648200000000005">
        <time>2021-06-19T08:09:30+0000</time>
      </trkpt>
      <trkpt lat="40.76265" lon="-2.96457">
        <time>2021-06-19T08:09:31+0000</time>
      </trkpt>
      <trkpt lat="40.7627" lon="-2.9643300000000004">
        <time>2021-06-19T08:09:32+0000</time>
      </trkpt>
      <trkpt lat="40.762750000000004" lon="-2.96409">
        <time>2021-06-19T08:09:33+0000</time>
      </trkpt>
      <trkpt lat="40.762800000000006" lon="-2.9638700000000004">
        <time>2021-06-19T08:09:34+0000</time>
      </trkpt>
      <trkpt lat="40.762840000000004" lon="-2.9636600000000004">
        <time>2021-06-19T08:09:35+0000</time>
      </trkpt>
      <trkpt lat="40.762890000000006" lon="-2.9634600000000004">
        <time>2021-06-19T08:09:36+0000</time>
      </trkpt>
      <trkpt lat="40.76292" lon="-2.96328">
        <time>2021-06-19T08:09:37+0000</time>
      </trkpt>
      <trkpt lat="40.76296000000001" lon="-2.9631200000000004">
        <time>2021-06-19T08:09:38+0000</time>
      </trkpt>
      <trkpt lat="40.763000000000005" lon="-2.9629800000000004">
        <time>2021-06-19T08:09:39+0000</time>
      </trkpt>
      <trkpt lat="40.76301" lon="-2.9628300000000003">
        <time>2021-06-19T08:09:40+0000</time>
      </trkpt>
      <trkpt lat="40.76303" lon="-2.9627100000000004">
        <time>2021-06-19T08:09:41+0000</time>
      </trkpt>
      <trkpt lat="40.76305" lon="-2.9626">
        <time>2021-06-19T08:09:42+0000</time>
      </trkpt>
      <trkpt lat="40.76306" lon="-2.9625000000000004">
        <time>2021-06-19T08:09:43+0000</time>
      </trkpt>
      <trkpt lat="40.76308" lon="-2.96241">
        <time>2021-06-19T08:09:44+0000</time>
      </trkpt>
      <trkpt lat="40.7631" lon="-2.96232">
        <time>2021-06-19T08:09:45+0000</time>
      </trkpt>
      <trkpt lat="40.76312" lon="-2.9622400000000004">
        <time>2021-06-19T08:09:46+0000</time>
      </trkpt>
      <trkpt lat="40.76314" lon="-2.9621500000000003">
        <time>2021-06-19T08:09:47+0000</time>
      </trkpt>
      <trkpt lat="40.763160000000006" lon="-2.96207">
        <time>2021-06-19T08:09:48+0000</time>
      </trkpt>
      <trkpt lat="40.76317" lon="-2.962">
        <time>2021-06-19T08:09:49+0000</time>
      </trkpt>
      <trkpt lat="40.76319" lon="-2.96193">
        <time>2021-06-19T08:09:50+0000</time>
      </trkpt>
      <trkpt lat="40.763200000000005" lon="-2.96185">
        <time>2021-06-19T08:09:51+0000</time>
      </trkpt>
      <trkpt lat="40.763220000000004" lon="-2.9617700000000005">
        <time>2021-06-19T08:09:52+0000</time>
      </trkpt>
      <trkpt lat="40.76324" lon="-2.9617000000000004">
        <time>2021-06-19T08:09:53+0000</time>
      </trkpt>
      <trkpt lat="40.763250000000006" lon="-2.9616200000000004">
        <time>2021-06-19T08:09:54+0000</time>
      </trkpt>
      <trkpt lat="40.763270000000006" lon="-2.9615400000000003">
        <time>2021-06-19T08:09:55+0000</time>
      </trkpt>
      <trkpt lat="40.763290000000005" lon="-2.96146">
        <time>2021-06-19T08:09:56+0000</time>
      </trkpt>
      <trkpt lat="40.763310000000004" lon="-2.96138">
        <time>2021-06-19T08:09:57+0000</time>
      </trkpt>
      <trkpt lat="40.76333" lon="-2.9612900000000004">
        <time>2021-06-19T08:09:58+0000</time>
      </trkpt>
      <trkpt lat="40.76335" lon="-2.96119">
        <time>2021-06-19T08:09:59+0000</time>
      </trkpt>
      <trkpt lat="40.76337" lon="-2.9610800000000004">
        <time>2021-06-19T08:10:00+0000</time>
      </trkpt>
      <trkpt lat="40.763400000000004" lon="-2.96097">
        <time>2021-06-19T08:10:01+0000</time>
      </trkpt>
      <trkpt lat="40.76342" lon="-2.96084">
        <time>2021-06-19T08:10:02+0000</time>
      </trkpt>
      <trkpt lat="40.763450000000006" lon="-2.96069">
        <time>2021-06-19T08:10:03+0000</time>
      </trkpt>
      <trkpt lat="40.763490000000004" lon="-2.9605400000000004">
        <time>2021-06-19T08:10:04+0000</time>
      </trkpt>
      <trkpt lat="40.76352000000001" lon="-2.9603800000000002">
        <time>2021-06-19T08:10:05+0000</time>
      </trkpt>
      <trkpt lat="40.76355" lon="-2.96023">
        <time>2021-06-19T08:10:06+0000</time>
      </trkpt>
      <trkpt lat="40.76359" lon="-2.9600700000000004">
        <time>2021-06-19T08:10:07+0000</time>
      </trkpt>
      <trkpt lat="40.76362" lon="-2.9599">
        <time>2021-06-19T08:10:08+0000</time>
      </trkpt>
      <trkpt lat="40.76366" lon="-2.9597300000000004">
        <time>2021-06-19T08:10:09+0000</time>
      </trkpt>
      <trkpt lat="40.7637" lon="-2.95956">
        <time>2021-06-19T08:10:10+0000</time>
      </trkpt>
      <trkpt lat="40.76373" lon="-2.9593900000000004">
        <time>2021-06-19T08:10:11+0000</time>
      </trkpt>
      <trkpt lat="40.76377" lon="-2.95921">
        <time>2021-06-19T08:10:12+0000</time>
      </trkpt>
      <trkpt lat="40.76381000000001" lon="-2.9590400000000003">
        <time>2021-06-19T08:10:13+0000</time>
      </trkpt>
      <trkpt lat="40.763850000000005" lon="-2.95886">
        <time>2021-06-19T08:10:14+0000</time>
      </trkpt>
      <trkpt lat="40.76388" lon="-2.9587000000000003">
        <time>2021-06-19T08:10:15+0000</time>
      </trkpt>
      <trkpt lat="40.763920000000006" lon="-2.95852">
        <time>2021-06-19T08:10:16+0000</time>
      </trkpt>
      <trkpt lat="40.763960000000004" lon="-2.95834">
        <time>2021-06-19T08:10:17+0000</time>
      </trkpt>
      <trkpt lat="40.764" lon="-2.9581600000000003">
        <time>2021-06-19T08:10:18+0000</time>
      </trkpt>
      <trkpt lat="40.764050000000005" lon="-2.9579700000000004">
        <time>2021-06-19T08:10:19+0000</time>
      </trkpt>
      <trkpt lat="40.76409" lon="-2.9577700000000005">
        <time>2021-06-19T08:10:20+0000</time>
      </trkpt>
      <trkpt lat="40.764140000000005" lon="-2.9575600000000004">
        <time>2021-06-19T08:10:21+0000</time>
      </trkpt>
      <trkpt lat="40.76418" lon="-2.9573500000000004">
        <time>2021-06-19T08:10:22+0000</time>
      </trkpt>
      <trkpt lat="40.764230000000005" lon="-2.9571400000000003">
        <time>2021-06-19T08:10:23+0000</time>
      </trkpt>
      <trkpt lat="40.76427" lon="-2.9569400000000003">
        <time>2021-06-19T08:10:24+0000</time>
      </trkpt>
      <trkpt lat="40.764320000000005" lon="-2.9567500000000004">
        <time>2021-06-19T08:10:25+0000</time>
      </trkpt>
      <trkpt lat="40.76436" lon="-2.95657">
        <time>2021-06-19T08:10:26+0000</time>
      </trkpt>
      <trkpt lat="40.7644" lon="-2.9563900000000003">
        <time>2021-06-19T08:10:27+0000</time>
      </trkpt>
      <trkpt lat="40.76444" lon="-2.9562100000000004">
        <time>2021-06-19T08:10:28+0000</time>
      </trkpt>
      <trkpt lat="40.76447" lon="-2.9560400000000002">
        <time>2021-06-19T08:10:29+0000</time>
      </trkpt>
      <trkpt lat="40.76451" lon="-2.9558700000000004">
        <time>2021-06-19T08:10:30+0000</time>
      </trkpt>
      <trkpt lat="40.764540000000004" lon="-2.9557">
        <time>2021-06-19T08:10:31+0000</time>
      </trkpt>
      <trkpt lat="40.764570000000006" lon="-2.95554">
        <time>2021-06-19T08:10:32+0000</time>
      </trkpt>
      <trkpt lat="40.7646" lon="-2.9553700000000003">
        <time>2021-06-19T08:10:33+0000</time>
      </trkpt>
      <trkpt lat="40.764630000000004" lon="-2.95521">
        <time>2021-06-19T08:10:34+0000</time>
      </trkpt>
      <trkpt lat="40.764660000000006" lon="-2.9550500000000004">
        <time>2021-06-19T08:10:35+0000</time>
      </trkpt>
      <trkpt lat="40.76469" lon="-2.9548900000000002">
        <time>2021-06-19T08:10:36+0000</time>
      </trkpt>
      <trkpt lat="40.764720000000004" lon="-2.9547200000000005">
        <time>2021-06-19T08:10:37+0000</time>
      </trkpt>
      <trkpt lat="40.76475000000001" lon="-2.9545700000000004">
        <time>2021-06-19T08:10:38+0000</time>
      </trkpt>
      <trkpt lat="40.764770000000006" lon="-2.9544300000000003">
        <time>2021-06-19T08:10:39+0000</time>
      </trkpt>
      <trkpt lat="40.7648" lon="-2.9543000000000004">
        <time>2021-06-19T08:10:40+0000</time>
      </trkpt>
      <trkpt lat="40.76482" lon="-2.9541600000000003">
        <time>2021-06-19T08:10:41+0000</time>
      </trkpt>
      <trkpt lat="40.76485" lon="-2.9540200000000003">
        <time>2021-06-19T08:10:42+0000</time>
      </trkpt>
      <trkpt lat="40.764880000000005" lon="-2.9538800000000003">
        <time>2021-06-19T08:10:43+0000</time>
      </trkpt>
      <trkpt lat="40.764900000000004" lon="-2.95373">
        <time>2021-06-19T08:10:44+0000</time>
      </trkpt>
      <trkpt lat="40.76493000000001" lon="-2.95357">
        <time>2021-06-19T08:10:45+0000</time>
      </trkpt>
      <trkpt lat="40.764950000000006" lon="-2.9534100000000003">
        <time>2021-06-19T08:10:46+0000</time>
      </trkpt>
      <trkpt lat="40.764970000000005" lon="-2.95324">
        <time>2021-06-19T08:10:47+0000</time>
      </trkpt>
      <trkpt lat="40.765" lon="-2.9530800000000004">
        <time>2021-06-19T08:10:48+0000</time>
      </trkpt>
      <trkpt lat="40.76502" lon="-2.95292">
        <time>2021-06-19T08:10:49+0000</time>
      </trkpt>
      <trkpt lat="40.765040000000006" lon="-2.9527500000000004">
        <time>2021-06-19T08:10:50+0000</time>
      </trkpt>
      <trkpt lat="40.765060000000005" lon="-2.9526000000000003">
        <time>2021-06-19T08:10:51+0000</time>
      </trkpt>
      <trkpt lat="40.765080000000005" lon="-2.9524500000000002">
        <time>2021-06-19T08:10:52+0000</time>
      </trkpt>
      <trkpt lat="40.76509" lon="-2.95231">
        <time>2021-06-19T08:10:53+0000</time>
      </trkpt>
      <trkpt lat="40.76509" lon="-2.95217">
        <time>2021-06-19T08:10:54+0000</time>
      </trkpt>
      <trkpt lat="40.765100000000004" lon="-2.9520500000000003">
        <time>2021-06-19T08:10:55+0000</time>
      </trkpt>
      <trkpt lat="40.76511" lon="-2.9519200000000003">
        <time>2021-06-19T08:10:56+0000</time>
      </trkpt>
      <trkpt lat="40.76512" lon="-2.9517900000000004">
        <time>2021-06-19T08:10:57+0000</time>
      </trkpt>
      <trkpt lat="40.76514" lon="-2.9516600000000004">
        <time>2021-06-19T08:10:58+0000</time>
      </trkpt>
      <trkpt lat="40.765150000000006" lon="-2.9515300000000004">
        <time>2021-06-19T08:10:59+0000</time>
      </trkpt>
      <trkpt lat="40.76516" lon="-2.9513900000000004">
        <time>2021-06-19T08:11:00+0000</time>
      </trkpt>
      <trkpt lat="40.765170000000005" lon="-2.9512500000000004">
        <time>2021-06-19T08:11:01+0000</time>
      </trkpt>
      <trkpt lat="40.76518" lon="-2.9511000000000003">
        <time>2021-06-19T08:11:02+0000</time>
      </trkpt>
      <trkpt lat="40.765190000000004" lon="-2.9509600000000002">
        <time>2021-06-19T08:11:03+0000</time>
      </trkpt>
      <trkpt lat="40.7652" lon="-2.95081">
        <time>2021-06-19T08:11:04+0000</time>
      </trkpt>
      <trkpt lat="40.76521" lon="-2.95066">
        <time>2021-06-19T08:11:05+0000</time>
      </trkpt>
      <trkpt lat="40.76522000000001" lon="-2.9505100000000004">
        <time>2021-06-19T08:11:06+0000</time>
      </trkpt>
      <trkpt lat="40.76522000000001" lon="-2.9503700000000004">
        <time>2021-06-19T08:11:07+0000</time>
      </trkpt>
      <trkpt lat="40.76523" lon="-2.9502300000000004">
        <time>2021-06-19T08:11:08+0000</time>
      </trkpt>
      <trkpt lat="40.765240000000006" lon="-2.9501000000000004">
        <time>2021-06-19T08:11:09+0000</time>
      </trkpt>
      <trkpt lat="40.765240000000006" lon="-2.9499700000000004">
        <time>2021-06-19T08:11:10+0000</time>
      </trkpt>
      <trkpt lat="40.76525" lon="-2.94986">
        <time>2021-06-19T08:11:11+0000</time>
      </trkpt>
      <trkpt lat="40.765260000000005" lon="-2.9497500000000003">
        <time>2021-06-19T08:11:12+0000</time>
      </trkpt>
      <trkpt lat="40.765260000000005" lon="-2.94965">
        <time>2021-06-19T08:11:13+0000</time>
      </trkpt>
      <trkpt lat="40.76527" lon="-2.9495500000000003">
        <time>2021-06-19T08:11:14+0000</time>
      </trkpt>
      <trkpt lat="40.765280000000004" lon="-2.94944">
        <time>2021-06-19T08:11:15+0000</time>
      </trkpt>
      <trkpt lat="40.765280000000004" lon="-2.94932">
        <time>2021-06-19T08:11:16+0000</time>
      </trkpt>
      <trkpt lat="40.76529" lon="-2.9492000000000003">
        <time>2021-06-19T08:11:17+0000</time>
      </trkpt>
      <trkpt lat="40.76529" lon="-2.9490700000000003">
        <time>2021-06-19T08:11:18+0000</time>
      </trkpt>
      <trkpt lat="40.7653" lon="-2.9489400000000003">
        <time>2021-06-19T08:11:19+0000</time>
      </trkpt>
      <trkpt lat="40.76531000000001" lon="-2.9488000000000003">
        <time>2021-06-19T08:11:20+0000</time>
      </trkpt>
      <trkpt lat="40.76532" lon="-2.9486700000000003">
        <time>2021-06-19T08:11:21+0000</time>
      </trkpt>
      <trkpt lat="40.765330000000006" lon="-2.9485400000000004">
        <time>2021-06-19T08:11:22+0000</time>
      </trkpt>
      <trkpt lat="40.76534" lon="-2.9484100000000004">
        <time>2021-06-19T08:11:23+0000</time>
      </trkpt>
      <trkpt lat="40.76534" lon="-2.9482600000000003">
        <time>2021-06-19T08:11:24+0000</time>
      </trkpt>
      <trkpt lat="40.765350000000005" lon="-2.9481100000000002">
        <time>2021-06-19T08:11:25+0000</time>
      </trkpt>
      <trkpt lat="40.76536" lon="-2.94795">
        <time>2021-06-19T08:11:26+0000</time>
      </trkpt>
      <trkpt lat="40.765370000000004" lon="-2.9477900000000004">
        <time>2021-06-19T08:11:27+0000</time>
      </trkpt>
      <trkpt lat="40.76538" lon="-2.94762">
        <time>2021-06-19T08:11:28+0000</time>
      </trkpt>
      <trkpt lat="40.765390000000004" lon="-2.9474500000000003">
        <time>2021-06-19T08:11:29+0000</time>
      </trkpt>
      <trkpt lat="40.76540000000001" lon="-2.94728">
        <time>2021-06-19T08:11:30+0000</time>
      </trkpt>
      <trkpt lat="40.76541" lon="-2.9471000000000003">
        <time>2021-06-19T08:11:31+0000</time>
      </trkpt>
      <trkpt lat="40.765420000000006" lon="-2.94693">
        <time>2021-06-19T08:11:32+0000</time>
      </trkpt>
      <trkpt lat="40.76543" lon="-2.9467600000000003">
        <time>2021-06-19T08:11:33+0000</time>
      </trkpt>
      <trkpt lat="40.765440000000005" lon="-2.94659">
        <time>2021-06-19T08:11:34+0000</time>
      </trkpt>
      <trkpt lat="40.76545" lon="-2.9464">
        <time>2021-06-19T08:11:35+0000</time>
      </trkpt>
      <trkpt lat="40.765460000000004" lon="-2.9462200000000003">
        <time>2021-06-19T08:11:36+0000</time>
      </trkpt>
      <trkpt lat="40.76547" lon="-2.9460200000000003">
        <time>2021-06-19T08:11:37+0000</time>
      </trkpt>
      <trkpt lat="40.765480000000004" lon="-2.9458200000000003">
        <time>2021-06-19T08:11:38+0000</time>
      </trkpt>
      <trkpt lat="40.765480000000004" lon="-2.9456">
        <time>2021-06-19T08:11:39+0000</time>
      </trkpt>
      <trkpt lat="40.76549000000001" lon="-2.9453600000000004">
        <time>2021-06-19T08:11:40+0000</time>
      </trkpt>
      <trkpt lat="40.7655" lon="-2.94511">
        <time>2021-06-19T08:11:41+0000</time>
      </trkpt>
      <trkpt lat="40.76552" lon="-2.94483">
        <time>2021-06-19T08:11:42+0000</time>
      </trkpt>
      <trkpt lat="40.765530000000005" lon="-2.9445400000000004">
        <time>2021-06-19T08:11:43+0000</time>
      </trkpt>
      <trkpt lat="40.76554" lon="-2.9442600000000003">
        <time>2021-06-19T08:11:44+0000</time>
      </trkpt>
      <trkpt lat="40.76556" lon="-2.94396">
        <time>2021-06-19T08:11:45+0000</time>
      </trkpt>
      <trkpt lat="40.765570000000004" lon="-2.9436500000000003">
        <time>2021-06-19T08:11:46+0000</time>
      </trkpt>
      <trkpt lat="40.76559" lon="-2.9433300000000004">
        <time>2021-06-19T08:11:47+0000</time>
      </trkpt>
      <trkpt lat="40.765600000000006" lon="-2.9429900000000004">
        <time>2021-06-19T08:11:48+0000</time>
      </trkpt>
      <trkpt lat="40.765620000000006" lon="-2.9426400000000004">
        <time>2021-06-19T08:11:49+0000</time>
      </trkpt>
      <trkpt lat="40.765640000000005" lon="-2.9422800000000002">
        <time>2021-06-19T08:11:50+0000</time>
      </trkpt>
      <trkpt lat="40.765660000000004" lon="-2.94193">
        <time>2021-06-19T08:11:51+0000</time>
      </trkpt>
      <trkpt lat="40.76568" lon="-2.94158">
        <time>2021-06-19T08:11:52+0000</time>
      </trkpt>
      <trkpt lat="40.765690000000006" lon="-2.9412300000000005">
        <time>2021-06-19T08:11:53+0000</time>
      </trkpt>
      <trkpt lat="40.7657" lon="-2.9408900000000004">
        <time>2021-06-19T08:11:54+0000</time>
      </trkpt>
      <trkpt lat="40.765690000000006" lon="-2.9405500000000004">
        <time>2021-06-19T08:11:55+0000</time>
      </trkpt>
      <trkpt lat="40.76568" lon="-2.9402100000000004">
        <time>2021-06-19T08:11:56+0000</time>
      </trkpt>
      <trkpt lat="40.765660000000004" lon="-2.9398700000000004">
        <time>2021-06-19T08:11:57+0000</time>
      </trkpt>
      <trkpt lat="40.765640000000005" lon="-2.9395300000000004">
        <time>2021-06-19T08:11:58+0000</time>
      </trkpt>
      <trkpt lat="40.765620000000006" lon="-2.9391900000000004">
        <time>2021-06-19T08:11:59+0000</time>
      </trkpt>
      <trkpt lat="40.76558" lon="-2.9388400000000003">
        <time>2021-06-19T08:12:00+0000</time>
      </trkpt>
      <trkpt lat="40.765550000000005" lon="-2.9385000000000003">
        <time>2021-06-19T08:12:01+0000</time>
      </trkpt>
      <trkpt lat="40.7655" lon="-2.9381500000000003">
        <time>2021-06-19T08:12:02+0000</time>
      </trkpt>
      <trkpt lat="40.76547" lon="-2.9378100000000003">
        <time>2021-06-19T08:12:03+0000</time>
      </trkpt>
      <trkpt lat="40.76543" lon="-2.9374700000000002">
        <time>2021-06-19T08:12:04+0000</time>
      </trkpt>
      <trkpt lat="40.765390000000004" lon="-2.9371300000000002">
        <time>2021-06-19T08:12:05+0000</time>
      </trkpt>
      <trkpt lat="40.76536" lon="-2.9368000000000003">
        <time>2021-06-19T08:12:06+0000</time>
      </trkpt>
      <trkpt lat="40.76532" lon="-2.9364800000000004">
        <time>2021-06-19T08:12:07+0000</time>
      </trkpt>
      <trkpt lat="40.76529" lon="-2.9361800000000002">
        <time>2021-06-19T08:12:08+0000</time>
      </trkpt>
      <trkpt lat="40.765260000000005" lon="-2.93588">
        <time>2021-06-19T08:12:09+0000</time>
      </trkpt>
      <trkpt lat="40.76522000000001" lon="-2.9355900000000004">
        <time>2021-06-19T08:12:10+0000</time>
      </trkpt>
      <trkpt lat="40.765190000000004" lon="-2.9353000000000002">
        <time>2021-06-19T08:12:11+0000</time>
      </trkpt>
      <trkpt lat="40.765150000000006" lon="-2.935">
        <time>2021-06-19T08:12:12+0000</time>
      </trkpt>
      <trkpt lat="40.76512" lon="-2.93468">
        <time>2021-06-19T08:12:13+0000</time>
      </trkpt>
      <trkpt lat="40.765080000000005" lon="-2.9343500000000002">
        <time>2021-06-19T08:12:14+0000</time>
      </trkpt>
      <trkpt lat="40.765040000000006" lon="-2.934">
        <time>2021-06-19T08:12:15+0000</time>
      </trkpt>
      <trkpt lat="40.765" lon="-2.93365">
        <time>2021-06-19T08:12:16+0000</time>
      </trkpt>
      <trkpt lat="40.76496" lon="-2.9332900000000004">
        <time>2021-06-19T08:12:17+0000</time>
      </trkpt>
      <trkpt lat="40.764920000000004" lon="-2.93292">
        <time>2021-06-19T08:12:18+0000</time>
      </trkpt>
      <trkpt lat="40.764880000000005" lon="-2.9325500000000004">
        <time>2021-06-19T08:12:19+0000</time>
      </trkpt>
      <trkpt lat="40.76483" lon="-2.9321900000000003">
        <time>2021-06-19T08:12:20+0000</time>
      </trkpt>
      <trkpt lat="40.764790000000005" lon="-2.93181">
        <time>2021-06-19T08:12:21+0000</time>
      </trkpt>
      <trkpt lat="40.76474" lon="-2.9314500000000003">
        <time>2021-06-19T08:12:22+0000</time>
      </trkpt>
      <trkpt lat="40.76469" lon="-2.93107">
        <time>2021-06-19T08:12:23+0000</time>
      </trkpt>
      <trkpt lat="40.76465" lon="-2.9307000000000003">
        <time>2021-06-19T08:12:24+0000</time>
      </trkpt>
      <trkpt lat="40.764610000000005" lon="-2.93032">
        <time>2021-06-19T08:12:25+0000</time>
      </trkpt>
      <trkpt lat="40.76456" lon="-2.92994">
        <time>2021-06-19T08:12:26+0000</time>
      </trkpt>
      <trkpt lat="40.764520000000005" lon="-2.9295600000000004">
        <time>2021-06-19T08:12:27+0000</time>
      </trkpt>
      <trkpt lat="40.764480000000006" lon="-2.92918">
        <time>2021-06-19T08:12:28+0000</time>
      </trkpt>
      <trkpt lat="40.764430000000004" lon="-2.9288100000000004">
        <time>2021-06-19T08:12:29+0000</time>
      </trkpt>
      <trkpt lat="40.764390000000006" lon="-2.92843">
        <time>2021-06-19T08:12:30+0000</time>
      </trkpt>
      <trkpt lat="40.764340000000004" lon="-2.9280500000000003">
        <time>2021-06-19T08:12:31+0000</time>
      </trkpt>
      <trkpt lat="40.764300000000006" lon="-2.9276700000000004">
        <time>2021-06-19T08:12:32+0000</time>
      </trkpt>
      <trkpt lat="40.76426" lon="-2.9273000000000002">
        <time>2021-06-19T08:12:33+0000</time>
      </trkpt>
      <trkpt lat="40.764210000000006" lon="-2.9269200000000004">
        <time>2021-06-19T08:12:34+0000</time>
      </trkpt>
      <trkpt lat="40.76417" lon="-2.9265600000000003">
        <time>2021-06-19T08:12:35+0000</time>
      </trkpt>
      <trkpt lat="40.76413" lon="-2.92619">
        <time>2021-06-19T08:12:36+0000</time>
      </trkpt>
      <trkpt lat="40.76409" lon="-2.9258300000000004">
        <time>2021-06-19T08:12:37+0000</time>
      </trkpt>
      <trkpt lat="40.764070000000004" lon="-2.9254700000000002">
        <time>2021-06-19T08:12:38+0000</time>
      </trkpt>
      <trkpt lat="40.764030000000005" lon="-2.92511">
        <time>2021-06-19T08:12:39+0000</time>
      </trkpt>
      <trkpt lat="40.763980000000004" lon="-2.9247400000000003">
        <time>2021-06-19T08:12:40+0000</time>
      </trkpt>
      <trkpt lat="40.763940000000005" lon="-2.92438">
        <time>2021-06-19T08:12:41+0000</time>
      </trkpt>
      <trkpt lat="40.763870000000004" lon="-2.92403">
        <time>2021-06-19T08:12:42+0000</time>
      </trkpt>
      <trkpt lat="40.763830000000006" lon="-2.9236600000000004">
        <time>2021-06-19T08:12:43+0000</time>
      </trkpt>
      <trkpt lat="40.763780000000004" lon="-2.9233000000000002">
        <time>2021-06-19T08:12:44+0000</time>
      </trkpt>
      <trkpt lat="40.763740000000006" lon="-2.92294">
        <time>2021-06-19T08:12:45+0000</time>
      </trkpt>
      <trkpt lat="40.7637" lon="-2.9225700000000003">
        <time>2021-06-19T08:12:46+0000</time>
      </trkpt>
      <trkpt lat="40.763650000000005" lon="-2.9222">
        <time>2021-06-19T08:12:47+0000</time>
      </trkpt>
      <trkpt lat="40.76361" lon="-2.9218400000000004">
        <time>2021-06-19T08:12:48+0000</time>
      </trkpt>
      <trkpt lat="40.763560000000005" lon="-2.9214800000000003">
        <time>2021-06-19T08:12:49+0000</time>
      </trkpt>
      <trkpt lat="40.76352000000001" lon="-2.92112">
        <time>2021-06-19T08:12:50+0000</time>
      </trkpt>
      <trkpt lat="40.76348" lon="-2.92076">
        <time>2021-06-19T08:12:51+0000</time>
      </trkpt>
      <trkpt lat="40.76343000000001" lon="-2.9204100000000004">
        <time>2021-06-19T08:12:52+0000</time>
      </trkpt>
      <trkpt lat="40.76339" lon="-2.9200700000000004">
        <time>2021-06-19T08:12:53+0000</time>
      </trkpt>
      <trkpt lat="40.76335" lon="-2.9197400000000004">
        <time>2021-06-19T08:12:54+0000</time>
      </trkpt>
      <trkpt lat="40.763310000000004" lon="-2.91941">
        <time>2021-06-19T08:12:55+0000</time>
      </trkpt>
      <trkpt lat="40.763270000000006" lon="-2.91907">
        <time>2021-06-19T08:12:56+0000</time>
      </trkpt>
      <trkpt lat="40.76323" lon="-2.91873">
        <time>2021-06-19T08:12:57+0000</time>
      </trkpt>
      <trkpt lat="40.763200000000005" lon="-2.9184">
        <time>2021-06-19T08:12:58+0000</time>
      </trkpt>
      <trkpt lat="40.763160000000006" lon="-2.91807">
        <time>2021-06-19T08:12:59+0000</time>
      </trkpt>
      <trkpt lat="40.76312" lon="-2.9177400000000002">
        <time>2021-06-19T08:13:00+0000</time>
      </trkpt>
      <trkpt lat="40.76308" lon="-2.9174">
        <time>2021-06-19T08:13:01+0000</time>
      </trkpt>
      <trkpt lat="40.763040000000004" lon="-2.91706">
        <time>2021-06-19T08:13:02+0000</time>
      </trkpt>
      <trkpt lat="40.763000000000005" lon="-2.91672">
        <time>2021-06-19T08:13:03+0000</time>
      </trkpt>
      <trkpt lat="40.76296000000001" lon="-2.91636">
        <time>2021-06-19T08:13:04+0000</time>
      </trkpt>
      <trkpt lat="40.762930000000004" lon="-2.9160100000000004">
        <time>2021-06-19T08:13:05+0000</time>
      </trkpt>
      <trkpt lat="40.762890000000006" lon="-2.9156400000000002">
        <time>2021-06-19T08:13:06+0000</time>
      </trkpt>
      <trkpt lat="40.76285" lon="-2.91528">
        <time>2021-06-19T08:13:07+0000</time>
      </trkpt>
      <trkpt lat="40.76281" lon="-2.91493">
        <time>2021-06-19T08:13:08+0000</time>
      </trkpt>
      <trkpt lat="40.76278000000001" lon="-2.9146">
        <time>2021-06-19T08:13:09+0000</time>
      </trkpt>
      <trkpt lat="40.762750000000004" lon="-2.9142900000000003">
        <time>2021-06-19T08:13:10+0000</time>
      </trkpt>
      <trkpt lat="40.76272" lon="-2.914">
        <time>2021-06-19T08:13:11+0000</time>
      </trkpt>
      <trkpt lat="40.762690000000006" lon="-2.91374">
        <time>2021-06-19T08:13:12+0000</time>
      </trkpt>
      <trkpt lat="40.762660000000004" lon="-2.9134900000000004">
        <time>2021-06-19T08:13:13+0000</time>
      </trkpt>
      <trkpt lat="40.762640000000005" lon="-2.91326">
        <time>2021-06-19T08:13:14+0000</time>
      </trkpt>
      <trkpt lat="40.762620000000005" lon="-2.91305">
        <time>2021-06-19T08:13:15+0000</time>
      </trkpt>
      <trkpt lat="40.762600000000006" lon="-2.91285">
        <time>2021-06-19T08:13:16+0000</time>
      </trkpt>
      <trkpt lat="40.76258" lon="-2.91264">
        <time>2021-06-19T08:13:17+0000</time>
      </trkpt>
      <trkpt lat="40.76256" lon="-2.9124200000000005">
        <time>2021-06-19T08:13:18+0000</time>
      </trkpt>
      <trkpt lat="40.762530000000005" lon="-2.9122000000000003">
        <time>2021-06-19T08:13:19+0000</time>
      </trkpt>
      <trkpt lat="40.762550000000005" lon="-2.91197">
        <time>2021-06-19T08:13:20+0000</time>
      </trkpt>
      <trkpt lat="40.76252" lon="-2.91175">
        <time>2021-06-19T08:13:21+0000</time>
      </trkpt>
      <trkpt lat="40.7625" lon="-2.9115300000000004">
        <time>2021-06-19T08:13:22+0000</time>
      </trkpt>
      <trkpt lat="40.76247" lon="-2.9113200000000004">
        <time>2021-06-19T08:13:23+0000</time>
      </trkpt>
      <trkpt lat="40.762420000000006" lon="-2.9111100000000003">
        <time>2021-06-19T08:13:24+0000</time>
      </trkpt>
      <trkpt lat="40.76240000000001" lon="-2.9109100000000003">
        <time>2021-06-19T08:13:25+0000</time>
      </trkpt>
      <trkpt lat="40.76238" lon="-2.9107200000000004">
        <time>2021-06-19T08:13:26+0000</time>
      </trkpt>
      <trkpt lat="40.76236" lon="-2.91053">
        <time>2021-06-19T08:13:27+0000</time>
      </trkpt>
      <trkpt lat="40.76234" lon="-2.91035">
        <time>2021-06-19T08:13:28+0000</time>
      </trkpt>
      <trkpt lat="40.76231000000001" lon="-2.9101800000000004">
        <time>2021-06-19T08:13:29+0000</time>
      </trkpt>
      <trkpt lat="40.762280000000004" lon="-2.90999">
        <time>2021-06-19T08:13:30+0000</time>
      </trkpt>
      <trkpt lat="40.762260000000005" lon="-2.9098">
        <time>2021-06-19T08:13:31+0000</time>
      </trkpt>
      <trkpt lat="40.762240000000006" lon="-2.9096100000000003">
        <time>2021-06-19T08:13:32+0000</time>
      </trkpt>
      <trkpt lat="40.76221" lon="-2.9094">
        <time>2021-06-19T08:13:33+0000</time>
      </trkpt>
      <trkpt lat="40.762190000000004" lon="-2.90919">
        <time>2021-06-19T08:13:34+0000</time>
      </trkpt>
      <trkpt lat="40.762170000000005" lon="-2.90898">
        <time>2021-06-19T08:13:35+0000</time>
      </trkpt>
      <trkpt lat="40.762150000000005" lon="-2.90877">
        <time>2021-06-19T08:13:36+0000</time>
      </trkpt>
      <trkpt lat="40.762130000000006" lon="-2.9085500000000004">
        <time>2021-06-19T08:13:37+0000</time>
      </trkpt>
      <trkpt lat="40.76211" lon="-2.9083300000000003">
        <time>2021-06-19T08:13:38+0000</time>
      </trkpt>
      <trkpt lat="40.76209" lon="-2.9081200000000003">
        <time>2021-06-19T08:13:39+0000</time>
      </trkpt>
      <trkpt lat="40.76207" lon="-2.9079">
        <time>2021-06-19T08:13:40+0000</time>
      </trkpt>
      <trkpt lat="40.76205" lon="-2.90769">
        <time>2021-06-19T08:13:41+0000</time>
      </trkpt>
      <trkpt lat="40.76203" lon="-2.90748">
        <time>2021-06-19T08:13:42+0000</time>
      </trkpt>
      <trkpt lat="40.762010000000004" lon="-2.90728">
        <time>2021-06-19T08:13:43+0000</time>
      </trkpt>
      <trkpt lat="40.76198" lon="-2.90708">
        <time>2021-06-19T08:13:44+0000</time>
      </trkpt>
      <trkpt lat="40.76196" lon="-2.90689">
        <time>2021-06-19T08:13:45+0000</time>
      </trkpt>
      <trkpt lat="40.761950000000006" lon="-2.9067100000000003">
        <time>2021-06-19T08:13:46+0000</time>
      </trkpt>
      <trkpt lat="40.76193000000001" lon="-2.90653">
        <time>2021-06-19T08:13:47+0000</time>
      </trkpt>
      <trkpt lat="40.76191" lon="-2.9063600000000003">
        <time>2021-06-19T08:13:48+0000</time>
      </trkpt>
      <trkpt lat="40.76189" lon="-2.90619">
        <time>2021-06-19T08:13:49+0000</time>
      </trkpt>
      <trkpt lat="40.76187" lon="-2.9060300000000003">
        <time>2021-06-19T08:13:50+0000</time>
      </trkpt>
      <trkpt lat="40.76185" lon="-2.9058800000000002">
        <time>2021-06-19T08:13:51+0000</time>
      </trkpt>
      <trkpt lat="40.76183" lon="-2.90573">
        <time>2021-06-19T08:13:52+0000</time>
      </trkpt>
      <trkpt lat="40.76182" lon="-2.90559">
        <time>2021-06-19T08:13:53+0000</time>
      </trkpt>
      <trkpt lat="40.7618" lon="-2.90545">
        <time>2021-06-19T08:13:54+0000</time>
      </trkpt>
      <trkpt lat="40.76178" lon="-2.90531">
        <time>2021-06-19T08:13:55+0000</time>
      </trkpt>
      <trkpt lat="40.76176" lon="-2.9051600000000004">
        <time>2021-06-19T08:13:56+0000</time>
      </trkpt>
      <trkpt lat="40.761750000000006" lon="-2.9050000000000002">
        <time>2021-06-19T08:13:57+0000</time>
      </trkpt>
      <trkpt lat="40.76173" lon="-2.90485">
        <time>2021-06-19T08:13:58+0000</time>
      </trkpt>
      <trkpt lat="40.76171" lon="-2.9046900000000004">
        <time>2021-06-19T08:13:59+0000</time>
      </trkpt>
      <trkpt lat="40.76169" lon="-2.9045400000000003">
        <time>2021-06-19T08:14:00+0000</time>
      </trkpt>
      <trkpt lat="40.761680000000005" lon="-2.90438">
        <time>2021-06-19T08:14:01+0000</time>
      </trkpt>
      <trkpt lat="40.761660000000006" lon="-2.90423">
        <time>2021-06-19T08:14:02+0000</time>
      </trkpt>
      <trkpt lat="40.76164" lon="-2.9040600000000003">
        <time>2021-06-19T08:14:03+0000</time>
      </trkpt>
      <trkpt lat="40.761630000000004" lon="-2.90389">
        <time>2021-06-19T08:14:04+0000</time>
      </trkpt>
      <trkpt lat="40.761610000000005" lon="-2.9037300000000004">
        <time>2021-06-19T08:14:05+0000</time>
      </trkpt>
      <trkpt lat="40.761590000000005" lon="-2.90356">
        <time>2021-06-19T08:14:06+0000</time>
      </trkpt>
      <trkpt lat="40.761570000000006" lon="-2.9033900000000004">
        <time>2021-06-19T08:14:07+0000</time>
      </trkpt>
      <trkpt lat="40.76156" lon="-2.90322">
        <time>2021-06-19T08:14:08+0000</time>
      </trkpt>
      <trkpt lat="40.761540000000004" lon="-2.9030500000000004">
        <time>2021-06-19T08:14:09+0000</time>
      </trkpt>
      <trkpt lat="40.761520000000004" lon="-2.90288">
        <time>2021-06-19T08:14:10+0000</time>
      </trkpt>
      <trkpt lat="40.761500000000005" lon="-2.9027100000000003">
        <time>2021-06-19T08:14:11+0000</time>
      </trkpt>
      <trkpt lat="40.761480000000006" lon="-2.9025200000000004">
        <time>2021-06-19T08:14:12+0000</time>
      </trkpt>
      <trkpt lat="40.76146000000001" lon="-2.90233">
        <time>2021-06-19T08:14:13+0000</time>
      </trkpt>
      <trkpt lat="40.76144" lon="-2.90214">
        <time>2021-06-19T08:14:14+0000</time>
      </trkpt>
      <trkpt lat="40.76142" lon="-2.90194">
        <time>2021-06-19T08:14:15+0000</time>
      </trkpt>
      <trkpt lat="40.761390000000006" lon="-2.90174">
        <time>2021-06-19T08:14:16+0000</time>
      </trkpt>
      <trkpt lat="40.76137000000001" lon="-2.90153">
        <time>2021-06-19T08:14:17+0000</time>
      </trkpt>
      <trkpt lat="40.76135" lon="-2.90132">
        <time>2021-06-19T08:14:18+0000</time>
      </trkpt>
      <trkpt lat="40.76133" lon="-2.9010900000000004">
        <time>2021-06-19T08:14:19+0000</time>
      </trkpt>
      <trkpt lat="40.76131" lon="-2.90086">
        <time>2021-06-19T08:14:20+0000</time>
      </trkpt>
      <trkpt lat="40.761280000000006" lon="-2.9006100000000004">
        <time>2021-06-19T08:14:21+0000</time>
      </trkpt>
      <trkpt lat="40.761250000000004" lon="-2.90036">
        <time>2021-06-19T08:14:22+0000</time>
      </trkpt>
      <trkpt lat="40.761230000000005" lon="-2.90011">
        <time>2021-06-19T08:14:23+0000</time>
      </trkpt>
      <trkpt lat="40.7612" lon="-2.8998600000000003">
        <time>2021-06-19T08:14:24+0000</time>
      </trkpt>
      <trkpt lat="40.76118" lon="-2.8996000000000004">
        <time>2021-06-19T08:14:25+0000</time>
      </trkpt>
      <trkpt lat="40.76115" lon="-2.89935">
        <time>2021-06-19T08:14:26+0000</time>
      </trkpt>
      <trkpt lat="40.761120000000005" lon="-2.8991000000000002">
        <time>2021-06-19T08:14:27+0000</time>
      </trkpt>
      <trkpt lat="40.761100000000006" lon="-2.8988500000000004">
        <time>2021-06-19T08:14:28+0000</time>
      </trkpt>
      <trkpt lat="40.761070000000004" lon="-2.8986">
        <time>2021-06-19T08:14:29+0000</time>
      </trkpt>
      <trkpt lat="40.761050000000004" lon="-2.8983600000000003">
        <time>2021-06-19T08:14:30+0000</time>
      </trkpt>
      <trkpt lat="40.761030000000005" lon="-2.89813">
        <time>2021-06-19T08:14:31+0000</time>
      </trkpt>
      <trkpt lat="40.761" lon="-2.8979000000000004">
        <time>2021-06-19T08:14:32+0000</time>
      </trkpt>
      <trkpt lat="40.76098" lon="-2.8976800000000003">
        <time>2021-06-19T08:14:33+0000</time>
      </trkpt>
      <trkpt lat="40.760960000000004" lon="-2.89745">
        <time>2021-06-19T08:14:34+0000</time>
      </trkpt>
      <trkpt lat="40.760940000000005" lon="-2.8972300000000004">
        <time>2021-06-19T08:14:35+0000</time>
      </trkpt>
      <trkpt lat="40.760920000000006" lon="-2.8970000000000002">
        <time>2021-06-19T08:14:36+0000</time>
      </trkpt>
      <trkpt lat="40.76089" lon="-2.8967600000000004">
        <time>2021-06-19T08:14:37+0000</time>
      </trkpt>
      <trkpt lat="40.760870000000004" lon="-2.8965300000000003">
        <time>2021-06-19T08:14:38+0000</time>
      </trkpt>
      <trkpt lat="40.760850000000005" lon="-2.89629">
        <time>2021-06-19T08:14:39+0000</time>
      </trkpt>
      <trkpt lat="40.76082" lon="-2.8960600000000003">
        <time>2021-06-19T08:14:40+0000</time>
      </trkpt>
      <trkpt lat="40.760780000000004" lon="-2.89584">
        <time>2021-06-19T08:14:41+0000</time>
      </trkpt>
      <trkpt lat="40.760760000000005" lon="-2.89562">
        <time>2021-06-19T08:14:42+0000</time>
      </trkpt>
      <trkpt lat="40.760740000000006" lon="-2.8954000000000004">
        <time>2021-06-19T08:14:43+0000</time>
      </trkpt>
      <trkpt lat="40.76071" lon="-2.8951900000000004">
        <time>2021-06-19T08:14:44+0000</time>
      </trkpt>
      <trkpt lat="40.760690000000004" lon="-2.8949900000000004">
        <time>2021-06-19T08:14:45+0000</time>
      </trkpt>
      <trkpt lat="40.760670000000005" lon="-2.8947700000000003">
        <time>2021-06-19T08:14:46+0000</time>
      </trkpt>
      <trkpt lat="40.76064" lon="-2.89455">
        <time>2021-06-19T08:14:47+0000</time>
      </trkpt>
      <trkpt lat="40.76062" lon="-2.89433">
        <time>2021-06-19T08:14:48+0000</time>
      </trkpt>
      <trkpt lat="40.760600000000004" lon="-2.8941000000000003">
        <time>2021-06-19T08:14:49+0000</time>
      </trkpt>
      <trkpt lat="40.76057" lon="-2.89387">
        <time>2021-06-19T08:14:50+0000</time>
      </trkpt>
      <trkpt lat="40.76055" lon="-2.89365">
        <time>2021-06-19T08:14:51+0000</time>
      </trkpt>
      <trkpt lat="40.76052000000001" lon="-2.8934200000000003">
        <time>2021-06-19T08:14:52+0000</time>
      </trkpt>
      <trkpt lat="40.7605" lon="-2.8932">
        <time>2021-06-19T08:14:53+0000</time>
      </trkpt>
      <trkpt lat="40.760470000000005" lon="-2.89297">
        <time>2021-06-19T08:14:54+0000</time>
      </trkpt>
      <trkpt lat="40.760450000000006" lon="-2.8927600000000004">
        <time>2021-06-19T08:14:55+0000</time>
      </trkpt>
      <trkpt lat="40.76043000000001" lon="-2.8925400000000003">
        <time>2021-06-19T08:14:56+0000</time>
      </trkpt>
      <trkpt lat="40.76041" lon="-2.8923400000000004">
        <time>2021-06-19T08:14:57+0000</time>
      </trkpt>
      <trkpt lat="40.760380000000005" lon="-2.8921300000000003">
        <time>2021-06-19T08:14:58+0000</time>
      </trkpt>
      <trkpt lat="40.760360000000006" lon="-2.8919200000000003">
        <time>2021-06-19T08:14:59+0000</time>
      </trkpt>
      <trkpt lat="40.76034000000001" lon="-2.8917100000000002">
        <time>2021-06-19T08:15:00+0000</time>
      </trkpt>
      <trkpt lat="40.760310000000004" lon="-2.8915">
        <time>2021-06-19T08:15:01+0000</time>
      </trkpt>
      <trkpt lat="40.760290000000005" lon="-2.8913">
        <time>2021-06-19T08:15:02+0000</time>
      </trkpt>
      <trkpt lat="40.760270000000006" lon="-2.8911100000000003">
        <time>2021-06-19T08:15:03+0000</time>
      </trkpt>
      <trkpt lat="40.760250000000006" lon="-2.8909300000000004">
        <time>2021-06-19T08:15:04+0000</time>
      </trkpt>
      <trkpt lat="40.76023" lon="-2.89075">
        <time>2021-06-19T08:15:05+0000</time>
      </trkpt>
      <trkpt lat="40.76023" lon="-2.8905800000000004">
        <time>2021-06-19T08:15:06+0000</time>
      </trkpt>
      <trkpt lat="40.76019" lon="-2.89042">
        <time>2021-06-19T08:15:07+0000</time>
      </trkpt>
      <trkpt lat="40.76017" lon="-2.8902500000000004">
        <time>2021-06-19T08:15:08+0000</time>
      </trkpt>
      <trkpt lat="40.76014" lon="-2.89007">
        <time>2021-06-19T08:15:09+0000</time>
      </trkpt>
      <trkpt lat="40.76012" lon="-2.8898900000000003">
        <time>2021-06-19T08:15:10+0000</time>
      </trkpt>
      <trkpt lat="40.7601" lon="-2.88972">
        <time>2021-06-19T08:15:11+0000</time>
      </trkpt>
      <trkpt lat="40.76008" lon="-2.8895600000000004">
        <time>2021-06-19T08:15:12+0000</time>
      </trkpt>
      <trkpt lat="40.760070000000006" lon="-2.8894100000000003">
        <time>2021-06-19T08:15:13+0000</time>
      </trkpt>
      <trkpt lat="40.76005000000001" lon="-2.8892700000000002">
        <time>2021-06-19T08:15:14+0000</time>
      </trkpt>
      <trkpt lat="40.760040000000004" lon="-2.8891400000000003">
        <time>2021-06-19T08:15:15+0000</time>
      </trkpt>
      <trkpt lat="40.76003" lon="-2.8890200000000004">
        <time>2021-06-19T08:15:16+0000</time>
      </trkpt>
      <trkpt lat="40.760020000000004" lon="-2.8889">
        <time>2021-06-19T08:15:17+0000</time>
      </trkpt>
      <trkpt lat="40.760020000000004" lon="-2.8888000000000003">
        <time>2021-06-19T08:15:18+0000</time>
      </trkpt>
      <trkpt lat="40.76001" lon="-2.8887">
        <time>2021-06-19T08:15:19+0000</time>
      </trkpt>
      <trkpt lat="40.760000000000005" lon="-2.8886000000000003">
        <time>2021-06-19T08:15:20+0000</time>
      </trkpt>
      <trkpt lat="40.75999" lon="-2.88851">
        <time>2021-06-19T08:15:21+0000</time>
      </trkpt>
      <trkpt lat="40.759980000000006" lon="-2.8884000000000003">
        <time>2021-06-19T08:15:22+0000</time>
      </trkpt>
      <trkpt lat="40.759980000000006" lon="-2.88829">
        <time>2021-06-19T08:15:23+0000</time>
      </trkpt>
      <trkpt lat="40.75992" lon="-2.88817">
        <time>2021-06-19T08:15:24+0000</time>
      </trkpt>
      <trkpt lat="40.7599" lon="-2.8880600000000003">
        <time>2021-06-19T08:15:25+0000</time>
      </trkpt>
      <trkpt lat="40.759910000000005" lon="-2.8879400000000004">
        <time>2021-06-19T08:15:26+0000</time>
      </trkpt>
      <trkpt lat="40.75996000000001" lon="-2.88783">
        <time>2021-06-19T08:15:27+0000</time>
      </trkpt>
      <trkpt lat="40.760020000000004" lon="-2.8877300000000004">
        <time>2021-06-19T08:15:28+0000</time>
      </trkpt>
      <trkpt lat="40.760070000000006" lon="-2.8876000000000004">
        <time>2021-06-19T08:15:29+0000</time>
      </trkpt>
      <trkpt lat="40.76012" lon="-2.8874400000000002">
        <time>2021-06-19T08:15:30+0000</time>
      </trkpt>
      <trkpt lat="40.760160000000006" lon="-2.8872600000000004">
        <time>2021-06-19T08:15:31+0000</time>
      </trkpt>
      <trkpt lat="40.760200000000005" lon="-2.88708">
        <time>2021-06-19T08:15:32+0000</time>
      </trkpt>
      <trkpt lat="40.76024" lon="-2.88689">
        <time>2021-06-19T08:15:33+0000</time>
      </trkpt>
      <trkpt lat="40.760290000000005" lon="-2.8867000000000003">
        <time>2021-06-19T08:15:34+0000</time>
      </trkpt>
      <trkpt lat="40.76034000000001" lon="-2.8865100000000004">
        <time>2021-06-19T08:15:35+0000</time>
      </trkpt>
      <trkpt lat="40.760380000000005" lon="-2.8863200000000004">
        <time>2021-06-19T08:15:36+0000</time>
      </trkpt>
      <trkpt lat="40.76042" lon="-2.88614">
        <time>2021-06-19T08:15:37+0000</time>
      </trkpt>
      <trkpt lat="40.760470000000005" lon="-2.8859600000000003">
        <time>2021-06-19T08:15:38+0000</time>
      </trkpt>
      <trkpt lat="40.760510000000004" lon="-2.8858">
        <time>2021-06-19T08:15:39+0000</time>
      </trkpt>
      <trkpt lat="40.760540000000006" lon="-2.8856300000000004">
        <time>2021-06-19T08:15:40+0000</time>
      </trkpt>
      <trkpt lat="40.760580000000004" lon="-2.88545">
        <time>2021-06-19T08:15:41+0000</time>
      </trkpt>
      <trkpt lat="40.760630000000006" lon="-2.88526">
        <time>2021-06-19T08:15:42+0000</time>
      </trkpt>
      <trkpt lat="40.76068" lon="-2.88506">
        <time>2021-06-19T08:15:43+0000</time>
      </trkpt>
      <trkpt lat="40.76073" lon="-2.88485">
        <time>2021-06-19T08:15:44+0000</time>
      </trkpt>
      <trkpt lat="40.760780000000004" lon="-2.88465">
        <time>2021-06-19T08:15:45+0000</time>
      </trkpt>
      <trkpt lat="40.76082" lon="-2.88445">
        <time>2021-06-19T08:15:46+0000</time>
      </trkpt>
      <trkpt lat="40.76086" lon="-2.8842600000000003">
        <time>2021-06-19T08:15:47+0000</time>
      </trkpt>
      <trkpt lat="40.76090000000001" lon="-2.8840700000000004">
        <time>2021-06-19T08:15:48+0000</time>
      </trkpt>
      <trkpt lat="40.760940000000005" lon="-2.88391">
        <time>2021-06-19T08:15:49+0000</time>
      </trkpt>
      <trkpt lat="40.76098" lon="-2.8837400000000004">
        <time>2021-06-19T08:15:50+0000</time>
      </trkpt>
      <trkpt lat="40.761010000000006" lon="-2.8835900000000003">
        <time>2021-06-19T08:15:51+0000</time>
      </trkpt>
      <trkpt lat="40.761050000000004" lon="-2.8834500000000003">
        <time>2021-06-19T08:15:52+0000</time>
      </trkpt>
      <trkpt lat="40.76108000000001" lon="-2.8833100000000003">
        <time>2021-06-19T08:15:53+0000</time>
      </trkpt>
      <trkpt lat="40.76111" lon="-2.8831700000000002">
        <time>2021-06-19T08:15:54+0000</time>
      </trkpt>
      <trkpt lat="40.761140000000005" lon="-2.88303">
        <time>2021-06-19T08:15:55+0000</time>
      </trkpt>
      <trkpt lat="40.76118" lon="-2.88288">
        <time>2021-06-19T08:15:56+0000</time>
      </trkpt>
      <trkpt lat="40.761210000000005" lon="-2.88273">
        <time>2021-06-19T08:15:57+0000</time>
      </trkpt>
      <trkpt lat="40.76126" lon="-2.8825800000000004">
        <time>2021-06-19T08:15:58+0000</time>
      </trkpt>
      <trkpt lat="40.76129" lon="-2.88242">
        <time>2021-06-19T08:15:59+0000</time>
      </trkpt>
      <trkpt lat="40.76133" lon="-2.88227">
        <time>2021-06-19T08:16:00+0000</time>
      </trkpt>
      <trkpt lat="40.76136" lon="-2.88213">
        <time>2021-06-19T08:16:01+0000</time>
      </trkpt>
      <trkpt lat="40.761390000000006" lon="-2.882">
        <time>2021-06-19T08:16:02+0000</time>
      </trkpt>
      <trkpt lat="40.76142" lon="-2.88188">
        <time>2021-06-19T08:16:03+0000</time>
      </trkpt>
      <trkpt lat="40.76145" lon="-2.8817600000000003">
        <time>2021-06-19T08:16:04+0000</time>
      </trkpt>
      <trkpt lat="40.761480000000006" lon="-2.88165">
        <time>2021-06-19T08:16:05+0000</time>
      </trkpt>
      <trkpt lat="40.76151" lon="-2.8815500000000003">
        <time>2021-06-19T08:16:06+0000</time>
      </trkpt>
      <trkpt lat="40.761540000000004" lon="-2.8814400000000004">
        <time>2021-06-19T08:16:07+0000</time>
      </trkpt>
      <trkpt lat="40.76156" lon="-2.88133">
        <time>2021-06-19T08:16:08+0000</time>
      </trkpt>
      <trkpt lat="40.76158" lon="-2.8812200000000003">
        <time>2021-06-19T08:16:09+0000</time>
      </trkpt>
      <trkpt lat="40.761590000000005" lon="-2.8810900000000004">
        <time>2021-06-19T08:16:10+0000</time>
      </trkpt>
      <trkpt lat="40.761590000000005" lon="-2.88097">
        <time>2021-06-19T08:16:11+0000</time>
      </trkpt>
      <trkpt lat="40.7616" lon="-2.88085">
        <time>2021-06-19T08:16:12+0000</time>
      </trkpt>
      <trkpt lat="40.761610000000005" lon="-2.8807400000000003">
        <time>2021-06-19T08:16:13+0000</time>
      </trkpt>
      <trkpt lat="40.76165" lon="-2.88063">
        <time>2021-06-19T08:16:14+0000</time>
      </trkpt>
      <trkpt lat="40.761700000000005" lon="-2.88052">
        <time>2021-06-19T08:16:15+0000</time>
      </trkpt>
      <trkpt lat="40.761770000000006" lon="-2.8804100000000004">
        <time>2021-06-19T08:16:16+0000</time>
      </trkpt>
      <trkpt lat="40.76184000000001" lon="-2.8803">
        <time>2021-06-19T08:16:17+0000</time>
      </trkpt>
      <trkpt lat="40.76191" lon="-2.88018">
        <time>2021-06-19T08:16:18+0000</time>
      </trkpt>
      <trkpt lat="40.762" lon="-2.8800700000000004">
        <time>2021-06-19T08:16:19+0000</time>
      </trkpt>
      <trkpt lat="40.76209" lon="-2.87998">
        <time>2021-06-19T08:16:20+0000</time>
      </trkpt>
      <trkpt lat="40.76218" lon="-2.87989">
        <time>2021-06-19T08:16:21+0000</time>
      </trkpt>
      <trkpt lat="40.762220000000006" lon="-2.8797400000000004">
        <time>2021-06-19T08:16:22+0000</time>
      </trkpt>
      <trkpt lat="40.76236" lon="-2.8797300000000003">
        <time>2021-06-19T08:16:23+0000</time>
      </trkpt>
      <trkpt lat="40.762440000000005" lon="-2.8796700000000004">
        <time>2021-06-19T08:16:24+0000</time>
      </trkpt>
      <trkpt lat="40.762530000000005" lon="-2.8796000000000004">
        <time>2021-06-19T08:16:25+0000</time>
      </trkpt>
      <trkpt lat="40.76263" lon="-2.8795300000000004">
        <time>2021-06-19T08:16:26+0000</time>
      </trkpt>
      <trkpt lat="40.76272" lon="-2.8794700000000004">
        <time>2021-06-19T08:16:27+0000</time>
      </trkpt>
      <trkpt lat="40.76281" lon="-2.87941">
        <time>2021-06-19T08:16:28+0000</time>
      </trkpt>
      <trkpt lat="40.762910000000005" lon="-2.8793400000000005">
        <time>2021-06-19T08:16:29+0000</time>
      </trkpt>
      <trkpt lat="40.763000000000005" lon="-2.87923">
        <time>2021-06-19T08:16:30+0000</time>
      </trkpt>
      <trkpt lat="40.76308" lon="-2.87908">
        <time>2021-06-19T08:16:31+0000</time>
      </trkpt>
      <trkpt lat="40.763110000000005" lon="-2.87889">
        <time>2021-06-19T08:16:32+0000</time>
      </trkpt>
      <trkpt lat="40.763180000000006" lon="-2.8787000000000003">
        <time>2021-06-19T08:16:33+0000</time>
      </trkpt>
      <trkpt lat="40.76324" lon="-2.8785100000000003">
        <time>2021-06-19T08:16:34+0000</time>
      </trkpt>
      <trkpt lat="40.76332" lon="-2.87834">
        <time>2021-06-19T08:16:35+0000</time>
      </trkpt>
      <trkpt lat="40.76341" lon="-2.8781800000000004">
        <time>2021-06-19T08:16:36+0000</time>
      </trkpt>
      <trkpt lat="40.763510000000004" lon="-2.8780400000000004">
        <time>2021-06-19T08:16:37+0000</time>
      </trkpt>
      <trkpt lat="40.76361" lon="-2.8779100000000004">
        <time>2021-06-19T08:16:38+0000</time>
      </trkpt>
      <trkpt lat="40.76371" lon="-2.87779">
        <time>2021-06-19T08:16:39+0000</time>
      </trkpt>
      <trkpt lat="40.76382" lon="-2.87767">
        <time>2021-06-19T08:16:40+0000</time>
      </trkpt>
      <trkpt lat="40.76393" lon="-2.8775700000000004">
        <time>2021-06-19T08:16:41+0000</time>
      </trkpt>
      <trkpt lat="40.76404" lon="-2.87746">
        <time>2021-06-19T08:16:42+0000</time>
      </trkpt>
      <trkpt lat="40.764140000000005" lon="-2.8773600000000004">
        <time>2021-06-19T08:16:43+0000</time>
      </trkpt>
      <trkpt lat="40.76424" lon="-2.87724">
        <time>2021-06-19T08:16:44+0000</time>
      </trkpt>
      <trkpt lat="40.76433" lon="-2.87711">
        <time>2021-06-19T08:16:45+0000</time>
      </trkpt>
      <trkpt lat="40.7644" lon="-2.87697">
        <time>2021-06-19T08:16:46+0000</time>
      </trkpt>
      <trkpt lat="40.76447" lon="-2.8768300000000004">
        <time>2021-06-19T08:16:47+0000</time>
      </trkpt>
      <trkpt lat="40.76456" lon="-2.87671">
        <time>2021-06-19T08:16:48+0000</time>
      </trkpt>
      <trkpt lat="40.764660000000006" lon="-2.8766000000000003">
        <time>2021-06-19T08:16:49+0000</time>
      </trkpt>
      <trkpt lat="40.76476" lon="-2.8765">
        <time>2021-06-19T08:16:50+0000</time>
      </trkpt>
      <trkpt lat="40.76485" lon="-2.8764000000000003">
        <time>2021-06-19T08:16:51+0000</time>
      </trkpt>
      <trkpt lat="40.76494" lon="-2.8763">
        <time>2021-06-19T08:16:52+0000</time>
      </trkpt>
      <trkpt lat="40.76503" lon="-2.8762000000000003">
        <time>2021-06-19T08:16:53+0000</time>
      </trkpt>
      <trkpt lat="40.76511" lon="-2.8761">
        <time>2021-06-19T08:16:54+0000</time>
      </trkpt>
      <trkpt lat="40.7652" lon="-2.8760100000000004">
        <time>2021-06-19T08:16:55+0000</time>
      </trkpt>
      <trkpt lat="40.76529" lon="-2.8759200000000003">
        <time>2021-06-19T08:16:56+0000</time>
      </trkpt>
      <trkpt lat="40.76540000000001" lon="-2.8758500000000002">
        <time>2021-06-19T08:16:57+0000</time>
      </trkpt>
      <trkpt lat="40.76552" lon="-2.8758000000000004">
        <time>2021-06-19T08:16:58+0000</time>
      </trkpt>
      <trkpt lat="40.76563" lon="-2.87577">
        <time>2021-06-19T08:16:59+0000</time>
      </trkpt>
      <trkpt lat="40.765750000000004" lon="-2.87575">
        <time>2021-06-19T08:17:00+0000</time>
      </trkpt>
      <trkpt lat="40.76585" lon="-2.8757300000000003">
        <time>2021-06-19T08:17:01+0000</time>
      </trkpt>
      <trkpt lat="40.765950000000004" lon="-2.87571">
        <time>2021-06-19T08:17:02+0000</time>
      </trkpt>
      <trkpt lat="40.76605" lon="-2.8756700000000004">
        <time>2021-06-19T08:17:03+0000</time>
      </trkpt>
      <trkpt lat="40.766130000000004" lon="-2.8755900000000003">
        <time>2021-06-19T08:17:04+0000</time>
      </trkpt>
      <trkpt lat="40.76621" lon="-2.8755">
        <time>2021-06-19T08:17:05+0000</time>
      </trkpt>
      <trkpt lat="40.766290000000005" lon="-2.8754000000000004">
        <time>2021-06-19T08:17:06+0000</time>
      </trkpt>
      <trkpt lat="40.766380000000005" lon="-2.87529">
        <time>2021-06-19T08:17:07+0000</time>
      </trkpt>
      <trkpt lat="40.76646" lon="-2.8751900000000004">
        <time>2021-06-19T08:17:08+0000</time>
      </trkpt>
      <trkpt lat="40.766540000000006" lon="-2.87509">
        <time>2021-06-19T08:17:09+0000</time>
      </trkpt>
      <trkpt lat="40.76662" lon="-2.8749900000000004">
        <time>2021-06-19T08:17:10+0000</time>
      </trkpt>
      <trkpt lat="40.766690000000004" lon="-2.8749000000000002">
        <time>2021-06-19T08:17:11+0000</time>
      </trkpt>
      <trkpt lat="40.766760000000005" lon="-2.87481">
        <time>2021-06-19T08:17:12+0000</time>
      </trkpt>
      <trkpt lat="40.76682" lon="-2.8747200000000004">
        <time>2021-06-19T08:17:13+0000</time>
      </trkpt>
      <trkpt lat="40.766870000000004" lon="-2.8746300000000002">
        <time>2021-06-19T08:17:14+0000</time>
      </trkpt>
      <trkpt lat="40.766890000000004" lon="-2.87453">
        <time>2021-06-19T08:17:15+0000</time>
      </trkpt>
      <trkpt lat="40.766890000000004" lon="-2.87442">
        <time>2021-06-19T08:17:16+0000</time>
      </trkpt>
      <trkpt lat="40.766870000000004" lon="-2.87428">
        <time>2021-06-19T08:17:17+0000</time>
      </trkpt>
      <trkpt lat="40.766830000000006" lon="-2.87414">
        <time>2021-06-19T08:17:18+0000</time>
      </trkpt>
      <trkpt lat="40.76677" lon="-2.8739800000000004">
        <time>2021-06-19T08:17:19+0000</time>
      </trkpt>
      <trkpt lat="40.766690000000004" lon="-2.8738200000000003">
        <time>2021-06-19T08:17:20+0000</time>
      </trkpt>
      <trkpt lat="40.76662" lon="-2.87367">
        <time>2021-06-19T08:17:21+0000</time>
      </trkpt>
      <trkpt lat="40.766540000000006" lon="-2.87352">
        <time>2021-06-19T08:17:22+0000</time>
      </trkpt>
      <trkpt lat="40.76646" lon="-2.87339">
        <time>2021-06-19T08:17:23+0000</time>
      </trkpt>
      <trkpt lat="40.766380000000005" lon="-2.87326">
        <time>2021-06-19T08:17:24+0000</time>
      </trkpt>
      <trkpt lat="40.76626" lon="-2.87319">
        <time>2021-06-19T08:17:25+0000</time>
      </trkpt>
      <trkpt lat="40.766130000000004" lon="-2.8731700000000004">
        <time>2021-06-19T08:17:26+0000</time>
      </trkpt>
      <trkpt lat="40.76599" lon="-2.87318">
        <time>2021-06-19T08:17:27+0000</time>
      </trkpt>
      <trkpt lat="40.76585" lon="-2.87318">
        <time>2021-06-19T08:17:28+0000</time>
      </trkpt>
      <trkpt lat="40.76572" lon="-2.87318">
        <time>2021-06-19T08:17:29+0000</time>
      </trkpt>
      <trkpt lat="40.765600000000006" lon="-2.8731700000000004">
        <time>2021-06-19T08:17:30+0000</time>
      </trkpt>
      <trkpt lat="40.76549000000001" lon="-2.87312">
        <time>2021-06-19T08:17:31+0000</time>
      </trkpt>
      <trkpt lat="40.765390000000004" lon="-2.87306">
        <time>2021-06-19T08:17:32+0000</time>
      </trkpt>
      <trkpt lat="40.7653" lon="-2.87298">
        <time>2021-06-19T08:17:33+0000</time>
      </trkpt>
      <trkpt lat="40.76521" lon="-2.87291">
        <time>2021-06-19T08:17:34+0000</time>
      </trkpt>
      <trkpt lat="40.765130000000006" lon="-2.8728300000000004">
        <time>2021-06-19T08:17:35+0000</time>
      </trkpt>
      <trkpt lat="40.765040000000006" lon="-2.8727400000000003">
        <time>2021-06-19T08:17:36+0000</time>
      </trkpt>
      <trkpt lat="40.76496" lon="-2.87265">
        <time>2021-06-19T08:17:37+0000</time>
      </trkpt>
      <trkpt lat="40.76489" lon="-2.8725500000000004">
        <time>2021-06-19T08:17:38+0000</time>
      </trkpt>
      <trkpt lat="40.764810000000004" lon="-2.87245">
        <time>2021-06-19T08:17:39+0000</time>
      </trkpt>
      <trkpt lat="40.76474" lon="-2.87232">
        <time>2021-06-19T08:17:40+0000</time>
      </trkpt>
      <trkpt lat="40.76467" lon="-2.8722100000000004">
        <time>2021-06-19T08:17:41+0000</time>
      </trkpt>
      <trkpt lat="40.764610000000005" lon="-2.8721">
        <time>2021-06-19T08:17:42+0000</time>
      </trkpt>
      <trkpt lat="40.76455" lon="-2.8719900000000003">
        <time>2021-06-19T08:17:43+0000</time>
      </trkpt>
      <trkpt lat="40.764480000000006" lon="-2.8718800000000004">
        <time>2021-06-19T08:17:44+0000</time>
      </trkpt>
      <trkpt lat="40.764410000000005" lon="-2.87178">
        <time>2021-06-19T08:17:45+0000</time>
      </trkpt>
      <trkpt lat="40.764340000000004" lon="-2.87169">
        <time>2021-06-19T08:17:46+0000</time>
      </trkpt>
      <trkpt lat="40.76427" lon="-2.87162">
        <time>2021-06-19T08:17:47+0000</time>
      </trkpt>
      <trkpt lat="40.7642" lon="-2.87156">
        <time>2021-06-19T08:17:48+0000</time>
      </trkpt>
      <trkpt lat="40.76415" lon="-2.8715200000000003">
        <time>2021-06-19T08:17:49+0000</time>
      </trkpt>
      <trkpt lat="40.764120000000005" lon="-2.87148">
        <time>2021-06-19T08:17:50+0000</time>
      </trkpt>
      <trkpt lat="40.76408" lon="-2.8714500000000003">
        <time>2021-06-19T08:17:51+0000</time>
      </trkpt>
      <trkpt lat="40.76404" lon="-2.87142">
        <time>2021-06-19T08:17:52+0000</time>
      </trkpt>
      <trkpt lat="40.764" lon="-2.87141">
        <time>2021-06-19T08:17:53+0000</time>
      </trkpt>
      <trkpt lat="40.76397" lon="-2.8713900000000003">
        <time>2021-06-19T08:17:54+0000</time>
      </trkpt>
      <trkpt lat="40.76393" lon="-2.8713800000000003">
        <time>2021-06-19T08:17:55+0000</time>
      </trkpt>
      <trkpt lat="40.76390000000001" lon="-2.87135">
        <time>2021-06-19T08:17:56+0000</time>
      </trkpt>
      <trkpt lat="40.763870000000004" lon="-2.8713400000000004">
        <time>2021-06-19T08:17:57+0000</time>
      </trkpt>
      <trkpt lat="40.76384" lon="-2.8713100000000003">
        <time>2021-06-19T08:17:58+0000</time>
      </trkpt>
      <trkpt lat="40.76381000000001" lon="-2.87129">
        <time>2021-06-19T08:17:59+0000</time>
      </trkpt>
      <trkpt lat="40.76379" lon="-2.8712700000000004">
        <time>2021-06-19T08:18:00+0000</time>
      </trkpt>
      <trkpt lat="40.76377" lon="-2.8712500000000003">
        <time>2021-06-19T08:18:01+0000</time>
      </trkpt>
      <trkpt lat="40.76375" lon="-2.87123">
        <time>2021-06-19T08:18:02+0000</time>
      </trkpt>
      <trkpt lat="40.763720000000006" lon="-2.87121">
        <time>2021-06-19T08:18:03+0000</time>
      </trkpt>
      <trkpt lat="40.763690000000004" lon="-2.8711800000000003">
        <time>2021-06-19T08:18:04+0000</time>
      </trkpt>
      <trkpt lat="40.76366" lon="-2.87115">
        <time>2021-06-19T08:18:05+0000</time>
      </trkpt>
      <trkpt lat="40.76364" lon="-2.8711200000000003">
        <time>2021-06-19T08:18:06+0000</time>
      </trkpt>
      <trkpt lat="40.76361" lon="-2.87109">
        <time>2021-06-19T08:18:07+0000</time>
      </trkpt>
      <trkpt lat="40.76359" lon="-2.8710600000000004">
        <time>2021-06-19T08:18:08+0000</time>
      </trkpt>
      <trkpt lat="40.763560000000005" lon="-2.87103">
        <time>2021-06-19T08:18:09+0000</time>
      </trkpt>
      <trkpt lat="40.76353" lon="-2.8709900000000004">
        <time>2021-06-19T08:18:10+0000</time>
      </trkpt>
      <trkpt lat="40.763510000000004" lon="-2.87095">
        <time>2021-06-19T08:18:11+0000</time>
      </trkpt>
      <trkpt lat="40.763490000000004" lon="-2.8709200000000004">
        <time>2021-06-19T08:18:12+0000</time>
      </trkpt>
      <trkpt lat="40.76346" lon="-2.87089">
        <time>2021-06-19T08:18:13+0000</time>
      </trkpt>
      <trkpt lat="40.76344" lon="-2.8708600000000004">
        <time>2021-06-19T08:18:14+0000</time>
      </trkpt>
      <trkpt lat="40.76341" lon="-2.87083">
        <time>2021-06-19T08:18:15+0000</time>
      </trkpt>
      <trkpt lat="40.763380000000005" lon="-2.8708">
        <time>2021-06-19T08:18:16+0000</time>
      </trkpt>
      <trkpt lat="40.763360000000006" lon="-2.8707700000000003">
        <time>2021-06-19T08:18:17+0000</time>
      </trkpt>
      <trkpt lat="40.76333" lon="-2.87074">
        <time>2021-06-19T08:18:18+0000</time>
      </trkpt>
      <trkpt lat="40.763310000000004" lon="-2.8707100000000003">
        <time>2021-06-19T08:18:19+0000</time>
      </trkpt>
      <trkpt lat="40.76328" lon="-2.87067">
        <time>2021-06-19T08:18:20+0000</time>
      </trkpt>
      <trkpt lat="40.76326" lon="-2.8706400000000003">
        <time>2021-06-19T08:18:21+0000</time>
      </trkpt>
      <trkpt lat="40.76323" lon="-2.87062">
        <time>2021-06-19T08:18:22+0000</time>
      </trkpt>
      <trkpt lat="40.76321" lon="-2.8705800000000004">
        <time>2021-06-19T08:18:23+0000</time>
      </trkpt>
      <trkpt lat="40.763180000000006" lon="-2.87055">
        <time>2021-06-19T08:18:24+0000</time>
      </trkpt>
      <trkpt lat="40.763160000000006" lon="-2.8705200000000004">
        <time>2021-06-19T08:18:25+0000</time>
      </trkpt>
      <trkpt lat="40.76312" lon="-2.8705000000000003">
        <time>2021-06-19T08:18:26+0000</time>
      </trkpt>
      <trkpt lat="40.763110000000005" lon="-2.87048">
        <time>2021-06-19T08:18:27+0000</time>
      </trkpt>
      <trkpt lat="40.763090000000005" lon="-2.8704600000000005">
        <time>2021-06-19T08:18:28+0000</time>
      </trkpt>
      <trkpt lat="40.76306" lon="-2.8704300000000003">
        <time>2021-06-19T08:18:29+0000</time>
      </trkpt>
      <trkpt lat="40.763040000000004" lon="-2.8704">
        <time>2021-06-19T08:18:30+0000</time>
      </trkpt>
      <trkpt lat="40.763020000000004" lon="-2.8703700000000003">
        <time>2021-06-19T08:18:31+0000</time>
      </trkpt>
      <trkpt lat="40.76299" lon="-2.87034">
        <time>2021-06-19T08:18:32+0000</time>
      </trkpt>
      <trkpt lat="40.76297" lon="-2.8703100000000004">
        <time>2021-06-19T08:18:33+0000</time>
      </trkpt>
      <trkpt lat="40.76294" lon="-2.87028">
        <time>2021-06-19T08:18:34+0000</time>
      </trkpt>
      <trkpt lat="40.76292" lon="-2.8702500000000004">
        <time>2021-06-19T08:18:35+0000</time>
      </trkpt>
      <trkpt lat="40.7629" lon="-2.8702300000000003">
        <time>2021-06-19T08:18:36+0000</time>
      </trkpt>
      <trkpt lat="40.76287000000001" lon="-2.87019">
        <time>2021-06-19T08:18:37+0000</time>
      </trkpt>
      <trkpt lat="40.76285" lon="-2.8701600000000003">
        <time>2021-06-19T08:18:38+0000</time>
      </trkpt>
      <trkpt lat="40.76283" lon="-2.87014">
        <time>2021-06-19T08:18:39+0000</time>
      </trkpt>
      <trkpt lat="40.76281" lon="-2.8701000000000003">
        <time>2021-06-19T08:18:40+0000</time>
      </trkpt>
      <trkpt lat="40.76279" lon="-2.87007">
        <time>2021-06-19T08:18:41+0000</time>
      </trkpt>
      <trkpt lat="40.76277" lon="-2.8700300000000003">
        <time>2021-06-19T08:18:42+0000</time>
      </trkpt>
      <trkpt lat="40.762750000000004" lon="-2.86999">
        <time>2021-06-19T08:18:43+0000</time>
      </trkpt>
      <trkpt lat="40.762730000000005" lon="-2.8699600000000003">
        <time>2021-06-19T08:18:44+0000</time>
      </trkpt>
      <trkpt lat="40.762710000000006" lon="-2.86992">
        <time>2021-06-19T08:18:45+0000</time>
      </trkpt>
      <trkpt lat="40.76268" lon="-2.8698900000000003">
        <time>2021-06-19T08:18:46+0000</time>
      </trkpt>
      <trkpt lat="40.762660000000004" lon="-2.8698400000000004">
        <time>2021-06-19T08:18:47+0000</time>
      </trkpt>
      <trkpt lat="40.762640000000005" lon="-2.86981">
        <time>2021-06-19T08:18:48+0000</time>
      </trkpt>
      <trkpt lat="40.76263" lon="-2.8697700000000004">
        <time>2021-06-19T08:18:49+0000</time>
      </trkpt>
      <trkpt lat="40.76261" lon="-2.86974">
        <time>2021-06-19T08:18:50+0000</time>
      </trkpt>
      <trkpt lat="40.76259" lon="-2.8697000000000004">
        <time>2021-06-19T08:18:51+0000</time>
      </trkpt>
      <trkpt lat="40.762570000000004" lon="-2.86966">
        <time>2021-06-19T08:18:52+0000</time>
      </trkpt>
      <trkpt lat="40.762550000000005" lon="-2.8696300000000003">
        <time>2021-06-19T08:18:53+0000</time>
      </trkpt>
      <trkpt lat="40.762530000000005" lon="-2.86959">
        <time>2021-06-19T08:18:54+0000</time>
      </trkpt>
      <trkpt lat="40.762510000000006" lon="-2.8695600000000003">
        <time>2021-06-19T08:18:55+0000</time>
      </trkpt>
      <trkpt lat="40.7625" lon="-2.86952">
        <time>2021-06-19T08:18:56+0000</time>
      </trkpt>
      <trkpt lat="40.762480000000004" lon="-2.8694900000000003">
        <time>2021-06-19T08:18:57+0000</time>
      </trkpt>
      <trkpt lat="40.762460000000004" lon="-2.86945">
        <time>2021-06-19T08:18:58+0000</time>
      </trkpt>
      <trkpt lat="40.762440000000005" lon="-2.8694100000000002">
        <time>2021-06-19T08:18:59+0000</time>
      </trkpt>
      <trkpt lat="40.762420000000006" lon="-2.8693700000000004">
        <time>2021-06-19T08:19:00+0000</time>
      </trkpt>
      <trkpt lat="40.76240000000001" lon="-2.8693400000000002">
        <time>2021-06-19T08:19:01+0000</time>
      </trkpt>
      <trkpt lat="40.76238" lon="-2.8693000000000004">
        <time>2021-06-19T08:19:02+0000</time>
      </trkpt>
      <trkpt lat="40.76236" lon="-2.86926">
        <time>2021-06-19T08:19:03+0000</time>
      </trkpt>
      <trkpt lat="40.76234" lon="-2.8692200000000003">
        <time>2021-06-19T08:19:04+0000</time>
      </trkpt>
      <trkpt lat="40.76232" lon="-2.86918">
        <time>2021-06-19T08:19:05+0000</time>
      </trkpt>
      <trkpt lat="40.7623" lon="-2.8691400000000002">
        <time>2021-06-19T08:19:06+0000</time>
      </trkpt>
      <trkpt lat="40.762280000000004" lon="-2.8690800000000003">
        <time>2021-06-19T08:19:07+0000</time>
      </trkpt>
      <trkpt lat="40.76225" lon="-2.8690200000000003">
        <time>2021-06-19T08:19:08+0000</time>
      </trkpt>
      <trkpt lat="40.762220000000006" lon="-2.8689600000000004">
        <time>2021-06-19T08:19:09+0000</time>
      </trkpt>
      <trkpt lat="40.762190000000004" lon="-2.8689000000000004">
        <time>2021-06-19T08:19:10+0000</time>
      </trkpt>
      <trkpt lat="40.762170000000005" lon="-2.86884">
        <time>2021-06-19T08:19:11+0000</time>
      </trkpt>
      <trkpt lat="40.76214" lon="-2.86878">
        <time>2021-06-19T08:19:12+0000</time>
      </trkpt>
      <trkpt lat="40.76211" lon="-2.86872">
        <time>2021-06-19T08:19:13+0000</time>
      </trkpt>
      <trkpt lat="40.76209" lon="-2.8686700000000003">
        <time>2021-06-19T08:19:14+0000</time>
      </trkpt>
      <trkpt lat="40.762080000000005" lon="-2.86863">
        <time>2021-06-19T08:19:15+0000</time>
      </trkpt>
      <trkpt lat="40.762060000000005" lon="-2.86859">
        <time>2021-06-19T08:19:16+0000</time>
      </trkpt>
      <trkpt lat="40.76202000000001" lon="-2.8686000000000003">
        <time>2021-06-19T08:19:17+0000</time>
      </trkpt>
      <trkpt lat="40.76198" lon="-2.86863">
        <time>2021-06-19T08:19:18+0000</time>
      </trkpt>
      <trkpt lat="40.76194" lon="-2.86866">
        <time>2021-06-19T08:19:19+0000</time>
      </trkpt>
      <trkpt lat="40.761900000000004" lon="-2.8686900000000004">
        <time>2021-06-19T08:19:20+0000</time>
      </trkpt>
      <trkpt lat="40.76187" lon="-2.8687">
        <time>2021-06-19T08:19:21+0000</time>
      </trkpt>
      <trkpt lat="40.76184000000001" lon="-2.86872">
        <time>2021-06-19T08:19:22+0000</time>
      </trkpt>
      <trkpt lat="40.7618" lon="-2.8687400000000003">
        <time>2021-06-19T08:19:23+0000</time>
      </trkpt>
      <trkpt lat="40.761770000000006" lon="-2.8687600000000004">
        <time>2021-06-19T08:19:24+0000</time>
      </trkpt>
      <trkpt lat="40.76174" lon="-2.86878">
        <time>2021-06-19T08:19:25+0000</time>
      </trkpt>
      <trkpt lat="40.76171" lon="-2.8688000000000002">
        <time>2021-06-19T08:19:26+0000</time>
      </trkpt>
      <trkpt lat="40.761680000000005" lon="-2.8688200000000004">
        <time>2021-06-19T08:19:27+0000</time>
      </trkpt>
      <trkpt lat="40.761660000000006" lon="-2.8688300000000004">
        <time>2021-06-19T08:19:28+0000</time>
      </trkpt>
      <trkpt lat="40.761630000000004" lon="-2.86885">
        <time>2021-06-19T08:19:29+0000</time>
      </trkpt>
      <trkpt lat="40.761610000000005" lon="-2.86886">
        <time>2021-06-19T08:19:30+0000</time>
      </trkpt>
      <trkpt lat="40.761590000000005" lon="-2.8688800000000003">
        <time>2021-06-19T08:19:31+0000</time>
      </trkpt>
      <trkpt lat="40.76156" lon="-2.8689000000000004">
        <time>2021-06-19T08:19:32+0000</time>
      </trkpt>
      <trkpt lat="40.76153" lon="-2.86892">
        <time>2021-06-19T08:19:33+0000</time>
      </trkpt>
      <trkpt lat="40.761500000000005" lon="-2.8689400000000003">
        <time>2021-06-19T08:19:34+0000</time>
      </trkpt>
      <trkpt lat="40.76147" lon="-2.8689500000000003">
        <time>2021-06-19T08:19:35+0000</time>
      </trkpt>
      <trkpt lat="40.76145" lon="-2.86898">
        <time>2021-06-19T08:19:36+0000</time>
      </trkpt>
      <trkpt lat="40.76142" lon="-2.869">
        <time>2021-06-19T08:19:37+0000</time>
      </trkpt>
      <trkpt lat="40.761390000000006" lon="-2.8690300000000004">
        <time>2021-06-19T08:19:38+0000</time>
      </trkpt>
      <trkpt lat="40.76136" lon="-2.86905">
        <time>2021-06-19T08:19:39+0000</time>
      </trkpt>
      <trkpt lat="40.76133" lon="-2.8690700000000002">
        <time>2021-06-19T08:19:40+0000</time>
      </trkpt>
      <trkpt lat="40.761300000000006" lon="-2.8690900000000004">
        <time>2021-06-19T08:19:41+0000</time>
      </trkpt>
      <trkpt lat="40.76127" lon="-2.86911">
        <time>2021-06-19T08:19:42+0000</time>
      </trkpt>
      <trkpt lat="40.76124" lon="-2.86913">
        <time>2021-06-19T08:19:43+0000</time>
      </trkpt>
      <trkpt lat="40.761210000000005" lon="-2.8691600000000004">
        <time>2021-06-19T08:19:44+0000</time>
      </trkpt>
      <trkpt lat="40.76118" lon="-2.8691700000000004">
        <time>2021-06-19T08:19:45+0000</time>
      </trkpt>
      <trkpt lat="40.76115" lon="-2.86919">
        <time>2021-06-19T08:19:46+0000</time>
      </trkpt>
      <trkpt lat="40.761120000000005" lon="-2.8692">
        <time>2021-06-19T08:19:47+0000</time>
      </trkpt>
      <trkpt lat="40.76109" lon="-2.8692300000000004">
        <time>2021-06-19T08:19:48+0000</time>
      </trkpt>
      <trkpt lat="40.761050000000004" lon="-2.86925">
        <time>2021-06-19T08:19:49+0000</time>
      </trkpt>
      <trkpt lat="40.76102" lon="-2.86926">
        <time>2021-06-19T08:19:50+0000</time>
      </trkpt>
      <trkpt lat="40.76099000000001" lon="-2.86927">
        <time>2021-06-19T08:19:51+0000</time>
      </trkpt>
      <trkpt lat="40.760960000000004" lon="-2.8692900000000003">
        <time>2021-06-19T08:19:52+0000</time>
      </trkpt>
      <trkpt lat="40.760920000000006" lon="-2.8693000000000004">
        <time>2021-06-19T08:19:53+0000</time>
      </trkpt>
      <trkpt lat="40.76089" lon="-2.86931">
        <time>2021-06-19T08:19:54+0000</time>
      </trkpt>
      <trkpt lat="40.760850000000005" lon="-2.86932">
        <time>2021-06-19T08:19:55+0000</time>
      </trkpt>
      <trkpt lat="40.760830000000006" lon="-2.8693500000000003">
        <time>2021-06-19T08:19:56+0000</time>
      </trkpt>
      <trkpt lat="40.7608" lon="-2.8693600000000004">
        <time>2021-06-19T08:19:57+0000</time>
      </trkpt>
      <trkpt lat="40.76077" lon="-2.86933">
        <time>2021-06-19T08:19:58+0000</time>
      </trkpt>
      <trkpt lat="40.760740000000006" lon="-2.8693400000000002">
        <time>2021-06-19T08:19:59+0000</time>
      </trkpt>
      <trkpt lat="40.76071" lon="-2.8693400000000002">
        <time>2021-06-19T08:20:00+0000</time>
      </trkpt>
      <trkpt lat="40.76068" lon="-2.8693500000000003">
        <time>2021-06-19T08:20:01+0000</time>
      </trkpt>
      <trkpt lat="40.760650000000005" lon="-2.8693600000000004">
        <time>2021-06-19T08:20:02+0000</time>
      </trkpt>
      <trkpt lat="40.76062" lon="-2.8693700000000004">
        <time>2021-06-19T08:20:03+0000</time>
      </trkpt>
      <trkpt lat="40.76059" lon="-2.8693700000000004">
        <time>2021-06-19T08:20:04+0000</time>
      </trkpt>
      <trkpt lat="40.760560000000005" lon="-2.8693700000000004">
        <time>2021-06-19T08:20:05+0000</time>
      </trkpt>
      <trkpt lat="40.760540000000006" lon="-2.8693700000000004">
        <time>2021-06-19T08:20:06+0000</time>
      </trkpt>
      <trkpt lat="40.7605" lon="-2.8693600000000004">
        <time>2021-06-19T08:20:07+0000</time>
      </trkpt>
      <trkpt lat="40.760470000000005" lon="-2.8693600000000004">
        <time>2021-06-19T08:20:08+0000</time>
      </trkpt>
      <trkpt lat="40.76043000000001" lon="-2.8693500000000003">
        <time>2021-06-19T08:20:09+0000</time>
      </trkpt>
      <trkpt lat="40.76039" lon="-2.8693500000000003">
        <time>2021-06-19T08:20:10+0000</time>
      </trkpt>
      <trkpt lat="40.76035" lon="-2.8693400000000002">
        <time>2021-06-19T08:20:11+0000</time>
      </trkpt>
      <trkpt lat="40.760310000000004" lon="-2.8693400000000002">
        <time>2021-06-19T08:20:12+0000</time>
      </trkpt>
      <trkpt lat="40.760270000000006" lon="-2.86932">
        <time>2021-06-19T08:20:13+0000</time>
      </trkpt>
      <trkpt lat="40.760220000000004" lon="-2.86931">
        <time>2021-06-19T08:20:14+0000</time>
      </trkpt>
      <trkpt lat="40.760180000000005" lon="-2.86931">
        <time>2021-06-19T08:20:15+0000</time>
      </trkpt>
      <trkpt lat="40.76014" lon="-2.8693000000000004">
        <time>2021-06-19T08:20:16+0000</time>
      </trkpt>
      <trkpt lat="40.7601" lon="-2.8693000000000004">
        <time>2021-06-19T08:20:17+0000</time>
      </trkpt>
      <trkpt lat="40.76006" lon="-2.8693000000000004">
        <time>2021-06-19T08:20:18+0000</time>
      </trkpt>
      <trkpt lat="40.760020000000004" lon="-2.8692900000000003">
        <time>2021-06-19T08:20:19+0000</time>
      </trkpt>
      <trkpt lat="40.759980000000006" lon="-2.8692900000000003">
        <time>2021-06-19T08:20:20+0000</time>
      </trkpt>
      <trkpt lat="40.75994" lon="-2.8692800000000003">
        <time>2021-06-19T08:20:21+0000</time>
      </trkpt>
      <trkpt lat="40.759890000000006" lon="-2.8692800000000003">
        <time>2021-06-19T08:20:22+0000</time>
      </trkpt>
      <trkpt lat="40.75985" lon="-2.8692800000000003">
        <time>2021-06-19T08:20:23+0000</time>
      </trkpt>
      <trkpt lat="40.759800000000006" lon="-2.8692800000000003">
        <time>2021-06-19T08:20:24+0000</time>
      </trkpt>
      <trkpt lat="40.759750000000004" lon="-2.8692800000000003">
        <time>2021-06-19T08:20:25+0000</time>
      </trkpt>
      <trkpt lat="40.7597" lon="-2.8692800000000003">
        <time>2021-06-19T08:20:26+0000</time>
      </trkpt>
      <trkpt lat="40.75965" lon="-2.8693000000000004">
        <time>2021-06-19T08:20:27+0000</time>
      </trkpt>
      <trkpt lat="40.759600000000006" lon="-2.8692900000000003">
        <time>2021-06-19T08:20:28+0000</time>
      </trkpt>
      <trkpt lat="40.759550000000004" lon="-2.8692900000000003">
        <time>2021-06-19T08:20:29+0000</time>
      </trkpt>
      <trkpt lat="40.75949000000001" lon="-2.8692800000000003">
        <time>2021-06-19T08:20:30+0000</time>
      </trkpt>
      <trkpt lat="40.75943" lon="-2.8692800000000003">
        <time>2021-06-19T08:20:31+0000</time>
      </trkpt>
      <trkpt lat="40.759370000000004" lon="-2.8692800000000003">
        <time>2021-06-19T08:20:32+0000</time>
      </trkpt>
      <trkpt lat="40.759310000000006" lon="-2.86927">
        <time>2021-06-19T08:20:33+0000</time>
      </trkpt>
      <trkpt lat="40.75923" lon="-2.86927">
        <time>2021-06-19T08:20:34+0000</time>
      </trkpt>
      <trkpt lat="40.759150000000005" lon="-2.86926">
        <time>2021-06-19T08:20:35+0000</time>
      </trkpt>
      <trkpt lat="40.75907" lon="-2.86926">
        <time>2021-06-19T08:20:36+0000</time>
      </trkpt>
      <trkpt lat="40.759" lon="-2.86925">
        <time>2021-06-19T08:20:37+0000</time>
      </trkpt>
      <trkpt lat="40.75894" lon="-2.8692">
        <time>2021-06-19T08:20:38+0000</time>
      </trkpt>
      <trkpt lat="40.75887" lon="-2.8692100000000003">
        <time>2021-06-19T08:20:39+0000</time>
      </trkpt>
      <trkpt lat="40.75882" lon="-2.8691500000000003">
        <time>2021-06-19T08:20:40+0000</time>
      </trkpt>
      <trkpt lat="40.75876" lon="-2.8690900000000004">
        <time>2021-06-19T08:20:41+0000</time>
      </trkpt>
      <trkpt lat="40.75871" lon="-2.8690200000000003">
        <time>2021-06-19T08:20:42+0000</time>
      </trkpt>
      <trkpt lat="40.758660000000006" lon="-2.8689600000000004">
        <time>2021-06-19T08:20:43+0000</time>
      </trkpt>
      <trkpt lat="40.758610000000004" lon="-2.86892">
        <time>2021-06-19T08:20:44+0000</time>
      </trkpt>
      <trkpt lat="40.75856" lon="-2.86886">
        <time>2021-06-19T08:20:45+0000</time>
      </trkpt>
      <trkpt lat="40.75851" lon="-2.8688000000000002">
        <time>2021-06-19T08:20:46+0000</time>
      </trkpt>
      <trkpt lat="40.75846000000001" lon="-2.8687300000000002">
        <time>2021-06-19T08:20:47+0000</time>
      </trkpt>
      <trkpt lat="40.75844" lon="-2.86865">
        <time>2021-06-19T08:20:48+0000</time>
      </trkpt>
      <trkpt lat="40.758410000000005" lon="-2.8685500000000004">
        <time>2021-06-19T08:20:49+0000</time>
      </trkpt>
      <trkpt lat="40.758370000000006" lon="-2.86843">
        <time>2021-06-19T08:20:50+0000</time>
      </trkpt>
      <trkpt lat="40.75835" lon="-2.8682800000000004">
        <time>2021-06-19T08:20:51+0000</time>
      </trkpt>
      <trkpt lat="40.758340000000004" lon="-2.8681300000000003">
        <time>2021-06-19T08:20:52+0000</time>
      </trkpt>
      <trkpt lat="40.758320000000005" lon="-2.8679900000000003">
        <time>2021-06-19T08:20:53+0000</time>
      </trkpt>
      <trkpt lat="40.758340000000004" lon="-2.86784">
        <time>2021-06-19T08:20:54+0000</time>
      </trkpt>
      <trkpt lat="40.758340000000004" lon="-2.86771">
        <time>2021-06-19T08:20:55+0000</time>
      </trkpt>
      <trkpt lat="40.75836" lon="-2.8675900000000003">
        <time>2021-06-19T08:20:56+0000</time>
      </trkpt>
      <trkpt lat="40.7584" lon="-2.86748">
        <time>2021-06-19T08:20:57+0000</time>
      </trkpt>
      <trkpt lat="40.75847" lon="-2.86735">
        <time>2021-06-19T08:20:58+0000</time>
      </trkpt>
      <trkpt lat="40.75854" lon="-2.86723">
        <time>2021-06-19T08:20:59+0000</time>
      </trkpt>
      <trkpt lat="40.75862" lon="-2.8671100000000003">
        <time>2021-06-19T08:21:00+0000</time>
      </trkpt>
      <trkpt lat="40.758700000000005" lon="-2.8669700000000002">
        <time>2021-06-19T08:21:01+0000</time>
      </trkpt>
      <trkpt lat="40.758750000000006" lon="-2.8667800000000003">
        <time>2021-06-19T08:21:02+0000</time>
      </trkpt>
      <trkpt lat="40.75885" lon="-2.86662">
        <time>2021-06-19T08:21:03+0000</time>
      </trkpt>
      <trkpt lat="40.758950000000006" lon="-2.8664500000000004">
        <time>2021-06-19T08:21:04+0000</time>
      </trkpt>
      <trkpt lat="40.759060000000005" lon="-2.86626">
        <time>2021-06-19T08:21:05+0000</time>
      </trkpt>
      <trkpt lat="40.75914" lon="-2.8660500000000004">
        <time>2021-06-19T08:21:06+0000</time>
      </trkpt>
      <trkpt lat="40.7592" lon="-2.8658300000000003">
        <time>2021-06-19T08:21:07+0000</time>
      </trkpt>
      <trkpt lat="40.759240000000005" lon="-2.8656">
        <time>2021-06-19T08:21:08+0000</time>
      </trkpt>
      <trkpt lat="40.75927" lon="-2.8653600000000004">
        <time>2021-06-19T08:21:09+0000</time>
      </trkpt>
      <trkpt lat="40.7593" lon="-2.86512">
        <time>2021-06-19T08:21:10+0000</time>
      </trkpt>
      <trkpt lat="40.75936" lon="-2.8648800000000003">
        <time>2021-06-19T08:21:11+0000</time>
      </trkpt>
      <trkpt lat="40.75945" lon="-2.86464">
        <time>2021-06-19T08:21:12+0000</time>
      </trkpt>
      <trkpt lat="40.75954" lon="-2.8644100000000003">
        <time>2021-06-19T08:21:13+0000</time>
      </trkpt>
      <trkpt lat="40.75967" lon="-2.8642200000000004">
        <time>2021-06-19T08:21:14+0000</time>
      </trkpt>
      <trkpt lat="40.75976" lon="-2.8640000000000003">
        <time>2021-06-19T08:21:15+0000</time>
      </trkpt>
      <trkpt lat="40.759820000000005" lon="-2.86378">
        <time>2021-06-19T08:21:16+0000</time>
      </trkpt>
      <trkpt lat="40.75987000000001" lon="-2.86355">
        <time>2021-06-19T08:21:17+0000</time>
      </trkpt>
      <trkpt lat="40.75992" lon="-2.8633300000000004">
        <time>2021-06-19T08:21:18+0000</time>
      </trkpt>
      <trkpt lat="40.75997" lon="-2.8631100000000003">
        <time>2021-06-19T08:21:19+0000</time>
      </trkpt>
      <trkpt lat="40.760020000000004" lon="-2.86289">
        <time>2021-06-19T08:21:20+0000</time>
      </trkpt>
      <trkpt lat="40.760070000000006" lon="-2.86268">
        <time>2021-06-19T08:21:21+0000</time>
      </trkpt>
      <trkpt lat="40.76008" lon="-2.8624600000000004">
        <time>2021-06-19T08:21:22+0000</time>
      </trkpt>
      <trkpt lat="40.760130000000004" lon="-2.86227">
        <time>2021-06-19T08:21:23+0000</time>
      </trkpt>
      <trkpt lat="40.760180000000005" lon="-2.8620900000000002">
        <time>2021-06-19T08:21:24+0000</time>
      </trkpt>
      <trkpt lat="40.760220000000004" lon="-2.86193">
        <time>2021-06-19T08:21:25+0000</time>
      </trkpt>
      <trkpt lat="40.760270000000006" lon="-2.8618">
        <time>2021-06-19T08:21:26+0000</time>
      </trkpt>
      <trkpt lat="40.760310000000004" lon="-2.86167">
        <time>2021-06-19T08:21:27+0000</time>
      </trkpt>
      <trkpt lat="40.76034000000001" lon="-2.8615500000000003">
        <time>2021-06-19T08:21:28+0000</time>
      </trkpt>
      <trkpt lat="40.76037" lon="-2.86146">
        <time>2021-06-19T08:21:29+0000</time>
      </trkpt>
      <trkpt lat="40.76037" lon="-2.8613600000000003">
        <time>2021-06-19T08:21:30+0000</time>
      </trkpt>
      <trkpt lat="40.76039" lon="-2.8612800000000003">
        <time>2021-06-19T08:21:31+0000</time>
      </trkpt>
      <trkpt lat="40.76041" lon="-2.8612100000000003">
        <time>2021-06-19T08:21:32+0000</time>
      </trkpt>
      <trkpt lat="40.760400000000004" lon="-2.8611500000000003">
        <time>2021-06-19T08:21:33+0000</time>
      </trkpt>
      <trkpt lat="40.760360000000006" lon="-2.86112">
        <time>2021-06-19T08:21:34+0000</time>
      </trkpt>
      <trkpt lat="40.760360000000006" lon="-2.8611500000000003">
        <time>2021-06-19T08:21:35+0000</time>
      </trkpt>
      <trkpt lat="40.760220000000004" lon="-2.86113">
        <time>2021-06-19T08:21:36+0000</time>
      </trkpt>
      <trkpt lat="40.76017" lon="-2.86125">
        <time>2021-06-19T08:21:37+0000</time>
      </trkpt>
      <trkpt lat="40.760110000000005" lon="-2.86138">
        <time>2021-06-19T08:21:38+0000</time>
      </trkpt>
      <trkpt lat="40.76005000000001" lon="-2.86154">
        <time>2021-06-19T08:21:39+0000</time>
      </trkpt>
      <trkpt lat="40.75999" lon="-2.8616900000000003">
        <time>2021-06-19T08:21:40+0000</time>
      </trkpt>
      <trkpt lat="40.7599" lon="-2.8618500000000004">
        <time>2021-06-19T08:21:41+0000</time>
      </trkpt>
      <trkpt lat="40.75979" lon="-2.862">
        <time>2021-06-19T08:21:42+0000</time>
      </trkpt>
      <trkpt lat="40.759640000000005" lon="-2.86215">
        <time>2021-06-19T08:21:43+0000</time>
      </trkpt>
      <trkpt lat="40.7595" lon="-2.86228">
        <time>2021-06-19T08:21:44+0000</time>
      </trkpt>
      <trkpt lat="40.75936" lon="-2.86241">
        <time>2021-06-19T08:21:45+0000</time>
      </trkpt>
      <trkpt lat="40.759220000000006" lon="-2.86256">
        <time>2021-06-19T08:21:46+0000</time>
      </trkpt>
      <trkpt lat="40.759100000000004" lon="-2.8627100000000003">
        <time>2021-06-19T08:21:47+0000</time>
      </trkpt>
      <trkpt lat="40.758990000000004" lon="-2.86287">
        <time>2021-06-19T08:21:48+0000</time>
      </trkpt>
      <trkpt lat="40.75887" lon="-2.86303">
        <time>2021-06-19T08:21:49+0000</time>
      </trkpt>
      <trkpt lat="40.758750000000006" lon="-2.8631800000000003">
        <time>2021-06-19T08:21:50+0000</time>
      </trkpt>
      <trkpt lat="40.75864000000001" lon="-2.8633200000000003">
        <time>2021-06-19T08:21:51+0000</time>
      </trkpt>
      <trkpt lat="40.75853" lon="-2.8634600000000003">
        <time>2021-06-19T08:21:52+0000</time>
      </trkpt>
      <trkpt lat="40.758410000000005" lon="-2.8636100000000004">
        <time>2021-06-19T08:21:53+0000</time>
      </trkpt>
      <trkpt lat="40.75829" lon="-2.8637400000000004">
        <time>2021-06-19T08:21:54+0000</time>
      </trkpt>
      <trkpt lat="40.758140000000004" lon="-2.8638500000000002">
        <time>2021-06-19T08:21:55+0000</time>
      </trkpt>
      <trkpt lat="40.75799000000001" lon="-2.86396">
        <time>2021-06-19T08:21:56+0000</time>
      </trkpt>
      <trkpt lat="40.757830000000006" lon="-2.8640700000000003">
        <time>2021-06-19T08:21:57+0000</time>
      </trkpt>
      <trkpt lat="40.757670000000005" lon="-2.86418">
        <time>2021-06-19T08:21:58+0000</time>
      </trkpt>
      <trkpt lat="40.7575" lon="-2.8643">
        <time>2021-06-19T08:21:59+0000</time>
      </trkpt>
      <trkpt lat="40.757340000000006" lon="-2.8644100000000003">
        <time>2021-06-19T08:22:00+0000</time>
      </trkpt>
      <trkpt lat="40.75717" lon="-2.86451">
        <time>2021-06-19T08:22:01+0000</time>
      </trkpt>
      <trkpt lat="40.75703" lon="-2.8646300000000005">
        <time>2021-06-19T08:22:02+0000</time>
      </trkpt>
      <trkpt lat="40.7569" lon="-2.86477">
        <time>2021-06-19T08:22:03+0000</time>
      </trkpt>
      <trkpt lat="40.756780000000006" lon="-2.86492">
        <time>2021-06-19T08:22:04+0000</time>
      </trkpt>
      <trkpt lat="40.756660000000004" lon="-2.8650700000000002">
        <time>2021-06-19T08:22:05+0000</time>
      </trkpt>
      <trkpt lat="40.75654" lon="-2.8652">
        <time>2021-06-19T08:22:06+0000</time>
      </trkpt>
      <trkpt lat="40.75641" lon="-2.8653000000000004">
        <time>2021-06-19T08:22:07+0000</time>
      </trkpt>
      <trkpt lat="40.75627" lon="-2.86538">
        <time>2021-06-19T08:22:08+0000</time>
      </trkpt>
      <trkpt lat="40.75612" lon="-2.8654200000000003">
        <time>2021-06-19T08:22:09+0000</time>
      </trkpt>
      <trkpt lat="40.75598" lon="-2.86546">
        <time>2021-06-19T08:22:10+0000</time>
      </trkpt>
      <trkpt lat="40.755840000000006" lon="-2.8654400000000004">
        <time>2021-06-19T08:22:11+0000</time>
      </trkpt>
      <trkpt lat="40.75569" lon="-2.86534">
        <time>2021-06-19T08:22:12+0000</time>
      </trkpt>
      <trkpt lat="40.75554" lon="-2.86526">
        <time>2021-06-19T08:22:13+0000</time>
      </trkpt>
      <trkpt lat="40.755410000000005" lon="-2.8651700000000004">
        <time>2021-06-19T08:22:14+0000</time>
      </trkpt>
      <trkpt lat="40.75527" lon="-2.86506">
        <time>2021-06-19T08:22:15+0000</time>
      </trkpt>
      <trkpt lat="40.755120000000005" lon="-2.865">
        <time>2021-06-19T08:22:16+0000</time>
      </trkpt>
      <trkpt lat="40.75499000000001" lon="-2.8649000000000004">
        <time>2021-06-19T08:22:17+0000</time>
      </trkpt>
      <trkpt lat="40.75486" lon="-2.8648100000000003">
        <time>2021-06-19T08:22:18+0000</time>
      </trkpt>
      <trkpt lat="40.754740000000005" lon="-2.86471">
        <time>2021-06-19T08:22:19+0000</time>
      </trkpt>
      <trkpt lat="40.75462" lon="-2.8646300000000005">
        <time>2021-06-19T08:22:20+0000</time>
      </trkpt>
      <trkpt lat="40.75451" lon="-2.8645500000000004">
        <time>2021-06-19T08:22:21+0000</time>
      </trkpt>
      <trkpt lat="40.75442" lon="-2.8644800000000004">
        <time>2021-06-19T08:22:22+0000</time>
      </trkpt>
      <trkpt lat="40.754340000000006" lon="-2.86443">
        <time>2021-06-19T08:22:23+0000</time>
      </trkpt>
      <trkpt lat="40.754250000000006" lon="-2.8644100000000003">
        <time>2021-06-19T08:22:24+0000</time>
      </trkpt>
      <trkpt lat="40.75415" lon="-2.8644100000000003">
        <time>2021-06-19T08:22:25+0000</time>
      </trkpt>
      <trkpt lat="40.75405000000001" lon="-2.8644800000000004">
        <time>2021-06-19T08:22:26+0000</time>
      </trkpt>
      <trkpt lat="40.75394" lon="-2.8646000000000003">
        <time>2021-06-19T08:22:27+0000</time>
      </trkpt>
      <trkpt lat="40.75383" lon="-2.8647500000000004">
        <time>2021-06-19T08:22:28+0000</time>
      </trkpt>
      <trkpt lat="40.7537" lon="-2.86492">
        <time>2021-06-19T08:22:29+0000</time>
      </trkpt>
      <trkpt lat="40.75359" lon="-2.8650800000000003">
        <time>2021-06-19T08:22:30+0000</time>
      </trkpt>
      <trkpt lat="40.753460000000004" lon="-2.86525">
        <time>2021-06-19T08:22:31+0000</time>
      </trkpt>
      <trkpt lat="40.753330000000005" lon="-2.8654300000000004">
        <time>2021-06-19T08:22:32+0000</time>
      </trkpt>
      <trkpt lat="40.75320000000001" lon="-2.86561">
        <time>2021-06-19T08:22:33+0000</time>
      </trkpt>
      <trkpt lat="40.75307" lon="-2.86579">
        <time>2021-06-19T08:22:34+0000</time>
      </trkpt>
      <trkpt lat="40.75294" lon="-2.8659600000000003">
        <time>2021-06-19T08:22:35+0000</time>
      </trkpt>
      <trkpt lat="40.752810000000004" lon="-2.8661200000000004">
        <time>2021-06-19T08:22:36+0000</time>
      </trkpt>
      <trkpt lat="40.75269" lon="-2.86628">
        <time>2021-06-19T08:22:37+0000</time>
      </trkpt>
      <trkpt lat="40.752570000000006" lon="-2.8664300000000003">
        <time>2021-06-19T08:22:38+0000</time>
      </trkpt>
      <trkpt lat="40.75245" lon="-2.8665900000000004">
        <time>2021-06-19T08:22:39+0000</time>
      </trkpt>
      <trkpt lat="40.752320000000005" lon="-2.86676">
        <time>2021-06-19T08:22:40+0000</time>
      </trkpt>
      <trkpt lat="40.7522" lon="-2.86694">
        <time>2021-06-19T08:22:41+0000</time>
      </trkpt>
      <trkpt lat="40.75208000000001" lon="-2.8671200000000003">
        <time>2021-06-19T08:22:42+0000</time>
      </trkpt>
      <trkpt lat="40.751940000000005" lon="-2.8673">
        <time>2021-06-19T08:22:43+0000</time>
      </trkpt>
      <trkpt lat="40.751810000000006" lon="-2.8674700000000004">
        <time>2021-06-19T08:22:44+0000</time>
      </trkpt>
      <trkpt lat="40.751670000000004" lon="-2.8676500000000003">
        <time>2021-06-19T08:22:45+0000</time>
      </trkpt>
      <trkpt lat="40.75153" lon="-2.86782">
        <time>2021-06-19T08:22:46+0000</time>
      </trkpt>
      <trkpt lat="40.75139" lon="-2.8680000000000003">
        <time>2021-06-19T08:22:47+0000</time>
      </trkpt>
      <trkpt lat="40.751250000000006" lon="-2.86818">
        <time>2021-06-19T08:22:48+0000</time>
      </trkpt>
      <trkpt lat="40.75112" lon="-2.8683500000000004">
        <time>2021-06-19T08:22:49+0000</time>
      </trkpt>
      <trkpt lat="40.75099" lon="-2.8685300000000002">
        <time>2021-06-19T08:22:50+0000</time>
      </trkpt>
      <trkpt lat="40.75085" lon="-2.86871">
        <time>2021-06-19T08:22:51+0000</time>
      </trkpt>
      <trkpt lat="40.75072" lon="-2.8688900000000004">
        <time>2021-06-19T08:22:52+0000</time>
      </trkpt>
      <trkpt lat="40.75058000000001" lon="-2.8690700000000002">
        <time>2021-06-19T08:22:53+0000</time>
      </trkpt>
      <trkpt lat="40.75045" lon="-2.86925">
        <time>2021-06-19T08:22:54+0000</time>
      </trkpt>
      <trkpt lat="40.75032" lon="-2.8694">
        <time>2021-06-19T08:22:55+0000</time>
      </trkpt>
      <trkpt lat="40.75020000000001" lon="-2.8695600000000003">
        <time>2021-06-19T08:22:56+0000</time>
      </trkpt>
      <trkpt lat="40.750080000000004" lon="-2.86972">
        <time>2021-06-19T08:22:57+0000</time>
      </trkpt>
      <trkpt lat="40.749950000000005" lon="-2.86986">
        <time>2021-06-19T08:22:58+0000</time>
      </trkpt>
      <trkpt lat="40.7498" lon="-2.86999">
        <time>2021-06-19T08:22:59+0000</time>
      </trkpt>
      <trkpt lat="40.74963" lon="-2.8701000000000003">
        <time>2021-06-19T08:23:00+0000</time>
      </trkpt>
      <trkpt lat="40.74944" lon="-2.8702">
        <time>2021-06-19T08:23:01+0000</time>
      </trkpt>
      <trkpt lat="40.749230000000004" lon="-2.8703000000000003">
        <time>2021-06-19T08:23:02+0000</time>
      </trkpt>
      <trkpt lat="40.749030000000005" lon="-2.8703900000000004">
        <time>2021-06-19T08:23:03+0000</time>
      </trkpt>
      <trkpt lat="40.748830000000005" lon="-2.87047">
        <time>2021-06-19T08:23:04+0000</time>
      </trkpt>
      <trkpt lat="40.748650000000005" lon="-2.87055">
        <time>2021-06-19T08:23:05+0000</time>
      </trkpt>
      <trkpt lat="40.74846" lon="-2.8705900000000004">
        <time>2021-06-19T08:23:06+0000</time>
      </trkpt>
      <trkpt lat="40.74826" lon="-2.8706">
        <time>2021-06-19T08:23:07+0000</time>
      </trkpt>
      <trkpt lat="40.748050000000006" lon="-2.8705800000000004">
        <time>2021-06-19T08:23:08+0000</time>
      </trkpt>
      <trkpt lat="40.747840000000004" lon="-2.87055">
        <time>2021-06-19T08:23:09+0000</time>
      </trkpt>
      <trkpt lat="40.74763" lon="-2.8705200000000004">
        <time>2021-06-19T08:23:10+0000</time>
      </trkpt>
      <trkpt lat="40.74741" lon="-2.87049">
        <time>2021-06-19T08:23:11+0000</time>
      </trkpt>
      <trkpt lat="40.74720000000001" lon="-2.87047">
        <time>2021-06-19T08:23:12+0000</time>
      </trkpt>
      <trkpt lat="40.746990000000004" lon="-2.8704500000000004">
        <time>2021-06-19T08:23:13+0000</time>
      </trkpt>
      <trkpt lat="40.746790000000004" lon="-2.8704300000000003">
        <time>2021-06-19T08:23:14+0000</time>
      </trkpt>
      <trkpt lat="40.7466" lon="-2.87041">
        <time>2021-06-19T08:23:15+0000</time>
      </trkpt>
      <trkpt lat="40.7464" lon="-2.8703800000000004">
        <time>2021-06-19T08:23:16+0000</time>
      </trkpt>
      <trkpt lat="40.746210000000005" lon="-2.8703600000000002">
        <time>2021-06-19T08:23:17+0000</time>
      </trkpt>
      <trkpt lat="40.746030000000005" lon="-2.87034">
        <time>2021-06-19T08:23:18+0000</time>
      </trkpt>
      <trkpt lat="40.745850000000004" lon="-2.8703200000000004">
        <time>2021-06-19T08:23:19+0000</time>
      </trkpt>
      <trkpt lat="40.74568" lon="-2.8703000000000003">
        <time>2021-06-19T08:23:20+0000</time>
      </trkpt>
      <trkpt lat="40.745520000000006" lon="-2.8703000000000003">
        <time>2021-06-19T08:23:21+0000</time>
      </trkpt>
      <trkpt lat="40.745340000000006" lon="-2.87033">
        <time>2021-06-19T08:23:22+0000</time>
      </trkpt>
      <trkpt lat="40.745160000000006" lon="-2.8704">
        <time>2021-06-19T08:23:23+0000</time>
      </trkpt>
      <trkpt lat="40.74497" lon="-2.8705000000000003">
        <time>2021-06-19T08:23:24+0000</time>
      </trkpt>
      <trkpt lat="40.74477" lon="-2.8706400000000003">
        <time>2021-06-19T08:23:25+0000</time>
      </trkpt>
      <trkpt lat="40.74456" lon="-2.8707900000000004">
        <time>2021-06-19T08:23:26+0000</time>
      </trkpt>
      <trkpt lat="40.744350000000004" lon="-2.8709300000000004">
        <time>2021-06-19T08:23:27+0000</time>
      </trkpt>
      <trkpt lat="40.74414" lon="-2.8710700000000005">
        <time>2021-06-19T08:23:28+0000</time>
      </trkpt>
      <trkpt lat="40.74394" lon="-2.87122">
        <time>2021-06-19T08:23:29+0000</time>
      </trkpt>
      <trkpt lat="40.743730000000006" lon="-2.87136">
        <time>2021-06-19T08:23:30+0000</time>
      </trkpt>
      <trkpt lat="40.74353" lon="-2.8715">
        <time>2021-06-19T08:23:31+0000</time>
      </trkpt>
      <trkpt lat="40.743320000000004" lon="-2.8716500000000003">
        <time>2021-06-19T08:23:32+0000</time>
      </trkpt>
      <trkpt lat="40.743120000000005" lon="-2.8717900000000003">
        <time>2021-06-19T08:23:33+0000</time>
      </trkpt>
      <trkpt lat="40.74293" lon="-2.8719200000000003">
        <time>2021-06-19T08:23:34+0000</time>
      </trkpt>
      <trkpt lat="40.74275" lon="-2.87204">
        <time>2021-06-19T08:23:35+0000</time>
      </trkpt>
      <trkpt lat="40.742580000000004" lon="-2.87217">
        <time>2021-06-19T08:23:36+0000</time>
      </trkpt>
      <trkpt lat="40.74241000000001" lon="-2.8723">
        <time>2021-06-19T08:23:37+0000</time>
      </trkpt>
      <trkpt lat="40.742230000000006" lon="-2.87243">
        <time>2021-06-19T08:23:38+0000</time>
      </trkpt>
      <trkpt lat="40.74206" lon="-2.8725600000000004">
        <time>2021-06-19T08:23:39+0000</time>
      </trkpt>
      <trkpt lat="40.741890000000005" lon="-2.8726800000000003">
        <time>2021-06-19T08:23:40+0000</time>
      </trkpt>
      <trkpt lat="40.74174" lon="-2.8728000000000002">
        <time>2021-06-19T08:23:41+0000</time>
      </trkpt>
      <trkpt lat="40.741580000000006" lon="-2.87291">
        <time>2021-06-19T08:23:42+0000</time>
      </trkpt>
      <trkpt lat="40.74143" lon="-2.8730200000000004">
        <time>2021-06-19T08:23:43+0000</time>
      </trkpt>
      <trkpt lat="40.74128" lon="-2.87313">
        <time>2021-06-19T08:23:44+0000</time>
      </trkpt>
      <trkpt lat="40.741130000000005" lon="-2.87325">
        <time>2021-06-19T08:23:45+0000</time>
      </trkpt>
      <trkpt lat="40.740990000000004" lon="-2.8734">
        <time>2021-06-19T08:23:46+0000</time>
      </trkpt>
      <trkpt lat="40.74085" lon="-2.8735700000000004">
        <time>2021-06-19T08:23:47+0000</time>
      </trkpt>
      <trkpt lat="40.74072" lon="-2.8737700000000004">
        <time>2021-06-19T08:23:48+0000</time>
      </trkpt>
      <trkpt lat="40.740590000000005" lon="-2.8739700000000004">
        <time>2021-06-19T08:23:49+0000</time>
      </trkpt>
      <trkpt lat="40.74045" lon="-2.8741800000000004">
        <time>2021-06-19T08:23:50+0000</time>
      </trkpt>
      <trkpt lat="40.74033" lon="-2.8743900000000004">
        <time>2021-06-19T08:23:51+0000</time>
      </trkpt>
      <trkpt lat="40.740190000000005" lon="-2.8745800000000004">
        <time>2021-06-19T08:23:52+0000</time>
      </trkpt>
      <trkpt lat="40.74006000000001" lon="-2.8747800000000003">
        <time>2021-06-19T08:23:53+0000</time>
      </trkpt>
      <trkpt lat="40.73993" lon="-2.8749700000000002">
        <time>2021-06-19T08:23:54+0000</time>
      </trkpt>
      <trkpt lat="40.739810000000006" lon="-2.8751700000000002">
        <time>2021-06-19T08:23:55+0000</time>
      </trkpt>
      <trkpt lat="40.73968" lon="-2.8753800000000003">
        <time>2021-06-19T08:23:56+0000</time>
      </trkpt>
      <trkpt lat="40.739560000000004" lon="-2.8755800000000002">
        <time>2021-06-19T08:23:57+0000</time>
      </trkpt>
      <trkpt lat="40.739430000000006" lon="-2.8757800000000002">
        <time>2021-06-19T08:23:58+0000</time>
      </trkpt>
      <trkpt lat="40.73931" lon="-2.87597">
        <time>2021-06-19T08:23:59+0000</time>
      </trkpt>
      <trkpt lat="40.73919" lon="-2.87617">
        <time>2021-06-19T08:24:00+0000</time>
      </trkpt>
      <trkpt lat="40.73906" lon="-2.87636">
        <time>2021-06-19T08:24:01+0000</time>
      </trkpt>
      <trkpt lat="40.73895" lon="-2.8765500000000004">
        <time>2021-06-19T08:24:02+0000</time>
      </trkpt>
      <trkpt lat="40.73883" lon="-2.8767400000000003">
        <time>2021-06-19T08:24:03+0000</time>
      </trkpt>
      <trkpt lat="40.738710000000005" lon="-2.87693">
        <time>2021-06-19T08:24:04+0000</time>
      </trkpt>
      <trkpt lat="40.738580000000006" lon="-2.87713">
        <time>2021-06-19T08:24:05+0000</time>
      </trkpt>
      <trkpt lat="40.73846" lon="-2.87733">
        <time>2021-06-19T08:24:06+0000</time>
      </trkpt>
      <trkpt lat="40.738350000000004" lon="-2.8775500000000003">
        <time>2021-06-19T08:24:07+0000</time>
      </trkpt>
      <trkpt lat="40.73823" lon="-2.87774">
        <time>2021-06-19T08:24:08+0000</time>
      </trkpt>
      <trkpt lat="40.738110000000006" lon="-2.87794">
        <time>2021-06-19T08:24:09+0000</time>
      </trkpt>
      <trkpt lat="40.73800000000001" lon="-2.8781200000000005">
        <time>2021-06-19T08:24:10+0000</time>
      </trkpt>
      <trkpt lat="40.737880000000004" lon="-2.8783000000000003">
        <time>2021-06-19T08:24:11+0000</time>
      </trkpt>
      <trkpt lat="40.737770000000005" lon="-2.87848">
        <time>2021-06-19T08:24:12+0000</time>
      </trkpt>
      <trkpt lat="40.737660000000005" lon="-2.8786500000000004">
        <time>2021-06-19T08:24:13+0000</time>
      </trkpt>
      <trkpt lat="40.737550000000006" lon="-2.8788300000000002">
        <time>2021-06-19T08:24:14+0000</time>
      </trkpt>
      <trkpt lat="40.73744000000001" lon="-2.8790000000000004">
        <time>2021-06-19T08:24:15+0000</time>
      </trkpt>
      <trkpt lat="40.73733" lon="-2.8791700000000002">
        <time>2021-06-19T08:24:16+0000</time>
      </trkpt>
      <trkpt lat="40.737210000000005" lon="-2.8793400000000005">
        <time>2021-06-19T08:24:17+0000</time>
      </trkpt>
      <trkpt lat="40.737080000000006" lon="-2.8795">
        <time>2021-06-19T08:24:18+0000</time>
      </trkpt>
      <trkpt lat="40.73693" lon="-2.87963">
        <time>2021-06-19T08:24:19+0000</time>
      </trkpt>
      <trkpt lat="40.73677" lon="-2.87976">
        <time>2021-06-19T08:24:20+0000</time>
      </trkpt>
      <trkpt lat="40.73659000000001" lon="-2.87989">
        <time>2021-06-19T08:24:21+0000</time>
      </trkpt>
      <trkpt lat="40.73642" lon="-2.88002">
        <time>2021-06-19T08:24:22+0000</time>
      </trkpt>
      <trkpt lat="40.73624" lon="-2.8801400000000004">
        <time>2021-06-19T08:24:23+0000</time>
      </trkpt>
      <trkpt lat="40.73608" lon="-2.8802700000000003">
        <time>2021-06-19T08:24:24+0000</time>
      </trkpt>
      <trkpt lat="40.735910000000004" lon="-2.8803900000000002">
        <time>2021-06-19T08:24:25+0000</time>
      </trkpt>
      <trkpt lat="40.73575" lon="-2.8804900000000004">
        <time>2021-06-19T08:24:26+0000</time>
      </trkpt>
      <trkpt lat="40.735580000000006" lon="-2.8805600000000005">
        <time>2021-06-19T08:24:27+0000</time>
      </trkpt>
      <trkpt lat="40.735420000000005" lon="-2.8806000000000003">
        <time>2021-06-19T08:24:28+0000</time>
      </trkpt>
      <trkpt lat="40.73525" lon="-2.8806100000000003">
        <time>2021-06-19T08:24:29+0000</time>
      </trkpt>
      <trkpt lat="40.73507" lon="-2.8806000000000003">
        <time>2021-06-19T08:24:30+0000</time>
      </trkpt>
      <trkpt lat="40.73489" lon="-2.8805500000000004">
        <time>2021-06-19T08:24:31+0000</time>
      </trkpt>
      <trkpt lat="40.73471000000001" lon="-2.8804800000000004">
        <time>2021-06-19T08:24:32+0000</time>
      </trkpt>
      <trkpt lat="40.73453000000001" lon="-2.88037">
        <time>2021-06-19T08:24:33+0000</time>
      </trkpt>
      <trkpt lat="40.734350000000006" lon="-2.88025">
        <time>2021-06-19T08:24:34+0000</time>
      </trkpt>
      <trkpt lat="40.734170000000006" lon="-2.8801400000000004">
        <time>2021-06-19T08:24:35+0000</time>
      </trkpt>
      <trkpt lat="40.734" lon="-2.88004">
        <time>2021-06-19T08:24:36+0000</time>
      </trkpt>
      <trkpt lat="40.733830000000005" lon="-2.8799400000000004">
        <time>2021-06-19T08:24:37+0000</time>
      </trkpt>
      <trkpt lat="40.733650000000004" lon="-2.87984">
        <time>2021-06-19T08:24:38+0000</time>
      </trkpt>
      <trkpt lat="40.73349" lon="-2.8797400000000004">
        <time>2021-06-19T08:24:39+0000</time>
      </trkpt>
      <trkpt lat="40.733340000000005" lon="-2.87964">
        <time>2021-06-19T08:24:40+0000</time>
      </trkpt>
      <trkpt lat="40.73319" lon="-2.8795400000000004">
        <time>2021-06-19T08:24:41+0000</time>
      </trkpt>
      <trkpt lat="40.73304" lon="-2.8794500000000003">
        <time>2021-06-19T08:24:42+0000</time>
      </trkpt>
      <trkpt lat="40.73288" lon="-2.87936">
        <time>2021-06-19T08:24:43+0000</time>
      </trkpt>
      <trkpt lat="40.73272" lon="-2.87928">
        <time>2021-06-19T08:24:44+0000</time>
      </trkpt>
      <trkpt lat="40.73255" lon="-2.8792500000000003">
        <time>2021-06-19T08:24:45+0000</time>
      </trkpt>
      <trkpt lat="40.73237" lon="-2.87923">
        <time>2021-06-19T08:24:46+0000</time>
      </trkpt>
      <trkpt lat="40.73218000000001" lon="-2.87921">
        <time>2021-06-19T08:24:47+0000</time>
      </trkpt>
      <trkpt lat="40.73199" lon="-2.8791900000000004">
        <time>2021-06-19T08:24:48+0000</time>
      </trkpt>
      <trkpt lat="40.731790000000004" lon="-2.8791700000000002">
        <time>2021-06-19T08:24:49+0000</time>
      </trkpt>
      <trkpt lat="40.731590000000004" lon="-2.87915">
        <time>2021-06-19T08:24:50+0000</time>
      </trkpt>
      <trkpt lat="40.73138" lon="-2.8791200000000003">
        <time>2021-06-19T08:24:51+0000</time>
      </trkpt>
      <trkpt lat="40.73116" lon="-2.87909">
        <time>2021-06-19T08:24:52+0000</time>
      </trkpt>
      <trkpt lat="40.73095" lon="-2.8790600000000004">
        <time>2021-06-19T08:24:53+0000</time>
      </trkpt>
      <trkpt lat="40.730740000000004" lon="-2.8790400000000003">
        <time>2021-06-19T08:24:54+0000</time>
      </trkpt>
      <trkpt lat="40.73053" lon="-2.87901">
        <time>2021-06-19T08:24:55+0000</time>
      </trkpt>
      <trkpt lat="40.730340000000005" lon="-2.8789900000000004">
        <time>2021-06-19T08:24:56+0000</time>
      </trkpt>
      <trkpt lat="40.73015" lon="-2.8789700000000003">
        <time>2021-06-19T08:24:57+0000</time>
      </trkpt>
      <trkpt lat="40.72997" lon="-2.87895">
        <time>2021-06-19T08:24:58+0000</time>
      </trkpt>
      <trkpt lat="40.729780000000005" lon="-2.8789300000000004">
        <time>2021-06-19T08:24:59+0000</time>
      </trkpt>
      <trkpt lat="40.72959" lon="-2.8789000000000002">
        <time>2021-06-19T08:25:00+0000</time>
      </trkpt>
      <trkpt lat="40.729400000000005" lon="-2.87888">
        <time>2021-06-19T08:25:01+0000</time>
      </trkpt>
      <trkpt lat="40.72921" lon="-2.8788600000000004">
        <time>2021-06-19T08:25:02+0000</time>
      </trkpt>
      <trkpt lat="40.729020000000006" lon="-2.8788500000000004">
        <time>2021-06-19T08:25:03+0000</time>
      </trkpt>
      <trkpt lat="40.728840000000005" lon="-2.8788600000000004">
        <time>2021-06-19T08:25:04+0000</time>
      </trkpt>
      <trkpt lat="40.72867" lon="-2.8788600000000004">
        <time>2021-06-19T08:25:05+0000</time>
      </trkpt>
      <trkpt lat="40.72851" lon="-2.87887">
        <time>2021-06-19T08:25:06+0000</time>
      </trkpt>
      <trkpt lat="40.72836" lon="-2.87888">
        <time>2021-06-19T08:25:07+0000</time>
      </trkpt>
      <trkpt lat="40.72822" lon="-2.87887">
        <time>2021-06-19T08:25:08+0000</time>
      </trkpt>
      <trkpt lat="40.728080000000006" lon="-2.8788300000000002">
        <time>2021-06-19T08:25:09+0000</time>
      </trkpt>
      <trkpt lat="40.727940000000004" lon="-2.87874">
        <time>2021-06-19T08:25:10+0000</time>
      </trkpt>
      <trkpt lat="40.7278" lon="-2.8786300000000002">
        <time>2021-06-19T08:25:11+0000</time>
      </trkpt>
      <trkpt lat="40.727650000000004" lon="-2.8785100000000003">
        <time>2021-06-19T08:25:12+0000</time>
      </trkpt>
      <trkpt lat="40.72751" lon="-2.8783800000000004">
        <time>2021-06-19T08:25:13+0000</time>
      </trkpt>
      <trkpt lat="40.727360000000004" lon="-2.87826">
        <time>2021-06-19T08:25:14+0000</time>
      </trkpt>
      <trkpt lat="40.72722" lon="-2.87814">
        <time>2021-06-19T08:25:15+0000</time>
      </trkpt>
      <trkpt lat="40.727070000000005" lon="-2.87801">
        <time>2021-06-19T08:25:16+0000</time>
      </trkpt>
      <trkpt lat="40.726940000000006" lon="-2.8778900000000003">
        <time>2021-06-19T08:25:17+0000</time>
      </trkpt>
      <trkpt lat="40.726820000000004" lon="-2.87779">
        <time>2021-06-19T08:25:18+0000</time>
      </trkpt>
      <trkpt lat="40.726710000000004" lon="-2.8776900000000003">
        <time>2021-06-19T08:25:19+0000</time>
      </trkpt>
      <trkpt lat="40.726600000000005" lon="-2.8776">
        <time>2021-06-19T08:25:20+0000</time>
      </trkpt>
      <trkpt lat="40.726490000000005" lon="-2.87753">
        <time>2021-06-19T08:25:21+0000</time>
      </trkpt>
      <trkpt lat="40.72639" lon="-2.87746">
        <time>2021-06-19T08:25:22+0000</time>
      </trkpt>
      <trkpt lat="40.7263" lon="-2.8774">
        <time>2021-06-19T08:25:23+0000</time>
      </trkpt>
      <trkpt lat="40.726220000000005" lon="-2.87733">
        <time>2021-06-19T08:25:24+0000</time>
      </trkpt>
      <trkpt lat="40.726150000000004" lon="-2.87727">
        <time>2021-06-19T08:25:25+0000</time>
      </trkpt>
      <trkpt lat="40.72608" lon="-2.8772100000000003">
        <time>2021-06-19T08:25:26+0000</time>
      </trkpt>
      <trkpt lat="40.726020000000005" lon="-2.8771500000000003">
        <time>2021-06-19T08:25:27+0000</time>
      </trkpt>
      <trkpt lat="40.725950000000005" lon="-2.8771000000000004">
        <time>2021-06-19T08:25:28+0000</time>
      </trkpt>
      <trkpt lat="40.725880000000004" lon="-2.87704">
        <time>2021-06-19T08:25:29+0000</time>
      </trkpt>
      <trkpt lat="40.725820000000006" lon="-2.87698">
        <time>2021-06-19T08:25:30+0000</time>
      </trkpt>
      <trkpt lat="40.72576" lon="-2.8769400000000003">
        <time>2021-06-19T08:25:31+0000</time>
      </trkpt>
      <trkpt lat="40.7257" lon="-2.8769000000000005">
        <time>2021-06-19T08:25:32+0000</time>
      </trkpt>
      <trkpt lat="40.725640000000006" lon="-2.8768900000000004">
        <time>2021-06-19T08:25:33+0000</time>
      </trkpt>
      <trkpt lat="40.72558" lon="-2.8768900000000004">
        <time>2021-06-19T08:25:34+0000</time>
      </trkpt>
      <trkpt lat="40.72551" lon="-2.8768900000000004">
        <time>2021-06-19T08:25:35+0000</time>
      </trkpt>
      <trkpt lat="40.72543" lon="-2.87691">
        <time>2021-06-19T08:25:36+0000</time>
      </trkpt>
      <trkpt lat="40.725370000000005" lon="-2.87692">
        <time>2021-06-19T08:25:37+0000</time>
      </trkpt>
      <trkpt lat="40.72533000000001" lon="-2.8769400000000003">
        <time>2021-06-19T08:25:38+0000</time>
      </trkpt>
      <trkpt lat="40.72529" lon="-2.8769500000000003">
        <time>2021-06-19T08:25:39+0000</time>
      </trkpt>
      <trkpt lat="40.72524000000001" lon="-2.87697">
        <time>2021-06-19T08:25:40+0000</time>
      </trkpt>
      <trkpt lat="40.7252" lon="-2.87698">
        <time>2021-06-19T08:25:41+0000</time>
      </trkpt>
      <trkpt lat="40.725150000000006" lon="-2.8769600000000004">
        <time>2021-06-19T08:25:42+0000</time>
      </trkpt>
      <trkpt lat="40.725120000000004" lon="-2.87697">
        <time>2021-06-19T08:25:43+0000</time>
      </trkpt>
      <trkpt lat="40.72509" lon="-2.8768200000000004">
        <time>2021-06-19T08:25:44+0000</time>
      </trkpt>
      <trkpt lat="40.72507" lon="-2.87672">
        <time>2021-06-19T08:25:45+0000</time>
      </trkpt>
      <trkpt lat="40.72505" lon="-2.87659">
        <time>2021-06-19T08:25:46+0000</time>
      </trkpt>
      <trkpt lat="40.72505" lon="-2.87645">
        <time>2021-06-19T08:25:47+0000</time>
      </trkpt>
      <trkpt lat="40.72505" lon="-2.8763">
        <time>2021-06-19T08:25:48+0000</time>
      </trkpt>
      <trkpt lat="40.72509" lon="-2.8761500000000004">
        <time>2021-06-19T08:25:49+0000</time>
      </trkpt>
      <trkpt lat="40.725150000000006" lon="-2.87603">
        <time>2021-06-19T08:25:50+0000</time>
      </trkpt>
      <trkpt lat="40.7252" lon="-2.8759200000000003">
        <time>2021-06-19T08:25:51+0000</time>
      </trkpt>
      <trkpt lat="40.72523" lon="-2.8758100000000004">
        <time>2021-06-19T08:25:52+0000</time>
      </trkpt>
      <trkpt lat="40.725260000000006" lon="-2.8757">
        <time>2021-06-19T08:25:53+0000</time>
      </trkpt>
      <trkpt lat="40.72529" lon="-2.8755900000000003">
        <time>2021-06-19T08:25:54+0000</time>
      </trkpt>
      <trkpt lat="40.725300000000004" lon="-2.8754600000000003">
        <time>2021-06-19T08:25:55+0000</time>
      </trkpt>
      <trkpt lat="40.72531" lon="-2.8753300000000004">
        <time>2021-06-19T08:25:56+0000</time>
      </trkpt>
      <trkpt lat="40.72534" lon="-2.8752000000000004">
        <time>2021-06-19T08:25:57+0000</time>
      </trkpt>
      <trkpt lat="40.725370000000005" lon="-2.87509">
        <time>2021-06-19T08:25:58+0000</time>
      </trkpt>
      <trkpt lat="40.72542000000001" lon="-2.8749900000000004">
        <time>2021-06-19T08:25:59+0000</time>
      </trkpt>
      <trkpt lat="40.72547" lon="-2.8749100000000003">
        <time>2021-06-19T08:26:00+0000</time>
      </trkpt>
      <trkpt lat="40.72552" lon="-2.87483">
        <time>2021-06-19T08:26:01+0000</time>
      </trkpt>
      <trkpt lat="40.72558" lon="-2.87476">
        <time>2021-06-19T08:26:02+0000</time>
      </trkpt>
      <trkpt lat="40.72563" lon="-2.87469">
        <time>2021-06-19T08:26:03+0000</time>
      </trkpt>
      <trkpt lat="40.725680000000004" lon="-2.87462">
        <time>2021-06-19T08:26:04+0000</time>
      </trkpt>
      <trkpt lat="40.725730000000006" lon="-2.87455">
        <time>2021-06-19T08:26:05+0000</time>
      </trkpt>
      <trkpt lat="40.725770000000004" lon="-2.87447">
        <time>2021-06-19T08:26:06+0000</time>
      </trkpt>
      <trkpt lat="40.72579" lon="-2.8743800000000004">
        <time>2021-06-19T08:26:07+0000</time>
      </trkpt>
      <trkpt lat="40.72581" lon="-2.87428">
        <time>2021-06-19T08:26:08+0000</time>
      </trkpt>
      <trkpt lat="40.72581" lon="-2.8741700000000003">
        <time>2021-06-19T08:26:09+0000</time>
      </trkpt>
      <trkpt lat="40.725820000000006" lon="-2.87406">
        <time>2021-06-19T08:26:10+0000</time>
      </trkpt>
      <trkpt lat="40.725840000000005" lon="-2.87394">
        <time>2021-06-19T08:26:11+0000</time>
      </trkpt>
      <trkpt lat="40.7259" lon="-2.8738400000000004">
        <time>2021-06-19T08:26:12+0000</time>
      </trkpt>
      <trkpt lat="40.72599" lon="-2.8737700000000004">
        <time>2021-06-19T08:26:13+0000</time>
      </trkpt>
      <trkpt lat="40.726090000000006" lon="-2.87373">
        <time>2021-06-19T08:26:14+0000</time>
      </trkpt>
      <trkpt lat="40.726200000000006" lon="-2.8737500000000002">
        <time>2021-06-19T08:26:15+0000</time>
      </trkpt>
      <trkpt lat="40.726310000000005" lon="-2.8737600000000003">
        <time>2021-06-19T08:26:16+0000</time>
      </trkpt>
      <trkpt lat="40.72643" lon="-2.87374">
        <time>2021-06-19T08:26:17+0000</time>
      </trkpt>
      <trkpt lat="40.72655" lon="-2.87373">
        <time>2021-06-19T08:26:18+0000</time>
      </trkpt>
      <trkpt lat="40.72666" lon="-2.8737000000000004">
        <time>2021-06-19T08:26:19+0000</time>
      </trkpt>
      <trkpt lat="40.726780000000005" lon="-2.87367">
        <time>2021-06-19T08:26:20+0000</time>
      </trkpt>
      <trkpt lat="40.726890000000004" lon="-2.8737000000000004">
        <time>2021-06-19T08:26:21+0000</time>
      </trkpt>
      <trkpt lat="40.72699" lon="-2.87374">
        <time>2021-06-19T08:26:22+0000</time>
      </trkpt>
      <trkpt lat="40.727090000000004" lon="-2.87381">
        <time>2021-06-19T08:26:23+0000</time>
      </trkpt>
      <trkpt lat="40.72719" lon="-2.87386">
        <time>2021-06-19T08:26:24+0000</time>
      </trkpt>
      <trkpt lat="40.727270000000004" lon="-2.8739100000000004">
        <time>2021-06-19T08:26:25+0000</time>
      </trkpt>
      <trkpt lat="40.72735" lon="-2.8739500000000002">
        <time>2021-06-19T08:26:26+0000</time>
      </trkpt>
      <trkpt lat="40.72742" lon="-2.8739800000000004">
        <time>2021-06-19T08:26:27+0000</time>
      </trkpt>
      <trkpt lat="40.72748" lon="-2.874">
        <time>2021-06-19T08:26:28+0000</time>
      </trkpt>
      <trkpt lat="40.72755" lon="-2.8739800000000004">
        <time>2021-06-19T08:26:29+0000</time>
      </trkpt>
      <trkpt lat="40.727610000000006" lon="-2.8739700000000004">
        <time>2021-06-19T08:26:30+0000</time>
      </trkpt>
      <trkpt lat="40.72767" lon="-2.87393">
        <time>2021-06-19T08:26:31+0000</time>
      </trkpt>
      <trkpt lat="40.727740000000004" lon="-2.87387">
        <time>2021-06-19T08:26:32+0000</time>
      </trkpt>
      <trkpt lat="40.72777000000001" lon="-2.87373">
        <time>2021-06-19T08:26:33+0000</time>
      </trkpt>
      <trkpt lat="40.72775" lon="-2.87358">
        <time>2021-06-19T08:26:34+0000</time>
      </trkpt>
      <trkpt lat="40.72773" lon="-2.8734200000000003">
        <time>2021-06-19T08:26:35+0000</time>
      </trkpt>
      <trkpt lat="40.72771" lon="-2.87324">
        <time>2021-06-19T08:26:36+0000</time>
      </trkpt>
      <trkpt lat="40.72768000000001" lon="-2.87304">
        <time>2021-06-19T08:26:37+0000</time>
      </trkpt>
      <trkpt lat="40.72764" lon="-2.87285">
        <time>2021-06-19T08:26:38+0000</time>
      </trkpt>
      <trkpt lat="40.727590000000006" lon="-2.87266">
        <time>2021-06-19T08:26:39+0000</time>
      </trkpt>
      <trkpt lat="40.727560000000004" lon="-2.8724600000000002">
        <time>2021-06-19T08:26:40+0000</time>
      </trkpt>
      <trkpt lat="40.727540000000005" lon="-2.87225">
        <time>2021-06-19T08:26:41+0000</time>
      </trkpt>
      <trkpt lat="40.727520000000005" lon="-2.8720700000000003">
        <time>2021-06-19T08:26:42+0000</time>
      </trkpt>
      <trkpt lat="40.727500000000006" lon="-2.8719">
        <time>2021-06-19T08:26:43+0000</time>
      </trkpt>
      <trkpt lat="40.727470000000004" lon="-2.8717200000000003">
        <time>2021-06-19T08:26:44+0000</time>
      </trkpt>
      <trkpt lat="40.72735" lon="-2.87157">
        <time>2021-06-19T08:26:45+0000</time>
      </trkpt>
      <trkpt lat="40.727230000000006" lon="-2.87143">
        <time>2021-06-19T08:26:46+0000</time>
      </trkpt>
      <trkpt lat="40.72711" lon="-2.87129">
        <time>2021-06-19T08:26:47+0000</time>
      </trkpt>
      <trkpt lat="40.72699" lon="-2.87117">
        <time>2021-06-19T08:26:48+0000</time>
      </trkpt>
      <trkpt lat="40.726910000000004" lon="-2.8710500000000003">
        <time>2021-06-19T08:26:49+0000</time>
      </trkpt>
      <trkpt lat="40.72684" lon="-2.8709300000000004">
        <time>2021-06-19T08:26:50+0000</time>
      </trkpt>
      <trkpt lat="40.72683000000001" lon="-2.87075">
        <time>2021-06-19T08:26:51+0000</time>
      </trkpt>
      <trkpt lat="40.726850000000006" lon="-2.8705700000000003">
        <time>2021-06-19T08:26:52+0000</time>
      </trkpt>
      <trkpt lat="40.726910000000004" lon="-2.8703800000000004">
        <time>2021-06-19T08:26:53+0000</time>
      </trkpt>
      <trkpt lat="40.72695" lon="-2.8701800000000004">
        <time>2021-06-19T08:26:54+0000</time>
      </trkpt>
      <trkpt lat="40.72699" lon="-2.86999">
        <time>2021-06-19T08:26:55+0000</time>
      </trkpt>
      <trkpt lat="40.726980000000005" lon="-2.8698300000000003">
        <time>2021-06-19T08:26:56+0000</time>
      </trkpt>
      <trkpt lat="40.72695" lon="-2.86965">
        <time>2021-06-19T08:26:57+0000</time>
      </trkpt>
      <trkpt lat="40.72692" lon="-2.8694800000000003">
        <time>2021-06-19T08:26:58+0000</time>
      </trkpt>
      <trkpt lat="40.726890000000004" lon="-2.86931">
        <time>2021-06-19T08:26:59+0000</time>
      </trkpt>
      <trkpt lat="40.726850000000006" lon="-2.86913">
        <time>2021-06-19T08:27:00+0000</time>
      </trkpt>
      <trkpt lat="40.726820000000004" lon="-2.86893">
        <time>2021-06-19T08:27:01+0000</time>
      </trkpt>
      <trkpt lat="40.72679" lon="-2.8687400000000003">
        <time>2021-06-19T08:27:02+0000</time>
      </trkpt>
      <trkpt lat="40.726760000000006" lon="-2.8685500000000004">
        <time>2021-06-19T08:27:03+0000</time>
      </trkpt>
      <trkpt lat="40.72672" lon="-2.86838">
        <time>2021-06-19T08:27:04+0000</time>
      </trkpt>
      <trkpt lat="40.726670000000006" lon="-2.86824">
        <time>2021-06-19T08:27:05+0000</time>
      </trkpt>
      <trkpt lat="40.726600000000005" lon="-2.8681">
        <time>2021-06-19T08:27:06+0000</time>
      </trkpt>
      <trkpt lat="40.726510000000005" lon="-2.86796">
        <time>2021-06-19T08:27:07+0000</time>
      </trkpt>
      <trkpt lat="40.726420000000005" lon="-2.86782">
        <time>2021-06-19T08:27:08+0000</time>
      </trkpt>
      <trkpt lat="40.726350000000004" lon="-2.86771">
        <time>2021-06-19T08:27:09+0000</time>
      </trkpt>
      <trkpt lat="40.72627000000001" lon="-2.86763">
        <time>2021-06-19T08:27:10+0000</time>
      </trkpt>
      <trkpt lat="40.72619" lon="-2.8675400000000004">
        <time>2021-06-19T08:27:11+0000</time>
      </trkpt>
      <trkpt lat="40.72608" lon="-2.8674700000000004">
        <time>2021-06-19T08:27:12+0000</time>
      </trkpt>
      <trkpt lat="40.725950000000005" lon="-2.8674000000000004">
        <time>2021-06-19T08:27:13+0000</time>
      </trkpt>
      <trkpt lat="40.72583" lon="-2.8673300000000004">
        <time>2021-06-19T08:27:14+0000</time>
      </trkpt>
      <trkpt lat="40.72572" lon="-2.8672500000000003">
        <time>2021-06-19T08:27:15+0000</time>
      </trkpt>
      <trkpt lat="40.72563" lon="-2.86716">
        <time>2021-06-19T08:27:16+0000</time>
      </trkpt>
      <trkpt lat="40.72558" lon="-2.8670500000000003">
        <time>2021-06-19T08:27:17+0000</time>
      </trkpt>
      <trkpt lat="40.725530000000006" lon="-2.86695">
        <time>2021-06-19T08:27:18+0000</time>
      </trkpt>
      <trkpt lat="40.72551" lon="-2.86683">
        <time>2021-06-19T08:27:19+0000</time>
      </trkpt>
      <trkpt lat="40.72552" lon="-2.86669">
        <time>2021-06-19T08:27:20+0000</time>
      </trkpt>
      <trkpt lat="40.725570000000005" lon="-2.8665800000000004">
        <time>2021-06-19T08:27:21+0000</time>
      </trkpt>
      <trkpt lat="40.72572" lon="-2.8665200000000004">
        <time>2021-06-19T08:27:22+0000</time>
      </trkpt>
      <trkpt lat="40.725860000000004" lon="-2.8664600000000005">
        <time>2021-06-19T08:27:23+0000</time>
      </trkpt>
      <trkpt lat="40.72598" lon="-2.8663900000000004">
        <time>2021-06-19T08:27:24+0000</time>
      </trkpt>
      <trkpt lat="40.72607" lon="-2.86634">
        <time>2021-06-19T08:27:25+0000</time>
      </trkpt>
      <trkpt lat="40.72617" lon="-2.8662900000000002">
        <time>2021-06-19T08:27:26+0000</time>
      </trkpt>
      <trkpt lat="40.72627000000001" lon="-2.8662400000000003">
        <time>2021-06-19T08:27:27+0000</time>
      </trkpt>
      <trkpt lat="40.726350000000004" lon="-2.86619">
        <time>2021-06-19T08:27:28+0000</time>
      </trkpt>
      <trkpt lat="40.72639" lon="-2.8661000000000003">
        <time>2021-06-19T08:27:29+0000</time>
      </trkpt>
      <trkpt lat="40.726420000000005" lon="-2.8659800000000004">
        <time>2021-06-19T08:27:30+0000</time>
      </trkpt>
      <trkpt lat="40.726400000000005" lon="-2.8658400000000004">
        <time>2021-06-19T08:27:31+0000</time>
      </trkpt>
      <trkpt lat="40.726350000000004" lon="-2.86567">
        <time>2021-06-19T08:27:32+0000</time>
      </trkpt>
      <trkpt lat="40.72627000000001" lon="-2.8655000000000004">
        <time>2021-06-19T08:27:33+0000</time>
      </trkpt>
      <trkpt lat="40.72618000000001" lon="-2.86532">
        <time>2021-06-19T08:27:34+0000</time>
      </trkpt>
      <trkpt lat="40.72608" lon="-2.8651700000000004">
        <time>2021-06-19T08:27:35+0000</time>
      </trkpt>
      <trkpt lat="40.72599" lon="-2.86505">
        <time>2021-06-19T08:27:36+0000</time>
      </trkpt>
      <trkpt lat="40.72592" lon="-2.86493">
        <time>2021-06-19T08:27:37+0000</time>
      </trkpt>
      <trkpt lat="40.72589000000001" lon="-2.8648000000000002">
        <time>2021-06-19T08:27:38+0000</time>
      </trkpt>
      <trkpt lat="40.72589000000001" lon="-2.8646700000000003">
        <time>2021-06-19T08:27:39+0000</time>
      </trkpt>
      <trkpt lat="40.72585" lon="-2.8645500000000004">
        <time>2021-06-19T08:27:40+0000</time>
      </trkpt>
      <trkpt lat="40.725820000000006" lon="-2.86444">
        <time>2021-06-19T08:27:41+0000</time>
      </trkpt>
      <trkpt lat="40.72574" lon="-2.8643400000000003">
        <time>2021-06-19T08:27:42+0000</time>
      </trkpt>
      <trkpt lat="40.72563" lon="-2.86425">
        <time>2021-06-19T08:27:43+0000</time>
      </trkpt>
      <trkpt lat="40.72549" lon="-2.8642100000000004">
        <time>2021-06-19T08:27:44+0000</time>
      </trkpt>
      <trkpt lat="40.725350000000006" lon="-2.8642000000000003">
        <time>2021-06-19T08:27:45+0000</time>
      </trkpt>
      <trkpt lat="40.72524000000001" lon="-2.86423">
        <time>2021-06-19T08:27:46+0000</time>
      </trkpt>
      <trkpt lat="40.72516" lon="-2.8642200000000004">
        <time>2021-06-19T08:27:47+0000</time>
      </trkpt>
      <trkpt lat="40.72509" lon="-2.8642000000000003">
        <time>2021-06-19T08:27:48+0000</time>
      </trkpt>
      <trkpt lat="40.725030000000004" lon="-2.8641400000000004">
        <time>2021-06-19T08:27:49+0000</time>
      </trkpt>
      <trkpt lat="40.72498" lon="-2.86404">
        <time>2021-06-19T08:27:50+0000</time>
      </trkpt>
      <trkpt lat="40.72493" lon="-2.8639200000000002">
        <time>2021-06-19T08:27:51+0000</time>
      </trkpt>
      <trkpt lat="40.72489" lon="-2.8638000000000003">
        <time>2021-06-19T08:27:52+0000</time>
      </trkpt>
      <trkpt lat="40.72487" lon="-2.8636700000000004">
        <time>2021-06-19T08:27:53+0000</time>
      </trkpt>
      <trkpt lat="40.72486000000001" lon="-2.8635400000000004">
        <time>2021-06-19T08:27:54+0000</time>
      </trkpt>
      <trkpt lat="40.724880000000006" lon="-2.8633900000000003">
        <time>2021-06-19T08:27:55+0000</time>
      </trkpt>
      <trkpt lat="40.72489" lon="-2.8632400000000002">
        <time>2021-06-19T08:27:56+0000</time>
      </trkpt>
      <trkpt lat="40.724900000000005" lon="-2.8631">
        <time>2021-06-19T08:27:57+0000</time>
      </trkpt>
      <trkpt lat="40.724900000000005" lon="-2.86294">
        <time>2021-06-19T08:27:58+0000</time>
      </trkpt>
      <trkpt lat="40.724900000000005" lon="-2.8627800000000003">
        <time>2021-06-19T08:27:59+0000</time>
      </trkpt>
      <trkpt lat="40.724900000000005" lon="-2.8626">
        <time>2021-06-19T08:28:00+0000</time>
      </trkpt>
      <trkpt lat="40.72491" lon="-2.8624">
        <time>2021-06-19T08:28:01+0000</time>
      </trkpt>
      <trkpt lat="40.72491" lon="-2.86221">
        <time>2021-06-19T08:28:02+0000</time>
      </trkpt>
      <trkpt lat="40.72491" lon="-2.8620200000000002">
        <time>2021-06-19T08:28:03+0000</time>
      </trkpt>
      <trkpt lat="40.72487" lon="-2.86186">
        <time>2021-06-19T08:28:04+0000</time>
      </trkpt>
      <trkpt lat="40.724830000000004" lon="-2.8617100000000004">
        <time>2021-06-19T08:28:05+0000</time>
      </trkpt>
      <trkpt lat="40.724790000000006" lon="-2.8616">
        <time>2021-06-19T08:28:06+0000</time>
      </trkpt>
      <trkpt lat="40.724740000000004" lon="-2.8614900000000003">
        <time>2021-06-19T08:28:07+0000</time>
      </trkpt>
      <trkpt lat="40.72466" lon="-2.8614100000000002">
        <time>2021-06-19T08:28:08+0000</time>
      </trkpt>
      <trkpt lat="40.724560000000004" lon="-2.8613500000000003">
        <time>2021-06-19T08:28:09+0000</time>
      </trkpt>
      <trkpt lat="40.72444" lon="-2.86131">
        <time>2021-06-19T08:28:10+0000</time>
      </trkpt>
      <trkpt lat="40.72430000000001" lon="-2.8612800000000003">
        <time>2021-06-19T08:28:11+0000</time>
      </trkpt>
      <trkpt lat="40.724140000000006" lon="-2.86127">
        <time>2021-06-19T08:28:12+0000</time>
      </trkpt>
      <trkpt lat="40.723980000000005" lon="-2.86126">
        <time>2021-06-19T08:28:13+0000</time>
      </trkpt>
      <trkpt lat="40.72386" lon="-2.86125">
        <time>2021-06-19T08:28:14+0000</time>
      </trkpt>
      <trkpt lat="40.72375" lon="-2.8612400000000004">
        <time>2021-06-19T08:28:15+0000</time>
      </trkpt>
      <trkpt lat="40.723650000000006" lon="-2.8612300000000004">
        <time>2021-06-19T08:28:16+0000</time>
      </trkpt>
      <trkpt lat="40.72357" lon="-2.8612200000000003">
        <time>2021-06-19T08:28:17+0000</time>
      </trkpt>
      <trkpt lat="40.723490000000005" lon="-2.8612100000000003">
        <time>2021-06-19T08:28:18+0000</time>
      </trkpt>
      <trkpt lat="40.723420000000004" lon="-2.86119">
        <time>2021-06-19T08:28:19+0000</time>
      </trkpt>
      <trkpt lat="40.72336000000001" lon="-2.8611600000000004">
        <time>2021-06-19T08:28:20+0000</time>
      </trkpt>
      <trkpt lat="40.723290000000006" lon="-2.86112">
        <time>2021-06-19T08:28:21+0000</time>
      </trkpt>
      <trkpt lat="40.72321" lon="-2.8610800000000003">
        <time>2021-06-19T08:28:22+0000</time>
      </trkpt>
      <trkpt lat="40.723130000000005" lon="-2.8610100000000003">
        <time>2021-06-19T08:28:23+0000</time>
      </trkpt>
      <trkpt lat="40.723060000000004" lon="-2.86093">
        <time>2021-06-19T08:28:24+0000</time>
      </trkpt>
      <trkpt lat="40.72301" lon="-2.8608200000000004">
        <time>2021-06-19T08:28:25+0000</time>
      </trkpt>
      <trkpt lat="40.723000000000006" lon="-2.86065">
        <time>2021-06-19T08:28:26+0000</time>
      </trkpt>
      <trkpt lat="40.72301" lon="-2.8604600000000002">
        <time>2021-06-19T08:28:27+0000</time>
      </trkpt>
      <trkpt lat="40.723020000000005" lon="-2.8602800000000004">
        <time>2021-06-19T08:28:28+0000</time>
      </trkpt>
      <trkpt lat="40.72299" lon="-2.86009">
        <time>2021-06-19T08:28:29+0000</time>
      </trkpt>
      <trkpt lat="40.722930000000005" lon="-2.8599200000000002">
        <time>2021-06-19T08:28:30+0000</time>
      </trkpt>
      <trkpt lat="40.72289000000001" lon="-2.8597300000000003">
        <time>2021-06-19T08:28:31+0000</time>
      </trkpt>
      <trkpt lat="40.72289000000001" lon="-2.8595400000000004">
        <time>2021-06-19T08:28:32+0000</time>
      </trkpt>
      <trkpt lat="40.7229" lon="-2.85937">
        <time>2021-06-19T08:28:33+0000</time>
      </trkpt>
      <trkpt lat="40.72289000000001" lon="-2.85922">
        <time>2021-06-19T08:28:34+0000</time>
      </trkpt>
      <trkpt lat="40.7229" lon="-2.85908">
        <time>2021-06-19T08:28:35+0000</time>
      </trkpt>
      <trkpt lat="40.72296" lon="-2.8589700000000002">
        <time>2021-06-19T08:28:36+0000</time>
      </trkpt>
      <trkpt lat="40.723040000000005" lon="-2.8588500000000003">
        <time>2021-06-19T08:28:37+0000</time>
      </trkpt>
      <trkpt lat="40.723180000000006" lon="-2.8587900000000004">
        <time>2021-06-19T08:28:38+0000</time>
      </trkpt>
      <trkpt lat="40.723290000000006" lon="-2.8587300000000004">
        <time>2021-06-19T08:28:39+0000</time>
      </trkpt>
      <trkpt lat="40.72335" lon="-2.85862">
        <time>2021-06-19T08:28:40+0000</time>
      </trkpt>
      <trkpt lat="40.72337" lon="-2.8585100000000003">
        <time>2021-06-19T08:28:41+0000</time>
      </trkpt>
      <trkpt lat="40.72335" lon="-2.8583800000000004">
        <time>2021-06-19T08:28:42+0000</time>
      </trkpt>
      <trkpt lat="40.72332" lon="-2.85826">
        <time>2021-06-19T08:28:43+0000</time>
      </trkpt>
      <trkpt lat="40.72327000000001" lon="-2.8581100000000004">
        <time>2021-06-19T08:28:44+0000</time>
      </trkpt>
      <trkpt lat="40.723200000000006" lon="-2.8579700000000003">
        <time>2021-06-19T08:28:45+0000</time>
      </trkpt>
      <trkpt lat="40.72312" lon="-2.8578300000000003">
        <time>2021-06-19T08:28:46+0000</time>
      </trkpt>
      <trkpt lat="40.72305" lon="-2.85772">
        <time>2021-06-19T08:28:47+0000</time>
      </trkpt>
      <trkpt lat="40.722970000000004" lon="-2.8576400000000004">
        <time>2021-06-19T08:28:48+0000</time>
      </trkpt>
      <trkpt lat="40.72288" lon="-2.8575800000000005">
        <time>2021-06-19T08:28:49+0000</time>
      </trkpt>
      <trkpt lat="40.72278" lon="-2.8575700000000004">
        <time>2021-06-19T08:28:50+0000</time>
      </trkpt>
      <trkpt lat="40.72267" lon="-2.8576300000000003">
        <time>2021-06-19T08:28:51+0000</time>
      </trkpt>
      <trkpt lat="40.72256" lon="-2.8577100000000004">
        <time>2021-06-19T08:28:52+0000</time>
      </trkpt>
      <trkpt lat="40.722460000000005" lon="-2.8577600000000003">
        <time>2021-06-19T08:28:53+0000</time>
      </trkpt>
      <trkpt lat="40.722390000000004" lon="-2.8578300000000003">
        <time>2021-06-19T08:28:54+0000</time>
      </trkpt>
      <trkpt lat="40.72231" lon="-2.85786">
        <time>2021-06-19T08:28:55+0000</time>
      </trkpt>
      <trkpt lat="40.72223" lon="-2.8578500000000004">
        <time>2021-06-19T08:28:56+0000</time>
      </trkpt>
      <trkpt lat="40.722150000000006" lon="-2.8578200000000002">
        <time>2021-06-19T08:28:57+0000</time>
      </trkpt>
      <trkpt lat="40.72207" lon="-2.85773">
        <time>2021-06-19T08:28:58+0000</time>
      </trkpt>
      <trkpt lat="40.722" lon="-2.8576">
        <time>2021-06-19T08:28:59+0000</time>
      </trkpt>
      <trkpt lat="40.721920000000004" lon="-2.85746">
        <time>2021-06-19T08:29:00+0000</time>
      </trkpt>
      <trkpt lat="40.72186000000001" lon="-2.85733">
        <time>2021-06-19T08:29:01+0000</time>
      </trkpt>
      <trkpt lat="40.7218" lon="-2.8572200000000003">
        <time>2021-06-19T08:29:02+0000</time>
      </trkpt>
      <trkpt lat="40.721740000000004" lon="-2.85712">
        <time>2021-06-19T08:29:03+0000</time>
      </trkpt>
      <trkpt lat="40.721650000000004" lon="-2.85705">
        <time>2021-06-19T08:29:04+0000</time>
      </trkpt>
      <trkpt lat="40.72155" lon="-2.8570100000000003">
        <time>2021-06-19T08:29:05+0000</time>
      </trkpt>
      <trkpt lat="40.72144" lon="-2.8569600000000004">
        <time>2021-06-19T08:29:06+0000</time>
      </trkpt>
      <trkpt lat="40.72130000000001" lon="-2.85691">
        <time>2021-06-19T08:29:07+0000</time>
      </trkpt>
      <trkpt lat="40.72117" lon="-2.8568700000000002">
        <time>2021-06-19T08:29:08+0000</time>
      </trkpt>
      <trkpt lat="40.72106" lon="-2.8568300000000004">
        <time>2021-06-19T08:29:09+0000</time>
      </trkpt>
      <trkpt lat="40.72095" lon="-2.85679">
        <time>2021-06-19T08:29:10+0000</time>
      </trkpt>
      <trkpt lat="40.72084" lon="-2.8567500000000003">
        <time>2021-06-19T08:29:11+0000</time>
      </trkpt>
      <trkpt lat="40.72073" lon="-2.8567500000000003">
        <time>2021-06-19T08:29:12+0000</time>
      </trkpt>
      <trkpt lat="40.720600000000005" lon="-2.85678">
        <time>2021-06-19T08:29:13+0000</time>
      </trkpt>
      <trkpt lat="40.72045000000001" lon="-2.85678">
        <time>2021-06-19T08:29:14+0000</time>
      </trkpt>
      <trkpt lat="40.7203" lon="-2.8568000000000002">
        <time>2021-06-19T08:29:15+0000</time>
      </trkpt>
      <trkpt lat="40.720150000000004" lon="-2.8568000000000002">
        <time>2021-06-19T08:29:16+0000</time>
      </trkpt>
      <trkpt lat="40.720000000000006" lon="-2.8567500000000003">
        <time>2021-06-19T08:29:17+0000</time>
      </trkpt>
      <trkpt lat="40.71987" lon="-2.85671">
        <time>2021-06-19T08:29:18+0000</time>
      </trkpt>
      <trkpt lat="40.71976" lon="-2.8566800000000003">
        <time>2021-06-19T08:29:19+0000</time>
      </trkpt>
      <trkpt lat="40.719660000000005" lon="-2.85666">
        <time>2021-06-19T08:29:20+0000</time>
      </trkpt>
      <trkpt lat="40.71956" lon="-2.8566100000000003">
        <time>2021-06-19T08:29:21+0000</time>
      </trkpt>
      <trkpt lat="40.71947" lon="-2.8565400000000003">
        <time>2021-06-19T08:29:22+0000</time>
      </trkpt>
      <trkpt lat="40.7194" lon="-2.85644">
        <time>2021-06-19T08:29:23+0000</time>
      </trkpt>
      <trkpt lat="40.71934" lon="-2.8563">
        <time>2021-06-19T08:29:24+0000</time>
      </trkpt>
      <trkpt lat="40.719280000000005" lon="-2.8561300000000003">
        <time>2021-06-19T08:29:25+0000</time>
      </trkpt>
      <trkpt lat="40.71922" lon="-2.8559300000000003">
        <time>2021-06-19T08:29:26+0000</time>
      </trkpt>
      <trkpt lat="40.719150000000006" lon="-2.8557400000000004">
        <time>2021-06-19T08:29:27+0000</time>
      </trkpt>
      <trkpt lat="40.719080000000005" lon="-2.8555400000000004">
        <time>2021-06-19T08:29:28+0000</time>
      </trkpt>
      <trkpt lat="40.718970000000006" lon="-2.8554100000000004">
        <time>2021-06-19T08:29:29+0000</time>
      </trkpt>
      <trkpt lat="40.71885" lon="-2.8552600000000004">
        <time>2021-06-19T08:29:30+0000</time>
      </trkpt>
      <trkpt lat="40.71873" lon="-2.8551">
        <time>2021-06-19T08:29:31+0000</time>
      </trkpt>
      <trkpt lat="40.718630000000005" lon="-2.85495">
        <time>2021-06-19T08:29:32+0000</time>
      </trkpt>
      <trkpt lat="40.71853" lon="-2.85482">
        <time>2021-06-19T08:29:33+0000</time>
      </trkpt>
      <trkpt lat="40.718430000000005" lon="-2.85469">
        <time>2021-06-19T08:29:34+0000</time>
      </trkpt>
      <trkpt lat="40.718340000000005" lon="-2.8545700000000003">
        <time>2021-06-19T08:29:35+0000</time>
      </trkpt>
      <trkpt lat="40.71824" lon="-2.8544400000000003">
        <time>2021-06-19T08:29:36+0000</time>
      </trkpt>
      <trkpt lat="40.71815" lon="-2.8543200000000004">
        <time>2021-06-19T08:29:37+0000</time>
      </trkpt>
      <trkpt lat="40.718050000000005" lon="-2.85422">
        <time>2021-06-19T08:29:38+0000</time>
      </trkpt>
      <trkpt lat="40.71797" lon="-2.8541200000000004">
        <time>2021-06-19T08:29:39+0000</time>
      </trkpt>
      <trkpt lat="40.71788" lon="-2.854">
        <time>2021-06-19T08:29:40+0000</time>
      </trkpt>
      <trkpt lat="40.71781" lon="-2.85388">
        <time>2021-06-19T08:29:41+0000</time>
      </trkpt>
      <trkpt lat="40.71773" lon="-2.8537700000000004">
        <time>2021-06-19T08:29:42+0000</time>
      </trkpt>
      <trkpt lat="40.717650000000006" lon="-2.85365">
        <time>2021-06-19T08:29:43+0000</time>
      </trkpt>
      <trkpt lat="40.717580000000005" lon="-2.85353">
        <time>2021-06-19T08:29:44+0000</time>
      </trkpt>
      <trkpt lat="40.7175" lon="-2.85339">
        <time>2021-06-19T08:29:45+0000</time>
      </trkpt>
      <trkpt lat="40.717400000000005" lon="-2.85327">
        <time>2021-06-19T08:29:46+0000</time>
      </trkpt>
      <trkpt lat="40.71728" lon="-2.85319">
        <time>2021-06-19T08:29:47+0000</time>
      </trkpt>
      <trkpt lat="40.717150000000004" lon="-2.8531600000000004">
        <time>2021-06-19T08:29:48+0000</time>
      </trkpt>
      <trkpt lat="40.71701" lon="-2.8531600000000004">
        <time>2021-06-19T08:29:49+0000</time>
      </trkpt>
      <trkpt lat="40.716860000000004" lon="-2.8531700000000004">
        <time>2021-06-19T08:29:50+0000</time>
      </trkpt>
      <trkpt lat="40.71672" lon="-2.8531700000000004">
        <time>2021-06-19T08:29:51+0000</time>
      </trkpt>
      <trkpt lat="40.71661" lon="-2.8531600000000004">
        <time>2021-06-19T08:29:52+0000</time>
      </trkpt>
      <trkpt lat="40.71651000000001" lon="-2.85313">
        <time>2021-06-19T08:29:53+0000</time>
      </trkpt>
      <trkpt lat="40.716440000000006" lon="-2.85306">
        <time>2021-06-19T08:29:54+0000</time>
      </trkpt>
      <trkpt lat="40.71638" lon="-2.8529500000000003">
        <time>2021-06-19T08:29:55+0000</time>
      </trkpt>
      <trkpt lat="40.71634" lon="-2.8528100000000003">
        <time>2021-06-19T08:29:56+0000</time>
      </trkpt>
      <trkpt lat="40.71631" lon="-2.8526700000000003">
        <time>2021-06-19T08:29:57+0000</time>
      </trkpt>
      <trkpt lat="40.716260000000005" lon="-2.8525300000000002">
        <time>2021-06-19T08:29:58+0000</time>
      </trkpt>
      <trkpt lat="40.7162" lon="-2.85237">
        <time>2021-06-19T08:29:59+0000</time>
      </trkpt>
      <trkpt lat="40.716150000000006" lon="-2.8522000000000003">
        <time>2021-06-19T08:30:00+0000</time>
      </trkpt>
      <trkpt lat="40.71609" lon="-2.85203">
        <time>2021-06-19T08:30:01+0000</time>
      </trkpt>
      <trkpt lat="40.71604000000001" lon="-2.8518700000000003">
        <time>2021-06-19T08:30:02+0000</time>
      </trkpt>
      <trkpt lat="40.716" lon="-2.8517200000000003">
        <time>2021-06-19T08:30:03+0000</time>
      </trkpt>
      <trkpt lat="40.71596" lon="-2.8515900000000003">
        <time>2021-06-19T08:30:04+0000</time>
      </trkpt>
      <trkpt lat="40.71593" lon="-2.8514700000000004">
        <time>2021-06-19T08:30:05+0000</time>
      </trkpt>
      <trkpt lat="40.71589" lon="-2.85135">
        <time>2021-06-19T08:30:06+0000</time>
      </trkpt>
      <trkpt lat="40.71585" lon="-2.8512500000000003">
        <time>2021-06-19T08:30:07+0000</time>
      </trkpt>
      <trkpt lat="40.715770000000006" lon="-2.85116">
        <time>2021-06-19T08:30:08+0000</time>
      </trkpt>
      <trkpt lat="40.715700000000005" lon="-2.8510600000000004">
        <time>2021-06-19T08:30:09+0000</time>
      </trkpt>
      <trkpt lat="40.71564" lon="-2.8509700000000002">
        <time>2021-06-19T08:30:10+0000</time>
      </trkpt>
      <trkpt lat="40.715610000000005" lon="-2.85087">
        <time>2021-06-19T08:30:11+0000</time>
      </trkpt>
      <trkpt lat="40.71562" lon="-2.85075">
        <time>2021-06-19T08:30:12+0000</time>
      </trkpt>
      <trkpt lat="40.71567" lon="-2.8506500000000004">
        <time>2021-06-19T08:30:13+0000</time>
      </trkpt>
      <trkpt lat="40.715770000000006" lon="-2.8505700000000003">
        <time>2021-06-19T08:30:14+0000</time>
      </trkpt>
      <trkpt lat="40.71591" lon="-2.8505200000000004">
        <time>2021-06-19T08:30:15+0000</time>
      </trkpt>
      <trkpt lat="40.716060000000006" lon="-2.8504600000000004">
        <time>2021-06-19T08:30:16+0000</time>
      </trkpt>
      <trkpt lat="40.7162" lon="-2.8503900000000004">
        <time>2021-06-19T08:30:17+0000</time>
      </trkpt>
      <trkpt lat="40.71631" lon="-2.8503100000000003">
        <time>2021-06-19T08:30:18+0000</time>
      </trkpt>
      <trkpt lat="40.71643" lon="-2.85021">
        <time>2021-06-19T08:30:19+0000</time>
      </trkpt>
      <trkpt lat="40.716530000000006" lon="-2.8501200000000004">
        <time>2021-06-19T08:30:20+0000</time>
      </trkpt>
      <trkpt lat="40.716620000000006" lon="-2.85002">
        <time>2021-06-19T08:30:21+0000</time>
      </trkpt>
      <trkpt lat="40.71669" lon="-2.8499200000000005">
        <time>2021-06-19T08:30:22+0000</time>
      </trkpt>
      <trkpt lat="40.716750000000005" lon="-2.8498">
        <time>2021-06-19T08:30:23+0000</time>
      </trkpt>
      <trkpt lat="40.71679" lon="-2.84965">
        <time>2021-06-19T08:30:24+0000</time>
      </trkpt>
      <trkpt lat="40.716820000000006" lon="-2.84947">
        <time>2021-06-19T08:30:25+0000</time>
      </trkpt>
      <trkpt lat="40.716820000000006" lon="-2.8492800000000003">
        <time>2021-06-19T08:30:26+0000</time>
      </trkpt>
      <trkpt lat="40.716820000000006" lon="-2.8490800000000003">
        <time>2021-06-19T08:30:27+0000</time>
      </trkpt>
      <trkpt lat="40.71681" lon="-2.8488800000000003">
        <time>2021-06-19T08:30:28+0000</time>
      </trkpt>
      <trkpt lat="40.71678" lon="-2.8486900000000004">
        <time>2021-06-19T08:30:29+0000</time>
      </trkpt>
      <trkpt lat="40.716730000000005" lon="-2.84852">
        <time>2021-06-19T08:30:30+0000</time>
      </trkpt>
      <trkpt lat="40.716660000000005" lon="-2.8483400000000003">
        <time>2021-06-19T08:30:31+0000</time>
      </trkpt>
      <trkpt lat="40.71660000000001" lon="-2.84816">
        <time>2021-06-19T08:30:32+0000</time>
      </trkpt>
      <trkpt lat="40.716530000000006" lon="-2.8480000000000003">
        <time>2021-06-19T08:30:33+0000</time>
      </trkpt>
      <trkpt lat="40.71647" lon="-2.84784">
        <time>2021-06-19T08:30:34+0000</time>
      </trkpt>
      <trkpt lat="40.71641" lon="-2.8476800000000004">
        <time>2021-06-19T08:30:35+0000</time>
      </trkpt>
      <trkpt lat="40.716350000000006" lon="-2.8475400000000004">
        <time>2021-06-19T08:30:36+0000</time>
      </trkpt>
      <trkpt lat="40.716300000000004" lon="-2.8473900000000003">
        <time>2021-06-19T08:30:37+0000</time>
      </trkpt>
      <trkpt lat="40.716260000000005" lon="-2.84724">
        <time>2021-06-19T08:30:38+0000</time>
      </trkpt>
      <trkpt lat="40.71622" lon="-2.84709">
        <time>2021-06-19T08:30:39+0000</time>
      </trkpt>
      <trkpt lat="40.71618" lon="-2.84695">
        <time>2021-06-19T08:30:40+0000</time>
      </trkpt>
      <trkpt lat="40.716150000000006" lon="-2.84681">
        <time>2021-06-19T08:30:41+0000</time>
      </trkpt>
      <trkpt lat="40.716120000000004" lon="-2.8466600000000004">
        <time>2021-06-19T08:30:42+0000</time>
      </trkpt>
      <trkpt lat="40.71607" lon="-2.8465200000000004">
        <time>2021-06-19T08:30:43+0000</time>
      </trkpt>
      <trkpt lat="40.716" lon="-2.8463900000000004">
        <time>2021-06-19T08:30:44+0000</time>
      </trkpt>
      <trkpt lat="40.715900000000005" lon="-2.8463000000000003">
        <time>2021-06-19T08:30:45+0000</time>
      </trkpt>
      <trkpt lat="40.715790000000005" lon="-2.84622">
        <time>2021-06-19T08:30:46+0000</time>
      </trkpt>
      <trkpt lat="40.71567" lon="-2.8461600000000002">
        <time>2021-06-19T08:30:47+0000</time>
      </trkpt>
      <trkpt lat="40.71555" lon="-2.8460900000000002">
        <time>2021-06-19T08:30:48+0000</time>
      </trkpt>
      <trkpt lat="40.71544" lon="-2.8460300000000003">
        <time>2021-06-19T08:30:49+0000</time>
      </trkpt>
      <trkpt lat="40.715340000000005" lon="-2.8459700000000003">
        <time>2021-06-19T08:30:50+0000</time>
      </trkpt>
      <trkpt lat="40.71526" lon="-2.8458900000000003">
        <time>2021-06-19T08:30:51+0000</time>
      </trkpt>
      <trkpt lat="40.71519000000001" lon="-2.8457800000000004">
        <time>2021-06-19T08:30:52+0000</time>
      </trkpt>
      <trkpt lat="40.715140000000005" lon="-2.84565">
        <time>2021-06-19T08:30:53+0000</time>
      </trkpt>
      <trkpt lat="40.71511" lon="-2.8455100000000004">
        <time>2021-06-19T08:30:54+0000</time>
      </trkpt>
      <trkpt lat="40.71508" lon="-2.84538">
        <time>2021-06-19T08:30:55+0000</time>
      </trkpt>
      <trkpt lat="40.715030000000006" lon="-2.8452400000000004">
        <time>2021-06-19T08:30:56+0000</time>
      </trkpt>
      <trkpt lat="40.71495" lon="-2.84512">
        <time>2021-06-19T08:30:57+0000</time>
      </trkpt>
      <trkpt lat="40.71488" lon="-2.8449700000000004">
        <time>2021-06-19T08:30:58+0000</time>
      </trkpt>
      <trkpt lat="40.71477" lon="-2.84486">
        <time>2021-06-19T08:30:59+0000</time>
      </trkpt>
      <trkpt lat="40.71466" lon="-2.8447400000000003">
        <time>2021-06-19T08:31:00+0000</time>
      </trkpt>
      <trkpt lat="40.71457" lon="-2.8446200000000004">
        <time>2021-06-19T08:31:01+0000</time>
      </trkpt>
      <trkpt lat="40.71446" lon="-2.8445">
        <time>2021-06-19T08:31:02+0000</time>
      </trkpt>
      <trkpt lat="40.714360000000006" lon="-2.8444000000000003">
        <time>2021-06-19T08:31:03+0000</time>
      </trkpt>
      <trkpt lat="40.71425" lon="-2.8443300000000002">
        <time>2021-06-19T08:31:04+0000</time>
      </trkpt>
      <trkpt lat="40.71412" lon="-2.8442800000000004">
        <time>2021-06-19T08:31:05+0000</time>
      </trkpt>
      <trkpt lat="40.714000000000006" lon="-2.84423">
        <time>2021-06-19T08:31:06+0000</time>
      </trkpt>
      <trkpt lat="40.713860000000004" lon="-2.84419">
        <time>2021-06-19T08:31:07+0000</time>
      </trkpt>
      <trkpt lat="40.713730000000005" lon="-2.8441500000000004">
        <time>2021-06-19T08:31:08+0000</time>
      </trkpt>
      <trkpt lat="40.71361" lon="-2.8441">
        <time>2021-06-19T08:31:09+0000</time>
      </trkpt>
      <trkpt lat="40.71349" lon="-2.8440600000000003">
        <time>2021-06-19T08:31:10+0000</time>
      </trkpt>
      <trkpt lat="40.71338" lon="-2.84403">
        <time>2021-06-19T08:31:11+0000</time>
      </trkpt>
      <trkpt lat="40.713280000000005" lon="-2.8439400000000004">
        <time>2021-06-19T08:31:12+0000</time>
      </trkpt>
      <trkpt lat="40.713190000000004" lon="-2.84384">
        <time>2021-06-19T08:31:13+0000</time>
      </trkpt>
      <trkpt lat="40.71312" lon="-2.8437400000000004">
        <time>2021-06-19T08:31:14+0000</time>
      </trkpt>
      <trkpt lat="40.71307" lon="-2.84363">
        <time>2021-06-19T08:31:15+0000</time>
      </trkpt>
      <trkpt lat="40.713010000000004" lon="-2.84355">
        <time>2021-06-19T08:31:16+0000</time>
      </trkpt>
      <trkpt lat="40.71296" lon="-2.8434600000000003">
        <time>2021-06-19T08:31:17+0000</time>
      </trkpt>
      <trkpt lat="40.71291" lon="-2.8433900000000003">
        <time>2021-06-19T08:31:18+0000</time>
      </trkpt>
      <trkpt lat="40.71285" lon="-2.8433200000000003">
        <time>2021-06-19T08:31:19+0000</time>
      </trkpt>
      <trkpt lat="40.71278" lon="-2.8432600000000003">
        <time>2021-06-19T08:31:20+0000</time>
      </trkpt>
      <trkpt lat="40.712680000000006" lon="-2.84321">
        <time>2021-06-19T08:31:21+0000</time>
      </trkpt>
      <trkpt lat="40.71258" lon="-2.8432500000000003">
        <time>2021-06-19T08:31:22+0000</time>
      </trkpt>
      <trkpt lat="40.712450000000004" lon="-2.84329">
        <time>2021-06-19T08:31:23+0000</time>
      </trkpt>
      <trkpt lat="40.712320000000005" lon="-2.84336">
        <time>2021-06-19T08:31:24+0000</time>
      </trkpt>
      <trkpt lat="40.7122" lon="-2.84342">
        <time>2021-06-19T08:31:25+0000</time>
      </trkpt>
      <trkpt lat="40.71208" lon="-2.8434700000000004">
        <time>2021-06-19T08:31:26+0000</time>
      </trkpt>
      <trkpt lat="40.711980000000004" lon="-2.84351">
        <time>2021-06-19T08:31:27+0000</time>
      </trkpt>
      <trkpt lat="40.71188" lon="-2.84355">
        <time>2021-06-19T08:31:28+0000</time>
      </trkpt>
      <trkpt lat="40.71179" lon="-2.84358">
        <time>2021-06-19T08:31:29+0000</time>
      </trkpt>
      <trkpt lat="40.711690000000004" lon="-2.84358">
        <time>2021-06-19T08:31:30+0000</time>
      </trkpt>
      <trkpt lat="40.71159" lon="-2.84355">
        <time>2021-06-19T08:31:31+0000</time>
      </trkpt>
      <trkpt lat="40.711490000000005" lon="-2.84344">
        <time>2021-06-19T08:31:32+0000</time>
      </trkpt>
      <trkpt lat="40.711400000000005" lon="-2.8433300000000004">
        <time>2021-06-19T08:31:33+0000</time>
      </trkpt>
      <trkpt lat="40.71132" lon="-2.84322">
        <time>2021-06-19T08:31:34+0000</time>
      </trkpt>
      <trkpt lat="40.71126" lon="-2.8431100000000002">
        <time>2021-06-19T08:31:35+0000</time>
      </trkpt>
      <trkpt lat="40.71123" lon="-2.84301">
        <time>2021-06-19T08:31:36+0000</time>
      </trkpt>
      <trkpt lat="40.711220000000004" lon="-2.8429">
        <time>2021-06-19T08:31:37+0000</time>
      </trkpt>
      <trkpt lat="40.71125000000001" lon="-2.8428000000000004">
        <time>2021-06-19T08:31:38+0000</time>
      </trkpt>
      <trkpt lat="40.711360000000006" lon="-2.8427100000000003">
        <time>2021-06-19T08:31:39+0000</time>
      </trkpt>
      <trkpt lat="40.711470000000006" lon="-2.8426600000000004">
        <time>2021-06-19T08:31:40+0000</time>
      </trkpt>
      <trkpt lat="40.711580000000005" lon="-2.8425900000000004">
        <time>2021-06-19T08:31:41+0000</time>
      </trkpt>
      <trkpt lat="40.711690000000004" lon="-2.8425200000000004">
        <time>2021-06-19T08:31:42+0000</time>
      </trkpt>
      <trkpt lat="40.71179" lon="-2.8424400000000003">
        <time>2021-06-19T08:31:43+0000</time>
      </trkpt>
      <trkpt lat="40.71186" lon="-2.84234">
        <time>2021-06-19T08:31:44+0000</time>
      </trkpt>
      <trkpt lat="40.71188" lon="-2.8421800000000004">
        <time>2021-06-19T08:31:45+0000</time>
      </trkpt>
      <trkpt lat="40.711870000000005" lon="-2.84202">
        <time>2021-06-19T08:31:46+0000</time>
      </trkpt>
      <trkpt lat="40.71181" lon="-2.8418500000000004">
        <time>2021-06-19T08:31:47+0000</time>
      </trkpt>
      <trkpt lat="40.71175" lon="-2.84168">
        <time>2021-06-19T08:31:48+0000</time>
      </trkpt>
      <trkpt lat="40.71168" lon="-2.8415000000000004">
        <time>2021-06-19T08:31:49+0000</time>
      </trkpt>
      <trkpt lat="40.71161" lon="-2.84134">
        <time>2021-06-19T08:31:50+0000</time>
      </trkpt>
      <trkpt lat="40.71155" lon="-2.8412">
        <time>2021-06-19T08:31:51+0000</time>
      </trkpt>
      <trkpt lat="40.711510000000004" lon="-2.84106">
        <time>2021-06-19T08:31:52+0000</time>
      </trkpt>
      <trkpt lat="40.711470000000006" lon="-2.8409400000000002">
        <time>2021-06-19T08:31:53+0000</time>
      </trkpt>
      <trkpt lat="40.71143" lon="-2.8408300000000004">
        <time>2021-06-19T08:31:54+0000</time>
      </trkpt>
      <trkpt lat="40.711400000000005" lon="-2.84071">
        <time>2021-06-19T08:31:55+0000</time>
      </trkpt>
      <trkpt lat="40.71135" lon="-2.84059">
        <time>2021-06-19T08:31:56+0000</time>
      </trkpt>
      <trkpt lat="40.7113" lon="-2.8404800000000003">
        <time>2021-06-19T08:31:57+0000</time>
      </trkpt>
      <trkpt lat="40.711220000000004" lon="-2.84037">
        <time>2021-06-19T08:31:58+0000</time>
      </trkpt>
      <trkpt lat="40.71112" lon="-2.8402700000000003">
        <time>2021-06-19T08:31:59+0000</time>
      </trkpt>
      <trkpt lat="40.71101" lon="-2.84018">
        <time>2021-06-19T08:32:00+0000</time>
      </trkpt>
      <trkpt lat="40.71088" lon="-2.8401">
        <time>2021-06-19T08:32:01+0000</time>
      </trkpt>
      <trkpt lat="40.710770000000004" lon="-2.8400200000000004">
        <time>2021-06-19T08:32:02+0000</time>
      </trkpt>
      <trkpt lat="40.71068" lon="-2.8399300000000003">
        <time>2021-06-19T08:32:03+0000</time>
      </trkpt>
      <trkpt lat="40.71059" lon="-2.83984">
        <time>2021-06-19T08:32:04+0000</time>
      </trkpt>
      <trkpt lat="40.710510000000006" lon="-2.83976">
        <time>2021-06-19T08:32:05+0000</time>
      </trkpt>
      <trkpt lat="40.710440000000006" lon="-2.8396800000000004">
        <time>2021-06-19T08:32:06+0000</time>
      </trkpt>
      <trkpt lat="40.71036" lon="-2.8396000000000003">
        <time>2021-06-19T08:32:07+0000</time>
      </trkpt>
      <trkpt lat="40.710300000000004" lon="-2.8395300000000003">
        <time>2021-06-19T08:32:08+0000</time>
      </trkpt>
      <trkpt lat="40.710240000000006" lon="-2.8394100000000004">
        <time>2021-06-19T08:32:09+0000</time>
      </trkpt>
      <trkpt lat="40.710170000000005" lon="-2.8393">
        <time>2021-06-19T08:32:10+0000</time>
      </trkpt>
      <trkpt lat="40.710100000000004" lon="-2.83917">
        <time>2021-06-19T08:32:11+0000</time>
      </trkpt>
      <trkpt lat="40.71002" lon="-2.8390400000000002">
        <time>2021-06-19T08:32:12+0000</time>
      </trkpt>
      <trkpt lat="40.70994" lon="-2.8389100000000003">
        <time>2021-06-19T08:32:13+0000</time>
      </trkpt>
      <trkpt lat="40.709860000000006" lon="-2.8387700000000002">
        <time>2021-06-19T08:32:14+0000</time>
      </trkpt>
      <trkpt lat="40.70978" lon="-2.83863">
        <time>2021-06-19T08:32:15+0000</time>
      </trkpt>
      <trkpt lat="40.70971" lon="-2.83849">
        <time>2021-06-19T08:32:16+0000</time>
      </trkpt>
      <trkpt lat="40.709630000000004" lon="-2.83836">
        <time>2021-06-19T08:32:17+0000</time>
      </trkpt>
      <trkpt lat="40.70956" lon="-2.83822">
        <time>2021-06-19T08:32:18+0000</time>
      </trkpt>
      <trkpt lat="40.709480000000006" lon="-2.83808">
        <time>2021-06-19T08:32:19+0000</time>
      </trkpt>
      <trkpt lat="40.7094" lon="-2.83794">
        <time>2021-06-19T08:32:20+0000</time>
      </trkpt>
      <trkpt lat="40.70933" lon="-2.83781">
        <time>2021-06-19T08:32:21+0000</time>
      </trkpt>
      <trkpt lat="40.709250000000004" lon="-2.83767">
        <time>2021-06-19T08:32:22+0000</time>
      </trkpt>
      <trkpt lat="40.70917" lon="-2.83753">
        <time>2021-06-19T08:32:23+0000</time>
      </trkpt>
      <trkpt lat="40.70910000000001" lon="-2.8374">
        <time>2021-06-19T08:32:24+0000</time>
      </trkpt>
      <trkpt lat="40.70902" lon="-2.83726">
        <time>2021-06-19T08:32:25+0000</time>
      </trkpt>
      <trkpt lat="40.708940000000005" lon="-2.83712">
        <time>2021-06-19T08:32:26+0000</time>
      </trkpt>
      <trkpt lat="40.708850000000005" lon="-2.8369700000000004">
        <time>2021-06-19T08:32:27+0000</time>
      </trkpt>
      <trkpt lat="40.708760000000005" lon="-2.8368100000000003">
        <time>2021-06-19T08:32:28+0000</time>
      </trkpt>
      <trkpt lat="40.708670000000005" lon="-2.83664">
        <time>2021-06-19T08:32:29+0000</time>
      </trkpt>
      <trkpt lat="40.70857" lon="-2.8364700000000003">
        <time>2021-06-19T08:32:30+0000</time>
      </trkpt>
      <trkpt lat="40.708470000000005" lon="-2.8362900000000004">
        <time>2021-06-19T08:32:31+0000</time>
      </trkpt>
      <trkpt lat="40.708360000000006" lon="-2.8360900000000004">
        <time>2021-06-19T08:32:32+0000</time>
      </trkpt>
      <trkpt lat="40.70826" lon="-2.8359">
        <time>2021-06-19T08:32:33+0000</time>
      </trkpt>
      <trkpt lat="40.70815" lon="-2.8357200000000002">
        <time>2021-06-19T08:32:34+0000</time>
      </trkpt>
      <trkpt lat="40.70805" lon="-2.8355300000000003">
        <time>2021-06-19T08:32:35+0000</time>
      </trkpt>
      <trkpt lat="40.70796" lon="-2.83535">
        <time>2021-06-19T08:32:36+0000</time>
      </trkpt>
      <trkpt lat="40.707860000000004" lon="-2.83517">
        <time>2021-06-19T08:32:37+0000</time>
      </trkpt>
      <trkpt lat="40.70776" lon="-2.8349900000000003">
        <time>2021-06-19T08:32:38+0000</time>
      </trkpt>
      <trkpt lat="40.707660000000004" lon="-2.83481">
        <time>2021-06-19T08:32:39+0000</time>
      </trkpt>
      <trkpt lat="40.707550000000005" lon="-2.83463">
        <time>2021-06-19T08:32:40+0000</time>
      </trkpt>
      <trkpt lat="40.707460000000005" lon="-2.8344500000000004">
        <time>2021-06-19T08:32:41+0000</time>
      </trkpt>
      <trkpt lat="40.70736" lon="-2.83427">
        <time>2021-06-19T08:32:42+0000</time>
      </trkpt>
      <trkpt lat="40.707260000000005" lon="-2.8341000000000003">
        <time>2021-06-19T08:32:43+0000</time>
      </trkpt>
      <trkpt lat="40.70716" lon="-2.83393">
        <time>2021-06-19T08:32:44+0000</time>
      </trkpt>
      <trkpt lat="40.70707" lon="-2.8337600000000003">
        <time>2021-06-19T08:32:45+0000</time>
      </trkpt>
      <trkpt lat="40.70698" lon="-2.8335800000000004">
        <time>2021-06-19T08:32:46+0000</time>
      </trkpt>
      <trkpt lat="40.706880000000005" lon="-2.8334">
        <time>2021-06-19T08:32:47+0000</time>
      </trkpt>
      <trkpt lat="40.70678" lon="-2.8332200000000003">
        <time>2021-06-19T08:32:48+0000</time>
      </trkpt>
      <trkpt lat="40.70667" lon="-2.8330200000000003">
        <time>2021-06-19T08:32:49+0000</time>
      </trkpt>
      <trkpt lat="40.70656" lon="-2.8328200000000003">
        <time>2021-06-19T08:32:50+0000</time>
      </trkpt>
      <trkpt lat="40.70644" lon="-2.8326100000000003">
        <time>2021-06-19T08:32:51+0000</time>
      </trkpt>
      <trkpt lat="40.70633" lon="-2.8324000000000003">
        <time>2021-06-19T08:32:52+0000</time>
      </trkpt>
      <trkpt lat="40.706210000000006" lon="-2.8322000000000003">
        <time>2021-06-19T08:32:53+0000</time>
      </trkpt>
      <trkpt lat="40.70608" lon="-2.8320000000000003">
        <time>2021-06-19T08:32:54+0000</time>
      </trkpt>
      <trkpt lat="40.70597" lon="-2.8318100000000004">
        <time>2021-06-19T08:32:55+0000</time>
      </trkpt>
      <trkpt lat="40.70586" lon="-2.8316100000000004">
        <time>2021-06-19T08:32:56+0000</time>
      </trkpt>
      <trkpt lat="40.705760000000005" lon="-2.83143">
        <time>2021-06-19T08:32:57+0000</time>
      </trkpt>
      <trkpt lat="40.705650000000006" lon="-2.83123">
        <time>2021-06-19T08:32:58+0000</time>
      </trkpt>
      <trkpt lat="40.705540000000006" lon="-2.8310400000000002">
        <time>2021-06-19T08:32:59+0000</time>
      </trkpt>
      <trkpt lat="40.70543" lon="-2.8308500000000003">
        <time>2021-06-19T08:33:00+0000</time>
      </trkpt>
      <trkpt lat="40.70532" lon="-2.8306500000000003">
        <time>2021-06-19T08:33:01+0000</time>
      </trkpt>
      <trkpt lat="40.70521" lon="-2.8304500000000004">
        <time>2021-06-19T08:33:02+0000</time>
      </trkpt>
      <trkpt lat="40.7051" lon="-2.8302600000000004">
        <time>2021-06-19T08:33:03+0000</time>
      </trkpt>
      <trkpt lat="40.70499" lon="-2.83007">
        <time>2021-06-19T08:33:04+0000</time>
      </trkpt>
      <trkpt lat="40.704890000000006" lon="-2.82988">
        <time>2021-06-19T08:33:05+0000</time>
      </trkpt>
      <trkpt lat="40.70477" lon="-2.8296900000000003">
        <time>2021-06-19T08:33:06+0000</time>
      </trkpt>
      <trkpt lat="40.704660000000004" lon="-2.8294900000000003">
        <time>2021-06-19T08:33:07+0000</time>
      </trkpt>
      <trkpt lat="40.704550000000005" lon="-2.8292900000000003">
        <time>2021-06-19T08:33:08+0000</time>
      </trkpt>
      <trkpt lat="40.704440000000005" lon="-2.82911">
        <time>2021-06-19T08:33:09+0000</time>
      </trkpt>
      <trkpt lat="40.704350000000005" lon="-2.8289400000000002">
        <time>2021-06-19T08:33:10+0000</time>
      </trkpt>
      <trkpt lat="40.704260000000005" lon="-2.82878">
        <time>2021-06-19T08:33:11+0000</time>
      </trkpt>
      <trkpt lat="40.704190000000004" lon="-2.82865">
        <time>2021-06-19T08:33:12+0000</time>
      </trkpt>
      <trkpt lat="40.70411" lon="-2.82852">
        <time>2021-06-19T08:33:13+0000</time>
      </trkpt>
      <trkpt lat="40.704040000000006" lon="-2.8284000000000002">
        <time>2021-06-19T08:33:14+0000</time>
      </trkpt>
      <trkpt lat="40.70396" lon="-2.8282800000000003">
        <time>2021-06-19T08:33:15+0000</time>
      </trkpt>
      <trkpt lat="40.70389" lon="-2.8281600000000005">
        <time>2021-06-19T08:33:16+0000</time>
      </trkpt>
      <trkpt lat="40.70382" lon="-2.82803">
        <time>2021-06-19T08:33:17+0000</time>
      </trkpt>
      <trkpt lat="40.70375000000001" lon="-2.82791">
        <time>2021-06-19T08:33:18+0000</time>
      </trkpt>
      <trkpt lat="40.70367" lon="-2.82778">
        <time>2021-06-19T08:33:19+0000</time>
      </trkpt>
      <trkpt lat="40.703590000000005" lon="-2.82764">
        <time>2021-06-19T08:33:20+0000</time>
      </trkpt>
      <trkpt lat="40.70351" lon="-2.82749">
        <time>2021-06-19T08:33:21+0000</time>
      </trkpt>
      <trkpt lat="40.70342" lon="-2.8273300000000003">
        <time>2021-06-19T08:33:22+0000</time>
      </trkpt>
      <trkpt lat="40.703320000000005" lon="-2.82717">
        <time>2021-06-19T08:33:23+0000</time>
      </trkpt>
      <trkpt lat="40.703230000000005" lon="-2.8270000000000004">
        <time>2021-06-19T08:33:24+0000</time>
      </trkpt>
      <trkpt lat="40.703140000000005" lon="-2.8268400000000002">
        <time>2021-06-19T08:33:25+0000</time>
      </trkpt>
      <trkpt lat="40.703050000000005" lon="-2.82669">
        <time>2021-06-19T08:33:26+0000</time>
      </trkpt>
      <trkpt lat="40.70297" lon="-2.82654">
        <time>2021-06-19T08:33:27+0000</time>
      </trkpt>
      <trkpt lat="40.702890000000004" lon="-2.8263900000000004">
        <time>2021-06-19T08:33:28+0000</time>
      </trkpt>
      <trkpt lat="40.70281000000001" lon="-2.8262400000000003">
        <time>2021-06-19T08:33:29+0000</time>
      </trkpt>
      <trkpt lat="40.70271" lon="-2.82608">
        <time>2021-06-19T08:33:30+0000</time>
      </trkpt>
      <trkpt lat="40.702630000000006" lon="-2.8259200000000004">
        <time>2021-06-19T08:33:31+0000</time>
      </trkpt>
      <trkpt lat="40.702540000000006" lon="-2.8257600000000003">
        <time>2021-06-19T08:33:32+0000</time>
      </trkpt>
      <trkpt lat="40.702450000000006" lon="-2.82559">
        <time>2021-06-19T08:33:33+0000</time>
      </trkpt>
      <trkpt lat="40.70237" lon="-2.8254200000000003">
        <time>2021-06-19T08:33:34+0000</time>
      </trkpt>
      <trkpt lat="40.70228" lon="-2.82526">
        <time>2021-06-19T08:33:35+0000</time>
      </trkpt>
      <trkpt lat="40.70219" lon="-2.82511">
        <time>2021-06-19T08:33:36+0000</time>
      </trkpt>
      <trkpt lat="40.7021" lon="-2.8249500000000003">
        <time>2021-06-19T08:33:37+0000</time>
      </trkpt>
      <trkpt lat="40.702020000000005" lon="-2.82479">
        <time>2021-06-19T08:33:38+0000</time>
      </trkpt>
      <trkpt lat="40.701930000000004" lon="-2.8246300000000004">
        <time>2021-06-19T08:33:39+0000</time>
      </trkpt>
      <trkpt lat="40.701840000000004" lon="-2.8244700000000003">
        <time>2021-06-19T08:33:40+0000</time>
      </trkpt>
      <trkpt lat="40.701750000000004" lon="-2.82431">
        <time>2021-06-19T08:33:41+0000</time>
      </trkpt>
      <trkpt lat="40.70167" lon="-2.82417">
        <time>2021-06-19T08:33:42+0000</time>
      </trkpt>
      <trkpt lat="40.701600000000006" lon="-2.82403">
        <time>2021-06-19T08:33:43+0000</time>
      </trkpt>
      <trkpt lat="40.70152" lon="-2.82389">
        <time>2021-06-19T08:33:44+0000</time>
      </trkpt>
      <trkpt lat="40.70143" lon="-2.8237300000000003">
        <time>2021-06-19T08:33:45+0000</time>
      </trkpt>
      <trkpt lat="40.70134" lon="-2.82356">
        <time>2021-06-19T08:33:46+0000</time>
      </trkpt>
      <trkpt lat="40.70125" lon="-2.8233900000000003">
        <time>2021-06-19T08:33:47+0000</time>
      </trkpt>
      <trkpt lat="40.70114" lon="-2.8232100000000004">
        <time>2021-06-19T08:33:48+0000</time>
      </trkpt>
      <trkpt lat="40.70103" lon="-2.82301">
        <time>2021-06-19T08:33:49+0000</time>
      </trkpt>
      <trkpt lat="40.70094" lon="-2.82282">
        <time>2021-06-19T08:33:50+0000</time>
      </trkpt>
      <trkpt lat="40.70084000000001" lon="-2.8226500000000003">
        <time>2021-06-19T08:33:51+0000</time>
      </trkpt>
      <trkpt lat="40.700750000000006" lon="-2.82249">
        <time>2021-06-19T08:33:52+0000</time>
      </trkpt>
      <trkpt lat="40.70067" lon="-2.82234">
        <time>2021-06-19T08:33:53+0000</time>
      </trkpt>
      <trkpt lat="40.700590000000005" lon="-2.8222">
        <time>2021-06-19T08:33:54+0000</time>
      </trkpt>
      <trkpt lat="40.70051" lon="-2.82207">
        <time>2021-06-19T08:33:55+0000</time>
      </trkpt>
      <trkpt lat="40.70042" lon="-2.8219600000000002">
        <time>2021-06-19T08:33:56+0000</time>
      </trkpt>
      <trkpt lat="40.700340000000004" lon="-2.82182">
        <time>2021-06-19T08:33:57+0000</time>
      </trkpt>
      <trkpt lat="40.70026" lon="-2.82168">
        <time>2021-06-19T08:33:58+0000</time>
      </trkpt>
      <trkpt lat="40.70017" lon="-2.82153">
        <time>2021-06-19T08:33:59+0000</time>
      </trkpt>
      <trkpt lat="40.70008" lon="-2.8213600000000003">
        <time>2021-06-19T08:34:00+0000</time>
      </trkpt>
      <trkpt lat="40.69999000000001" lon="-2.8212">
        <time>2021-06-19T08:34:01+0000</time>
      </trkpt>
      <trkpt lat="40.69989" lon="-2.8210400000000004">
        <time>2021-06-19T08:34:02+0000</time>
      </trkpt>
      <trkpt lat="40.6998" lon="-2.82086">
        <time>2021-06-19T08:34:03+0000</time>
      </trkpt>
      <trkpt lat="40.6997" lon="-2.8206900000000004">
        <time>2021-06-19T08:34:04+0000</time>
      </trkpt>
      <trkpt lat="40.699600000000004" lon="-2.82051">
        <time>2021-06-19T08:34:05+0000</time>
      </trkpt>
      <trkpt lat="40.699510000000004" lon="-2.8203500000000004">
        <time>2021-06-19T08:34:06+0000</time>
      </trkpt>
      <trkpt lat="40.69942" lon="-2.82018">
        <time>2021-06-19T08:34:07+0000</time>
      </trkpt>
      <trkpt lat="40.69933" lon="-2.8200200000000004">
        <time>2021-06-19T08:34:08+0000</time>
      </trkpt>
      <trkpt lat="40.699250000000006" lon="-2.8198700000000003">
        <time>2021-06-19T08:34:09+0000</time>
      </trkpt>
      <trkpt lat="40.69917" lon="-2.8197400000000004">
        <time>2021-06-19T08:34:10+0000</time>
      </trkpt>
      <trkpt lat="40.699090000000005" lon="-2.8196100000000004">
        <time>2021-06-19T08:34:11+0000</time>
      </trkpt>
      <trkpt lat="40.69901" lon="-2.8195">
        <time>2021-06-19T08:34:12+0000</time>
      </trkpt>
      <trkpt lat="40.6989" lon="-2.8194500000000002">
        <time>2021-06-19T08:34:13+0000</time>
      </trkpt>
      <trkpt lat="40.69877" lon="-2.81944">
        <time>2021-06-19T08:34:14+0000</time>
      </trkpt>
      <trkpt lat="40.698640000000005" lon="-2.8194700000000004">
        <time>2021-06-19T08:34:15+0000</time>
      </trkpt>
      <trkpt lat="40.69849000000001" lon="-2.81951">
        <time>2021-06-19T08:34:16+0000</time>
      </trkpt>
      <trkpt lat="40.698330000000006" lon="-2.81957">
        <time>2021-06-19T08:34:17+0000</time>
      </trkpt>
      <trkpt lat="40.698170000000005" lon="-2.81963">
        <time>2021-06-19T08:34:18+0000</time>
      </trkpt>
      <trkpt lat="40.698" lon="-2.81969">
        <time>2021-06-19T08:34:19+0000</time>
      </trkpt>
      <trkpt lat="40.69782" lon="-2.81976">
        <time>2021-06-19T08:34:20+0000</time>
      </trkpt>
      <trkpt lat="40.69764" lon="-2.8198100000000004">
        <time>2021-06-19T08:34:21+0000</time>
      </trkpt>
      <trkpt lat="40.69746000000001" lon="-2.8198700000000003">
        <time>2021-06-19T08:34:22+0000</time>
      </trkpt>
      <trkpt lat="40.697300000000006" lon="-2.8199300000000003">
        <time>2021-06-19T08:34:23+0000</time>
      </trkpt>
      <trkpt lat="40.697140000000005" lon="-2.81997">
        <time>2021-06-19T08:34:24+0000</time>
      </trkpt>
      <trkpt lat="40.69698" lon="-2.8200000000000003">
        <time>2021-06-19T08:34:25+0000</time>
      </trkpt>
      <trkpt lat="40.69682" lon="-2.81998">
        <time>2021-06-19T08:34:26+0000</time>
      </trkpt>
      <trkpt lat="40.696670000000005" lon="-2.8199300000000003">
        <time>2021-06-19T08:34:27+0000</time>
      </trkpt>
      <trkpt lat="40.69651" lon="-2.81984">
        <time>2021-06-19T08:34:28+0000</time>
      </trkpt>
      <trkpt lat="40.696360000000006" lon="-2.81976">
        <time>2021-06-19T08:34:29+0000</time>
      </trkpt>
      <trkpt lat="40.696200000000005" lon="-2.8196600000000003">
        <time>2021-06-19T08:34:30+0000</time>
      </trkpt>
      <trkpt lat="40.69606" lon="-2.81956">
        <time>2021-06-19T08:34:31+0000</time>
      </trkpt>
      <trkpt lat="40.695910000000005" lon="-2.8194600000000003">
        <time>2021-06-19T08:34:32+0000</time>
      </trkpt>
      <trkpt lat="40.69576" lon="-2.81936">
        <time>2021-06-19T08:34:33+0000</time>
      </trkpt>
      <trkpt lat="40.695620000000005" lon="-2.8192600000000003">
        <time>2021-06-19T08:34:34+0000</time>
      </trkpt>
      <trkpt lat="40.69549000000001" lon="-2.81917">
        <time>2021-06-19T08:34:35+0000</time>
      </trkpt>
      <trkpt lat="40.69536" lon="-2.81908">
        <time>2021-06-19T08:34:36+0000</time>
      </trkpt>
      <trkpt lat="40.69523" lon="-2.8189900000000003">
        <time>2021-06-19T08:34:37+0000</time>
      </trkpt>
      <trkpt lat="40.69511000000001" lon="-2.8189">
        <time>2021-06-19T08:34:38+0000</time>
      </trkpt>
      <trkpt lat="40.69498" lon="-2.81881">
        <time>2021-06-19T08:34:39+0000</time>
      </trkpt>
      <trkpt lat="40.694860000000006" lon="-2.8187200000000003">
        <time>2021-06-19T08:34:40+0000</time>
      </trkpt>
      <trkpt lat="40.694720000000004" lon="-2.81863">
        <time>2021-06-19T08:34:41+0000</time>
      </trkpt>
      <trkpt lat="40.694590000000005" lon="-2.8185200000000004">
        <time>2021-06-19T08:34:42+0000</time>
      </trkpt>
      <trkpt lat="40.694430000000004" lon="-2.81842">
        <time>2021-06-19T08:34:43+0000</time>
      </trkpt>
      <trkpt lat="40.694280000000006" lon="-2.8183100000000003">
        <time>2021-06-19T08:34:44+0000</time>
      </trkpt>
      <trkpt lat="40.69411" lon="-2.8182">
        <time>2021-06-19T08:34:45+0000</time>
      </trkpt>
      <trkpt lat="40.69393" lon="-2.81808">
        <time>2021-06-19T08:34:46+0000</time>
      </trkpt>
      <trkpt lat="40.693760000000005" lon="-2.8179600000000002">
        <time>2021-06-19T08:34:47+0000</time>
      </trkpt>
      <trkpt lat="40.6936" lon="-2.8178500000000004">
        <time>2021-06-19T08:34:48+0000</time>
      </trkpt>
      <trkpt lat="40.69344" lon="-2.81773">
        <time>2021-06-19T08:34:49+0000</time>
      </trkpt>
      <trkpt lat="40.69328" lon="-2.8176200000000002">
        <time>2021-06-19T08:34:50+0000</time>
      </trkpt>
      <trkpt lat="40.69312" lon="-2.8175000000000003">
        <time>2021-06-19T08:34:51+0000</time>
      </trkpt>
      <trkpt lat="40.69295" lon="-2.81739">
        <time>2021-06-19T08:34:52+0000</time>
      </trkpt>
      <trkpt lat="40.692780000000006" lon="-2.81727">
        <time>2021-06-19T08:34:53+0000</time>
      </trkpt>
      <trkpt lat="40.692620000000005" lon="-2.8171600000000003">
        <time>2021-06-19T08:34:54+0000</time>
      </trkpt>
      <trkpt lat="40.692460000000004" lon="-2.8170400000000004">
        <time>2021-06-19T08:34:55+0000</time>
      </trkpt>
      <trkpt lat="40.692310000000006" lon="-2.81694">
        <time>2021-06-19T08:34:56+0000</time>
      </trkpt>
      <trkpt lat="40.692150000000005" lon="-2.8168300000000004">
        <time>2021-06-19T08:34:57+0000</time>
      </trkpt>
      <trkpt lat="40.69201" lon="-2.81672">
        <time>2021-06-19T08:34:58+0000</time>
      </trkpt>
      <trkpt lat="40.691860000000005" lon="-2.8166200000000003">
        <time>2021-06-19T08:34:59+0000</time>
      </trkpt>
      <trkpt lat="40.69171" lon="-2.81651">
        <time>2021-06-19T08:35:00+0000</time>
      </trkpt>
      <trkpt lat="40.69155000000001" lon="-2.8164000000000002">
        <time>2021-06-19T08:35:01+0000</time>
      </trkpt>
      <trkpt lat="40.691390000000006" lon="-2.8162900000000004">
        <time>2021-06-19T08:35:02+0000</time>
      </trkpt>
      <trkpt lat="40.691230000000004" lon="-2.81618">
        <time>2021-06-19T08:35:03+0000</time>
      </trkpt>
      <trkpt lat="40.69107" lon="-2.8160600000000002">
        <time>2021-06-19T08:35:04+0000</time>
      </trkpt>
      <trkpt lat="40.690920000000006" lon="-2.81596">
        <time>2021-06-19T08:35:05+0000</time>
      </trkpt>
      <trkpt lat="40.69077" lon="-2.8158600000000003">
        <time>2021-06-19T08:35:06+0000</time>
      </trkpt>
      <trkpt lat="40.690630000000006" lon="-2.81576">
        <time>2021-06-19T08:35:07+0000</time>
      </trkpt>
      <trkpt lat="40.69048" lon="-2.81565">
        <time>2021-06-19T08:35:08+0000</time>
      </trkpt>
      <trkpt lat="40.69033" lon="-2.8155500000000004">
        <time>2021-06-19T08:35:09+0000</time>
      </trkpt>
      <trkpt lat="40.690180000000005" lon="-2.81544">
        <time>2021-06-19T08:35:10+0000</time>
      </trkpt>
      <trkpt lat="40.690020000000004" lon="-2.8153300000000003">
        <time>2021-06-19T08:35:11+0000</time>
      </trkpt>
      <trkpt lat="40.68986" lon="-2.81522">
        <time>2021-06-19T08:35:12+0000</time>
      </trkpt>
      <trkpt lat="40.6897" lon="-2.8151200000000003">
        <time>2021-06-19T08:35:13+0000</time>
      </trkpt>
      <trkpt lat="40.68954" lon="-2.8150000000000004">
        <time>2021-06-19T08:35:14+0000</time>
      </trkpt>
      <trkpt lat="40.68938" lon="-2.81489">
        <time>2021-06-19T08:35:15+0000</time>
      </trkpt>
      <trkpt lat="40.68921" lon="-2.81477">
        <time>2021-06-19T08:35:16+0000</time>
      </trkpt>
      <trkpt lat="40.68905" lon="-2.8146500000000003">
        <time>2021-06-19T08:35:17+0000</time>
      </trkpt>
      <trkpt lat="40.68889" lon="-2.8145300000000004">
        <time>2021-06-19T08:35:18+0000</time>
      </trkpt>
      <trkpt lat="40.68872" lon="-2.81442">
        <time>2021-06-19T08:35:19+0000</time>
      </trkpt>
      <trkpt lat="40.688550000000006" lon="-2.8143000000000002">
        <time>2021-06-19T08:35:20+0000</time>
      </trkpt>
      <trkpt lat="40.688390000000005" lon="-2.8141900000000004">
        <time>2021-06-19T08:35:21+0000</time>
      </trkpt>
      <trkpt lat="40.688230000000004" lon="-2.81408">
        <time>2021-06-19T08:35:22+0000</time>
      </trkpt>
      <trkpt lat="40.68807" lon="-2.8139600000000002">
        <time>2021-06-19T08:35:23+0000</time>
      </trkpt>
      <trkpt lat="40.68791" lon="-2.8138500000000004">
        <time>2021-06-19T08:35:24+0000</time>
      </trkpt>
      <trkpt lat="40.68775" lon="-2.81374">
        <time>2021-06-19T08:35:25+0000</time>
      </trkpt>
      <trkpt lat="40.6876" lon="-2.8136300000000003">
        <time>2021-06-19T08:35:26+0000</time>
      </trkpt>
      <trkpt lat="40.68744" lon="-2.81352">
        <time>2021-06-19T08:35:27+0000</time>
      </trkpt>
      <trkpt lat="40.687270000000005" lon="-2.8134">
        <time>2021-06-19T08:35:28+0000</time>
      </trkpt>
      <trkpt lat="40.687110000000004" lon="-2.8132800000000002">
        <time>2021-06-19T08:35:29+0000</time>
      </trkpt>
      <trkpt lat="40.68694" lon="-2.8131600000000003">
        <time>2021-06-19T08:35:30+0000</time>
      </trkpt>
      <trkpt lat="40.68676000000001" lon="-2.81307">
        <time>2021-06-19T08:35:31+0000</time>
      </trkpt>
      <trkpt lat="40.686600000000006" lon="-2.81293">
        <time>2021-06-19T08:35:32+0000</time>
      </trkpt>
      <trkpt lat="40.686420000000005" lon="-2.8128200000000003">
        <time>2021-06-19T08:35:33+0000</time>
      </trkpt>
      <trkpt lat="40.686260000000004" lon="-2.8127000000000004">
        <time>2021-06-19T08:35:34+0000</time>
      </trkpt>
      <trkpt lat="40.6861" lon="-2.81259">
        <time>2021-06-19T08:35:35+0000</time>
      </trkpt>
      <trkpt lat="40.685950000000005" lon="-2.8124800000000003">
        <time>2021-06-19T08:35:36+0000</time>
      </trkpt>
      <trkpt lat="40.685790000000004" lon="-2.81238">
        <time>2021-06-19T08:35:37+0000</time>
      </trkpt>
      <trkpt lat="40.68563" lon="-2.8122700000000003">
        <time>2021-06-19T08:35:38+0000</time>
      </trkpt>
      <trkpt lat="40.685460000000006" lon="-2.8121600000000004">
        <time>2021-06-19T08:35:39+0000</time>
      </trkpt>
      <trkpt lat="40.68529" lon="-2.81205">
        <time>2021-06-19T08:35:40+0000</time>
      </trkpt>
      <trkpt lat="40.685120000000005" lon="-2.81192">
        <time>2021-06-19T08:35:41+0000</time>
      </trkpt>
      <trkpt lat="40.68495" lon="-2.8118000000000003">
        <time>2021-06-19T08:35:42+0000</time>
      </trkpt>
      <trkpt lat="40.68477" lon="-2.8116800000000004">
        <time>2021-06-19T08:35:43+0000</time>
      </trkpt>
      <trkpt lat="40.6846" lon="-2.8115500000000004">
        <time>2021-06-19T08:35:44+0000</time>
      </trkpt>
      <trkpt lat="40.68442" lon="-2.81143">
        <time>2021-06-19T08:35:45+0000</time>
      </trkpt>
      <trkpt lat="40.68424" lon="-2.8113">
        <time>2021-06-19T08:35:46+0000</time>
      </trkpt>
      <trkpt lat="40.68406" lon="-2.81116">
        <time>2021-06-19T08:35:47+0000</time>
      </trkpt>
      <trkpt lat="40.683890000000005" lon="-2.81104">
        <time>2021-06-19T08:35:48+0000</time>
      </trkpt>
      <trkpt lat="40.6837" lon="-2.8109300000000004">
        <time>2021-06-19T08:35:49+0000</time>
      </trkpt>
      <trkpt lat="40.683530000000005" lon="-2.8108000000000004">
        <time>2021-06-19T08:35:50+0000</time>
      </trkpt>
      <trkpt lat="40.683370000000004" lon="-2.81068">
        <time>2021-06-19T08:35:51+0000</time>
      </trkpt>
      <trkpt lat="40.68320000000001" lon="-2.8105800000000003">
        <time>2021-06-19T08:35:52+0000</time>
      </trkpt>
      <trkpt lat="40.683040000000005" lon="-2.8104500000000003">
        <time>2021-06-19T08:35:53+0000</time>
      </trkpt>
      <trkpt lat="40.68287" lon="-2.81036">
        <time>2021-06-19T08:35:54+0000</time>
      </trkpt>
      <trkpt lat="40.68272" lon="-2.8102300000000002">
        <time>2021-06-19T08:35:55+0000</time>
      </trkpt>
      <trkpt lat="40.68256" lon="-2.81014">
        <time>2021-06-19T08:35:56+0000</time>
      </trkpt>
      <trkpt lat="40.6824" lon="-2.8100300000000002">
        <time>2021-06-19T08:35:57+0000</time>
      </trkpt>
      <trkpt lat="40.68225" lon="-2.8099200000000004">
        <time>2021-06-19T08:35:58+0000</time>
      </trkpt>
      <trkpt lat="40.682100000000005" lon="-2.80982">
        <time>2021-06-19T08:35:59+0000</time>
      </trkpt>
      <trkpt lat="40.681960000000004" lon="-2.8097000000000003">
        <time>2021-06-19T08:36:00+0000</time>
      </trkpt>
      <trkpt lat="40.68182" lon="-2.8096">
        <time>2021-06-19T08:36:01+0000</time>
      </trkpt>
      <trkpt lat="40.681670000000004" lon="-2.80952">
        <time>2021-06-19T08:36:02+0000</time>
      </trkpt>
      <trkpt lat="40.681540000000005" lon="-2.80941">
        <time>2021-06-19T08:36:03+0000</time>
      </trkpt>
      <trkpt lat="40.681400000000004" lon="-2.8093100000000004">
        <time>2021-06-19T08:36:04+0000</time>
      </trkpt>
      <trkpt lat="40.681270000000005" lon="-2.8092200000000003">
        <time>2021-06-19T08:36:05+0000</time>
      </trkpt>
      <trkpt lat="40.68113" lon="-2.80912">
        <time>2021-06-19T08:36:06+0000</time>
      </trkpt>
      <trkpt lat="40.681000000000004" lon="-2.8090300000000004">
        <time>2021-06-19T08:36:07+0000</time>
      </trkpt>
      <trkpt lat="40.680870000000006" lon="-2.80894">
        <time>2021-06-19T08:36:08+0000</time>
      </trkpt>
      <trkpt lat="40.68074" lon="-2.80885">
        <time>2021-06-19T08:36:09+0000</time>
      </trkpt>
      <trkpt lat="40.680620000000005" lon="-2.8087700000000004">
        <time>2021-06-19T08:36:10+0000</time>
      </trkpt>
      <trkpt lat="40.680510000000005" lon="-2.8086900000000004">
        <time>2021-06-19T08:36:11+0000</time>
      </trkpt>
      <trkpt lat="40.680400000000006" lon="-2.8086100000000003">
        <time>2021-06-19T08:36:12+0000</time>
      </trkpt>
      <trkpt lat="40.6803" lon="-2.8085400000000003">
        <time>2021-06-19T08:36:13+0000</time>
      </trkpt>
      <trkpt lat="40.680200000000006" lon="-2.80845">
        <time>2021-06-19T08:36:14+0000</time>
      </trkpt>
      <trkpt lat="40.68012" lon="-2.8082900000000004">
        <time>2021-06-19T08:36:15+0000</time>
      </trkpt>
      <trkpt lat="40.6801" lon="-2.8080900000000004">
        <time>2021-06-19T08:36:16+0000</time>
      </trkpt>
      <trkpt lat="40.680080000000004" lon="-2.80791">
        <time>2021-06-19T08:36:17+0000</time>
      </trkpt>
      <trkpt lat="40.680060000000005" lon="-2.8077500000000004">
        <time>2021-06-19T08:36:18+0000</time>
      </trkpt>
      <trkpt lat="40.68000000000001" lon="-2.8076000000000003">
        <time>2021-06-19T08:36:19+0000</time>
      </trkpt>
      <trkpt lat="40.67989" lon="-2.8074600000000003">
        <time>2021-06-19T08:36:20+0000</time>
      </trkpt>
      <trkpt lat="40.67976" lon="-2.8073">
        <time>2021-06-19T08:36:21+0000</time>
      </trkpt>
      <trkpt lat="40.679640000000006" lon="-2.80716">
        <time>2021-06-19T08:36:22+0000</time>
      </trkpt>
      <trkpt lat="40.679520000000004" lon="-2.80703">
        <time>2021-06-19T08:36:23+0000</time>
      </trkpt>
      <trkpt lat="40.6794" lon="-2.8069100000000002">
        <time>2021-06-19T08:36:24+0000</time>
      </trkpt>
      <trkpt lat="40.679300000000005" lon="-2.8068000000000004">
        <time>2021-06-19T08:36:25+0000</time>
      </trkpt>
      <trkpt lat="40.679170000000006" lon="-2.80675">
        <time>2021-06-19T08:36:26+0000</time>
      </trkpt>
      <trkpt lat="40.67902" lon="-2.8067300000000004">
        <time>2021-06-19T08:36:27+0000</time>
      </trkpt>
      <trkpt lat="40.67887" lon="-2.8066700000000004">
        <time>2021-06-19T08:36:28+0000</time>
      </trkpt>
      <trkpt lat="40.67873" lon="-2.8066400000000002">
        <time>2021-06-19T08:36:29+0000</time>
      </trkpt>
      <trkpt lat="40.6786" lon="-2.8066400000000002">
        <time>2021-06-19T08:36:30+0000</time>
      </trkpt>
      <trkpt lat="40.67848" lon="-2.80662">
        <time>2021-06-19T08:36:31+0000</time>
      </trkpt>
      <trkpt lat="40.67837" lon="-2.8065900000000004">
        <time>2021-06-19T08:36:32+0000</time>
      </trkpt>
      <trkpt lat="40.67826" lon="-2.8065700000000002">
        <time>2021-06-19T08:36:33+0000</time>
      </trkpt>
      <trkpt lat="40.67815" lon="-2.80654">
        <time>2021-06-19T08:36:34+0000</time>
      </trkpt>
      <trkpt lat="40.678050000000006" lon="-2.8065100000000003">
        <time>2021-06-19T08:36:35+0000</time>
      </trkpt>
      <trkpt lat="40.67794000000001" lon="-2.80648">
        <time>2021-06-19T08:36:36+0000</time>
      </trkpt>
      <trkpt lat="40.67784" lon="-2.8064500000000003">
        <time>2021-06-19T08:36:37+0000</time>
      </trkpt>
      <trkpt lat="40.677730000000004" lon="-2.8064000000000004">
        <time>2021-06-19T08:36:38+0000</time>
      </trkpt>
      <trkpt lat="40.67761" lon="-2.80634">
        <time>2021-06-19T08:36:39+0000</time>
      </trkpt>
      <trkpt lat="40.677490000000006" lon="-2.8062600000000004">
        <time>2021-06-19T08:36:40+0000</time>
      </trkpt>
      <trkpt lat="40.677350000000004" lon="-2.8061800000000003">
        <time>2021-06-19T08:36:41+0000</time>
      </trkpt>
      <trkpt lat="40.677220000000005" lon="-2.80608">
        <time>2021-06-19T08:36:42+0000</time>
      </trkpt>
      <trkpt lat="40.67707" lon="-2.8059800000000004">
        <time>2021-06-19T08:36:43+0000</time>
      </trkpt>
      <trkpt lat="40.676930000000006" lon="-2.80589">
        <time>2021-06-19T08:36:44+0000</time>
      </trkpt>
      <trkpt lat="40.676790000000004" lon="-2.8058">
        <time>2021-06-19T08:36:45+0000</time>
      </trkpt>
      <trkpt lat="40.67665" lon="-2.8057000000000003">
        <time>2021-06-19T08:36:46+0000</time>
      </trkpt>
      <trkpt lat="40.676520000000004" lon="-2.80561">
        <time>2021-06-19T08:36:47+0000</time>
      </trkpt>
      <trkpt lat="40.676390000000005" lon="-2.80552">
        <time>2021-06-19T08:36:48+0000</time>
      </trkpt>
      <trkpt lat="40.67627" lon="-2.8054400000000004">
        <time>2021-06-19T08:36:49+0000</time>
      </trkpt>
      <trkpt lat="40.67616" lon="-2.8053600000000003">
        <time>2021-06-19T08:36:50+0000</time>
      </trkpt>
      <trkpt lat="40.676050000000004" lon="-2.8052900000000003">
        <time>2021-06-19T08:36:51+0000</time>
      </trkpt>
      <trkpt lat="40.675940000000004" lon="-2.8052200000000003">
        <time>2021-06-19T08:36:52+0000</time>
      </trkpt>
      <trkpt lat="40.675830000000005" lon="-2.80514">
        <time>2021-06-19T08:36:53+0000</time>
      </trkpt>
      <trkpt lat="40.675720000000005" lon="-2.80507">
        <time>2021-06-19T08:36:54+0000</time>
      </trkpt>
      <trkpt lat="40.6756" lon="-2.80498">
        <time>2021-06-19T08:36:55+0000</time>
      </trkpt>
      <trkpt lat="40.67548" lon="-2.8048900000000003">
        <time>2021-06-19T08:36:56+0000</time>
      </trkpt>
      <trkpt lat="40.67535" lon="-2.8048100000000002">
        <time>2021-06-19T08:36:57+0000</time>
      </trkpt>
      <trkpt lat="40.67522" lon="-2.80472">
        <time>2021-06-19T08:36:58+0000</time>
      </trkpt>
      <trkpt lat="40.675090000000004" lon="-2.8046200000000003">
        <time>2021-06-19T08:36:59+0000</time>
      </trkpt>
      <trkpt lat="40.67495" lon="-2.80453">
        <time>2021-06-19T08:37:00+0000</time>
      </trkpt>
      <trkpt lat="40.67481" lon="-2.8044300000000004">
        <time>2021-06-19T08:37:01+0000</time>
      </trkpt>
      <trkpt lat="40.674670000000006" lon="-2.80433">
        <time>2021-06-19T08:37:02+0000</time>
      </trkpt>
      <trkpt lat="40.674530000000004" lon="-2.8042300000000004">
        <time>2021-06-19T08:37:03+0000</time>
      </trkpt>
      <trkpt lat="40.674400000000006" lon="-2.8041400000000003">
        <time>2021-06-19T08:37:04+0000</time>
      </trkpt>
      <trkpt lat="40.67427" lon="-2.80405">
        <time>2021-06-19T08:37:05+0000</time>
      </trkpt>
      <trkpt lat="40.674130000000005" lon="-2.8039500000000004">
        <time>2021-06-19T08:37:06+0000</time>
      </trkpt>
      <trkpt lat="40.67400000000001" lon="-2.8038600000000002">
        <time>2021-06-19T08:37:07+0000</time>
      </trkpt>
      <trkpt lat="40.67387" lon="-2.80377">
        <time>2021-06-19T08:37:08+0000</time>
      </trkpt>
      <trkpt lat="40.673730000000006" lon="-2.8036700000000003">
        <time>2021-06-19T08:37:09+0000</time>
      </trkpt>
      <trkpt lat="40.67358" lon="-2.80357">
        <time>2021-06-19T08:37:10+0000</time>
      </trkpt>
      <trkpt lat="40.67342" lon="-2.8034700000000004">
        <time>2021-06-19T08:37:11+0000</time>
      </trkpt>
      <trkpt lat="40.67327" lon="-2.80337">
        <time>2021-06-19T08:37:12+0000</time>
      </trkpt>
      <trkpt lat="40.67311" lon="-2.8032600000000003">
        <time>2021-06-19T08:37:13+0000</time>
      </trkpt>
      <trkpt lat="40.67295" lon="-2.8031400000000004">
        <time>2021-06-19T08:37:14+0000</time>
      </trkpt>
      <trkpt lat="40.67278" lon="-2.80303">
        <time>2021-06-19T08:37:15+0000</time>
      </trkpt>
      <trkpt lat="40.6726" lon="-2.8029">
        <time>2021-06-19T08:37:16+0000</time>
      </trkpt>
      <trkpt lat="40.672430000000006" lon="-2.8027800000000003">
        <time>2021-06-19T08:37:17+0000</time>
      </trkpt>
      <trkpt lat="40.67226" lon="-2.8026600000000004">
        <time>2021-06-19T08:37:18+0000</time>
      </trkpt>
      <trkpt lat="40.67208" lon="-2.80256">
        <time>2021-06-19T08:37:19+0000</time>
      </trkpt>
      <trkpt lat="40.67192" lon="-2.8024500000000003">
        <time>2021-06-19T08:37:20+0000</time>
      </trkpt>
      <trkpt lat="40.67177" lon="-2.8023300000000004">
        <time>2021-06-19T08:37:21+0000</time>
      </trkpt>
      <trkpt lat="40.671620000000004" lon="-2.80223">
        <time>2021-06-19T08:37:22+0000</time>
      </trkpt>
      <trkpt lat="40.67147000000001" lon="-2.80213">
        <time>2021-06-19T08:37:23+0000</time>
      </trkpt>
      <trkpt lat="40.671330000000005" lon="-2.8020300000000002">
        <time>2021-06-19T08:37:24+0000</time>
      </trkpt>
      <trkpt lat="40.671200000000006" lon="-2.80194">
        <time>2021-06-19T08:37:25+0000</time>
      </trkpt>
      <trkpt lat="40.67107" lon="-2.80186">
        <time>2021-06-19T08:37:26+0000</time>
      </trkpt>
      <trkpt lat="40.67094" lon="-2.8017800000000004">
        <time>2021-06-19T08:37:27+0000</time>
      </trkpt>
      <trkpt lat="40.670820000000006" lon="-2.8017000000000003">
        <time>2021-06-19T08:37:28+0000</time>
      </trkpt>
      <trkpt lat="40.670700000000004" lon="-2.80162">
        <time>2021-06-19T08:37:29+0000</time>
      </trkpt>
      <trkpt lat="40.67058" lon="-2.80154">
        <time>2021-06-19T08:37:30+0000</time>
      </trkpt>
      <trkpt lat="40.670460000000006" lon="-2.8014500000000004">
        <time>2021-06-19T08:37:31+0000</time>
      </trkpt>
      <trkpt lat="40.67033" lon="-2.8013600000000003">
        <time>2021-06-19T08:37:32+0000</time>
      </trkpt>
      <trkpt lat="40.6702" lon="-2.80128">
        <time>2021-06-19T08:37:33+0000</time>
      </trkpt>
      <trkpt lat="40.67006000000001" lon="-2.8011800000000004">
        <time>2021-06-19T08:37:34+0000</time>
      </trkpt>
      <trkpt lat="40.66991" lon="-2.8010800000000002">
        <time>2021-06-19T08:37:35+0000</time>
      </trkpt>
      <trkpt lat="40.669760000000004" lon="-2.80099">
        <time>2021-06-19T08:37:36+0000</time>
      </trkpt>
      <trkpt lat="40.669610000000006" lon="-2.8008900000000003">
        <time>2021-06-19T08:37:37+0000</time>
      </trkpt>
      <trkpt lat="40.669450000000005" lon="-2.80078">
        <time>2021-06-19T08:37:38+0000</time>
      </trkpt>
      <trkpt lat="40.6693" lon="-2.80067">
        <time>2021-06-19T08:37:39+0000</time>
      </trkpt>
      <trkpt lat="40.66915" lon="-2.8005700000000004">
        <time>2021-06-19T08:37:40+0000</time>
      </trkpt>
      <trkpt lat="40.66899" lon="-2.80046">
        <time>2021-06-19T08:37:41+0000</time>
      </trkpt>
      <trkpt lat="40.668850000000006" lon="-2.80037">
        <time>2021-06-19T08:37:42+0000</time>
      </trkpt>
      <trkpt lat="40.6687" lon="-2.8002700000000003">
        <time>2021-06-19T08:37:43+0000</time>
      </trkpt>
      <trkpt lat="40.66856000000001" lon="-2.80017">
        <time>2021-06-19T08:37:44+0000</time>
      </trkpt>
      <trkpt lat="40.66841" lon="-2.8000700000000003">
        <time>2021-06-19T08:37:45+0000</time>
      </trkpt>
      <trkpt lat="40.66827000000001" lon="-2.79998">
        <time>2021-06-19T08:37:46+0000</time>
      </trkpt>
      <trkpt lat="40.66812" lon="-2.7998800000000004">
        <time>2021-06-19T08:37:47+0000</time>
      </trkpt>
      <trkpt lat="40.667970000000004" lon="-2.79978">
        <time>2021-06-19T08:37:48+0000</time>
      </trkpt>
      <trkpt lat="40.667820000000006" lon="-2.7996800000000004">
        <time>2021-06-19T08:37:49+0000</time>
      </trkpt>
      <trkpt lat="40.667680000000004" lon="-2.79958">
        <time>2021-06-19T08:37:50+0000</time>
      </trkpt>
      <trkpt lat="40.667530000000006" lon="-2.7994700000000003">
        <time>2021-06-19T08:37:51+0000</time>
      </trkpt>
      <trkpt lat="40.667390000000005" lon="-2.79936">
        <time>2021-06-19T08:37:52+0000</time>
      </trkpt>
      <trkpt lat="40.66725" lon="-2.7992600000000003">
        <time>2021-06-19T08:37:53+0000</time>
      </trkpt>
      <trkpt lat="40.667100000000005" lon="-2.79916">
        <time>2021-06-19T08:37:54+0000</time>
      </trkpt>
      <trkpt lat="40.66695" lon="-2.7990700000000004">
        <time>2021-06-19T08:37:55+0000</time>
      </trkpt>
      <trkpt lat="40.6668" lon="-2.79897">
        <time>2021-06-19T08:37:56+0000</time>
      </trkpt>
      <trkpt lat="40.666650000000004" lon="-2.79888">
        <time>2021-06-19T08:37:57+0000</time>
      </trkpt>
      <trkpt lat="40.666500000000006" lon="-2.79877">
        <time>2021-06-19T08:37:58+0000</time>
      </trkpt>
      <trkpt lat="40.66635" lon="-2.7986700000000004">
        <time>2021-06-19T08:37:59+0000</time>
      </trkpt>
      <trkpt lat="40.6662" lon="-2.79856">
        <time>2021-06-19T08:38:00+0000</time>
      </trkpt>
      <trkpt lat="40.666050000000006" lon="-2.7984600000000004">
        <time>2021-06-19T08:38:01+0000</time>
      </trkpt>
      <trkpt lat="40.6659" lon="-2.79836">
        <time>2021-06-19T08:38:02+0000</time>
      </trkpt>
      <trkpt lat="40.66574000000001" lon="-2.7982500000000003">
        <time>2021-06-19T08:38:03+0000</time>
      </trkpt>
      <trkpt lat="40.665580000000006" lon="-2.79814">
        <time>2021-06-19T08:38:04+0000</time>
      </trkpt>
      <trkpt lat="40.66541" lon="-2.7980300000000002">
        <time>2021-06-19T08:38:05+0000</time>
      </trkpt>
      <trkpt lat="40.66525" lon="-2.7979200000000004">
        <time>2021-06-19T08:38:06+0000</time>
      </trkpt>
      <trkpt lat="40.66508" lon="-2.79781">
        <time>2021-06-19T08:38:07+0000</time>
      </trkpt>
      <trkpt lat="40.664910000000006" lon="-2.7976900000000002">
        <time>2021-06-19T08:38:08+0000</time>
      </trkpt>
      <trkpt lat="40.664750000000005" lon="-2.79759">
        <time>2021-06-19T08:38:09+0000</time>
      </trkpt>
      <trkpt lat="40.664590000000004" lon="-2.79748">
        <time>2021-06-19T08:38:10+0000</time>
      </trkpt>
      <trkpt lat="40.664440000000006" lon="-2.7973700000000004">
        <time>2021-06-19T08:38:11+0000</time>
      </trkpt>
      <trkpt lat="40.664280000000005" lon="-2.79726">
        <time>2021-06-19T08:38:12+0000</time>
      </trkpt>
      <trkpt lat="40.66413" lon="-2.7971600000000003">
        <time>2021-06-19T08:38:13+0000</time>
      </trkpt>
      <trkpt lat="40.663990000000005" lon="-2.79706">
        <time>2021-06-19T08:38:14+0000</time>
      </trkpt>
      <trkpt lat="40.663850000000004" lon="-2.7969700000000004">
        <time>2021-06-19T08:38:15+0000</time>
      </trkpt>
      <trkpt lat="40.66371" lon="-2.79687">
        <time>2021-06-19T08:38:16+0000</time>
      </trkpt>
      <trkpt lat="40.66357" lon="-2.79678">
        <time>2021-06-19T08:38:17+0000</time>
      </trkpt>
      <trkpt lat="40.66344" lon="-2.7966800000000003">
        <time>2021-06-19T08:38:18+0000</time>
      </trkpt>
      <trkpt lat="40.66330000000001" lon="-2.79659">
        <time>2021-06-19T08:38:19+0000</time>
      </trkpt>
      <trkpt lat="40.66317" lon="-2.7965000000000004">
        <time>2021-06-19T08:38:20+0000</time>
      </trkpt>
      <trkpt lat="40.663030000000006" lon="-2.7964">
        <time>2021-06-19T08:38:21+0000</time>
      </trkpt>
      <trkpt lat="40.66288" lon="-2.7963">
        <time>2021-06-19T08:38:22+0000</time>
      </trkpt>
      <trkpt lat="40.66275" lon="-2.7962000000000002">
        <time>2021-06-19T08:38:23+0000</time>
      </trkpt>
      <trkpt lat="40.662600000000005" lon="-2.79611">
        <time>2021-06-19T08:38:24+0000</time>
      </trkpt>
      <trkpt lat="40.66246" lon="-2.7960000000000003">
        <time>2021-06-19T08:38:25+0000</time>
      </trkpt>
      <trkpt lat="40.6623" lon="-2.7958900000000004">
        <time>2021-06-19T08:38:26+0000</time>
      </trkpt>
      <trkpt lat="40.66214" lon="-2.79578">
        <time>2021-06-19T08:38:27+0000</time>
      </trkpt>
      <trkpt lat="40.66198" lon="-2.7956800000000004">
        <time>2021-06-19T08:38:28+0000</time>
      </trkpt>
      <trkpt lat="40.661820000000006" lon="-2.79557">
        <time>2021-06-19T08:38:29+0000</time>
      </trkpt>
      <trkpt lat="40.66165" lon="-2.7954600000000003">
        <time>2021-06-19T08:38:30+0000</time>
      </trkpt>
      <trkpt lat="40.66147" lon="-2.7953400000000004">
        <time>2021-06-19T08:38:31+0000</time>
      </trkpt>
      <trkpt lat="40.661300000000004" lon="-2.79522">
        <time>2021-06-19T08:38:32+0000</time>
      </trkpt>
      <trkpt lat="40.66113" lon="-2.79511">
        <time>2021-06-19T08:38:33+0000</time>
      </trkpt>
      <trkpt lat="40.660970000000006" lon="-2.7950000000000004">
        <time>2021-06-19T08:38:34+0000</time>
      </trkpt>
      <trkpt lat="40.660810000000005" lon="-2.79489">
        <time>2021-06-19T08:38:35+0000</time>
      </trkpt>
      <trkpt lat="40.660650000000004" lon="-2.7947800000000003">
        <time>2021-06-19T08:38:36+0000</time>
      </trkpt>
      <trkpt lat="40.66049" lon="-2.7946700000000004">
        <time>2021-06-19T08:38:37+0000</time>
      </trkpt>
      <trkpt lat="40.660320000000006" lon="-2.79456">
        <time>2021-06-19T08:38:38+0000</time>
      </trkpt>
      <trkpt lat="40.660160000000005" lon="-2.7944500000000003">
        <time>2021-06-19T08:38:39+0000</time>
      </trkpt>
      <trkpt lat="40.65999" lon="-2.79434">
        <time>2021-06-19T08:38:40+0000</time>
      </trkpt>
      <trkpt lat="40.65982" lon="-2.79423">
        <time>2021-06-19T08:38:41+0000</time>
      </trkpt>
      <trkpt lat="40.65966" lon="-2.7941200000000004">
        <time>2021-06-19T08:38:42+0000</time>
      </trkpt>
      <trkpt lat="40.6595" lon="-2.79402">
        <time>2021-06-19T08:38:43+0000</time>
      </trkpt>
      <trkpt lat="40.65934" lon="-2.7939100000000003">
        <time>2021-06-19T08:38:44+0000</time>
      </trkpt>
      <trkpt lat="40.659180000000006" lon="-2.7938">
        <time>2021-06-19T08:38:45+0000</time>
      </trkpt>
      <trkpt lat="40.65903" lon="-2.7936900000000002">
        <time>2021-06-19T08:38:46+0000</time>
      </trkpt>
      <trkpt lat="40.65887" lon="-2.7935800000000004">
        <time>2021-06-19T08:38:47+0000</time>
      </trkpt>
      <trkpt lat="40.65872" lon="-2.79347">
        <time>2021-06-19T08:38:48+0000</time>
      </trkpt>
      <trkpt lat="40.65856" lon="-2.7933600000000003">
        <time>2021-06-19T08:38:49+0000</time>
      </trkpt>
      <trkpt lat="40.658390000000004" lon="-2.79325">
        <time>2021-06-19T08:38:50+0000</time>
      </trkpt>
      <trkpt lat="40.65823" lon="-2.79314">
        <time>2021-06-19T08:38:51+0000</time>
      </trkpt>
      <trkpt lat="40.658080000000005" lon="-2.7930300000000003">
        <time>2021-06-19T08:38:52+0000</time>
      </trkpt>
      <trkpt lat="40.65793" lon="-2.79293">
        <time>2021-06-19T08:38:53+0000</time>
      </trkpt>
      <trkpt lat="40.657790000000006" lon="-2.7928300000000004">
        <time>2021-06-19T08:38:54+0000</time>
      </trkpt>
      <trkpt lat="40.657630000000005" lon="-2.79273">
        <time>2021-06-19T08:38:55+0000</time>
      </trkpt>
      <trkpt lat="40.65748000000001" lon="-2.7926300000000004">
        <time>2021-06-19T08:38:56+0000</time>
      </trkpt>
      <trkpt lat="40.657320000000006" lon="-2.79253">
        <time>2021-06-19T08:38:57+0000</time>
      </trkpt>
      <trkpt lat="40.65717" lon="-2.7924100000000003">
        <time>2021-06-19T08:38:58+0000</time>
      </trkpt>
      <trkpt lat="40.65701000000001" lon="-2.7923000000000004">
        <time>2021-06-19T08:38:59+0000</time>
      </trkpt>
      <trkpt lat="40.65684" lon="-2.79219">
        <time>2021-06-19T08:39:00+0000</time>
      </trkpt>
      <trkpt lat="40.65668" lon="-2.7920800000000003">
        <time>2021-06-19T08:39:01+0000</time>
      </trkpt>
      <trkpt lat="40.656530000000004" lon="-2.79199">
        <time>2021-06-19T08:39:02+0000</time>
      </trkpt>
      <trkpt lat="40.65637" lon="-2.7918800000000004">
        <time>2021-06-19T08:39:03+0000</time>
      </trkpt>
      <trkpt lat="40.65621" lon="-2.79177">
        <time>2021-06-19T08:39:04+0000</time>
      </trkpt>
      <trkpt lat="40.656040000000004" lon="-2.7916600000000003">
        <time>2021-06-19T08:39:05+0000</time>
      </trkpt>
      <trkpt lat="40.65588" lon="-2.7915500000000004">
        <time>2021-06-19T08:39:06+0000</time>
      </trkpt>
      <trkpt lat="40.655710000000006" lon="-2.79143">
        <time>2021-06-19T08:39:07+0000</time>
      </trkpt>
      <trkpt lat="40.65554" lon="-2.7913200000000002">
        <time>2021-06-19T08:39:08+0000</time>
      </trkpt>
      <trkpt lat="40.65538" lon="-2.7912100000000004">
        <time>2021-06-19T08:39:09+0000</time>
      </trkpt>
      <trkpt lat="40.65523" lon="-2.79111">
        <time>2021-06-19T08:39:10+0000</time>
      </trkpt>
      <trkpt lat="40.655080000000005" lon="-2.7910100000000004">
        <time>2021-06-19T08:39:11+0000</time>
      </trkpt>
      <trkpt lat="40.65494" lon="-2.7909200000000003">
        <time>2021-06-19T08:39:12+0000</time>
      </trkpt>
      <trkpt lat="40.6548" lon="-2.79082">
        <time>2021-06-19T08:39:13+0000</time>
      </trkpt>
      <trkpt lat="40.654650000000004" lon="-2.7907200000000003">
        <time>2021-06-19T08:39:14+0000</time>
      </trkpt>
      <trkpt lat="40.65451" lon="-2.79062">
        <time>2021-06-19T08:39:15+0000</time>
      </trkpt>
      <trkpt lat="40.654360000000004" lon="-2.7905100000000003">
        <time>2021-06-19T08:39:16+0000</time>
      </trkpt>
      <trkpt lat="40.65422" lon="-2.79041">
        <time>2021-06-19T08:39:17+0000</time>
      </trkpt>
      <trkpt lat="40.65408" lon="-2.7903200000000004">
        <time>2021-06-19T08:39:18+0000</time>
      </trkpt>
      <trkpt lat="40.653940000000006" lon="-2.79022">
        <time>2021-06-19T08:39:19+0000</time>
      </trkpt>
      <trkpt lat="40.653800000000004" lon="-2.7901300000000004">
        <time>2021-06-19T08:39:20+0000</time>
      </trkpt>
      <trkpt lat="40.653670000000005" lon="-2.7900400000000003">
        <time>2021-06-19T08:39:21+0000</time>
      </trkpt>
      <trkpt lat="40.65354000000001" lon="-2.78995">
        <time>2021-06-19T08:39:22+0000</time>
      </trkpt>
      <trkpt lat="40.653400000000005" lon="-2.7898500000000004">
        <time>2021-06-19T08:39:23+0000</time>
      </trkpt>
      <trkpt lat="40.65325" lon="-2.78975">
        <time>2021-06-19T08:39:24+0000</time>
      </trkpt>
      <trkpt lat="40.653090000000006" lon="-2.7896400000000003">
        <time>2021-06-19T08:39:25+0000</time>
      </trkpt>
      <trkpt lat="40.65294" lon="-2.78954">
        <time>2021-06-19T08:39:26+0000</time>
      </trkpt>
      <trkpt lat="40.65278" lon="-2.7894400000000004">
        <time>2021-06-19T08:39:27+0000</time>
      </trkpt>
      <trkpt lat="40.65263" lon="-2.78933">
        <time>2021-06-19T08:39:28+0000</time>
      </trkpt>
      <trkpt lat="40.6525" lon="-2.7892">
        <time>2021-06-19T08:39:29+0000</time>
      </trkpt>
      <trkpt lat="40.652370000000005" lon="-2.7890300000000003">
        <time>2021-06-19T08:39:30+0000</time>
      </trkpt>
      <trkpt lat="40.652260000000005" lon="-2.7888300000000004">
        <time>2021-06-19T08:39:31+0000</time>
      </trkpt>
      <trkpt lat="40.652150000000006" lon="-2.7886100000000003">
        <time>2021-06-19T08:39:32+0000</time>
      </trkpt>
      <trkpt lat="40.65204000000001" lon="-2.78839">
        <time>2021-06-19T08:39:33+0000</time>
      </trkpt>
      <trkpt lat="40.65193" lon="-2.78817">
        <time>2021-06-19T08:39:34+0000</time>
      </trkpt>
      <trkpt lat="40.6518" lon="-2.78797">
        <time>2021-06-19T08:39:35+0000</time>
      </trkpt>
      <trkpt lat="40.651700000000005" lon="-2.78777">
        <time>2021-06-19T08:39:36+0000</time>
      </trkpt>
      <trkpt lat="40.651590000000006" lon="-2.78757">
        <time>2021-06-19T08:39:37+0000</time>
      </trkpt>
      <trkpt lat="40.65149" lon="-2.78738">
        <time>2021-06-19T08:39:38+0000</time>
      </trkpt>
      <trkpt lat="40.65138" lon="-2.7872000000000003">
        <time>2021-06-19T08:39:39+0000</time>
      </trkpt>
      <trkpt lat="40.65128" lon="-2.7870100000000004">
        <time>2021-06-19T08:39:40+0000</time>
      </trkpt>
      <trkpt lat="40.651180000000004" lon="-2.78681">
        <time>2021-06-19T08:39:41+0000</time>
      </trkpt>
      <trkpt lat="40.651070000000004" lon="-2.78662">
        <time>2021-06-19T08:39:42+0000</time>
      </trkpt>
      <trkpt lat="40.650960000000005" lon="-2.78642">
        <time>2021-06-19T08:39:43+0000</time>
      </trkpt>
      <trkpt lat="40.650850000000005" lon="-2.78622">
        <time>2021-06-19T08:39:44+0000</time>
      </trkpt>
      <trkpt lat="40.650740000000006" lon="-2.78601">
        <time>2021-06-19T08:39:45+0000</time>
      </trkpt>
      <trkpt lat="40.65062" lon="-2.7858">
        <time>2021-06-19T08:39:46+0000</time>
      </trkpt>
      <trkpt lat="40.650510000000004" lon="-2.78559">
        <time>2021-06-19T08:39:47+0000</time>
      </trkpt>
      <trkpt lat="40.65039" lon="-2.7853700000000003">
        <time>2021-06-19T08:39:48+0000</time>
      </trkpt>
      <trkpt lat="40.65028" lon="-2.7851600000000003">
        <time>2021-06-19T08:39:49+0000</time>
      </trkpt>
      <trkpt lat="40.65016000000001" lon="-2.78494">
        <time>2021-06-19T08:39:50+0000</time>
      </trkpt>
      <trkpt lat="40.65005" lon="-2.78474">
        <time>2021-06-19T08:39:51+0000</time>
      </trkpt>
      <trkpt lat="40.64994" lon="-2.7845400000000002">
        <time>2021-06-19T08:39:52+0000</time>
      </trkpt>
      <trkpt lat="40.64983" lon="-2.7843500000000003">
        <time>2021-06-19T08:39:53+0000</time>
      </trkpt>
      <trkpt lat="40.649710000000006" lon="-2.78418">
        <time>2021-06-19T08:39:54+0000</time>
      </trkpt>
      <trkpt lat="40.64959" lon="-2.7840200000000004">
        <time>2021-06-19T08:39:55+0000</time>
      </trkpt>
      <trkpt lat="40.64945" lon="-2.78385">
        <time>2021-06-19T08:39:56+0000</time>
      </trkpt>
      <trkpt lat="40.64931" lon="-2.7836800000000004">
        <time>2021-06-19T08:39:57+0000</time>
      </trkpt>
      <trkpt lat="40.649170000000005" lon="-2.7835">
        <time>2021-06-19T08:39:58+0000</time>
      </trkpt>
      <trkpt lat="40.64902" lon="-2.7833200000000002">
        <time>2021-06-19T08:39:59+0000</time>
      </trkpt>
      <trkpt lat="40.64887" lon="-2.7831400000000004">
        <time>2021-06-19T08:40:00+0000</time>
      </trkpt>
      <trkpt lat="40.648720000000004" lon="-2.78297">
        <time>2021-06-19T08:40:01+0000</time>
      </trkpt>
      <trkpt lat="40.64857000000001" lon="-2.78283">
        <time>2021-06-19T08:40:02+0000</time>
      </trkpt>
      <trkpt lat="40.6484" lon="-2.78268">
        <time>2021-06-19T08:40:03+0000</time>
      </trkpt>
      <trkpt lat="40.64824" lon="-2.78255">
        <time>2021-06-19T08:40:04+0000</time>
      </trkpt>
      <trkpt lat="40.64806" lon="-2.78243">
        <time>2021-06-19T08:40:05+0000</time>
      </trkpt>
      <trkpt lat="40.647890000000004" lon="-2.7823">
        <time>2021-06-19T08:40:06+0000</time>
      </trkpt>
      <trkpt lat="40.647710000000004" lon="-2.7821800000000003">
        <time>2021-06-19T08:40:07+0000</time>
      </trkpt>
      <trkpt lat="40.647540000000006" lon="-2.7820500000000004">
        <time>2021-06-19T08:40:08+0000</time>
      </trkpt>
      <trkpt lat="40.647360000000006" lon="-2.7819200000000004">
        <time>2021-06-19T08:40:09+0000</time>
      </trkpt>
      <trkpt lat="40.647180000000006" lon="-2.7818">
        <time>2021-06-19T08:40:10+0000</time>
      </trkpt>
      <trkpt lat="40.64701" lon="-2.78168">
        <time>2021-06-19T08:40:11+0000</time>
      </trkpt>
      <trkpt lat="40.64685" lon="-2.7815600000000003">
        <time>2021-06-19T08:40:12+0000</time>
      </trkpt>
      <trkpt lat="40.646710000000006" lon="-2.7814300000000003">
        <time>2021-06-19T08:40:13+0000</time>
      </trkpt>
      <trkpt lat="40.64656" lon="-2.78132">
        <time>2021-06-19T08:40:14+0000</time>
      </trkpt>
      <trkpt lat="40.64643" lon="-2.7811600000000003">
        <time>2021-06-19T08:40:15+0000</time>
      </trkpt>
      <trkpt lat="40.64632" lon="-2.7809600000000003">
        <time>2021-06-19T08:40:16+0000</time>
      </trkpt>
      <trkpt lat="40.646240000000006" lon="-2.78074">
        <time>2021-06-19T08:40:17+0000</time>
      </trkpt>
      <trkpt lat="40.64616" lon="-2.7805000000000004">
        <time>2021-06-19T08:40:18+0000</time>
      </trkpt>
      <trkpt lat="40.64607" lon="-2.78025">
        <time>2021-06-19T08:40:19+0000</time>
      </trkpt>
      <trkpt lat="40.646" lon="-2.7800200000000004">
        <time>2021-06-19T08:40:20+0000</time>
      </trkpt>
      <trkpt lat="40.645920000000004" lon="-2.77979">
        <time>2021-06-19T08:40:21+0000</time>
      </trkpt>
      <trkpt lat="40.64585" lon="-2.77956">
        <time>2021-06-19T08:40:22+0000</time>
      </trkpt>
      <trkpt lat="40.645770000000006" lon="-2.7793400000000004">
        <time>2021-06-19T08:40:23+0000</time>
      </trkpt>
      <trkpt lat="40.64569" lon="-2.7791400000000004">
        <time>2021-06-19T08:40:24+0000</time>
      </trkpt>
      <trkpt lat="40.6456" lon="-2.77896">
        <time>2021-06-19T08:40:25+0000</time>
      </trkpt>
      <trkpt lat="40.64547" lon="-2.7788100000000004">
        <time>2021-06-19T08:40:26+0000</time>
      </trkpt>
      <trkpt lat="40.64531" lon="-2.77868">
        <time>2021-06-19T08:40:27+0000</time>
      </trkpt>
      <trkpt lat="40.64515" lon="-2.77855">
        <time>2021-06-19T08:40:28+0000</time>
      </trkpt>
      <trkpt lat="40.64499" lon="-2.7784400000000002">
        <time>2021-06-19T08:40:29+0000</time>
      </trkpt>
      <trkpt lat="40.64482" lon="-2.7783300000000004">
        <time>2021-06-19T08:40:30+0000</time>
      </trkpt>
      <trkpt lat="40.644670000000005" lon="-2.77823">
        <time>2021-06-19T08:40:31+0000</time>
      </trkpt>
      <trkpt lat="40.64452" lon="-2.7781300000000004">
        <time>2021-06-19T08:40:32+0000</time>
      </trkpt>
      <trkpt lat="40.644380000000005" lon="-2.77803">
        <time>2021-06-19T08:40:33+0000</time>
      </trkpt>
      <trkpt lat="40.64425000000001" lon="-2.7779200000000004">
        <time>2021-06-19T08:40:34+0000</time>
      </trkpt>
      <trkpt lat="40.644130000000004" lon="-2.7777800000000004">
        <time>2021-06-19T08:40:35+0000</time>
      </trkpt>
      <trkpt lat="40.644020000000005" lon="-2.77762">
        <time>2021-06-19T08:40:36+0000</time>
      </trkpt>
      <trkpt lat="40.64392" lon="-2.7774400000000004">
        <time>2021-06-19T08:40:37+0000</time>
      </trkpt>
      <trkpt lat="40.643820000000005" lon="-2.7772500000000004">
        <time>2021-06-19T08:40:38+0000</time>
      </trkpt>
      <trkpt lat="40.64372" lon="-2.77705">
        <time>2021-06-19T08:40:39+0000</time>
      </trkpt>
      <trkpt lat="40.643620000000006" lon="-2.77686">
        <time>2021-06-19T08:40:40+0000</time>
      </trkpt>
      <trkpt lat="40.643530000000005" lon="-2.7766800000000003">
        <time>2021-06-19T08:40:41+0000</time>
      </trkpt>
      <trkpt lat="40.643440000000005" lon="-2.77651">
        <time>2021-06-19T08:40:42+0000</time>
      </trkpt>
      <trkpt lat="40.643350000000005" lon="-2.7763500000000003">
        <time>2021-06-19T08:40:43+0000</time>
      </trkpt>
      <trkpt lat="40.643260000000005" lon="-2.77618">
        <time>2021-06-19T08:40:44+0000</time>
      </trkpt>
      <trkpt lat="40.643170000000005" lon="-2.7760100000000003">
        <time>2021-06-19T08:40:45+0000</time>
      </trkpt>
      <trkpt lat="40.64307" lon="-2.77585">
        <time>2021-06-19T08:40:46+0000</time>
      </trkpt>
      <trkpt lat="40.64298" lon="-2.7756800000000004">
        <time>2021-06-19T08:40:47+0000</time>
      </trkpt>
      <trkpt lat="40.642900000000004" lon="-2.77552">
        <time>2021-06-19T08:40:48+0000</time>
      </trkpt>
      <trkpt lat="40.642810000000004" lon="-2.77537">
        <time>2021-06-19T08:40:49+0000</time>
      </trkpt>
      <trkpt lat="40.64273" lon="-2.7752100000000004">
        <time>2021-06-19T08:40:50+0000</time>
      </trkpt>
      <trkpt lat="40.64264" lon="-2.7750600000000003">
        <time>2021-06-19T08:40:51+0000</time>
      </trkpt>
      <trkpt lat="40.642520000000005" lon="-2.77495">
        <time>2021-06-19T08:40:52+0000</time>
      </trkpt>
      <trkpt lat="40.64237000000001" lon="-2.77488">
        <time>2021-06-19T08:40:53+0000</time>
      </trkpt>
      <trkpt lat="40.642230000000005" lon="-2.7748000000000004">
        <time>2021-06-19T08:40:54+0000</time>
      </trkpt>
      <trkpt lat="40.642070000000004" lon="-2.77476">
        <time>2021-06-19T08:40:55+0000</time>
      </trkpt>
      <trkpt lat="40.64193" lon="-2.7747200000000003">
        <time>2021-06-19T08:40:56+0000</time>
      </trkpt>
      <trkpt lat="40.64181000000001" lon="-2.7746700000000004">
        <time>2021-06-19T08:40:57+0000</time>
      </trkpt>
      <trkpt lat="40.641690000000004" lon="-2.77463">
        <time>2021-06-19T08:40:58+0000</time>
      </trkpt>
      <trkpt lat="40.641580000000005" lon="-2.7745900000000003">
        <time>2021-06-19T08:40:59+0000</time>
      </trkpt>
      <trkpt lat="40.64148" lon="-2.77456">
        <time>2021-06-19T08:41:00+0000</time>
      </trkpt>
      <trkpt lat="40.641380000000005" lon="-2.7745200000000003">
        <time>2021-06-19T08:41:01+0000</time>
      </trkpt>
      <trkpt lat="40.64128" lon="-2.77448">
        <time>2021-06-19T08:41:02+0000</time>
      </trkpt>
      <trkpt lat="40.64119" lon="-2.7744400000000002">
        <time>2021-06-19T08:41:03+0000</time>
      </trkpt>
      <trkpt lat="40.641110000000005" lon="-2.77441">
        <time>2021-06-19T08:41:04+0000</time>
      </trkpt>
      <trkpt lat="40.641020000000005" lon="-2.7743700000000002">
        <time>2021-06-19T08:41:05+0000</time>
      </trkpt>
      <trkpt lat="40.64094" lon="-2.77434">
        <time>2021-06-19T08:41:06+0000</time>
      </trkpt>
      <trkpt lat="40.64086" lon="-2.7743100000000003">
        <time>2021-06-19T08:41:07+0000</time>
      </trkpt>
      <trkpt lat="40.64078000000001" lon="-2.77428">
        <time>2021-06-19T08:41:08+0000</time>
      </trkpt>
      <trkpt lat="40.640690000000006" lon="-2.7742400000000003">
        <time>2021-06-19T08:41:09+0000</time>
      </trkpt>
      <trkpt lat="40.640600000000006" lon="-2.77421">
        <time>2021-06-19T08:41:10+0000</time>
      </trkpt>
      <trkpt lat="40.640530000000005" lon="-2.7741800000000003">
        <time>2021-06-19T08:41:11+0000</time>
      </trkpt>
      <trkpt lat="40.64045" lon="-2.7741700000000002">
        <time>2021-06-19T08:41:12+0000</time>
      </trkpt>
      <trkpt lat="40.640370000000004" lon="-2.77416">
        <time>2021-06-19T08:41:13+0000</time>
      </trkpt>
      <trkpt lat="40.6403" lon="-2.77416">
        <time>2021-06-19T08:41:14+0000</time>
      </trkpt>
      <trkpt lat="40.64022000000001" lon="-2.7741700000000002">
        <time>2021-06-19T08:41:15+0000</time>
      </trkpt>
      <trkpt lat="40.640150000000006" lon="-2.7741800000000003">
        <time>2021-06-19T08:41:16+0000</time>
      </trkpt>
      <trkpt lat="40.640080000000005" lon="-2.77421">
        <time>2021-06-19T08:41:17+0000</time>
      </trkpt>
      <trkpt lat="40.640010000000004" lon="-2.77423">
        <time>2021-06-19T08:41:18+0000</time>
      </trkpt>
      <trkpt lat="40.63993000000001" lon="-2.77428">
        <time>2021-06-19T08:41:19+0000</time>
      </trkpt>
      <trkpt lat="40.639860000000006" lon="-2.77434">
        <time>2021-06-19T08:41:20+0000</time>
      </trkpt>
      <trkpt lat="40.6398" lon="-2.77443">
        <time>2021-06-19T08:41:21+0000</time>
      </trkpt>
      <trkpt lat="40.63976" lon="-2.77454">
        <time>2021-06-19T08:41:22+0000</time>
      </trkpt>
      <trkpt lat="40.63973" lon="-2.7746600000000003">
        <time>2021-06-19T08:41:23+0000</time>
      </trkpt>
      <trkpt lat="40.63969" lon="-2.7747900000000003">
        <time>2021-06-19T08:41:24+0000</time>
      </trkpt>
      <trkpt lat="40.639660000000006" lon="-2.7749200000000003">
        <time>2021-06-19T08:41:25+0000</time>
      </trkpt>
      <trkpt lat="40.63962" lon="-2.77504">
        <time>2021-06-19T08:41:26+0000</time>
      </trkpt>
      <trkpt lat="40.639590000000005" lon="-2.77516">
        <time>2021-06-19T08:41:27+0000</time>
      </trkpt>
      <trkpt lat="40.63955" lon="-2.7752700000000003">
        <time>2021-06-19T08:41:28+0000</time>
      </trkpt>
      <trkpt lat="40.63951" lon="-2.77537">
        <time>2021-06-19T08:41:29+0000</time>
      </trkpt>
      <trkpt lat="40.63947" lon="-2.7754700000000003">
        <time>2021-06-19T08:41:30+0000</time>
      </trkpt>
      <trkpt lat="40.639430000000004" lon="-2.77557">
        <time>2021-06-19T08:41:31+0000</time>
      </trkpt>
      <trkpt lat="40.639390000000006" lon="-2.7756600000000002">
        <time>2021-06-19T08:41:32+0000</time>
      </trkpt>
      <trkpt lat="40.639340000000004" lon="-2.7757500000000004">
        <time>2021-06-19T08:41:33+0000</time>
      </trkpt>
      <trkpt lat="40.63929" lon="-2.77586">
        <time>2021-06-19T08:41:34+0000</time>
      </trkpt>
      <trkpt lat="40.63924" lon="-2.7759600000000004">
        <time>2021-06-19T08:41:35+0000</time>
      </trkpt>
      <trkpt lat="40.639190000000006" lon="-2.77606">
        <time>2021-06-19T08:41:36+0000</time>
      </trkpt>
      <trkpt lat="40.639160000000004" lon="-2.7761600000000004">
        <time>2021-06-19T08:41:37+0000</time>
      </trkpt>
      <trkpt lat="40.639140000000005" lon="-2.77625">
        <time>2021-06-19T08:41:38+0000</time>
      </trkpt>
      <trkpt lat="40.639120000000005" lon="-2.7763400000000003">
        <time>2021-06-19T08:41:39+0000</time>
      </trkpt>
      <trkpt lat="40.63911" lon="-2.7764300000000004">
        <time>2021-06-19T08:41:40+0000</time>
      </trkpt>
      <trkpt lat="40.639100000000006" lon="-2.77651">
        <time>2021-06-19T08:41:41+0000</time>
      </trkpt>
      <trkpt lat="40.63908" lon="-2.77659">
        <time>2021-06-19T08:41:42+0000</time>
      </trkpt>
      <trkpt lat="40.639050000000005" lon="-2.77666">
        <time>2021-06-19T08:41:43+0000</time>
      </trkpt>
      <trkpt lat="40.63899000000001" lon="-2.77671">
        <time>2021-06-19T08:41:44+0000</time>
      </trkpt>
      <trkpt lat="40.63893" lon="-2.77674">
        <time>2021-06-19T08:41:45+0000</time>
      </trkpt>
      <trkpt lat="40.63886" lon="-2.7767600000000003">
        <time>2021-06-19T08:41:46+0000</time>
      </trkpt>
      <trkpt lat="40.63881000000001" lon="-2.77679">
        <time>2021-06-19T08:41:47+0000</time>
      </trkpt>
      <trkpt lat="40.638740000000006" lon="-2.7766300000000004">
        <time>2021-06-19T08:41:48+0000</time>
      </trkpt>
      <trkpt lat="40.6387" lon="-2.77652">
        <time>2021-06-19T08:41:49+0000</time>
      </trkpt>
      <trkpt lat="40.63866" lon="-2.7764">
        <time>2021-06-19T08:41:50+0000</time>
      </trkpt>
      <trkpt lat="40.63862" lon="-2.77625">
        <time>2021-06-19T08:41:51+0000</time>
      </trkpt>
      <trkpt lat="40.63862" lon="-2.7760900000000004">
        <time>2021-06-19T08:41:52+0000</time>
      </trkpt>
      <trkpt lat="40.63862" lon="-2.7759300000000002">
        <time>2021-06-19T08:41:53+0000</time>
      </trkpt>
      <trkpt lat="40.63861" lon="-2.77576">
        <time>2021-06-19T08:41:54+0000</time>
      </trkpt>
      <trkpt lat="40.63861" lon="-2.7755900000000002">
        <time>2021-06-19T08:41:55+0000</time>
      </trkpt>
      <trkpt lat="40.63861" lon="-2.7754200000000004">
        <time>2021-06-19T08:41:56+0000</time>
      </trkpt>
      <trkpt lat="40.63861" lon="-2.77525">
        <time>2021-06-19T08:41:57+0000</time>
      </trkpt>
      <trkpt lat="40.63861" lon="-2.7751">
        <time>2021-06-19T08:41:58+0000</time>
      </trkpt>
      <trkpt lat="40.63859" lon="-2.77495">
        <time>2021-06-19T08:41:59+0000</time>
      </trkpt>
      <trkpt lat="40.63857" lon="-2.7747900000000003">
        <time>2021-06-19T08:42:00+0000</time>
      </trkpt>
      <trkpt lat="40.638560000000005" lon="-2.77463">
        <time>2021-06-19T08:42:01+0000</time>
      </trkpt>
      <trkpt lat="40.638540000000006" lon="-2.7744600000000004">
        <time>2021-06-19T08:42:02+0000</time>
      </trkpt>
      <trkpt lat="40.63852000000001" lon="-2.7743">
        <time>2021-06-19T08:42:03+0000</time>
      </trkpt>
      <trkpt lat="40.638510000000004" lon="-2.77414">
        <time>2021-06-19T08:42:04+0000</time>
      </trkpt>
      <trkpt lat="40.638510000000004" lon="-2.7739900000000004">
        <time>2021-06-19T08:42:05+0000</time>
      </trkpt>
      <trkpt lat="40.6385" lon="-2.7738400000000003">
        <time>2021-06-19T08:42:06+0000</time>
      </trkpt>
      <trkpt lat="40.63848" lon="-2.77369">
        <time>2021-06-19T08:42:07+0000</time>
      </trkpt>
      <trkpt lat="40.638450000000006" lon="-2.77353">
        <time>2021-06-19T08:42:08+0000</time>
      </trkpt>
      <trkpt lat="40.638400000000004" lon="-2.77335">
        <time>2021-06-19T08:42:09+0000</time>
      </trkpt>
      <trkpt lat="40.63835" lon="-2.7731800000000004">
        <time>2021-06-19T08:42:10+0000</time>
      </trkpt>
      <trkpt lat="40.638290000000005" lon="-2.77301">
        <time>2021-06-19T08:42:11+0000</time>
      </trkpt>
      <trkpt lat="40.638220000000004" lon="-2.7728300000000004">
        <time>2021-06-19T08:42:12+0000</time>
      </trkpt>
      <trkpt lat="40.63815" lon="-2.77267">
        <time>2021-06-19T08:42:13+0000</time>
      </trkpt>
      <trkpt lat="40.638070000000006" lon="-2.77253">
        <time>2021-06-19T08:42:14+0000</time>
      </trkpt>
      <trkpt lat="40.63797" lon="-2.7724">
        <time>2021-06-19T08:42:15+0000</time>
      </trkpt>
      <trkpt lat="40.637840000000004" lon="-2.7722900000000004">
        <time>2021-06-19T08:42:16+0000</time>
      </trkpt>
      <trkpt lat="40.6377" lon="-2.7722">
        <time>2021-06-19T08:42:17+0000</time>
      </trkpt>
      <trkpt lat="40.63756" lon="-2.77213">
        <time>2021-06-19T08:42:18+0000</time>
      </trkpt>
      <trkpt lat="40.63741" lon="-2.77206">
        <time>2021-06-19T08:42:19+0000</time>
      </trkpt>
      <trkpt lat="40.637260000000005" lon="-2.7720100000000003">
        <time>2021-06-19T08:42:20+0000</time>
      </trkpt>
      <trkpt lat="40.63712" lon="-2.7719500000000004">
        <time>2021-06-19T08:42:21+0000</time>
      </trkpt>
      <trkpt lat="40.63698" lon="-2.7718700000000003">
        <time>2021-06-19T08:42:22+0000</time>
      </trkpt>
      <trkpt lat="40.63685" lon="-2.7717600000000004">
        <time>2021-06-19T08:42:23+0000</time>
      </trkpt>
      <trkpt lat="40.636720000000004" lon="-2.7716600000000002">
        <time>2021-06-19T08:42:24+0000</time>
      </trkpt>
      <trkpt lat="40.636590000000005" lon="-2.77159">
        <time>2021-06-19T08:42:25+0000</time>
      </trkpt>
      <trkpt lat="40.63646000000001" lon="-2.7715300000000003">
        <time>2021-06-19T08:42:26+0000</time>
      </trkpt>
      <trkpt lat="40.63633" lon="-2.77143">
        <time>2021-06-19T08:42:27+0000</time>
      </trkpt>
      <trkpt lat="40.636230000000005" lon="-2.7713">
        <time>2021-06-19T08:42:28+0000</time>
      </trkpt>
      <trkpt lat="40.636140000000005" lon="-2.7711400000000004">
        <time>2021-06-19T08:42:29+0000</time>
      </trkpt>
      <trkpt lat="40.636050000000004" lon="-2.77098">
        <time>2021-06-19T08:42:30+0000</time>
      </trkpt>
      <trkpt lat="40.63598" lon="-2.77082">
        <time>2021-06-19T08:42:31+0000</time>
      </trkpt>
      <trkpt lat="40.63590000000001" lon="-2.77068">
        <time>2021-06-19T08:42:32+0000</time>
      </trkpt>
      <trkpt lat="40.635850000000005" lon="-2.77055">
        <time>2021-06-19T08:42:33+0000</time>
      </trkpt>
      <trkpt lat="40.63579" lon="-2.7704400000000002">
        <time>2021-06-19T08:42:34+0000</time>
      </trkpt>
      <trkpt lat="40.63573" lon="-2.77034">
        <time>2021-06-19T08:42:35+0000</time>
      </trkpt>
      <trkpt lat="40.635670000000005" lon="-2.77028">
        <time>2021-06-19T08:42:36+0000</time>
      </trkpt>
      <trkpt lat="40.63559" lon="-2.7702400000000003">
        <time>2021-06-19T08:42:37+0000</time>
      </trkpt>
      <trkpt lat="40.635490000000004" lon="-2.77028">
        <time>2021-06-19T08:42:38+0000</time>
      </trkpt>
      <trkpt lat="40.635400000000004" lon="-2.77037">
        <time>2021-06-19T08:42:39+0000</time>
      </trkpt>
      <trkpt lat="40.63534000000001" lon="-2.7704600000000004">
        <time>2021-06-19T08:42:40+0000</time>
      </trkpt>
      <trkpt lat="40.635270000000006" lon="-2.77055">
        <time>2021-06-19T08:42:41+0000</time>
      </trkpt>
      <trkpt lat="40.63521" lon="-2.77063">
        <time>2021-06-19T08:42:42+0000</time>
      </trkpt>
      <trkpt lat="40.63515" lon="-2.7707">
        <time>2021-06-19T08:42:43+0000</time>
      </trkpt>
      <trkpt lat="40.635110000000005" lon="-2.77075">
        <time>2021-06-19T08:42:44+0000</time>
      </trkpt>
      <trkpt lat="40.635070000000006" lon="-2.77077">
        <time>2021-06-19T08:42:45+0000</time>
      </trkpt>
      <trkpt lat="40.635040000000004" lon="-2.7707900000000003">
        <time>2021-06-19T08:42:46+0000</time>
      </trkpt>
      <trkpt lat="40.635000000000005" lon="-2.7708000000000004">
        <time>2021-06-19T08:42:47+0000</time>
      </trkpt>
      <trkpt lat="40.63497" lon="-2.7707900000000003">
        <time>2021-06-19T08:42:48+0000</time>
      </trkpt>
      <trkpt lat="40.63495" lon="-2.7707800000000002">
        <time>2021-06-19T08:42:49+0000</time>
      </trkpt>
      <trkpt lat="40.634930000000004" lon="-2.7707800000000002">
        <time>2021-06-19T08:42:50+0000</time>
      </trkpt>
      <trkpt lat="40.634910000000005" lon="-2.77077">
        <time>2021-06-19T08:42:51+0000</time>
      </trkpt>
      <trkpt lat="40.634890000000006" lon="-2.77076">
        <time>2021-06-19T08:42:52+0000</time>
      </trkpt>
      <trkpt lat="40.63487000000001" lon="-2.77075">
        <time>2021-06-19T08:42:53+0000</time>
      </trkpt>
      <trkpt lat="40.63485" lon="-2.7707400000000004">
        <time>2021-06-19T08:42:54+0000</time>
      </trkpt>
      <trkpt lat="40.63483" lon="-2.7707300000000004">
        <time>2021-06-19T08:42:55+0000</time>
      </trkpt>
      <trkpt lat="40.63481" lon="-2.7707200000000003">
        <time>2021-06-19T08:42:56+0000</time>
      </trkpt>
      <trkpt lat="40.63479" lon="-2.7707">
        <time>2021-06-19T08:42:57+0000</time>
      </trkpt>
      <trkpt lat="40.63476" lon="-2.77068">
        <time>2021-06-19T08:42:58+0000</time>
      </trkpt>
      <trkpt lat="40.63474" lon="-2.7706500000000003">
        <time>2021-06-19T08:42:59+0000</time>
      </trkpt>
      <trkpt lat="40.63472" lon="-2.77063">
        <time>2021-06-19T08:43:00+0000</time>
      </trkpt>
      <trkpt lat="40.63468" lon="-2.77062">
        <time>2021-06-19T08:43:01+0000</time>
      </trkpt>
      <trkpt lat="40.634640000000005" lon="-2.7705900000000003">
        <time>2021-06-19T08:43:02+0000</time>
      </trkpt>
      <trkpt lat="40.634600000000006" lon="-2.77056">
        <time>2021-06-19T08:43:03+0000</time>
      </trkpt>
      <trkpt lat="40.63456" lon="-2.7705200000000003">
        <time>2021-06-19T08:43:04+0000</time>
      </trkpt>
      <trkpt lat="40.634510000000006" lon="-2.77048">
        <time>2021-06-19T08:43:05+0000</time>
      </trkpt>
      <trkpt lat="40.63447" lon="-2.7704400000000002">
        <time>2021-06-19T08:43:06+0000</time>
      </trkpt>
      <trkpt lat="40.63443" lon="-2.7704000000000004">
        <time>2021-06-19T08:43:07+0000</time>
      </trkpt>
      <trkpt lat="40.63439" lon="-2.77036">
        <time>2021-06-19T08:43:08+0000</time>
      </trkpt>
      <trkpt lat="40.634350000000005" lon="-2.7703300000000004">
        <time>2021-06-19T08:43:09+0000</time>
      </trkpt>
      <trkpt lat="40.634310000000006" lon="-2.7703200000000003">
        <time>2021-06-19T08:43:10+0000</time>
      </trkpt>
      <trkpt lat="40.63425" lon="-2.7703900000000004">
        <time>2021-06-19T08:43:11+0000</time>
      </trkpt>
      <trkpt lat="40.6342" lon="-2.7704600000000004">
        <time>2021-06-19T08:43:12+0000</time>
      </trkpt>
      <trkpt lat="40.63416" lon="-2.77056">
        <time>2021-06-19T08:43:13+0000</time>
      </trkpt>
      <trkpt lat="40.63411000000001" lon="-2.77064">
        <time>2021-06-19T08:43:14+0000</time>
      </trkpt>
      <trkpt lat="40.634060000000005" lon="-2.7707400000000004">
        <time>2021-06-19T08:43:15+0000</time>
      </trkpt>
      <trkpt lat="40.63403" lon="-2.7708500000000003">
        <time>2021-06-19T08:43:16+0000</time>
      </trkpt>
      <trkpt lat="40.63398" lon="-2.77098">
        <time>2021-06-19T08:43:17+0000</time>
      </trkpt>
      <trkpt lat="40.63392" lon="-2.7711300000000003">
        <time>2021-06-19T08:43:18+0000</time>
      </trkpt>
      <trkpt lat="40.63385" lon="-2.7712700000000003">
        <time>2021-06-19T08:43:19+0000</time>
      </trkpt>
      <trkpt lat="40.63378" lon="-2.7714200000000004">
        <time>2021-06-19T08:43:20+0000</time>
      </trkpt>
      <trkpt lat="40.63371" lon="-2.77157">
        <time>2021-06-19T08:43:21+0000</time>
      </trkpt>
      <trkpt lat="40.633610000000004" lon="-2.77171">
        <time>2021-06-19T08:43:22+0000</time>
      </trkpt>
      <trkpt lat="40.633480000000006" lon="-2.77183">
        <time>2021-06-19T08:43:23+0000</time>
      </trkpt>
      <trkpt lat="40.633320000000005" lon="-2.7719500000000004">
        <time>2021-06-19T08:43:24+0000</time>
      </trkpt>
      <trkpt lat="40.63315" lon="-2.77204">
        <time>2021-06-19T08:43:25+0000</time>
      </trkpt>
      <trkpt lat="40.63298" lon="-2.7720900000000004">
        <time>2021-06-19T08:43:26+0000</time>
      </trkpt>
      <trkpt lat="40.63279" lon="-2.77213">
        <time>2021-06-19T08:43:27+0000</time>
      </trkpt>
      <trkpt lat="40.63261000000001" lon="-2.7721600000000004">
        <time>2021-06-19T08:43:28+0000</time>
      </trkpt>
      <trkpt lat="40.63242" lon="-2.7722200000000004">
        <time>2021-06-19T08:43:29+0000</time>
      </trkpt>
      <trkpt lat="40.63224" lon="-2.7722900000000004">
        <time>2021-06-19T08:43:30+0000</time>
      </trkpt>
      <trkpt lat="40.63205000000001" lon="-2.7723700000000004">
        <time>2021-06-19T08:43:31+0000</time>
      </trkpt>
      <trkpt lat="40.631870000000006" lon="-2.77246">
        <time>2021-06-19T08:43:32+0000</time>
      </trkpt>
      <trkpt lat="40.631690000000006" lon="-2.7725600000000004">
        <time>2021-06-19T08:43:33+0000</time>
      </trkpt>
      <trkpt lat="40.631510000000006" lon="-2.77267">
        <time>2021-06-19T08:43:34+0000</time>
      </trkpt>
      <trkpt lat="40.631350000000005" lon="-2.7727700000000004">
        <time>2021-06-19T08:43:35+0000</time>
      </trkpt>
      <trkpt lat="40.63120000000001" lon="-2.77286">
        <time>2021-06-19T08:43:36+0000</time>
      </trkpt>
      <trkpt lat="40.63107" lon="-2.77294">
        <time>2021-06-19T08:43:37+0000</time>
      </trkpt>
      <trkpt lat="40.63094" lon="-2.77301">
        <time>2021-06-19T08:43:38+0000</time>
      </trkpt>
      <trkpt lat="40.63082" lon="-2.77308">
        <time>2021-06-19T08:43:39+0000</time>
      </trkpt>
      <trkpt lat="40.630700000000004" lon="-2.7731600000000003">
        <time>2021-06-19T08:43:40+0000</time>
      </trkpt>
      <trkpt lat="40.63058" lon="-2.7732400000000004">
        <time>2021-06-19T08:43:41+0000</time>
      </trkpt>
      <trkpt lat="40.63046000000001" lon="-2.77334">
        <time>2021-06-19T08:43:42+0000</time>
      </trkpt>
      <trkpt lat="40.630340000000004" lon="-2.7734500000000004">
        <time>2021-06-19T08:43:43+0000</time>
      </trkpt>
      <trkpt lat="40.63022" lon="-2.7735900000000004">
        <time>2021-06-19T08:43:44+0000</time>
      </trkpt>
      <trkpt lat="40.63011" lon="-2.77374">
        <time>2021-06-19T08:43:45+0000</time>
      </trkpt>
      <trkpt lat="40.62998" lon="-2.7739000000000003">
        <time>2021-06-19T08:43:46+0000</time>
      </trkpt>
      <trkpt lat="40.629870000000004" lon="-2.77408">
        <time>2021-06-19T08:43:47+0000</time>
      </trkpt>
      <trkpt lat="40.62977" lon="-2.77429">
        <time>2021-06-19T08:43:48+0000</time>
      </trkpt>
      <trkpt lat="40.629690000000004" lon="-2.7745100000000003">
        <time>2021-06-19T08:43:49+0000</time>
      </trkpt>
      <trkpt lat="40.62961000000001" lon="-2.7747400000000004">
        <time>2021-06-19T08:43:50+0000</time>
      </trkpt>
      <trkpt lat="40.62955" lon="-2.77495">
        <time>2021-06-19T08:43:51+0000</time>
      </trkpt>
      <trkpt lat="40.629450000000006" lon="-2.7751400000000004">
        <time>2021-06-19T08:43:52+0000</time>
      </trkpt>
      <trkpt lat="40.62932" lon="-2.7753">
        <time>2021-06-19T08:43:53+0000</time>
      </trkpt>
      <trkpt lat="40.62917" lon="-2.77544">
        <time>2021-06-19T08:43:54+0000</time>
      </trkpt>
      <trkpt lat="40.629020000000004" lon="-2.77558">
        <time>2021-06-19T08:43:55+0000</time>
      </trkpt>
      <trkpt lat="40.62888" lon="-2.7757400000000003">
        <time>2021-06-19T08:43:56+0000</time>
      </trkpt>
      <trkpt lat="40.62877" lon="-2.7759500000000004">
        <time>2021-06-19T08:43:57+0000</time>
      </trkpt>
      <trkpt lat="40.62867000000001" lon="-2.77617">
        <time>2021-06-19T08:43:58+0000</time>
      </trkpt>
      <trkpt lat="40.62858000000001" lon="-2.77639">
        <time>2021-06-19T08:43:59+0000</time>
      </trkpt>
      <trkpt lat="40.628490000000006" lon="-2.7766">
        <time>2021-06-19T08:44:00+0000</time>
      </trkpt>
      <trkpt lat="40.628400000000006" lon="-2.7768100000000002">
        <time>2021-06-19T08:44:01+0000</time>
      </trkpt>
      <trkpt lat="40.62832" lon="-2.7770200000000003">
        <time>2021-06-19T08:44:02+0000</time>
      </trkpt>
      <trkpt lat="40.628260000000004" lon="-2.7772400000000004">
        <time>2021-06-19T08:44:03+0000</time>
      </trkpt>
      <trkpt lat="40.62818" lon="-2.77746">
        <time>2021-06-19T08:44:04+0000</time>
      </trkpt>
      <trkpt lat="40.62809" lon="-2.77768">
        <time>2021-06-19T08:44:05+0000</time>
      </trkpt>
      <trkpt lat="40.627970000000005" lon="-2.77788">
        <time>2021-06-19T08:44:06+0000</time>
      </trkpt>
      <trkpt lat="40.62785" lon="-2.77809">
        <time>2021-06-19T08:44:07+0000</time>
      </trkpt>
      <trkpt lat="40.62774" lon="-2.77828">
        <time>2021-06-19T08:44:08+0000</time>
      </trkpt>
      <trkpt lat="40.62762" lon="-2.7784600000000004">
        <time>2021-06-19T08:44:09+0000</time>
      </trkpt>
      <trkpt lat="40.627520000000004" lon="-2.77863">
        <time>2021-06-19T08:44:10+0000</time>
      </trkpt>
      <trkpt lat="40.6274" lon="-2.7787900000000003">
        <time>2021-06-19T08:44:11+0000</time>
      </trkpt>
      <trkpt lat="40.62727" lon="-2.7789200000000003">
        <time>2021-06-19T08:44:12+0000</time>
      </trkpt>
      <trkpt lat="40.627140000000004" lon="-2.77904">
        <time>2021-06-19T08:44:13+0000</time>
      </trkpt>
      <trkpt lat="40.627" lon="-2.77916">
        <time>2021-06-19T08:44:14+0000</time>
      </trkpt>
      <trkpt lat="40.626870000000004" lon="-2.7792700000000004">
        <time>2021-06-19T08:44:15+0000</time>
      </trkpt>
      <trkpt lat="40.626740000000005" lon="-2.77938">
        <time>2021-06-19T08:44:16+0000</time>
      </trkpt>
      <trkpt lat="40.62662" lon="-2.77945">
        <time>2021-06-19T08:44:17+0000</time>
      </trkpt>
      <trkpt lat="40.62648" lon="-2.77949">
        <time>2021-06-19T08:44:18+0000</time>
      </trkpt>
      <trkpt lat="40.62633" lon="-2.7795">
        <time>2021-06-19T08:44:19+0000</time>
      </trkpt>
      <trkpt lat="40.62617" lon="-2.77949">
        <time>2021-06-19T08:44:20+0000</time>
      </trkpt>
      <trkpt lat="40.62601" lon="-2.77949">
        <time>2021-06-19T08:44:21+0000</time>
      </trkpt>
      <trkpt lat="40.625870000000006" lon="-2.7795">
        <time>2021-06-19T08:44:22+0000</time>
      </trkpt>
      <trkpt lat="40.62572" lon="-2.77956">
        <time>2021-06-19T08:44:23+0000</time>
      </trkpt>
      <trkpt lat="40.62559" lon="-2.7796900000000004">
        <time>2021-06-19T08:44:24+0000</time>
      </trkpt>
      <trkpt lat="40.62548" lon="-2.7798700000000003">
        <time>2021-06-19T08:44:25+0000</time>
      </trkpt>
      <trkpt lat="40.625350000000005" lon="-2.7800700000000003">
        <time>2021-06-19T08:44:26+0000</time>
      </trkpt>
      <trkpt lat="40.62521" lon="-2.78024">
        <time>2021-06-19T08:44:27+0000</time>
      </trkpt>
      <trkpt lat="40.625020000000006" lon="-2.78038">
        <time>2021-06-19T08:44:28+0000</time>
      </trkpt>
      <trkpt lat="40.62483" lon="-2.78051">
        <time>2021-06-19T08:44:29+0000</time>
      </trkpt>
      <trkpt lat="40.62465" lon="-2.78065">
        <time>2021-06-19T08:44:30+0000</time>
      </trkpt>
      <trkpt lat="40.624460000000006" lon="-2.78078">
        <time>2021-06-19T08:44:31+0000</time>
      </trkpt>
      <trkpt lat="40.62427" lon="-2.7809100000000004">
        <time>2021-06-19T08:44:32+0000</time>
      </trkpt>
      <trkpt lat="40.624100000000006" lon="-2.78106">
        <time>2021-06-19T08:44:33+0000</time>
      </trkpt>
      <trkpt lat="40.62393" lon="-2.7812400000000004">
        <time>2021-06-19T08:44:34+0000</time>
      </trkpt>
      <trkpt lat="40.6238" lon="-2.7814500000000004">
        <time>2021-06-19T08:44:35+0000</time>
      </trkpt>
      <trkpt lat="40.62369" lon="-2.78167">
        <time>2021-06-19T08:44:36+0000</time>
      </trkpt>
      <trkpt lat="40.62357" lon="-2.78188">
        <time>2021-06-19T08:44:37+0000</time>
      </trkpt>
      <trkpt lat="40.623430000000006" lon="-2.78208">
        <time>2021-06-19T08:44:38+0000</time>
      </trkpt>
      <trkpt lat="40.62328" lon="-2.7822600000000004">
        <time>2021-06-19T08:44:39+0000</time>
      </trkpt>
      <trkpt lat="40.62313" lon="-2.7824500000000003">
        <time>2021-06-19T08:44:40+0000</time>
      </trkpt>
      <trkpt lat="40.62299" lon="-2.78263">
        <time>2021-06-19T08:44:41+0000</time>
      </trkpt>
      <trkpt lat="40.62283" lon="-2.78281">
        <time>2021-06-19T08:44:42+0000</time>
      </trkpt>
      <trkpt lat="40.62268" lon="-2.7830000000000004">
        <time>2021-06-19T08:44:43+0000</time>
      </trkpt>
      <trkpt lat="40.622510000000005" lon="-2.7831900000000003">
        <time>2021-06-19T08:44:44+0000</time>
      </trkpt>
      <trkpt lat="40.622350000000004" lon="-2.7834000000000003">
        <time>2021-06-19T08:44:45+0000</time>
      </trkpt>
      <trkpt lat="40.62220000000001" lon="-2.7835900000000002">
        <time>2021-06-19T08:44:46+0000</time>
      </trkpt>
      <trkpt lat="40.622060000000005" lon="-2.78377">
        <time>2021-06-19T08:44:47+0000</time>
      </trkpt>
      <trkpt lat="40.62192" lon="-2.7839400000000003">
        <time>2021-06-19T08:44:48+0000</time>
      </trkpt>
      <trkpt lat="40.621790000000004" lon="-2.78411">
        <time>2021-06-19T08:44:49+0000</time>
      </trkpt>
      <trkpt lat="40.621660000000006" lon="-2.7842700000000002">
        <time>2021-06-19T08:44:50+0000</time>
      </trkpt>
      <trkpt lat="40.621520000000004" lon="-2.78444">
        <time>2021-06-19T08:44:51+0000</time>
      </trkpt>
      <trkpt lat="40.62138" lon="-2.7846200000000003">
        <time>2021-06-19T08:44:52+0000</time>
      </trkpt>
      <trkpt lat="40.62125" lon="-2.7848">
        <time>2021-06-19T08:44:53+0000</time>
      </trkpt>
      <trkpt lat="40.62111" lon="-2.7849700000000004">
        <time>2021-06-19T08:44:54+0000</time>
      </trkpt>
      <trkpt lat="40.620960000000004" lon="-2.7851600000000003">
        <time>2021-06-19T08:44:55+0000</time>
      </trkpt>
      <trkpt lat="40.62082" lon="-2.78534">
        <time>2021-06-19T08:44:56+0000</time>
      </trkpt>
      <trkpt lat="40.620670000000004" lon="-2.78553">
        <time>2021-06-19T08:44:57+0000</time>
      </trkpt>
      <trkpt lat="40.620520000000006" lon="-2.7857200000000004">
        <time>2021-06-19T08:44:58+0000</time>
      </trkpt>
      <trkpt lat="40.62037" lon="-2.7859100000000003">
        <time>2021-06-19T08:44:59+0000</time>
      </trkpt>
      <trkpt lat="40.62022" lon="-2.7861100000000003">
        <time>2021-06-19T08:45:00+0000</time>
      </trkpt>
      <trkpt lat="40.620070000000005" lon="-2.78629">
        <time>2021-06-19T08:45:01+0000</time>
      </trkpt>
      <trkpt lat="40.61992" lon="-2.78648">
        <time>2021-06-19T08:45:02+0000</time>
      </trkpt>
      <trkpt lat="40.61977" lon="-2.7866600000000004">
        <time>2021-06-19T08:45:03+0000</time>
      </trkpt>
      <trkpt lat="40.61963" lon="-2.78684">
        <time>2021-06-19T08:45:04+0000</time>
      </trkpt>
      <trkpt lat="40.61948" lon="-2.78702">
        <time>2021-06-19T08:45:05+0000</time>
      </trkpt>
      <trkpt lat="40.61934" lon="-2.7872000000000003">
        <time>2021-06-19T08:45:06+0000</time>
      </trkpt>
      <trkpt lat="40.619200000000006" lon="-2.78738">
        <time>2021-06-19T08:45:07+0000</time>
      </trkpt>
      <trkpt lat="40.619060000000005" lon="-2.7875500000000004">
        <time>2021-06-19T08:45:08+0000</time>
      </trkpt>
      <trkpt lat="40.61892" lon="-2.7877300000000003">
        <time>2021-06-19T08:45:09+0000</time>
      </trkpt>
      <trkpt lat="40.61878" lon="-2.78791">
        <time>2021-06-19T08:45:10+0000</time>
      </trkpt>
      <trkpt lat="40.618640000000006" lon="-2.7880900000000004">
        <time>2021-06-19T08:45:11+0000</time>
      </trkpt>
      <trkpt lat="40.618500000000004" lon="-2.7882700000000002">
        <time>2021-06-19T08:45:12+0000</time>
      </trkpt>
      <trkpt lat="40.61836" lon="-2.78844">
        <time>2021-06-19T08:45:13+0000</time>
      </trkpt>
      <trkpt lat="40.618230000000004" lon="-2.7886100000000003">
        <time>2021-06-19T08:45:14+0000</time>
      </trkpt>
      <trkpt lat="40.61809" lon="-2.78878">
        <time>2021-06-19T08:45:15+0000</time>
      </trkpt>
      <trkpt lat="40.61795" lon="-2.7889500000000003">
        <time>2021-06-19T08:45:16+0000</time>
      </trkpt>
      <trkpt lat="40.617810000000006" lon="-2.78913">
        <time>2021-06-19T08:45:17+0000</time>
      </trkpt>
      <trkpt lat="40.617670000000004" lon="-2.7893100000000004">
        <time>2021-06-19T08:45:18+0000</time>
      </trkpt>
      <trkpt lat="40.617520000000006" lon="-2.7895000000000003">
        <time>2021-06-19T08:45:19+0000</time>
      </trkpt>
      <trkpt lat="40.61737" lon="-2.7896900000000002">
        <time>2021-06-19T08:45:20+0000</time>
      </trkpt>
      <trkpt lat="40.61721" lon="-2.78989">
        <time>2021-06-19T08:45:21+0000</time>
      </trkpt>
      <trkpt lat="40.617050000000006" lon="-2.79009">
        <time>2021-06-19T08:45:22+0000</time>
      </trkpt>
      <trkpt lat="40.616890000000005" lon="-2.79029">
        <time>2021-06-19T08:45:23+0000</time>
      </trkpt>
      <trkpt lat="40.61674" lon="-2.79049">
        <time>2021-06-19T08:45:24+0000</time>
      </trkpt>
      <trkpt lat="40.616580000000006" lon="-2.79069">
        <time>2021-06-19T08:45:25+0000</time>
      </trkpt>
      <trkpt lat="40.61643" lon="-2.79088">
        <time>2021-06-19T08:45:26+0000</time>
      </trkpt>
      <trkpt lat="40.61627" lon="-2.7910800000000004">
        <time>2021-06-19T08:45:27+0000</time>
      </trkpt>
      <trkpt lat="40.61612" lon="-2.7912700000000004">
        <time>2021-06-19T08:45:28+0000</time>
      </trkpt>
      <trkpt lat="40.615970000000004" lon="-2.7914600000000003">
        <time>2021-06-19T08:45:29+0000</time>
      </trkpt>
      <trkpt lat="40.61582000000001" lon="-2.79165">
        <time>2021-06-19T08:45:30+0000</time>
      </trkpt>
      <trkpt lat="40.61567" lon="-2.79185">
        <time>2021-06-19T08:45:31+0000</time>
      </trkpt>
      <trkpt lat="40.615520000000004" lon="-2.79206">
        <time>2021-06-19T08:45:32+0000</time>
      </trkpt>
      <trkpt lat="40.61538" lon="-2.7922900000000004">
        <time>2021-06-19T08:45:33+0000</time>
      </trkpt>
      <trkpt lat="40.61524" lon="-2.7925400000000002">
        <time>2021-06-19T08:45:34+0000</time>
      </trkpt>
      <trkpt lat="40.615100000000005" lon="-2.79278">
        <time>2021-06-19T08:45:35+0000</time>
      </trkpt>
      <trkpt lat="40.61498" lon="-2.79301">
        <time>2021-06-19T08:45:36+0000</time>
      </trkpt>
      <trkpt lat="40.614850000000004" lon="-2.7932300000000003">
        <time>2021-06-19T08:45:37+0000</time>
      </trkpt>
      <trkpt lat="40.614740000000005" lon="-2.7934400000000004">
        <time>2021-06-19T08:45:38+0000</time>
      </trkpt>
      <trkpt lat="40.614630000000005" lon="-2.7936300000000003">
        <time>2021-06-19T08:45:39+0000</time>
      </trkpt>
      <trkpt lat="40.61453" lon="-2.79381">
        <time>2021-06-19T08:45:40+0000</time>
      </trkpt>
      <trkpt lat="40.61442" lon="-2.794">
        <time>2021-06-19T08:45:41+0000</time>
      </trkpt>
      <trkpt lat="40.61433" lon="-2.7941700000000003">
        <time>2021-06-19T08:45:42+0000</time>
      </trkpt>
      <trkpt lat="40.61424" lon="-2.79434">
        <time>2021-06-19T08:45:43+0000</time>
      </trkpt>
      <trkpt lat="40.61415" lon="-2.79449">
        <time>2021-06-19T08:45:44+0000</time>
      </trkpt>
      <trkpt lat="40.61406" lon="-2.7946400000000002">
        <time>2021-06-19T08:45:45+0000</time>
      </trkpt>
      <trkpt lat="40.61399" lon="-2.79477">
        <time>2021-06-19T08:45:46+0000</time>
      </trkpt>
      <trkpt lat="40.61392" lon="-2.7949200000000003">
        <time>2021-06-19T08:45:47+0000</time>
      </trkpt>
      <trkpt lat="40.61386" lon="-2.79504">
        <time>2021-06-19T08:45:48+0000</time>
      </trkpt>
      <trkpt lat="40.61381" lon="-2.79515">
        <time>2021-06-19T08:45:49+0000</time>
      </trkpt>
      <trkpt lat="40.613760000000006" lon="-2.79523">
        <time>2021-06-19T08:45:50+0000</time>
      </trkpt>
      <trkpt lat="40.613730000000004" lon="-2.7953">
        <time>2021-06-19T08:45:51+0000</time>
      </trkpt>
      <trkpt lat="40.6137" lon="-2.79536">
        <time>2021-06-19T08:45:52+0000</time>
      </trkpt>
      <trkpt lat="40.613670000000006" lon="-2.7954000000000003">
        <time>2021-06-19T08:45:53+0000</time>
      </trkpt>
      <trkpt lat="40.613640000000004" lon="-2.79545">
        <time>2021-06-19T08:45:54+0000</time>
      </trkpt>
      <trkpt lat="40.613620000000004" lon="-2.79549">
        <time>2021-06-19T08:45:55+0000</time>
      </trkpt>
      <trkpt lat="40.61359" lon="-2.7955400000000004">
        <time>2021-06-19T08:45:56+0000</time>
      </trkpt>
      <trkpt lat="40.61357" lon="-2.7955900000000002">
        <time>2021-06-19T08:45:57+0000</time>
      </trkpt>
      <trkpt lat="40.61354" lon="-2.79564">
        <time>2021-06-19T08:45:58+0000</time>
      </trkpt>
      <trkpt lat="40.613510000000005" lon="-2.79569">
        <time>2021-06-19T08:45:59+0000</time>
      </trkpt>
      <trkpt lat="40.61347000000001" lon="-2.7957500000000004">
        <time>2021-06-19T08:46:00+0000</time>
      </trkpt>
      <trkpt lat="40.61343" lon="-2.7958200000000004">
        <time>2021-06-19T08:46:01+0000</time>
      </trkpt>
      <trkpt lat="40.61339" lon="-2.7958900000000004">
        <time>2021-06-19T08:46:02+0000</time>
      </trkpt>
      <trkpt lat="40.613350000000004" lon="-2.79597">
        <time>2021-06-19T08:46:03+0000</time>
      </trkpt>
      <trkpt lat="40.6133" lon="-2.79605">
        <time>2021-06-19T08:46:04+0000</time>
      </trkpt>
      <trkpt lat="40.61325" lon="-2.7961400000000003">
        <time>2021-06-19T08:46:05+0000</time>
      </trkpt>
      <trkpt lat="40.613200000000006" lon="-2.7962300000000004">
        <time>2021-06-19T08:46:06+0000</time>
      </trkpt>
      <trkpt lat="40.61314" lon="-2.79633">
        <time>2021-06-19T08:46:07+0000</time>
      </trkpt>
      <trkpt lat="40.613080000000004" lon="-2.79644">
        <time>2021-06-19T08:46:08+0000</time>
      </trkpt>
      <trkpt lat="40.613020000000006" lon="-2.7965600000000004">
        <time>2021-06-19T08:46:09+0000</time>
      </trkpt>
      <trkpt lat="40.61296" lon="-2.79667">
        <time>2021-06-19T08:46:10+0000</time>
      </trkpt>
      <trkpt lat="40.6129" lon="-2.7967700000000004">
        <time>2021-06-19T08:46:11+0000</time>
      </trkpt>
      <trkpt lat="40.61285" lon="-2.79686">
        <time>2021-06-19T08:46:12+0000</time>
      </trkpt>
      <trkpt lat="40.61281" lon="-2.79693">
        <time>2021-06-19T08:46:13+0000</time>
      </trkpt>
      <trkpt lat="40.612770000000005" lon="-2.797">
        <time>2021-06-19T08:46:14+0000</time>
      </trkpt>
      <trkpt lat="40.612730000000006" lon="-2.79707">
        <time>2021-06-19T08:46:15+0000</time>
      </trkpt>
      <trkpt lat="40.61269" lon="-2.79713">
        <time>2021-06-19T08:46:16+0000</time>
      </trkpt>
      <trkpt lat="40.612660000000005" lon="-2.7972">
        <time>2021-06-19T08:46:17+0000</time>
      </trkpt>
      <trkpt lat="40.61262000000001" lon="-2.79726">
        <time>2021-06-19T08:46:18+0000</time>
      </trkpt>
      <trkpt lat="40.612590000000004" lon="-2.79732">
        <time>2021-06-19T08:46:19+0000</time>
      </trkpt>
      <trkpt lat="40.612550000000006" lon="-2.79739">
        <time>2021-06-19T08:46:20+0000</time>
      </trkpt>
      <trkpt lat="40.61251" lon="-2.7974500000000004">
        <time>2021-06-19T08:46:21+0000</time>
      </trkpt>
      <trkpt lat="40.612480000000005" lon="-2.7975100000000004">
        <time>2021-06-19T08:46:22+0000</time>
      </trkpt>
      <trkpt lat="40.61244000000001" lon="-2.7975800000000004">
        <time>2021-06-19T08:46:23+0000</time>
      </trkpt>
      <trkpt lat="40.612410000000004" lon="-2.7976400000000003">
        <time>2021-06-19T08:46:24+0000</time>
      </trkpt>
      <trkpt lat="40.612370000000006" lon="-2.7976900000000002">
        <time>2021-06-19T08:46:25+0000</time>
      </trkpt>
      <trkpt lat="40.61233" lon="-2.7977200000000004">
        <time>2021-06-19T08:46:26+0000</time>
      </trkpt>
      <trkpt lat="40.61231" lon="-2.79774">
        <time>2021-06-19T08:46:27+0000</time>
      </trkpt>
      <trkpt lat="40.61222" lon="-2.7976500000000004">
        <time>2021-06-19T08:46:28+0000</time>
      </trkpt>
      <trkpt lat="40.612170000000006" lon="-2.79759">
        <time>2021-06-19T08:46:29+0000</time>
      </trkpt>
      <trkpt lat="40.61211" lon="-2.7975100000000004">
        <time>2021-06-19T08:46:30+0000</time>
      </trkpt>
      <trkpt lat="40.612010000000005" lon="-2.7974300000000003">
        <time>2021-06-19T08:46:31+0000</time>
      </trkpt>
      <trkpt lat="40.611900000000006" lon="-2.79733">
        <time>2021-06-19T08:46:32+0000</time>
      </trkpt>
      <trkpt lat="40.6118" lon="-2.7972300000000003">
        <time>2021-06-19T08:46:33+0000</time>
      </trkpt>
      <trkpt lat="40.61168" lon="-2.79712">
        <time>2021-06-19T08:46:34+0000</time>
      </trkpt>
      <trkpt lat="40.61157" lon="-2.79699">
        <time>2021-06-19T08:46:35+0000</time>
      </trkpt>
      <trkpt lat="40.611470000000004" lon="-2.79686">
        <time>2021-06-19T08:46:36+0000</time>
      </trkpt>
      <trkpt lat="40.61139" lon="-2.7966800000000003">
        <time>2021-06-19T08:46:37+0000</time>
      </trkpt>
      <trkpt lat="40.611320000000006" lon="-2.7964700000000002">
        <time>2021-06-19T08:46:38+0000</time>
      </trkpt>
      <trkpt lat="40.61126" lon="-2.7962700000000003">
        <time>2021-06-19T08:46:39+0000</time>
      </trkpt>
      <trkpt lat="40.611200000000004" lon="-2.7960700000000003">
        <time>2021-06-19T08:46:40+0000</time>
      </trkpt>
      <trkpt lat="40.611140000000006" lon="-2.7958700000000003">
        <time>2021-06-19T08:46:41+0000</time>
      </trkpt>
      <trkpt lat="40.611090000000004" lon="-2.79569">
        <time>2021-06-19T08:46:42+0000</time>
      </trkpt>
      <trkpt lat="40.61104" lon="-2.79551">
        <time>2021-06-19T08:46:43+0000</time>
      </trkpt>
      <trkpt lat="40.61099" lon="-2.7953300000000003">
        <time>2021-06-19T08:46:44+0000</time>
      </trkpt>
      <trkpt lat="40.61097" lon="-2.79516">
        <time>2021-06-19T08:46:45+0000</time>
      </trkpt>
      <trkpt lat="40.61095" lon="-2.79497">
        <time>2021-06-19T08:46:46+0000</time>
      </trkpt>
      <trkpt lat="40.610960000000006" lon="-2.79477">
        <time>2021-06-19T08:46:47+0000</time>
      </trkpt>
      <trkpt lat="40.610960000000006" lon="-2.79456">
        <time>2021-06-19T08:46:48+0000</time>
      </trkpt>
      <trkpt lat="40.61097" lon="-2.79435">
        <time>2021-06-19T08:46:49+0000</time>
      </trkpt>
      <trkpt lat="40.610980000000005" lon="-2.7941200000000004">
        <time>2021-06-19T08:46:50+0000</time>
      </trkpt>
      <trkpt lat="40.610980000000005" lon="-2.79389">
        <time>2021-06-19T08:46:51+0000</time>
      </trkpt>
      <trkpt lat="40.61099" lon="-2.79366">
        <time>2021-06-19T08:46:52+0000</time>
      </trkpt>
      <trkpt lat="40.610980000000005" lon="-2.7934300000000003">
        <time>2021-06-19T08:46:53+0000</time>
      </trkpt>
      <trkpt lat="40.61099" lon="-2.7932200000000003">
        <time>2021-06-19T08:46:54+0000</time>
      </trkpt>
      <trkpt lat="40.61099" lon="-2.79301">
        <time>2021-06-19T08:46:55+0000</time>
      </trkpt>
      <trkpt lat="40.611000000000004" lon="-2.7928200000000003">
        <time>2021-06-19T08:46:56+0000</time>
      </trkpt>
      <trkpt lat="40.611000000000004" lon="-2.79264">
        <time>2021-06-19T08:46:57+0000</time>
      </trkpt>
      <trkpt lat="40.61101" lon="-2.7924800000000003">
        <time>2021-06-19T08:46:58+0000</time>
      </trkpt>
      <trkpt lat="40.61101" lon="-2.79232">
        <time>2021-06-19T08:46:59+0000</time>
      </trkpt>
      <trkpt lat="40.611000000000004" lon="-2.7921600000000004">
        <time>2021-06-19T08:47:00+0000</time>
      </trkpt>
      <trkpt lat="40.611000000000004" lon="-2.7920000000000003">
        <time>2021-06-19T08:47:01+0000</time>
      </trkpt>
      <trkpt lat="40.611000000000004" lon="-2.79183">
        <time>2021-06-19T08:47:02+0000</time>
      </trkpt>
      <trkpt lat="40.61101" lon="-2.79164">
        <time>2021-06-19T08:47:03+0000</time>
      </trkpt>
      <trkpt lat="40.61101" lon="-2.79145">
        <time>2021-06-19T08:47:04+0000</time>
      </trkpt>
      <trkpt lat="40.61101" lon="-2.7912500000000002">
        <time>2021-06-19T08:47:05+0000</time>
      </trkpt>
      <trkpt lat="40.61101" lon="-2.79104">
        <time>2021-06-19T08:47:06+0000</time>
      </trkpt>
      <trkpt lat="40.61101" lon="-2.79084">
        <time>2021-06-19T08:47:07+0000</time>
      </trkpt>
      <trkpt lat="40.61101" lon="-2.79063">
        <time>2021-06-19T08:47:08+0000</time>
      </trkpt>
      <trkpt lat="40.61099" lon="-2.79043">
        <time>2021-06-19T08:47:09+0000</time>
      </trkpt>
      <trkpt lat="40.61097" lon="-2.7902400000000003">
        <time>2021-06-19T08:47:10+0000</time>
      </trkpt>
      <trkpt lat="40.61093" lon="-2.7900500000000004">
        <time>2021-06-19T08:47:11+0000</time>
      </trkpt>
      <trkpt lat="40.610890000000005" lon="-2.78988">
        <time>2021-06-19T08:47:12+0000</time>
      </trkpt>
      <trkpt lat="40.61086" lon="-2.7897100000000004">
        <time>2021-06-19T08:47:13+0000</time>
      </trkpt>
      <trkpt lat="40.610820000000004" lon="-2.78955">
        <time>2021-06-19T08:47:14+0000</time>
      </trkpt>
      <trkpt lat="40.610780000000005" lon="-2.78939">
        <time>2021-06-19T08:47:15+0000</time>
      </trkpt>
      <trkpt lat="40.610730000000004" lon="-2.7892400000000004">
        <time>2021-06-19T08:47:16+0000</time>
      </trkpt>
      <trkpt lat="40.610690000000005" lon="-2.78907">
        <time>2021-06-19T08:47:17+0000</time>
      </trkpt>
      <trkpt lat="40.61066" lon="-2.7888900000000003">
        <time>2021-06-19T08:47:18+0000</time>
      </trkpt>
      <trkpt lat="40.610620000000004" lon="-2.7887000000000004">
        <time>2021-06-19T08:47:19+0000</time>
      </trkpt>
      <trkpt lat="40.61059" lon="-2.78852">
        <time>2021-06-19T08:47:20+0000</time>
      </trkpt>
      <trkpt lat="40.61056000000001" lon="-2.7883400000000003">
        <time>2021-06-19T08:47:21+0000</time>
      </trkpt>
      <trkpt lat="40.61054" lon="-2.78818">
        <time>2021-06-19T08:47:22+0000</time>
      </trkpt>
      <trkpt lat="40.61052" lon="-2.78803">
        <time>2021-06-19T08:47:23+0000</time>
      </trkpt>
      <trkpt lat="40.6105" lon="-2.7879">
        <time>2021-06-19T08:47:24+0000</time>
      </trkpt>
      <trkpt lat="40.61048" lon="-2.78776">
        <time>2021-06-19T08:47:25+0000</time>
      </trkpt>
      <trkpt lat="40.61046" lon="-2.7876100000000004">
        <time>2021-06-19T08:47:26+0000</time>
      </trkpt>
      <trkpt lat="40.61045" lon="-2.78745">
        <time>2021-06-19T08:47:27+0000</time>
      </trkpt>
      <trkpt lat="40.61043" lon="-2.7873">
        <time>2021-06-19T08:47:28+0000</time>
      </trkpt>
      <trkpt lat="40.61041" lon="-2.78715">
        <time>2021-06-19T08:47:29+0000</time>
      </trkpt>
      <trkpt lat="40.61039" lon="-2.7869900000000003">
        <time>2021-06-19T08:47:30+0000</time>
      </trkpt>
      <trkpt lat="40.61037" lon="-2.78684">
        <time>2021-06-19T08:47:31+0000</time>
      </trkpt>
      <trkpt lat="40.61036" lon="-2.78668">
        <time>2021-06-19T08:47:32+0000</time>
      </trkpt>
      <trkpt lat="40.61034" lon="-2.7865200000000003">
        <time>2021-06-19T08:47:33+0000</time>
      </trkpt>
      <trkpt lat="40.61032" lon="-2.78635">
        <time>2021-06-19T08:47:34+0000</time>
      </trkpt>
      <trkpt lat="40.6103" lon="-2.7861800000000003">
        <time>2021-06-19T08:47:35+0000</time>
      </trkpt>
      <trkpt lat="40.61028" lon="-2.7859900000000004">
        <time>2021-06-19T08:47:36+0000</time>
      </trkpt>
      <trkpt lat="40.610260000000004" lon="-2.78581">
        <time>2021-06-19T08:47:37+0000</time>
      </trkpt>
      <trkpt lat="40.61023" lon="-2.78562">
        <time>2021-06-19T08:47:38+0000</time>
      </trkpt>
      <trkpt lat="40.61021" lon="-2.7854200000000002">
        <time>2021-06-19T08:47:39+0000</time>
      </trkpt>
      <trkpt lat="40.61019" lon="-2.7852300000000003">
        <time>2021-06-19T08:47:40+0000</time>
      </trkpt>
      <trkpt lat="40.610170000000004" lon="-2.7850300000000003">
        <time>2021-06-19T08:47:41+0000</time>
      </trkpt>
      <trkpt lat="40.610150000000004" lon="-2.7848300000000004">
        <time>2021-06-19T08:47:42+0000</time>
      </trkpt>
      <trkpt lat="40.610130000000005" lon="-2.7846200000000003">
        <time>2021-06-19T08:47:43+0000</time>
      </trkpt>
      <trkpt lat="40.6101" lon="-2.7844100000000003">
        <time>2021-06-19T08:47:44+0000</time>
      </trkpt>
      <trkpt lat="40.61008" lon="-2.7842000000000002">
        <time>2021-06-19T08:47:45+0000</time>
      </trkpt>
      <trkpt lat="40.610060000000004" lon="-2.78398">
        <time>2021-06-19T08:47:46+0000</time>
      </trkpt>
      <trkpt lat="40.610040000000005" lon="-2.78377">
        <time>2021-06-19T08:47:47+0000</time>
      </trkpt>
      <trkpt lat="40.61001" lon="-2.78356">
        <time>2021-06-19T08:47:48+0000</time>
      </trkpt>
      <trkpt lat="40.60999" lon="-2.78336">
        <time>2021-06-19T08:47:49+0000</time>
      </trkpt>
      <trkpt lat="40.609970000000004" lon="-2.78316">
        <time>2021-06-19T08:47:50+0000</time>
      </trkpt>
      <trkpt lat="40.609950000000005" lon="-2.7829800000000002">
        <time>2021-06-19T08:47:51+0000</time>
      </trkpt>
      <trkpt lat="40.609930000000006" lon="-2.78281">
        <time>2021-06-19T08:47:52+0000</time>
      </trkpt>
      <trkpt lat="40.609910000000006" lon="-2.7826400000000002">
        <time>2021-06-19T08:47:53+0000</time>
      </trkpt>
      <trkpt lat="40.60989" lon="-2.7824700000000004">
        <time>2021-06-19T08:47:54+0000</time>
      </trkpt>
      <trkpt lat="40.60987" lon="-2.7823">
        <time>2021-06-19T08:47:55+0000</time>
      </trkpt>
      <trkpt lat="40.60985" lon="-2.7821100000000003">
        <time>2021-06-19T08:47:56+0000</time>
      </trkpt>
      <trkpt lat="40.60983" lon="-2.7819000000000003">
        <time>2021-06-19T08:47:57+0000</time>
      </trkpt>
      <trkpt lat="40.60981" lon="-2.78168">
        <time>2021-06-19T08:47:58+0000</time>
      </trkpt>
      <trkpt lat="40.60978" lon="-2.78146">
        <time>2021-06-19T08:47:59+0000</time>
      </trkpt>
      <trkpt lat="40.60976" lon="-2.7812200000000002">
        <time>2021-06-19T08:48:00+0000</time>
      </trkpt>
      <trkpt lat="40.609730000000006" lon="-2.78098">
        <time>2021-06-19T08:48:01+0000</time>
      </trkpt>
      <trkpt lat="40.60971000000001" lon="-2.78073">
        <time>2021-06-19T08:48:02+0000</time>
      </trkpt>
      <trkpt lat="40.609680000000004" lon="-2.7804900000000004">
        <time>2021-06-19T08:48:03+0000</time>
      </trkpt>
      <trkpt lat="40.60965" lon="-2.78024">
        <time>2021-06-19T08:48:04+0000</time>
      </trkpt>
      <trkpt lat="40.60962000000001" lon="-2.7800000000000002">
        <time>2021-06-19T08:48:05+0000</time>
      </trkpt>
      <trkpt lat="40.6096" lon="-2.7797500000000004">
        <time>2021-06-19T08:48:06+0000</time>
      </trkpt>
      <trkpt lat="40.609570000000005" lon="-2.77952">
        <time>2021-06-19T08:48:07+0000</time>
      </trkpt>
      <trkpt lat="40.609550000000006" lon="-2.77929">
        <time>2021-06-19T08:48:08+0000</time>
      </trkpt>
      <trkpt lat="40.60953000000001" lon="-2.7790600000000003">
        <time>2021-06-19T08:48:09+0000</time>
      </trkpt>
      <trkpt lat="40.60951" lon="-2.77884">
        <time>2021-06-19T08:48:10+0000</time>
      </trkpt>
      <trkpt lat="40.609480000000005" lon="-2.77861">
        <time>2021-06-19T08:48:11+0000</time>
      </trkpt>
      <trkpt lat="40.609460000000006" lon="-2.7783800000000003">
        <time>2021-06-19T08:48:12+0000</time>
      </trkpt>
      <trkpt lat="40.609440000000006" lon="-2.7781700000000003">
        <time>2021-06-19T08:48:13+0000</time>
      </trkpt>
      <trkpt lat="40.60942" lon="-2.7779700000000003">
        <time>2021-06-19T08:48:14+0000</time>
      </trkpt>
      <trkpt lat="40.6094" lon="-2.7777700000000003">
        <time>2021-06-19T08:48:15+0000</time>
      </trkpt>
      <trkpt lat="40.60938" lon="-2.7775600000000003">
        <time>2021-06-19T08:48:16+0000</time>
      </trkpt>
      <trkpt lat="40.609350000000006" lon="-2.77734">
        <time>2021-06-19T08:48:17+0000</time>
      </trkpt>
      <trkpt lat="40.60933" lon="-2.7771100000000004">
        <time>2021-06-19T08:48:18+0000</time>
      </trkpt>
      <trkpt lat="40.609300000000005" lon="-2.77686">
        <time>2021-06-19T08:48:19+0000</time>
      </trkpt>
      <trkpt lat="40.60927" lon="-2.7766100000000002">
        <time>2021-06-19T08:48:20+0000</time>
      </trkpt>
      <trkpt lat="40.60925" lon="-2.7763600000000004">
        <time>2021-06-19T08:48:21+0000</time>
      </trkpt>
      <trkpt lat="40.60922" lon="-2.77611">
        <time>2021-06-19T08:48:22+0000</time>
      </trkpt>
      <trkpt lat="40.6092" lon="-2.77586">
        <time>2021-06-19T08:48:23+0000</time>
      </trkpt>
      <trkpt lat="40.60918" lon="-2.77563">
        <time>2021-06-19T08:48:24+0000</time>
      </trkpt>
      <trkpt lat="40.60915000000001" lon="-2.7754000000000003">
        <time>2021-06-19T08:48:25+0000</time>
      </trkpt>
      <trkpt lat="40.609120000000004" lon="-2.77517">
        <time>2021-06-19T08:48:26+0000</time>
      </trkpt>
      <trkpt lat="40.609100000000005" lon="-2.7749300000000003">
        <time>2021-06-19T08:48:27+0000</time>
      </trkpt>
      <trkpt lat="40.60907" lon="-2.7746700000000004">
        <time>2021-06-19T08:48:28+0000</time>
      </trkpt>
      <trkpt lat="40.609030000000004" lon="-2.77443">
        <time>2021-06-19T08:48:29+0000</time>
      </trkpt>
      <trkpt lat="40.609" lon="-2.7741800000000003">
        <time>2021-06-19T08:48:30+0000</time>
      </trkpt>
      <trkpt lat="40.60898" lon="-2.77393">
        <time>2021-06-19T08:48:31+0000</time>
      </trkpt>
      <trkpt lat="40.60895" lon="-2.7737000000000003">
        <time>2021-06-19T08:48:32+0000</time>
      </trkpt>
      <trkpt lat="40.60893" lon="-2.77347">
        <time>2021-06-19T08:48:33+0000</time>
      </trkpt>
      <trkpt lat="40.608900000000006" lon="-2.77327">
        <time>2021-06-19T08:48:34+0000</time>
      </trkpt>
      <trkpt lat="40.608880000000006" lon="-2.77308">
        <time>2021-06-19T08:48:35+0000</time>
      </trkpt>
      <trkpt lat="40.608880000000006" lon="-2.7729000000000004">
        <time>2021-06-19T08:48:36+0000</time>
      </trkpt>
      <trkpt lat="40.60886" lon="-2.77272">
        <time>2021-06-19T08:48:37+0000</time>
      </trkpt>
      <trkpt lat="40.60884" lon="-2.7725400000000002">
        <time>2021-06-19T08:48:38+0000</time>
      </trkpt>
      <trkpt lat="40.608810000000005" lon="-2.7723400000000002">
        <time>2021-06-19T08:48:39+0000</time>
      </trkpt>
      <trkpt lat="40.608790000000006" lon="-2.77213">
        <time>2021-06-19T08:48:40+0000</time>
      </trkpt>
      <trkpt lat="40.608760000000004" lon="-2.77192">
        <time>2021-06-19T08:48:41+0000</time>
      </trkpt>
      <trkpt lat="40.608740000000004" lon="-2.7717">
        <time>2021-06-19T08:48:42+0000</time>
      </trkpt>
      <trkpt lat="40.608720000000005" lon="-2.7714800000000004">
        <time>2021-06-19T08:48:43+0000</time>
      </trkpt>
      <trkpt lat="40.608700000000006" lon="-2.7712700000000003">
        <time>2021-06-19T08:48:44+0000</time>
      </trkpt>
      <trkpt lat="40.608670000000004" lon="-2.7710700000000004">
        <time>2021-06-19T08:48:45+0000</time>
      </trkpt>
      <trkpt lat="40.608650000000004" lon="-2.7708700000000004">
        <time>2021-06-19T08:48:46+0000</time>
      </trkpt>
      <trkpt lat="40.608630000000005" lon="-2.77068">
        <time>2021-06-19T08:48:47+0000</time>
      </trkpt>
      <trkpt lat="40.608610000000006" lon="-2.77048">
        <time>2021-06-19T08:48:48+0000</time>
      </trkpt>
      <trkpt lat="40.60859000000001" lon="-2.77027">
        <time>2021-06-19T08:48:49+0000</time>
      </trkpt>
      <trkpt lat="40.608560000000004" lon="-2.7700600000000004">
        <time>2021-06-19T08:48:50+0000</time>
      </trkpt>
      <trkpt lat="40.608540000000005" lon="-2.7698600000000004">
        <time>2021-06-19T08:48:51+0000</time>
      </trkpt>
      <trkpt lat="40.608520000000006" lon="-2.7696500000000004">
        <time>2021-06-19T08:48:52+0000</time>
      </trkpt>
      <trkpt lat="40.60849" lon="-2.7694400000000003">
        <time>2021-06-19T08:48:53+0000</time>
      </trkpt>
      <trkpt lat="40.608470000000004" lon="-2.7692300000000003">
        <time>2021-06-19T08:48:54+0000</time>
      </trkpt>
      <trkpt lat="40.60844" lon="-2.76901">
        <time>2021-06-19T08:48:55+0000</time>
      </trkpt>
      <trkpt lat="40.60842" lon="-2.76879">
        <time>2021-06-19T08:48:56+0000</time>
      </trkpt>
      <trkpt lat="40.6084" lon="-2.7685600000000004">
        <time>2021-06-19T08:48:57+0000</time>
      </trkpt>
      <trkpt lat="40.60837" lon="-2.76833">
        <time>2021-06-19T08:48:58+0000</time>
      </trkpt>
      <trkpt lat="40.60835" lon="-2.7680900000000004">
        <time>2021-06-19T08:48:59+0000</time>
      </trkpt>
      <trkpt lat="40.608320000000006" lon="-2.7678700000000003">
        <time>2021-06-19T08:49:00+0000</time>
      </trkpt>
      <trkpt lat="40.6083" lon="-2.7676600000000002">
        <time>2021-06-19T08:49:01+0000</time>
      </trkpt>
      <trkpt lat="40.60828" lon="-2.7674600000000003">
        <time>2021-06-19T08:49:02+0000</time>
      </trkpt>
      <trkpt lat="40.60826" lon="-2.7672700000000003">
        <time>2021-06-19T08:49:03+0000</time>
      </trkpt>
      <trkpt lat="40.60824" lon="-2.76709">
        <time>2021-06-19T08:49:04+0000</time>
      </trkpt>
      <trkpt lat="40.60822" lon="-2.76689">
        <time>2021-06-19T08:49:05+0000</time>
      </trkpt>
      <trkpt lat="40.608200000000004" lon="-2.76668">
        <time>2021-06-19T08:49:06+0000</time>
      </trkpt>
      <trkpt lat="40.608160000000005" lon="-2.76648">
        <time>2021-06-19T08:49:07+0000</time>
      </trkpt>
      <trkpt lat="40.608140000000006" lon="-2.76627">
        <time>2021-06-19T08:49:08+0000</time>
      </trkpt>
      <trkpt lat="40.60811" lon="-2.7660500000000003">
        <time>2021-06-19T08:49:09+0000</time>
      </trkpt>
      <trkpt lat="40.6081" lon="-2.7658400000000003">
        <time>2021-06-19T08:49:10+0000</time>
      </trkpt>
      <trkpt lat="40.60806" lon="-2.7656300000000003">
        <time>2021-06-19T08:49:11+0000</time>
      </trkpt>
      <trkpt lat="40.60797" lon="-2.7654400000000003">
        <time>2021-06-19T08:49:12+0000</time>
      </trkpt>
      <trkpt lat="40.607870000000005" lon="-2.7652500000000004">
        <time>2021-06-19T08:49:13+0000</time>
      </trkpt>
      <trkpt lat="40.60775" lon="-2.7650900000000003">
        <time>2021-06-19T08:49:14+0000</time>
      </trkpt>
      <trkpt lat="40.60763" lon="-2.76492">
        <time>2021-06-19T08:49:15+0000</time>
      </trkpt>
      <trkpt lat="40.607510000000005" lon="-2.7647600000000003">
        <time>2021-06-19T08:49:16+0000</time>
      </trkpt>
      <trkpt lat="40.60739" lon="-2.7646">
        <time>2021-06-19T08:49:17+0000</time>
      </trkpt>
      <trkpt lat="40.60728" lon="-2.7644300000000004">
        <time>2021-06-19T08:49:18+0000</time>
      </trkpt>
      <trkpt lat="40.60717" lon="-2.7642900000000004">
        <time>2021-06-19T08:49:19+0000</time>
      </trkpt>
      <trkpt lat="40.607060000000004" lon="-2.7641500000000003">
        <time>2021-06-19T08:49:20+0000</time>
      </trkpt>
      <trkpt lat="40.60696" lon="-2.7640000000000002">
        <time>2021-06-19T08:49:21+0000</time>
      </trkpt>
      <trkpt lat="40.606860000000005" lon="-2.76385">
        <time>2021-06-19T08:49:22+0000</time>
      </trkpt>
      <trkpt lat="40.606790000000004" lon="-2.7636600000000002">
        <time>2021-06-19T08:49:23+0000</time>
      </trkpt>
      <trkpt lat="40.606750000000005" lon="-2.76343">
        <time>2021-06-19T08:49:24+0000</time>
      </trkpt>
      <trkpt lat="40.606730000000006" lon="-2.7632100000000004">
        <time>2021-06-19T08:49:25+0000</time>
      </trkpt>
      <trkpt lat="40.60672" lon="-2.76298">
        <time>2021-06-19T08:49:26+0000</time>
      </trkpt>
      <trkpt lat="40.60671000000001" lon="-2.76277">
        <time>2021-06-19T08:49:27+0000</time>
      </trkpt>
      <trkpt lat="40.60671000000001" lon="-2.7625800000000003">
        <time>2021-06-19T08:49:28+0000</time>
      </trkpt>
      <trkpt lat="40.60671000000001" lon="-2.7623800000000003">
        <time>2021-06-19T08:49:29+0000</time>
      </trkpt>
      <trkpt lat="40.606700000000004" lon="-2.7621800000000003">
        <time>2021-06-19T08:49:30+0000</time>
      </trkpt>
      <trkpt lat="40.606700000000004" lon="-2.7619800000000003">
        <time>2021-06-19T08:49:31+0000</time>
      </trkpt>
      <trkpt lat="40.606700000000004" lon="-2.7617700000000003">
        <time>2021-06-19T08:49:32+0000</time>
      </trkpt>
      <trkpt lat="40.606700000000004" lon="-2.7615600000000002">
        <time>2021-06-19T08:49:33+0000</time>
      </trkpt>
      <trkpt lat="40.60669" lon="-2.76135">
        <time>2021-06-19T08:49:34+0000</time>
      </trkpt>
      <trkpt lat="40.60669" lon="-2.76114">
        <time>2021-06-19T08:49:35+0000</time>
      </trkpt>
      <trkpt lat="40.60669" lon="-2.76092">
        <time>2021-06-19T08:49:36+0000</time>
      </trkpt>
      <trkpt lat="40.606680000000004" lon="-2.7607000000000004">
        <time>2021-06-19T08:49:37+0000</time>
      </trkpt>
      <trkpt lat="40.606680000000004" lon="-2.7604800000000003">
        <time>2021-06-19T08:49:38+0000</time>
      </trkpt>
      <trkpt lat="40.606680000000004" lon="-2.76026">
        <time>2021-06-19T08:49:39+0000</time>
      </trkpt>
      <trkpt lat="40.606680000000004" lon="-2.76004">
        <time>2021-06-19T08:49:40+0000</time>
      </trkpt>
      <trkpt lat="40.60667" lon="-2.7598100000000003">
        <time>2021-06-19T08:49:41+0000</time>
      </trkpt>
      <trkpt lat="40.60667" lon="-2.75958">
        <time>2021-06-19T08:49:42+0000</time>
      </trkpt>
      <trkpt lat="40.60667" lon="-2.7593400000000003">
        <time>2021-06-19T08:49:43+0000</time>
      </trkpt>
      <trkpt lat="40.606660000000005" lon="-2.75909">
        <time>2021-06-19T08:49:44+0000</time>
      </trkpt>
      <trkpt lat="40.606660000000005" lon="-2.7588500000000002">
        <time>2021-06-19T08:49:45+0000</time>
      </trkpt>
      <trkpt lat="40.606660000000005" lon="-2.7586000000000004">
        <time>2021-06-19T08:49:46+0000</time>
      </trkpt>
      <trkpt lat="40.60665" lon="-2.75836">
        <time>2021-06-19T08:49:47+0000</time>
      </trkpt>
      <trkpt lat="40.60665" lon="-2.7581300000000004">
        <time>2021-06-19T08:49:48+0000</time>
      </trkpt>
      <trkpt lat="40.60665" lon="-2.7579100000000003">
        <time>2021-06-19T08:49:49+0000</time>
      </trkpt>
      <trkpt lat="40.606640000000006" lon="-2.75769">
        <time>2021-06-19T08:49:50+0000</time>
      </trkpt>
      <trkpt lat="40.606640000000006" lon="-2.75748">
        <time>2021-06-19T08:49:51+0000</time>
      </trkpt>
      <trkpt lat="40.606640000000006" lon="-2.75726">
        <time>2021-06-19T08:49:52+0000</time>
      </trkpt>
      <trkpt lat="40.606640000000006" lon="-2.7570500000000004">
        <time>2021-06-19T08:49:53+0000</time>
      </trkpt>
      <trkpt lat="40.60663" lon="-2.75685">
        <time>2021-06-19T08:49:54+0000</time>
      </trkpt>
      <trkpt lat="40.60663" lon="-2.7566900000000003">
        <time>2021-06-19T08:49:55+0000</time>
      </trkpt>
      <trkpt lat="40.60663" lon="-2.7565500000000003">
        <time>2021-06-19T08:49:56+0000</time>
      </trkpt>
      <trkpt lat="40.60663" lon="-2.75645">
        <time>2021-06-19T08:49:57+0000</time>
      </trkpt>
      <trkpt lat="40.60663" lon="-2.7563500000000003">
        <time>2021-06-19T08:49:58+0000</time>
      </trkpt>
      <trkpt lat="40.60661" lon="-2.75626">
        <time>2021-06-19T08:49:59+0000</time>
      </trkpt>
      <trkpt lat="40.60661" lon="-2.75618">
        <time>2021-06-19T08:50:00+0000</time>
      </trkpt>
      <trkpt lat="40.6066" lon="-2.75611">
        <time>2021-06-19T08:50:01+0000</time>
      </trkpt>
      <trkpt lat="40.6066" lon="-2.7560300000000004">
        <time>2021-06-19T08:50:02+0000</time>
      </trkpt>
      <trkpt lat="40.6066" lon="-2.75592">
        <time>2021-06-19T08:50:03+0000</time>
      </trkpt>
      <trkpt lat="40.606590000000004" lon="-2.7558100000000003">
        <time>2021-06-19T08:50:04+0000</time>
      </trkpt>
      <trkpt lat="40.606590000000004" lon="-2.7556900000000004">
        <time>2021-06-19T08:50:05+0000</time>
      </trkpt>
      <trkpt lat="40.606590000000004" lon="-2.7555500000000004">
        <time>2021-06-19T08:50:06+0000</time>
      </trkpt>
      <trkpt lat="40.606590000000004" lon="-2.7554100000000004">
        <time>2021-06-19T08:50:07+0000</time>
      </trkpt>
      <trkpt lat="40.60658" lon="-2.7552600000000003">
        <time>2021-06-19T08:50:08+0000</time>
      </trkpt>
      <trkpt lat="40.60658" lon="-2.7551200000000002">
        <time>2021-06-19T08:50:09+0000</time>
      </trkpt>
      <trkpt lat="40.60658" lon="-2.7549900000000003">
        <time>2021-06-19T08:50:10+0000</time>
      </trkpt>
      <trkpt lat="40.60658" lon="-2.7548700000000004">
        <time>2021-06-19T08:50:11+0000</time>
      </trkpt>
      <trkpt lat="40.60658" lon="-2.75476">
        <time>2021-06-19T08:50:12+0000</time>
      </trkpt>
      <trkpt lat="40.606570000000005" lon="-2.7546600000000003">
        <time>2021-06-19T08:50:13+0000</time>
      </trkpt>
      <trkpt lat="40.606570000000005" lon="-2.75456">
        <time>2021-06-19T08:50:14+0000</time>
      </trkpt>
      <trkpt lat="40.606570000000005" lon="-2.7544600000000004">
        <time>2021-06-19T08:50:15+0000</time>
      </trkpt>
      <trkpt lat="40.606570000000005" lon="-2.75437">
        <time>2021-06-19T08:50:16+0000</time>
      </trkpt>
      <trkpt lat="40.60656" lon="-2.75428">
        <time>2021-06-19T08:50:17+0000</time>
      </trkpt>
      <trkpt lat="40.60656" lon="-2.7542000000000004">
        <time>2021-06-19T08:50:18+0000</time>
      </trkpt>
      <trkpt lat="40.60656" lon="-2.7541100000000003">
        <time>2021-06-19T08:50:19+0000</time>
      </trkpt>
      <trkpt lat="40.60656" lon="-2.75401">
        <time>2021-06-19T08:50:20+0000</time>
      </trkpt>
      <trkpt lat="40.60656" lon="-2.7539100000000003">
        <time>2021-06-19T08:50:21+0000</time>
      </trkpt>
      <trkpt lat="40.606550000000006" lon="-2.7538">
        <time>2021-06-19T08:50:22+0000</time>
      </trkpt>
      <trkpt lat="40.60654" lon="-2.75369">
        <time>2021-06-19T08:50:23+0000</time>
      </trkpt>
      <trkpt lat="40.60653000000001" lon="-2.7535800000000004">
        <time>2021-06-19T08:50:24+0000</time>
      </trkpt>
      <trkpt lat="40.60652" lon="-2.75346">
        <time>2021-06-19T08:50:25+0000</time>
      </trkpt>
      <trkpt lat="40.60652" lon="-2.75334">
        <time>2021-06-19T08:50:26+0000</time>
      </trkpt>
      <trkpt lat="40.60651" lon="-2.7532200000000002">
        <time>2021-06-19T08:50:27+0000</time>
      </trkpt>
      <trkpt lat="40.606500000000004" lon="-2.7531100000000004">
        <time>2021-06-19T08:50:28+0000</time>
      </trkpt>
      <trkpt lat="40.60649" lon="-2.75299">
        <time>2021-06-19T08:50:29+0000</time>
      </trkpt>
      <trkpt lat="40.606480000000005" lon="-2.75288">
        <time>2021-06-19T08:50:30+0000</time>
      </trkpt>
      <trkpt lat="40.60647" lon="-2.7527700000000004">
        <time>2021-06-19T08:50:31+0000</time>
      </trkpt>
      <trkpt lat="40.60647" lon="-2.75266">
        <time>2021-06-19T08:50:32+0000</time>
      </trkpt>
      <trkpt lat="40.606460000000006" lon="-2.7525600000000003">
        <time>2021-06-19T08:50:33+0000</time>
      </trkpt>
      <trkpt lat="40.60645" lon="-2.75245">
        <time>2021-06-19T08:50:34+0000</time>
      </trkpt>
      <trkpt lat="40.60642" lon="-2.7523400000000002">
        <time>2021-06-19T08:50:35+0000</time>
      </trkpt>
      <trkpt lat="40.606350000000006" lon="-2.75227">
        <time>2021-06-19T08:50:36+0000</time>
      </trkpt>
      <trkpt lat="40.60627" lon="-2.75227">
        <time>2021-06-19T08:50:37+0000</time>
      </trkpt>
      <trkpt lat="40.60618" lon="-2.75231">
        <time>2021-06-19T08:50:38+0000</time>
      </trkpt>
      <trkpt lat="40.60607" lon="-2.7523500000000003">
        <time>2021-06-19T08:50:39+0000</time>
      </trkpt>
      <trkpt lat="40.60596" lon="-2.75239">
        <time>2021-06-19T08:50:40+0000</time>
      </trkpt>
      <trkpt lat="40.60586" lon="-2.75245">
        <time>2021-06-19T08:50:41+0000</time>
      </trkpt>
      <trkpt lat="40.605740000000004" lon="-2.75251">
        <time>2021-06-19T08:50:42+0000</time>
      </trkpt>
      <trkpt lat="40.605610000000006" lon="-2.7525700000000004">
        <time>2021-06-19T08:50:43+0000</time>
      </trkpt>
      <trkpt lat="40.60549" lon="-2.7526300000000004">
        <time>2021-06-19T08:50:44+0000</time>
      </trkpt>
      <trkpt lat="40.605360000000005" lon="-2.7526900000000003">
        <time>2021-06-19T08:50:45+0000</time>
      </trkpt>
      <trkpt lat="40.60524" lon="-2.75274">
        <time>2021-06-19T08:50:46+0000</time>
      </trkpt>
      <trkpt lat="40.60512000000001" lon="-2.7528">
        <time>2021-06-19T08:50:47+0000</time>
      </trkpt>
      <trkpt lat="40.605000000000004" lon="-2.75285">
        <time>2021-06-19T08:50:48+0000</time>
      </trkpt>
      <trkpt lat="40.604870000000005" lon="-2.7529100000000004">
        <time>2021-06-19T08:50:49+0000</time>
      </trkpt>
      <trkpt lat="40.60474000000001" lon="-2.7529700000000004">
        <time>2021-06-19T08:50:50+0000</time>
      </trkpt>
      <trkpt lat="40.60461" lon="-2.7530400000000004">
        <time>2021-06-19T08:50:51+0000</time>
      </trkpt>
      <trkpt lat="40.60448" lon="-2.7531100000000004">
        <time>2021-06-19T08:50:52+0000</time>
      </trkpt>
      <trkpt lat="40.60434" lon="-2.7531800000000004">
        <time>2021-06-19T08:50:53+0000</time>
      </trkpt>
      <trkpt lat="40.60421" lon="-2.75326">
        <time>2021-06-19T08:50:54+0000</time>
      </trkpt>
      <trkpt lat="40.60408" lon="-2.7533200000000004">
        <time>2021-06-19T08:50:55+0000</time>
      </trkpt>
      <trkpt lat="40.60394" lon="-2.7533600000000003">
        <time>2021-06-19T08:50:56+0000</time>
      </trkpt>
      <trkpt lat="40.60378" lon="-2.75335">
        <time>2021-06-19T08:50:57+0000</time>
      </trkpt>
      <trkpt lat="40.60363" lon="-2.7533100000000004">
        <time>2021-06-19T08:50:58+0000</time>
      </trkpt>
      <trkpt lat="40.60347" lon="-2.7532500000000004">
        <time>2021-06-19T08:50:59+0000</time>
      </trkpt>
      <trkpt lat="40.603320000000004" lon="-2.7532">
        <time>2021-06-19T08:51:00+0000</time>
      </trkpt>
      <trkpt lat="40.603170000000006" lon="-2.75314">
        <time>2021-06-19T08:51:01+0000</time>
      </trkpt>
      <trkpt lat="40.60304" lon="-2.7531000000000003">
        <time>2021-06-19T08:51:02+0000</time>
      </trkpt>
      <trkpt lat="40.602920000000005" lon="-2.75307">
        <time>2021-06-19T08:51:03+0000</time>
      </trkpt>
      <trkpt lat="40.602790000000006" lon="-2.7530900000000003">
        <time>2021-06-19T08:51:04+0000</time>
      </trkpt>
      <trkpt lat="40.60267" lon="-2.75314">
        <time>2021-06-19T08:51:05+0000</time>
      </trkpt>
      <trkpt lat="40.602540000000005" lon="-2.7532500000000004">
        <time>2021-06-19T08:51:06+0000</time>
      </trkpt>
      <trkpt lat="40.602410000000006" lon="-2.7533700000000003">
        <time>2021-06-19T08:51:07+0000</time>
      </trkpt>
      <trkpt lat="40.60229" lon="-2.75349">
        <time>2021-06-19T08:51:08+0000</time>
      </trkpt>
      <trkpt lat="40.602160000000005" lon="-2.75361">
        <time>2021-06-19T08:51:09+0000</time>
      </trkpt>
      <trkpt lat="40.602050000000006" lon="-2.7537200000000004">
        <time>2021-06-19T08:51:10+0000</time>
      </trkpt>
      <trkpt lat="40.60193" lon="-2.7538300000000002">
        <time>2021-06-19T08:51:11+0000</time>
      </trkpt>
      <trkpt lat="40.601820000000004" lon="-2.75394">
        <time>2021-06-19T08:51:12+0000</time>
      </trkpt>
      <trkpt lat="40.6017" lon="-2.7540500000000003">
        <time>2021-06-19T08:51:13+0000</time>
      </trkpt>
      <trkpt lat="40.601580000000006" lon="-2.7541700000000002">
        <time>2021-06-19T08:51:14+0000</time>
      </trkpt>
      <trkpt lat="40.60146" lon="-2.75429">
        <time>2021-06-19T08:51:15+0000</time>
      </trkpt>
      <trkpt lat="40.601330000000004" lon="-2.75442">
        <time>2021-06-19T08:51:16+0000</time>
      </trkpt>
      <trkpt lat="40.60121" lon="-2.7545400000000004">
        <time>2021-06-19T08:51:17+0000</time>
      </trkpt>
      <trkpt lat="40.60108" lon="-2.75468">
        <time>2021-06-19T08:51:18+0000</time>
      </trkpt>
      <trkpt lat="40.60096" lon="-2.7548100000000004">
        <time>2021-06-19T08:51:19+0000</time>
      </trkpt>
      <trkpt lat="40.60083" lon="-2.7549400000000004">
        <time>2021-06-19T08:51:20+0000</time>
      </trkpt>
      <trkpt lat="40.60071000000001" lon="-2.7550700000000004">
        <time>2021-06-19T08:51:21+0000</time>
      </trkpt>
      <trkpt lat="40.600590000000004" lon="-2.75518">
        <time>2021-06-19T08:51:22+0000</time>
      </trkpt>
      <trkpt lat="40.600460000000005" lon="-2.75529">
        <time>2021-06-19T08:51:23+0000</time>
      </trkpt>
      <trkpt lat="40.60032" lon="-2.7553900000000002">
        <time>2021-06-19T08:51:24+0000</time>
      </trkpt>
      <trkpt lat="40.60018" lon="-2.7554700000000003">
        <time>2021-06-19T08:51:25+0000</time>
      </trkpt>
      <trkpt lat="40.60002" lon="-2.7555300000000003">
        <time>2021-06-19T08:51:26+0000</time>
      </trkpt>
      <trkpt lat="40.59986000000001" lon="-2.75559">
        <time>2021-06-19T08:51:27+0000</time>
      </trkpt>
      <trkpt lat="40.59969" lon="-2.75566">
        <time>2021-06-19T08:51:28+0000</time>
      </trkpt>
      <trkpt lat="40.59953" lon="-2.75572">
        <time>2021-06-19T08:51:29+0000</time>
      </trkpt>
      <trkpt lat="40.599360000000004" lon="-2.75579">
        <time>2021-06-19T08:51:30+0000</time>
      </trkpt>
      <trkpt lat="40.5992" lon="-2.75585">
        <time>2021-06-19T08:51:31+0000</time>
      </trkpt>
      <trkpt lat="40.59904" lon="-2.75592">
        <time>2021-06-19T08:51:32+0000</time>
      </trkpt>
      <trkpt lat="40.598870000000005" lon="-2.75598">
        <time>2021-06-19T08:51:33+0000</time>
      </trkpt>
      <trkpt lat="40.598690000000005" lon="-2.75604">
        <time>2021-06-19T08:51:34+0000</time>
      </trkpt>
      <trkpt lat="40.598510000000005" lon="-2.7560900000000004">
        <time>2021-06-19T08:51:35+0000</time>
      </trkpt>
      <trkpt lat="40.598330000000004" lon="-2.75613">
        <time>2021-06-19T08:51:36+0000</time>
      </trkpt>
      <trkpt lat="40.598150000000004" lon="-2.75617">
        <time>2021-06-19T08:51:37+0000</time>
      </trkpt>
      <trkpt lat="40.59796" lon="-2.7562">
        <time>2021-06-19T08:51:38+0000</time>
      </trkpt>
      <trkpt lat="40.59779" lon="-2.7562300000000004">
        <time>2021-06-19T08:51:39+0000</time>
      </trkpt>
      <trkpt lat="40.59761" lon="-2.75626">
        <time>2021-06-19T08:51:40+0000</time>
      </trkpt>
      <trkpt lat="40.597440000000006" lon="-2.7562900000000004">
        <time>2021-06-19T08:51:41+0000</time>
      </trkpt>
      <trkpt lat="40.59727" lon="-2.75632">
        <time>2021-06-19T08:51:42+0000</time>
      </trkpt>
      <trkpt lat="40.597080000000005" lon="-2.7563400000000002">
        <time>2021-06-19T08:51:43+0000</time>
      </trkpt>
      <trkpt lat="40.596900000000005" lon="-2.7563500000000003">
        <time>2021-06-19T08:51:44+0000</time>
      </trkpt>
      <trkpt lat="40.596720000000005" lon="-2.75633">
        <time>2021-06-19T08:51:45+0000</time>
      </trkpt>
      <trkpt lat="40.596560000000004" lon="-2.75627">
        <time>2021-06-19T08:51:46+0000</time>
      </trkpt>
      <trkpt lat="40.59638" lon="-2.75619">
        <time>2021-06-19T08:51:47+0000</time>
      </trkpt>
      <trkpt lat="40.596210000000006" lon="-2.75611">
        <time>2021-06-19T08:51:48+0000</time>
      </trkpt>
      <trkpt lat="40.59604" lon="-2.75604">
        <time>2021-06-19T08:51:49+0000</time>
      </trkpt>
      <trkpt lat="40.59586" lon="-2.7559600000000004">
        <time>2021-06-19T08:51:50+0000</time>
      </trkpt>
      <trkpt lat="40.595690000000005" lon="-2.7558900000000004">
        <time>2021-06-19T08:51:51+0000</time>
      </trkpt>
      <trkpt lat="40.595530000000004" lon="-2.7558000000000002">
        <time>2021-06-19T08:51:52+0000</time>
      </trkpt>
      <trkpt lat="40.59536000000001" lon="-2.75571">
        <time>2021-06-19T08:51:53+0000</time>
      </trkpt>
      <trkpt lat="40.59519" lon="-2.7556200000000004">
        <time>2021-06-19T08:51:54+0000</time>
      </trkpt>
      <trkpt lat="40.595020000000005" lon="-2.7555300000000003">
        <time>2021-06-19T08:51:55+0000</time>
      </trkpt>
      <trkpt lat="40.594840000000005" lon="-2.75544">
        <time>2021-06-19T08:51:56+0000</time>
      </trkpt>
      <trkpt lat="40.59467" lon="-2.7553500000000004">
        <time>2021-06-19T08:51:57+0000</time>
      </trkpt>
      <trkpt lat="40.594500000000004" lon="-2.7552600000000003">
        <time>2021-06-19T08:51:58+0000</time>
      </trkpt>
      <trkpt lat="40.59433000000001" lon="-2.75516">
        <time>2021-06-19T08:51:59+0000</time>
      </trkpt>
      <trkpt lat="40.594150000000006" lon="-2.7550700000000004">
        <time>2021-06-19T08:52:00+0000</time>
      </trkpt>
      <trkpt lat="40.59398" lon="-2.75498">
        <time>2021-06-19T08:52:01+0000</time>
      </trkpt>
      <trkpt lat="40.5938" lon="-2.75489">
        <time>2021-06-19T08:52:02+0000</time>
      </trkpt>
      <trkpt lat="40.593630000000005" lon="-2.7547900000000003">
        <time>2021-06-19T08:52:03+0000</time>
      </trkpt>
      <trkpt lat="40.593450000000004" lon="-2.7547">
        <time>2021-06-19T08:52:04+0000</time>
      </trkpt>
      <trkpt lat="40.59328" lon="-2.7546100000000004">
        <time>2021-06-19T08:52:05+0000</time>
      </trkpt>
      <trkpt lat="40.59310000000001" lon="-2.7545200000000003">
        <time>2021-06-19T08:52:06+0000</time>
      </trkpt>
      <trkpt lat="40.59293" lon="-2.75443">
        <time>2021-06-19T08:52:07+0000</time>
      </trkpt>
      <trkpt lat="40.59277" lon="-2.75434">
        <time>2021-06-19T08:52:08+0000</time>
      </trkpt>
      <trkpt lat="40.59261" lon="-2.7542500000000003">
        <time>2021-06-19T08:52:09+0000</time>
      </trkpt>
      <trkpt lat="40.59244" lon="-2.75416">
        <time>2021-06-19T08:52:10+0000</time>
      </trkpt>
      <trkpt lat="40.592270000000006" lon="-2.75407">
        <time>2021-06-19T08:52:11+0000</time>
      </trkpt>
      <trkpt lat="40.5921" lon="-2.7539900000000004">
        <time>2021-06-19T08:52:12+0000</time>
      </trkpt>
      <trkpt lat="40.591930000000005" lon="-2.7539000000000002">
        <time>2021-06-19T08:52:13+0000</time>
      </trkpt>
      <trkpt lat="40.591770000000004" lon="-2.75381">
        <time>2021-06-19T08:52:14+0000</time>
      </trkpt>
      <trkpt lat="40.59160000000001" lon="-2.7537200000000004">
        <time>2021-06-19T08:52:15+0000</time>
      </trkpt>
      <trkpt lat="40.59142000000001" lon="-2.7536400000000003">
        <time>2021-06-19T08:52:16+0000</time>
      </trkpt>
      <trkpt lat="40.591240000000006" lon="-2.7535800000000004">
        <time>2021-06-19T08:52:17+0000</time>
      </trkpt>
      <trkpt lat="40.59105" lon="-2.75353">
        <time>2021-06-19T08:52:18+0000</time>
      </trkpt>
      <trkpt lat="40.59085" lon="-2.7535000000000003">
        <time>2021-06-19T08:52:19+0000</time>
      </trkpt>
      <trkpt lat="40.590650000000004" lon="-2.75348">
        <time>2021-06-19T08:52:20+0000</time>
      </trkpt>
      <trkpt lat="40.59044" lon="-2.7534500000000004">
        <time>2021-06-19T08:52:21+0000</time>
      </trkpt>
      <trkpt lat="40.59024" lon="-2.75342">
        <time>2021-06-19T08:52:22+0000</time>
      </trkpt>
      <trkpt lat="40.59004" lon="-2.75339">
        <time>2021-06-19T08:52:23+0000</time>
      </trkpt>
      <trkpt lat="40.589850000000006" lon="-2.7533700000000003">
        <time>2021-06-19T08:52:24+0000</time>
      </trkpt>
      <trkpt lat="40.58966" lon="-2.75334">
        <time>2021-06-19T08:52:25+0000</time>
      </trkpt>
      <trkpt lat="40.589470000000006" lon="-2.7533200000000004">
        <time>2021-06-19T08:52:26+0000</time>
      </trkpt>
      <trkpt lat="40.589270000000006" lon="-2.7532900000000002">
        <time>2021-06-19T08:52:27+0000</time>
      </trkpt>
      <trkpt lat="40.58908" lon="-2.75327">
        <time>2021-06-19T08:52:28+0000</time>
      </trkpt>
      <trkpt lat="40.58888" lon="-2.7532400000000004">
        <time>2021-06-19T08:52:29+0000</time>
      </trkpt>
      <trkpt lat="40.588680000000004" lon="-2.75321">
        <time>2021-06-19T08:52:30+0000</time>
      </trkpt>
      <trkpt lat="40.588480000000004" lon="-2.7531800000000004">
        <time>2021-06-19T08:52:31+0000</time>
      </trkpt>
      <trkpt lat="40.588280000000005" lon="-2.7531600000000003">
        <time>2021-06-19T08:52:32+0000</time>
      </trkpt>
      <trkpt lat="40.588080000000005" lon="-2.75313">
        <time>2021-06-19T08:52:33+0000</time>
      </trkpt>
      <trkpt lat="40.587880000000006" lon="-2.7531000000000003">
        <time>2021-06-19T08:52:34+0000</time>
      </trkpt>
      <trkpt lat="40.587680000000006" lon="-2.75308">
        <time>2021-06-19T08:52:35+0000</time>
      </trkpt>
      <trkpt lat="40.58749" lon="-2.7530500000000004">
        <time>2021-06-19T08:52:36+0000</time>
      </trkpt>
      <trkpt lat="40.58731" lon="-2.7530300000000003">
        <time>2021-06-19T08:52:37+0000</time>
      </trkpt>
      <trkpt lat="40.58713" lon="-2.753">
        <time>2021-06-19T08:52:38+0000</time>
      </trkpt>
      <trkpt lat="40.58695" lon="-2.7529800000000004">
        <time>2021-06-19T08:52:39+0000</time>
      </trkpt>
      <trkpt lat="40.586780000000005" lon="-2.7529600000000003">
        <time>2021-06-19T08:52:40+0000</time>
      </trkpt>
      <trkpt lat="40.586600000000004" lon="-2.75293">
        <time>2021-06-19T08:52:41+0000</time>
      </trkpt>
      <trkpt lat="40.58641" lon="-2.7529000000000003">
        <time>2021-06-19T08:52:42+0000</time>
      </trkpt>
      <trkpt lat="40.58623" lon="-2.75287">
        <time>2021-06-19T08:52:43+0000</time>
      </trkpt>
      <trkpt lat="40.586040000000004" lon="-2.7528400000000004">
        <time>2021-06-19T08:52:44+0000</time>
      </trkpt>
      <trkpt lat="40.58585" lon="-2.75281">
        <time>2021-06-19T08:52:45+0000</time>
      </trkpt>
      <trkpt lat="40.58565" lon="-2.7528">
        <time>2021-06-19T08:52:46+0000</time>
      </trkpt>
      <trkpt lat="40.58545" lon="-2.7528">
        <time>2021-06-19T08:52:47+0000</time>
      </trkpt>
      <trkpt lat="40.585240000000006" lon="-2.75281">
        <time>2021-06-19T08:52:48+0000</time>
      </trkpt>
      <trkpt lat="40.58503" lon="-2.7528300000000003">
        <time>2021-06-19T08:52:49+0000</time>
      </trkpt>
      <trkpt lat="40.584810000000004" lon="-2.7528400000000004">
        <time>2021-06-19T08:52:50+0000</time>
      </trkpt>
      <trkpt lat="40.58457000000001" lon="-2.75286">
        <time>2021-06-19T08:52:51+0000</time>
      </trkpt>
      <trkpt lat="40.58433" lon="-2.75286">
        <time>2021-06-19T08:52:52+0000</time>
      </trkpt>
      <trkpt lat="40.58410000000001" lon="-2.75287">
        <time>2021-06-19T08:52:53+0000</time>
      </trkpt>
      <trkpt lat="40.58386" lon="-2.7528400000000004">
        <time>2021-06-19T08:52:54+0000</time>
      </trkpt>
      <trkpt lat="40.58364" lon="-2.7528200000000003">
        <time>2021-06-19T08:52:55+0000</time>
      </trkpt>
      <trkpt lat="40.583420000000004" lon="-2.7528">
        <time>2021-06-19T08:52:56+0000</time>
      </trkpt>
      <trkpt lat="40.58321" lon="-2.7527700000000004">
        <time>2021-06-19T08:52:57+0000</time>
      </trkpt>
      <trkpt lat="40.58301" lon="-2.7527500000000003">
        <time>2021-06-19T08:52:58+0000</time>
      </trkpt>
      <trkpt lat="40.582820000000005" lon="-2.75273">
        <time>2021-06-19T08:52:59+0000</time>
      </trkpt>
      <trkpt lat="40.582640000000005" lon="-2.7527000000000004">
        <time>2021-06-19T08:53:00+0000</time>
      </trkpt>
      <trkpt lat="40.582460000000005" lon="-2.7526200000000003">
        <time>2021-06-19T08:53:01+0000</time>
      </trkpt>
      <trkpt lat="40.582300000000004" lon="-2.7524900000000003">
        <time>2021-06-19T08:53:02+0000</time>
      </trkpt>
      <trkpt lat="40.58214" lon="-2.75233">
        <time>2021-06-19T08:53:03+0000</time>
      </trkpt>
      <trkpt lat="40.581990000000005" lon="-2.7521400000000003">
        <time>2021-06-19T08:53:04+0000</time>
      </trkpt>
      <trkpt lat="40.58185" lon="-2.7519500000000003">
        <time>2021-06-19T08:53:05+0000</time>
      </trkpt>
      <trkpt lat="40.58171" lon="-2.75178">
        <time>2021-06-19T08:53:06+0000</time>
      </trkpt>
      <trkpt lat="40.581570000000006" lon="-2.7516000000000003">
        <time>2021-06-19T08:53:07+0000</time>
      </trkpt>
      <trkpt lat="40.58144" lon="-2.75144">
        <time>2021-06-19T08:53:08+0000</time>
      </trkpt>
      <trkpt lat="40.58131" lon="-2.7512800000000004">
        <time>2021-06-19T08:53:09+0000</time>
      </trkpt>
      <trkpt lat="40.58119000000001" lon="-2.7511300000000003">
        <time>2021-06-19T08:53:10+0000</time>
      </trkpt>
      <trkpt lat="40.58108" lon="-2.7509900000000003">
        <time>2021-06-19T08:53:11+0000</time>
      </trkpt>
      <trkpt lat="40.58097" lon="-2.7508600000000003">
        <time>2021-06-19T08:53:12+0000</time>
      </trkpt>
      <trkpt lat="40.580870000000004" lon="-2.7507300000000003">
        <time>2021-06-19T08:53:13+0000</time>
      </trkpt>
      <trkpt lat="40.58077" lon="-2.7506000000000004">
        <time>2021-06-19T08:53:14+0000</time>
      </trkpt>
      <trkpt lat="40.580670000000005" lon="-2.75048">
        <time>2021-06-19T08:53:15+0000</time>
      </trkpt>
      <trkpt lat="40.58057" lon="-2.7503800000000003">
        <time>2021-06-19T08:53:16+0000</time>
      </trkpt>
      <trkpt lat="40.580470000000005" lon="-2.75028">
        <time>2021-06-19T08:53:17+0000</time>
      </trkpt>
      <trkpt lat="40.58037" lon="-2.7501700000000002">
        <time>2021-06-19T08:53:18+0000</time>
      </trkpt>
      <trkpt lat="40.58028" lon="-2.7500600000000004">
        <time>2021-06-19T08:53:19+0000</time>
      </trkpt>
      <trkpt lat="40.58017" lon="-2.7499900000000004">
        <time>2021-06-19T08:53:20+0000</time>
      </trkpt>
      <trkpt lat="40.58006" lon="-2.74996">
        <time>2021-06-19T08:53:21+0000</time>
      </trkpt>
      <trkpt lat="40.57994" lon="-2.7499700000000002">
        <time>2021-06-19T08:53:22+0000</time>
      </trkpt>
      <trkpt lat="40.579820000000005" lon="-2.7500000000000004">
        <time>2021-06-19T08:53:23+0000</time>
      </trkpt>
      <trkpt lat="40.57969000000001" lon="-2.7500400000000003">
        <time>2021-06-19T08:53:24+0000</time>
      </trkpt>
      <trkpt lat="40.579570000000004" lon="-2.75008">
        <time>2021-06-19T08:53:25+0000</time>
      </trkpt>
      <trkpt lat="40.579440000000005" lon="-2.7501300000000004">
        <time>2021-06-19T08:53:26+0000</time>
      </trkpt>
      <trkpt lat="40.57932" lon="-2.7501800000000003">
        <time>2021-06-19T08:53:27+0000</time>
      </trkpt>
      <trkpt lat="40.5792" lon="-2.75022">
        <time>2021-06-19T08:53:28+0000</time>
      </trkpt>
      <trkpt lat="40.57907" lon="-2.7502400000000002">
        <time>2021-06-19T08:53:29+0000</time>
      </trkpt>
      <trkpt lat="40.57894" lon="-2.7502500000000003">
        <time>2021-06-19T08:53:30+0000</time>
      </trkpt>
      <trkpt lat="40.57882" lon="-2.75023">
        <time>2021-06-19T08:53:31+0000</time>
      </trkpt>
      <trkpt lat="40.578700000000005" lon="-2.7502000000000004">
        <time>2021-06-19T08:53:32+0000</time>
      </trkpt>
      <trkpt lat="40.578570000000006" lon="-2.7501700000000002">
        <time>2021-06-19T08:53:33+0000</time>
      </trkpt>
      <trkpt lat="40.578450000000004" lon="-2.7501700000000002">
        <time>2021-06-19T08:53:34+0000</time>
      </trkpt>
      <trkpt lat="40.578320000000005" lon="-2.75016">
        <time>2021-06-19T08:53:35+0000</time>
      </trkpt>
      <trkpt lat="40.578190000000006" lon="-2.7501800000000003">
        <time>2021-06-19T08:53:36+0000</time>
      </trkpt>
      <trkpt lat="40.57806" lon="-2.7501900000000004">
        <time>2021-06-19T08:53:37+0000</time>
      </trkpt>
      <trkpt lat="40.57793" lon="-2.75022">
        <time>2021-06-19T08:53:38+0000</time>
      </trkpt>
      <trkpt lat="40.5778" lon="-2.7502600000000004">
        <time>2021-06-19T08:53:39+0000</time>
      </trkpt>
      <trkpt lat="40.577670000000005" lon="-2.7503">
        <time>2021-06-19T08:53:40+0000</time>
      </trkpt>
      <trkpt lat="40.577540000000006" lon="-2.75035">
        <time>2021-06-19T08:53:41+0000</time>
      </trkpt>
      <trkpt lat="40.577400000000004" lon="-2.7503900000000003">
        <time>2021-06-19T08:53:42+0000</time>
      </trkpt>
      <trkpt lat="40.577270000000006" lon="-2.75044">
        <time>2021-06-19T08:53:43+0000</time>
      </trkpt>
      <trkpt lat="40.577130000000004" lon="-2.75048">
        <time>2021-06-19T08:53:44+0000</time>
      </trkpt>
      <trkpt lat="40.577000000000005" lon="-2.7505200000000003">
        <time>2021-06-19T08:53:45+0000</time>
      </trkpt>
      <trkpt lat="40.57687000000001" lon="-2.75057">
        <time>2021-06-19T08:53:46+0000</time>
      </trkpt>
      <trkpt lat="40.57674" lon="-2.75062">
        <time>2021-06-19T08:53:47+0000</time>
      </trkpt>
      <trkpt lat="40.57663" lon="-2.7507">
        <time>2021-06-19T08:53:48+0000</time>
      </trkpt>
      <trkpt lat="40.576530000000005" lon="-2.7508100000000004">
        <time>2021-06-19T08:53:49+0000</time>
      </trkpt>
      <trkpt lat="40.57645" lon="-2.75095">
        <time>2021-06-19T08:53:50+0000</time>
      </trkpt>
      <trkpt lat="40.57639" lon="-2.7511200000000002">
        <time>2021-06-19T08:53:51+0000</time>
      </trkpt>
      <trkpt lat="40.576330000000006" lon="-2.75129">
        <time>2021-06-19T08:53:52+0000</time>
      </trkpt>
      <trkpt lat="40.576280000000004" lon="-2.7514700000000003">
        <time>2021-06-19T08:53:53+0000</time>
      </trkpt>
      <trkpt lat="40.57623" lon="-2.75165">
        <time>2021-06-19T08:53:54+0000</time>
      </trkpt>
      <trkpt lat="40.57616" lon="-2.7518100000000003">
        <time>2021-06-19T08:53:55+0000</time>
      </trkpt>
      <trkpt lat="40.576080000000005" lon="-2.7519600000000004">
        <time>2021-06-19T08:53:56+0000</time>
      </trkpt>
      <trkpt lat="40.576" lon="-2.7520900000000004">
        <time>2021-06-19T08:53:57+0000</time>
      </trkpt>
      <trkpt lat="40.57591" lon="-2.7522100000000003">
        <time>2021-06-19T08:53:58+0000</time>
      </trkpt>
      <trkpt lat="40.575810000000004" lon="-2.75231">
        <time>2021-06-19T08:53:59+0000</time>
      </trkpt>
      <trkpt lat="40.575700000000005" lon="-2.75238">
        <time>2021-06-19T08:54:00+0000</time>
      </trkpt>
      <trkpt lat="40.57558" lon="-2.75245">
        <time>2021-06-19T08:54:01+0000</time>
      </trkpt>
      <trkpt lat="40.57547" lon="-2.75251">
        <time>2021-06-19T08:54:02+0000</time>
      </trkpt>
      <trkpt lat="40.57536" lon="-2.7525500000000003">
        <time>2021-06-19T08:54:03+0000</time>
      </trkpt>
      <trkpt lat="40.57526" lon="-2.75259">
        <time>2021-06-19T08:54:04+0000</time>
      </trkpt>
      <trkpt lat="40.57515" lon="-2.7526">
        <time>2021-06-19T08:54:05+0000</time>
      </trkpt>
      <trkpt lat="40.575050000000005" lon="-2.75258">
        <time>2021-06-19T08:54:06+0000</time>
      </trkpt>
      <trkpt lat="40.574940000000005" lon="-2.7525500000000003">
        <time>2021-06-19T08:54:07+0000</time>
      </trkpt>
      <trkpt lat="40.574850000000005" lon="-2.75252">
        <time>2021-06-19T08:54:08+0000</time>
      </trkpt>
      <trkpt lat="40.574740000000006" lon="-2.7524900000000003">
        <time>2021-06-19T08:54:09+0000</time>
      </trkpt>
      <trkpt lat="40.574650000000005" lon="-2.75246">
        <time>2021-06-19T08:54:10+0000</time>
      </trkpt>
      <trkpt lat="40.574560000000005" lon="-2.7524400000000004">
        <time>2021-06-19T08:54:11+0000</time>
      </trkpt>
      <trkpt lat="40.57448" lon="-2.7524400000000004">
        <time>2021-06-19T08:54:12+0000</time>
      </trkpt>
      <trkpt lat="40.57441" lon="-2.7524800000000003">
        <time>2021-06-19T08:54:13+0000</time>
      </trkpt>
      <trkpt lat="40.57434000000001" lon="-2.7525500000000003">
        <time>2021-06-19T08:54:14+0000</time>
      </trkpt>
      <trkpt lat="40.574290000000005" lon="-2.7526400000000004">
        <time>2021-06-19T08:54:15+0000</time>
      </trkpt>
      <trkpt lat="40.57423" lon="-2.75274">
        <time>2021-06-19T08:54:16+0000</time>
      </trkpt>
      <trkpt lat="40.574180000000005" lon="-2.7528400000000004">
        <time>2021-06-19T08:54:17+0000</time>
      </trkpt>
      <trkpt lat="40.57412" lon="-2.75292">
        <time>2021-06-19T08:54:18+0000</time>
      </trkpt>
      <trkpt lat="40.57406" lon="-2.7529700000000004">
        <time>2021-06-19T08:54:19+0000</time>
      </trkpt>
      <trkpt lat="40.57399" lon="-2.7529700000000004">
        <time>2021-06-19T08:54:20+0000</time>
      </trkpt>
      <trkpt lat="40.573930000000004" lon="-2.75293">
        <time>2021-06-19T08:54:21+0000</time>
      </trkpt>
      <trkpt lat="40.57388" lon="-2.75286">
        <time>2021-06-19T08:54:22+0000</time>
      </trkpt>
      <trkpt lat="40.57385" lon="-2.7527700000000004">
        <time>2021-06-19T08:54:23+0000</time>
      </trkpt>
      <trkpt lat="40.573840000000004" lon="-2.75267">
        <time>2021-06-19T08:54:24+0000</time>
      </trkpt>
      <trkpt lat="40.57385" lon="-2.75258">
        <time>2021-06-19T08:54:25+0000</time>
      </trkpt>
      <trkpt lat="40.573840000000004" lon="-2.7524900000000003">
        <time>2021-06-19T08:54:26+0000</time>
      </trkpt>
      <trkpt lat="40.57381" lon="-2.7524100000000002">
        <time>2021-06-19T08:54:27+0000</time>
      </trkpt>
      <trkpt lat="40.57374" lon="-2.7523600000000004">
        <time>2021-06-19T08:54:28+0000</time>
      </trkpt>
      <trkpt lat="40.573660000000004" lon="-2.7523400000000002">
        <time>2021-06-19T08:54:29+0000</time>
      </trkpt>
      <trkpt lat="40.57358000000001" lon="-2.7523400000000002">
        <time>2021-06-19T08:54:30+0000</time>
      </trkpt>
      <trkpt lat="40.57349000000001" lon="-2.75233">
        <time>2021-06-19T08:54:31+0000</time>
      </trkpt>
      <trkpt lat="40.57339" lon="-2.75231">
        <time>2021-06-19T08:54:32+0000</time>
      </trkpt>
      <trkpt lat="40.573280000000004" lon="-2.7523000000000004">
        <time>2021-06-19T08:54:33+0000</time>
      </trkpt>
      <trkpt lat="40.57318" lon="-2.75226">
        <time>2021-06-19T08:54:34+0000</time>
      </trkpt>
      <trkpt lat="40.57309" lon="-2.7522100000000003">
        <time>2021-06-19T08:54:35+0000</time>
      </trkpt>
      <trkpt lat="40.573" lon="-2.75212">
        <time>2021-06-19T08:54:36+0000</time>
      </trkpt>
      <trkpt lat="40.57293000000001" lon="-2.7520300000000004">
        <time>2021-06-19T08:54:37+0000</time>
      </trkpt>
      <trkpt lat="40.57285" lon="-2.7519500000000003">
        <time>2021-06-19T08:54:38+0000</time>
      </trkpt>
      <trkpt lat="40.572770000000006" lon="-2.75185">
        <time>2021-06-19T08:54:39+0000</time>
      </trkpt>
      <trkpt lat="40.57269" lon="-2.7517500000000004">
        <time>2021-06-19T08:54:40+0000</time>
      </trkpt>
      <trkpt lat="40.57262" lon="-2.75166">
        <time>2021-06-19T08:54:41+0000</time>
      </trkpt>
      <trkpt lat="40.57255000000001" lon="-2.75157">
        <time>2021-06-19T08:54:42+0000</time>
      </trkpt>
      <trkpt lat="40.57249" lon="-2.7514800000000004">
        <time>2021-06-19T08:54:43+0000</time>
      </trkpt>
      <trkpt lat="40.572430000000004" lon="-2.75138">
        <time>2021-06-19T08:54:44+0000</time>
      </trkpt>
      <trkpt lat="40.57236" lon="-2.75129">
        <time>2021-06-19T08:54:45+0000</time>
      </trkpt>
      <trkpt lat="40.572300000000006" lon="-2.7512000000000003">
        <time>2021-06-19T08:54:46+0000</time>
      </trkpt>
      <trkpt lat="40.572230000000005" lon="-2.75111">
        <time>2021-06-19T08:54:47+0000</time>
      </trkpt>
      <trkpt lat="40.57217" lon="-2.7510100000000004">
        <time>2021-06-19T08:54:48+0000</time>
      </trkpt>
      <trkpt lat="40.572100000000006" lon="-2.75091">
        <time>2021-06-19T08:54:49+0000</time>
      </trkpt>
      <trkpt lat="40.572030000000005" lon="-2.7508100000000004">
        <time>2021-06-19T08:54:50+0000</time>
      </trkpt>
      <trkpt lat="40.571960000000004" lon="-2.75071">
        <time>2021-06-19T08:54:51+0000</time>
      </trkpt>
      <trkpt lat="40.57189" lon="-2.7506100000000004">
        <time>2021-06-19T08:54:52+0000</time>
      </trkpt>
      <trkpt lat="40.571830000000006" lon="-2.7505200000000003">
        <time>2021-06-19T08:54:53+0000</time>
      </trkpt>
      <trkpt lat="40.57177" lon="-2.75043">
        <time>2021-06-19T08:54:54+0000</time>
      </trkpt>
      <trkpt lat="40.57171" lon="-2.75034">
        <time>2021-06-19T08:54:55+0000</time>
      </trkpt>
      <trkpt lat="40.57164" lon="-2.7502600000000004">
        <time>2021-06-19T08:54:56+0000</time>
      </trkpt>
      <trkpt lat="40.57159" lon="-2.7501700000000002">
        <time>2021-06-19T08:54:57+0000</time>
      </trkpt>
      <trkpt lat="40.57153" lon="-2.75009">
        <time>2021-06-19T08:54:58+0000</time>
      </trkpt>
      <trkpt lat="40.571470000000005" lon="-2.75001">
        <time>2021-06-19T08:54:59+0000</time>
      </trkpt>
      <trkpt lat="40.57141" lon="-2.7499300000000004">
        <time>2021-06-19T08:55:00+0000</time>
      </trkpt>
      <trkpt lat="40.57135" lon="-2.7498600000000004">
        <time>2021-06-19T08:55:01+0000</time>
      </trkpt>
      <trkpt lat="40.571290000000005" lon="-2.7498">
        <time>2021-06-19T08:55:02+0000</time>
      </trkpt>
      <trkpt lat="40.571220000000004" lon="-2.74974">
        <time>2021-06-19T08:55:03+0000</time>
      </trkpt>
      <trkpt lat="40.57114000000001" lon="-2.74968">
        <time>2021-06-19T08:55:04+0000</time>
      </trkpt>
      <trkpt lat="40.57106" lon="-2.74962">
        <time>2021-06-19T08:55:05+0000</time>
      </trkpt>
      <trkpt lat="40.570980000000006" lon="-2.7495700000000003">
        <time>2021-06-19T08:55:06+0000</time>
      </trkpt>
      <trkpt lat="40.570890000000006" lon="-2.7495100000000003">
        <time>2021-06-19T08:55:07+0000</time>
      </trkpt>
      <trkpt lat="40.57079" lon="-2.7494400000000003">
        <time>2021-06-19T08:55:08+0000</time>
      </trkpt>
      <trkpt lat="40.570690000000006" lon="-2.7493700000000003">
        <time>2021-06-19T08:55:09+0000</time>
      </trkpt>
      <trkpt lat="40.57059" lon="-2.7492900000000002">
        <time>2021-06-19T08:55:10+0000</time>
      </trkpt>
      <trkpt lat="40.57049000000001" lon="-2.7492400000000004">
        <time>2021-06-19T08:55:11+0000</time>
      </trkpt>
      <trkpt lat="40.57040000000001" lon="-2.7491700000000003">
        <time>2021-06-19T08:55:12+0000</time>
      </trkpt>
      <trkpt lat="40.570310000000006" lon="-2.7490900000000003">
        <time>2021-06-19T08:55:13+0000</time>
      </trkpt>
      <trkpt lat="40.57023" lon="-2.74901">
        <time>2021-06-19T08:55:14+0000</time>
      </trkpt>
      <trkpt lat="40.57014" lon="-2.74893">
        <time>2021-06-19T08:55:15+0000</time>
      </trkpt>
      <trkpt lat="40.57005" lon="-2.7488400000000004">
        <time>2021-06-19T08:55:16+0000</time>
      </trkpt>
      <trkpt lat="40.569950000000006" lon="-2.7487800000000004">
        <time>2021-06-19T08:55:17+0000</time>
      </trkpt>
      <trkpt lat="40.56985" lon="-2.74873">
        <time>2021-06-19T08:55:18+0000</time>
      </trkpt>
      <trkpt lat="40.56974" lon="-2.7487000000000004">
        <time>2021-06-19T08:55:19+0000</time>
      </trkpt>
      <trkpt lat="40.569630000000004" lon="-2.7486800000000002">
        <time>2021-06-19T08:55:20+0000</time>
      </trkpt>
      <trkpt lat="40.56951" lon="-2.74865">
        <time>2021-06-19T08:55:21+0000</time>
      </trkpt>
      <trkpt lat="40.5694" lon="-2.7486400000000004">
        <time>2021-06-19T08:55:22+0000</time>
      </trkpt>
      <trkpt lat="40.569280000000006" lon="-2.7486200000000003">
        <time>2021-06-19T08:55:23+0000</time>
      </trkpt>
      <trkpt lat="40.569160000000004" lon="-2.74859">
        <time>2021-06-19T08:55:24+0000</time>
      </trkpt>
      <trkpt lat="40.56906" lon="-2.74851">
        <time>2021-06-19T08:55:25+0000</time>
      </trkpt>
      <trkpt lat="40.56898" lon="-2.7484100000000002">
        <time>2021-06-19T08:55:26+0000</time>
      </trkpt>
      <trkpt lat="40.568940000000005" lon="-2.74827">
        <time>2021-06-19T08:55:27+0000</time>
      </trkpt>
      <trkpt lat="40.568920000000006" lon="-2.7481400000000002">
        <time>2021-06-19T08:55:28+0000</time>
      </trkpt>
      <trkpt lat="40.568920000000006" lon="-2.7480100000000003">
        <time>2021-06-19T08:55:29+0000</time>
      </trkpt>
      <trkpt lat="40.56898" lon="-2.7478800000000003">
        <time>2021-06-19T08:55:30+0000</time>
      </trkpt>
      <trkpt lat="40.569050000000004" lon="-2.74779">
        <time>2021-06-19T08:55:31+0000</time>
      </trkpt>
      <trkpt lat="40.569140000000004" lon="-2.7477300000000002">
        <time>2021-06-19T08:55:32+0000</time>
      </trkpt>
      <trkpt lat="40.56924" lon="-2.7476900000000004">
        <time>2021-06-19T08:55:33+0000</time>
      </trkpt>
      <trkpt lat="40.56933" lon="-2.74766">
        <time>2021-06-19T08:55:34+0000</time>
      </trkpt>
      <trkpt lat="40.569430000000004" lon="-2.7476800000000003">
        <time>2021-06-19T08:55:35+0000</time>
      </trkpt>
      <trkpt lat="40.56954" lon="-2.7477">
        <time>2021-06-19T08:55:36+0000</time>
      </trkpt>
      <trkpt lat="40.569660000000006" lon="-2.74772">
        <time>2021-06-19T08:55:37+0000</time>
      </trkpt>
      <trkpt lat="40.56978" lon="-2.7477600000000004">
        <time>2021-06-19T08:55:38+0000</time>
      </trkpt>
      <trkpt lat="40.56992" lon="-2.7477600000000004">
        <time>2021-06-19T08:55:39+0000</time>
      </trkpt>
      <trkpt lat="40.570060000000005" lon="-2.74778">
        <time>2021-06-19T08:55:40+0000</time>
      </trkpt>
      <trkpt lat="40.570190000000004" lon="-2.7478000000000002">
        <time>2021-06-19T08:55:41+0000</time>
      </trkpt>
      <trkpt lat="40.570330000000006" lon="-2.7478300000000004">
        <time>2021-06-19T08:55:42+0000</time>
      </trkpt>
      <trkpt lat="40.570460000000004" lon="-2.74785">
        <time>2021-06-19T08:55:43+0000</time>
      </trkpt>
      <trkpt lat="40.570600000000006" lon="-2.7478700000000003">
        <time>2021-06-19T08:55:44+0000</time>
      </trkpt>
      <trkpt lat="40.570730000000005" lon="-2.7479">
        <time>2021-06-19T08:55:45+0000</time>
      </trkpt>
      <trkpt lat="40.57086" lon="-2.74791">
        <time>2021-06-19T08:55:46+0000</time>
      </trkpt>
      <trkpt lat="40.57097" lon="-2.74792">
        <time>2021-06-19T08:55:47+0000</time>
      </trkpt>
      <trkpt lat="40.571090000000005" lon="-2.74793">
        <time>2021-06-19T08:55:48+0000</time>
      </trkpt>
      <trkpt lat="40.57119" lon="-2.7479400000000003">
        <time>2021-06-19T08:55:49+0000</time>
      </trkpt>
      <trkpt lat="40.571290000000005" lon="-2.7479500000000003">
        <time>2021-06-19T08:55:50+0000</time>
      </trkpt>
      <trkpt lat="40.57139" lon="-2.74797">
        <time>2021-06-19T08:55:51+0000</time>
      </trkpt>
      <trkpt lat="40.571470000000005" lon="-2.74799">
        <time>2021-06-19T08:55:52+0000</time>
      </trkpt>
      <trkpt lat="40.57153" lon="-2.7480800000000003">
        <time>2021-06-19T08:55:53+0000</time>
      </trkpt>
      <trkpt lat="40.571600000000004" lon="-2.7481400000000002">
        <time>2021-06-19T08:55:54+0000</time>
      </trkpt>
      <trkpt lat="40.57166" lon="-2.7482300000000004">
        <time>2021-06-19T08:55:55+0000</time>
      </trkpt>
      <trkpt lat="40.57173" lon="-2.74831">
        <time>2021-06-19T08:55:56+0000</time>
      </trkpt>
      <trkpt lat="40.5718" lon="-2.7484">
        <time>2021-06-19T08:55:57+0000</time>
      </trkpt>
      <trkpt lat="40.571870000000004" lon="-2.74847">
        <time>2021-06-19T08:55:58+0000</time>
      </trkpt>
      <trkpt lat="40.571960000000004" lon="-2.74853">
        <time>2021-06-19T08:55:59+0000</time>
      </trkpt>
      <trkpt lat="40.572050000000004" lon="-2.7485700000000004">
        <time>2021-06-19T08:56:00+0000</time>
      </trkpt>
      <trkpt lat="40.572140000000005" lon="-2.74859">
        <time>2021-06-19T08:56:01+0000</time>
      </trkpt>
      <trkpt lat="40.572230000000005" lon="-2.7486">
        <time>2021-06-19T08:56:02+0000</time>
      </trkpt>
      <trkpt lat="40.572320000000005" lon="-2.74861">
        <time>2021-06-19T08:56:03+0000</time>
      </trkpt>
      <trkpt lat="40.572410000000005" lon="-2.74861">
        <time>2021-06-19T08:56:04+0000</time>
      </trkpt>
      <trkpt lat="40.57249" lon="-2.74861">
        <time>2021-06-19T08:56:05+0000</time>
      </trkpt>
      <trkpt lat="40.57258" lon="-2.74859">
        <time>2021-06-19T08:56:06+0000</time>
      </trkpt>
      <trkpt lat="40.572660000000006" lon="-2.7485500000000003">
        <time>2021-06-19T08:56:07+0000</time>
      </trkpt>
      <trkpt lat="40.57276" lon="-2.7485000000000004">
        <time>2021-06-19T08:56:08+0000</time>
      </trkpt>
      <trkpt lat="40.57285" lon="-2.7484200000000003">
        <time>2021-06-19T08:56:09+0000</time>
      </trkpt>
      <trkpt lat="40.57293000000001" lon="-2.74832">
        <time>2021-06-19T08:56:10+0000</time>
      </trkpt>
      <trkpt lat="40.573010000000004" lon="-2.74819">
        <time>2021-06-19T08:56:11+0000</time>
      </trkpt>
      <trkpt lat="40.573080000000004" lon="-2.7480700000000002">
        <time>2021-06-19T08:56:12+0000</time>
      </trkpt>
      <trkpt lat="40.573170000000005" lon="-2.7479500000000003">
        <time>2021-06-19T08:56:13+0000</time>
      </trkpt>
      <trkpt lat="40.573240000000006" lon="-2.7478200000000004">
        <time>2021-06-19T08:56:14+0000</time>
      </trkpt>
      <trkpt lat="40.57332" lon="-2.7476800000000003">
        <time>2021-06-19T08:56:15+0000</time>
      </trkpt>
      <trkpt lat="40.57340000000001" lon="-2.7475500000000004">
        <time>2021-06-19T08:56:16+0000</time>
      </trkpt>
      <trkpt lat="40.57349000000001" lon="-2.7474100000000004">
        <time>2021-06-19T08:56:17+0000</time>
      </trkpt>
      <trkpt lat="40.573570000000004" lon="-2.7472800000000004">
        <time>2021-06-19T08:56:18+0000</time>
      </trkpt>
      <trkpt lat="40.573660000000004" lon="-2.7471500000000004">
        <time>2021-06-19T08:56:19+0000</time>
      </trkpt>
      <trkpt lat="40.57374" lon="-2.74702">
        <time>2021-06-19T08:56:20+0000</time>
      </trkpt>
      <trkpt lat="40.573820000000005" lon="-2.7469">
        <time>2021-06-19T08:56:21+0000</time>
      </trkpt>
      <trkpt lat="40.57388" lon="-2.74678">
        <time>2021-06-19T08:56:22+0000</time>
      </trkpt>
      <trkpt lat="40.57392" lon="-2.74664">
        <time>2021-06-19T08:56:23+0000</time>
      </trkpt>
      <trkpt lat="40.57396000000001" lon="-2.7465100000000002">
        <time>2021-06-19T08:56:24+0000</time>
      </trkpt>
      <trkpt lat="40.57399" lon="-2.74637">
        <time>2021-06-19T08:56:25+0000</time>
      </trkpt>
      <trkpt lat="40.57401" lon="-2.74621">
        <time>2021-06-19T08:56:26+0000</time>
      </trkpt>
      <trkpt lat="40.574040000000004" lon="-2.7460400000000003">
        <time>2021-06-19T08:56:27+0000</time>
      </trkpt>
      <trkpt lat="40.574070000000006" lon="-2.74587">
        <time>2021-06-19T08:56:28+0000</time>
      </trkpt>
      <trkpt lat="40.57412" lon="-2.7457200000000004">
        <time>2021-06-19T08:56:29+0000</time>
      </trkpt>
      <trkpt lat="40.57419" lon="-2.7456">
        <time>2021-06-19T08:56:30+0000</time>
      </trkpt>
      <trkpt lat="40.574290000000005" lon="-2.7455100000000003">
        <time>2021-06-19T08:56:31+0000</time>
      </trkpt>
      <trkpt lat="40.574400000000004" lon="-2.7454300000000003">
        <time>2021-06-19T08:56:32+0000</time>
      </trkpt>
      <trkpt lat="40.5745" lon="-2.74535">
        <time>2021-06-19T08:56:33+0000</time>
      </trkpt>
      <trkpt lat="40.57461" lon="-2.74527">
        <time>2021-06-19T08:56:34+0000</time>
      </trkpt>
      <trkpt lat="40.574720000000006" lon="-2.7451800000000004">
        <time>2021-06-19T08:56:35+0000</time>
      </trkpt>
      <trkpt lat="40.574830000000006" lon="-2.7450900000000003">
        <time>2021-06-19T08:56:36+0000</time>
      </trkpt>
      <trkpt lat="40.574940000000005" lon="-2.7449800000000004">
        <time>2021-06-19T08:56:37+0000</time>
      </trkpt>
      <trkpt lat="40.57506" lon="-2.74488">
        <time>2021-06-19T08:56:38+0000</time>
      </trkpt>
      <trkpt lat="40.57517" lon="-2.74479">
        <time>2021-06-19T08:56:39+0000</time>
      </trkpt>
      <trkpt lat="40.57528000000001" lon="-2.7446900000000003">
        <time>2021-06-19T08:56:40+0000</time>
      </trkpt>
      <trkpt lat="40.575390000000006" lon="-2.7446">
        <time>2021-06-19T08:56:41+0000</time>
      </trkpt>
      <trkpt lat="40.57549" lon="-2.74452">
        <time>2021-06-19T08:56:42+0000</time>
      </trkpt>
      <trkpt lat="40.575590000000005" lon="-2.7444400000000004">
        <time>2021-06-19T08:56:43+0000</time>
      </trkpt>
      <trkpt lat="40.57569" lon="-2.74439">
        <time>2021-06-19T08:56:44+0000</time>
      </trkpt>
      <trkpt lat="40.575790000000005" lon="-2.7443400000000002">
        <time>2021-06-19T08:56:45+0000</time>
      </trkpt>
      <trkpt lat="40.575900000000004" lon="-2.7443000000000004">
        <time>2021-06-19T08:56:46+0000</time>
      </trkpt>
      <trkpt lat="40.57602000000001" lon="-2.74426">
        <time>2021-06-19T08:56:47+0000</time>
      </trkpt>
      <trkpt lat="40.576150000000005" lon="-2.7442200000000003">
        <time>2021-06-19T08:56:48+0000</time>
      </trkpt>
      <trkpt lat="40.576280000000004" lon="-2.74419">
        <time>2021-06-19T08:56:49+0000</time>
      </trkpt>
      <trkpt lat="40.576420000000006" lon="-2.7441500000000003">
        <time>2021-06-19T08:56:50+0000</time>
      </trkpt>
      <trkpt lat="40.576550000000005" lon="-2.74411">
        <time>2021-06-19T08:56:51+0000</time>
      </trkpt>
      <trkpt lat="40.576690000000006" lon="-2.7440700000000002">
        <time>2021-06-19T08:56:52+0000</time>
      </trkpt>
      <trkpt lat="40.57683" lon="-2.7440200000000003">
        <time>2021-06-19T08:56:53+0000</time>
      </trkpt>
      <trkpt lat="40.57696000000001" lon="-2.74398">
        <time>2021-06-19T08:56:54+0000</time>
      </trkpt>
      <trkpt lat="40.577090000000005" lon="-2.7438900000000004">
        <time>2021-06-19T08:56:55+0000</time>
      </trkpt>
      <trkpt lat="40.577220000000004" lon="-2.7438100000000003">
        <time>2021-06-19T08:56:56+0000</time>
      </trkpt>
      <trkpt lat="40.57735" lon="-2.7437400000000003">
        <time>2021-06-19T08:56:57+0000</time>
      </trkpt>
      <trkpt lat="40.577470000000005" lon="-2.7436700000000003">
        <time>2021-06-19T08:56:58+0000</time>
      </trkpt>
      <trkpt lat="40.57759" lon="-2.7436000000000003">
        <time>2021-06-19T08:56:59+0000</time>
      </trkpt>
      <trkpt lat="40.5777" lon="-2.74352">
        <time>2021-06-19T08:57:00+0000</time>
      </trkpt>
      <trkpt lat="40.5778" lon="-2.74345">
        <time>2021-06-19T08:57:01+0000</time>
      </trkpt>
      <trkpt lat="40.57790000000001" lon="-2.74339">
        <time>2021-06-19T08:57:02+0000</time>
      </trkpt>
      <trkpt lat="40.57799" lon="-2.7433300000000003">
        <time>2021-06-19T08:57:03+0000</time>
      </trkpt>
      <trkpt lat="40.57808" lon="-2.7432600000000003">
        <time>2021-06-19T08:57:04+0000</time>
      </trkpt>
      <trkpt lat="40.578140000000005" lon="-2.7431300000000003">
        <time>2021-06-19T08:57:05+0000</time>
      </trkpt>
      <trkpt lat="40.57818" lon="-2.7429900000000003">
        <time>2021-06-19T08:57:06+0000</time>
      </trkpt>
      <trkpt lat="40.578190000000006" lon="-2.74284">
        <time>2021-06-19T08:57:07+0000</time>
      </trkpt>
      <trkpt lat="40.5782" lon="-2.7426600000000003">
        <time>2021-06-19T08:57:08+0000</time>
      </trkpt>
      <trkpt lat="40.578210000000006" lon="-2.74249">
        <time>2021-06-19T08:57:09+0000</time>
      </trkpt>
      <trkpt lat="40.578230000000005" lon="-2.7423200000000003">
        <time>2021-06-19T08:57:10+0000</time>
      </trkpt>
      <trkpt lat="40.57827" lon="-2.74216">
        <time>2021-06-19T08:57:11+0000</time>
      </trkpt>
      <trkpt lat="40.57831" lon="-2.7420000000000004">
        <time>2021-06-19T08:57:12+0000</time>
      </trkpt>
      <trkpt lat="40.57837000000001" lon="-2.7418400000000003">
        <time>2021-06-19T08:57:13+0000</time>
      </trkpt>
      <trkpt lat="40.57844" lon="-2.7417000000000002">
        <time>2021-06-19T08:57:14+0000</time>
      </trkpt>
      <trkpt lat="40.57851" lon="-2.74156">
        <time>2021-06-19T08:57:15+0000</time>
      </trkpt>
      <trkpt lat="40.578590000000005" lon="-2.7414300000000003">
        <time>2021-06-19T08:57:16+0000</time>
      </trkpt>
      <trkpt lat="40.578680000000006" lon="-2.7413100000000004">
        <time>2021-06-19T08:57:17+0000</time>
      </trkpt>
      <trkpt lat="40.57878" lon="-2.74119">
        <time>2021-06-19T08:57:18+0000</time>
      </trkpt>
      <trkpt lat="40.578880000000005" lon="-2.74107">
        <time>2021-06-19T08:57:19+0000</time>
      </trkpt>
      <trkpt lat="40.578950000000006" lon="-2.74093">
        <time>2021-06-19T08:57:20+0000</time>
      </trkpt>
      <trkpt lat="40.579" lon="-2.7407600000000003">
        <time>2021-06-19T08:57:21+0000</time>
      </trkpt>
      <trkpt lat="40.57903" lon="-2.74059">
        <time>2021-06-19T08:57:22+0000</time>
      </trkpt>
      <trkpt lat="40.579060000000005" lon="-2.7404300000000004">
        <time>2021-06-19T08:57:23+0000</time>
      </trkpt>
      <trkpt lat="40.57909" lon="-2.7402900000000003">
        <time>2021-06-19T08:57:24+0000</time>
      </trkpt>
      <trkpt lat="40.579130000000006" lon="-2.7401500000000003">
        <time>2021-06-19T08:57:25+0000</time>
      </trkpt>
      <trkpt lat="40.579190000000004" lon="-2.7400300000000004">
        <time>2021-06-19T08:57:26+0000</time>
      </trkpt>
      <trkpt lat="40.57927" lon="-2.73993">
        <time>2021-06-19T08:57:27+0000</time>
      </trkpt>
      <trkpt lat="40.57936" lon="-2.73985">
        <time>2021-06-19T08:57:28+0000</time>
      </trkpt>
      <trkpt lat="40.57945" lon="-2.73977">
        <time>2021-06-19T08:57:29+0000</time>
      </trkpt>
      <trkpt lat="40.579550000000005" lon="-2.7397">
        <time>2021-06-19T08:57:30+0000</time>
      </trkpt>
      <trkpt lat="40.57965" lon="-2.73964">
        <time>2021-06-19T08:57:31+0000</time>
      </trkpt>
      <trkpt lat="40.57976" lon="-2.7396000000000003">
        <time>2021-06-19T08:57:32+0000</time>
      </trkpt>
      <trkpt lat="40.57987000000001" lon="-2.7396000000000003">
        <time>2021-06-19T08:57:33+0000</time>
      </trkpt>
      <trkpt lat="40.579980000000006" lon="-2.7396200000000004">
        <time>2021-06-19T08:57:34+0000</time>
      </trkpt>
      <trkpt lat="40.580090000000006" lon="-2.73965">
        <time>2021-06-19T08:57:35+0000</time>
      </trkpt>
      <trkpt lat="40.580200000000005" lon="-2.7396800000000003">
        <time>2021-06-19T08:57:36+0000</time>
      </trkpt>
      <trkpt lat="40.58032" lon="-2.73972">
        <time>2021-06-19T08:57:37+0000</time>
      </trkpt>
      <trkpt lat="40.58043" lon="-2.73973">
        <time>2021-06-19T08:57:38+0000</time>
      </trkpt>
      <trkpt lat="40.580540000000006" lon="-2.7397600000000004">
        <time>2021-06-19T08:57:39+0000</time>
      </trkpt>
      <trkpt lat="40.58064" lon="-2.73979">
        <time>2021-06-19T08:57:40+0000</time>
      </trkpt>
      <trkpt lat="40.58073" lon="-2.7398200000000004">
        <time>2021-06-19T08:57:41+0000</time>
      </trkpt>
      <trkpt lat="40.58082" lon="-2.73985">
        <time>2021-06-19T08:57:42+0000</time>
      </trkpt>
      <trkpt lat="40.580890000000004" lon="-2.7398800000000003">
        <time>2021-06-19T08:57:43+0000</time>
      </trkpt>
      <trkpt lat="40.58097" lon="-2.73991">
        <time>2021-06-19T08:57:44+0000</time>
      </trkpt>
      <trkpt lat="40.581050000000005" lon="-2.7399500000000003">
        <time>2021-06-19T08:57:45+0000</time>
      </trkpt>
      <trkpt lat="40.581140000000005" lon="-2.73998">
        <time>2021-06-19T08:57:46+0000</time>
      </trkpt>
      <trkpt lat="40.581230000000005" lon="-2.7400200000000003">
        <time>2021-06-19T08:57:47+0000</time>
      </trkpt>
      <trkpt lat="40.581320000000005" lon="-2.7400700000000002">
        <time>2021-06-19T08:57:48+0000</time>
      </trkpt>
      <trkpt lat="40.581410000000005" lon="-2.74013">
        <time>2021-06-19T08:57:49+0000</time>
      </trkpt>
      <trkpt lat="40.58151" lon="-2.7402200000000003">
        <time>2021-06-19T08:57:50+0000</time>
      </trkpt>
      <trkpt lat="40.5816" lon="-2.74034">
        <time>2021-06-19T08:57:51+0000</time>
      </trkpt>
      <trkpt lat="40.581680000000006" lon="-2.7404800000000002">
        <time>2021-06-19T08:57:52+0000</time>
      </trkpt>
      <trkpt lat="40.581770000000006" lon="-2.74061">
        <time>2021-06-19T08:57:53+0000</time>
      </trkpt>
      <trkpt lat="40.581860000000006" lon="-2.74072">
        <time>2021-06-19T08:57:54+0000</time>
      </trkpt>
      <trkpt lat="40.58196" lon="-2.74081">
        <time>2021-06-19T08:57:55+0000</time>
      </trkpt>
      <trkpt lat="40.58207" lon="-2.74088">
        <time>2021-06-19T08:57:56+0000</time>
      </trkpt>
      <trkpt lat="40.58218" lon="-2.74093">
        <time>2021-06-19T08:57:57+0000</time>
      </trkpt>
      <trkpt lat="40.58231000000001" lon="-2.74099">
        <time>2021-06-19T08:57:58+0000</time>
      </trkpt>
      <trkpt lat="40.58243" lon="-2.7410400000000004">
        <time>2021-06-19T08:57:59+0000</time>
      </trkpt>
      <trkpt lat="40.582570000000004" lon="-2.7410400000000004">
        <time>2021-06-19T08:58:00+0000</time>
      </trkpt>
      <trkpt lat="40.582710000000006" lon="-2.74099">
        <time>2021-06-19T08:58:01+0000</time>
      </trkpt>
      <trkpt lat="40.58285" lon="-2.74093">
        <time>2021-06-19T08:58:02+0000</time>
      </trkpt>
      <trkpt lat="40.583000000000006" lon="-2.74087">
        <time>2021-06-19T08:58:03+0000</time>
      </trkpt>
      <trkpt lat="40.58315" lon="-2.74085">
        <time>2021-06-19T08:58:04+0000</time>
      </trkpt>
      <trkpt lat="40.58328" lon="-2.74085">
        <time>2021-06-19T08:58:05+0000</time>
      </trkpt>
      <trkpt lat="40.583400000000005" lon="-2.74085">
        <time>2021-06-19T08:58:06+0000</time>
      </trkpt>
      <trkpt lat="40.5835" lon="-2.7407800000000004">
        <time>2021-06-19T08:58:07+0000</time>
      </trkpt>
      <trkpt lat="40.583560000000006" lon="-2.7406400000000004">
        <time>2021-06-19T08:58:08+0000</time>
      </trkpt>
      <trkpt lat="40.58363000000001" lon="-2.74047">
        <time>2021-06-19T08:58:09+0000</time>
      </trkpt>
      <trkpt lat="40.5837" lon="-2.74027">
        <time>2021-06-19T08:58:10+0000</time>
      </trkpt>
      <trkpt lat="40.583780000000004" lon="-2.7400900000000004">
        <time>2021-06-19T08:58:11+0000</time>
      </trkpt>
      <trkpt lat="40.58386" lon="-2.7399">
        <time>2021-06-19T08:58:12+0000</time>
      </trkpt>
      <trkpt lat="40.583920000000006" lon="-2.73973">
        <time>2021-06-19T08:58:13+0000</time>
      </trkpt>
      <trkpt lat="40.583980000000004" lon="-2.7395500000000004">
        <time>2021-06-19T08:58:14+0000</time>
      </trkpt>
      <trkpt lat="40.584070000000004" lon="-2.7394200000000004">
        <time>2021-06-19T08:58:15+0000</time>
      </trkpt>
      <trkpt lat="40.584160000000004" lon="-2.7393">
        <time>2021-06-19T08:58:16+0000</time>
      </trkpt>
      <trkpt lat="40.58426" lon="-2.7392000000000003">
        <time>2021-06-19T08:58:17+0000</time>
      </trkpt>
      <trkpt lat="40.58437" lon="-2.73909">
        <time>2021-06-19T08:58:18+0000</time>
      </trkpt>
      <trkpt lat="40.584480000000006" lon="-2.73898">
        <time>2021-06-19T08:58:19+0000</time>
      </trkpt>
      <trkpt lat="40.584610000000005" lon="-2.7388800000000004">
        <time>2021-06-19T08:58:20+0000</time>
      </trkpt>
      <trkpt lat="40.584740000000004" lon="-2.73878">
        <time>2021-06-19T08:58:21+0000</time>
      </trkpt>
      <trkpt lat="40.58487" lon="-2.73868">
        <time>2021-06-19T08:58:22+0000</time>
      </trkpt>
      <trkpt lat="40.584990000000005" lon="-2.7385900000000003">
        <time>2021-06-19T08:58:23+0000</time>
      </trkpt>
      <trkpt lat="40.58513000000001" lon="-2.7385400000000004">
        <time>2021-06-19T08:58:24+0000</time>
      </trkpt>
      <trkpt lat="40.585260000000005" lon="-2.7385400000000004">
        <time>2021-06-19T08:58:25+0000</time>
      </trkpt>
      <trkpt lat="40.58538" lon="-2.7385400000000004">
        <time>2021-06-19T08:58:26+0000</time>
      </trkpt>
      <trkpt lat="40.58549" lon="-2.73851">
        <time>2021-06-19T08:58:27+0000</time>
      </trkpt>
      <trkpt lat="40.58559" lon="-2.73843">
        <time>2021-06-19T08:58:28+0000</time>
      </trkpt>
      <trkpt lat="40.58565" lon="-2.73828">
        <time>2021-06-19T08:58:29+0000</time>
      </trkpt>
      <trkpt lat="40.58572" lon="-2.73816">
        <time>2021-06-19T08:58:30+0000</time>
      </trkpt>
      <trkpt lat="40.585800000000006" lon="-2.7380500000000003">
        <time>2021-06-19T08:58:31+0000</time>
      </trkpt>
      <trkpt lat="40.585910000000005" lon="-2.73796">
        <time>2021-06-19T08:58:32+0000</time>
      </trkpt>
      <trkpt lat="40.58603" lon="-2.7379000000000002">
        <time>2021-06-19T08:58:33+0000</time>
      </trkpt>
      <trkpt lat="40.58615" lon="-2.7378400000000003">
        <time>2021-06-19T08:58:34+0000</time>
      </trkpt>
      <trkpt lat="40.58628" lon="-2.7377800000000003">
        <time>2021-06-19T08:58:35+0000</time>
      </trkpt>
      <trkpt lat="40.58641" lon="-2.7377200000000004">
        <time>2021-06-19T08:58:36+0000</time>
      </trkpt>
      <trkpt lat="40.586510000000004" lon="-2.73762">
        <time>2021-06-19T08:58:37+0000</time>
      </trkpt>
      <trkpt lat="40.58661" lon="-2.73749">
        <time>2021-06-19T08:58:38+0000</time>
      </trkpt>
      <trkpt lat="40.58668" lon="-2.7373200000000004">
        <time>2021-06-19T08:58:39+0000</time>
      </trkpt>
      <trkpt lat="40.586740000000006" lon="-2.73714">
        <time>2021-06-19T08:58:40+0000</time>
      </trkpt>
      <trkpt lat="40.58681" lon="-2.7369700000000003">
        <time>2021-06-19T08:58:41+0000</time>
      </trkpt>
      <trkpt lat="40.58688" lon="-2.73681">
        <time>2021-06-19T08:58:42+0000</time>
      </trkpt>
      <trkpt lat="40.58697" lon="-2.7366800000000002">
        <time>2021-06-19T08:58:43+0000</time>
      </trkpt>
      <trkpt lat="40.587070000000004" lon="-2.7365700000000004">
        <time>2021-06-19T08:58:44+0000</time>
      </trkpt>
      <trkpt lat="40.587180000000004" lon="-2.7365000000000004">
        <time>2021-06-19T08:58:45+0000</time>
      </trkpt>
      <trkpt lat="40.58729" lon="-2.73647">
        <time>2021-06-19T08:58:46+0000</time>
      </trkpt>
      <trkpt lat="40.58742" lon="-2.73647">
        <time>2021-06-19T08:58:47+0000</time>
      </trkpt>
      <trkpt lat="40.587540000000004" lon="-2.7364900000000003">
        <time>2021-06-19T08:58:48+0000</time>
      </trkpt>
      <trkpt lat="40.587650000000004" lon="-2.7365000000000004">
        <time>2021-06-19T08:58:49+0000</time>
      </trkpt>
      <trkpt lat="40.58776" lon="-2.7365100000000004">
        <time>2021-06-19T08:58:50+0000</time>
      </trkpt>
      <trkpt lat="40.58787" lon="-2.7365000000000004">
        <time>2021-06-19T08:58:51+0000</time>
      </trkpt>
      <trkpt lat="40.587970000000006" lon="-2.7364200000000003">
        <time>2021-06-19T08:58:52+0000</time>
      </trkpt>
      <trkpt lat="40.58805" lon="-2.73627">
        <time>2021-06-19T08:58:53+0000</time>
      </trkpt>
      <trkpt lat="40.58813000000001" lon="-2.73613">
        <time>2021-06-19T08:58:54+0000</time>
      </trkpt>
      <trkpt lat="40.58822000000001" lon="-2.73598">
        <time>2021-06-19T08:58:55+0000</time>
      </trkpt>
      <trkpt lat="40.588280000000005" lon="-2.73584">
        <time>2021-06-19T08:58:56+0000</time>
      </trkpt>
      <trkpt lat="40.58836" lon="-2.73571">
        <time>2021-06-19T08:58:57+0000</time>
      </trkpt>
      <trkpt lat="40.58845" lon="-2.7356000000000003">
        <time>2021-06-19T08:58:58+0000</time>
      </trkpt>
      <trkpt lat="40.588550000000005" lon="-2.7355400000000003">
        <time>2021-06-19T08:58:59+0000</time>
      </trkpt>
      <trkpt lat="40.588660000000004" lon="-2.7355300000000002">
        <time>2021-06-19T08:59:00+0000</time>
      </trkpt>
      <trkpt lat="40.58878" lon="-2.7355300000000002">
        <time>2021-06-19T08:59:01+0000</time>
      </trkpt>
      <trkpt lat="40.5889" lon="-2.7355500000000004">
        <time>2021-06-19T08:59:02+0000</time>
      </trkpt>
      <trkpt lat="40.58901" lon="-2.73558">
        <time>2021-06-19T08:59:03+0000</time>
      </trkpt>
      <trkpt lat="40.589110000000005" lon="-2.73564">
        <time>2021-06-19T08:59:04+0000</time>
      </trkpt>
      <trkpt lat="40.58919" lon="-2.7357400000000003">
        <time>2021-06-19T08:59:05+0000</time>
      </trkpt>
      <trkpt lat="40.58925" lon="-2.73586">
        <time>2021-06-19T08:59:06+0000</time>
      </trkpt>
      <trkpt lat="40.5893" lon="-2.73599">
        <time>2021-06-19T08:59:07+0000</time>
      </trkpt>
      <trkpt lat="40.589360000000006" lon="-2.7361000000000004">
        <time>2021-06-19T08:59:08+0000</time>
      </trkpt>
      <trkpt lat="40.589420000000004" lon="-2.73619">
        <time>2021-06-19T08:59:09+0000</time>
      </trkpt>
      <trkpt lat="40.5895" lon="-2.73625">
        <time>2021-06-19T08:59:10+0000</time>
      </trkpt>
      <trkpt lat="40.589580000000005" lon="-2.73627">
        <time>2021-06-19T08:59:11+0000</time>
      </trkpt>
      <trkpt lat="40.58968" lon="-2.7362300000000004">
        <time>2021-06-19T08:59:12+0000</time>
      </trkpt>
      <trkpt lat="40.58977" lon="-2.7361400000000002">
        <time>2021-06-19T08:59:13+0000</time>
      </trkpt>
      <trkpt lat="40.589850000000006" lon="-2.7360200000000003">
        <time>2021-06-19T08:59:14+0000</time>
      </trkpt>
      <trkpt lat="40.58993" lon="-2.7358800000000003">
        <time>2021-06-19T08:59:15+0000</time>
      </trkpt>
      <trkpt lat="40.58997" lon="-2.7357400000000003">
        <time>2021-06-19T08:59:16+0000</time>
      </trkpt>
      <trkpt lat="40.58999" lon="-2.73559">
        <time>2021-06-19T08:59:17+0000</time>
      </trkpt>
      <trkpt lat="40.59002" lon="-2.73543">
        <time>2021-06-19T08:59:18+0000</time>
      </trkpt>
      <trkpt lat="40.590030000000006" lon="-2.7352600000000002">
        <time>2021-06-19T08:59:19+0000</time>
      </trkpt>
      <trkpt lat="40.59006" lon="-2.7351">
        <time>2021-06-19T08:59:20+0000</time>
      </trkpt>
      <trkpt lat="40.590090000000004" lon="-2.7349400000000004">
        <time>2021-06-19T08:59:21+0000</time>
      </trkpt>
      <trkpt lat="40.590140000000005" lon="-2.7348000000000003">
        <time>2021-06-19T08:59:22+0000</time>
      </trkpt>
      <trkpt lat="40.590210000000006" lon="-2.7346800000000004">
        <time>2021-06-19T08:59:23+0000</time>
      </trkpt>
      <trkpt lat="40.59028" lon="-2.7345800000000002">
        <time>2021-06-19T08:59:24+0000</time>
      </trkpt>
      <trkpt lat="40.59037" lon="-2.73451">
        <time>2021-06-19T08:59:25+0000</time>
      </trkpt>
      <trkpt lat="40.59047" lon="-2.7344600000000003">
        <time>2021-06-19T08:59:26+0000</time>
      </trkpt>
      <trkpt lat="40.59056" lon="-2.7344600000000003">
        <time>2021-06-19T08:59:27+0000</time>
      </trkpt>
      <trkpt lat="40.59066000000001" lon="-2.73449">
        <time>2021-06-19T08:59:28+0000</time>
      </trkpt>
      <trkpt lat="40.59076" lon="-2.73451">
        <time>2021-06-19T08:59:29+0000</time>
      </trkpt>
      <trkpt lat="40.59084" lon="-2.7345400000000004">
        <time>2021-06-19T08:59:30+0000</time>
      </trkpt>
      <trkpt lat="40.590920000000004" lon="-2.73455">
        <time>2021-06-19T08:59:31+0000</time>
      </trkpt>
      <trkpt lat="40.591" lon="-2.73448">
        <time>2021-06-19T08:59:32+0000</time>
      </trkpt>
      <trkpt lat="40.591100000000004" lon="-2.73437">
        <time>2021-06-19T08:59:33+0000</time>
      </trkpt>
      <trkpt lat="40.59118" lon="-2.73422">
        <time>2021-06-19T08:59:34+0000</time>
      </trkpt>
      <trkpt lat="40.591240000000006" lon="-2.7340500000000003">
        <time>2021-06-19T08:59:35+0000</time>
      </trkpt>
      <trkpt lat="40.59132" lon="-2.73389">
        <time>2021-06-19T08:59:36+0000</time>
      </trkpt>
      <trkpt lat="40.5914" lon="-2.73374">
        <time>2021-06-19T08:59:37+0000</time>
      </trkpt>
      <trkpt lat="40.59149" lon="-2.73362">
        <time>2021-06-19T08:59:38+0000</time>
      </trkpt>
      <trkpt lat="40.59158" lon="-2.7335000000000003">
        <time>2021-06-19T08:59:39+0000</time>
      </trkpt>
      <trkpt lat="40.591660000000005" lon="-2.7333600000000002">
        <time>2021-06-19T08:59:40+0000</time>
      </trkpt>
      <trkpt lat="40.591730000000005" lon="-2.7332300000000003">
        <time>2021-06-19T08:59:41+0000</time>
      </trkpt>
      <trkpt lat="40.59178" lon="-2.73306">
        <time>2021-06-19T08:59:42+0000</time>
      </trkpt>
      <trkpt lat="40.59181" lon="-2.7328900000000003">
        <time>2021-06-19T08:59:43+0000</time>
      </trkpt>
      <trkpt lat="40.591820000000006" lon="-2.7327000000000004">
        <time>2021-06-19T08:59:44+0000</time>
      </trkpt>
      <trkpt lat="40.591820000000006" lon="-2.7325100000000004">
        <time>2021-06-19T08:59:45+0000</time>
      </trkpt>
      <trkpt lat="40.591800000000006" lon="-2.73232">
        <time>2021-06-19T08:59:46+0000</time>
      </trkpt>
      <trkpt lat="40.59179" lon="-2.7321400000000002">
        <time>2021-06-19T08:59:47+0000</time>
      </trkpt>
      <trkpt lat="40.591770000000004" lon="-2.7319600000000004">
        <time>2021-06-19T08:59:48+0000</time>
      </trkpt>
      <trkpt lat="40.591750000000005" lon="-2.7318000000000002">
        <time>2021-06-19T08:59:49+0000</time>
      </trkpt>
      <trkpt lat="40.591730000000005" lon="-2.73165">
        <time>2021-06-19T08:59:50+0000</time>
      </trkpt>
      <trkpt lat="40.59172" lon="-2.7314900000000004">
        <time>2021-06-19T08:59:51+0000</time>
      </trkpt>
      <trkpt lat="40.591730000000005" lon="-2.7313400000000003">
        <time>2021-06-19T08:59:52+0000</time>
      </trkpt>
      <trkpt lat="40.591770000000004" lon="-2.7312000000000003">
        <time>2021-06-19T08:59:53+0000</time>
      </trkpt>
      <trkpt lat="40.591840000000005" lon="-2.73109">
        <time>2021-06-19T08:59:54+0000</time>
      </trkpt>
      <trkpt lat="40.591930000000005" lon="-2.7309900000000003">
        <time>2021-06-19T08:59:55+0000</time>
      </trkpt>
      <trkpt lat="40.59205" lon="-2.73089">
        <time>2021-06-19T08:59:56+0000</time>
      </trkpt>
      <trkpt lat="40.592180000000006" lon="-2.73078">
        <time>2021-06-19T08:59:57+0000</time>
      </trkpt>
      <trkpt lat="40.592310000000005" lon="-2.7306800000000004">
        <time>2021-06-19T08:59:58+0000</time>
      </trkpt>
      <trkpt lat="40.59246" lon="-2.73057">
        <time>2021-06-19T08:59:59+0000</time>
      </trkpt>
      <trkpt lat="40.59261" lon="-2.7304700000000004">
        <time>2021-06-19T09:00:00+0000</time>
      </trkpt>
      <trkpt lat="40.59275" lon="-2.73036">
        <time>2021-06-19T09:00:01+0000</time>
      </trkpt>
      <trkpt lat="40.59288" lon="-2.7302600000000004">
        <time>2021-06-19T09:00:02+0000</time>
      </trkpt>
      <trkpt lat="40.59302" lon="-2.73017">
        <time>2021-06-19T09:00:03+0000</time>
      </trkpt>
      <trkpt lat="40.59315" lon="-2.73008">
        <time>2021-06-19T09:00:04+0000</time>
      </trkpt>
      <trkpt lat="40.59328" lon="-2.73002">
        <time>2021-06-19T09:00:05+0000</time>
      </trkpt>
      <trkpt lat="40.59339000000001" lon="-2.7300000000000004">
        <time>2021-06-19T09:00:06+0000</time>
      </trkpt>
      <trkpt lat="40.59351" lon="-2.73003">
        <time>2021-06-19T09:00:07+0000</time>
      </trkpt>
      <trkpt lat="40.593610000000005" lon="-2.73009">
        <time>2021-06-19T09:00:08+0000</time>
      </trkpt>
      <trkpt lat="40.593700000000005" lon="-2.73016">
        <time>2021-06-19T09:00:09+0000</time>
      </trkpt>
      <trkpt lat="40.593790000000006" lon="-2.73021">
        <time>2021-06-19T09:00:10+0000</time>
      </trkpt>
      <trkpt lat="40.593900000000005" lon="-2.7302000000000004">
        <time>2021-06-19T09:00:11+0000</time>
      </trkpt>
      <trkpt lat="40.593990000000005" lon="-2.7301200000000003">
        <time>2021-06-19T09:00:12+0000</time>
      </trkpt>
      <trkpt lat="40.594030000000004" lon="-2.7299700000000002">
        <time>2021-06-19T09:00:13+0000</time>
      </trkpt>
      <trkpt lat="40.59407" lon="-2.72983">
        <time>2021-06-19T09:00:14+0000</time>
      </trkpt>
      <trkpt lat="40.594100000000005" lon="-2.72968">
        <time>2021-06-19T09:00:15+0000</time>
      </trkpt>
      <trkpt lat="40.59413" lon="-2.7295200000000004">
        <time>2021-06-19T09:00:16+0000</time>
      </trkpt>
      <trkpt lat="40.59416" lon="-2.7293700000000003">
        <time>2021-06-19T09:00:17+0000</time>
      </trkpt>
      <trkpt lat="40.5942" lon="-2.72921">
        <time>2021-06-19T09:00:18+0000</time>
      </trkpt>
      <trkpt lat="40.59423" lon="-2.72907">
        <time>2021-06-19T09:00:19+0000</time>
      </trkpt>
      <trkpt lat="40.59427" lon="-2.72892">
        <time>2021-06-19T09:00:20+0000</time>
      </trkpt>
      <trkpt lat="40.59431" lon="-2.72879">
        <time>2021-06-19T09:00:21+0000</time>
      </trkpt>
      <trkpt lat="40.594370000000005" lon="-2.72868">
        <time>2021-06-19T09:00:22+0000</time>
      </trkpt>
      <trkpt lat="40.59445" lon="-2.72859">
        <time>2021-06-19T09:00:23+0000</time>
      </trkpt>
      <trkpt lat="40.594550000000005" lon="-2.7285000000000004">
        <time>2021-06-19T09:00:24+0000</time>
      </trkpt>
      <trkpt lat="40.59467" lon="-2.7284300000000004">
        <time>2021-06-19T09:00:25+0000</time>
      </trkpt>
      <trkpt lat="40.59479" lon="-2.72838">
        <time>2021-06-19T09:00:26+0000</time>
      </trkpt>
      <trkpt lat="40.594930000000005" lon="-2.72832">
        <time>2021-06-19T09:00:27+0000</time>
      </trkpt>
      <trkpt lat="40.59505" lon="-2.72825">
        <time>2021-06-19T09:00:28+0000</time>
      </trkpt>
      <trkpt lat="40.59517" lon="-2.72818">
        <time>2021-06-19T09:00:29+0000</time>
      </trkpt>
      <trkpt lat="40.5953" lon="-2.72812">
        <time>2021-06-19T09:00:30+0000</time>
      </trkpt>
      <trkpt lat="40.595420000000004" lon="-2.72805">
        <time>2021-06-19T09:00:31+0000</time>
      </trkpt>
      <trkpt lat="40.59554000000001" lon="-2.72799">
        <time>2021-06-19T09:00:32+0000</time>
      </trkpt>
      <trkpt lat="40.59566" lon="-2.72793">
        <time>2021-06-19T09:00:33+0000</time>
      </trkpt>
      <trkpt lat="40.59577" lon="-2.72786">
        <time>2021-06-19T09:00:34+0000</time>
      </trkpt>
      <trkpt lat="40.595890000000004" lon="-2.72779">
        <time>2021-06-19T09:00:35+0000</time>
      </trkpt>
      <trkpt lat="40.59599" lon="-2.72766">
        <time>2021-06-19T09:00:36+0000</time>
      </trkpt>
      <trkpt lat="40.596090000000004" lon="-2.7275300000000002">
        <time>2021-06-19T09:00:37+0000</time>
      </trkpt>
      <trkpt lat="40.59617" lon="-2.72738">
        <time>2021-06-19T09:00:38+0000</time>
      </trkpt>
      <trkpt lat="40.59626" lon="-2.7272200000000004">
        <time>2021-06-19T09:00:39+0000</time>
      </trkpt>
      <trkpt lat="40.59635" lon="-2.7270700000000003">
        <time>2021-06-19T09:00:40+0000</time>
      </trkpt>
      <trkpt lat="40.59644" lon="-2.72691">
        <time>2021-06-19T09:00:41+0000</time>
      </trkpt>
      <trkpt lat="40.59653" lon="-2.72675">
        <time>2021-06-19T09:00:42+0000</time>
      </trkpt>
      <trkpt lat="40.5966" lon="-2.7265800000000002">
        <time>2021-06-19T09:00:43+0000</time>
      </trkpt>
      <trkpt lat="40.59667" lon="-2.72642">
        <time>2021-06-19T09:00:44+0000</time>
      </trkpt>
      <trkpt lat="40.596700000000006" lon="-2.7262600000000003">
        <time>2021-06-19T09:00:45+0000</time>
      </trkpt>
      <trkpt lat="40.59675" lon="-2.7261200000000003">
        <time>2021-06-19T09:00:46+0000</time>
      </trkpt>
      <trkpt lat="40.59676" lon="-2.7259700000000002">
        <time>2021-06-19T09:00:47+0000</time>
      </trkpt>
      <trkpt lat="40.59671" lon="-2.72583">
        <time>2021-06-19T09:00:48+0000</time>
      </trkpt>
      <trkpt lat="40.59666" lon="-2.7257100000000003">
        <time>2021-06-19T09:00:49+0000</time>
      </trkpt>
      <trkpt lat="40.5966" lon="-2.7255900000000004">
        <time>2021-06-19T09:00:50+0000</time>
      </trkpt>
      <trkpt lat="40.596540000000005" lon="-2.72547">
        <time>2021-06-19T09:00:51+0000</time>
      </trkpt>
      <trkpt lat="40.59649" lon="-2.7253600000000002">
        <time>2021-06-19T09:00:52+0000</time>
      </trkpt>
      <trkpt lat="40.596450000000004" lon="-2.7252400000000003">
        <time>2021-06-19T09:00:53+0000</time>
      </trkpt>
      <trkpt lat="40.59646" lon="-2.7251000000000003">
        <time>2021-06-19T09:00:54+0000</time>
      </trkpt>
      <trkpt lat="40.59648000000001" lon="-2.7249800000000004">
        <time>2021-06-19T09:00:55+0000</time>
      </trkpt>
      <trkpt lat="40.59655" lon="-2.72487">
        <time>2021-06-19T09:00:56+0000</time>
      </trkpt>
      <trkpt lat="40.59662" lon="-2.72479">
        <time>2021-06-19T09:00:57+0000</time>
      </trkpt>
      <trkpt lat="40.596700000000006" lon="-2.72473">
        <time>2021-06-19T09:00:58+0000</time>
      </trkpt>
      <trkpt lat="40.596790000000006" lon="-2.72472">
        <time>2021-06-19T09:00:59+0000</time>
      </trkpt>
      <trkpt lat="40.596880000000006" lon="-2.72473">
        <time>2021-06-19T09:01:00+0000</time>
      </trkpt>
      <trkpt lat="40.596970000000006" lon="-2.7247600000000003">
        <time>2021-06-19T09:01:01+0000</time>
      </trkpt>
      <trkpt lat="40.59705" lon="-2.72481">
        <time>2021-06-19T09:01:02+0000</time>
      </trkpt>
      <trkpt lat="40.59713" lon="-2.72486">
        <time>2021-06-19T09:01:03+0000</time>
      </trkpt>
      <trkpt lat="40.597210000000004" lon="-2.7248900000000003">
        <time>2021-06-19T09:01:04+0000</time>
      </trkpt>
      <trkpt lat="40.597280000000005" lon="-2.72494">
        <time>2021-06-19T09:01:05+0000</time>
      </trkpt>
      <trkpt lat="40.597350000000006" lon="-2.7249800000000004">
        <time>2021-06-19T09:01:06+0000</time>
      </trkpt>
      <trkpt lat="40.59742000000001" lon="-2.7250300000000003">
        <time>2021-06-19T09:01:07+0000</time>
      </trkpt>
      <trkpt lat="40.59749" lon="-2.72508">
        <time>2021-06-19T09:01:08+0000</time>
      </trkpt>
      <trkpt lat="40.59756" lon="-2.72513">
        <time>2021-06-19T09:01:09+0000</time>
      </trkpt>
      <trkpt lat="40.597640000000006" lon="-2.72519">
        <time>2021-06-19T09:01:10+0000</time>
      </trkpt>
      <trkpt lat="40.597710000000006" lon="-2.7252500000000004">
        <time>2021-06-19T09:01:11+0000</time>
      </trkpt>
      <trkpt lat="40.59780000000001" lon="-2.7253100000000003">
        <time>2021-06-19T09:01:12+0000</time>
      </trkpt>
      <trkpt lat="40.59788" lon="-2.7253800000000004">
        <time>2021-06-19T09:01:13+0000</time>
      </trkpt>
      <trkpt lat="40.59796" lon="-2.7254500000000004">
        <time>2021-06-19T09:01:14+0000</time>
      </trkpt>
      <trkpt lat="40.598040000000005" lon="-2.7255100000000003">
        <time>2021-06-19T09:01:15+0000</time>
      </trkpt>
      <trkpt lat="40.59812" lon="-2.7255700000000003">
        <time>2021-06-19T09:01:16+0000</time>
      </trkpt>
      <trkpt lat="40.59819" lon="-2.72563">
        <time>2021-06-19T09:01:17+0000</time>
      </trkpt>
      <trkpt lat="40.59826" lon="-2.72567">
        <time>2021-06-19T09:01:18+0000</time>
      </trkpt>
      <trkpt lat="40.59832" lon="-2.7257100000000003">
        <time>2021-06-19T09:01:19+0000</time>
      </trkpt>
      <trkpt lat="40.598380000000006" lon="-2.7257100000000003">
        <time>2021-06-19T09:01:20+0000</time>
      </trkpt>
      <trkpt lat="40.59843" lon="-2.72567">
        <time>2021-06-19T09:01:21+0000</time>
      </trkpt>
      <trkpt lat="40.598490000000005" lon="-2.72563">
        <time>2021-06-19T09:01:22+0000</time>
      </trkpt>
      <trkpt lat="40.59852" lon="-2.72555">
        <time>2021-06-19T09:01:23+0000</time>
      </trkpt>
      <trkpt lat="40.598490000000005" lon="-2.7254500000000004">
        <time>2021-06-19T09:01:24+0000</time>
      </trkpt>
      <trkpt lat="40.598510000000005" lon="-2.72533">
        <time>2021-06-19T09:01:25+0000</time>
      </trkpt>
      <trkpt lat="40.59854" lon="-2.7251800000000004">
        <time>2021-06-19T09:01:26+0000</time>
      </trkpt>
      <trkpt lat="40.59857" lon="-2.72502">
        <time>2021-06-19T09:01:27+0000</time>
      </trkpt>
      <trkpt lat="40.598620000000004" lon="-2.7248500000000004">
        <time>2021-06-19T09:01:28+0000</time>
      </trkpt>
      <trkpt lat="40.59864" lon="-2.72468">
        <time>2021-06-19T09:01:29+0000</time>
      </trkpt>
      <trkpt lat="40.598670000000006" lon="-2.7245000000000004">
        <time>2021-06-19T09:01:30+0000</time>
      </trkpt>
      <trkpt lat="40.5987" lon="-2.7243000000000004">
        <time>2021-06-19T09:01:31+0000</time>
      </trkpt>
      <trkpt lat="40.59874000000001" lon="-2.72411">
        <time>2021-06-19T09:01:32+0000</time>
      </trkpt>
      <trkpt lat="40.598780000000005" lon="-2.72393">
        <time>2021-06-19T09:01:33+0000</time>
      </trkpt>
      <trkpt lat="40.59882" lon="-2.7237500000000003">
        <time>2021-06-19T09:01:34+0000</time>
      </trkpt>
      <trkpt lat="40.598870000000005" lon="-2.72358">
        <time>2021-06-19T09:01:35+0000</time>
      </trkpt>
      <trkpt lat="40.59892000000001" lon="-2.7234100000000003">
        <time>2021-06-19T09:01:36+0000</time>
      </trkpt>
      <trkpt lat="40.598960000000005" lon="-2.7232600000000002">
        <time>2021-06-19T09:01:37+0000</time>
      </trkpt>
      <trkpt lat="40.59901" lon="-2.72309">
        <time>2021-06-19T09:01:38+0000</time>
      </trkpt>
      <trkpt lat="40.599050000000005" lon="-2.7229300000000003">
        <time>2021-06-19T09:01:39+0000</time>
      </trkpt>
      <trkpt lat="40.59908" lon="-2.72276">
        <time>2021-06-19T09:01:40+0000</time>
      </trkpt>
      <trkpt lat="40.599070000000005" lon="-2.72257">
        <time>2021-06-19T09:01:41+0000</time>
      </trkpt>
      <trkpt lat="40.599030000000006" lon="-2.72237">
        <time>2021-06-19T09:01:42+0000</time>
      </trkpt>
      <trkpt lat="40.598960000000005" lon="-2.7221900000000003">
        <time>2021-06-19T09:01:43+0000</time>
      </trkpt>
      <trkpt lat="40.598890000000004" lon="-2.72201">
        <time>2021-06-19T09:01:44+0000</time>
      </trkpt>
      <trkpt lat="40.598800000000004" lon="-2.72183">
        <time>2021-06-19T09:01:45+0000</time>
      </trkpt>
      <trkpt lat="40.59872" lon="-2.7216600000000004">
        <time>2021-06-19T09:01:46+0000</time>
      </trkpt>
      <trkpt lat="40.598650000000006" lon="-2.7215100000000003">
        <time>2021-06-19T09:01:47+0000</time>
      </trkpt>
      <trkpt lat="40.598580000000005" lon="-2.7213600000000002">
        <time>2021-06-19T09:01:48+0000</time>
      </trkpt>
      <trkpt lat="40.598510000000005" lon="-2.72121">
        <time>2021-06-19T09:01:49+0000</time>
      </trkpt>
      <trkpt lat="40.59845000000001" lon="-2.72108">
        <time>2021-06-19T09:01:50+0000</time>
      </trkpt>
      <trkpt lat="40.598380000000006" lon="-2.7209700000000003">
        <time>2021-06-19T09:01:51+0000</time>
      </trkpt>
      <trkpt lat="40.598310000000005" lon="-2.72086">
        <time>2021-06-19T09:01:52+0000</time>
      </trkpt>
      <trkpt lat="40.59825" lon="-2.72073">
        <time>2021-06-19T09:01:53+0000</time>
      </trkpt>
      <trkpt lat="40.59819" lon="-2.72061">
        <time>2021-06-19T09:01:54+0000</time>
      </trkpt>
      <trkpt lat="40.598130000000005" lon="-2.7204900000000003">
        <time>2021-06-19T09:01:55+0000</time>
      </trkpt>
      <trkpt lat="40.59807" lon="-2.72038">
        <time>2021-06-19T09:01:56+0000</time>
      </trkpt>
      <trkpt lat="40.598020000000005" lon="-2.72026">
        <time>2021-06-19T09:01:57+0000</time>
      </trkpt>
      <trkpt lat="40.59796" lon="-2.7201400000000002">
        <time>2021-06-19T09:01:58+0000</time>
      </trkpt>
      <trkpt lat="40.5979" lon="-2.7200200000000003">
        <time>2021-06-19T09:01:59+0000</time>
      </trkpt>
      <trkpt lat="40.597840000000005" lon="-2.7198900000000004">
        <time>2021-06-19T09:02:00+0000</time>
      </trkpt>
      <trkpt lat="40.59778" lon="-2.7197500000000003">
        <time>2021-06-19T09:02:01+0000</time>
      </trkpt>
      <trkpt lat="40.59772" lon="-2.7196200000000004">
        <time>2021-06-19T09:02:02+0000</time>
      </trkpt>
      <trkpt lat="40.59765" lon="-2.7194800000000003">
        <time>2021-06-19T09:02:03+0000</time>
      </trkpt>
      <trkpt lat="40.59758" lon="-2.7193400000000003">
        <time>2021-06-19T09:02:04+0000</time>
      </trkpt>
      <trkpt lat="40.59752" lon="-2.7192000000000003">
        <time>2021-06-19T09:02:05+0000</time>
      </trkpt>
      <trkpt lat="40.597460000000005" lon="-2.7190600000000003">
        <time>2021-06-19T09:02:06+0000</time>
      </trkpt>
      <trkpt lat="40.59741" lon="-2.7189200000000002">
        <time>2021-06-19T09:02:07+0000</time>
      </trkpt>
      <trkpt lat="40.59738" lon="-2.71877">
        <time>2021-06-19T09:02:08+0000</time>
      </trkpt>
      <trkpt lat="40.59736" lon="-2.7186100000000004">
        <time>2021-06-19T09:02:09+0000</time>
      </trkpt>
      <trkpt lat="40.597350000000006" lon="-2.71844">
        <time>2021-06-19T09:02:10+0000</time>
      </trkpt>
      <trkpt lat="40.59736" lon="-2.7182600000000003">
        <time>2021-06-19T09:02:11+0000</time>
      </trkpt>
      <trkpt lat="40.5974" lon="-2.71809">
        <time>2021-06-19T09:02:12+0000</time>
      </trkpt>
      <trkpt lat="40.59745" lon="-2.7179100000000003">
        <time>2021-06-19T09:02:13+0000</time>
      </trkpt>
      <trkpt lat="40.59752" lon="-2.71774">
        <time>2021-06-19T09:02:14+0000</time>
      </trkpt>
      <trkpt lat="40.59761" lon="-2.7175700000000003">
        <time>2021-06-19T09:02:15+0000</time>
      </trkpt>
      <trkpt lat="40.597710000000006" lon="-2.71742">
        <time>2021-06-19T09:02:16+0000</time>
      </trkpt>
      <trkpt lat="40.597820000000006" lon="-2.71727">
        <time>2021-06-19T09:02:17+0000</time>
      </trkpt>
      <trkpt lat="40.59794" lon="-2.7171000000000003">
        <time>2021-06-19T09:02:18+0000</time>
      </trkpt>
      <trkpt lat="40.598040000000005" lon="-2.7169100000000004">
        <time>2021-06-19T09:02:19+0000</time>
      </trkpt>
      <trkpt lat="40.598130000000005" lon="-2.7166900000000003">
        <time>2021-06-19T09:02:20+0000</time>
      </trkpt>
      <trkpt lat="40.59817" lon="-2.71646">
        <time>2021-06-19T09:02:21+0000</time>
      </trkpt>
      <trkpt lat="40.59819" lon="-2.7162200000000003">
        <time>2021-06-19T09:02:22+0000</time>
      </trkpt>
      <trkpt lat="40.59816" lon="-2.71599">
        <time>2021-06-19T09:02:23+0000</time>
      </trkpt>
      <trkpt lat="40.5981" lon="-2.7157500000000003">
        <time>2021-06-19T09:02:24+0000</time>
      </trkpt>
      <trkpt lat="40.59799" lon="-2.7155500000000004">
        <time>2021-06-19T09:02:25+0000</time>
      </trkpt>
      <trkpt lat="40.597860000000004" lon="-2.71539">
        <time>2021-06-19T09:02:26+0000</time>
      </trkpt>
      <trkpt lat="40.597710000000006" lon="-2.71525">
        <time>2021-06-19T09:02:27+0000</time>
      </trkpt>
      <trkpt lat="40.59754" lon="-2.71512">
        <time>2021-06-19T09:02:28+0000</time>
      </trkpt>
      <trkpt lat="40.597370000000005" lon="-2.7149900000000002">
        <time>2021-06-19T09:02:29+0000</time>
      </trkpt>
      <trkpt lat="40.597210000000004" lon="-2.71489">
        <time>2021-06-19T09:02:30+0000</time>
      </trkpt>
      <trkpt lat="40.597060000000006" lon="-2.7147900000000003">
        <time>2021-06-19T09:02:31+0000</time>
      </trkpt>
      <trkpt lat="40.596920000000004" lon="-2.71469">
        <time>2021-06-19T09:02:32+0000</time>
      </trkpt>
      <trkpt lat="40.5968" lon="-2.71457">
        <time>2021-06-19T09:02:33+0000</time>
      </trkpt>
      <trkpt lat="40.596680000000006" lon="-2.71448">
        <time>2021-06-19T09:02:34+0000</time>
      </trkpt>
      <trkpt lat="40.59657" lon="-2.71437">
        <time>2021-06-19T09:02:35+0000</time>
      </trkpt>
      <trkpt lat="40.59649" lon="-2.7142600000000003">
        <time>2021-06-19T09:02:36+0000</time>
      </trkpt>
      <trkpt lat="40.5964" lon="-2.7141300000000004">
        <time>2021-06-19T09:02:37+0000</time>
      </trkpt>
      <trkpt lat="40.596340000000005" lon="-2.7140000000000004">
        <time>2021-06-19T09:02:38+0000</time>
      </trkpt>
      <trkpt lat="40.59626" lon="-2.71387">
        <time>2021-06-19T09:02:39+0000</time>
      </trkpt>
      <trkpt lat="40.596180000000004" lon="-2.71375">
        <time>2021-06-19T09:02:40+0000</time>
      </trkpt>
      <trkpt lat="40.596070000000005" lon="-2.7136500000000003">
        <time>2021-06-19T09:02:41+0000</time>
      </trkpt>
      <trkpt lat="40.59593" lon="-2.71361">
        <time>2021-06-19T09:02:42+0000</time>
      </trkpt>
      <trkpt lat="40.59577" lon="-2.7135800000000003">
        <time>2021-06-19T09:02:43+0000</time>
      </trkpt>
      <trkpt lat="40.595600000000005" lon="-2.71356">
        <time>2021-06-19T09:02:44+0000</time>
      </trkpt>
      <trkpt lat="40.595420000000004" lon="-2.71355">
        <time>2021-06-19T09:02:45+0000</time>
      </trkpt>
      <trkpt lat="40.595240000000004" lon="-2.7135300000000004">
        <time>2021-06-19T09:02:46+0000</time>
      </trkpt>
      <trkpt lat="40.59505" lon="-2.7135100000000003">
        <time>2021-06-19T09:02:47+0000</time>
      </trkpt>
      <trkpt lat="40.594860000000004" lon="-2.71348">
        <time>2021-06-19T09:02:48+0000</time>
      </trkpt>
      <trkpt lat="40.59467" lon="-2.7134600000000004">
        <time>2021-06-19T09:02:49+0000</time>
      </trkpt>
      <trkpt lat="40.594480000000004" lon="-2.7134400000000003">
        <time>2021-06-19T09:02:50+0000</time>
      </trkpt>
      <trkpt lat="40.59429" lon="-2.71342">
        <time>2021-06-19T09:02:51+0000</time>
      </trkpt>
      <trkpt lat="40.594100000000005" lon="-2.7134">
        <time>2021-06-19T09:02:52+0000</time>
      </trkpt>
      <trkpt lat="40.59393" lon="-2.7133900000000004">
        <time>2021-06-19T09:02:53+0000</time>
      </trkpt>
      <trkpt lat="40.59376" lon="-2.7133800000000003">
        <time>2021-06-19T09:02:54+0000</time>
      </trkpt>
      <trkpt lat="40.5936" lon="-2.7133900000000004">
        <time>2021-06-19T09:02:55+0000</time>
      </trkpt>
      <trkpt lat="40.59344" lon="-2.7134">
        <time>2021-06-19T09:02:56+0000</time>
      </trkpt>
      <trkpt lat="40.593270000000004" lon="-2.71342">
        <time>2021-06-19T09:02:57+0000</time>
      </trkpt>
      <trkpt lat="40.593120000000006" lon="-2.7134300000000002">
        <time>2021-06-19T09:02:58+0000</time>
      </trkpt>
      <trkpt lat="40.59297" lon="-2.7134500000000004">
        <time>2021-06-19T09:02:59+0000</time>
      </trkpt>
      <trkpt lat="40.59282" lon="-2.7134500000000004">
        <time>2021-06-19T09:03:00+0000</time>
      </trkpt>
      <trkpt lat="40.59266" lon="-2.7134400000000003">
        <time>2021-06-19T09:03:01+0000</time>
      </trkpt>
      <trkpt lat="40.592490000000005" lon="-2.71342">
        <time>2021-06-19T09:03:02+0000</time>
      </trkpt>
      <trkpt lat="40.59232" lon="-2.7133900000000004">
        <time>2021-06-19T09:03:03+0000</time>
      </trkpt>
      <trkpt lat="40.59214" lon="-2.71336">
        <time>2021-06-19T09:03:04+0000</time>
      </trkpt>
      <trkpt lat="40.591950000000004" lon="-2.7133100000000003">
        <time>2021-06-19T09:03:05+0000</time>
      </trkpt>
      <trkpt lat="40.591770000000004" lon="-2.71327">
        <time>2021-06-19T09:03:06+0000</time>
      </trkpt>
      <trkpt lat="40.591590000000004" lon="-2.7132400000000003">
        <time>2021-06-19T09:03:07+0000</time>
      </trkpt>
      <trkpt lat="40.59141" lon="-2.7131900000000004">
        <time>2021-06-19T09:03:08+0000</time>
      </trkpt>
      <trkpt lat="40.591240000000006" lon="-2.71315">
        <time>2021-06-19T09:03:09+0000</time>
      </trkpt>
      <trkpt lat="40.59107" lon="-2.71313">
        <time>2021-06-19T09:03:10+0000</time>
      </trkpt>
      <trkpt lat="40.590900000000005" lon="-2.7131000000000003">
        <time>2021-06-19T09:03:11+0000</time>
      </trkpt>
      <trkpt lat="40.590740000000004" lon="-2.71306">
        <time>2021-06-19T09:03:12+0000</time>
      </trkpt>
      <trkpt lat="40.59057000000001" lon="-2.71301">
        <time>2021-06-19T09:03:13+0000</time>
      </trkpt>
      <trkpt lat="40.59042" lon="-2.7129000000000003">
        <time>2021-06-19T09:03:14+0000</time>
      </trkpt>
      <trkpt lat="40.590250000000005" lon="-2.71279">
        <time>2021-06-19T09:03:15+0000</time>
      </trkpt>
      <trkpt lat="40.59008" lon="-2.71266">
        <time>2021-06-19T09:03:16+0000</time>
      </trkpt>
      <trkpt lat="40.58991" lon="-2.71253">
        <time>2021-06-19T09:03:17+0000</time>
      </trkpt>
      <trkpt lat="40.589740000000006" lon="-2.7124">
        <time>2021-06-19T09:03:18+0000</time>
      </trkpt>
      <trkpt lat="40.589560000000006" lon="-2.71226">
        <time>2021-06-19T09:03:19+0000</time>
      </trkpt>
      <trkpt lat="40.589380000000006" lon="-2.71212">
        <time>2021-06-19T09:03:20+0000</time>
      </trkpt>
      <trkpt lat="40.589200000000005" lon="-2.71198">
        <time>2021-06-19T09:03:21+0000</time>
      </trkpt>
      <trkpt lat="40.589020000000005" lon="-2.71185">
        <time>2021-06-19T09:03:22+0000</time>
      </trkpt>
      <trkpt lat="40.588820000000005" lon="-2.71171">
        <time>2021-06-19T09:03:23+0000</time>
      </trkpt>
      <trkpt lat="40.588620000000006" lon="-2.71159">
        <time>2021-06-19T09:03:24+0000</time>
      </trkpt>
      <trkpt lat="40.58843" lon="-2.7114700000000003">
        <time>2021-06-19T09:03:25+0000</time>
      </trkpt>
      <trkpt lat="40.58823" lon="-2.7113600000000004">
        <time>2021-06-19T09:03:26+0000</time>
      </trkpt>
      <trkpt lat="40.58803" lon="-2.7112600000000002">
        <time>2021-06-19T09:03:27+0000</time>
      </trkpt>
      <trkpt lat="40.58784" lon="-2.7111500000000004">
        <time>2021-06-19T09:03:28+0000</time>
      </trkpt>
      <trkpt lat="40.58766000000001" lon="-2.71104">
        <time>2021-06-19T09:03:29+0000</time>
      </trkpt>
      <trkpt lat="40.58747" lon="-2.7109300000000003">
        <time>2021-06-19T09:03:30+0000</time>
      </trkpt>
      <trkpt lat="40.58729" lon="-2.71083">
        <time>2021-06-19T09:03:31+0000</time>
      </trkpt>
      <trkpt lat="40.587120000000006" lon="-2.7107200000000002">
        <time>2021-06-19T09:03:32+0000</time>
      </trkpt>
      <trkpt lat="40.58697" lon="-2.7106000000000003">
        <time>2021-06-19T09:03:33+0000</time>
      </trkpt>
      <trkpt lat="40.58684" lon="-2.71044">
        <time>2021-06-19T09:03:34+0000</time>
      </trkpt>
      <trkpt lat="40.58673" lon="-2.7102500000000003">
        <time>2021-06-19T09:03:35+0000</time>
      </trkpt>
      <trkpt lat="40.58662" lon="-2.71003">
        <time>2021-06-19T09:03:36+0000</time>
      </trkpt>
      <trkpt lat="40.586510000000004" lon="-2.70981">
        <time>2021-06-19T09:03:37+0000</time>
      </trkpt>
      <trkpt lat="40.58639" lon="-2.7095700000000003">
        <time>2021-06-19T09:03:38+0000</time>
      </trkpt>
      <trkpt lat="40.586270000000006" lon="-2.70933">
        <time>2021-06-19T09:03:39+0000</time>
      </trkpt>
      <trkpt lat="40.58615" lon="-2.70909">
        <time>2021-06-19T09:03:40+0000</time>
      </trkpt>
      <trkpt lat="40.58603" lon="-2.7088500000000004">
        <time>2021-06-19T09:03:41+0000</time>
      </trkpt>
      <trkpt lat="40.58592" lon="-2.70861">
        <time>2021-06-19T09:03:42+0000</time>
      </trkpt>
      <trkpt lat="40.58581" lon="-2.7083700000000004">
        <time>2021-06-19T09:03:43+0000</time>
      </trkpt>
      <trkpt lat="40.585710000000006" lon="-2.70811">
        <time>2021-06-19T09:03:44+0000</time>
      </trkpt>
      <trkpt lat="40.585660000000004" lon="-2.70785">
        <time>2021-06-19T09:03:45+0000</time>
      </trkpt>
      <trkpt lat="40.585620000000006" lon="-2.70757">
        <time>2021-06-19T09:03:46+0000</time>
      </trkpt>
      <trkpt lat="40.58560000000001" lon="-2.7072900000000004">
        <time>2021-06-19T09:03:47+0000</time>
      </trkpt>
      <trkpt lat="40.58558" lon="-2.7070100000000004">
        <time>2021-06-19T09:03:48+0000</time>
      </trkpt>
      <trkpt lat="40.585530000000006" lon="-2.7067500000000004">
        <time>2021-06-19T09:03:49+0000</time>
      </trkpt>
      <trkpt lat="40.5855" lon="-2.70649">
        <time>2021-06-19T09:03:50+0000</time>
      </trkpt>
      <trkpt lat="40.585440000000006" lon="-2.7062500000000003">
        <time>2021-06-19T09:03:51+0000</time>
      </trkpt>
      <trkpt lat="40.58536" lon="-2.70601">
        <time>2021-06-19T09:03:52+0000</time>
      </trkpt>
      <trkpt lat="40.58527" lon="-2.70581">
        <time>2021-06-19T09:03:53+0000</time>
      </trkpt>
      <trkpt lat="40.585190000000004" lon="-2.7056600000000004">
        <time>2021-06-19T09:03:54+0000</time>
      </trkpt>
      <trkpt lat="40.58513000000001" lon="-2.7055300000000004">
        <time>2021-06-19T09:03:55+0000</time>
      </trkpt>
      <trkpt lat="40.585080000000005" lon="-2.7054">
        <time>2021-06-19T09:03:56+0000</time>
      </trkpt>
      <trkpt lat="40.585040000000006" lon="-2.70527">
        <time>2021-06-19T09:03:57+0000</time>
      </trkpt>
      <trkpt lat="40.58502" lon="-2.7051200000000004">
        <time>2021-06-19T09:03:58+0000</time>
      </trkpt>
      <trkpt lat="40.58502" lon="-2.7049600000000003">
        <time>2021-06-19T09:03:59+0000</time>
      </trkpt>
      <trkpt lat="40.585060000000006" lon="-2.70481">
        <time>2021-06-19T09:04:00+0000</time>
      </trkpt>
      <trkpt lat="40.58512" lon="-2.70467">
        <time>2021-06-19T09:04:01+0000</time>
      </trkpt>
      <trkpt lat="40.5852" lon="-2.7045500000000002">
        <time>2021-06-19T09:04:02+0000</time>
      </trkpt>
      <trkpt lat="40.58529" lon="-2.7044400000000004">
        <time>2021-06-19T09:04:03+0000</time>
      </trkpt>
      <trkpt lat="40.585370000000005" lon="-2.70434">
        <time>2021-06-19T09:04:04+0000</time>
      </trkpt>
      <trkpt lat="40.58545" lon="-2.7042400000000004">
        <time>2021-06-19T09:04:05+0000</time>
      </trkpt>
      <trkpt lat="40.58554" lon="-2.70413">
        <time>2021-06-19T09:04:06+0000</time>
      </trkpt>
      <trkpt lat="40.585620000000006" lon="-2.7040300000000004">
        <time>2021-06-19T09:04:07+0000</time>
      </trkpt>
      <trkpt lat="40.58572" lon="-2.70393">
        <time>2021-06-19T09:04:08+0000</time>
      </trkpt>
      <trkpt lat="40.58581" lon="-2.7038300000000004">
        <time>2021-06-19T09:04:09+0000</time>
      </trkpt>
      <trkpt lat="40.5859" lon="-2.70373">
        <time>2021-06-19T09:04:10+0000</time>
      </trkpt>
      <trkpt lat="40.585980000000006" lon="-2.70364">
        <time>2021-06-19T09:04:11+0000</time>
      </trkpt>
      <trkpt lat="40.58607000000001" lon="-2.7035600000000004">
        <time>2021-06-19T09:04:12+0000</time>
      </trkpt>
      <trkpt lat="40.58617" lon="-2.7034700000000003">
        <time>2021-06-19T09:04:13+0000</time>
      </trkpt>
      <trkpt lat="40.58628" lon="-2.70337">
        <time>2021-06-19T09:04:14+0000</time>
      </trkpt>
      <trkpt lat="40.58639" lon="-2.7032700000000003">
        <time>2021-06-19T09:04:15+0000</time>
      </trkpt>
      <trkpt lat="40.586510000000004" lon="-2.7031500000000004">
        <time>2021-06-19T09:04:16+0000</time>
      </trkpt>
      <trkpt lat="40.586650000000006" lon="-2.7030200000000004">
        <time>2021-06-19T09:04:17+0000</time>
      </trkpt>
      <trkpt lat="40.58679" lon="-2.7028800000000004">
        <time>2021-06-19T09:04:18+0000</time>
      </trkpt>
      <trkpt lat="40.586940000000006" lon="-2.7027500000000004">
        <time>2021-06-19T09:04:19+0000</time>
      </trkpt>
      <trkpt lat="40.58708" lon="-2.7026000000000003">
        <time>2021-06-19T09:04:20+0000</time>
      </trkpt>
      <trkpt lat="40.587230000000005" lon="-2.7024600000000003">
        <time>2021-06-19T09:04:21+0000</time>
      </trkpt>
      <trkpt lat="40.587390000000006" lon="-2.7023">
        <time>2021-06-19T09:04:22+0000</time>
      </trkpt>
      <trkpt lat="40.587540000000004" lon="-2.70215">
        <time>2021-06-19T09:04:23+0000</time>
      </trkpt>
      <trkpt lat="40.58769" lon="-2.7020000000000004">
        <time>2021-06-19T09:04:24+0000</time>
      </trkpt>
      <trkpt lat="40.58784" lon="-2.7018500000000003">
        <time>2021-06-19T09:04:25+0000</time>
      </trkpt>
      <trkpt lat="40.588" lon="-2.7017100000000003">
        <time>2021-06-19T09:04:26+0000</time>
      </trkpt>
      <trkpt lat="40.58816" lon="-2.7015700000000002">
        <time>2021-06-19T09:04:27+0000</time>
      </trkpt>
      <trkpt lat="40.58832" lon="-2.70143">
        <time>2021-06-19T09:04:28+0000</time>
      </trkpt>
      <trkpt lat="40.58847" lon="-2.70129">
        <time>2021-06-19T09:04:29+0000</time>
      </trkpt>
      <trkpt lat="40.588620000000006" lon="-2.70114">
        <time>2021-06-19T09:04:30+0000</time>
      </trkpt>
      <trkpt lat="40.588770000000004" lon="-2.7009800000000004">
        <time>2021-06-19T09:04:31+0000</time>
      </trkpt>
      <trkpt lat="40.5889" lon="-2.70081">
        <time>2021-06-19T09:04:32+0000</time>
      </trkpt>
      <trkpt lat="40.58903" lon="-2.7006200000000002">
        <time>2021-06-19T09:04:33+0000</time>
      </trkpt>
      <trkpt lat="40.589150000000004" lon="-2.7004200000000003">
        <time>2021-06-19T09:04:34+0000</time>
      </trkpt>
      <trkpt lat="40.58925" lon="-2.7002">
        <time>2021-06-19T09:04:35+0000</time>
      </trkpt>
      <trkpt lat="40.58935" lon="-2.69999">
        <time>2021-06-19T09:04:36+0000</time>
      </trkpt>
      <trkpt lat="40.58944" lon="-2.69978">
        <time>2021-06-19T09:04:37+0000</time>
      </trkpt>
      <trkpt lat="40.58953" lon="-2.69958">
        <time>2021-06-19T09:04:38+0000</time>
      </trkpt>
      <trkpt lat="40.589620000000004" lon="-2.6994000000000002">
        <time>2021-06-19T09:04:39+0000</time>
      </trkpt>
      <trkpt lat="40.58972" lon="-2.6992200000000004">
        <time>2021-06-19T09:04:40+0000</time>
      </trkpt>
      <trkpt lat="40.589830000000006" lon="-2.69905">
        <time>2021-06-19T09:04:41+0000</time>
      </trkpt>
      <trkpt lat="40.589940000000006" lon="-2.69889">
        <time>2021-06-19T09:04:42+0000</time>
      </trkpt>
      <trkpt lat="40.59006" lon="-2.6987400000000004">
        <time>2021-06-19T09:04:43+0000</time>
      </trkpt>
      <trkpt lat="40.590180000000004" lon="-2.6986000000000003">
        <time>2021-06-19T09:04:44+0000</time>
      </trkpt>
      <trkpt lat="40.590300000000006" lon="-2.6984500000000002">
        <time>2021-06-19T09:04:45+0000</time>
      </trkpt>
      <trkpt lat="40.59042" lon="-2.69831">
        <time>2021-06-19T09:04:46+0000</time>
      </trkpt>
      <trkpt lat="40.59056" lon="-2.6981900000000003">
        <time>2021-06-19T09:04:47+0000</time>
      </trkpt>
      <trkpt lat="40.59071" lon="-2.6981">
        <time>2021-06-19T09:04:48+0000</time>
      </trkpt>
      <trkpt lat="40.59087" lon="-2.69804">
        <time>2021-06-19T09:04:49+0000</time>
      </trkpt>
      <trkpt lat="40.59103" lon="-2.6979900000000003">
        <time>2021-06-19T09:04:50+0000</time>
      </trkpt>
      <trkpt lat="40.591210000000004" lon="-2.69797">
        <time>2021-06-19T09:04:51+0000</time>
      </trkpt>
      <trkpt lat="40.5914" lon="-2.69797">
        <time>2021-06-19T09:04:52+0000</time>
      </trkpt>
      <trkpt lat="40.591590000000004" lon="-2.6979800000000003">
        <time>2021-06-19T09:04:53+0000</time>
      </trkpt>
      <trkpt lat="40.591770000000004" lon="-2.6979800000000003">
        <time>2021-06-19T09:04:54+0000</time>
      </trkpt>
      <trkpt lat="40.591950000000004" lon="-2.6979800000000003">
        <time>2021-06-19T09:04:55+0000</time>
      </trkpt>
      <trkpt lat="40.592130000000004" lon="-2.69797">
        <time>2021-06-19T09:04:56+0000</time>
      </trkpt>
      <trkpt lat="40.59232" lon="-2.69795">
        <time>2021-06-19T09:04:57+0000</time>
      </trkpt>
      <trkpt lat="40.592510000000004" lon="-2.69794">
        <time>2021-06-19T09:04:58+0000</time>
      </trkpt>
      <trkpt lat="40.5927" lon="-2.69794">
        <time>2021-06-19T09:04:59+0000</time>
      </trkpt>
      <trkpt lat="40.592890000000004" lon="-2.6979300000000004">
        <time>2021-06-19T09:05:00+0000</time>
      </trkpt>
      <trkpt lat="40.59308" lon="-2.6979200000000003">
        <time>2021-06-19T09:05:01+0000</time>
      </trkpt>
      <trkpt lat="40.59328" lon="-2.6979">
        <time>2021-06-19T09:05:02+0000</time>
      </trkpt>
      <trkpt lat="40.59347" lon="-2.69789">
        <time>2021-06-19T09:05:03+0000</time>
      </trkpt>
      <trkpt lat="40.59366" lon="-2.69789">
        <time>2021-06-19T09:05:04+0000</time>
      </trkpt>
      <trkpt lat="40.593830000000004" lon="-2.6978700000000004">
        <time>2021-06-19T09:05:05+0000</time>
      </trkpt>
      <trkpt lat="40.594" lon="-2.6978600000000004">
        <time>2021-06-19T09:05:06+0000</time>
      </trkpt>
      <trkpt lat="40.59416" lon="-2.6978500000000003">
        <time>2021-06-19T09:05:07+0000</time>
      </trkpt>
      <trkpt lat="40.59433000000001" lon="-2.6978400000000002">
        <time>2021-06-19T09:05:08+0000</time>
      </trkpt>
      <trkpt lat="40.59449" lon="-2.69783">
        <time>2021-06-19T09:05:09+0000</time>
      </trkpt>
      <trkpt lat="40.59467" lon="-2.69782">
        <time>2021-06-19T09:05:10+0000</time>
      </trkpt>
      <trkpt lat="40.59485" lon="-2.69781">
        <time>2021-06-19T09:05:11+0000</time>
      </trkpt>
      <trkpt lat="40.59503" lon="-2.6978000000000004">
        <time>2021-06-19T09:05:12+0000</time>
      </trkpt>
      <trkpt lat="40.595200000000006" lon="-2.6977700000000002">
        <time>2021-06-19T09:05:13+0000</time>
      </trkpt>
      <trkpt lat="40.595380000000006" lon="-2.69775">
        <time>2021-06-19T09:05:14+0000</time>
      </trkpt>
      <trkpt lat="40.59554000000001" lon="-2.6977300000000004">
        <time>2021-06-19T09:05:15+0000</time>
      </trkpt>
      <trkpt lat="40.595710000000004" lon="-2.6977200000000003">
        <time>2021-06-19T09:05:16+0000</time>
      </trkpt>
      <trkpt lat="40.595870000000005" lon="-2.6977100000000003">
        <time>2021-06-19T09:05:17+0000</time>
      </trkpt>
      <trkpt lat="40.596030000000006" lon="-2.6977">
        <time>2021-06-19T09:05:18+0000</time>
      </trkpt>
      <trkpt lat="40.59619" lon="-2.69769">
        <time>2021-06-19T09:05:19+0000</time>
      </trkpt>
      <trkpt lat="40.59635" lon="-2.69769">
        <time>2021-06-19T09:05:20+0000</time>
      </trkpt>
      <trkpt lat="40.59651" lon="-2.69768">
        <time>2021-06-19T09:05:21+0000</time>
      </trkpt>
      <trkpt lat="40.596650000000004" lon="-2.69767">
        <time>2021-06-19T09:05:22+0000</time>
      </trkpt>
      <trkpt lat="40.59678" lon="-2.6976600000000004">
        <time>2021-06-19T09:05:23+0000</time>
      </trkpt>
      <trkpt lat="40.596920000000004" lon="-2.6976500000000003">
        <time>2021-06-19T09:05:24+0000</time>
      </trkpt>
      <trkpt lat="40.597060000000006" lon="-2.69763">
        <time>2021-06-19T09:05:25+0000</time>
      </trkpt>
      <trkpt lat="40.5972" lon="-2.69762">
        <time>2021-06-19T09:05:26+0000</time>
      </trkpt>
      <trkpt lat="40.597350000000006" lon="-2.69761">
        <time>2021-06-19T09:05:27+0000</time>
      </trkpt>
      <trkpt lat="40.59751000000001" lon="-2.6976000000000004">
        <time>2021-06-19T09:05:28+0000</time>
      </trkpt>
      <trkpt lat="40.597660000000005" lon="-2.6975900000000004">
        <time>2021-06-19T09:05:29+0000</time>
      </trkpt>
      <trkpt lat="40.59783" lon="-2.6975800000000003">
        <time>2021-06-19T09:05:30+0000</time>
      </trkpt>
      <trkpt lat="40.59799" lon="-2.6975700000000002">
        <time>2021-06-19T09:05:31+0000</time>
      </trkpt>
      <trkpt lat="40.598150000000004" lon="-2.69755">
        <time>2021-06-19T09:05:32+0000</time>
      </trkpt>
      <trkpt lat="40.59832" lon="-2.6975300000000004">
        <time>2021-06-19T09:05:33+0000</time>
      </trkpt>
      <trkpt lat="40.5985" lon="-2.69749">
        <time>2021-06-19T09:05:34+0000</time>
      </trkpt>
      <trkpt lat="40.59868" lon="-2.6974500000000003">
        <time>2021-06-19T09:05:35+0000</time>
      </trkpt>
      <trkpt lat="40.598870000000005" lon="-2.6974">
        <time>2021-06-19T09:05:36+0000</time>
      </trkpt>
      <trkpt lat="40.59906" lon="-2.69733">
        <time>2021-06-19T09:05:37+0000</time>
      </trkpt>
      <trkpt lat="40.599250000000005" lon="-2.6972600000000004">
        <time>2021-06-19T09:05:38+0000</time>
      </trkpt>
      <trkpt lat="40.599450000000004" lon="-2.6972">
        <time>2021-06-19T09:05:39+0000</time>
      </trkpt>
      <trkpt lat="40.599650000000004" lon="-2.69713">
        <time>2021-06-19T09:05:40+0000</time>
      </trkpt>
      <trkpt lat="40.59984" lon="-2.69707">
        <time>2021-06-19T09:05:41+0000</time>
      </trkpt>
      <trkpt lat="40.600030000000004" lon="-2.697">
        <time>2021-06-19T09:05:42+0000</time>
      </trkpt>
      <trkpt lat="40.60022" lon="-2.69694">
        <time>2021-06-19T09:05:43+0000</time>
      </trkpt>
      <trkpt lat="40.600390000000004" lon="-2.69688">
        <time>2021-06-19T09:05:44+0000</time>
      </trkpt>
      <trkpt lat="40.600550000000005" lon="-2.6968300000000003">
        <time>2021-06-19T09:05:45+0000</time>
      </trkpt>
      <trkpt lat="40.60071000000001" lon="-2.6967800000000004">
        <time>2021-06-19T09:05:46+0000</time>
      </trkpt>
      <trkpt lat="40.60085" lon="-2.69672">
        <time>2021-06-19T09:05:47+0000</time>
      </trkpt>
      <trkpt lat="40.60098" lon="-2.69668">
        <time>2021-06-19T09:05:48+0000</time>
      </trkpt>
      <trkpt lat="40.6011" lon="-2.6966400000000004">
        <time>2021-06-19T09:05:49+0000</time>
      </trkpt>
      <trkpt lat="40.601200000000006" lon="-2.6965800000000004">
        <time>2021-06-19T09:05:50+0000</time>
      </trkpt>
      <trkpt lat="40.6013" lon="-2.69654">
        <time>2021-06-19T09:05:51+0000</time>
      </trkpt>
      <trkpt lat="40.601400000000005" lon="-2.6965000000000003">
        <time>2021-06-19T09:05:52+0000</time>
      </trkpt>
      <trkpt lat="40.601510000000005" lon="-2.69646">
        <time>2021-06-19T09:05:53+0000</time>
      </trkpt>
      <trkpt lat="40.601620000000004" lon="-2.6964200000000003">
        <time>2021-06-19T09:05:54+0000</time>
      </trkpt>
      <trkpt lat="40.60173" lon="-2.69638">
        <time>2021-06-19T09:05:55+0000</time>
      </trkpt>
      <trkpt lat="40.60183000000001" lon="-2.69634">
        <time>2021-06-19T09:05:56+0000</time>
      </trkpt>
      <trkpt lat="40.601940000000006" lon="-2.6963000000000004">
        <time>2021-06-19T09:05:57+0000</time>
      </trkpt>
      <trkpt lat="40.602050000000006" lon="-2.69627">
        <time>2021-06-19T09:05:58+0000</time>
      </trkpt>
      <trkpt lat="40.60215" lon="-2.6962300000000003">
        <time>2021-06-19T09:05:59+0000</time>
      </trkpt>
      <trkpt lat="40.602250000000005" lon="-2.6962">
        <time>2021-06-19T09:06:00+0000</time>
      </trkpt>
      <trkpt lat="40.602340000000005" lon="-2.6961600000000003">
        <time>2021-06-19T09:06:01+0000</time>
      </trkpt>
      <trkpt lat="40.602430000000005" lon="-2.69614">
        <time>2021-06-19T09:06:02+0000</time>
      </trkpt>
      <trkpt lat="40.602500000000006" lon="-2.69611">
        <time>2021-06-19T09:06:03+0000</time>
      </trkpt>
      <trkpt lat="40.60258" lon="-2.6960800000000003">
        <time>2021-06-19T09:06:04+0000</time>
      </trkpt>
      <trkpt lat="40.60266" lon="-2.69606">
        <time>2021-06-19T09:06:05+0000</time>
      </trkpt>
      <trkpt lat="40.602740000000004" lon="-2.6960300000000004">
        <time>2021-06-19T09:06:06+0000</time>
      </trkpt>
      <trkpt lat="40.60282" lon="-2.6960100000000002">
        <time>2021-06-19T09:06:07+0000</time>
      </trkpt>
      <trkpt lat="40.60289" lon="-2.69598">
        <time>2021-06-19T09:06:08+0000</time>
      </trkpt>
      <trkpt lat="40.602970000000006" lon="-2.6959600000000004">
        <time>2021-06-19T09:06:09+0000</time>
      </trkpt>
      <trkpt lat="40.60305" lon="-2.6959400000000002">
        <time>2021-06-19T09:06:10+0000</time>
      </trkpt>
      <trkpt lat="40.60314" lon="-2.69593">
        <time>2021-06-19T09:06:11+0000</time>
      </trkpt>
      <trkpt lat="40.60322" lon="-2.69591">
        <time>2021-06-19T09:06:12+0000</time>
      </trkpt>
      <trkpt lat="40.60331" lon="-2.6958900000000003">
        <time>2021-06-19T09:06:13+0000</time>
      </trkpt>
      <trkpt lat="40.6034" lon="-2.69587">
        <time>2021-06-19T09:06:14+0000</time>
      </trkpt>
      <trkpt lat="40.60349" lon="-2.69587">
        <time>2021-06-19T09:06:15+0000</time>
      </trkpt>
      <trkpt lat="40.60358" lon="-2.69586">
        <time>2021-06-19T09:06:16+0000</time>
      </trkpt>
      <trkpt lat="40.603680000000004" lon="-2.69584">
        <time>2021-06-19T09:06:17+0000</time>
      </trkpt>
      <trkpt lat="40.60380000000001" lon="-2.6958300000000004">
        <time>2021-06-19T09:06:18+0000</time>
      </trkpt>
      <trkpt lat="40.60392" lon="-2.69584">
        <time>2021-06-19T09:06:19+0000</time>
      </trkpt>
      <trkpt lat="40.60405" lon="-2.69584">
        <time>2021-06-19T09:06:20+0000</time>
      </trkpt>
      <trkpt lat="40.60419" lon="-2.69585">
        <time>2021-06-19T09:06:21+0000</time>
      </trkpt>
      <trkpt lat="40.60434" lon="-2.69585">
        <time>2021-06-19T09:06:22+0000</time>
      </trkpt>
      <trkpt lat="40.604510000000005" lon="-2.69585">
        <time>2021-06-19T09:06:23+0000</time>
      </trkpt>
      <trkpt lat="40.60468" lon="-2.69586">
        <time>2021-06-19T09:06:24+0000</time>
      </trkpt>
      <trkpt lat="40.60486" lon="-2.69587">
        <time>2021-06-19T09:06:25+0000</time>
      </trkpt>
      <trkpt lat="40.605030000000006" lon="-2.69586">
        <time>2021-06-19T09:06:26+0000</time>
      </trkpt>
      <trkpt lat="40.6052" lon="-2.69586">
        <time>2021-06-19T09:06:27+0000</time>
      </trkpt>
      <trkpt lat="40.605380000000004" lon="-2.69584">
        <time>2021-06-19T09:06:28+0000</time>
      </trkpt>
      <trkpt lat="40.60557" lon="-2.6958">
        <time>2021-06-19T09:06:29+0000</time>
      </trkpt>
      <trkpt lat="40.605760000000004" lon="-2.6957400000000002">
        <time>2021-06-19T09:06:30+0000</time>
      </trkpt>
      <trkpt lat="40.605940000000004" lon="-2.6956700000000002">
        <time>2021-06-19T09:06:31+0000</time>
      </trkpt>
      <trkpt lat="40.60611" lon="-2.69557">
        <time>2021-06-19T09:06:32+0000</time>
      </trkpt>
      <trkpt lat="40.606280000000005" lon="-2.6954700000000003">
        <time>2021-06-19T09:06:33+0000</time>
      </trkpt>
      <trkpt lat="40.606440000000006" lon="-2.6953500000000004">
        <time>2021-06-19T09:06:34+0000</time>
      </trkpt>
      <trkpt lat="40.606590000000004" lon="-2.69523">
        <time>2021-06-19T09:06:35+0000</time>
      </trkpt>
      <trkpt lat="40.60674" lon="-2.6951">
        <time>2021-06-19T09:06:36+0000</time>
      </trkpt>
      <trkpt lat="40.606880000000004" lon="-2.6949500000000004">
        <time>2021-06-19T09:06:37+0000</time>
      </trkpt>
      <trkpt lat="40.607020000000006" lon="-2.6948100000000004">
        <time>2021-06-19T09:06:38+0000</time>
      </trkpt>
      <trkpt lat="40.60716" lon="-2.69465">
        <time>2021-06-19T09:06:39+0000</time>
      </trkpt>
      <trkpt lat="40.607290000000006" lon="-2.6945">
        <time>2021-06-19T09:06:40+0000</time>
      </trkpt>
      <trkpt lat="40.607420000000005" lon="-2.6943400000000004">
        <time>2021-06-19T09:06:41+0000</time>
      </trkpt>
      <trkpt lat="40.60755" lon="-2.69417">
        <time>2021-06-19T09:06:42+0000</time>
      </trkpt>
      <trkpt lat="40.607670000000006" lon="-2.69401">
        <time>2021-06-19T09:06:43+0000</time>
      </trkpt>
      <trkpt lat="40.60779" lon="-2.6938600000000004">
        <time>2021-06-19T09:06:44+0000</time>
      </trkpt>
      <trkpt lat="40.607910000000004" lon="-2.6937100000000003">
        <time>2021-06-19T09:06:45+0000</time>
      </trkpt>
      <trkpt lat="40.60801" lon="-2.69356">
        <time>2021-06-19T09:06:46+0000</time>
      </trkpt>
      <trkpt lat="40.60811" lon="-2.69341">
        <time>2021-06-19T09:06:47+0000</time>
      </trkpt>
      <trkpt lat="40.60821000000001" lon="-2.6932600000000004">
        <time>2021-06-19T09:06:48+0000</time>
      </trkpt>
      <trkpt lat="40.608320000000006" lon="-2.6931200000000004">
        <time>2021-06-19T09:06:49+0000</time>
      </trkpt>
      <trkpt lat="40.608430000000006" lon="-2.6929800000000004">
        <time>2021-06-19T09:06:50+0000</time>
      </trkpt>
      <trkpt lat="40.60853" lon="-2.6928">
        <time>2021-06-19T09:06:51+0000</time>
      </trkpt>
      <trkpt lat="40.60866" lon="-2.69266">
        <time>2021-06-19T09:06:52+0000</time>
      </trkpt>
      <trkpt lat="40.60878" lon="-2.6925000000000003">
        <time>2021-06-19T09:06:53+0000</time>
      </trkpt>
      <trkpt lat="40.608900000000006" lon="-2.6923700000000004">
        <time>2021-06-19T09:06:54+0000</time>
      </trkpt>
      <trkpt lat="40.609030000000004" lon="-2.69225">
        <time>2021-06-19T09:06:55+0000</time>
      </trkpt>
      <trkpt lat="40.60915000000001" lon="-2.69213">
        <time>2021-06-19T09:06:56+0000</time>
      </trkpt>
      <trkpt lat="40.609260000000006" lon="-2.6920100000000002">
        <time>2021-06-19T09:06:57+0000</time>
      </trkpt>
      <trkpt lat="40.60936" lon="-2.69187">
        <time>2021-06-19T09:06:58+0000</time>
      </trkpt>
      <trkpt lat="40.609440000000006" lon="-2.69172">
        <time>2021-06-19T09:06:59+0000</time>
      </trkpt>
      <trkpt lat="40.609480000000005" lon="-2.6915400000000003">
        <time>2021-06-19T09:07:00+0000</time>
      </trkpt>
      <trkpt lat="40.609550000000006" lon="-2.69137">
        <time>2021-06-19T09:07:01+0000</time>
      </trkpt>
      <trkpt lat="40.60963" lon="-2.69119">
        <time>2021-06-19T09:07:02+0000</time>
      </trkpt>
      <trkpt lat="40.609730000000006" lon="-2.69103">
        <time>2021-06-19T09:07:03+0000</time>
      </trkpt>
      <trkpt lat="40.60987" lon="-2.6909">
        <time>2021-06-19T09:07:04+0000</time>
      </trkpt>
      <trkpt lat="40.61003" lon="-2.6908000000000003">
        <time>2021-06-19T09:07:05+0000</time>
      </trkpt>
      <trkpt lat="40.610200000000006" lon="-2.6907300000000003">
        <time>2021-06-19T09:07:06+0000</time>
      </trkpt>
      <trkpt lat="40.61037" lon="-2.6906700000000003">
        <time>2021-06-19T09:07:07+0000</time>
      </trkpt>
      <trkpt lat="40.61052" lon="-2.6906000000000003">
        <time>2021-06-19T09:07:08+0000</time>
      </trkpt>
      <trkpt lat="40.61068" lon="-2.6905">
        <time>2021-06-19T09:07:09+0000</time>
      </trkpt>
      <trkpt lat="40.610820000000004" lon="-2.69036">
        <time>2021-06-19T09:07:10+0000</time>
      </trkpt>
      <trkpt lat="40.610980000000005" lon="-2.6902500000000003">
        <time>2021-06-19T09:07:11+0000</time>
      </trkpt>
      <trkpt lat="40.611110000000004" lon="-2.6901100000000002">
        <time>2021-06-19T09:07:12+0000</time>
      </trkpt>
      <trkpt lat="40.611230000000006" lon="-2.6899800000000003">
        <time>2021-06-19T09:07:13+0000</time>
      </trkpt>
      <trkpt lat="40.61135" lon="-2.68983">
        <time>2021-06-19T09:07:14+0000</time>
      </trkpt>
      <trkpt lat="40.61146" lon="-2.6896600000000004">
        <time>2021-06-19T09:07:15+0000</time>
      </trkpt>
      <trkpt lat="40.611580000000004" lon="-2.68949">
        <time>2021-06-19T09:07:16+0000</time>
      </trkpt>
      <trkpt lat="40.611700000000006" lon="-2.68933">
        <time>2021-06-19T09:07:17+0000</time>
      </trkpt>
      <trkpt lat="40.611810000000006" lon="-2.6891800000000003">
        <time>2021-06-19T09:07:18+0000</time>
      </trkpt>
      <trkpt lat="40.61193" lon="-2.6890500000000004">
        <time>2021-06-19T09:07:19+0000</time>
      </trkpt>
      <trkpt lat="40.61204" lon="-2.68894">
        <time>2021-06-19T09:07:20+0000</time>
      </trkpt>
      <trkpt lat="40.61215000000001" lon="-2.6888300000000003">
        <time>2021-06-19T09:07:21+0000</time>
      </trkpt>
      <trkpt lat="40.61224" lon="-2.68874">
        <time>2021-06-19T09:07:22+0000</time>
      </trkpt>
      <trkpt lat="40.61233" lon="-2.6886300000000003">
        <time>2021-06-19T09:07:23+0000</time>
      </trkpt>
      <trkpt lat="40.612410000000004" lon="-2.6885100000000004">
        <time>2021-06-19T09:07:24+0000</time>
      </trkpt>
      <trkpt lat="40.612480000000005" lon="-2.6883800000000004">
        <time>2021-06-19T09:07:25+0000</time>
      </trkpt>
      <trkpt lat="40.61251" lon="-2.6882200000000003">
        <time>2021-06-19T09:07:26+0000</time>
      </trkpt>
      <trkpt lat="40.61254" lon="-2.68806">
        <time>2021-06-19T09:07:27+0000</time>
      </trkpt>
      <trkpt lat="40.61258" lon="-2.6879000000000004">
        <time>2021-06-19T09:07:28+0000</time>
      </trkpt>
      <trkpt lat="40.61265" lon="-2.6877700000000004">
        <time>2021-06-19T09:07:29+0000</time>
      </trkpt>
      <trkpt lat="40.61272" lon="-2.68764">
        <time>2021-06-19T09:07:30+0000</time>
      </trkpt>
      <trkpt lat="40.61281" lon="-2.68753">
        <time>2021-06-19T09:07:31+0000</time>
      </trkpt>
      <trkpt lat="40.61289" lon="-2.6874200000000004">
        <time>2021-06-19T09:07:32+0000</time>
      </trkpt>
      <trkpt lat="40.61299" lon="-2.68731">
        <time>2021-06-19T09:07:33+0000</time>
      </trkpt>
      <trkpt lat="40.61309000000001" lon="-2.6872100000000003">
        <time>2021-06-19T09:07:34+0000</time>
      </trkpt>
      <trkpt lat="40.613200000000006" lon="-2.68712">
        <time>2021-06-19T09:07:35+0000</time>
      </trkpt>
      <trkpt lat="40.61332" lon="-2.6870700000000003">
        <time>2021-06-19T09:07:36+0000</time>
      </trkpt>
      <trkpt lat="40.61345" lon="-2.6870600000000002">
        <time>2021-06-19T09:07:37+0000</time>
      </trkpt>
      <trkpt lat="40.613580000000006" lon="-2.6870800000000004">
        <time>2021-06-19T09:07:38+0000</time>
      </trkpt>
      <trkpt lat="40.6137" lon="-2.68712">
        <time>2021-06-19T09:07:39+0000</time>
      </trkpt>
      <trkpt lat="40.61381" lon="-2.68717">
        <time>2021-06-19T09:07:40+0000</time>
      </trkpt>
      <trkpt lat="40.61394000000001" lon="-2.68718">
        <time>2021-06-19T09:07:41+0000</time>
      </trkpt>
      <trkpt lat="40.614070000000005" lon="-2.6871600000000004">
        <time>2021-06-19T09:07:42+0000</time>
      </trkpt>
      <trkpt lat="40.614200000000004" lon="-2.68712">
        <time>2021-06-19T09:07:43+0000</time>
      </trkpt>
      <trkpt lat="40.61435" lon="-2.6870700000000003">
        <time>2021-06-19T09:07:44+0000</time>
      </trkpt>
      <trkpt lat="40.61451" lon="-2.6870100000000003">
        <time>2021-06-19T09:07:45+0000</time>
      </trkpt>
      <trkpt lat="40.61466" lon="-2.68692">
        <time>2021-06-19T09:07:46+0000</time>
      </trkpt>
      <trkpt lat="40.614810000000006" lon="-2.68683">
        <time>2021-06-19T09:07:47+0000</time>
      </trkpt>
      <trkpt lat="40.61496" lon="-2.6867300000000003">
        <time>2021-06-19T09:07:48+0000</time>
      </trkpt>
      <trkpt lat="40.615100000000005" lon="-2.68663">
        <time>2021-06-19T09:07:49+0000</time>
      </trkpt>
      <trkpt lat="40.61522" lon="-2.6865200000000002">
        <time>2021-06-19T09:07:50+0000</time>
      </trkpt>
      <trkpt lat="40.61535000000001" lon="-2.6864100000000004">
        <time>2021-06-19T09:07:51+0000</time>
      </trkpt>
      <trkpt lat="40.61547" lon="-2.68631">
        <time>2021-06-19T09:07:52+0000</time>
      </trkpt>
      <trkpt lat="40.615590000000005" lon="-2.6862100000000004">
        <time>2021-06-19T09:07:53+0000</time>
      </trkpt>
      <trkpt lat="40.61571" lon="-2.68611">
        <time>2021-06-19T09:07:54+0000</time>
      </trkpt>
      <trkpt lat="40.61582000000001" lon="-2.68601">
        <time>2021-06-19T09:07:55+0000</time>
      </trkpt>
      <trkpt lat="40.61592" lon="-2.68589">
        <time>2021-06-19T09:07:56+0000</time>
      </trkpt>
      <trkpt lat="40.61601" lon="-2.68575">
        <time>2021-06-19T09:07:57+0000</time>
      </trkpt>
      <trkpt lat="40.6161" lon="-2.68561">
        <time>2021-06-19T09:07:58+0000</time>
      </trkpt>
      <trkpt lat="40.616170000000004" lon="-2.6854500000000003">
        <time>2021-06-19T09:07:59+0000</time>
      </trkpt>
      <trkpt lat="40.61623" lon="-2.6853000000000002">
        <time>2021-06-19T09:08:00+0000</time>
      </trkpt>
      <trkpt lat="40.616290000000006" lon="-2.68515">
        <time>2021-06-19T09:08:01+0000</time>
      </trkpt>
      <trkpt lat="40.61636" lon="-2.68501">
        <time>2021-06-19T09:08:02+0000</time>
      </trkpt>
      <trkpt lat="40.61647000000001" lon="-2.68489">
        <time>2021-06-19T09:08:03+0000</time>
      </trkpt>
      <trkpt lat="40.616580000000006" lon="-2.68479">
        <time>2021-06-19T09:08:04+0000</time>
      </trkpt>
      <trkpt lat="40.6167" lon="-2.6847000000000003">
        <time>2021-06-19T09:08:05+0000</time>
      </trkpt>
      <trkpt lat="40.616820000000004" lon="-2.6846300000000003">
        <time>2021-06-19T09:08:06+0000</time>
      </trkpt>
      <trkpt lat="40.616960000000006" lon="-2.6845800000000004">
        <time>2021-06-19T09:08:07+0000</time>
      </trkpt>
      <trkpt lat="40.6171" lon="-2.6845600000000003">
        <time>2021-06-19T09:08:08+0000</time>
      </trkpt>
      <trkpt lat="40.617230000000006" lon="-2.6845600000000003">
        <time>2021-06-19T09:08:09+0000</time>
      </trkpt>
      <trkpt lat="40.617360000000005" lon="-2.6845600000000003">
        <time>2021-06-19T09:08:10+0000</time>
      </trkpt>
      <trkpt lat="40.617470000000004" lon="-2.68455">
        <time>2021-06-19T09:08:11+0000</time>
      </trkpt>
      <trkpt lat="40.61759" lon="-2.68453">
        <time>2021-06-19T09:08:12+0000</time>
      </trkpt>
      <trkpt lat="40.617700000000006" lon="-2.6844900000000003">
        <time>2021-06-19T09:08:13+0000</time>
      </trkpt>
      <trkpt lat="40.617810000000006" lon="-2.6844400000000004">
        <time>2021-06-19T09:08:14+0000</time>
      </trkpt>
      <trkpt lat="40.61793" lon="-2.6843600000000003">
        <time>2021-06-19T09:08:15+0000</time>
      </trkpt>
      <trkpt lat="40.61804" lon="-2.68427">
        <time>2021-06-19T09:08:16+0000</time>
      </trkpt>
      <trkpt lat="40.61816" lon="-2.6841600000000003">
        <time>2021-06-19T09:08:17+0000</time>
      </trkpt>
      <trkpt lat="40.61827" lon="-2.6840200000000003">
        <time>2021-06-19T09:08:18+0000</time>
      </trkpt>
      <trkpt lat="40.618370000000006" lon="-2.68386">
        <time>2021-06-19T09:08:19+0000</time>
      </trkpt>
      <trkpt lat="40.618460000000006" lon="-2.6836800000000003">
        <time>2021-06-19T09:08:20+0000</time>
      </trkpt>
      <trkpt lat="40.61853" lon="-2.6834700000000002">
        <time>2021-06-19T09:08:21+0000</time>
      </trkpt>
      <trkpt lat="40.61858" lon="-2.68326">
        <time>2021-06-19T09:08:22+0000</time>
      </trkpt>
      <trkpt lat="40.6186" lon="-2.68304">
        <time>2021-06-19T09:08:23+0000</time>
      </trkpt>
      <trkpt lat="40.618610000000004" lon="-2.6828200000000004">
        <time>2021-06-19T09:08:24+0000</time>
      </trkpt>
      <trkpt lat="40.61862" lon="-2.6826000000000003">
        <time>2021-06-19T09:08:25+0000</time>
      </trkpt>
      <trkpt lat="40.618640000000006" lon="-2.6824000000000003">
        <time>2021-06-19T09:08:26+0000</time>
      </trkpt>
      <trkpt lat="40.618680000000005" lon="-2.6822100000000004">
        <time>2021-06-19T09:08:27+0000</time>
      </trkpt>
      <trkpt lat="40.61872" lon="-2.68204">
        <time>2021-06-19T09:08:28+0000</time>
      </trkpt>
      <trkpt lat="40.618790000000004" lon="-2.6818600000000004">
        <time>2021-06-19T09:08:29+0000</time>
      </trkpt>
      <trkpt lat="40.618880000000004" lon="-2.6817">
        <time>2021-06-19T09:08:30+0000</time>
      </trkpt>
      <trkpt lat="40.618990000000004" lon="-2.6815300000000004">
        <time>2021-06-19T09:08:31+0000</time>
      </trkpt>
      <trkpt lat="40.619110000000006" lon="-2.68136">
        <time>2021-06-19T09:08:32+0000</time>
      </trkpt>
      <trkpt lat="40.61923" lon="-2.6811900000000004">
        <time>2021-06-19T09:08:33+0000</time>
      </trkpt>
      <trkpt lat="40.61937" lon="-2.6810300000000002">
        <time>2021-06-19T09:08:34+0000</time>
      </trkpt>
      <trkpt lat="40.619510000000005" lon="-2.68088">
        <time>2021-06-19T09:08:35+0000</time>
      </trkpt>
      <trkpt lat="40.619640000000004" lon="-2.6807200000000004">
        <time>2021-06-19T09:08:36+0000</time>
      </trkpt>
      <trkpt lat="40.61977" lon="-2.68055">
        <time>2021-06-19T09:08:37+0000</time>
      </trkpt>
      <trkpt lat="40.6199" lon="-2.68039">
        <time>2021-06-19T09:08:38+0000</time>
      </trkpt>
      <trkpt lat="40.62004" lon="-2.6802300000000003">
        <time>2021-06-19T09:08:39+0000</time>
      </trkpt>
      <trkpt lat="40.620160000000006" lon="-2.68005">
        <time>2021-06-19T09:08:40+0000</time>
      </trkpt>
      <trkpt lat="40.620270000000005" lon="-2.67985">
        <time>2021-06-19T09:08:41+0000</time>
      </trkpt>
      <trkpt lat="40.62037" lon="-2.67964">
        <time>2021-06-19T09:08:42+0000</time>
      </trkpt>
      <trkpt lat="40.620470000000005" lon="-2.6794300000000004">
        <time>2021-06-19T09:08:43+0000</time>
      </trkpt>
      <trkpt lat="40.620560000000005" lon="-2.6792100000000003">
        <time>2021-06-19T09:08:44+0000</time>
      </trkpt>
      <trkpt lat="40.620650000000005" lon="-2.67898">
        <time>2021-06-19T09:08:45+0000</time>
      </trkpt>
      <trkpt lat="40.62073" lon="-2.6787500000000004">
        <time>2021-06-19T09:08:46+0000</time>
      </trkpt>
      <trkpt lat="40.62082" lon="-2.6785300000000003">
        <time>2021-06-19T09:08:47+0000</time>
      </trkpt>
      <trkpt lat="40.620900000000006" lon="-2.67831">
        <time>2021-06-19T09:08:48+0000</time>
      </trkpt>
      <trkpt lat="40.621" lon="-2.6781">
        <time>2021-06-19T09:08:49+0000</time>
      </trkpt>
      <trkpt lat="40.62111" lon="-2.6779200000000003">
        <time>2021-06-19T09:08:50+0000</time>
      </trkpt>
      <trkpt lat="40.621210000000005" lon="-2.67774">
        <time>2021-06-19T09:08:51+0000</time>
      </trkpt>
      <trkpt lat="40.62133" lon="-2.6775700000000002">
        <time>2021-06-19T09:08:52+0000</time>
      </trkpt>
      <trkpt lat="40.62144" lon="-2.67742">
        <time>2021-06-19T09:08:53+0000</time>
      </trkpt>
      <trkpt lat="40.62156" lon="-2.6772600000000004">
        <time>2021-06-19T09:08:54+0000</time>
      </trkpt>
      <trkpt lat="40.621680000000005" lon="-2.6771200000000004">
        <time>2021-06-19T09:08:55+0000</time>
      </trkpt>
      <trkpt lat="40.62181" lon="-2.6769800000000004">
        <time>2021-06-19T09:08:56+0000</time>
      </trkpt>
      <trkpt lat="40.621930000000006" lon="-2.67682">
        <time>2021-06-19T09:08:57+0000</time>
      </trkpt>
      <trkpt lat="40.622040000000005" lon="-2.67668">
        <time>2021-06-19T09:08:58+0000</time>
      </trkpt>
      <trkpt lat="40.622170000000004" lon="-2.6765600000000003">
        <time>2021-06-19T09:08:59+0000</time>
      </trkpt>
      <trkpt lat="40.62227" lon="-2.6764300000000003">
        <time>2021-06-19T09:09:00+0000</time>
      </trkpt>
      <trkpt lat="40.62238000000001" lon="-2.67628">
        <time>2021-06-19T09:09:01+0000</time>
      </trkpt>
      <trkpt lat="40.622490000000006" lon="-2.67613">
        <time>2021-06-19T09:09:02+0000</time>
      </trkpt>
      <trkpt lat="40.622600000000006" lon="-2.6759700000000004">
        <time>2021-06-19T09:09:03+0000</time>
      </trkpt>
      <trkpt lat="40.6227" lon="-2.6758100000000002">
        <time>2021-06-19T09:09:04+0000</time>
      </trkpt>
      <trkpt lat="40.62279" lon="-2.6756300000000004">
        <time>2021-06-19T09:09:05+0000</time>
      </trkpt>
      <trkpt lat="40.62288" lon="-2.67545">
        <time>2021-06-19T09:09:06+0000</time>
      </trkpt>
      <trkpt lat="40.62295" lon="-2.67525">
        <time>2021-06-19T09:09:07+0000</time>
      </trkpt>
      <trkpt lat="40.62303" lon="-2.6750700000000003">
        <time>2021-06-19T09:09:08+0000</time>
      </trkpt>
      <trkpt lat="40.6231" lon="-2.6748800000000004">
        <time>2021-06-19T09:09:09+0000</time>
      </trkpt>
      <trkpt lat="40.62317" lon="-2.67469">
        <time>2021-06-19T09:09:10+0000</time>
      </trkpt>
      <trkpt lat="40.62324" lon="-2.67451">
        <time>2021-06-19T09:09:11+0000</time>
      </trkpt>
      <trkpt lat="40.623310000000004" lon="-2.6743300000000003">
        <time>2021-06-19T09:09:12+0000</time>
      </trkpt>
      <trkpt lat="40.62337" lon="-2.67417">
        <time>2021-06-19T09:09:13+0000</time>
      </trkpt>
      <trkpt lat="40.62344" lon="-2.67401">
        <time>2021-06-19T09:09:14+0000</time>
      </trkpt>
      <trkpt lat="40.6235" lon="-2.67383">
        <time>2021-06-19T09:09:15+0000</time>
      </trkpt>
      <trkpt lat="40.623560000000005" lon="-2.6736600000000004">
        <time>2021-06-19T09:09:16+0000</time>
      </trkpt>
      <trkpt lat="40.623630000000006" lon="-2.67348">
        <time>2021-06-19T09:09:17+0000</time>
      </trkpt>
      <trkpt lat="40.62371" lon="-2.6733000000000002">
        <time>2021-06-19T09:09:18+0000</time>
      </trkpt>
      <trkpt lat="40.62379000000001" lon="-2.67313">
        <time>2021-06-19T09:09:19+0000</time>
      </trkpt>
      <trkpt lat="40.62389" lon="-2.67295">
        <time>2021-06-19T09:09:20+0000</time>
      </trkpt>
      <trkpt lat="40.623990000000006" lon="-2.6727800000000004">
        <time>2021-06-19T09:09:21+0000</time>
      </trkpt>
      <trkpt lat="40.624120000000005" lon="-2.67266">
        <time>2021-06-19T09:09:22+0000</time>
      </trkpt>
      <trkpt lat="40.62424" lon="-2.67253">
        <time>2021-06-19T09:09:23+0000</time>
      </trkpt>
      <trkpt lat="40.62435000000001" lon="-2.6724">
        <time>2021-06-19T09:09:24+0000</time>
      </trkpt>
      <trkpt lat="40.624460000000006" lon="-2.67228">
        <time>2021-06-19T09:09:25+0000</time>
      </trkpt>
      <trkpt lat="40.62456" lon="-2.6721600000000003">
        <time>2021-06-19T09:09:26+0000</time>
      </trkpt>
      <trkpt lat="40.62464000000001" lon="-2.6720200000000003">
        <time>2021-06-19T09:09:27+0000</time>
      </trkpt>
      <trkpt lat="40.62471" lon="-2.67187">
        <time>2021-06-19T09:09:28+0000</time>
      </trkpt>
      <trkpt lat="40.62478" lon="-2.67171">
        <time>2021-06-19T09:09:29+0000</time>
      </trkpt>
      <trkpt lat="40.62483" lon="-2.67153">
        <time>2021-06-19T09:09:30+0000</time>
      </trkpt>
      <trkpt lat="40.624860000000005" lon="-2.6713500000000003">
        <time>2021-06-19T09:09:31+0000</time>
      </trkpt>
      <trkpt lat="40.624860000000005" lon="-2.6711500000000004">
        <time>2021-06-19T09:09:32+0000</time>
      </trkpt>
      <trkpt lat="40.624860000000005" lon="-2.6709400000000003">
        <time>2021-06-19T09:09:33+0000</time>
      </trkpt>
      <trkpt lat="40.624840000000006" lon="-2.6707300000000003">
        <time>2021-06-19T09:09:34+0000</time>
      </trkpt>
      <trkpt lat="40.624810000000004" lon="-2.67051">
        <time>2021-06-19T09:09:35+0000</time>
      </trkpt>
      <trkpt lat="40.624790000000004" lon="-2.67029">
        <time>2021-06-19T09:09:36+0000</time>
      </trkpt>
      <trkpt lat="40.624770000000005" lon="-2.6700700000000004">
        <time>2021-06-19T09:09:37+0000</time>
      </trkpt>
      <trkpt lat="40.62478" lon="-2.6698500000000003">
        <time>2021-06-19T09:09:38+0000</time>
      </trkpt>
      <trkpt lat="40.624810000000004" lon="-2.6696400000000002">
        <time>2021-06-19T09:09:39+0000</time>
      </trkpt>
      <trkpt lat="40.624860000000005" lon="-2.6694400000000003">
        <time>2021-06-19T09:09:40+0000</time>
      </trkpt>
      <trkpt lat="40.62492" lon="-2.6692600000000004">
        <time>2021-06-19T09:09:41+0000</time>
      </trkpt>
      <trkpt lat="40.625" lon="-2.66908">
        <time>2021-06-19T09:09:42+0000</time>
      </trkpt>
      <trkpt lat="40.6251" lon="-2.6689100000000003">
        <time>2021-06-19T09:09:43+0000</time>
      </trkpt>
      <trkpt lat="40.62520000000001" lon="-2.66873">
        <time>2021-06-19T09:09:44+0000</time>
      </trkpt>
      <trkpt lat="40.6253" lon="-2.66855">
        <time>2021-06-19T09:09:45+0000</time>
      </trkpt>
      <trkpt lat="40.62541" lon="-2.6683700000000004">
        <time>2021-06-19T09:09:46+0000</time>
      </trkpt>
      <trkpt lat="40.6255" lon="-2.66819">
        <time>2021-06-19T09:09:47+0000</time>
      </trkpt>
      <trkpt lat="40.625600000000006" lon="-2.6680300000000003">
        <time>2021-06-19T09:09:48+0000</time>
      </trkpt>
      <trkpt lat="40.625690000000006" lon="-2.66786">
        <time>2021-06-19T09:09:49+0000</time>
      </trkpt>
      <trkpt lat="40.62579" lon="-2.66772">
        <time>2021-06-19T09:09:50+0000</time>
      </trkpt>
      <trkpt lat="40.62588" lon="-2.6675600000000004">
        <time>2021-06-19T09:09:51+0000</time>
      </trkpt>
      <trkpt lat="40.62597" lon="-2.6674100000000003">
        <time>2021-06-19T09:09:52+0000</time>
      </trkpt>
      <trkpt lat="40.626050000000006" lon="-2.66726">
        <time>2021-06-19T09:09:53+0000</time>
      </trkpt>
      <trkpt lat="40.62613" lon="-2.66711">
        <time>2021-06-19T09:09:54+0000</time>
      </trkpt>
      <trkpt lat="40.62622" lon="-2.66696">
        <time>2021-06-19T09:09:55+0000</time>
      </trkpt>
      <trkpt lat="40.6263" lon="-2.6668100000000003">
        <time>2021-06-19T09:09:56+0000</time>
      </trkpt>
      <trkpt lat="40.62639" lon="-2.6666700000000003">
        <time>2021-06-19T09:09:57+0000</time>
      </trkpt>
      <trkpt lat="40.6265" lon="-2.6665400000000004">
        <time>2021-06-19T09:09:58+0000</time>
      </trkpt>
      <trkpt lat="40.62662" lon="-2.66642">
        <time>2021-06-19T09:09:59+0000</time>
      </trkpt>
      <trkpt lat="40.62675" lon="-2.66631">
        <time>2021-06-19T09:10:00+0000</time>
      </trkpt>
      <trkpt lat="40.62689" lon="-2.6662000000000003">
        <time>2021-06-19T09:10:01+0000</time>
      </trkpt>
      <trkpt lat="40.627030000000005" lon="-2.6661">
        <time>2021-06-19T09:10:02+0000</time>
      </trkpt>
      <trkpt lat="40.62717000000001" lon="-2.6659900000000003">
        <time>2021-06-19T09:10:03+0000</time>
      </trkpt>
      <trkpt lat="40.62729" lon="-2.66583">
        <time>2021-06-19T09:10:04+0000</time>
      </trkpt>
      <trkpt lat="40.627390000000005" lon="-2.6656600000000004">
        <time>2021-06-19T09:10:05+0000</time>
      </trkpt>
      <trkpt lat="40.62747" lon="-2.66547">
        <time>2021-06-19T09:10:06+0000</time>
      </trkpt>
      <trkpt lat="40.62751" lon="-2.6652600000000004">
        <time>2021-06-19T09:10:07+0000</time>
      </trkpt>
      <trkpt lat="40.627520000000004" lon="-2.6650300000000002">
        <time>2021-06-19T09:10:08+0000</time>
      </trkpt>
      <trkpt lat="40.62751" lon="-2.6648">
        <time>2021-06-19T09:10:09+0000</time>
      </trkpt>
      <trkpt lat="40.627500000000005" lon="-2.6645700000000003">
        <time>2021-06-19T09:10:10+0000</time>
      </trkpt>
      <trkpt lat="40.62755000000001" lon="-2.66434">
        <time>2021-06-19T09:10:11+0000</time>
      </trkpt>
      <trkpt lat="40.62762" lon="-2.66412">
        <time>2021-06-19T09:10:12+0000</time>
      </trkpt>
      <trkpt lat="40.627720000000004" lon="-2.66393">
        <time>2021-06-19T09:10:13+0000</time>
      </trkpt>
      <trkpt lat="40.627840000000006" lon="-2.6637600000000003">
        <time>2021-06-19T09:10:14+0000</time>
      </trkpt>
      <trkpt lat="40.62796" lon="-2.6636100000000003">
        <time>2021-06-19T09:10:15+0000</time>
      </trkpt>
      <trkpt lat="40.628060000000005" lon="-2.66345">
        <time>2021-06-19T09:10:16+0000</time>
      </trkpt>
      <trkpt lat="40.628150000000005" lon="-2.66332">
        <time>2021-06-19T09:10:17+0000</time>
      </trkpt>
      <trkpt lat="40.62823" lon="-2.66317">
        <time>2021-06-19T09:10:18+0000</time>
      </trkpt>
      <trkpt lat="40.6283" lon="-2.66303">
        <time>2021-06-19T09:10:19+0000</time>
      </trkpt>
      <trkpt lat="40.62836" lon="-2.6628700000000003">
        <time>2021-06-19T09:10:20+0000</time>
      </trkpt>
      <trkpt lat="40.628400000000006" lon="-2.66271">
        <time>2021-06-19T09:10:21+0000</time>
      </trkpt>
      <trkpt lat="40.62843" lon="-2.6625300000000003">
        <time>2021-06-19T09:10:22+0000</time>
      </trkpt>
      <trkpt lat="40.62845" lon="-2.6623400000000004">
        <time>2021-06-19T09:10:23+0000</time>
      </trkpt>
      <trkpt lat="40.62847" lon="-2.6621300000000003">
        <time>2021-06-19T09:10:24+0000</time>
      </trkpt>
      <trkpt lat="40.62848" lon="-2.6619200000000003">
        <time>2021-06-19T09:10:25+0000</time>
      </trkpt>
      <trkpt lat="40.62848" lon="-2.6617">
        <time>2021-06-19T09:10:26+0000</time>
      </trkpt>
      <trkpt lat="40.62848" lon="-2.66149">
        <time>2021-06-19T09:10:27+0000</time>
      </trkpt>
      <trkpt lat="40.628490000000006" lon="-2.66129">
        <time>2021-06-19T09:10:28+0000</time>
      </trkpt>
      <trkpt lat="40.6285" lon="-2.66109">
        <time>2021-06-19T09:10:29+0000</time>
      </trkpt>
      <trkpt lat="40.62854" lon="-2.6609000000000003">
        <time>2021-06-19T09:10:30+0000</time>
      </trkpt>
      <trkpt lat="40.628550000000004" lon="-2.6607100000000004">
        <time>2021-06-19T09:10:31+0000</time>
      </trkpt>
      <trkpt lat="40.628600000000006" lon="-2.66054">
        <time>2021-06-19T09:10:32+0000</time>
      </trkpt>
      <trkpt lat="40.628640000000004" lon="-2.6603700000000003">
        <time>2021-06-19T09:10:33+0000</time>
      </trkpt>
      <trkpt lat="40.628690000000006" lon="-2.66021">
        <time>2021-06-19T09:10:34+0000</time>
      </trkpt>
      <trkpt lat="40.628750000000004" lon="-2.66005">
        <time>2021-06-19T09:10:35+0000</time>
      </trkpt>
      <trkpt lat="40.62881" lon="-2.6598800000000002">
        <time>2021-06-19T09:10:36+0000</time>
      </trkpt>
      <trkpt lat="40.628890000000006" lon="-2.65972">
        <time>2021-06-19T09:10:37+0000</time>
      </trkpt>
      <trkpt lat="40.62897" lon="-2.6595600000000004">
        <time>2021-06-19T09:10:38+0000</time>
      </trkpt>
      <trkpt lat="40.62905000000001" lon="-2.65939">
        <time>2021-06-19T09:10:39+0000</time>
      </trkpt>
      <trkpt lat="40.62913" lon="-2.6592300000000004">
        <time>2021-06-19T09:10:40+0000</time>
      </trkpt>
      <trkpt lat="40.629220000000004" lon="-2.6590800000000003">
        <time>2021-06-19T09:10:41+0000</time>
      </trkpt>
      <trkpt lat="40.629310000000004" lon="-2.6589400000000003">
        <time>2021-06-19T09:10:42+0000</time>
      </trkpt>
      <trkpt lat="40.62939" lon="-2.6588200000000004">
        <time>2021-06-19T09:10:43+0000</time>
      </trkpt>
      <trkpt lat="40.629490000000004" lon="-2.6587">
        <time>2021-06-19T09:10:44+0000</time>
      </trkpt>
      <trkpt lat="40.629580000000004" lon="-2.6586000000000003">
        <time>2021-06-19T09:10:45+0000</time>
      </trkpt>
      <trkpt lat="40.62968" lon="-2.65849">
        <time>2021-06-19T09:10:46+0000</time>
      </trkpt>
      <trkpt lat="40.629780000000004" lon="-2.65837">
        <time>2021-06-19T09:10:47+0000</time>
      </trkpt>
      <trkpt lat="40.62989" lon="-2.6582600000000003">
        <time>2021-06-19T09:10:48+0000</time>
      </trkpt>
      <trkpt lat="40.63" lon="-2.6581400000000004">
        <time>2021-06-19T09:10:49+0000</time>
      </trkpt>
      <trkpt lat="40.630120000000005" lon="-2.6580100000000004">
        <time>2021-06-19T09:10:50+0000</time>
      </trkpt>
      <trkpt lat="40.63024" lon="-2.65788">
        <time>2021-06-19T09:10:51+0000</time>
      </trkpt>
      <trkpt lat="40.630370000000006" lon="-2.6577400000000004">
        <time>2021-06-19T09:10:52+0000</time>
      </trkpt>
      <trkpt lat="40.63049" lon="-2.65761">
        <time>2021-06-19T09:10:53+0000</time>
      </trkpt>
      <trkpt lat="40.63062" lon="-2.65747">
        <time>2021-06-19T09:10:54+0000</time>
      </trkpt>
      <trkpt lat="40.63074" lon="-2.65734">
        <time>2021-06-19T09:10:55+0000</time>
      </trkpt>
      <trkpt lat="40.63087" lon="-2.6572">
        <time>2021-06-19T09:10:56+0000</time>
      </trkpt>
      <trkpt lat="40.63098" lon="-2.6570400000000003">
        <time>2021-06-19T09:10:57+0000</time>
      </trkpt>
      <trkpt lat="40.63109" lon="-2.65688">
        <time>2021-06-19T09:10:58+0000</time>
      </trkpt>
      <trkpt lat="40.63118" lon="-2.6567000000000003">
        <time>2021-06-19T09:10:59+0000</time>
      </trkpt>
      <trkpt lat="40.63125" lon="-2.6565000000000003">
        <time>2021-06-19T09:11:00+0000</time>
      </trkpt>
      <trkpt lat="40.631310000000006" lon="-2.6563100000000004">
        <time>2021-06-19T09:11:01+0000</time>
      </trkpt>
      <trkpt lat="40.631370000000004" lon="-2.6561000000000003">
        <time>2021-06-19T09:11:02+0000</time>
      </trkpt>
      <trkpt lat="40.63143" lon="-2.6559000000000004">
        <time>2021-06-19T09:11:03+0000</time>
      </trkpt>
      <trkpt lat="40.631510000000006" lon="-2.6557000000000004">
        <time>2021-06-19T09:11:04+0000</time>
      </trkpt>
      <trkpt lat="40.63159" lon="-2.65552">
        <time>2021-06-19T09:11:05+0000</time>
      </trkpt>
      <trkpt lat="40.6317" lon="-2.6553500000000003">
        <time>2021-06-19T09:11:06+0000</time>
      </trkpt>
      <trkpt lat="40.631820000000005" lon="-2.6552000000000002">
        <time>2021-06-19T09:11:07+0000</time>
      </trkpt>
      <trkpt lat="40.63195" lon="-2.6550700000000003">
        <time>2021-06-19T09:11:08+0000</time>
      </trkpt>
      <trkpt lat="40.6321" lon="-2.6549400000000003">
        <time>2021-06-19T09:11:09+0000</time>
      </trkpt>
      <trkpt lat="40.63224" lon="-2.6548200000000004">
        <time>2021-06-19T09:11:10+0000</time>
      </trkpt>
      <trkpt lat="40.632380000000005" lon="-2.6547">
        <time>2021-06-19T09:11:11+0000</time>
      </trkpt>
      <trkpt lat="40.63252000000001" lon="-2.6545900000000002">
        <time>2021-06-19T09:11:12+0000</time>
      </trkpt>
      <trkpt lat="40.63264" lon="-2.6544800000000004">
        <time>2021-06-19T09:11:13+0000</time>
      </trkpt>
      <trkpt lat="40.63277" lon="-2.65438">
        <time>2021-06-19T09:11:14+0000</time>
      </trkpt>
      <trkpt lat="40.63290000000001" lon="-2.6542800000000004">
        <time>2021-06-19T09:11:15+0000</time>
      </trkpt>
      <trkpt lat="40.633030000000005" lon="-2.65418">
        <time>2021-06-19T09:11:16+0000</time>
      </trkpt>
      <trkpt lat="40.633160000000004" lon="-2.6540800000000004">
        <time>2021-06-19T09:11:17+0000</time>
      </trkpt>
      <trkpt lat="40.633280000000006" lon="-2.6539800000000002">
        <time>2021-06-19T09:11:18+0000</time>
      </trkpt>
      <trkpt lat="40.633410000000005" lon="-2.65389">
        <time>2021-06-19T09:11:19+0000</time>
      </trkpt>
      <trkpt lat="40.63353" lon="-2.6537900000000003">
        <time>2021-06-19T09:11:20+0000</time>
      </trkpt>
      <trkpt lat="40.63365" lon="-2.6536700000000004">
        <time>2021-06-19T09:11:21+0000</time>
      </trkpt>
      <trkpt lat="40.633770000000005" lon="-2.65355">
        <time>2021-06-19T09:11:22+0000</time>
      </trkpt>
      <trkpt lat="40.63389" lon="-2.65341">
        <time>2021-06-19T09:11:23+0000</time>
      </trkpt>
      <trkpt lat="40.633990000000004" lon="-2.6532600000000004">
        <time>2021-06-19T09:11:24+0000</time>
      </trkpt>
      <trkpt lat="40.63407" lon="-2.65309">
        <time>2021-06-19T09:11:25+0000</time>
      </trkpt>
      <trkpt lat="40.63412" lon="-2.65289">
        <time>2021-06-19T09:11:26+0000</time>
      </trkpt>
      <trkpt lat="40.63418" lon="-2.6527000000000003">
        <time>2021-06-19T09:11:27+0000</time>
      </trkpt>
      <trkpt lat="40.63421" lon="-2.6524900000000002">
        <time>2021-06-19T09:11:28+0000</time>
      </trkpt>
      <trkpt lat="40.63421" lon="-2.65227">
        <time>2021-06-19T09:11:29+0000</time>
      </trkpt>
      <trkpt lat="40.63423" lon="-2.6520400000000004">
        <time>2021-06-19T09:11:30+0000</time>
      </trkpt>
      <trkpt lat="40.634260000000005" lon="-2.6518100000000002">
        <time>2021-06-19T09:11:31+0000</time>
      </trkpt>
      <trkpt lat="40.634280000000004" lon="-2.6516">
        <time>2021-06-19T09:11:32+0000</time>
      </trkpt>
      <trkpt lat="40.6343" lon="-2.65138">
        <time>2021-06-19T09:11:33+0000</time>
      </trkpt>
      <trkpt lat="40.63432" lon="-2.65117">
        <time>2021-06-19T09:11:34+0000</time>
      </trkpt>
      <trkpt lat="40.634350000000005" lon="-2.65097">
        <time>2021-06-19T09:11:35+0000</time>
      </trkpt>
      <trkpt lat="40.63438" lon="-2.65078">
        <time>2021-06-19T09:11:36+0000</time>
      </trkpt>
      <trkpt lat="40.63440000000001" lon="-2.6506000000000003">
        <time>2021-06-19T09:11:37+0000</time>
      </trkpt>
      <trkpt lat="40.63443" lon="-2.65043">
        <time>2021-06-19T09:11:38+0000</time>
      </trkpt>
      <trkpt lat="40.634440000000005" lon="-2.6502600000000003">
        <time>2021-06-19T09:11:39+0000</time>
      </trkpt>
      <trkpt lat="40.63447" lon="-2.6501">
        <time>2021-06-19T09:11:40+0000</time>
      </trkpt>
      <trkpt lat="40.634510000000006" lon="-2.6499300000000003">
        <time>2021-06-19T09:11:41+0000</time>
      </trkpt>
      <trkpt lat="40.63456" lon="-2.64977">
        <time>2021-06-19T09:11:42+0000</time>
      </trkpt>
      <trkpt lat="40.63461" lon="-2.6496000000000004">
        <time>2021-06-19T09:11:43+0000</time>
      </trkpt>
      <trkpt lat="40.634660000000004" lon="-2.64942">
        <time>2021-06-19T09:11:44+0000</time>
      </trkpt>
      <trkpt lat="40.634730000000005" lon="-2.6492500000000003">
        <time>2021-06-19T09:11:45+0000</time>
      </trkpt>
      <trkpt lat="40.63477" lon="-2.64907">
        <time>2021-06-19T09:11:46+0000</time>
      </trkpt>
      <trkpt lat="40.63486" lon="-2.6489000000000003">
        <time>2021-06-19T09:11:47+0000</time>
      </trkpt>
      <trkpt lat="40.634930000000004" lon="-2.64873">
        <time>2021-06-19T09:11:48+0000</time>
      </trkpt>
      <trkpt lat="40.63501" lon="-2.64855">
        <time>2021-06-19T09:11:49+0000</time>
      </trkpt>
      <trkpt lat="40.6351" lon="-2.6483800000000004">
        <time>2021-06-19T09:11:50+0000</time>
      </trkpt>
      <trkpt lat="40.635180000000005" lon="-2.6482">
        <time>2021-06-19T09:11:51+0000</time>
      </trkpt>
      <trkpt lat="40.635270000000006" lon="-2.6480300000000003">
        <time>2021-06-19T09:11:52+0000</time>
      </trkpt>
      <trkpt lat="40.635360000000006" lon="-2.64786">
        <time>2021-06-19T09:11:53+0000</time>
      </trkpt>
      <trkpt lat="40.63544" lon="-2.6477000000000004">
        <time>2021-06-19T09:11:54+0000</time>
      </trkpt>
      <trkpt lat="40.63552000000001" lon="-2.64753">
        <time>2021-06-19T09:11:55+0000</time>
      </trkpt>
      <trkpt lat="40.63559" lon="-2.64738">
        <time>2021-06-19T09:11:56+0000</time>
      </trkpt>
      <trkpt lat="40.63566" lon="-2.6472300000000004">
        <time>2021-06-19T09:11:57+0000</time>
      </trkpt>
      <trkpt lat="40.63571" lon="-2.6470900000000004">
        <time>2021-06-19T09:11:58+0000</time>
      </trkpt>
      <trkpt lat="40.635760000000005" lon="-2.6469500000000004">
        <time>2021-06-19T09:11:59+0000</time>
      </trkpt>
      <trkpt lat="40.6358" lon="-2.6468000000000003">
        <time>2021-06-19T09:12:00+0000</time>
      </trkpt>
      <trkpt lat="40.63584" lon="-2.64664">
        <time>2021-06-19T09:12:01+0000</time>
      </trkpt>
      <trkpt lat="40.63588" lon="-2.6464800000000004">
        <time>2021-06-19T09:12:02+0000</time>
      </trkpt>
      <trkpt lat="40.63590000000001" lon="-2.6463">
        <time>2021-06-19T09:12:03+0000</time>
      </trkpt>
      <trkpt lat="40.63591" lon="-2.6461200000000002">
        <time>2021-06-19T09:12:04+0000</time>
      </trkpt>
      <trkpt lat="40.635920000000006" lon="-2.6459400000000004">
        <time>2021-06-19T09:12:05+0000</time>
      </trkpt>
      <trkpt lat="40.63590000000001" lon="-2.64575">
        <time>2021-06-19T09:12:06+0000</time>
      </trkpt>
      <trkpt lat="40.63588" lon="-2.64557">
        <time>2021-06-19T09:12:07+0000</time>
      </trkpt>
      <trkpt lat="40.63584" lon="-2.6454000000000004">
        <time>2021-06-19T09:12:08+0000</time>
      </trkpt>
      <trkpt lat="40.63579" lon="-2.64523">
        <time>2021-06-19T09:12:09+0000</time>
      </trkpt>
      <trkpt lat="40.635740000000006" lon="-2.64507">
        <time>2021-06-19T09:12:10+0000</time>
      </trkpt>
      <trkpt lat="40.63568" lon="-2.64493">
        <time>2021-06-19T09:12:11+0000</time>
      </trkpt>
      <trkpt lat="40.63561" lon="-2.6447800000000004">
        <time>2021-06-19T09:12:12+0000</time>
      </trkpt>
      <trkpt lat="40.63553" lon="-2.6446300000000003">
        <time>2021-06-19T09:12:13+0000</time>
      </trkpt>
      <trkpt lat="40.63544" lon="-2.6444900000000002">
        <time>2021-06-19T09:12:14+0000</time>
      </trkpt>
      <trkpt lat="40.635360000000006" lon="-2.64433">
        <time>2021-06-19T09:12:15+0000</time>
      </trkpt>
      <trkpt lat="40.6353" lon="-2.6441500000000002">
        <time>2021-06-19T09:12:16+0000</time>
      </trkpt>
      <trkpt lat="40.63526" lon="-2.6439600000000003">
        <time>2021-06-19T09:12:17+0000</time>
      </trkpt>
      <trkpt lat="40.635250000000006" lon="-2.6437600000000003">
        <time>2021-06-19T09:12:18+0000</time>
      </trkpt>
      <trkpt lat="40.63526" lon="-2.6435500000000003">
        <time>2021-06-19T09:12:19+0000</time>
      </trkpt>
      <trkpt lat="40.635290000000005" lon="-2.6433500000000003">
        <time>2021-06-19T09:12:20+0000</time>
      </trkpt>
      <trkpt lat="40.63534000000001" lon="-2.6431400000000003">
        <time>2021-06-19T09:12:21+0000</time>
      </trkpt>
      <trkpt lat="40.63539" lon="-2.6429300000000002">
        <time>2021-06-19T09:12:22+0000</time>
      </trkpt>
      <trkpt lat="40.635450000000006" lon="-2.6427">
        <time>2021-06-19T09:12:23+0000</time>
      </trkpt>
      <trkpt lat="40.6355" lon="-2.6424800000000004">
        <time>2021-06-19T09:12:24+0000</time>
      </trkpt>
      <trkpt lat="40.635540000000006" lon="-2.64224">
        <time>2021-06-19T09:12:25+0000</time>
      </trkpt>
      <trkpt lat="40.63557" lon="-2.6420000000000003">
        <time>2021-06-19T09:12:26+0000</time>
      </trkpt>
      <trkpt lat="40.635600000000004" lon="-2.64176">
        <time>2021-06-19T09:12:27+0000</time>
      </trkpt>
      <trkpt lat="40.63561" lon="-2.6415100000000002">
        <time>2021-06-19T09:12:28+0000</time>
      </trkpt>
      <trkpt lat="40.63561" lon="-2.6412500000000003">
        <time>2021-06-19T09:12:29+0000</time>
      </trkpt>
      <trkpt lat="40.63559" lon="-2.6409900000000004">
        <time>2021-06-19T09:12:30+0000</time>
      </trkpt>
      <trkpt lat="40.635560000000005" lon="-2.6407200000000004">
        <time>2021-06-19T09:12:31+0000</time>
      </trkpt>
      <trkpt lat="40.635510000000004" lon="-2.6404400000000003">
        <time>2021-06-19T09:12:32+0000</time>
      </trkpt>
      <trkpt lat="40.635470000000005" lon="-2.6401600000000003">
        <time>2021-06-19T09:12:33+0000</time>
      </trkpt>
      <trkpt lat="40.63541" lon="-2.6398900000000003">
        <time>2021-06-19T09:12:34+0000</time>
      </trkpt>
      <trkpt lat="40.63535" lon="-2.6396400000000004">
        <time>2021-06-19T09:12:35+0000</time>
      </trkpt>
      <trkpt lat="40.635290000000005" lon="-2.6394">
        <time>2021-06-19T09:12:36+0000</time>
      </trkpt>
      <trkpt lat="40.63523" lon="-2.63917">
        <time>2021-06-19T09:12:37+0000</time>
      </trkpt>
      <trkpt lat="40.63517" lon="-2.6389400000000003">
        <time>2021-06-19T09:12:38+0000</time>
      </trkpt>
      <trkpt lat="40.6351" lon="-2.6387">
        <time>2021-06-19T09:12:39+0000</time>
      </trkpt>
      <trkpt lat="40.635020000000004" lon="-2.6384700000000003">
        <time>2021-06-19T09:12:40+0000</time>
      </trkpt>
      <trkpt lat="40.63494" lon="-2.63823">
        <time>2021-06-19T09:12:41+0000</time>
      </trkpt>
      <trkpt lat="40.63485" lon="-2.6380000000000003">
        <time>2021-06-19T09:12:42+0000</time>
      </trkpt>
      <trkpt lat="40.63477" lon="-2.63776">
        <time>2021-06-19T09:12:43+0000</time>
      </trkpt>
      <trkpt lat="40.63468" lon="-2.6375200000000003">
        <time>2021-06-19T09:12:44+0000</time>
      </trkpt>
      <trkpt lat="40.63459" lon="-2.63727">
        <time>2021-06-19T09:12:45+0000</time>
      </trkpt>
      <trkpt lat="40.6345" lon="-2.63703">
        <time>2021-06-19T09:12:46+0000</time>
      </trkpt>
      <trkpt lat="40.634420000000006" lon="-2.6368">
        <time>2021-06-19T09:12:47+0000</time>
      </trkpt>
      <trkpt lat="40.634350000000005" lon="-2.6365700000000003">
        <time>2021-06-19T09:12:48+0000</time>
      </trkpt>
      <trkpt lat="40.63429" lon="-2.6363600000000003">
        <time>2021-06-19T09:12:49+0000</time>
      </trkpt>
      <trkpt lat="40.634240000000005" lon="-2.63615">
        <time>2021-06-19T09:12:50+0000</time>
      </trkpt>
      <trkpt lat="40.63418" lon="-2.6359700000000004">
        <time>2021-06-19T09:12:51+0000</time>
      </trkpt>
      <trkpt lat="40.63412" lon="-2.63579">
        <time>2021-06-19T09:12:52+0000</time>
      </trkpt>
      <trkpt lat="40.634080000000004" lon="-2.6356100000000002">
        <time>2021-06-19T09:12:53+0000</time>
      </trkpt>
      <trkpt lat="40.634060000000005" lon="-2.6354200000000003">
        <time>2021-06-19T09:12:54+0000</time>
      </trkpt>
      <trkpt lat="40.63405" lon="-2.6352100000000003">
        <time>2021-06-19T09:12:55+0000</time>
      </trkpt>
      <trkpt lat="40.634060000000005" lon="-2.63499">
        <time>2021-06-19T09:12:56+0000</time>
      </trkpt>
      <trkpt lat="40.63409" lon="-2.63477">
        <time>2021-06-19T09:12:57+0000</time>
      </trkpt>
      <trkpt lat="40.63414" lon="-2.6345300000000003">
        <time>2021-06-19T09:12:58+0000</time>
      </trkpt>
      <trkpt lat="40.634190000000004" lon="-2.6343">
        <time>2021-06-19T09:12:59+0000</time>
      </trkpt>
      <trkpt lat="40.634240000000005" lon="-2.6340500000000002">
        <time>2021-06-19T09:13:00+0000</time>
      </trkpt>
      <trkpt lat="40.6343" lon="-2.6338100000000004">
        <time>2021-06-19T09:13:01+0000</time>
      </trkpt>
      <trkpt lat="40.63436" lon="-2.63357">
        <time>2021-06-19T09:13:02+0000</time>
      </trkpt>
      <trkpt lat="40.63443" lon="-2.6333200000000003">
        <time>2021-06-19T09:13:03+0000</time>
      </trkpt>
      <trkpt lat="40.63449000000001" lon="-2.63308">
        <time>2021-06-19T09:13:04+0000</time>
      </trkpt>
      <trkpt lat="40.634550000000004" lon="-2.6328400000000003">
        <time>2021-06-19T09:13:05+0000</time>
      </trkpt>
      <trkpt lat="40.63461" lon="-2.6326">
        <time>2021-06-19T09:13:06+0000</time>
      </trkpt>
      <trkpt lat="40.63467" lon="-2.6323700000000003">
        <time>2021-06-19T09:13:07+0000</time>
      </trkpt>
      <trkpt lat="40.63472" lon="-2.63213">
        <time>2021-06-19T09:13:08+0000</time>
      </trkpt>
      <trkpt lat="40.63477" lon="-2.6319000000000004">
        <time>2021-06-19T09:13:09+0000</time>
      </trkpt>
      <trkpt lat="40.63483" lon="-2.63167">
        <time>2021-06-19T09:13:10+0000</time>
      </trkpt>
      <trkpt lat="40.63486" lon="-2.63145">
        <time>2021-06-19T09:13:11+0000</time>
      </trkpt>
      <trkpt lat="40.63488" lon="-2.6312200000000003">
        <time>2021-06-19T09:13:12+0000</time>
      </trkpt>
      <trkpt lat="40.634890000000006" lon="-2.63098">
        <time>2021-06-19T09:13:13+0000</time>
      </trkpt>
      <trkpt lat="40.63488" lon="-2.6307300000000002">
        <time>2021-06-19T09:13:14+0000</time>
      </trkpt>
      <trkpt lat="40.63486" lon="-2.6304800000000004">
        <time>2021-06-19T09:13:15+0000</time>
      </trkpt>
      <trkpt lat="40.634820000000005" lon="-2.63022">
        <time>2021-06-19T09:13:16+0000</time>
      </trkpt>
      <trkpt lat="40.634750000000004" lon="-2.62996">
        <time>2021-06-19T09:13:17+0000</time>
      </trkpt>
      <trkpt lat="40.634660000000004" lon="-2.62969">
        <time>2021-06-19T09:13:18+0000</time>
      </trkpt>
      <trkpt lat="40.63456" lon="-2.62943">
        <time>2021-06-19T09:13:19+0000</time>
      </trkpt>
      <trkpt lat="40.63443" lon="-2.6291800000000003">
        <time>2021-06-19T09:13:20+0000</time>
      </trkpt>
      <trkpt lat="40.63432" lon="-2.62894">
        <time>2021-06-19T09:13:21+0000</time>
      </trkpt>
      <trkpt lat="40.634190000000004" lon="-2.6287000000000003">
        <time>2021-06-19T09:13:22+0000</time>
      </trkpt>
      <trkpt lat="40.63407" lon="-2.62848">
        <time>2021-06-19T09:13:23+0000</time>
      </trkpt>
      <trkpt lat="40.633970000000005" lon="-2.62827">
        <time>2021-06-19T09:13:24+0000</time>
      </trkpt>
      <trkpt lat="40.633880000000005" lon="-2.62805">
        <time>2021-06-19T09:13:25+0000</time>
      </trkpt>
      <trkpt lat="40.633790000000005" lon="-2.6278400000000004">
        <time>2021-06-19T09:13:26+0000</time>
      </trkpt>
      <trkpt lat="40.63373" lon="-2.6276200000000003">
        <time>2021-06-19T09:13:27+0000</time>
      </trkpt>
      <trkpt lat="40.633720000000004" lon="-2.6274100000000002">
        <time>2021-06-19T09:13:28+0000</time>
      </trkpt>
      <trkpt lat="40.63371" lon="-2.6272200000000003">
        <time>2021-06-19T09:13:29+0000</time>
      </trkpt>
      <trkpt lat="40.63373" lon="-2.6270200000000004">
        <time>2021-06-19T09:13:30+0000</time>
      </trkpt>
      <trkpt lat="40.63376" lon="-2.62683">
        <time>2021-06-19T09:13:31+0000</time>
      </trkpt>
      <trkpt lat="40.633810000000004" lon="-2.62665">
        <time>2021-06-19T09:13:32+0000</time>
      </trkpt>
      <trkpt lat="40.63389" lon="-2.6264800000000004">
        <time>2021-06-19T09:13:33+0000</time>
      </trkpt>
      <trkpt lat="40.63398" lon="-2.62631">
        <time>2021-06-19T09:13:34+0000</time>
      </trkpt>
      <trkpt lat="40.63407" lon="-2.6261500000000004">
        <time>2021-06-19T09:13:35+0000</time>
      </trkpt>
      <trkpt lat="40.63416" lon="-2.62598">
        <time>2021-06-19T09:13:36+0000</time>
      </trkpt>
      <trkpt lat="40.63427" lon="-2.62582">
        <time>2021-06-19T09:13:37+0000</time>
      </trkpt>
      <trkpt lat="40.63436" lon="-2.6256500000000003">
        <time>2021-06-19T09:13:38+0000</time>
      </trkpt>
      <trkpt lat="40.634460000000004" lon="-2.62548">
        <time>2021-06-19T09:13:39+0000</time>
      </trkpt>
      <trkpt lat="40.63454" lon="-2.6253200000000003">
        <time>2021-06-19T09:13:40+0000</time>
      </trkpt>
      <trkpt lat="40.63461" lon="-2.62515">
        <time>2021-06-19T09:13:41+0000</time>
      </trkpt>
      <trkpt lat="40.63467" lon="-2.6249800000000003">
        <time>2021-06-19T09:13:42+0000</time>
      </trkpt>
      <trkpt lat="40.63472" lon="-2.6248">
        <time>2021-06-19T09:13:43+0000</time>
      </trkpt>
      <trkpt lat="40.63476" lon="-2.62461">
        <time>2021-06-19T09:13:44+0000</time>
      </trkpt>
      <trkpt lat="40.63479" lon="-2.62442">
        <time>2021-06-19T09:13:45+0000</time>
      </trkpt>
      <trkpt lat="40.63476" lon="-2.62421">
        <time>2021-06-19T09:13:46+0000</time>
      </trkpt>
      <trkpt lat="40.63476" lon="-2.62399">
        <time>2021-06-19T09:13:47+0000</time>
      </trkpt>
      <trkpt lat="40.63474" lon="-2.6237700000000004">
        <time>2021-06-19T09:13:48+0000</time>
      </trkpt>
      <trkpt lat="40.634710000000005" lon="-2.6235500000000003">
        <time>2021-06-19T09:13:49+0000</time>
      </trkpt>
      <trkpt lat="40.63465" lon="-2.62331">
        <time>2021-06-19T09:13:50+0000</time>
      </trkpt>
      <trkpt lat="40.63458000000001" lon="-2.6230800000000003">
        <time>2021-06-19T09:13:51+0000</time>
      </trkpt>
      <trkpt lat="40.63448" lon="-2.62285">
        <time>2021-06-19T09:13:52+0000</time>
      </trkpt>
      <trkpt lat="40.634370000000004" lon="-2.62264">
        <time>2021-06-19T09:13:53+0000</time>
      </trkpt>
      <trkpt lat="40.634240000000005" lon="-2.62245">
        <time>2021-06-19T09:13:54+0000</time>
      </trkpt>
      <trkpt lat="40.63411000000001" lon="-2.6222700000000003">
        <time>2021-06-19T09:13:55+0000</time>
      </trkpt>
      <trkpt lat="40.633970000000005" lon="-2.62211">
        <time>2021-06-19T09:13:56+0000</time>
      </trkpt>
      <trkpt lat="40.63383" lon="-2.62196">
        <time>2021-06-19T09:13:57+0000</time>
      </trkpt>
      <trkpt lat="40.63371" lon="-2.62182">
        <time>2021-06-19T09:13:58+0000</time>
      </trkpt>
      <trkpt lat="40.63358" lon="-2.62168">
        <time>2021-06-19T09:13:59+0000</time>
      </trkpt>
      <trkpt lat="40.63347" lon="-2.6215400000000004">
        <time>2021-06-19T09:14:00+0000</time>
      </trkpt>
      <trkpt lat="40.63336" lon="-2.62141">
        <time>2021-06-19T09:14:01+0000</time>
      </trkpt>
      <trkpt lat="40.63326" lon="-2.6212700000000004">
        <time>2021-06-19T09:14:02+0000</time>
      </trkpt>
      <trkpt lat="40.63315" lon="-2.6211">
        <time>2021-06-19T09:14:03+0000</time>
      </trkpt>
      <trkpt lat="40.63306" lon="-2.6209100000000003">
        <time>2021-06-19T09:14:04+0000</time>
      </trkpt>
      <trkpt lat="40.632960000000004" lon="-2.6207200000000004">
        <time>2021-06-19T09:14:05+0000</time>
      </trkpt>
      <trkpt lat="40.63286" lon="-2.62053">
        <time>2021-06-19T09:14:06+0000</time>
      </trkpt>
      <trkpt lat="40.63279" lon="-2.6203200000000004">
        <time>2021-06-19T09:14:07+0000</time>
      </trkpt>
      <trkpt lat="40.63271" lon="-2.62013">
        <time>2021-06-19T09:14:08+0000</time>
      </trkpt>
      <trkpt lat="40.632650000000005" lon="-2.61992">
        <time>2021-06-19T09:14:09+0000</time>
      </trkpt>
      <trkpt lat="40.632580000000004" lon="-2.61972">
        <time>2021-06-19T09:14:10+0000</time>
      </trkpt>
      <trkpt lat="40.63253" lon="-2.61952">
        <time>2021-06-19T09:14:11+0000</time>
      </trkpt>
      <trkpt lat="40.632470000000005" lon="-2.61931">
        <time>2021-06-19T09:14:12+0000</time>
      </trkpt>
      <trkpt lat="40.63243000000001" lon="-2.6190900000000004">
        <time>2021-06-19T09:14:13+0000</time>
      </trkpt>
      <trkpt lat="40.63242" lon="-2.6188700000000003">
        <time>2021-06-19T09:14:14+0000</time>
      </trkpt>
      <trkpt lat="40.632400000000004" lon="-2.61863">
        <time>2021-06-19T09:14:15+0000</time>
      </trkpt>
      <trkpt lat="40.632380000000005" lon="-2.61839">
        <time>2021-06-19T09:14:16+0000</time>
      </trkpt>
      <trkpt lat="40.632380000000005" lon="-2.6181500000000004">
        <time>2021-06-19T09:14:17+0000</time>
      </trkpt>
      <trkpt lat="40.632380000000005" lon="-2.6179">
        <time>2021-06-19T09:14:18+0000</time>
      </trkpt>
      <trkpt lat="40.632400000000004" lon="-2.6176500000000003">
        <time>2021-06-19T09:14:19+0000</time>
      </trkpt>
      <trkpt lat="40.63242" lon="-2.6174000000000004">
        <time>2021-06-19T09:14:20+0000</time>
      </trkpt>
      <trkpt lat="40.632450000000006" lon="-2.61716">
        <time>2021-06-19T09:14:21+0000</time>
      </trkpt>
      <trkpt lat="40.632490000000004" lon="-2.6169100000000003">
        <time>2021-06-19T09:14:22+0000</time>
      </trkpt>
      <trkpt lat="40.632540000000006" lon="-2.61667">
        <time>2021-06-19T09:14:23+0000</time>
      </trkpt>
      <trkpt lat="40.63261000000001" lon="-2.6164400000000003">
        <time>2021-06-19T09:14:24+0000</time>
      </trkpt>
      <trkpt lat="40.63268" lon="-2.61622">
        <time>2021-06-19T09:14:25+0000</time>
      </trkpt>
      <trkpt lat="40.63277" lon="-2.61601">
        <time>2021-06-19T09:14:26+0000</time>
      </trkpt>
      <trkpt lat="40.63286" lon="-2.61579">
        <time>2021-06-19T09:14:27+0000</time>
      </trkpt>
      <trkpt lat="40.63297" lon="-2.6155700000000004">
        <time>2021-06-19T09:14:28+0000</time>
      </trkpt>
      <trkpt lat="40.63308000000001" lon="-2.6153700000000004">
        <time>2021-06-19T09:14:29+0000</time>
      </trkpt>
      <trkpt lat="40.633210000000005" lon="-2.6151600000000004">
        <time>2021-06-19T09:14:30+0000</time>
      </trkpt>
      <trkpt lat="40.633320000000005" lon="-2.6149500000000003">
        <time>2021-06-19T09:14:31+0000</time>
      </trkpt>
      <trkpt lat="40.63345" lon="-2.61473">
        <time>2021-06-19T09:14:32+0000</time>
      </trkpt>
      <trkpt lat="40.633570000000006" lon="-2.61452">
        <time>2021-06-19T09:14:33+0000</time>
      </trkpt>
      <trkpt lat="40.63369" lon="-2.6143">
        <time>2021-06-19T09:14:34+0000</time>
      </trkpt>
      <trkpt lat="40.633810000000004" lon="-2.6140800000000004">
        <time>2021-06-19T09:14:35+0000</time>
      </trkpt>
      <trkpt lat="40.63391" lon="-2.6138500000000002">
        <time>2021-06-19T09:14:36+0000</time>
      </trkpt>
      <trkpt lat="40.634" lon="-2.6136100000000004">
        <time>2021-06-19T09:14:37+0000</time>
      </trkpt>
      <trkpt lat="40.63407" lon="-2.61335">
        <time>2021-06-19T09:14:38+0000</time>
      </trkpt>
      <trkpt lat="40.634130000000006" lon="-2.61308">
        <time>2021-06-19T09:14:39+0000</time>
      </trkpt>
      <trkpt lat="40.634170000000005" lon="-2.61282">
        <time>2021-06-19T09:14:40+0000</time>
      </trkpt>
      <trkpt lat="40.63421" lon="-2.61256">
        <time>2021-06-19T09:14:41+0000</time>
      </trkpt>
      <trkpt lat="40.63425" lon="-2.6122900000000002">
        <time>2021-06-19T09:14:42+0000</time>
      </trkpt>
      <trkpt lat="40.634280000000004" lon="-2.6120300000000003">
        <time>2021-06-19T09:14:43+0000</time>
      </trkpt>
      <trkpt lat="40.634330000000006" lon="-2.6117600000000003">
        <time>2021-06-19T09:14:44+0000</time>
      </trkpt>
      <trkpt lat="40.634370000000004" lon="-2.6115000000000004">
        <time>2021-06-19T09:14:45+0000</time>
      </trkpt>
      <trkpt lat="40.63441" lon="-2.61126">
        <time>2021-06-19T09:14:46+0000</time>
      </trkpt>
      <trkpt lat="40.634440000000005" lon="-2.6110200000000003">
        <time>2021-06-19T09:14:47+0000</time>
      </trkpt>
      <trkpt lat="40.63447" lon="-2.6108000000000002">
        <time>2021-06-19T09:14:48+0000</time>
      </trkpt>
      <trkpt lat="40.6345" lon="-2.61059">
        <time>2021-06-19T09:14:49+0000</time>
      </trkpt>
      <trkpt lat="40.63452" lon="-2.61037">
        <time>2021-06-19T09:14:50+0000</time>
      </trkpt>
      <trkpt lat="40.634530000000005" lon="-2.61016">
        <time>2021-06-19T09:14:51+0000</time>
      </trkpt>
      <trkpt lat="40.634530000000005" lon="-2.6099400000000004">
        <time>2021-06-19T09:14:52+0000</time>
      </trkpt>
      <trkpt lat="40.634530000000005" lon="-2.6097300000000003">
        <time>2021-06-19T09:14:53+0000</time>
      </trkpt>
      <trkpt lat="40.63452" lon="-2.60951">
        <time>2021-06-19T09:14:54+0000</time>
      </trkpt>
      <trkpt lat="40.6345" lon="-2.60929">
        <time>2021-06-19T09:14:55+0000</time>
      </trkpt>
      <trkpt lat="40.63447" lon="-2.60907">
        <time>2021-06-19T09:14:56+0000</time>
      </trkpt>
      <trkpt lat="40.634440000000005" lon="-2.6088400000000003">
        <time>2021-06-19T09:14:57+0000</time>
      </trkpt>
      <trkpt lat="40.63440000000001" lon="-2.6086">
        <time>2021-06-19T09:14:58+0000</time>
      </trkpt>
      <trkpt lat="40.634370000000004" lon="-2.60835">
        <time>2021-06-19T09:14:59+0000</time>
      </trkpt>
      <trkpt lat="40.634350000000005" lon="-2.6081100000000004">
        <time>2021-06-19T09:15:00+0000</time>
      </trkpt>
      <trkpt lat="40.634350000000005" lon="-2.60786">
        <time>2021-06-19T09:15:01+0000</time>
      </trkpt>
      <trkpt lat="40.63436" lon="-2.6076300000000003">
        <time>2021-06-19T09:15:02+0000</time>
      </trkpt>
      <trkpt lat="40.63438" lon="-2.60739">
        <time>2021-06-19T09:15:03+0000</time>
      </trkpt>
      <trkpt lat="40.63441" lon="-2.6071500000000003">
        <time>2021-06-19T09:15:04+0000</time>
      </trkpt>
      <trkpt lat="40.634440000000005" lon="-2.60691">
        <time>2021-06-19T09:15:05+0000</time>
      </trkpt>
      <trkpt lat="40.63447" lon="-2.60666">
        <time>2021-06-19T09:15:06+0000</time>
      </trkpt>
      <trkpt lat="40.634510000000006" lon="-2.6064100000000003">
        <time>2021-06-19T09:15:07+0000</time>
      </trkpt>
      <trkpt lat="40.634550000000004" lon="-2.6061500000000004">
        <time>2021-06-19T09:15:08+0000</time>
      </trkpt>
      <trkpt lat="40.63458000000001" lon="-2.6059">
        <time>2021-06-19T09:15:09+0000</time>
      </trkpt>
      <trkpt lat="40.63459" lon="-2.60564">
        <time>2021-06-19T09:15:10+0000</time>
      </trkpt>
      <trkpt lat="40.63459" lon="-2.6053900000000003">
        <time>2021-06-19T09:15:11+0000</time>
      </trkpt>
      <trkpt lat="40.63459" lon="-2.6051300000000004">
        <time>2021-06-19T09:15:12+0000</time>
      </trkpt>
      <trkpt lat="40.634570000000004" lon="-2.60487">
        <time>2021-06-19T09:15:13+0000</time>
      </trkpt>
      <trkpt lat="40.63454" lon="-2.60461">
        <time>2021-06-19T09:15:14+0000</time>
      </trkpt>
      <trkpt lat="40.63447" lon="-2.6043600000000002">
        <time>2021-06-19T09:15:15+0000</time>
      </trkpt>
      <trkpt lat="40.634420000000006" lon="-2.6041000000000003">
        <time>2021-06-19T09:15:16+0000</time>
      </trkpt>
      <trkpt lat="40.63436" lon="-2.60385">
        <time>2021-06-19T09:15:17+0000</time>
      </trkpt>
      <trkpt lat="40.634280000000004" lon="-2.60361">
        <time>2021-06-19T09:15:18+0000</time>
      </trkpt>
      <trkpt lat="40.63421" lon="-2.6033700000000004">
        <time>2021-06-19T09:15:19+0000</time>
      </trkpt>
      <trkpt lat="40.63414" lon="-2.6031500000000003">
        <time>2021-06-19T09:15:20+0000</time>
      </trkpt>
      <trkpt lat="40.63407" lon="-2.60293">
        <time>2021-06-19T09:15:21+0000</time>
      </trkpt>
      <trkpt lat="40.63401" lon="-2.60273">
        <time>2021-06-19T09:15:22+0000</time>
      </trkpt>
      <trkpt lat="40.633950000000006" lon="-2.60252">
        <time>2021-06-19T09:15:23+0000</time>
      </trkpt>
      <trkpt lat="40.63391" lon="-2.60232">
        <time>2021-06-19T09:15:24+0000</time>
      </trkpt>
      <trkpt lat="40.633880000000005" lon="-2.60211">
        <time>2021-06-19T09:15:25+0000</time>
      </trkpt>
      <trkpt lat="40.63385" lon="-2.60189">
        <time>2021-06-19T09:15:26+0000</time>
      </trkpt>
      <trkpt lat="40.63383" lon="-2.6016700000000004">
        <time>2021-06-19T09:15:27+0000</time>
      </trkpt>
      <trkpt lat="40.63382" lon="-2.60143">
        <time>2021-06-19T09:15:28+0000</time>
      </trkpt>
      <trkpt lat="40.63383" lon="-2.6011900000000003">
        <time>2021-06-19T09:15:29+0000</time>
      </trkpt>
      <trkpt lat="40.633860000000006" lon="-2.60095">
        <time>2021-06-19T09:15:30+0000</time>
      </trkpt>
      <trkpt lat="40.63389" lon="-2.6007000000000002">
        <time>2021-06-19T09:15:31+0000</time>
      </trkpt>
      <trkpt lat="40.63393000000001" lon="-2.60046">
        <time>2021-06-19T09:15:32+0000</time>
      </trkpt>
      <trkpt lat="40.63401" lon="-2.60022">
        <time>2021-06-19T09:15:33+0000</time>
      </trkpt>
      <trkpt lat="40.63407" lon="-2.5999800000000004">
        <time>2021-06-19T09:15:34+0000</time>
      </trkpt>
      <trkpt lat="40.634150000000005" lon="-2.59974">
        <time>2021-06-19T09:15:35+0000</time>
      </trkpt>
      <trkpt lat="40.634240000000005" lon="-2.5995000000000004">
        <time>2021-06-19T09:15:36+0000</time>
      </trkpt>
      <trkpt lat="40.634330000000006" lon="-2.59927">
        <time>2021-06-19T09:15:37+0000</time>
      </trkpt>
      <trkpt lat="40.63443" lon="-2.59905">
        <time>2021-06-19T09:15:38+0000</time>
      </trkpt>
      <trkpt lat="40.634510000000006" lon="-2.5988300000000004">
        <time>2021-06-19T09:15:39+0000</time>
      </trkpt>
      <trkpt lat="40.634570000000004" lon="-2.5986200000000004">
        <time>2021-06-19T09:15:40+0000</time>
      </trkpt>
      <trkpt lat="40.63465" lon="-2.5984200000000004">
        <time>2021-06-19T09:15:41+0000</time>
      </trkpt>
      <trkpt lat="40.63472" lon="-2.59823">
        <time>2021-06-19T09:15:42+0000</time>
      </trkpt>
      <trkpt lat="40.63479" lon="-2.5980600000000003">
        <time>2021-06-19T09:15:43+0000</time>
      </trkpt>
      <trkpt lat="40.63486" lon="-2.59789">
        <time>2021-06-19T09:15:44+0000</time>
      </trkpt>
      <trkpt lat="40.634930000000004" lon="-2.5977400000000004">
        <time>2021-06-19T09:15:45+0000</time>
      </trkpt>
      <trkpt lat="40.63501" lon="-2.5975900000000003">
        <time>2021-06-19T09:15:46+0000</time>
      </trkpt>
      <trkpt lat="40.6351" lon="-2.5974600000000003">
        <time>2021-06-19T09:15:47+0000</time>
      </trkpt>
      <trkpt lat="40.635180000000005" lon="-2.5973300000000004">
        <time>2021-06-19T09:15:48+0000</time>
      </trkpt>
      <trkpt lat="40.635270000000006" lon="-2.5971900000000003">
        <time>2021-06-19T09:15:49+0000</time>
      </trkpt>
      <trkpt lat="40.63537" lon="-2.5970600000000004">
        <time>2021-06-19T09:15:50+0000</time>
      </trkpt>
      <trkpt lat="40.635470000000005" lon="-2.5969300000000004">
        <time>2021-06-19T09:15:51+0000</time>
      </trkpt>
      <trkpt lat="40.635580000000004" lon="-2.5968">
        <time>2021-06-19T09:15:52+0000</time>
      </trkpt>
      <trkpt lat="40.635690000000004" lon="-2.59668">
        <time>2021-06-19T09:15:53+0000</time>
      </trkpt>
      <trkpt lat="40.6358" lon="-2.59656">
        <time>2021-06-19T09:15:54+0000</time>
      </trkpt>
      <trkpt lat="40.63589" lon="-2.5964400000000003">
        <time>2021-06-19T09:15:55+0000</time>
      </trkpt>
      <trkpt lat="40.63598" lon="-2.5963200000000004">
        <time>2021-06-19T09:15:56+0000</time>
      </trkpt>
      <trkpt lat="40.63606" lon="-2.59619">
        <time>2021-06-19T09:15:57+0000</time>
      </trkpt>
      <trkpt lat="40.63613" lon="-2.5960500000000004">
        <time>2021-06-19T09:15:58+0000</time>
      </trkpt>
      <trkpt lat="40.6362" lon="-2.5958900000000003">
        <time>2021-06-19T09:15:59+0000</time>
      </trkpt>
      <trkpt lat="40.63627" lon="-2.59573">
        <time>2021-06-19T09:16:00+0000</time>
      </trkpt>
      <trkpt lat="40.63633" lon="-2.5955600000000003">
        <time>2021-06-19T09:16:01+0000</time>
      </trkpt>
      <trkpt lat="40.63637000000001" lon="-2.5953700000000004">
        <time>2021-06-19T09:16:02+0000</time>
      </trkpt>
      <trkpt lat="40.63642" lon="-2.59518">
        <time>2021-06-19T09:16:03+0000</time>
      </trkpt>
      <trkpt lat="40.63646000000001" lon="-2.59498">
        <time>2021-06-19T09:16:04+0000</time>
      </trkpt>
      <trkpt lat="40.63651" lon="-2.59479">
        <time>2021-06-19T09:16:05+0000</time>
      </trkpt>
      <trkpt lat="40.63656" lon="-2.59459">
        <time>2021-06-19T09:16:06+0000</time>
      </trkpt>
      <trkpt lat="40.6366" lon="-2.5944100000000003">
        <time>2021-06-19T09:16:07+0000</time>
      </trkpt>
      <trkpt lat="40.636630000000004" lon="-2.59423">
        <time>2021-06-19T09:16:08+0000</time>
      </trkpt>
      <trkpt lat="40.63665" lon="-2.5940600000000003">
        <time>2021-06-19T09:16:09+0000</time>
      </trkpt>
      <trkpt lat="40.636660000000006" lon="-2.5939">
        <time>2021-06-19T09:16:10+0000</time>
      </trkpt>
      <trkpt lat="40.63667" lon="-2.5937400000000004">
        <time>2021-06-19T09:16:11+0000</time>
      </trkpt>
      <trkpt lat="40.636660000000006" lon="-2.5935900000000003">
        <time>2021-06-19T09:16:12+0000</time>
      </trkpt>
      <trkpt lat="40.636660000000006" lon="-2.59343">
        <time>2021-06-19T09:16:13+0000</time>
      </trkpt>
      <trkpt lat="40.63662" lon="-2.59328">
        <time>2021-06-19T09:16:14+0000</time>
      </trkpt>
      <trkpt lat="40.636590000000005" lon="-2.5931300000000004">
        <time>2021-06-19T09:16:15+0000</time>
      </trkpt>
      <trkpt lat="40.63656" lon="-2.5929800000000003">
        <time>2021-06-19T09:16:16+0000</time>
      </trkpt>
      <trkpt lat="40.63653" lon="-2.5928400000000003">
        <time>2021-06-19T09:16:17+0000</time>
      </trkpt>
      <trkpt lat="40.636500000000005" lon="-2.5927100000000003">
        <time>2021-06-19T09:16:18+0000</time>
      </trkpt>
      <trkpt lat="40.63647" lon="-2.5925800000000003">
        <time>2021-06-19T09:16:19+0000</time>
      </trkpt>
      <trkpt lat="40.63645" lon="-2.59247">
        <time>2021-06-19T09:16:20+0000</time>
      </trkpt>
      <trkpt lat="40.636430000000004" lon="-2.59236">
        <time>2021-06-19T09:16:21+0000</time>
      </trkpt>
      <trkpt lat="40.636410000000005" lon="-2.59226">
        <time>2021-06-19T09:16:22+0000</time>
      </trkpt>
      <trkpt lat="40.6364" lon="-2.5921700000000003">
        <time>2021-06-19T09:16:23+0000</time>
      </trkpt>
      <trkpt lat="40.63638" lon="-2.5920900000000002">
        <time>2021-06-19T09:16:24+0000</time>
      </trkpt>
      <trkpt lat="40.63637000000001" lon="-2.592">
        <time>2021-06-19T09:16:25+0000</time>
      </trkpt>
      <trkpt lat="40.63635" lon="-2.59192">
        <time>2021-06-19T09:16:26+0000</time>
      </trkpt>
      <trkpt lat="40.63633" lon="-2.5918300000000003">
        <time>2021-06-19T09:16:27+0000</time>
      </trkpt>
      <trkpt lat="40.63633" lon="-2.59174">
        <time>2021-06-19T09:16:28+0000</time>
      </trkpt>
      <trkpt lat="40.636320000000005" lon="-2.5916400000000004">
        <time>2021-06-19T09:16:29+0000</time>
      </trkpt>
      <trkpt lat="40.636320000000005" lon="-2.59154">
        <time>2021-06-19T09:16:30+0000</time>
      </trkpt>
      <trkpt lat="40.636320000000005" lon="-2.5914300000000003">
        <time>2021-06-19T09:16:31+0000</time>
      </trkpt>
      <trkpt lat="40.636320000000005" lon="-2.59131">
        <time>2021-06-19T09:16:32+0000</time>
      </trkpt>
      <trkpt lat="40.636340000000004" lon="-2.59119">
        <time>2021-06-19T09:16:33+0000</time>
      </trkpt>
      <trkpt lat="40.63636" lon="-2.59107">
        <time>2021-06-19T09:16:34+0000</time>
      </trkpt>
      <trkpt lat="40.63638" lon="-2.5909500000000003">
        <time>2021-06-19T09:16:35+0000</time>
      </trkpt>
      <trkpt lat="40.6364" lon="-2.5908300000000004">
        <time>2021-06-19T09:16:36+0000</time>
      </trkpt>
      <trkpt lat="40.63642" lon="-2.5907">
        <time>2021-06-19T09:16:37+0000</time>
      </trkpt>
      <trkpt lat="40.63644" lon="-2.59058">
        <time>2021-06-19T09:16:38+0000</time>
      </trkpt>
      <trkpt lat="40.63646000000001" lon="-2.59046">
        <time>2021-06-19T09:16:39+0000</time>
      </trkpt>
      <trkpt lat="40.63649" lon="-2.5903300000000002">
        <time>2021-06-19T09:16:40+0000</time>
      </trkpt>
      <trkpt lat="40.63651" lon="-2.5902000000000003">
        <time>2021-06-19T09:16:41+0000</time>
      </trkpt>
      <trkpt lat="40.636540000000004" lon="-2.5900700000000003">
        <time>2021-06-19T09:16:42+0000</time>
      </trkpt>
      <trkpt lat="40.63656" lon="-2.5899400000000004">
        <time>2021-06-19T09:16:43+0000</time>
      </trkpt>
      <trkpt lat="40.636590000000005" lon="-2.58982">
        <time>2021-06-19T09:16:44+0000</time>
      </trkpt>
      <trkpt lat="40.636610000000005" lon="-2.5896800000000004">
        <time>2021-06-19T09:16:45+0000</time>
      </trkpt>
      <trkpt lat="40.636630000000004" lon="-2.58955">
        <time>2021-06-19T09:16:46+0000</time>
      </trkpt>
      <trkpt lat="40.63664" lon="-2.5894000000000004">
        <time>2021-06-19T09:16:47+0000</time>
      </trkpt>
      <trkpt lat="40.636660000000006" lon="-2.5892600000000003">
        <time>2021-06-19T09:16:48+0000</time>
      </trkpt>
      <trkpt lat="40.636700000000005" lon="-2.5891100000000002">
        <time>2021-06-19T09:16:49+0000</time>
      </trkpt>
      <trkpt lat="40.63676" lon="-2.58896">
        <time>2021-06-19T09:16:50+0000</time>
      </trkpt>
      <trkpt lat="40.63683" lon="-2.5888400000000003">
        <time>2021-06-19T09:16:51+0000</time>
      </trkpt>
      <trkpt lat="40.63691" lon="-2.58874">
        <time>2021-06-19T09:16:52+0000</time>
      </trkpt>
      <trkpt lat="40.636990000000004" lon="-2.5886400000000003">
        <time>2021-06-19T09:16:53+0000</time>
      </trkpt>
      <trkpt lat="40.637060000000005" lon="-2.5885100000000003">
        <time>2021-06-19T09:16:54+0000</time>
      </trkpt>
      <trkpt lat="40.63714" lon="-2.5884">
        <time>2021-06-19T09:16:55+0000</time>
      </trkpt>
      <trkpt lat="40.63723" lon="-2.58828">
        <time>2021-06-19T09:16:56+0000</time>
      </trkpt>
      <trkpt lat="40.63732" lon="-2.58815">
        <time>2021-06-19T09:16:57+0000</time>
      </trkpt>
      <trkpt lat="40.63741" lon="-2.58801">
        <time>2021-06-19T09:16:58+0000</time>
      </trkpt>
      <trkpt lat="40.63749000000001" lon="-2.58786">
        <time>2021-06-19T09:16:59+0000</time>
      </trkpt>
      <trkpt lat="40.63756" lon="-2.5877100000000004">
        <time>2021-06-19T09:17:00+0000</time>
      </trkpt>
      <trkpt lat="40.637620000000005" lon="-2.5875500000000002">
        <time>2021-06-19T09:17:01+0000</time>
      </trkpt>
      <trkpt lat="40.63767" lon="-2.5873700000000004">
        <time>2021-06-19T09:17:02+0000</time>
      </trkpt>
      <trkpt lat="40.637710000000006" lon="-2.58718">
        <time>2021-06-19T09:17:03+0000</time>
      </trkpt>
      <trkpt lat="40.63776" lon="-2.58698">
        <time>2021-06-19T09:17:04+0000</time>
      </trkpt>
      <trkpt lat="40.637800000000006" lon="-2.58677">
        <time>2021-06-19T09:17:05+0000</time>
      </trkpt>
      <trkpt lat="40.63786" lon="-2.5865500000000003">
        <time>2021-06-19T09:17:06+0000</time>
      </trkpt>
      <trkpt lat="40.6379" lon="-2.5863300000000002">
        <time>2021-06-19T09:17:07+0000</time>
      </trkpt>
      <trkpt lat="40.637950000000004" lon="-2.58612">
        <time>2021-06-19T09:17:08+0000</time>
      </trkpt>
      <trkpt lat="40.63799" lon="-2.58591">
        <time>2021-06-19T09:17:09+0000</time>
      </trkpt>
      <trkpt lat="40.638040000000004" lon="-2.58571">
        <time>2021-06-19T09:17:10+0000</time>
      </trkpt>
      <trkpt lat="40.638090000000005" lon="-2.58549">
        <time>2021-06-19T09:17:11+0000</time>
      </trkpt>
      <trkpt lat="40.63815" lon="-2.5852700000000004">
        <time>2021-06-19T09:17:12+0000</time>
      </trkpt>
      <trkpt lat="40.638200000000005" lon="-2.5850500000000003">
        <time>2021-06-19T09:17:13+0000</time>
      </trkpt>
      <trkpt lat="40.63826" lon="-2.58483">
        <time>2021-06-19T09:17:14+0000</time>
      </trkpt>
      <trkpt lat="40.63833" lon="-2.58461">
        <time>2021-06-19T09:17:15+0000</time>
      </trkpt>
      <trkpt lat="40.638400000000004" lon="-2.5843900000000004">
        <time>2021-06-19T09:17:16+0000</time>
      </trkpt>
      <trkpt lat="40.638490000000004" lon="-2.5841800000000004">
        <time>2021-06-19T09:17:17+0000</time>
      </trkpt>
      <trkpt lat="40.638580000000005" lon="-2.5839700000000003">
        <time>2021-06-19T09:17:18+0000</time>
      </trkpt>
      <trkpt lat="40.638690000000004" lon="-2.5837600000000003">
        <time>2021-06-19T09:17:19+0000</time>
      </trkpt>
      <trkpt lat="40.63879" lon="-2.5835600000000003">
        <time>2021-06-19T09:17:20+0000</time>
      </trkpt>
      <trkpt lat="40.63890000000001" lon="-2.5833500000000003">
        <time>2021-06-19T09:17:21+0000</time>
      </trkpt>
      <trkpt lat="40.639" lon="-2.5831500000000003">
        <time>2021-06-19T09:17:22+0000</time>
      </trkpt>
      <trkpt lat="40.63909" lon="-2.58293">
        <time>2021-06-19T09:17:23+0000</time>
      </trkpt>
      <trkpt lat="40.639160000000004" lon="-2.58271">
        <time>2021-06-19T09:17:24+0000</time>
      </trkpt>
      <trkpt lat="40.639230000000005" lon="-2.58246">
        <time>2021-06-19T09:17:25+0000</time>
      </trkpt>
      <trkpt lat="40.63928000000001" lon="-2.5822200000000004">
        <time>2021-06-19T09:17:26+0000</time>
      </trkpt>
      <trkpt lat="40.639340000000004" lon="-2.58198">
        <time>2021-06-19T09:17:27+0000</time>
      </trkpt>
      <trkpt lat="40.63942" lon="-2.58175">
        <time>2021-06-19T09:17:28+0000</time>
      </trkpt>
      <trkpt lat="40.63953" lon="-2.5815300000000003">
        <time>2021-06-19T09:17:29+0000</time>
      </trkpt>
      <trkpt lat="40.639660000000006" lon="-2.5813400000000004">
        <time>2021-06-19T09:17:30+0000</time>
      </trkpt>
      <trkpt lat="40.6398" lon="-2.58115">
        <time>2021-06-19T09:17:31+0000</time>
      </trkpt>
      <trkpt lat="40.63994" lon="-2.58097">
        <time>2021-06-19T09:17:32+0000</time>
      </trkpt>
      <trkpt lat="40.640080000000005" lon="-2.5807800000000003">
        <time>2021-06-19T09:17:33+0000</time>
      </trkpt>
      <trkpt lat="40.64022000000001" lon="-2.5805900000000004">
        <time>2021-06-19T09:17:34+0000</time>
      </trkpt>
      <trkpt lat="40.64034" lon="-2.5803800000000003">
        <time>2021-06-19T09:17:35+0000</time>
      </trkpt>
      <trkpt lat="40.64045" lon="-2.58015">
        <time>2021-06-19T09:17:36+0000</time>
      </trkpt>
      <trkpt lat="40.64056" lon="-2.57992">
        <time>2021-06-19T09:17:37+0000</time>
      </trkpt>
      <trkpt lat="40.640640000000005" lon="-2.57967">
        <time>2021-06-19T09:17:38+0000</time>
      </trkpt>
      <trkpt lat="40.6407" lon="-2.5794">
        <time>2021-06-19T09:17:39+0000</time>
      </trkpt>
      <trkpt lat="40.64076" lon="-2.57913">
        <time>2021-06-19T09:17:40+0000</time>
      </trkpt>
      <trkpt lat="40.64081" lon="-2.57886">
        <time>2021-06-19T09:17:41+0000</time>
      </trkpt>
      <trkpt lat="40.64087000000001" lon="-2.57858">
        <time>2021-06-19T09:17:42+0000</time>
      </trkpt>
      <trkpt lat="40.640930000000004" lon="-2.57831">
        <time>2021-06-19T09:17:43+0000</time>
      </trkpt>
      <trkpt lat="40.640980000000006" lon="-2.57804">
        <time>2021-06-19T09:17:44+0000</time>
      </trkpt>
      <trkpt lat="40.641040000000004" lon="-2.57776">
        <time>2021-06-19T09:17:45+0000</time>
      </trkpt>
      <trkpt lat="40.641090000000005" lon="-2.57748">
        <time>2021-06-19T09:17:46+0000</time>
      </trkpt>
      <trkpt lat="40.64115" lon="-2.5772000000000004">
        <time>2021-06-19T09:17:47+0000</time>
      </trkpt>
      <trkpt lat="40.64121" lon="-2.5769200000000003">
        <time>2021-06-19T09:17:48+0000</time>
      </trkpt>
      <trkpt lat="40.641270000000006" lon="-2.5766400000000003">
        <time>2021-06-19T09:17:49+0000</time>
      </trkpt>
      <trkpt lat="40.64133" lon="-2.57636">
        <time>2021-06-19T09:17:50+0000</time>
      </trkpt>
      <trkpt lat="40.641400000000004" lon="-2.57608">
        <time>2021-06-19T09:17:51+0000</time>
      </trkpt>
      <trkpt lat="40.641470000000005" lon="-2.5758">
        <time>2021-06-19T09:17:52+0000</time>
      </trkpt>
      <trkpt lat="40.64157" lon="-2.5755500000000002">
        <time>2021-06-19T09:17:53+0000</time>
      </trkpt>
      <trkpt lat="40.641690000000004" lon="-2.5753100000000004">
        <time>2021-06-19T09:17:54+0000</time>
      </trkpt>
      <trkpt lat="40.64181000000001" lon="-2.57507">
        <time>2021-06-19T09:17:55+0000</time>
      </trkpt>
      <trkpt lat="40.641940000000005" lon="-2.57484">
        <time>2021-06-19T09:17:56+0000</time>
      </trkpt>
      <trkpt lat="40.642070000000004" lon="-2.5746100000000003">
        <time>2021-06-19T09:17:57+0000</time>
      </trkpt>
      <trkpt lat="40.6422" lon="-2.57438">
        <time>2021-06-19T09:17:58+0000</time>
      </trkpt>
      <trkpt lat="40.64233" lon="-2.5741500000000004">
        <time>2021-06-19T09:17:59+0000</time>
      </trkpt>
      <trkpt lat="40.642450000000004" lon="-2.5739400000000003">
        <time>2021-06-19T09:18:00+0000</time>
      </trkpt>
      <trkpt lat="40.64256" lon="-2.5737300000000003">
        <time>2021-06-19T09:18:01+0000</time>
      </trkpt>
      <trkpt lat="40.64267" lon="-2.5735400000000004">
        <time>2021-06-19T09:18:02+0000</time>
      </trkpt>
      <trkpt lat="40.642790000000005" lon="-2.57336">
        <time>2021-06-19T09:18:03+0000</time>
      </trkpt>
      <trkpt lat="40.64291" lon="-2.5731800000000002">
        <time>2021-06-19T09:18:04+0000</time>
      </trkpt>
      <trkpt lat="40.64305" lon="-2.57301">
        <time>2021-06-19T09:18:05+0000</time>
      </trkpt>
      <trkpt lat="40.643190000000004" lon="-2.5728600000000004">
        <time>2021-06-19T09:18:06+0000</time>
      </trkpt>
      <trkpt lat="40.64334" lon="-2.5727100000000003">
        <time>2021-06-19T09:18:07+0000</time>
      </trkpt>
      <trkpt lat="40.64349" lon="-2.5725800000000003">
        <time>2021-06-19T09:18:08+0000</time>
      </trkpt>
      <trkpt lat="40.64365" lon="-2.5724600000000004">
        <time>2021-06-19T09:18:09+0000</time>
      </trkpt>
      <trkpt lat="40.643820000000005" lon="-2.57236">
        <time>2021-06-19T09:18:10+0000</time>
      </trkpt>
      <trkpt lat="40.64399" lon="-2.57226">
        <time>2021-06-19T09:18:11+0000</time>
      </trkpt>
      <trkpt lat="40.64414" lon="-2.5721200000000004">
        <time>2021-06-19T09:18:12+0000</time>
      </trkpt>
      <trkpt lat="40.64426" lon="-2.57194">
        <time>2021-06-19T09:18:13+0000</time>
      </trkpt>
      <trkpt lat="40.644360000000006" lon="-2.57173">
        <time>2021-06-19T09:18:14+0000</time>
      </trkpt>
      <trkpt lat="40.64443" lon="-2.5715100000000004">
        <time>2021-06-19T09:18:15+0000</time>
      </trkpt>
      <trkpt lat="40.6445" lon="-2.5712900000000003">
        <time>2021-06-19T09:18:16+0000</time>
      </trkpt>
      <trkpt lat="40.64459" lon="-2.5710800000000003">
        <time>2021-06-19T09:18:17+0000</time>
      </trkpt>
      <trkpt lat="40.64471" lon="-2.57091">
        <time>2021-06-19T09:18:18+0000</time>
      </trkpt>
      <trkpt lat="40.64481000000001" lon="-2.57072">
        <time>2021-06-19T09:18:19+0000</time>
      </trkpt>
      <trkpt lat="40.6449" lon="-2.57053">
        <time>2021-06-19T09:18:20+0000</time>
      </trkpt>
      <trkpt lat="40.644960000000005" lon="-2.5703500000000004">
        <time>2021-06-19T09:18:21+0000</time>
      </trkpt>
      <trkpt lat="40.645030000000006" lon="-2.57017">
        <time>2021-06-19T09:18:22+0000</time>
      </trkpt>
      <trkpt lat="40.64509" lon="-2.5700000000000003">
        <time>2021-06-19T09:18:23+0000</time>
      </trkpt>
      <trkpt lat="40.64515" lon="-2.56982">
        <time>2021-06-19T09:18:24+0000</time>
      </trkpt>
      <trkpt lat="40.64522" lon="-2.56965">
        <time>2021-06-19T09:18:25+0000</time>
      </trkpt>
      <trkpt lat="40.645300000000006" lon="-2.5694600000000003">
        <time>2021-06-19T09:18:26+0000</time>
      </trkpt>
      <trkpt lat="40.64537" lon="-2.56928">
        <time>2021-06-19T09:18:27+0000</time>
      </trkpt>
      <trkpt lat="40.64544" lon="-2.56909">
        <time>2021-06-19T09:18:28+0000</time>
      </trkpt>
      <trkpt lat="40.645520000000005" lon="-2.5689">
        <time>2021-06-19T09:18:29+0000</time>
      </trkpt>
      <trkpt lat="40.6456" lon="-2.5687100000000003">
        <time>2021-06-19T09:18:30+0000</time>
      </trkpt>
      <trkpt lat="40.645680000000006" lon="-2.5685100000000003">
        <time>2021-06-19T09:18:31+0000</time>
      </trkpt>
      <trkpt lat="40.645770000000006" lon="-2.5683200000000004">
        <time>2021-06-19T09:18:32+0000</time>
      </trkpt>
      <trkpt lat="40.64585" lon="-2.56813">
        <time>2021-06-19T09:18:33+0000</time>
      </trkpt>
      <trkpt lat="40.64594" lon="-2.56795">
        <time>2021-06-19T09:18:34+0000</time>
      </trkpt>
      <trkpt lat="40.64603" lon="-2.5677700000000003">
        <time>2021-06-19T09:18:35+0000</time>
      </trkpt>
      <trkpt lat="40.646100000000004" lon="-2.56761">
        <time>2021-06-19T09:18:36+0000</time>
      </trkpt>
      <trkpt lat="40.646170000000005" lon="-2.56745">
        <time>2021-06-19T09:18:37+0000</time>
      </trkpt>
      <trkpt lat="40.646240000000006" lon="-2.5673000000000004">
        <time>2021-06-19T09:18:38+0000</time>
      </trkpt>
      <trkpt lat="40.646300000000004" lon="-2.5671600000000003">
        <time>2021-06-19T09:18:39+0000</time>
      </trkpt>
      <trkpt lat="40.646370000000005" lon="-2.56704">
        <time>2021-06-19T09:18:40+0000</time>
      </trkpt>
      <trkpt lat="40.646420000000006" lon="-2.56692">
        <time>2021-06-19T09:18:41+0000</time>
      </trkpt>
      <trkpt lat="40.646460000000005" lon="-2.56679">
        <time>2021-06-19T09:18:42+0000</time>
      </trkpt>
      <trkpt lat="40.64649" lon="-2.56665">
        <time>2021-06-19T09:18:43+0000</time>
      </trkpt>
      <trkpt lat="40.6465" lon="-2.5664900000000004">
        <time>2021-06-19T09:18:44+0000</time>
      </trkpt>
      <trkpt lat="40.6465" lon="-2.56632">
        <time>2021-06-19T09:18:45+0000</time>
      </trkpt>
      <trkpt lat="40.646460000000005" lon="-2.5661400000000003">
        <time>2021-06-19T09:18:46+0000</time>
      </trkpt>
      <trkpt lat="40.6464" lon="-2.56596">
        <time>2021-06-19T09:18:47+0000</time>
      </trkpt>
      <trkpt lat="40.64631000000001" lon="-2.5657900000000002">
        <time>2021-06-19T09:18:48+0000</time>
      </trkpt>
      <trkpt lat="40.64622000000001" lon="-2.5656100000000004">
        <time>2021-06-19T09:18:49+0000</time>
      </trkpt>
      <trkpt lat="40.64612" lon="-2.56544">
        <time>2021-06-19T09:18:50+0000</time>
      </trkpt>
      <trkpt lat="40.646010000000004" lon="-2.56529">
        <time>2021-06-19T09:18:51+0000</time>
      </trkpt>
      <trkpt lat="40.645880000000005" lon="-2.5651400000000004">
        <time>2021-06-19T09:18:52+0000</time>
      </trkpt>
      <trkpt lat="40.64576" lon="-2.5650000000000004">
        <time>2021-06-19T09:18:53+0000</time>
      </trkpt>
      <trkpt lat="40.64565" lon="-2.5648600000000004">
        <time>2021-06-19T09:18:54+0000</time>
      </trkpt>
      <trkpt lat="40.645570000000006" lon="-2.56467">
        <time>2021-06-19T09:18:55+0000</time>
      </trkpt>
      <trkpt lat="40.645520000000005" lon="-2.56447">
        <time>2021-06-19T09:18:56+0000</time>
      </trkpt>
      <trkpt lat="40.64549" lon="-2.5642500000000004">
        <time>2021-06-19T09:18:57+0000</time>
      </trkpt>
      <trkpt lat="40.645480000000006" lon="-2.56402">
        <time>2021-06-19T09:18:58+0000</time>
      </trkpt>
      <trkpt lat="40.645480000000006" lon="-2.56379">
        <time>2021-06-19T09:18:59+0000</time>
      </trkpt>
      <trkpt lat="40.645500000000006" lon="-2.5635600000000003">
        <time>2021-06-19T09:19:00+0000</time>
      </trkpt>
      <trkpt lat="40.645540000000004" lon="-2.5633500000000002">
        <time>2021-06-19T09:19:01+0000</time>
      </trkpt>
      <trkpt lat="40.645590000000006" lon="-2.56314">
        <time>2021-06-19T09:19:02+0000</time>
      </trkpt>
      <trkpt lat="40.64565" lon="-2.56293">
        <time>2021-06-19T09:19:03+0000</time>
      </trkpt>
      <trkpt lat="40.64573" lon="-2.56272">
        <time>2021-06-19T09:19:04+0000</time>
      </trkpt>
      <trkpt lat="40.645830000000004" lon="-2.56252">
        <time>2021-06-19T09:19:05+0000</time>
      </trkpt>
      <trkpt lat="40.645950000000006" lon="-2.56233">
        <time>2021-06-19T09:19:06+0000</time>
      </trkpt>
      <trkpt lat="40.646080000000005" lon="-2.56216">
        <time>2021-06-19T09:19:07+0000</time>
      </trkpt>
      <trkpt lat="40.64622000000001" lon="-2.5620000000000003">
        <time>2021-06-19T09:19:08+0000</time>
      </trkpt>
      <trkpt lat="40.646370000000005" lon="-2.56185">
        <time>2021-06-19T09:19:09+0000</time>
      </trkpt>
      <trkpt lat="40.64652" lon="-2.56171">
        <time>2021-06-19T09:19:10+0000</time>
      </trkpt>
      <trkpt lat="40.64668" lon="-2.56158">
        <time>2021-06-19T09:19:11+0000</time>
      </trkpt>
      <trkpt lat="40.646840000000005" lon="-2.5614500000000002">
        <time>2021-06-19T09:19:12+0000</time>
      </trkpt>
      <trkpt lat="40.64699" lon="-2.5613">
        <time>2021-06-19T09:19:13+0000</time>
      </trkpt>
      <trkpt lat="40.647130000000004" lon="-2.5611400000000004">
        <time>2021-06-19T09:19:14+0000</time>
      </trkpt>
      <trkpt lat="40.64726" lon="-2.56096">
        <time>2021-06-19T09:19:15+0000</time>
      </trkpt>
      <trkpt lat="40.647380000000005" lon="-2.56076">
        <time>2021-06-19T09:19:16+0000</time>
      </trkpt>
      <trkpt lat="40.6475" lon="-2.56055">
        <time>2021-06-19T09:19:17+0000</time>
      </trkpt>
      <trkpt lat="40.64761" lon="-2.56033">
        <time>2021-06-19T09:19:18+0000</time>
      </trkpt>
      <trkpt lat="40.64773" lon="-2.5601100000000003">
        <time>2021-06-19T09:19:19+0000</time>
      </trkpt>
      <trkpt lat="40.647830000000006" lon="-2.55989">
        <time>2021-06-19T09:19:20+0000</time>
      </trkpt>
      <trkpt lat="40.64793" lon="-2.55967">
        <time>2021-06-19T09:19:21+0000</time>
      </trkpt>
      <trkpt lat="40.648010000000006" lon="-2.55946">
        <time>2021-06-19T09:19:22+0000</time>
      </trkpt>
      <trkpt lat="40.64809" lon="-2.55925">
        <time>2021-06-19T09:19:23+0000</time>
      </trkpt>
      <trkpt lat="40.648160000000004" lon="-2.55905">
        <time>2021-06-19T09:19:24+0000</time>
      </trkpt>
      <trkpt lat="40.64824" lon="-2.55885">
        <time>2021-06-19T09:19:25+0000</time>
      </trkpt>
      <trkpt lat="40.64831" lon="-2.5586800000000003">
        <time>2021-06-19T09:19:26+0000</time>
      </trkpt>
      <trkpt lat="40.64838" lon="-2.55852">
        <time>2021-06-19T09:19:27+0000</time>
      </trkpt>
      <trkpt lat="40.64846" lon="-2.55837">
        <time>2021-06-19T09:19:28+0000</time>
      </trkpt>
      <trkpt lat="40.648540000000004" lon="-2.55825">
        <time>2021-06-19T09:19:29+0000</time>
      </trkpt>
      <trkpt lat="40.64862" lon="-2.5581400000000003">
        <time>2021-06-19T09:19:30+0000</time>
      </trkpt>
      <trkpt lat="40.64869" lon="-2.55804">
        <time>2021-06-19T09:19:31+0000</time>
      </trkpt>
      <trkpt lat="40.64876" lon="-2.55796">
        <time>2021-06-19T09:19:32+0000</time>
      </trkpt>
      <trkpt lat="40.64882" lon="-2.5578700000000003">
        <time>2021-06-19T09:19:33+0000</time>
      </trkpt>
      <trkpt lat="40.64889" lon="-2.5577900000000002">
        <time>2021-06-19T09:19:34+0000</time>
      </trkpt>
      <trkpt lat="40.648950000000006" lon="-2.55771">
        <time>2021-06-19T09:19:35+0000</time>
      </trkpt>
      <trkpt lat="40.64902" lon="-2.55762">
        <time>2021-06-19T09:19:36+0000</time>
      </trkpt>
      <trkpt lat="40.649080000000005" lon="-2.5575200000000002">
        <time>2021-06-19T09:19:37+0000</time>
      </trkpt>
      <trkpt lat="40.649150000000006" lon="-2.5574100000000004">
        <time>2021-06-19T09:19:38+0000</time>
      </trkpt>
      <trkpt lat="40.649210000000004" lon="-2.5573">
        <time>2021-06-19T09:19:39+0000</time>
      </trkpt>
      <trkpt lat="40.64925" lon="-2.5571800000000002">
        <time>2021-06-19T09:19:40+0000</time>
      </trkpt>
      <trkpt lat="40.649280000000005" lon="-2.5570500000000003">
        <time>2021-06-19T09:19:41+0000</time>
      </trkpt>
      <trkpt lat="40.649300000000004" lon="-2.5569200000000003">
        <time>2021-06-19T09:19:42+0000</time>
      </trkpt>
      <trkpt lat="40.64932" lon="-2.5567800000000003">
        <time>2021-06-19T09:19:43+0000</time>
      </trkpt>
      <trkpt lat="40.649330000000006" lon="-2.55663">
        <time>2021-06-19T09:19:44+0000</time>
      </trkpt>
      <trkpt lat="40.64932" lon="-2.55648">
        <time>2021-06-19T09:19:45+0000</time>
      </trkpt>
      <trkpt lat="40.64931" lon="-2.55633">
        <time>2021-06-19T09:19:46+0000</time>
      </trkpt>
      <trkpt lat="40.64927" lon="-2.55616">
        <time>2021-06-19T09:19:47+0000</time>
      </trkpt>
      <trkpt lat="40.649210000000004" lon="-2.5559900000000004">
        <time>2021-06-19T09:19:48+0000</time>
      </trkpt>
      <trkpt lat="40.64914" lon="-2.55582">
        <time>2021-06-19T09:19:49+0000</time>
      </trkpt>
      <trkpt lat="40.64904000000001" lon="-2.5556500000000004">
        <time>2021-06-19T09:19:50+0000</time>
      </trkpt>
      <trkpt lat="40.64894" lon="-2.5555100000000004">
        <time>2021-06-19T09:19:51+0000</time>
      </trkpt>
      <trkpt lat="40.64882" lon="-2.5553800000000004">
        <time>2021-06-19T09:19:52+0000</time>
      </trkpt>
      <trkpt lat="40.648680000000006" lon="-2.55527">
        <time>2021-06-19T09:19:53+0000</time>
      </trkpt>
      <trkpt lat="40.64853" lon="-2.5551600000000003">
        <time>2021-06-19T09:19:54+0000</time>
      </trkpt>
      <trkpt lat="40.64837" lon="-2.5550300000000004">
        <time>2021-06-19T09:19:55+0000</time>
      </trkpt>
      <trkpt lat="40.6482" lon="-2.55487">
        <time>2021-06-19T09:19:56+0000</time>
      </trkpt>
      <trkpt lat="40.64802" lon="-2.5546800000000003">
        <time>2021-06-19T09:19:57+0000</time>
      </trkpt>
      <trkpt lat="40.64784" lon="-2.55446">
        <time>2021-06-19T09:19:58+0000</time>
      </trkpt>
      <trkpt lat="40.64766" lon="-2.55424">
        <time>2021-06-19T09:19:59+0000</time>
      </trkpt>
      <trkpt lat="40.647490000000005" lon="-2.55403">
        <time>2021-06-19T09:20:00+0000</time>
      </trkpt>
      <trkpt lat="40.647330000000004" lon="-2.55383">
        <time>2021-06-19T09:20:01+0000</time>
      </trkpt>
      <trkpt lat="40.647180000000006" lon="-2.55364">
        <time>2021-06-19T09:20:02+0000</time>
      </trkpt>
      <trkpt lat="40.64703" lon="-2.55345">
        <time>2021-06-19T09:20:03+0000</time>
      </trkpt>
      <trkpt lat="40.646910000000005" lon="-2.55323">
        <time>2021-06-19T09:20:04+0000</time>
      </trkpt>
      <trkpt lat="40.64683" lon="-2.5529800000000002">
        <time>2021-06-19T09:20:05+0000</time>
      </trkpt>
      <trkpt lat="40.64678000000001" lon="-2.5527100000000003">
        <time>2021-06-19T09:20:06+0000</time>
      </trkpt>
      <trkpt lat="40.646750000000004" lon="-2.5524400000000003">
        <time>2021-06-19T09:20:07+0000</time>
      </trkpt>
      <trkpt lat="40.646730000000005" lon="-2.5521800000000003">
        <time>2021-06-19T09:20:08+0000</time>
      </trkpt>
      <trkpt lat="40.64669000000001" lon="-2.55194">
        <time>2021-06-19T09:20:09+0000</time>
      </trkpt>
      <trkpt lat="40.646620000000006" lon="-2.5517100000000004">
        <time>2021-06-19T09:20:10+0000</time>
      </trkpt>
      <trkpt lat="40.646530000000006" lon="-2.5514900000000003">
        <time>2021-06-19T09:20:11+0000</time>
      </trkpt>
      <trkpt lat="40.64645" lon="-2.55127">
        <time>2021-06-19T09:20:12+0000</time>
      </trkpt>
      <trkpt lat="40.64636" lon="-2.55105">
        <time>2021-06-19T09:20:13+0000</time>
      </trkpt>
      <trkpt lat="40.64627" lon="-2.5508300000000004">
        <time>2021-06-19T09:20:14+0000</time>
      </trkpt>
      <trkpt lat="40.64618" lon="-2.5506">
        <time>2021-06-19T09:20:15+0000</time>
      </trkpt>
      <trkpt lat="40.64609" lon="-2.55037">
        <time>2021-06-19T09:20:16+0000</time>
      </trkpt>
      <trkpt lat="40.646" lon="-2.5501400000000003">
        <time>2021-06-19T09:20:17+0000</time>
      </trkpt>
      <trkpt lat="40.64591" lon="-2.54991">
        <time>2021-06-19T09:20:18+0000</time>
      </trkpt>
      <trkpt lat="40.64582" lon="-2.5496800000000004">
        <time>2021-06-19T09:20:19+0000</time>
      </trkpt>
      <trkpt lat="40.64575000000001" lon="-2.54945">
        <time>2021-06-19T09:20:20+0000</time>
      </trkpt>
      <trkpt lat="40.64567" lon="-2.54923">
        <time>2021-06-19T09:20:21+0000</time>
      </trkpt>
      <trkpt lat="40.645610000000005" lon="-2.5490000000000004">
        <time>2021-06-19T09:20:22+0000</time>
      </trkpt>
      <trkpt lat="40.64555" lon="-2.54877">
        <time>2021-06-19T09:20:23+0000</time>
      </trkpt>
      <trkpt lat="40.645500000000006" lon="-2.54854">
        <time>2021-06-19T09:20:24+0000</time>
      </trkpt>
      <trkpt lat="40.64546" lon="-2.5483000000000002">
        <time>2021-06-19T09:20:25+0000</time>
      </trkpt>
      <trkpt lat="40.64544" lon="-2.5480400000000003">
        <time>2021-06-19T09:20:26+0000</time>
      </trkpt>
      <trkpt lat="40.64542" lon="-2.54779">
        <time>2021-06-19T09:20:27+0000</time>
      </trkpt>
      <trkpt lat="40.645410000000005" lon="-2.54753">
        <time>2021-06-19T09:20:28+0000</time>
      </trkpt>
      <trkpt lat="40.6454" lon="-2.54725">
        <time>2021-06-19T09:20:29+0000</time>
      </trkpt>
      <trkpt lat="40.645390000000006" lon="-2.5469700000000004">
        <time>2021-06-19T09:20:30+0000</time>
      </trkpt>
      <trkpt lat="40.64538" lon="-2.5466900000000003">
        <time>2021-06-19T09:20:31+0000</time>
      </trkpt>
      <trkpt lat="40.64537" lon="-2.5464100000000003">
        <time>2021-06-19T09:20:32+0000</time>
      </trkpt>
      <trkpt lat="40.645360000000004" lon="-2.5461500000000004">
        <time>2021-06-19T09:20:33+0000</time>
      </trkpt>
      <trkpt lat="40.645360000000004" lon="-2.54591">
        <time>2021-06-19T09:20:34+0000</time>
      </trkpt>
      <trkpt lat="40.64535" lon="-2.5456600000000003">
        <time>2021-06-19T09:20:35+0000</time>
      </trkpt>
      <trkpt lat="40.645340000000004" lon="-2.5454100000000004">
        <time>2021-06-19T09:20:36+0000</time>
      </trkpt>
      <trkpt lat="40.645340000000004" lon="-2.54515">
        <time>2021-06-19T09:20:37+0000</time>
      </trkpt>
      <trkpt lat="40.64533" lon="-2.5449">
        <time>2021-06-19T09:20:38+0000</time>
      </trkpt>
      <trkpt lat="40.64531" lon="-2.5446400000000002">
        <time>2021-06-19T09:20:39+0000</time>
      </trkpt>
      <trkpt lat="40.64528000000001" lon="-2.5443800000000003">
        <time>2021-06-19T09:20:40+0000</time>
      </trkpt>
      <trkpt lat="40.645230000000005" lon="-2.54413">
        <time>2021-06-19T09:20:41+0000</time>
      </trkpt>
      <trkpt lat="40.64517" lon="-2.5439000000000003">
        <time>2021-06-19T09:20:42+0000</time>
      </trkpt>
      <trkpt lat="40.64509" lon="-2.54366">
        <time>2021-06-19T09:20:43+0000</time>
      </trkpt>
      <trkpt lat="40.645" lon="-2.5434400000000004">
        <time>2021-06-19T09:20:44+0000</time>
      </trkpt>
      <trkpt lat="40.644890000000004" lon="-2.5432200000000003">
        <time>2021-06-19T09:20:45+0000</time>
      </trkpt>
      <trkpt lat="40.64477" lon="-2.54301">
        <time>2021-06-19T09:20:46+0000</time>
      </trkpt>
      <trkpt lat="40.64464" lon="-2.5428200000000003">
        <time>2021-06-19T09:20:47+0000</time>
      </trkpt>
      <trkpt lat="40.64453" lon="-2.54264">
        <time>2021-06-19T09:20:48+0000</time>
      </trkpt>
      <trkpt lat="40.64441" lon="-2.54246">
        <time>2021-06-19T09:20:49+0000</time>
      </trkpt>
      <trkpt lat="40.6443" lon="-2.5422700000000003">
        <time>2021-06-19T09:20:50+0000</time>
      </trkpt>
      <trkpt lat="40.64421" lon="-2.5420800000000003">
        <time>2021-06-19T09:20:51+0000</time>
      </trkpt>
      <trkpt lat="40.644130000000004" lon="-2.5418600000000002">
        <time>2021-06-19T09:20:52+0000</time>
      </trkpt>
      <trkpt lat="40.644070000000006" lon="-2.54162">
        <time>2021-06-19T09:20:53+0000</time>
      </trkpt>
      <trkpt lat="40.64403" lon="-2.54138">
        <time>2021-06-19T09:20:54+0000</time>
      </trkpt>
      <trkpt lat="40.64403" lon="-2.54111">
        <time>2021-06-19T09:20:55+0000</time>
      </trkpt>
      <trkpt lat="40.64406" lon="-2.5408600000000003">
        <time>2021-06-19T09:20:56+0000</time>
      </trkpt>
      <trkpt lat="40.64412" lon="-2.54061">
        <time>2021-06-19T09:20:57+0000</time>
      </trkpt>
      <trkpt lat="40.644200000000005" lon="-2.5403800000000003">
        <time>2021-06-19T09:20:58+0000</time>
      </trkpt>
      <trkpt lat="40.64428" lon="-2.54016">
        <time>2021-06-19T09:20:59+0000</time>
      </trkpt>
      <trkpt lat="40.64432" lon="-2.53994">
        <time>2021-06-19T09:21:00+0000</time>
      </trkpt>
      <trkpt lat="40.644330000000004" lon="-2.5397100000000004">
        <time>2021-06-19T09:21:01+0000</time>
      </trkpt>
      <trkpt lat="40.644310000000004" lon="-2.53948">
        <time>2021-06-19T09:21:02+0000</time>
      </trkpt>
      <trkpt lat="40.644270000000006" lon="-2.5392400000000004">
        <time>2021-06-19T09:21:03+0000</time>
      </trkpt>
      <trkpt lat="40.64419" lon="-2.539">
        <time>2021-06-19T09:21:04+0000</time>
      </trkpt>
      <trkpt lat="40.6441" lon="-2.5387600000000003">
        <time>2021-06-19T09:21:05+0000</time>
      </trkpt>
      <trkpt lat="40.64401" lon="-2.53853">
        <time>2021-06-19T09:21:06+0000</time>
      </trkpt>
      <trkpt lat="40.64394" lon="-2.5382900000000004">
        <time>2021-06-19T09:21:07+0000</time>
      </trkpt>
      <trkpt lat="40.6439" lon="-2.53803">
        <time>2021-06-19T09:21:08+0000</time>
      </trkpt>
      <trkpt lat="40.6439" lon="-2.53778">
        <time>2021-06-19T09:21:09+0000</time>
      </trkpt>
      <trkpt lat="40.64392" lon="-2.5375300000000003">
        <time>2021-06-19T09:21:10+0000</time>
      </trkpt>
      <trkpt lat="40.64397" lon="-2.53729">
        <time>2021-06-19T09:21:11+0000</time>
      </trkpt>
      <trkpt lat="40.64405" lon="-2.5370500000000002">
        <time>2021-06-19T09:21:12+0000</time>
      </trkpt>
      <trkpt lat="40.644130000000004" lon="-2.53682">
        <time>2021-06-19T09:21:13+0000</time>
      </trkpt>
      <trkpt lat="40.64421" lon="-2.5366000000000004">
        <time>2021-06-19T09:21:14+0000</time>
      </trkpt>
      <trkpt lat="40.64428" lon="-2.5363900000000004">
        <time>2021-06-19T09:21:15+0000</time>
      </trkpt>
      <trkpt lat="40.64434000000001" lon="-2.5361900000000004">
        <time>2021-06-19T09:21:16+0000</time>
      </trkpt>
      <trkpt lat="40.64439" lon="-2.5359800000000003">
        <time>2021-06-19T09:21:17+0000</time>
      </trkpt>
      <trkpt lat="40.64443" lon="-2.5357700000000003">
        <time>2021-06-19T09:21:18+0000</time>
      </trkpt>
      <trkpt lat="40.644470000000005" lon="-2.5355600000000003">
        <time>2021-06-19T09:21:19+0000</time>
      </trkpt>
      <trkpt lat="40.64448" lon="-2.53533">
        <time>2021-06-19T09:21:20+0000</time>
      </trkpt>
      <trkpt lat="40.644490000000005" lon="-2.5351000000000004">
        <time>2021-06-19T09:21:21+0000</time>
      </trkpt>
      <trkpt lat="40.644490000000005" lon="-2.5348800000000002">
        <time>2021-06-19T09:21:22+0000</time>
      </trkpt>
      <trkpt lat="40.64448" lon="-2.53465">
        <time>2021-06-19T09:21:23+0000</time>
      </trkpt>
      <trkpt lat="40.644450000000006" lon="-2.5344300000000004">
        <time>2021-06-19T09:21:24+0000</time>
      </trkpt>
      <trkpt lat="40.64441" lon="-2.5342000000000002">
        <time>2021-06-19T09:21:25+0000</time>
      </trkpt>
      <trkpt lat="40.644360000000006" lon="-2.53398">
        <time>2021-06-19T09:21:26+0000</time>
      </trkpt>
      <trkpt lat="40.644310000000004" lon="-2.5337500000000004">
        <time>2021-06-19T09:21:27+0000</time>
      </trkpt>
      <trkpt lat="40.64426" lon="-2.53352">
        <time>2021-06-19T09:21:28+0000</time>
      </trkpt>
      <trkpt lat="40.644220000000004" lon="-2.53331">
        <time>2021-06-19T09:21:29+0000</time>
      </trkpt>
      <trkpt lat="40.64417" lon="-2.53311">
        <time>2021-06-19T09:21:30+0000</time>
      </trkpt>
      <trkpt lat="40.644130000000004" lon="-2.5329300000000003">
        <time>2021-06-19T09:21:31+0000</time>
      </trkpt>
      <trkpt lat="40.6441" lon="-2.53277">
        <time>2021-06-19T09:21:32+0000</time>
      </trkpt>
      <trkpt lat="40.64406" lon="-2.53261">
        <time>2021-06-19T09:21:33+0000</time>
      </trkpt>
      <trkpt lat="40.64403" lon="-2.53247">
        <time>2021-06-19T09:21:34+0000</time>
      </trkpt>
      <trkpt lat="40.644000000000005" lon="-2.53235">
        <time>2021-06-19T09:21:35+0000</time>
      </trkpt>
      <trkpt lat="40.64397" lon="-2.53221">
        <time>2021-06-19T09:21:36+0000</time>
      </trkpt>
      <trkpt lat="40.64394" lon="-2.53207">
        <time>2021-06-19T09:21:37+0000</time>
      </trkpt>
      <trkpt lat="40.643910000000005" lon="-2.53193">
        <time>2021-06-19T09:21:38+0000</time>
      </trkpt>
      <trkpt lat="40.64388" lon="-2.5317800000000004">
        <time>2021-06-19T09:21:39+0000</time>
      </trkpt>
      <trkpt lat="40.64385" lon="-2.5316300000000003">
        <time>2021-06-19T09:21:40+0000</time>
      </trkpt>
      <trkpt lat="40.64381" lon="-2.53148">
        <time>2021-06-19T09:21:41+0000</time>
      </trkpt>
      <trkpt lat="40.64378000000001" lon="-2.53134">
        <time>2021-06-19T09:21:42+0000</time>
      </trkpt>
      <trkpt lat="40.643750000000004" lon="-2.5312">
        <time>2021-06-19T09:21:43+0000</time>
      </trkpt>
      <trkpt lat="40.643710000000006" lon="-2.53108">
        <time>2021-06-19T09:21:44+0000</time>
      </trkpt>
      <trkpt lat="40.64368" lon="-2.5309700000000004">
        <time>2021-06-19T09:21:45+0000</time>
      </trkpt>
      <trkpt lat="40.643640000000005" lon="-2.53086">
        <time>2021-06-19T09:21:46+0000</time>
      </trkpt>
      <trkpt lat="40.643600000000006" lon="-2.5307700000000004">
        <time>2021-06-19T09:21:47+0000</time>
      </trkpt>
      <trkpt lat="40.643570000000004" lon="-2.5306800000000003">
        <time>2021-06-19T09:21:48+0000</time>
      </trkpt>
      <trkpt lat="40.64352" lon="-2.53059">
        <time>2021-06-19T09:21:49+0000</time>
      </trkpt>
      <trkpt lat="40.64347" lon="-2.5304900000000004">
        <time>2021-06-19T09:21:50+0000</time>
      </trkpt>
      <trkpt lat="40.64343" lon="-2.5304100000000003">
        <time>2021-06-19T09:21:51+0000</time>
      </trkpt>
      <trkpt lat="40.643390000000004" lon="-2.53033">
        <time>2021-06-19T09:21:52+0000</time>
      </trkpt>
      <trkpt lat="40.64334" lon="-2.5302300000000004">
        <time>2021-06-19T09:21:53+0000</time>
      </trkpt>
      <trkpt lat="40.64327" lon="-2.53013">
        <time>2021-06-19T09:21:54+0000</time>
      </trkpt>
      <trkpt lat="40.643190000000004" lon="-2.5300000000000002">
        <time>2021-06-19T09:21:55+0000</time>
      </trkpt>
      <trkpt lat="40.643100000000004" lon="-2.5298700000000003">
        <time>2021-06-19T09:21:56+0000</time>
      </trkpt>
      <trkpt lat="40.642990000000005" lon="-2.52972">
        <time>2021-06-19T09:21:57+0000</time>
      </trkpt>
      <trkpt lat="40.642880000000005" lon="-2.5295400000000003">
        <time>2021-06-19T09:21:58+0000</time>
      </trkpt>
      <trkpt lat="40.642790000000005" lon="-2.52936">
        <time>2021-06-19T09:21:59+0000</time>
      </trkpt>
      <trkpt lat="40.64269" lon="-2.52915">
        <time>2021-06-19T09:22:00+0000</time>
      </trkpt>
      <trkpt lat="40.642610000000005" lon="-2.52891">
        <time>2021-06-19T09:22:01+0000</time>
      </trkpt>
      <trkpt lat="40.64253" lon="-2.5286600000000004">
        <time>2021-06-19T09:22:02+0000</time>
      </trkpt>
      <trkpt lat="40.64249" lon="-2.52843">
        <time>2021-06-19T09:22:03+0000</time>
      </trkpt>
      <trkpt lat="40.64246" lon="-2.5281900000000004">
        <time>2021-06-19T09:22:04+0000</time>
      </trkpt>
      <trkpt lat="40.642450000000004" lon="-2.52796">
        <time>2021-06-19T09:22:05+0000</time>
      </trkpt>
      <trkpt lat="40.64246" lon="-2.5277100000000003">
        <time>2021-06-19T09:22:06+0000</time>
      </trkpt>
      <trkpt lat="40.642500000000005" lon="-2.52746">
        <time>2021-06-19T09:22:07+0000</time>
      </trkpt>
      <trkpt lat="40.64253" lon="-2.5272200000000002">
        <time>2021-06-19T09:22:08+0000</time>
      </trkpt>
      <trkpt lat="40.64255" lon="-2.52699">
        <time>2021-06-19T09:22:09+0000</time>
      </trkpt>
      <trkpt lat="40.642570000000006" lon="-2.5267700000000004">
        <time>2021-06-19T09:22:10+0000</time>
      </trkpt>
      <trkpt lat="40.642570000000006" lon="-2.5265500000000003">
        <time>2021-06-19T09:22:11+0000</time>
      </trkpt>
      <trkpt lat="40.64253" lon="-2.5263400000000003">
        <time>2021-06-19T09:22:12+0000</time>
      </trkpt>
      <trkpt lat="40.64247" lon="-2.52612">
        <time>2021-06-19T09:22:13+0000</time>
      </trkpt>
      <trkpt lat="40.642390000000006" lon="-2.52591">
        <time>2021-06-19T09:22:14+0000</time>
      </trkpt>
      <trkpt lat="40.64228000000001" lon="-2.52572">
        <time>2021-06-19T09:22:15+0000</time>
      </trkpt>
      <trkpt lat="40.64217" lon="-2.5255400000000003">
        <time>2021-06-19T09:22:16+0000</time>
      </trkpt>
      <trkpt lat="40.64206" lon="-2.52538">
        <time>2021-06-19T09:22:17+0000</time>
      </trkpt>
      <trkpt lat="40.641960000000005" lon="-2.52522">
        <time>2021-06-19T09:22:18+0000</time>
      </trkpt>
      <trkpt lat="40.641890000000004" lon="-2.5250500000000002">
        <time>2021-06-19T09:22:19+0000</time>
      </trkpt>
      <trkpt lat="40.641850000000005" lon="-2.5248600000000003">
        <time>2021-06-19T09:22:20+0000</time>
      </trkpt>
      <trkpt lat="40.641830000000006" lon="-2.5246600000000003">
        <time>2021-06-19T09:22:21+0000</time>
      </trkpt>
      <trkpt lat="40.641830000000006" lon="-2.52443">
        <time>2021-06-19T09:22:22+0000</time>
      </trkpt>
      <trkpt lat="40.641850000000005" lon="-2.5242">
        <time>2021-06-19T09:22:23+0000</time>
      </trkpt>
      <trkpt lat="40.64188" lon="-2.5239700000000003">
        <time>2021-06-19T09:22:24+0000</time>
      </trkpt>
      <trkpt lat="40.64190000000001" lon="-2.52375">
        <time>2021-06-19T09:22:25+0000</time>
      </trkpt>
      <trkpt lat="40.64191" lon="-2.52355">
        <time>2021-06-19T09:22:26+0000</time>
      </trkpt>
      <trkpt lat="40.64191" lon="-2.5233800000000004">
        <time>2021-06-19T09:22:27+0000</time>
      </trkpt>
      <trkpt lat="40.64190000000001" lon="-2.52321">
        <time>2021-06-19T09:22:28+0000</time>
      </trkpt>
      <trkpt lat="40.64186" lon="-2.52306">
        <time>2021-06-19T09:22:29+0000</time>
      </trkpt>
      <trkpt lat="40.641780000000004" lon="-2.52292">
        <time>2021-06-19T09:22:30+0000</time>
      </trkpt>
      <trkpt lat="40.64166" lon="-2.5228">
        <time>2021-06-19T09:22:31+0000</time>
      </trkpt>
      <trkpt lat="40.641510000000004" lon="-2.5227000000000004">
        <time>2021-06-19T09:22:32+0000</time>
      </trkpt>
      <trkpt lat="40.641360000000006" lon="-2.52258">
        <time>2021-06-19T09:22:33+0000</time>
      </trkpt>
      <trkpt lat="40.64119" lon="-2.52246">
        <time>2021-06-19T09:22:34+0000</time>
      </trkpt>
      <trkpt lat="40.64101" lon="-2.52233">
        <time>2021-06-19T09:22:35+0000</time>
      </trkpt>
      <trkpt lat="40.64083" lon="-2.5222">
        <time>2021-06-19T09:22:36+0000</time>
      </trkpt>
      <trkpt lat="40.640640000000005" lon="-2.5220800000000003">
        <time>2021-06-19T09:22:37+0000</time>
      </trkpt>
      <trkpt lat="40.64047" lon="-2.5219500000000004">
        <time>2021-06-19T09:22:38+0000</time>
      </trkpt>
      <trkpt lat="40.64029" lon="-2.52183">
        <time>2021-06-19T09:22:39+0000</time>
      </trkpt>
      <trkpt lat="40.64012" lon="-2.5217">
        <time>2021-06-19T09:22:40+0000</time>
      </trkpt>
      <trkpt lat="40.63994" lon="-2.52157">
        <time>2021-06-19T09:22:41+0000</time>
      </trkpt>
      <trkpt lat="40.63976" lon="-2.52144">
        <time>2021-06-19T09:22:42+0000</time>
      </trkpt>
      <trkpt lat="40.639590000000005" lon="-2.5213300000000003">
        <time>2021-06-19T09:22:43+0000</time>
      </trkpt>
      <trkpt lat="40.639410000000005" lon="-2.5212000000000003">
        <time>2021-06-19T09:22:44+0000</time>
      </trkpt>
      <trkpt lat="40.63924" lon="-2.52108">
        <time>2021-06-19T09:22:45+0000</time>
      </trkpt>
      <trkpt lat="40.639070000000004" lon="-2.52095">
        <time>2021-06-19T09:22:46+0000</time>
      </trkpt>
      <trkpt lat="40.63888" lon="-2.52083">
        <time>2021-06-19T09:22:47+0000</time>
      </trkpt>
      <trkpt lat="40.6387" lon="-2.5207100000000002">
        <time>2021-06-19T09:22:48+0000</time>
      </trkpt>
      <trkpt lat="40.63852000000001" lon="-2.5205800000000003">
        <time>2021-06-19T09:22:49+0000</time>
      </trkpt>
      <trkpt lat="40.63833" lon="-2.5204600000000004">
        <time>2021-06-19T09:22:50+0000</time>
      </trkpt>
      <trkpt lat="40.63815" lon="-2.5203200000000003">
        <time>2021-06-19T09:22:51+0000</time>
      </trkpt>
      <trkpt lat="40.637980000000006" lon="-2.5202">
        <time>2021-06-19T09:22:52+0000</time>
      </trkpt>
      <trkpt lat="40.63781" lon="-2.52008">
        <time>2021-06-19T09:22:53+0000</time>
      </trkpt>
      <trkpt lat="40.63765" lon="-2.5199700000000003">
        <time>2021-06-19T09:22:54+0000</time>
      </trkpt>
      <trkpt lat="40.63749000000001" lon="-2.51986">
        <time>2021-06-19T09:22:55+0000</time>
      </trkpt>
      <trkpt lat="40.637330000000006" lon="-2.51976">
        <time>2021-06-19T09:22:56+0000</time>
      </trkpt>
      <trkpt lat="40.63718" lon="-2.51966">
        <time>2021-06-19T09:22:57+0000</time>
      </trkpt>
      <trkpt lat="40.63703" lon="-2.51955">
        <time>2021-06-19T09:22:58+0000</time>
      </trkpt>
      <trkpt lat="40.636880000000005" lon="-2.5194500000000004">
        <time>2021-06-19T09:22:59+0000</time>
      </trkpt>
      <trkpt lat="40.63674" lon="-2.51935">
        <time>2021-06-19T09:23:00+0000</time>
      </trkpt>
      <trkpt lat="40.6366" lon="-2.5192400000000004">
        <time>2021-06-19T09:23:01+0000</time>
      </trkpt>
      <trkpt lat="40.63646000000001" lon="-2.51913">
        <time>2021-06-19T09:23:02+0000</time>
      </trkpt>
      <trkpt lat="40.63631" lon="-2.5190200000000003">
        <time>2021-06-19T09:23:03+0000</time>
      </trkpt>
      <trkpt lat="40.63618" lon="-2.5189100000000004">
        <time>2021-06-19T09:23:04+0000</time>
      </trkpt>
      <trkpt lat="40.63602" lon="-2.5188">
        <time>2021-06-19T09:23:05+0000</time>
      </trkpt>
      <trkpt lat="40.63586" lon="-2.5186900000000003">
        <time>2021-06-19T09:23:06+0000</time>
      </trkpt>
      <trkpt lat="40.6357" lon="-2.51858">
        <time>2021-06-19T09:23:07+0000</time>
      </trkpt>
      <trkpt lat="40.63553" lon="-2.51845">
        <time>2021-06-19T09:23:08+0000</time>
      </trkpt>
      <trkpt lat="40.63535" lon="-2.51833">
        <time>2021-06-19T09:23:09+0000</time>
      </trkpt>
      <trkpt lat="40.635160000000006" lon="-2.5182100000000003">
        <time>2021-06-19T09:23:10+0000</time>
      </trkpt>
      <trkpt lat="40.63496000000001" lon="-2.5180800000000003">
        <time>2021-06-19T09:23:11+0000</time>
      </trkpt>
      <trkpt lat="40.63476" lon="-2.51797">
        <time>2021-06-19T09:23:12+0000</time>
      </trkpt>
      <trkpt lat="40.634550000000004" lon="-2.5178800000000003">
        <time>2021-06-19T09:23:13+0000</time>
      </trkpt>
      <trkpt lat="40.63434" lon="-2.5178100000000003">
        <time>2021-06-19T09:23:14+0000</time>
      </trkpt>
      <trkpt lat="40.634130000000006" lon="-2.51777">
        <time>2021-06-19T09:23:15+0000</time>
      </trkpt>
      <trkpt lat="40.63392" lon="-2.5177400000000003">
        <time>2021-06-19T09:23:16+0000</time>
      </trkpt>
      <trkpt lat="40.633720000000004" lon="-2.51772">
        <time>2021-06-19T09:23:17+0000</time>
      </trkpt>
      <trkpt lat="40.63351" lon="-2.5176900000000004">
        <time>2021-06-19T09:23:18+0000</time>
      </trkpt>
      <trkpt lat="40.633300000000006" lon="-2.5176600000000002">
        <time>2021-06-19T09:23:19+0000</time>
      </trkpt>
      <trkpt lat="40.633100000000006" lon="-2.51764">
        <time>2021-06-19T09:23:20+0000</time>
      </trkpt>
      <trkpt lat="40.63291" lon="-2.5176100000000003">
        <time>2021-06-19T09:23:21+0000</time>
      </trkpt>
      <trkpt lat="40.63273" lon="-2.5175500000000004">
        <time>2021-06-19T09:23:22+0000</time>
      </trkpt>
      <trkpt lat="40.632560000000005" lon="-2.5174800000000004">
        <time>2021-06-19T09:23:23+0000</time>
      </trkpt>
      <trkpt lat="40.632400000000004" lon="-2.5174000000000003">
        <time>2021-06-19T09:23:24+0000</time>
      </trkpt>
      <trkpt lat="40.63226" lon="-2.51731">
        <time>2021-06-19T09:23:25+0000</time>
      </trkpt>
      <trkpt lat="40.632130000000004" lon="-2.5172000000000003">
        <time>2021-06-19T09:23:26+0000</time>
      </trkpt>
      <trkpt lat="40.632020000000004" lon="-2.5170700000000004">
        <time>2021-06-19T09:23:27+0000</time>
      </trkpt>
      <trkpt lat="40.631910000000005" lon="-2.5169300000000003">
        <time>2021-06-19T09:23:28+0000</time>
      </trkpt>
      <trkpt lat="40.63181" lon="-2.5167800000000002">
        <time>2021-06-19T09:23:29+0000</time>
      </trkpt>
      <trkpt lat="40.631710000000005" lon="-2.51663">
        <time>2021-06-19T09:23:30+0000</time>
      </trkpt>
      <trkpt lat="40.63161" lon="-2.51647">
        <time>2021-06-19T09:23:31+0000</time>
      </trkpt>
      <trkpt lat="40.63152" lon="-2.5163200000000003">
        <time>2021-06-19T09:23:32+0000</time>
      </trkpt>
      <trkpt lat="40.63143" lon="-2.5161800000000003">
        <time>2021-06-19T09:23:33+0000</time>
      </trkpt>
      <trkpt lat="40.63134" lon="-2.5160500000000003">
        <time>2021-06-19T09:23:34+0000</time>
      </trkpt>
      <trkpt lat="40.63125" lon="-2.5159100000000003">
        <time>2021-06-19T09:23:35+0000</time>
      </trkpt>
      <trkpt lat="40.63116" lon="-2.51576">
        <time>2021-06-19T09:23:36+0000</time>
      </trkpt>
      <trkpt lat="40.63109" lon="-2.51561">
        <time>2021-06-19T09:23:37+0000</time>
      </trkpt>
      <trkpt lat="40.63103" lon="-2.51546">
        <time>2021-06-19T09:23:38+0000</time>
      </trkpt>
      <trkpt lat="40.63098" lon="-2.51528">
        <time>2021-06-19T09:23:39+0000</time>
      </trkpt>
      <trkpt lat="40.630930000000006" lon="-2.5150900000000003">
        <time>2021-06-19T09:23:40+0000</time>
      </trkpt>
      <trkpt lat="40.630900000000004" lon="-2.5149000000000004">
        <time>2021-06-19T09:23:41+0000</time>
      </trkpt>
      <trkpt lat="40.630860000000006" lon="-2.51471">
        <time>2021-06-19T09:23:42+0000</time>
      </trkpt>
      <trkpt lat="40.630840000000006" lon="-2.51452">
        <time>2021-06-19T09:23:43+0000</time>
      </trkpt>
      <trkpt lat="40.63083" lon="-2.5143400000000002">
        <time>2021-06-19T09:23:44+0000</time>
      </trkpt>
      <trkpt lat="40.630840000000006" lon="-2.5141500000000003">
        <time>2021-06-19T09:23:45+0000</time>
      </trkpt>
      <trkpt lat="40.630880000000005" lon="-2.5139500000000004">
        <time>2021-06-19T09:23:46+0000</time>
      </trkpt>
      <trkpt lat="40.630950000000006" lon="-2.5137500000000004">
        <time>2021-06-19T09:23:47+0000</time>
      </trkpt>
      <trkpt lat="40.63102000000001" lon="-2.5135400000000003">
        <time>2021-06-19T09:23:48+0000</time>
      </trkpt>
      <trkpt lat="40.63111000000001" lon="-2.5133400000000004">
        <time>2021-06-19T09:23:49+0000</time>
      </trkpt>
      <trkpt lat="40.63120000000001" lon="-2.5131200000000002">
        <time>2021-06-19T09:23:50+0000</time>
      </trkpt>
      <trkpt lat="40.63129" lon="-2.51291">
        <time>2021-06-19T09:23:51+0000</time>
      </trkpt>
      <trkpt lat="40.631370000000004" lon="-2.51268">
        <time>2021-06-19T09:23:52+0000</time>
      </trkpt>
      <trkpt lat="40.63145" lon="-2.5124500000000003">
        <time>2021-06-19T09:23:53+0000</time>
      </trkpt>
      <trkpt lat="40.63154" lon="-2.51223">
        <time>2021-06-19T09:23:54+0000</time>
      </trkpt>
      <trkpt lat="40.63167000000001" lon="-2.5120400000000003">
        <time>2021-06-19T09:23:55+0000</time>
      </trkpt>
      <trkpt lat="40.63181" lon="-2.5118600000000004">
        <time>2021-06-19T09:23:56+0000</time>
      </trkpt>
      <trkpt lat="40.63195" lon="-2.5117000000000003">
        <time>2021-06-19T09:23:57+0000</time>
      </trkpt>
      <trkpt lat="40.6321" lon="-2.51154">
        <time>2021-06-19T09:23:58+0000</time>
      </trkpt>
      <trkpt lat="40.63224" lon="-2.5113600000000003">
        <time>2021-06-19T09:23:59+0000</time>
      </trkpt>
      <trkpt lat="40.632360000000006" lon="-2.5111600000000003">
        <time>2021-06-19T09:24:00+0000</time>
      </trkpt>
      <trkpt lat="40.63244" lon="-2.51092">
        <time>2021-06-19T09:24:01+0000</time>
      </trkpt>
      <trkpt lat="40.6325" lon="-2.51067">
        <time>2021-06-19T09:24:02+0000</time>
      </trkpt>
      <trkpt lat="40.63251" lon="-2.5104100000000003">
        <time>2021-06-19T09:24:03+0000</time>
      </trkpt>
      <trkpt lat="40.6325" lon="-2.5101500000000003">
        <time>2021-06-19T09:24:04+0000</time>
      </trkpt>
      <trkpt lat="40.63248" lon="-2.5098900000000004">
        <time>2021-06-19T09:24:05+0000</time>
      </trkpt>
      <trkpt lat="40.63246" lon="-2.5096200000000004">
        <time>2021-06-19T09:24:06+0000</time>
      </trkpt>
      <trkpt lat="40.63244" lon="-2.50937">
        <time>2021-06-19T09:24:07+0000</time>
      </trkpt>
      <trkpt lat="40.632470000000005" lon="-2.50911">
        <time>2021-06-19T09:24:08+0000</time>
      </trkpt>
      <trkpt lat="40.63252000000001" lon="-2.5088700000000004">
        <time>2021-06-19T09:24:09+0000</time>
      </trkpt>
      <trkpt lat="40.63261000000001" lon="-2.5086500000000003">
        <time>2021-06-19T09:24:10+0000</time>
      </trkpt>
      <trkpt lat="40.63273" lon="-2.5084400000000002">
        <time>2021-06-19T09:24:11+0000</time>
      </trkpt>
      <trkpt lat="40.632870000000004" lon="-2.50827">
        <time>2021-06-19T09:24:12+0000</time>
      </trkpt>
      <trkpt lat="40.633030000000005" lon="-2.5081300000000004">
        <time>2021-06-19T09:24:13+0000</time>
      </trkpt>
      <trkpt lat="40.633210000000005" lon="-2.50803">
        <time>2021-06-19T09:24:14+0000</time>
      </trkpt>
      <trkpt lat="40.633370000000006" lon="-2.50796">
        <time>2021-06-19T09:24:15+0000</time>
      </trkpt>
      <trkpt lat="40.63353" lon="-2.5079000000000002">
        <time>2021-06-19T09:24:16+0000</time>
      </trkpt>
      <trkpt lat="40.633660000000006" lon="-2.5078500000000004">
        <time>2021-06-19T09:24:17+0000</time>
      </trkpt>
      <trkpt lat="40.63378" lon="-2.50776">
        <time>2021-06-19T09:24:18+0000</time>
      </trkpt>
      <trkpt lat="40.63387" lon="-2.5076300000000002">
        <time>2021-06-19T09:24:19+0000</time>
      </trkpt>
      <trkpt lat="40.633950000000006" lon="-2.50746">
        <time>2021-06-19T09:24:20+0000</time>
      </trkpt>
      <trkpt lat="40.63401" lon="-2.50727">
        <time>2021-06-19T09:24:21+0000</time>
      </trkpt>
      <trkpt lat="40.63403" lon="-2.50708">
        <time>2021-06-19T09:24:22+0000</time>
      </trkpt>
      <trkpt lat="40.634040000000006" lon="-2.50688">
        <time>2021-06-19T09:24:23+0000</time>
      </trkpt>
      <trkpt lat="40.63403" lon="-2.5066900000000003">
        <time>2021-06-19T09:24:24+0000</time>
      </trkpt>
      <trkpt lat="40.63403" lon="-2.50652">
        <time>2021-06-19T09:24:25+0000</time>
      </trkpt>
      <trkpt lat="40.63403" lon="-2.5063600000000004">
        <time>2021-06-19T09:24:26+0000</time>
      </trkpt>
      <trkpt lat="40.63405" lon="-2.5062100000000003">
        <time>2021-06-19T09:24:27+0000</time>
      </trkpt>
      <trkpt lat="40.63409" lon="-2.50606">
        <time>2021-06-19T09:24:28+0000</time>
      </trkpt>
      <trkpt lat="40.634130000000006" lon="-2.5059">
        <time>2021-06-19T09:24:29+0000</time>
      </trkpt>
      <trkpt lat="40.634190000000004" lon="-2.5057500000000004">
        <time>2021-06-19T09:24:30+0000</time>
      </trkpt>
      <trkpt lat="40.63425" lon="-2.5056000000000003">
        <time>2021-06-19T09:24:31+0000</time>
      </trkpt>
      <trkpt lat="40.63432" lon="-2.50543">
        <time>2021-06-19T09:24:32+0000</time>
      </trkpt>
      <trkpt lat="40.63439" lon="-2.5052600000000003">
        <time>2021-06-19T09:24:33+0000</time>
      </trkpt>
      <trkpt lat="40.634440000000005" lon="-2.50509">
        <time>2021-06-19T09:24:34+0000</time>
      </trkpt>
      <trkpt lat="40.63447" lon="-2.50491">
        <time>2021-06-19T09:24:35+0000</time>
      </trkpt>
      <trkpt lat="40.63448" lon="-2.5047200000000003">
        <time>2021-06-19T09:24:36+0000</time>
      </trkpt>
      <trkpt lat="40.634460000000004" lon="-2.5045200000000003">
        <time>2021-06-19T09:24:37+0000</time>
      </trkpt>
      <trkpt lat="40.63441" lon="-2.5043">
        <time>2021-06-19T09:24:38+0000</time>
      </trkpt>
      <trkpt lat="40.63434" lon="-2.50407">
        <time>2021-06-19T09:24:39+0000</time>
      </trkpt>
      <trkpt lat="40.63425" lon="-2.5038300000000002">
        <time>2021-06-19T09:24:40+0000</time>
      </trkpt>
      <trkpt lat="40.634170000000005" lon="-2.5036">
        <time>2021-06-19T09:24:41+0000</time>
      </trkpt>
      <trkpt lat="40.634080000000004" lon="-2.50335">
        <time>2021-06-19T09:24:42+0000</time>
      </trkpt>
      <trkpt lat="40.63398" lon="-2.5031000000000003">
        <time>2021-06-19T09:24:43+0000</time>
      </trkpt>
      <trkpt lat="40.63387" lon="-2.5028400000000004">
        <time>2021-06-19T09:24:44+0000</time>
      </trkpt>
      <trkpt lat="40.63376" lon="-2.5025700000000004">
        <time>2021-06-19T09:24:45+0000</time>
      </trkpt>
      <trkpt lat="40.63364000000001" lon="-2.50232">
        <time>2021-06-19T09:24:46+0000</time>
      </trkpt>
      <trkpt lat="40.63353" lon="-2.5020700000000002">
        <time>2021-06-19T09:24:47+0000</time>
      </trkpt>
      <trkpt lat="40.63342" lon="-2.50184">
        <time>2021-06-19T09:24:48+0000</time>
      </trkpt>
      <trkpt lat="40.633320000000005" lon="-2.5016000000000003">
        <time>2021-06-19T09:24:49+0000</time>
      </trkpt>
      <trkpt lat="40.633250000000004" lon="-2.5013500000000004">
        <time>2021-06-19T09:24:50+0000</time>
      </trkpt>
      <trkpt lat="40.6332" lon="-2.5010800000000004">
        <time>2021-06-19T09:24:51+0000</time>
      </trkpt>
      <trkpt lat="40.63315" lon="-2.50082">
        <time>2021-06-19T09:24:52+0000</time>
      </trkpt>
      <trkpt lat="40.63311" lon="-2.50055">
        <time>2021-06-19T09:24:53+0000</time>
      </trkpt>
      <trkpt lat="40.633070000000004" lon="-2.50028">
        <time>2021-06-19T09:24:54+0000</time>
      </trkpt>
      <trkpt lat="40.63302" lon="-2.50001">
        <time>2021-06-19T09:24:55+0000</time>
      </trkpt>
      <trkpt lat="40.63293" lon="-2.49974">
        <time>2021-06-19T09:24:56+0000</time>
      </trkpt>
      <trkpt lat="40.632810000000006" lon="-2.4995100000000003">
        <time>2021-06-19T09:24:57+0000</time>
      </trkpt>
      <trkpt lat="40.632670000000005" lon="-2.4992900000000002">
        <time>2021-06-19T09:24:58+0000</time>
      </trkpt>
      <trkpt lat="40.63251" lon="-2.4991000000000003">
        <time>2021-06-19T09:24:59+0000</time>
      </trkpt>
      <trkpt lat="40.63235" lon="-2.49894">
        <time>2021-06-19T09:25:00+0000</time>
      </trkpt>
      <trkpt lat="40.632200000000005" lon="-2.4987700000000004">
        <time>2021-06-19T09:25:01+0000</time>
      </trkpt>
      <trkpt lat="40.632070000000006" lon="-2.49861">
        <time>2021-06-19T09:25:02+0000</time>
      </trkpt>
      <trkpt lat="40.63196000000001" lon="-2.49847">
        <time>2021-06-19T09:25:03+0000</time>
      </trkpt>
      <trkpt lat="40.631840000000004" lon="-2.4983500000000003">
        <time>2021-06-19T09:25:04+0000</time>
      </trkpt>
      <trkpt lat="40.631730000000005" lon="-2.4982300000000004">
        <time>2021-06-19T09:25:05+0000</time>
      </trkpt>
      <trkpt lat="40.631620000000005" lon="-2.49812">
        <time>2021-06-19T09:25:06+0000</time>
      </trkpt>
      <trkpt lat="40.63152" lon="-2.4980200000000004">
        <time>2021-06-19T09:25:07+0000</time>
      </trkpt>
      <trkpt lat="40.63143" lon="-2.49792">
        <time>2021-06-19T09:25:08+0000</time>
      </trkpt>
      <trkpt lat="40.631350000000005" lon="-2.4978100000000003">
        <time>2021-06-19T09:25:09+0000</time>
      </trkpt>
      <trkpt lat="40.63125" lon="-2.4976900000000004">
        <time>2021-06-19T09:25:10+0000</time>
      </trkpt>
      <trkpt lat="40.63116" lon="-2.49756">
        <time>2021-06-19T09:25:11+0000</time>
      </trkpt>
      <trkpt lat="40.631080000000004" lon="-2.4974200000000004">
        <time>2021-06-19T09:25:12+0000</time>
      </trkpt>
      <trkpt lat="40.63101" lon="-2.49725">
        <time>2021-06-19T09:25:13+0000</time>
      </trkpt>
      <trkpt lat="40.63096" lon="-2.4970600000000003">
        <time>2021-06-19T09:25:14+0000</time>
      </trkpt>
      <trkpt lat="40.630950000000006" lon="-2.4968600000000003">
        <time>2021-06-19T09:25:15+0000</time>
      </trkpt>
      <trkpt lat="40.630970000000005" lon="-2.4966500000000003">
        <time>2021-06-19T09:25:16+0000</time>
      </trkpt>
      <trkpt lat="40.631" lon="-2.49644">
        <time>2021-06-19T09:25:17+0000</time>
      </trkpt>
      <trkpt lat="40.631040000000006" lon="-2.49623">
        <time>2021-06-19T09:25:18+0000</time>
      </trkpt>
      <trkpt lat="40.63107" lon="-2.49603">
        <time>2021-06-19T09:25:19+0000</time>
      </trkpt>
      <trkpt lat="40.63111000000001" lon="-2.49583">
        <time>2021-06-19T09:25:20+0000</time>
      </trkpt>
      <trkpt lat="40.63116" lon="-2.4956300000000002">
        <time>2021-06-19T09:25:21+0000</time>
      </trkpt>
      <trkpt lat="40.631190000000004" lon="-2.49542">
        <time>2021-06-19T09:25:22+0000</time>
      </trkpt>
      <trkpt lat="40.631220000000006" lon="-2.49521">
        <time>2021-06-19T09:25:23+0000</time>
      </trkpt>
      <trkpt lat="40.63125" lon="-2.49499">
        <time>2021-06-19T09:25:24+0000</time>
      </trkpt>
      <trkpt lat="40.631280000000004" lon="-2.4947500000000002">
        <time>2021-06-19T09:25:25+0000</time>
      </trkpt>
      <trkpt lat="40.63132" lon="-2.49451">
        <time>2021-06-19T09:25:26+0000</time>
      </trkpt>
      <trkpt lat="40.63134" lon="-2.4942800000000003">
        <time>2021-06-19T09:25:27+0000</time>
      </trkpt>
      <trkpt lat="40.631370000000004" lon="-2.49405">
        <time>2021-06-19T09:25:28+0000</time>
      </trkpt>
      <trkpt lat="40.631400000000006" lon="-2.4938100000000003">
        <time>2021-06-19T09:25:29+0000</time>
      </trkpt>
      <trkpt lat="40.63143" lon="-2.49357">
        <time>2021-06-19T09:25:30+0000</time>
      </trkpt>
      <trkpt lat="40.631440000000005" lon="-2.49332">
        <time>2021-06-19T09:25:31+0000</time>
      </trkpt>
      <trkpt lat="40.631440000000005" lon="-2.4930700000000003">
        <time>2021-06-19T09:25:32+0000</time>
      </trkpt>
      <trkpt lat="40.631420000000006" lon="-2.4928100000000004">
        <time>2021-06-19T09:25:33+0000</time>
      </trkpt>
      <trkpt lat="40.631370000000004" lon="-2.49255">
        <time>2021-06-19T09:25:34+0000</time>
      </trkpt>
      <trkpt lat="40.631310000000006" lon="-2.4923">
        <time>2021-06-19T09:25:35+0000</time>
      </trkpt>
      <trkpt lat="40.63123" lon="-2.4920400000000003">
        <time>2021-06-19T09:25:36+0000</time>
      </trkpt>
      <trkpt lat="40.63114" lon="-2.4917800000000003">
        <time>2021-06-19T09:25:37+0000</time>
      </trkpt>
      <trkpt lat="40.631060000000005" lon="-2.49154">
        <time>2021-06-19T09:25:38+0000</time>
      </trkpt>
      <trkpt lat="40.63098" lon="-2.4913100000000004">
        <time>2021-06-19T09:25:39+0000</time>
      </trkpt>
      <trkpt lat="40.63091" lon="-2.49107">
        <time>2021-06-19T09:25:40+0000</time>
      </trkpt>
      <trkpt lat="40.63083" lon="-2.4908400000000004">
        <time>2021-06-19T09:25:41+0000</time>
      </trkpt>
      <trkpt lat="40.630750000000006" lon="-2.49061">
        <time>2021-06-19T09:25:42+0000</time>
      </trkpt>
      <trkpt lat="40.63067" lon="-2.4903600000000004">
        <time>2021-06-19T09:25:43+0000</time>
      </trkpt>
      <trkpt lat="40.63058" lon="-2.49012">
        <time>2021-06-19T09:25:44+0000</time>
      </trkpt>
      <trkpt lat="40.63049" lon="-2.4898700000000002">
        <time>2021-06-19T09:25:45+0000</time>
      </trkpt>
      <trkpt lat="40.630410000000005" lon="-2.4896200000000004">
        <time>2021-06-19T09:25:46+0000</time>
      </trkpt>
      <trkpt lat="40.630320000000005" lon="-2.48938">
        <time>2021-06-19T09:25:47+0000</time>
      </trkpt>
      <trkpt lat="40.630230000000005" lon="-2.4891300000000003">
        <time>2021-06-19T09:25:48+0000</time>
      </trkpt>
      <trkpt lat="40.63015" lon="-2.4888800000000004">
        <time>2021-06-19T09:25:49+0000</time>
      </trkpt>
      <trkpt lat="40.63007" lon="-2.48864">
        <time>2021-06-19T09:25:50+0000</time>
      </trkpt>
      <trkpt lat="40.62998" lon="-2.48842">
        <time>2021-06-19T09:25:51+0000</time>
      </trkpt>
      <trkpt lat="40.629900000000006" lon="-2.4882000000000004">
        <time>2021-06-19T09:25:52+0000</time>
      </trkpt>
      <trkpt lat="40.629810000000006" lon="-2.488">
        <time>2021-06-19T09:25:53+0000</time>
      </trkpt>
      <trkpt lat="40.62970000000001" lon="-2.48781">
        <time>2021-06-19T09:25:54+0000</time>
      </trkpt>
      <trkpt lat="40.62959" lon="-2.48762">
        <time>2021-06-19T09:25:55+0000</time>
      </trkpt>
      <trkpt lat="40.629470000000005" lon="-2.4874500000000004">
        <time>2021-06-19T09:25:56+0000</time>
      </trkpt>
      <trkpt lat="40.629340000000006" lon="-2.48727">
        <time>2021-06-19T09:25:57+0000</time>
      </trkpt>
      <trkpt lat="40.62921" lon="-2.48708">
        <time>2021-06-19T09:25:58+0000</time>
      </trkpt>
      <trkpt lat="40.62908" lon="-2.4868900000000003">
        <time>2021-06-19T09:25:59+0000</time>
      </trkpt>
      <trkpt lat="40.62895" lon="-2.4867100000000004">
        <time>2021-06-19T09:26:00+0000</time>
      </trkpt>
      <trkpt lat="40.628820000000005" lon="-2.48653">
        <time>2021-06-19T09:26:01+0000</time>
      </trkpt>
      <trkpt lat="40.6287" lon="-2.4863500000000003">
        <time>2021-06-19T09:26:02+0000</time>
      </trkpt>
      <trkpt lat="40.62857" lon="-2.4862">
        <time>2021-06-19T09:26:03+0000</time>
      </trkpt>
      <trkpt lat="40.62843" lon="-2.48606">
        <time>2021-06-19T09:26:04+0000</time>
      </trkpt>
      <trkpt lat="40.628280000000004" lon="-2.4859500000000003">
        <time>2021-06-19T09:26:05+0000</time>
      </trkpt>
      <trkpt lat="40.62811000000001" lon="-2.48584">
        <time>2021-06-19T09:26:06+0000</time>
      </trkpt>
      <trkpt lat="40.62794" lon="-2.4857500000000003">
        <time>2021-06-19T09:26:07+0000</time>
      </trkpt>
      <trkpt lat="40.62776" lon="-2.48566">
        <time>2021-06-19T09:26:08+0000</time>
      </trkpt>
      <trkpt lat="40.627590000000005" lon="-2.4855500000000004">
        <time>2021-06-19T09:26:09+0000</time>
      </trkpt>
      <trkpt lat="40.627410000000005" lon="-2.48543">
        <time>2021-06-19T09:26:10+0000</time>
      </trkpt>
      <trkpt lat="40.627250000000004" lon="-2.4852700000000003">
        <time>2021-06-19T09:26:11+0000</time>
      </trkpt>
      <trkpt lat="40.62708000000001" lon="-2.4851">
        <time>2021-06-19T09:26:12+0000</time>
      </trkpt>
      <trkpt lat="40.62693" lon="-2.4849200000000002">
        <time>2021-06-19T09:26:13+0000</time>
      </trkpt>
      <trkpt lat="40.626780000000004" lon="-2.4847400000000004">
        <time>2021-06-19T09:26:14+0000</time>
      </trkpt>
      <trkpt lat="40.626650000000005" lon="-2.48455">
        <time>2021-06-19T09:26:15+0000</time>
      </trkpt>
      <trkpt lat="40.62653" lon="-2.48437">
        <time>2021-06-19T09:26:16+0000</time>
      </trkpt>
      <trkpt lat="40.62642" lon="-2.4842000000000004">
        <time>2021-06-19T09:26:17+0000</time>
      </trkpt>
      <trkpt lat="40.62633" lon="-2.48402">
        <time>2021-06-19T09:26:18+0000</time>
      </trkpt>
      <trkpt lat="40.626250000000006" lon="-2.4838400000000003">
        <time>2021-06-19T09:26:19+0000</time>
      </trkpt>
      <trkpt lat="40.62619" lon="-2.4836600000000004">
        <time>2021-06-19T09:26:20+0000</time>
      </trkpt>
      <trkpt lat="40.62614000000001" lon="-2.48347">
        <time>2021-06-19T09:26:21+0000</time>
      </trkpt>
      <trkpt lat="40.6261" lon="-2.48328">
        <time>2021-06-19T09:26:22+0000</time>
      </trkpt>
      <trkpt lat="40.62606" lon="-2.48308">
        <time>2021-06-19T09:26:23+0000</time>
      </trkpt>
      <trkpt lat="40.62603" lon="-2.48288">
        <time>2021-06-19T09:26:24+0000</time>
      </trkpt>
      <trkpt lat="40.62603" lon="-2.48267">
        <time>2021-06-19T09:26:25+0000</time>
      </trkpt>
      <trkpt lat="40.62604" lon="-2.48246">
        <time>2021-06-19T09:26:26+0000</time>
      </trkpt>
      <trkpt lat="40.62606" lon="-2.48224">
        <time>2021-06-19T09:26:27+0000</time>
      </trkpt>
      <trkpt lat="40.626110000000004" lon="-2.4820300000000004">
        <time>2021-06-19T09:26:28+0000</time>
      </trkpt>
      <trkpt lat="40.626160000000006" lon="-2.4818300000000004">
        <time>2021-06-19T09:26:29+0000</time>
      </trkpt>
      <trkpt lat="40.62619" lon="-2.4816200000000004">
        <time>2021-06-19T09:26:30+0000</time>
      </trkpt>
      <trkpt lat="40.62621" lon="-2.4814200000000004">
        <time>2021-06-19T09:26:31+0000</time>
      </trkpt>
      <trkpt lat="40.62622" lon="-2.48122">
        <time>2021-06-19T09:26:32+0000</time>
      </trkpt>
      <trkpt lat="40.626200000000004" lon="-2.4810000000000003">
        <time>2021-06-19T09:26:33+0000</time>
      </trkpt>
      <trkpt lat="40.62617" lon="-2.48078">
        <time>2021-06-19T09:26:34+0000</time>
      </trkpt>
      <trkpt lat="40.62613" lon="-2.48055">
        <time>2021-06-19T09:26:35+0000</time>
      </trkpt>
      <trkpt lat="40.62608" lon="-2.4803200000000003">
        <time>2021-06-19T09:26:36+0000</time>
      </trkpt>
      <trkpt lat="40.62603" lon="-2.4801">
        <time>2021-06-19T09:26:37+0000</time>
      </trkpt>
      <trkpt lat="40.625980000000006" lon="-2.47987">
        <time>2021-06-19T09:26:38+0000</time>
      </trkpt>
      <trkpt lat="40.625910000000005" lon="-2.4796500000000004">
        <time>2021-06-19T09:26:39+0000</time>
      </trkpt>
      <trkpt lat="40.62583" lon="-2.4794400000000003">
        <time>2021-06-19T09:26:40+0000</time>
      </trkpt>
      <trkpt lat="40.62572" lon="-2.4792400000000003">
        <time>2021-06-19T09:26:41+0000</time>
      </trkpt>
      <trkpt lat="40.625600000000006" lon="-2.47906">
        <time>2021-06-19T09:26:42+0000</time>
      </trkpt>
      <trkpt lat="40.62547" lon="-2.4788900000000003">
        <time>2021-06-19T09:26:43+0000</time>
      </trkpt>
      <trkpt lat="40.62534" lon="-2.47872">
        <time>2021-06-19T09:26:44+0000</time>
      </trkpt>
      <trkpt lat="40.62520000000001" lon="-2.47854">
        <time>2021-06-19T09:26:45+0000</time>
      </trkpt>
      <trkpt lat="40.62505" lon="-2.4783700000000004">
        <time>2021-06-19T09:26:46+0000</time>
      </trkpt>
      <trkpt lat="40.624880000000005" lon="-2.4782200000000003">
        <time>2021-06-19T09:26:47+0000</time>
      </trkpt>
      <trkpt lat="40.624700000000004" lon="-2.47811">
        <time>2021-06-19T09:26:48+0000</time>
      </trkpt>
      <trkpt lat="40.624500000000005" lon="-2.47804">
        <time>2021-06-19T09:26:49+0000</time>
      </trkpt>
      <trkpt lat="40.62431" lon="-2.47799">
        <time>2021-06-19T09:26:50+0000</time>
      </trkpt>
      <trkpt lat="40.624120000000005" lon="-2.4779400000000003">
        <time>2021-06-19T09:26:51+0000</time>
      </trkpt>
      <trkpt lat="40.623940000000005" lon="-2.4778800000000003">
        <time>2021-06-19T09:26:52+0000</time>
      </trkpt>
      <trkpt lat="40.623760000000004" lon="-2.4778100000000003">
        <time>2021-06-19T09:26:53+0000</time>
      </trkpt>
      <trkpt lat="40.6236" lon="-2.47771">
        <time>2021-06-19T09:26:54+0000</time>
      </trkpt>
      <trkpt lat="40.623450000000005" lon="-2.47757">
        <time>2021-06-19T09:26:55+0000</time>
      </trkpt>
      <trkpt lat="40.62333" lon="-2.47737">
        <time>2021-06-19T09:26:56+0000</time>
      </trkpt>
      <trkpt lat="40.62324" lon="-2.4771500000000004">
        <time>2021-06-19T09:26:57+0000</time>
      </trkpt>
      <trkpt lat="40.62315" lon="-2.4769200000000002">
        <time>2021-06-19T09:26:58+0000</time>
      </trkpt>
      <trkpt lat="40.623020000000004" lon="-2.4767">
        <time>2021-06-19T09:26:59+0000</time>
      </trkpt>
      <trkpt lat="40.62285000000001" lon="-2.4765200000000003">
        <time>2021-06-19T09:27:00+0000</time>
      </trkpt>
      <trkpt lat="40.62266" lon="-2.47637">
        <time>2021-06-19T09:27:01+0000</time>
      </trkpt>
      <trkpt lat="40.62247" lon="-2.47623">
        <time>2021-06-19T09:27:02+0000</time>
      </trkpt>
      <trkpt lat="40.62229000000001" lon="-2.47609">
        <time>2021-06-19T09:27:03+0000</time>
      </trkpt>
      <trkpt lat="40.622110000000006" lon="-2.47596">
        <time>2021-06-19T09:27:04+0000</time>
      </trkpt>
      <trkpt lat="40.62194" lon="-2.4758400000000003">
        <time>2021-06-19T09:27:05+0000</time>
      </trkpt>
      <trkpt lat="40.621770000000005" lon="-2.47576">
        <time>2021-06-19T09:27:06+0000</time>
      </trkpt>
      <trkpt lat="40.6216" lon="-2.4757000000000002">
        <time>2021-06-19T09:27:07+0000</time>
      </trkpt>
      <trkpt lat="40.621430000000004" lon="-2.4756500000000004">
        <time>2021-06-19T09:27:08+0000</time>
      </trkpt>
      <trkpt lat="40.62127" lon="-2.47562">
        <time>2021-06-19T09:27:09+0000</time>
      </trkpt>
      <trkpt lat="40.62109" lon="-2.47562">
        <time>2021-06-19T09:27:10+0000</time>
      </trkpt>
      <trkpt lat="40.62091" lon="-2.4756500000000004">
        <time>2021-06-19T09:27:11+0000</time>
      </trkpt>
      <trkpt lat="40.62073" lon="-2.4757100000000003">
        <time>2021-06-19T09:27:12+0000</time>
      </trkpt>
      <trkpt lat="40.620540000000005" lon="-2.4757700000000002">
        <time>2021-06-19T09:27:13+0000</time>
      </trkpt>
      <trkpt lat="40.620360000000005" lon="-2.4758400000000003">
        <time>2021-06-19T09:27:14+0000</time>
      </trkpt>
      <trkpt lat="40.62019" lon="-2.47589">
        <time>2021-06-19T09:27:15+0000</time>
      </trkpt>
      <trkpt lat="40.62003" lon="-2.47594">
        <time>2021-06-19T09:27:16+0000</time>
      </trkpt>
      <trkpt lat="40.619870000000006" lon="-2.47595">
        <time>2021-06-19T09:27:17+0000</time>
      </trkpt>
      <trkpt lat="40.61972" lon="-2.4759300000000004">
        <time>2021-06-19T09:27:18+0000</time>
      </trkpt>
      <trkpt lat="40.619580000000006" lon="-2.47588">
        <time>2021-06-19T09:27:19+0000</time>
      </trkpt>
      <trkpt lat="40.61945" lon="-2.4758">
        <time>2021-06-19T09:27:20+0000</time>
      </trkpt>
      <trkpt lat="40.619350000000004" lon="-2.47569">
        <time>2021-06-19T09:27:21+0000</time>
      </trkpt>
      <trkpt lat="40.619240000000005" lon="-2.47556">
        <time>2021-06-19T09:27:22+0000</time>
      </trkpt>
      <trkpt lat="40.619130000000006" lon="-2.47542">
        <time>2021-06-19T09:27:23+0000</time>
      </trkpt>
      <trkpt lat="40.619020000000006" lon="-2.47527">
        <time>2021-06-19T09:27:24+0000</time>
      </trkpt>
      <trkpt lat="40.618900000000004" lon="-2.4751100000000004">
        <time>2021-06-19T09:27:25+0000</time>
      </trkpt>
      <trkpt lat="40.61878" lon="-2.47495">
        <time>2021-06-19T09:27:26+0000</time>
      </trkpt>
      <trkpt lat="40.61865" lon="-2.4747800000000004">
        <time>2021-06-19T09:27:27+0000</time>
      </trkpt>
      <trkpt lat="40.61853" lon="-2.4746300000000003">
        <time>2021-06-19T09:27:28+0000</time>
      </trkpt>
      <trkpt lat="40.618410000000004" lon="-2.47447">
        <time>2021-06-19T09:27:29+0000</time>
      </trkpt>
      <trkpt lat="40.618280000000006" lon="-2.47434">
        <time>2021-06-19T09:27:30+0000</time>
      </trkpt>
      <trkpt lat="40.618140000000004" lon="-2.4742100000000002">
        <time>2021-06-19T09:27:31+0000</time>
      </trkpt>
      <trkpt lat="40.618" lon="-2.4740900000000003">
        <time>2021-06-19T09:27:32+0000</time>
      </trkpt>
      <trkpt lat="40.61784" lon="-2.47397">
        <time>2021-06-19T09:27:33+0000</time>
      </trkpt>
      <trkpt lat="40.61769" lon="-2.4738300000000004">
        <time>2021-06-19T09:27:34+0000</time>
      </trkpt>
      <trkpt lat="40.61755" lon="-2.4736800000000003">
        <time>2021-06-19T09:27:35+0000</time>
      </trkpt>
      <trkpt lat="40.61744" lon="-2.47351">
        <time>2021-06-19T09:27:36+0000</time>
      </trkpt>
      <trkpt lat="40.61737" lon="-2.4733300000000003">
        <time>2021-06-19T09:27:37+0000</time>
      </trkpt>
      <trkpt lat="40.61732000000001" lon="-2.47311">
        <time>2021-06-19T09:27:38+0000</time>
      </trkpt>
      <trkpt lat="40.61731" lon="-2.4728700000000003">
        <time>2021-06-19T09:27:39+0000</time>
      </trkpt>
      <trkpt lat="40.61732000000001" lon="-2.47264">
        <time>2021-06-19T09:27:40+0000</time>
      </trkpt>
      <trkpt lat="40.617340000000006" lon="-2.47241">
        <time>2021-06-19T09:27:41+0000</time>
      </trkpt>
      <trkpt lat="40.61735" lon="-2.4721900000000003">
        <time>2021-06-19T09:27:42+0000</time>
      </trkpt>
      <trkpt lat="40.617360000000005" lon="-2.47195">
        <time>2021-06-19T09:27:43+0000</time>
      </trkpt>
      <trkpt lat="40.617380000000004" lon="-2.4717200000000004">
        <time>2021-06-19T09:27:44+0000</time>
      </trkpt>
      <trkpt lat="40.6174" lon="-2.47147">
        <time>2021-06-19T09:27:45+0000</time>
      </trkpt>
      <trkpt lat="40.61741000000001" lon="-2.4712300000000003">
        <time>2021-06-19T09:27:46+0000</time>
      </trkpt>
      <trkpt lat="40.617430000000006" lon="-2.471">
        <time>2021-06-19T09:27:47+0000</time>
      </trkpt>
      <trkpt lat="40.61744" lon="-2.4707600000000003">
        <time>2021-06-19T09:27:48+0000</time>
      </trkpt>
      <trkpt lat="40.617450000000005" lon="-2.47053">
        <time>2021-06-19T09:27:49+0000</time>
      </trkpt>
      <trkpt lat="40.61746" lon="-2.4702900000000003">
        <time>2021-06-19T09:27:50+0000</time>
      </trkpt>
      <trkpt lat="40.617450000000005" lon="-2.47006">
        <time>2021-06-19T09:27:51+0000</time>
      </trkpt>
      <trkpt lat="40.61744" lon="-2.4698200000000003">
        <time>2021-06-19T09:27:52+0000</time>
      </trkpt>
      <trkpt lat="40.61741000000001" lon="-2.46958">
        <time>2021-06-19T09:27:53+0000</time>
      </trkpt>
      <trkpt lat="40.61737" lon="-2.4693300000000002">
        <time>2021-06-19T09:27:54+0000</time>
      </trkpt>
      <trkpt lat="40.61731" lon="-2.46909">
        <time>2021-06-19T09:27:55+0000</time>
      </trkpt>
      <trkpt lat="40.61724" lon="-2.46885">
        <time>2021-06-19T09:27:56+0000</time>
      </trkpt>
      <trkpt lat="40.617160000000005" lon="-2.4686100000000004">
        <time>2021-06-19T09:27:57+0000</time>
      </trkpt>
      <trkpt lat="40.61706" lon="-2.4683800000000002">
        <time>2021-06-19T09:27:58+0000</time>
      </trkpt>
      <trkpt lat="40.61694000000001" lon="-2.46816">
        <time>2021-06-19T09:27:59+0000</time>
      </trkpt>
      <trkpt lat="40.61681" lon="-2.46795">
        <time>2021-06-19T09:28:00+0000</time>
      </trkpt>
      <trkpt lat="40.61666" lon="-2.46774">
        <time>2021-06-19T09:28:01+0000</time>
      </trkpt>
      <trkpt lat="40.616510000000005" lon="-2.46754">
        <time>2021-06-19T09:28:02+0000</time>
      </trkpt>
      <trkpt lat="40.61636" lon="-2.46733">
        <time>2021-06-19T09:28:03+0000</time>
      </trkpt>
      <trkpt lat="40.61621" lon="-2.4671200000000004">
        <time>2021-06-19T09:28:04+0000</time>
      </trkpt>
      <trkpt lat="40.61605" lon="-2.4669100000000004">
        <time>2021-06-19T09:28:05+0000</time>
      </trkpt>
      <trkpt lat="40.6159" lon="-2.4667000000000003">
        <time>2021-06-19T09:28:06+0000</time>
      </trkpt>
      <trkpt lat="40.61574" lon="-2.4664800000000002">
        <time>2021-06-19T09:28:07+0000</time>
      </trkpt>
      <trkpt lat="40.615590000000005" lon="-2.46627">
        <time>2021-06-19T09:28:08+0000</time>
      </trkpt>
      <trkpt lat="40.61544000000001" lon="-2.46605">
        <time>2021-06-19T09:28:09+0000</time>
      </trkpt>
      <trkpt lat="40.61529" lon="-2.4658300000000004">
        <time>2021-06-19T09:28:10+0000</time>
      </trkpt>
      <trkpt lat="40.615140000000004" lon="-2.4656000000000002">
        <time>2021-06-19T09:28:11+0000</time>
      </trkpt>
      <trkpt lat="40.615010000000005" lon="-2.46536">
        <time>2021-06-19T09:28:12+0000</time>
      </trkpt>
      <trkpt lat="40.61487" lon="-2.46512">
        <time>2021-06-19T09:28:13+0000</time>
      </trkpt>
      <trkpt lat="40.614740000000005" lon="-2.4648800000000004">
        <time>2021-06-19T09:28:14+0000</time>
      </trkpt>
      <trkpt lat="40.61462" lon="-2.4646500000000002">
        <time>2021-06-19T09:28:15+0000</time>
      </trkpt>
      <trkpt lat="40.61449" lon="-2.46443">
        <time>2021-06-19T09:28:16+0000</time>
      </trkpt>
      <trkpt lat="40.61437" lon="-2.4642000000000004">
        <time>2021-06-19T09:28:17+0000</time>
      </trkpt>
      <trkpt lat="40.614250000000006" lon="-2.4639800000000003">
        <time>2021-06-19T09:28:18+0000</time>
      </trkpt>
      <trkpt lat="40.61415" lon="-2.46374">
        <time>2021-06-19T09:28:19+0000</time>
      </trkpt>
      <trkpt lat="40.614050000000006" lon="-2.4635000000000002">
        <time>2021-06-19T09:28:20+0000</time>
      </trkpt>
      <trkpt lat="40.61395" lon="-2.46326">
        <time>2021-06-19T09:28:21+0000</time>
      </trkpt>
      <trkpt lat="40.61386" lon="-2.46301">
        <time>2021-06-19T09:28:22+0000</time>
      </trkpt>
      <trkpt lat="40.61377" lon="-2.4627700000000003">
        <time>2021-06-19T09:28:23+0000</time>
      </trkpt>
      <trkpt lat="40.613690000000005" lon="-2.46252">
        <time>2021-06-19T09:28:24+0000</time>
      </trkpt>
      <trkpt lat="40.613620000000004" lon="-2.46226">
        <time>2021-06-19T09:28:25+0000</time>
      </trkpt>
      <trkpt lat="40.61357" lon="-2.46199">
        <time>2021-06-19T09:28:26+0000</time>
      </trkpt>
      <trkpt lat="40.613530000000004" lon="-2.4617">
        <time>2021-06-19T09:28:27+0000</time>
      </trkpt>
      <trkpt lat="40.61348" lon="-2.4614000000000003">
        <time>2021-06-19T09:28:28+0000</time>
      </trkpt>
      <trkpt lat="40.613440000000004" lon="-2.46112">
        <time>2021-06-19T09:28:29+0000</time>
      </trkpt>
      <trkpt lat="40.613400000000006" lon="-2.46085">
        <time>2021-06-19T09:28:30+0000</time>
      </trkpt>
      <trkpt lat="40.613350000000004" lon="-2.46058">
        <time>2021-06-19T09:28:31+0000</time>
      </trkpt>
      <trkpt lat="40.613310000000006" lon="-2.4603200000000003">
        <time>2021-06-19T09:28:32+0000</time>
      </trkpt>
      <trkpt lat="40.613260000000004" lon="-2.4600600000000004">
        <time>2021-06-19T09:28:33+0000</time>
      </trkpt>
      <trkpt lat="40.613220000000005" lon="-2.45981">
        <time>2021-06-19T09:28:34+0000</time>
      </trkpt>
      <trkpt lat="40.61318" lon="-2.4595800000000003">
        <time>2021-06-19T09:28:35+0000</time>
      </trkpt>
      <trkpt lat="40.61314" lon="-2.45935">
        <time>2021-06-19T09:28:36+0000</time>
      </trkpt>
      <trkpt lat="40.613110000000006" lon="-2.45914">
        <time>2021-06-19T09:28:37+0000</time>
      </trkpt>
      <trkpt lat="40.613080000000004" lon="-2.45894">
        <time>2021-06-19T09:28:38+0000</time>
      </trkpt>
      <trkpt lat="40.61305" lon="-2.45874">
        <time>2021-06-19T09:28:39+0000</time>
      </trkpt>
      <trkpt lat="40.613020000000006" lon="-2.4585500000000002">
        <time>2021-06-19T09:28:40+0000</time>
      </trkpt>
      <trkpt lat="40.61300000000001" lon="-2.4583600000000003">
        <time>2021-06-19T09:28:41+0000</time>
      </trkpt>
      <trkpt lat="40.61298" lon="-2.4581500000000003">
        <time>2021-06-19T09:28:42+0000</time>
      </trkpt>
      <trkpt lat="40.612970000000004" lon="-2.4579400000000002">
        <time>2021-06-19T09:28:43+0000</time>
      </trkpt>
      <trkpt lat="40.612970000000004" lon="-2.45772">
        <time>2021-06-19T09:28:44+0000</time>
      </trkpt>
      <trkpt lat="40.612970000000004" lon="-2.4575">
        <time>2021-06-19T09:28:45+0000</time>
      </trkpt>
      <trkpt lat="40.612970000000004" lon="-2.4572800000000004">
        <time>2021-06-19T09:28:46+0000</time>
      </trkpt>
      <trkpt lat="40.61298" lon="-2.4570600000000002">
        <time>2021-06-19T09:28:47+0000</time>
      </trkpt>
      <trkpt lat="40.61299" lon="-2.45684">
        <time>2021-06-19T09:28:48+0000</time>
      </trkpt>
      <trkpt lat="40.61299" lon="-2.4566100000000004">
        <time>2021-06-19T09:28:49+0000</time>
      </trkpt>
      <trkpt lat="40.61300000000001" lon="-2.4564000000000004">
        <time>2021-06-19T09:28:50+0000</time>
      </trkpt>
      <trkpt lat="40.61301" lon="-2.45617">
        <time>2021-06-19T09:28:51+0000</time>
      </trkpt>
      <trkpt lat="40.61301" lon="-2.45594">
        <time>2021-06-19T09:28:52+0000</time>
      </trkpt>
      <trkpt lat="40.613020000000006" lon="-2.4557200000000003">
        <time>2021-06-19T09:28:53+0000</time>
      </trkpt>
      <trkpt lat="40.613020000000006" lon="-2.45549">
        <time>2021-06-19T09:28:54+0000</time>
      </trkpt>
      <trkpt lat="40.61303" lon="-2.45526">
        <time>2021-06-19T09:28:55+0000</time>
      </trkpt>
      <trkpt lat="40.61303" lon="-2.4550400000000003">
        <time>2021-06-19T09:28:56+0000</time>
      </trkpt>
      <trkpt lat="40.613040000000005" lon="-2.45481">
        <time>2021-06-19T09:28:57+0000</time>
      </trkpt>
      <trkpt lat="40.61305" lon="-2.4546">
        <time>2021-06-19T09:28:58+0000</time>
      </trkpt>
      <trkpt lat="40.61305" lon="-2.4544">
        <time>2021-06-19T09:28:59+0000</time>
      </trkpt>
      <trkpt lat="40.613060000000004" lon="-2.4542100000000002">
        <time>2021-06-19T09:29:00+0000</time>
      </trkpt>
      <trkpt lat="40.613060000000004" lon="-2.4540300000000004">
        <time>2021-06-19T09:29:01+0000</time>
      </trkpt>
      <trkpt lat="40.613060000000004" lon="-2.45385">
        <time>2021-06-19T09:29:02+0000</time>
      </trkpt>
      <trkpt lat="40.61307" lon="-2.45365">
        <time>2021-06-19T09:29:03+0000</time>
      </trkpt>
      <trkpt lat="40.613080000000004" lon="-2.45345">
        <time>2021-06-19T09:29:04+0000</time>
      </trkpt>
      <trkpt lat="40.6131" lon="-2.45324">
        <time>2021-06-19T09:29:05+0000</time>
      </trkpt>
      <trkpt lat="40.61312" lon="-2.4530200000000004">
        <time>2021-06-19T09:29:06+0000</time>
      </trkpt>
      <trkpt lat="40.61316" lon="-2.45282">
        <time>2021-06-19T09:29:07+0000</time>
      </trkpt>
      <trkpt lat="40.613200000000006" lon="-2.45262">
        <time>2021-06-19T09:29:08+0000</time>
      </trkpt>
      <trkpt lat="40.613240000000005" lon="-2.45244">
        <time>2021-06-19T09:29:09+0000</time>
      </trkpt>
      <trkpt lat="40.613290000000006" lon="-2.4522500000000003">
        <time>2021-06-19T09:29:10+0000</time>
      </trkpt>
      <trkpt lat="40.61336" lon="-2.4520700000000004">
        <time>2021-06-19T09:29:11+0000</time>
      </trkpt>
      <trkpt lat="40.61345" lon="-2.45189">
        <time>2021-06-19T09:29:12+0000</time>
      </trkpt>
      <trkpt lat="40.61354" lon="-2.4517100000000003">
        <time>2021-06-19T09:29:13+0000</time>
      </trkpt>
      <trkpt lat="40.61366" lon="-2.45153">
        <time>2021-06-19T09:29:14+0000</time>
      </trkpt>
      <trkpt lat="40.61379" lon="-2.45136">
        <time>2021-06-19T09:29:15+0000</time>
      </trkpt>
      <trkpt lat="40.61393" lon="-2.4512">
        <time>2021-06-19T09:29:16+0000</time>
      </trkpt>
      <trkpt lat="40.61406" lon="-2.4510300000000003">
        <time>2021-06-19T09:29:17+0000</time>
      </trkpt>
      <trkpt lat="40.614200000000004" lon="-2.45086">
        <time>2021-06-19T09:29:18+0000</time>
      </trkpt>
      <trkpt lat="40.614320000000006" lon="-2.45068">
        <time>2021-06-19T09:29:19+0000</time>
      </trkpt>
      <trkpt lat="40.61442" lon="-2.4505000000000003">
        <time>2021-06-19T09:29:20+0000</time>
      </trkpt>
      <trkpt lat="40.61450000000001" lon="-2.45031">
        <time>2021-06-19T09:29:21+0000</time>
      </trkpt>
      <trkpt lat="40.61457" lon="-2.45011">
        <time>2021-06-19T09:29:22+0000</time>
      </trkpt>
      <trkpt lat="40.61462" lon="-2.44992">
        <time>2021-06-19T09:29:23+0000</time>
      </trkpt>
      <trkpt lat="40.614670000000004" lon="-2.44972">
        <time>2021-06-19T09:29:24+0000</time>
      </trkpt>
      <trkpt lat="40.61471" lon="-2.44953">
        <time>2021-06-19T09:29:25+0000</time>
      </trkpt>
      <trkpt lat="40.614760000000004" lon="-2.4493500000000004">
        <time>2021-06-19T09:29:26+0000</time>
      </trkpt>
      <trkpt lat="40.6148" lon="-2.44916">
        <time>2021-06-19T09:29:27+0000</time>
      </trkpt>
      <trkpt lat="40.614850000000004" lon="-2.44896">
        <time>2021-06-19T09:29:28+0000</time>
      </trkpt>
      <trkpt lat="40.61491" lon="-2.44876">
        <time>2021-06-19T09:29:29+0000</time>
      </trkpt>
      <trkpt lat="40.61498" lon="-2.44857">
        <time>2021-06-19T09:29:30+0000</time>
      </trkpt>
      <trkpt lat="40.61507" lon="-2.4483900000000003">
        <time>2021-06-19T09:29:31+0000</time>
      </trkpt>
      <trkpt lat="40.61518" lon="-2.44822">
        <time>2021-06-19T09:29:32+0000</time>
      </trkpt>
      <trkpt lat="40.61531" lon="-2.4480500000000003">
        <time>2021-06-19T09:29:33+0000</time>
      </trkpt>
      <trkpt lat="40.61544000000001" lon="-2.44789">
        <time>2021-06-19T09:29:34+0000</time>
      </trkpt>
      <trkpt lat="40.615590000000005" lon="-2.4477300000000004">
        <time>2021-06-19T09:29:35+0000</time>
      </trkpt>
      <trkpt lat="40.61574" lon="-2.4475800000000003">
        <time>2021-06-19T09:29:36+0000</time>
      </trkpt>
      <trkpt lat="40.615880000000004" lon="-2.4474400000000003">
        <time>2021-06-19T09:29:37+0000</time>
      </trkpt>
      <trkpt lat="40.616020000000006" lon="-2.4473000000000003">
        <time>2021-06-19T09:29:38+0000</time>
      </trkpt>
      <trkpt lat="40.61616" lon="-2.4471600000000002">
        <time>2021-06-19T09:29:39+0000</time>
      </trkpt>
      <trkpt lat="40.616290000000006" lon="-2.44701">
        <time>2021-06-19T09:29:40+0000</time>
      </trkpt>
      <trkpt lat="40.61641" lon="-2.4468300000000003">
        <time>2021-06-19T09:29:41+0000</time>
      </trkpt>
      <trkpt lat="40.616510000000005" lon="-2.44661">
        <time>2021-06-19T09:29:42+0000</time>
      </trkpt>
      <trkpt lat="40.61661" lon="-2.44638">
        <time>2021-06-19T09:29:43+0000</time>
      </trkpt>
      <trkpt lat="40.6167" lon="-2.4461500000000003">
        <time>2021-06-19T09:29:44+0000</time>
      </trkpt>
      <trkpt lat="40.616800000000005" lon="-2.44591">
        <time>2021-06-19T09:29:45+0000</time>
      </trkpt>
      <trkpt lat="40.6169" lon="-2.4456700000000002">
        <time>2021-06-19T09:29:46+0000</time>
      </trkpt>
      <trkpt lat="40.61701" lon="-2.44543">
        <time>2021-06-19T09:29:47+0000</time>
      </trkpt>
      <trkpt lat="40.6171" lon="-2.44519">
        <time>2021-06-19T09:29:48+0000</time>
      </trkpt>
      <trkpt lat="40.61719" lon="-2.4449500000000004">
        <time>2021-06-19T09:29:49+0000</time>
      </trkpt>
      <trkpt lat="40.61728" lon="-2.4447200000000002">
        <time>2021-06-19T09:29:50+0000</time>
      </trkpt>
      <trkpt lat="40.617340000000006" lon="-2.44449">
        <time>2021-06-19T09:29:51+0000</time>
      </trkpt>
      <trkpt lat="40.61737" lon="-2.4442500000000003">
        <time>2021-06-19T09:29:52+0000</time>
      </trkpt>
      <trkpt lat="40.617360000000005" lon="-2.4440000000000004">
        <time>2021-06-19T09:29:53+0000</time>
      </trkpt>
      <trkpt lat="40.6173" lon="-2.4437300000000004">
        <time>2021-06-19T09:29:54+0000</time>
      </trkpt>
      <trkpt lat="40.61722" lon="-2.44347">
        <time>2021-06-19T09:29:55+0000</time>
      </trkpt>
      <trkpt lat="40.61712" lon="-2.44322">
        <time>2021-06-19T09:29:56+0000</time>
      </trkpt>
      <trkpt lat="40.61701" lon="-2.44299">
        <time>2021-06-19T09:29:57+0000</time>
      </trkpt>
      <trkpt lat="40.61692" lon="-2.4427600000000003">
        <time>2021-06-19T09:29:58+0000</time>
      </trkpt>
      <trkpt lat="40.616820000000004" lon="-2.44253">
        <time>2021-06-19T09:29:59+0000</time>
      </trkpt>
      <trkpt lat="40.61672" lon="-2.44231">
        <time>2021-06-19T09:30:00+0000</time>
      </trkpt>
      <trkpt lat="40.61663" lon="-2.4420900000000003">
        <time>2021-06-19T09:30:01+0000</time>
      </trkpt>
      <trkpt lat="40.616530000000004" lon="-2.44187">
        <time>2021-06-19T09:30:02+0000</time>
      </trkpt>
      <trkpt lat="40.61645" lon="-2.44165">
        <time>2021-06-19T09:30:03+0000</time>
      </trkpt>
      <trkpt lat="40.61639" lon="-2.4414200000000004">
        <time>2021-06-19T09:30:04+0000</time>
      </trkpt>
      <trkpt lat="40.61637" lon="-2.44118">
        <time>2021-06-19T09:30:05+0000</time>
      </trkpt>
      <trkpt lat="40.61637" lon="-2.4409300000000003">
        <time>2021-06-19T09:30:06+0000</time>
      </trkpt>
      <trkpt lat="40.61641" lon="-2.4406700000000003">
        <time>2021-06-19T09:30:07+0000</time>
      </trkpt>
      <trkpt lat="40.61645" lon="-2.4404000000000003">
        <time>2021-06-19T09:30:08+0000</time>
      </trkpt>
      <trkpt lat="40.6165" lon="-2.4401400000000004">
        <time>2021-06-19T09:30:09+0000</time>
      </trkpt>
      <trkpt lat="40.61656" lon="-2.43988">
        <time>2021-06-19T09:30:10+0000</time>
      </trkpt>
      <trkpt lat="40.61661" lon="-2.4396">
        <time>2021-06-19T09:30:11+0000</time>
      </trkpt>
      <trkpt lat="40.61666" lon="-2.43933">
        <time>2021-06-19T09:30:12+0000</time>
      </trkpt>
      <trkpt lat="40.616710000000005" lon="-2.43906">
        <time>2021-06-19T09:30:13+0000</time>
      </trkpt>
      <trkpt lat="40.61675" lon="-2.4388">
        <time>2021-06-19T09:30:14+0000</time>
      </trkpt>
      <trkpt lat="40.616800000000005" lon="-2.43855">
        <time>2021-06-19T09:30:15+0000</time>
      </trkpt>
      <trkpt lat="40.61684" lon="-2.4383000000000004">
        <time>2021-06-19T09:30:16+0000</time>
      </trkpt>
      <trkpt lat="40.61688" lon="-2.43805">
        <time>2021-06-19T09:30:17+0000</time>
      </trkpt>
      <trkpt lat="40.616910000000004" lon="-2.4378">
        <time>2021-06-19T09:30:18+0000</time>
      </trkpt>
      <trkpt lat="40.616910000000004" lon="-2.43753">
        <time>2021-06-19T09:30:19+0000</time>
      </trkpt>
      <trkpt lat="40.616890000000005" lon="-2.43725">
        <time>2021-06-19T09:30:20+0000</time>
      </trkpt>
      <trkpt lat="40.61684" lon="-2.43697">
        <time>2021-06-19T09:30:21+0000</time>
      </trkpt>
      <trkpt lat="40.616780000000006" lon="-2.43669">
        <time>2021-06-19T09:30:22+0000</time>
      </trkpt>
      <trkpt lat="40.61672" lon="-2.4364100000000004">
        <time>2021-06-19T09:30:23+0000</time>
      </trkpt>
      <trkpt lat="40.61666" lon="-2.4361300000000004">
        <time>2021-06-19T09:30:24+0000</time>
      </trkpt>
      <trkpt lat="40.61661" lon="-2.4358600000000004">
        <time>2021-06-19T09:30:25+0000</time>
      </trkpt>
      <trkpt lat="40.616550000000004" lon="-2.4355900000000004">
        <time>2021-06-19T09:30:26+0000</time>
      </trkpt>
      <trkpt lat="40.6165" lon="-2.4353200000000004">
        <time>2021-06-19T09:30:27+0000</time>
      </trkpt>
      <trkpt lat="40.61645" lon="-2.43506">
        <time>2021-06-19T09:30:28+0000</time>
      </trkpt>
      <trkpt lat="40.61639" lon="-2.4348">
        <time>2021-06-19T09:30:29+0000</time>
      </trkpt>
      <trkpt lat="40.61634" lon="-2.4345600000000003">
        <time>2021-06-19T09:30:30+0000</time>
      </trkpt>
      <trkpt lat="40.616290000000006" lon="-2.43434">
        <time>2021-06-19T09:30:31+0000</time>
      </trkpt>
      <trkpt lat="40.616240000000005" lon="-2.43412">
        <time>2021-06-19T09:30:32+0000</time>
      </trkpt>
      <trkpt lat="40.616200000000006" lon="-2.43391">
        <time>2021-06-19T09:30:33+0000</time>
      </trkpt>
      <trkpt lat="40.61616" lon="-2.43371">
        <time>2021-06-19T09:30:34+0000</time>
      </trkpt>
      <trkpt lat="40.61612" lon="-2.43353">
        <time>2021-06-19T09:30:35+0000</time>
      </trkpt>
      <trkpt lat="40.61609" lon="-2.4333600000000004">
        <time>2021-06-19T09:30:36+0000</time>
      </trkpt>
      <trkpt lat="40.616060000000004" lon="-2.4332000000000003">
        <time>2021-06-19T09:30:37+0000</time>
      </trkpt>
      <trkpt lat="40.616020000000006" lon="-2.43305">
        <time>2021-06-19T09:30:38+0000</time>
      </trkpt>
      <trkpt lat="40.615990000000004" lon="-2.4329">
        <time>2021-06-19T09:30:39+0000</time>
      </trkpt>
      <trkpt lat="40.61596" lon="-2.4327500000000004">
        <time>2021-06-19T09:30:40+0000</time>
      </trkpt>
      <trkpt lat="40.615930000000006" lon="-2.4326100000000004">
        <time>2021-06-19T09:30:41+0000</time>
      </trkpt>
      <trkpt lat="40.61591000000001" lon="-2.4324800000000004">
        <time>2021-06-19T09:30:42+0000</time>
      </trkpt>
      <trkpt lat="40.61589" lon="-2.43236">
        <time>2021-06-19T09:30:43+0000</time>
      </trkpt>
      <trkpt lat="40.615860000000005" lon="-2.43224">
        <time>2021-06-19T09:30:44+0000</time>
      </trkpt>
      <trkpt lat="40.615840000000006" lon="-2.4321200000000003">
        <time>2021-06-19T09:30:45+0000</time>
      </trkpt>
      <trkpt lat="40.61582000000001" lon="-2.4319900000000003">
        <time>2021-06-19T09:30:46+0000</time>
      </trkpt>
      <trkpt lat="40.6158" lon="-2.4318500000000003">
        <time>2021-06-19T09:30:47+0000</time>
      </trkpt>
      <trkpt lat="40.615790000000004" lon="-2.4317">
        <time>2021-06-19T09:30:48+0000</time>
      </trkpt>
      <trkpt lat="40.61578" lon="-2.43154">
        <time>2021-06-19T09:30:49+0000</time>
      </trkpt>
      <trkpt lat="40.61578" lon="-2.43136">
        <time>2021-06-19T09:30:50+0000</time>
      </trkpt>
      <trkpt lat="40.61581" lon="-2.4311700000000003">
        <time>2021-06-19T09:30:51+0000</time>
      </trkpt>
      <trkpt lat="40.61587" lon="-2.4309800000000004">
        <time>2021-06-19T09:30:52+0000</time>
      </trkpt>
      <trkpt lat="40.615950000000005" lon="-2.4308">
        <time>2021-06-19T09:30:53+0000</time>
      </trkpt>
      <trkpt lat="40.616040000000005" lon="-2.4306300000000003">
        <time>2021-06-19T09:30:54+0000</time>
      </trkpt>
      <trkpt lat="40.61616" lon="-2.43048">
        <time>2021-06-19T09:30:55+0000</time>
      </trkpt>
      <trkpt lat="40.616290000000006" lon="-2.4303500000000002">
        <time>2021-06-19T09:30:56+0000</time>
      </trkpt>
      <trkpt lat="40.61645" lon="-2.4302300000000003">
        <time>2021-06-19T09:30:57+0000</time>
      </trkpt>
      <trkpt lat="40.61661" lon="-2.43014">
        <time>2021-06-19T09:30:58+0000</time>
      </trkpt>
      <trkpt lat="40.616780000000006" lon="-2.43007">
        <time>2021-06-19T09:30:59+0000</time>
      </trkpt>
      <trkpt lat="40.616960000000006" lon="-2.42999">
        <time>2021-06-19T09:31:00+0000</time>
      </trkpt>
      <trkpt lat="40.61713" lon="-2.4299000000000004">
        <time>2021-06-19T09:31:01+0000</time>
      </trkpt>
      <trkpt lat="40.617290000000004" lon="-2.4298100000000002">
        <time>2021-06-19T09:31:02+0000</time>
      </trkpt>
      <trkpt lat="40.617450000000005" lon="-2.42972">
        <time>2021-06-19T09:31:03+0000</time>
      </trkpt>
      <trkpt lat="40.617610000000006" lon="-2.4296">
        <time>2021-06-19T09:31:04+0000</time>
      </trkpt>
      <trkpt lat="40.617760000000004" lon="-2.4294700000000002">
        <time>2021-06-19T09:31:05+0000</time>
      </trkpt>
      <trkpt lat="40.617900000000006" lon="-2.4293">
        <time>2021-06-19T09:31:06+0000</time>
      </trkpt>
      <trkpt lat="40.618030000000005" lon="-2.42911">
        <time>2021-06-19T09:31:07+0000</time>
      </trkpt>
      <trkpt lat="40.618140000000004" lon="-2.42891">
        <time>2021-06-19T09:31:08+0000</time>
      </trkpt>
      <trkpt lat="40.61825" lon="-2.42869">
        <time>2021-06-19T09:31:09+0000</time>
      </trkpt>
      <trkpt lat="40.61834" lon="-2.42845">
        <time>2021-06-19T09:31:10+0000</time>
      </trkpt>
      <trkpt lat="40.61844000000001" lon="-2.42823">
        <time>2021-06-19T09:31:11+0000</time>
      </trkpt>
      <trkpt lat="40.61854" lon="-2.4280000000000004">
        <time>2021-06-19T09:31:12+0000</time>
      </trkpt>
      <trkpt lat="40.61865" lon="-2.42777">
        <time>2021-06-19T09:31:13+0000</time>
      </trkpt>
      <trkpt lat="40.618750000000006" lon="-2.42754">
        <time>2021-06-19T09:31:14+0000</time>
      </trkpt>
      <trkpt lat="40.61885" lon="-2.4273100000000003">
        <time>2021-06-19T09:31:15+0000</time>
      </trkpt>
      <trkpt lat="40.618950000000005" lon="-2.42707">
        <time>2021-06-19T09:31:16+0000</time>
      </trkpt>
      <trkpt lat="40.61905" lon="-2.4268400000000003">
        <time>2021-06-19T09:31:17+0000</time>
      </trkpt>
      <trkpt lat="40.619150000000005" lon="-2.42662">
        <time>2021-06-19T09:31:18+0000</time>
      </trkpt>
      <trkpt lat="40.61925" lon="-2.42639">
        <time>2021-06-19T09:31:19+0000</time>
      </trkpt>
      <trkpt lat="40.619350000000004" lon="-2.4261700000000004">
        <time>2021-06-19T09:31:20+0000</time>
      </trkpt>
      <trkpt lat="40.61945" lon="-2.42594">
        <time>2021-06-19T09:31:21+0000</time>
      </trkpt>
      <trkpt lat="40.61954" lon="-2.42571">
        <time>2021-06-19T09:31:22+0000</time>
      </trkpt>
      <trkpt lat="40.619640000000004" lon="-2.4254900000000004">
        <time>2021-06-19T09:31:23+0000</time>
      </trkpt>
      <trkpt lat="40.61975" lon="-2.42526">
        <time>2021-06-19T09:31:24+0000</time>
      </trkpt>
      <trkpt lat="40.61985000000001" lon="-2.4250200000000004">
        <time>2021-06-19T09:31:25+0000</time>
      </trkpt>
      <trkpt lat="40.61995" lon="-2.42478">
        <time>2021-06-19T09:31:26+0000</time>
      </trkpt>
      <trkpt lat="40.62006" lon="-2.4245300000000003">
        <time>2021-06-19T09:31:27+0000</time>
      </trkpt>
      <trkpt lat="40.62017" lon="-2.42428">
        <time>2021-06-19T09:31:28+0000</time>
      </trkpt>
      <trkpt lat="40.620290000000004" lon="-2.42403">
        <time>2021-06-19T09:31:29+0000</time>
      </trkpt>
      <trkpt lat="40.620400000000004" lon="-2.4237800000000003">
        <time>2021-06-19T09:31:30+0000</time>
      </trkpt>
      <trkpt lat="40.6205" lon="-2.42354">
        <time>2021-06-19T09:31:31+0000</time>
      </trkpt>
      <trkpt lat="40.620610000000006" lon="-2.42329">
        <time>2021-06-19T09:31:32+0000</time>
      </trkpt>
      <trkpt lat="40.62071" lon="-2.4230300000000002">
        <time>2021-06-19T09:31:33+0000</time>
      </trkpt>
      <trkpt lat="40.620830000000005" lon="-2.4227700000000003">
        <time>2021-06-19T09:31:34+0000</time>
      </trkpt>
      <trkpt lat="40.620940000000004" lon="-2.42252">
        <time>2021-06-19T09:31:35+0000</time>
      </trkpt>
      <trkpt lat="40.62104" lon="-2.4222400000000004">
        <time>2021-06-19T09:31:36+0000</time>
      </trkpt>
      <trkpt lat="40.62115" lon="-2.422">
        <time>2021-06-19T09:31:37+0000</time>
      </trkpt>
      <trkpt lat="40.62125" lon="-2.4217600000000004">
        <time>2021-06-19T09:31:38+0000</time>
      </trkpt>
      <trkpt lat="40.62135000000001" lon="-2.42153">
        <time>2021-06-19T09:31:39+0000</time>
      </trkpt>
      <trkpt lat="40.62145" lon="-2.42131">
        <time>2021-06-19T09:31:40+0000</time>
      </trkpt>
      <trkpt lat="40.621550000000006" lon="-2.4210700000000003">
        <time>2021-06-19T09:31:41+0000</time>
      </trkpt>
      <trkpt lat="40.621660000000006" lon="-2.42084">
        <time>2021-06-19T09:31:42+0000</time>
      </trkpt>
      <trkpt lat="40.62176" lon="-2.4206000000000003">
        <time>2021-06-19T09:31:43+0000</time>
      </trkpt>
      <trkpt lat="40.621880000000004" lon="-2.42037">
        <time>2021-06-19T09:31:44+0000</time>
      </trkpt>
      <trkpt lat="40.621970000000005" lon="-2.4201200000000003">
        <time>2021-06-19T09:31:45+0000</time>
      </trkpt>
      <trkpt lat="40.622080000000004" lon="-2.41988">
        <time>2021-06-19T09:31:46+0000</time>
      </trkpt>
      <trkpt lat="40.62221" lon="-2.4196400000000002">
        <time>2021-06-19T09:31:47+0000</time>
      </trkpt>
      <trkpt lat="40.622330000000005" lon="-2.41941">
        <time>2021-06-19T09:31:48+0000</time>
      </trkpt>
      <trkpt lat="40.622460000000004" lon="-2.4191900000000004">
        <time>2021-06-19T09:31:49+0000</time>
      </trkpt>
      <trkpt lat="40.622620000000005" lon="-2.419">
        <time>2021-06-19T09:31:50+0000</time>
      </trkpt>
      <trkpt lat="40.622780000000006" lon="-2.4188300000000003">
        <time>2021-06-19T09:31:51+0000</time>
      </trkpt>
      <trkpt lat="40.62294" lon="-2.41867">
        <time>2021-06-19T09:31:52+0000</time>
      </trkpt>
      <trkpt lat="40.62308" lon="-2.41854">
        <time>2021-06-19T09:31:53+0000</time>
      </trkpt>
      <trkpt lat="40.623200000000004" lon="-2.4184200000000002">
        <time>2021-06-19T09:31:54+0000</time>
      </trkpt>
      <trkpt lat="40.6233" lon="-2.41832">
        <time>2021-06-19T09:31:55+0000</time>
      </trkpt>
      <trkpt lat="40.62341" lon="-2.4182300000000003">
        <time>2021-06-19T09:31:56+0000</time>
      </trkpt>
      <trkpt lat="40.623490000000004" lon="-2.41812">
        <time>2021-06-19T09:31:57+0000</time>
      </trkpt>
      <trkpt lat="40.623580000000004" lon="-2.41801">
        <time>2021-06-19T09:31:58+0000</time>
      </trkpt>
      <trkpt lat="40.623670000000004" lon="-2.41792">
        <time>2021-06-19T09:31:59+0000</time>
      </trkpt>
      <trkpt lat="40.62375" lon="-2.4178300000000004">
        <time>2021-06-19T09:32:00+0000</time>
      </trkpt>
      <trkpt lat="40.62384" lon="-2.4177400000000002">
        <time>2021-06-19T09:32:01+0000</time>
      </trkpt>
      <trkpt lat="40.623940000000005" lon="-2.41764">
        <time>2021-06-19T09:32:02+0000</time>
      </trkpt>
      <trkpt lat="40.62404" lon="-2.4175500000000003">
        <time>2021-06-19T09:32:03+0000</time>
      </trkpt>
      <trkpt lat="40.624140000000004" lon="-2.41745">
        <time>2021-06-19T09:32:04+0000</time>
      </trkpt>
      <trkpt lat="40.62424" lon="-2.4173400000000003">
        <time>2021-06-19T09:32:05+0000</time>
      </trkpt>
      <trkpt lat="40.624340000000004" lon="-2.41725">
        <time>2021-06-19T09:32:06+0000</time>
      </trkpt>
      <trkpt lat="40.624430000000004" lon="-2.4171500000000004">
        <time>2021-06-19T09:32:07+0000</time>
      </trkpt>
      <trkpt lat="40.62451" lon="-2.4170700000000003">
        <time>2021-06-19T09:32:08+0000</time>
      </trkpt>
      <trkpt lat="40.62458" lon="-2.4170000000000003">
        <time>2021-06-19T09:32:09+0000</time>
      </trkpt>
      <trkpt lat="40.62465" lon="-2.4169400000000003">
        <time>2021-06-19T09:32:10+0000</time>
      </trkpt>
      <trkpt lat="40.62471" lon="-2.4168800000000004">
        <time>2021-06-19T09:32:11+0000</time>
      </trkpt>
      <trkpt lat="40.624770000000005" lon="-2.4168200000000004">
        <time>2021-06-19T09:32:12+0000</time>
      </trkpt>
      <trkpt lat="40.62483" lon="-2.41676">
        <time>2021-06-19T09:32:13+0000</time>
      </trkpt>
      <trkpt lat="40.624880000000005" lon="-2.41671">
        <time>2021-06-19T09:32:14+0000</time>
      </trkpt>
      <trkpt lat="40.624930000000006" lon="-2.4166600000000003">
        <time>2021-06-19T09:32:15+0000</time>
      </trkpt>
      <trkpt lat="40.62498" lon="-2.4166100000000004">
        <time>2021-06-19T09:32:16+0000</time>
      </trkpt>
      <trkpt lat="40.62503" lon="-2.41656">
        <time>2021-06-19T09:32:17+0000</time>
      </trkpt>
      <trkpt lat="40.62507" lon="-2.4165200000000002">
        <time>2021-06-19T09:32:18+0000</time>
      </trkpt>
      <trkpt lat="40.62511000000001" lon="-2.4164800000000004">
        <time>2021-06-19T09:32:19+0000</time>
      </trkpt>
      <trkpt lat="40.625170000000004" lon="-2.41642">
        <time>2021-06-19T09:32:20+0000</time>
      </trkpt>
      <trkpt lat="40.62521" lon="-2.41638">
        <time>2021-06-19T09:32:21+0000</time>
      </trkpt>
      <trkpt lat="40.62525" lon="-2.4163400000000004">
        <time>2021-06-19T09:32:22+0000</time>
      </trkpt>
      <trkpt lat="40.6253" lon="-2.4163">
        <time>2021-06-19T09:32:23+0000</time>
      </trkpt>
      <trkpt lat="40.625350000000005" lon="-2.41629">
        <time>2021-06-19T09:32:24+0000</time>
      </trkpt>
      <trkpt lat="40.625370000000004" lon="-2.4162600000000003">
        <time>2021-06-19T09:32:25+0000</time>
      </trkpt>
      <trkpt lat="40.62545" lon="-2.4163400000000004">
        <time>2021-06-19T09:32:26+0000</time>
      </trkpt>
      <trkpt lat="40.62552" lon="-2.4163900000000003">
        <time>2021-06-19T09:32:27+0000</time>
      </trkpt>
      <trkpt lat="40.62559" lon="-2.41645">
        <time>2021-06-19T09:32:28+0000</time>
      </trkpt>
      <trkpt lat="40.62567000000001" lon="-2.41651">
        <time>2021-06-19T09:32:29+0000</time>
      </trkpt>
      <trkpt lat="40.62577" lon="-2.41658">
        <time>2021-06-19T09:32:30+0000</time>
      </trkpt>
      <trkpt lat="40.625870000000006" lon="-2.41664">
        <time>2021-06-19T09:32:31+0000</time>
      </trkpt>
      <trkpt lat="40.625960000000006" lon="-2.4167">
        <time>2021-06-19T09:32:32+0000</time>
      </trkpt>
      <trkpt lat="40.62604" lon="-2.41678">
        <time>2021-06-19T09:32:33+0000</time>
      </trkpt>
      <trkpt lat="40.6261" lon="-2.4168700000000003">
        <time>2021-06-19T09:32:34+0000</time>
      </trkpt>
      <trkpt lat="40.62615" lon="-2.41698">
        <time>2021-06-19T09:32:35+0000</time>
      </trkpt>
      <trkpt lat="40.626200000000004" lon="-2.41711">
        <time>2021-06-19T09:32:36+0000</time>
      </trkpt>
      <trkpt lat="40.62626" lon="-2.41724">
        <time>2021-06-19T09:32:37+0000</time>
      </trkpt>
      <trkpt lat="40.6263" lon="-2.41737">
        <time>2021-06-19T09:32:38+0000</time>
      </trkpt>
      <trkpt lat="40.626340000000006" lon="-2.4174900000000004">
        <time>2021-06-19T09:32:39+0000</time>
      </trkpt>
      <trkpt lat="40.62637" lon="-2.4176">
        <time>2021-06-19T09:32:40+0000</time>
      </trkpt>
      <trkpt lat="40.626400000000004" lon="-2.4177000000000004">
        <time>2021-06-19T09:32:41+0000</time>
      </trkpt>
      <trkpt lat="40.626430000000006" lon="-2.41779">
        <time>2021-06-19T09:32:42+0000</time>
      </trkpt>
      <trkpt lat="40.62646" lon="-2.4178900000000003">
        <time>2021-06-19T09:32:43+0000</time>
      </trkpt>
      <trkpt lat="40.626490000000004" lon="-2.41799">
        <time>2021-06-19T09:32:44+0000</time>
      </trkpt>
      <trkpt lat="40.626520000000006" lon="-2.4181000000000004">
        <time>2021-06-19T09:32:45+0000</time>
      </trkpt>
      <trkpt lat="40.626560000000005" lon="-2.4182">
        <time>2021-06-19T09:32:46+0000</time>
      </trkpt>
      <trkpt lat="40.62659" lon="-2.41832">
        <time>2021-06-19T09:32:47+0000</time>
      </trkpt>
      <trkpt lat="40.626630000000006" lon="-2.4184300000000003">
        <time>2021-06-19T09:32:48+0000</time>
      </trkpt>
      <trkpt lat="40.626670000000004" lon="-2.41855">
        <time>2021-06-19T09:32:49+0000</time>
      </trkpt>
      <trkpt lat="40.62671" lon="-2.41867">
        <time>2021-06-19T09:32:50+0000</time>
      </trkpt>
      <trkpt lat="40.62675" lon="-2.4188">
        <time>2021-06-19T09:32:51+0000</time>
      </trkpt>
      <trkpt lat="40.62679000000001" lon="-2.41894">
        <time>2021-06-19T09:32:52+0000</time>
      </trkpt>
      <trkpt lat="40.626830000000005" lon="-2.41908">
        <time>2021-06-19T09:32:53+0000</time>
      </trkpt>
      <trkpt lat="40.62688" lon="-2.41923">
        <time>2021-06-19T09:32:54+0000</time>
      </trkpt>
      <trkpt lat="40.626920000000005" lon="-2.4193800000000003">
        <time>2021-06-19T09:32:55+0000</time>
      </trkpt>
      <trkpt lat="40.62697" lon="-2.4195200000000003">
        <time>2021-06-19T09:32:56+0000</time>
      </trkpt>
      <trkpt lat="40.627010000000006" lon="-2.4196500000000003">
        <time>2021-06-19T09:32:57+0000</time>
      </trkpt>
      <trkpt lat="40.62704" lon="-2.41977">
        <time>2021-06-19T09:32:58+0000</time>
      </trkpt>
      <trkpt lat="40.62708000000001" lon="-2.41988">
        <time>2021-06-19T09:32:59+0000</time>
      </trkpt>
      <trkpt lat="40.62711" lon="-2.4199800000000002">
        <time>2021-06-19T09:33:00+0000</time>
      </trkpt>
      <trkpt lat="40.627140000000004" lon="-2.42008">
        <time>2021-06-19T09:33:01+0000</time>
      </trkpt>
      <trkpt lat="40.62717000000001" lon="-2.4201900000000003">
        <time>2021-06-19T09:33:02+0000</time>
      </trkpt>
      <trkpt lat="40.6272" lon="-2.42029">
        <time>2021-06-19T09:33:03+0000</time>
      </trkpt>
      <trkpt lat="40.62724" lon="-2.4204100000000004">
        <time>2021-06-19T09:33:04+0000</time>
      </trkpt>
      <trkpt lat="40.627280000000006" lon="-2.4205300000000003">
        <time>2021-06-19T09:33:05+0000</time>
      </trkpt>
      <trkpt lat="40.627320000000005" lon="-2.4206600000000003">
        <time>2021-06-19T09:33:06+0000</time>
      </trkpt>
      <trkpt lat="40.62736" lon="-2.42078">
        <time>2021-06-19T09:33:07+0000</time>
      </trkpt>
      <trkpt lat="40.6274" lon="-2.42092">
        <time>2021-06-19T09:33:08+0000</time>
      </trkpt>
      <trkpt lat="40.62745" lon="-2.42106">
        <time>2021-06-19T09:33:09+0000</time>
      </trkpt>
      <trkpt lat="40.62749" lon="-2.4212100000000003">
        <time>2021-06-19T09:33:10+0000</time>
      </trkpt>
      <trkpt lat="40.62754" lon="-2.42137">
        <time>2021-06-19T09:33:11+0000</time>
      </trkpt>
      <trkpt lat="40.627590000000005" lon="-2.4215400000000002">
        <time>2021-06-19T09:33:12+0000</time>
      </trkpt>
      <trkpt lat="40.62765" lon="-2.4217000000000004">
        <time>2021-06-19T09:33:13+0000</time>
      </trkpt>
      <trkpt lat="40.627700000000004" lon="-2.4218800000000003">
        <time>2021-06-19T09:33:14+0000</time>
      </trkpt>
      <trkpt lat="40.62776" lon="-2.42207">
        <time>2021-06-19T09:33:15+0000</time>
      </trkpt>
      <trkpt lat="40.627810000000004" lon="-2.42225">
        <time>2021-06-19T09:33:16+0000</time>
      </trkpt>
      <trkpt lat="40.62787" lon="-2.4224300000000003">
        <time>2021-06-19T09:33:17+0000</time>
      </trkpt>
      <trkpt lat="40.62794" lon="-2.42262">
        <time>2021-06-19T09:33:18+0000</time>
      </trkpt>
      <trkpt lat="40.62803" lon="-2.4227700000000003">
        <time>2021-06-19T09:33:19+0000</time>
      </trkpt>
      <trkpt lat="40.62814" lon="-2.4229100000000003">
        <time>2021-06-19T09:33:20+0000</time>
      </trkpt>
      <trkpt lat="40.62829" lon="-2.42299">
        <time>2021-06-19T09:33:21+0000</time>
      </trkpt>
      <trkpt lat="40.628440000000005" lon="-2.4230500000000004">
        <time>2021-06-19T09:33:22+0000</time>
      </trkpt>
      <trkpt lat="40.62861" lon="-2.4231000000000003">
        <time>2021-06-19T09:33:23+0000</time>
      </trkpt>
      <trkpt lat="40.628780000000006" lon="-2.42309">
        <time>2021-06-19T09:33:24+0000</time>
      </trkpt>
      <trkpt lat="40.62895" lon="-2.4231100000000003">
        <time>2021-06-19T09:33:25+0000</time>
      </trkpt>
      <trkpt lat="40.62914000000001" lon="-2.4231000000000003">
        <time>2021-06-19T09:33:26+0000</time>
      </trkpt>
      <trkpt lat="40.629340000000006" lon="-2.42309">
        <time>2021-06-19T09:33:27+0000</time>
      </trkpt>
      <trkpt lat="40.629540000000006" lon="-2.42309">
        <time>2021-06-19T09:33:28+0000</time>
      </trkpt>
      <trkpt lat="40.62975" lon="-2.4231200000000004">
        <time>2021-06-19T09:33:29+0000</time>
      </trkpt>
      <trkpt lat="40.62995" lon="-2.4231800000000003">
        <time>2021-06-19T09:33:30+0000</time>
      </trkpt>
      <trkpt lat="40.63015" lon="-2.4232600000000004">
        <time>2021-06-19T09:33:31+0000</time>
      </trkpt>
      <trkpt lat="40.63035" lon="-2.42336">
        <time>2021-06-19T09:33:32+0000</time>
      </trkpt>
      <trkpt lat="40.63055000000001" lon="-2.4234400000000003">
        <time>2021-06-19T09:33:33+0000</time>
      </trkpt>
      <trkpt lat="40.630750000000006" lon="-2.4235200000000003">
        <time>2021-06-19T09:33:34+0000</time>
      </trkpt>
      <trkpt lat="40.630930000000006" lon="-2.4236">
        <time>2021-06-19T09:33:35+0000</time>
      </trkpt>
      <trkpt lat="40.63111000000001" lon="-2.42367">
        <time>2021-06-19T09:33:36+0000</time>
      </trkpt>
      <trkpt lat="40.631260000000005" lon="-2.42374">
        <time>2021-06-19T09:33:37+0000</time>
      </trkpt>
      <trkpt lat="40.63141" lon="-2.4238000000000004">
        <time>2021-06-19T09:33:38+0000</time>
      </trkpt>
      <trkpt lat="40.63156" lon="-2.42383">
        <time>2021-06-19T09:33:39+0000</time>
      </trkpt>
      <trkpt lat="40.6317" lon="-2.4238500000000003">
        <time>2021-06-19T09:33:40+0000</time>
      </trkpt>
      <trkpt lat="40.631840000000004" lon="-2.4238500000000003">
        <time>2021-06-19T09:33:41+0000</time>
      </trkpt>
      <trkpt lat="40.631980000000006" lon="-2.42384">
        <time>2021-06-19T09:33:42+0000</time>
      </trkpt>
      <trkpt lat="40.632110000000004" lon="-2.42383">
        <time>2021-06-19T09:33:43+0000</time>
      </trkpt>
      <trkpt lat="40.63224" lon="-2.4238000000000004">
        <time>2021-06-19T09:33:44+0000</time>
      </trkpt>
      <trkpt lat="40.63235" lon="-2.4237300000000004">
        <time>2021-06-19T09:33:45+0000</time>
      </trkpt>
      <trkpt lat="40.632450000000006" lon="-2.42362">
        <time>2021-06-19T09:33:46+0000</time>
      </trkpt>
      <trkpt lat="40.632560000000005" lon="-2.4235300000000004">
        <time>2021-06-19T09:33:47+0000</time>
      </trkpt>
      <trkpt lat="40.632690000000004" lon="-2.42348">
        <time>2021-06-19T09:33:48+0000</time>
      </trkpt>
      <trkpt lat="40.632830000000006" lon="-2.42347">
        <time>2021-06-19T09:33:49+0000</time>
      </trkpt>
      <trkpt lat="40.63299000000001" lon="-2.4234500000000003">
        <time>2021-06-19T09:33:50+0000</time>
      </trkpt>
      <trkpt lat="40.63315" lon="-2.42343">
        <time>2021-06-19T09:33:51+0000</time>
      </trkpt>
      <trkpt lat="40.633320000000005" lon="-2.4233900000000004">
        <time>2021-06-19T09:33:52+0000</time>
      </trkpt>
      <trkpt lat="40.633480000000006" lon="-2.42335">
        <time>2021-06-19T09:33:53+0000</time>
      </trkpt>
      <trkpt lat="40.63365" lon="-2.4233100000000003">
        <time>2021-06-19T09:33:54+0000</time>
      </trkpt>
      <trkpt lat="40.6338" lon="-2.4232600000000004">
        <time>2021-06-19T09:33:55+0000</time>
      </trkpt>
      <trkpt lat="40.633950000000006" lon="-2.4232">
        <time>2021-06-19T09:33:56+0000</time>
      </trkpt>
      <trkpt lat="40.63409" lon="-2.4231000000000003">
        <time>2021-06-19T09:33:57+0000</time>
      </trkpt>
      <trkpt lat="40.63421" lon="-2.4229800000000004">
        <time>2021-06-19T09:33:58+0000</time>
      </trkpt>
      <trkpt lat="40.63434" lon="-2.4228500000000004">
        <time>2021-06-19T09:33:59+0000</time>
      </trkpt>
      <trkpt lat="40.634460000000004" lon="-2.4227000000000003">
        <time>2021-06-19T09:34:00+0000</time>
      </trkpt>
      <trkpt lat="40.63459" lon="-2.42255">
        <time>2021-06-19T09:34:01+0000</time>
      </trkpt>
      <trkpt lat="40.6347" lon="-2.42238">
        <time>2021-06-19T09:34:02+0000</time>
      </trkpt>
      <trkpt lat="40.634820000000005" lon="-2.4222">
        <time>2021-06-19T09:34:03+0000</time>
      </trkpt>
      <trkpt lat="40.634930000000004" lon="-2.422">
        <time>2021-06-19T09:34:04+0000</time>
      </trkpt>
      <trkpt lat="40.635040000000004" lon="-2.4218300000000004">
        <time>2021-06-19T09:34:05+0000</time>
      </trkpt>
      <trkpt lat="40.635130000000004" lon="-2.42166">
        <time>2021-06-19T09:34:06+0000</time>
      </trkpt>
      <trkpt lat="40.63523" lon="-2.4215">
        <time>2021-06-19T09:34:07+0000</time>
      </trkpt>
      <trkpt lat="40.63533" lon="-2.4213500000000003">
        <time>2021-06-19T09:34:08+0000</time>
      </trkpt>
      <trkpt lat="40.63543000000001" lon="-2.42123">
        <time>2021-06-19T09:34:09+0000</time>
      </trkpt>
      <trkpt lat="40.63553" lon="-2.42111">
        <time>2021-06-19T09:34:10+0000</time>
      </trkpt>
      <trkpt lat="40.635650000000005" lon="-2.4210200000000004">
        <time>2021-06-19T09:34:11+0000</time>
      </trkpt>
      <trkpt lat="40.635780000000004" lon="-2.4209300000000002">
        <time>2021-06-19T09:34:12+0000</time>
      </trkpt>
      <trkpt lat="40.63590000000001" lon="-2.4208100000000004">
        <time>2021-06-19T09:34:13+0000</time>
      </trkpt>
      <trkpt lat="40.636" lon="-2.42065">
        <time>2021-06-19T09:34:14+0000</time>
      </trkpt>
      <trkpt lat="40.63609" lon="-2.42045">
        <time>2021-06-19T09:34:15+0000</time>
      </trkpt>
      <trkpt lat="40.636190000000006" lon="-2.4202500000000002">
        <time>2021-06-19T09:34:16+0000</time>
      </trkpt>
      <trkpt lat="40.636320000000005" lon="-2.4200700000000004">
        <time>2021-06-19T09:34:17+0000</time>
      </trkpt>
      <trkpt lat="40.63645" lon="-2.4199">
        <time>2021-06-19T09:34:18+0000</time>
      </trkpt>
      <trkpt lat="40.636590000000005" lon="-2.41975">
        <time>2021-06-19T09:34:19+0000</time>
      </trkpt>
      <trkpt lat="40.636720000000004" lon="-2.4195900000000004">
        <time>2021-06-19T09:34:20+0000</time>
      </trkpt>
      <trkpt lat="40.63684000000001" lon="-2.41943">
        <time>2021-06-19T09:34:21+0000</time>
      </trkpt>
      <trkpt lat="40.63693000000001" lon="-2.4192500000000003">
        <time>2021-06-19T09:34:22+0000</time>
      </trkpt>
      <trkpt lat="40.637" lon="-2.41907">
        <time>2021-06-19T09:34:23+0000</time>
      </trkpt>
      <trkpt lat="40.63705" lon="-2.41888">
        <time>2021-06-19T09:34:24+0000</time>
      </trkpt>
      <trkpt lat="40.63707" lon="-2.41867">
        <time>2021-06-19T09:34:25+0000</time>
      </trkpt>
      <trkpt lat="40.637060000000005" lon="-2.41845">
        <time>2021-06-19T09:34:26+0000</time>
      </trkpt>
      <trkpt lat="40.63705" lon="-2.41821">
        <time>2021-06-19T09:34:27+0000</time>
      </trkpt>
      <trkpt lat="40.63703" lon="-2.41799">
        <time>2021-06-19T09:34:28+0000</time>
      </trkpt>
      <trkpt lat="40.63702000000001" lon="-2.41778">
        <time>2021-06-19T09:34:29+0000</time>
      </trkpt>
      <trkpt lat="40.637" lon="-2.41758">
        <time>2021-06-19T09:34:30+0000</time>
      </trkpt>
      <trkpt lat="40.636990000000004" lon="-2.4174">
        <time>2021-06-19T09:34:31+0000</time>
      </trkpt>
      <trkpt lat="40.637" lon="-2.41723">
        <time>2021-06-19T09:34:32+0000</time>
      </trkpt>
      <trkpt lat="40.637010000000004" lon="-2.4170800000000003">
        <time>2021-06-19T09:34:33+0000</time>
      </trkpt>
      <trkpt lat="40.63703" lon="-2.4169500000000004">
        <time>2021-06-19T09:34:34+0000</time>
      </trkpt>
      <trkpt lat="40.637060000000005" lon="-2.41683">
        <time>2021-06-19T09:34:35+0000</time>
      </trkpt>
      <trkpt lat="40.637080000000005" lon="-2.4167300000000003">
        <time>2021-06-19T09:34:36+0000</time>
      </trkpt>
      <trkpt lat="40.63711" lon="-2.41662">
        <time>2021-06-19T09:34:37+0000</time>
      </trkpt>
      <trkpt lat="40.637130000000006" lon="-2.41651">
        <time>2021-06-19T09:34:38+0000</time>
      </trkpt>
      <trkpt lat="40.63716" lon="-2.4164000000000003">
        <time>2021-06-19T09:34:39+0000</time>
      </trkpt>
      <trkpt lat="40.637190000000004" lon="-2.41628">
        <time>2021-06-19T09:34:40+0000</time>
      </trkpt>
      <trkpt lat="40.63721" lon="-2.41615">
        <time>2021-06-19T09:34:41+0000</time>
      </trkpt>
      <trkpt lat="40.637240000000006" lon="-2.41603">
        <time>2021-06-19T09:34:42+0000</time>
      </trkpt>
      <trkpt lat="40.63727" lon="-2.4159100000000002">
        <time>2021-06-19T09:34:43+0000</time>
      </trkpt>
      <trkpt lat="40.63732" lon="-2.4157900000000003">
        <time>2021-06-19T09:34:44+0000</time>
      </trkpt>
      <trkpt lat="40.63738" lon="-2.41567">
        <time>2021-06-19T09:34:45+0000</time>
      </trkpt>
      <trkpt lat="40.63747" lon="-2.41557">
        <time>2021-06-19T09:34:46+0000</time>
      </trkpt>
      <trkpt lat="40.637570000000004" lon="-2.41549">
        <time>2021-06-19T09:34:47+0000</time>
      </trkpt>
      <trkpt lat="40.637690000000006" lon="-2.4154">
        <time>2021-06-19T09:34:48+0000</time>
      </trkpt>
      <trkpt lat="40.637820000000005" lon="-2.4153100000000003">
        <time>2021-06-19T09:34:49+0000</time>
      </trkpt>
      <trkpt lat="40.637950000000004" lon="-2.41523">
        <time>2021-06-19T09:34:50+0000</time>
      </trkpt>
      <trkpt lat="40.63808" lon="-2.41514">
        <time>2021-06-19T09:34:51+0000</time>
      </trkpt>
      <trkpt lat="40.638200000000005" lon="-2.41506">
        <time>2021-06-19T09:34:52+0000</time>
      </trkpt>
      <trkpt lat="40.63832" lon="-2.4149800000000003">
        <time>2021-06-19T09:34:53+0000</time>
      </trkpt>
      <trkpt lat="40.638450000000006" lon="-2.41488">
        <time>2021-06-19T09:34:54+0000</time>
      </trkpt>
      <trkpt lat="40.638580000000005" lon="-2.4148">
        <time>2021-06-19T09:34:55+0000</time>
      </trkpt>
      <trkpt lat="40.63871" lon="-2.41472">
        <time>2021-06-19T09:34:56+0000</time>
      </trkpt>
      <trkpt lat="40.638850000000005" lon="-2.41461">
        <time>2021-06-19T09:34:57+0000</time>
      </trkpt>
      <trkpt lat="40.638980000000004" lon="-2.4145100000000004">
        <time>2021-06-19T09:34:58+0000</time>
      </trkpt>
      <trkpt lat="40.63911" lon="-2.41441">
        <time>2021-06-19T09:34:59+0000</time>
      </trkpt>
      <trkpt lat="40.639250000000004" lon="-2.4143100000000004">
        <time>2021-06-19T09:35:00+0000</time>
      </trkpt>
      <trkpt lat="40.63938" lon="-2.41421">
        <time>2021-06-19T09:35:01+0000</time>
      </trkpt>
      <trkpt lat="40.63953" lon="-2.41411">
        <time>2021-06-19T09:35:02+0000</time>
      </trkpt>
      <trkpt lat="40.639680000000006" lon="-2.4140200000000003">
        <time>2021-06-19T09:35:03+0000</time>
      </trkpt>
      <trkpt lat="40.63983" lon="-2.41392">
        <time>2021-06-19T09:35:04+0000</time>
      </trkpt>
      <trkpt lat="40.639990000000004" lon="-2.4138100000000002">
        <time>2021-06-19T09:35:05+0000</time>
      </trkpt>
      <trkpt lat="40.64014" lon="-2.41371">
        <time>2021-06-19T09:35:06+0000</time>
      </trkpt>
      <trkpt lat="40.640280000000004" lon="-2.4136100000000003">
        <time>2021-06-19T09:35:07+0000</time>
      </trkpt>
      <trkpt lat="40.64043" lon="-2.4135">
        <time>2021-06-19T09:35:08+0000</time>
      </trkpt>
      <trkpt lat="40.640570000000004" lon="-2.4134200000000003">
        <time>2021-06-19T09:35:09+0000</time>
      </trkpt>
      <trkpt lat="40.640710000000006" lon="-2.41333">
        <time>2021-06-19T09:35:10+0000</time>
      </trkpt>
      <trkpt lat="40.64083" lon="-2.41325">
        <time>2021-06-19T09:35:11+0000</time>
      </trkpt>
      <trkpt lat="40.64094" lon="-2.4131600000000004">
        <time>2021-06-19T09:35:12+0000</time>
      </trkpt>
      <trkpt lat="40.64106" lon="-2.4130900000000004">
        <time>2021-06-19T09:35:13+0000</time>
      </trkpt>
      <trkpt lat="40.64117" lon="-2.4130100000000003">
        <time>2021-06-19T09:35:14+0000</time>
      </trkpt>
      <trkpt lat="40.641290000000005" lon="-2.4129300000000002">
        <time>2021-06-19T09:35:15+0000</time>
      </trkpt>
      <trkpt lat="40.641420000000004" lon="-2.41284">
        <time>2021-06-19T09:35:16+0000</time>
      </trkpt>
      <trkpt lat="40.641540000000006" lon="-2.4127500000000004">
        <time>2021-06-19T09:35:17+0000</time>
      </trkpt>
      <trkpt lat="40.641650000000006" lon="-2.4126800000000004">
        <time>2021-06-19T09:35:18+0000</time>
      </trkpt>
      <trkpt lat="40.64177" lon="-2.4126000000000003">
        <time>2021-06-19T09:35:19+0000</time>
      </trkpt>
      <trkpt lat="40.64188" lon="-2.41252">
        <time>2021-06-19T09:35:20+0000</time>
      </trkpt>
      <trkpt lat="40.64199" lon="-2.41244">
        <time>2021-06-19T09:35:21+0000</time>
      </trkpt>
      <trkpt lat="40.64211" lon="-2.41236">
        <time>2021-06-19T09:35:22+0000</time>
      </trkpt>
      <trkpt lat="40.642230000000005" lon="-2.41228">
        <time>2021-06-19T09:35:23+0000</time>
      </trkpt>
      <trkpt lat="40.64235" lon="-2.4122000000000003">
        <time>2021-06-19T09:35:24+0000</time>
      </trkpt>
      <trkpt lat="40.642480000000006" lon="-2.4121300000000003">
        <time>2021-06-19T09:35:25+0000</time>
      </trkpt>
      <trkpt lat="40.642590000000006" lon="-2.41204">
        <time>2021-06-19T09:35:26+0000</time>
      </trkpt>
      <trkpt lat="40.64269" lon="-2.41196">
        <time>2021-06-19T09:35:27+0000</time>
      </trkpt>
      <trkpt lat="40.64278" lon="-2.4118700000000004">
        <time>2021-06-19T09:35:28+0000</time>
      </trkpt>
      <trkpt lat="40.64284000000001" lon="-2.41176">
        <time>2021-06-19T09:35:29+0000</time>
      </trkpt>
      <trkpt lat="40.64287" lon="-2.41162">
        <time>2021-06-19T09:35:30+0000</time>
      </trkpt>
      <trkpt lat="40.64285" lon="-2.41149">
        <time>2021-06-19T09:35:31+0000</time>
      </trkpt>
      <trkpt lat="40.642790000000005" lon="-2.4113700000000002">
        <time>2021-06-19T09:35:32+0000</time>
      </trkpt>
      <trkpt lat="40.64278" lon="-2.4112400000000003">
        <time>2021-06-19T09:35:33+0000</time>
      </trkpt>
      <trkpt lat="40.642790000000005" lon="-2.4111100000000003">
        <time>2021-06-19T09:35:34+0000</time>
      </trkpt>
      <trkpt lat="40.642860000000006" lon="-2.411">
        <time>2021-06-19T09:35:35+0000</time>
      </trkpt>
      <trkpt lat="40.64291" lon="-2.4109000000000003">
        <time>2021-06-19T09:35:36+0000</time>
      </trkpt>
      <trkpt lat="40.64298" lon="-2.41082">
        <time>2021-06-19T09:35:37+0000</time>
      </trkpt>
      <trkpt lat="40.64305" lon="-2.41075">
        <time>2021-06-19T09:35:38+0000</time>
      </trkpt>
      <trkpt lat="40.643130000000006" lon="-2.4107100000000004">
        <time>2021-06-19T09:35:39+0000</time>
      </trkpt>
      <trkpt lat="40.6432" lon="-2.4106500000000004">
        <time>2021-06-19T09:35:40+0000</time>
      </trkpt>
      <trkpt lat="40.64327" lon="-2.4106">
        <time>2021-06-19T09:35:41+0000</time>
      </trkpt>
      <trkpt lat="40.643350000000005" lon="-2.41054">
        <time>2021-06-19T09:35:42+0000</time>
      </trkpt>
      <trkpt lat="40.643440000000005" lon="-2.41048">
        <time>2021-06-19T09:35:43+0000</time>
      </trkpt>
      <trkpt lat="40.64354" lon="-2.41045">
        <time>2021-06-19T09:35:44+0000</time>
      </trkpt>
      <trkpt lat="40.64365" lon="-2.4104300000000003">
        <time>2021-06-19T09:35:45+0000</time>
      </trkpt>
      <trkpt lat="40.64377" lon="-2.4104">
        <time>2021-06-19T09:35:46+0000</time>
      </trkpt>
      <trkpt lat="40.643890000000006" lon="-2.4103600000000003">
        <time>2021-06-19T09:35:47+0000</time>
      </trkpt>
      <trkpt lat="40.644000000000005" lon="-2.41028">
        <time>2021-06-19T09:35:48+0000</time>
      </trkpt>
      <trkpt lat="40.644090000000006" lon="-2.4101600000000003">
        <time>2021-06-19T09:35:49+0000</time>
      </trkpt>
      <trkpt lat="40.644200000000005" lon="-2.4100800000000002">
        <time>2021-06-19T09:35:50+0000</time>
      </trkpt>
      <trkpt lat="40.6443" lon="-2.41001">
        <time>2021-06-19T09:35:51+0000</time>
      </trkpt>
      <trkpt lat="40.64439" lon="-2.40992">
        <time>2021-06-19T09:35:52+0000</time>
      </trkpt>
      <trkpt lat="40.64448" lon="-2.40984">
        <time>2021-06-19T09:35:53+0000</time>
      </trkpt>
      <trkpt lat="40.64455" lon="-2.40974">
        <time>2021-06-19T09:35:54+0000</time>
      </trkpt>
      <trkpt lat="40.644600000000004" lon="-2.4096200000000003">
        <time>2021-06-19T09:35:55+0000</time>
      </trkpt>
      <trkpt lat="40.64464" lon="-2.4094800000000003">
        <time>2021-06-19T09:35:56+0000</time>
      </trkpt>
      <trkpt lat="40.64466" lon="-2.4093400000000003">
        <time>2021-06-19T09:35:57+0000</time>
      </trkpt>
      <trkpt lat="40.644690000000004" lon="-2.4092000000000002">
        <time>2021-06-19T09:35:58+0000</time>
      </trkpt>
      <trkpt lat="40.64473" lon="-2.40906">
        <time>2021-06-19T09:35:59+0000</time>
      </trkpt>
      <trkpt lat="40.64481000000001" lon="-2.4089500000000004">
        <time>2021-06-19T09:36:00+0000</time>
      </trkpt>
      <trkpt lat="40.644920000000006" lon="-2.40891">
        <time>2021-06-19T09:36:01+0000</time>
      </trkpt>
      <trkpt lat="40.645010000000006" lon="-2.40889">
        <time>2021-06-19T09:36:02+0000</time>
      </trkpt>
      <trkpt lat="40.645100000000006" lon="-2.4089">
        <time>2021-06-19T09:36:03+0000</time>
      </trkpt>
      <trkpt lat="40.6452" lon="-2.4089">
        <time>2021-06-19T09:36:04+0000</time>
      </trkpt>
      <trkpt lat="40.645300000000006" lon="-2.40892">
        <time>2021-06-19T09:36:05+0000</time>
      </trkpt>
      <trkpt lat="40.6454" lon="-2.4089400000000003">
        <time>2021-06-19T09:36:06+0000</time>
      </trkpt>
      <trkpt lat="40.64551" lon="-2.40896">
        <time>2021-06-19T09:36:07+0000</time>
      </trkpt>
      <trkpt lat="40.645590000000006" lon="-2.4090200000000004">
        <time>2021-06-19T09:36:08+0000</time>
      </trkpt>
      <trkpt lat="40.64569" lon="-2.4090900000000004">
        <time>2021-06-19T09:36:09+0000</time>
      </trkpt>
      <trkpt lat="40.645770000000006" lon="-2.4091500000000003">
        <time>2021-06-19T09:36:10+0000</time>
      </trkpt>
      <trkpt lat="40.64585" lon="-2.4092200000000004">
        <time>2021-06-19T09:36:11+0000</time>
      </trkpt>
      <trkpt lat="40.64594" lon="-2.4092800000000003">
        <time>2021-06-19T09:36:12+0000</time>
      </trkpt>
      <trkpt lat="40.64603" lon="-2.40933">
        <time>2021-06-19T09:36:13+0000</time>
      </trkpt>
      <trkpt lat="40.64613000000001" lon="-2.40937">
        <time>2021-06-19T09:36:14+0000</time>
      </trkpt>
      <trkpt lat="40.64623" lon="-2.4094">
        <time>2021-06-19T09:36:15+0000</time>
      </trkpt>
      <trkpt lat="40.646330000000006" lon="-2.4094100000000003">
        <time>2021-06-19T09:36:16+0000</time>
      </trkpt>
      <trkpt lat="40.646420000000006" lon="-2.4094200000000003">
        <time>2021-06-19T09:36:17+0000</time>
      </trkpt>
      <trkpt lat="40.64652" lon="-2.40939">
        <time>2021-06-19T09:36:18+0000</time>
      </trkpt>
      <trkpt lat="40.64661" lon="-2.4093600000000004">
        <time>2021-06-19T09:36:19+0000</time>
      </trkpt>
      <trkpt lat="40.64669000000001" lon="-2.4093400000000003">
        <time>2021-06-19T09:36:20+0000</time>
      </trkpt>
      <trkpt lat="40.64678000000001" lon="-2.4093400000000003">
        <time>2021-06-19T09:36:21+0000</time>
      </trkpt>
      <trkpt lat="40.64687" lon="-2.40939">
        <time>2021-06-19T09:36:22+0000</time>
      </trkpt>
      <trkpt lat="40.64694" lon="-2.4094800000000003">
        <time>2021-06-19T09:36:23+0000</time>
      </trkpt>
      <trkpt lat="40.64699" lon="-2.40958">
        <time>2021-06-19T09:36:24+0000</time>
      </trkpt>
      <trkpt lat="40.64706" lon="-2.4096900000000003">
        <time>2021-06-19T09:36:25+0000</time>
      </trkpt>
      <trkpt lat="40.64712" lon="-2.4098100000000002">
        <time>2021-06-19T09:36:26+0000</time>
      </trkpt>
      <trkpt lat="40.647180000000006" lon="-2.40992">
        <time>2021-06-19T09:36:27+0000</time>
      </trkpt>
      <trkpt lat="40.64725000000001" lon="-2.41001">
        <time>2021-06-19T09:36:28+0000</time>
      </trkpt>
      <trkpt lat="40.64734" lon="-2.4100900000000003">
        <time>2021-06-19T09:36:29+0000</time>
      </trkpt>
      <trkpt lat="40.64744" lon="-2.4101500000000002">
        <time>2021-06-19T09:36:30+0000</time>
      </trkpt>
      <trkpt lat="40.64757" lon="-2.41019">
        <time>2021-06-19T09:36:31+0000</time>
      </trkpt>
      <trkpt lat="40.647710000000004" lon="-2.4102">
        <time>2021-06-19T09:36:32+0000</time>
      </trkpt>
      <trkpt lat="40.64786" lon="-2.41021">
        <time>2021-06-19T09:36:33+0000</time>
      </trkpt>
      <trkpt lat="40.648" lon="-2.4102400000000004">
        <time>2021-06-19T09:36:34+0000</time>
      </trkpt>
      <trkpt lat="40.64813" lon="-2.41026">
        <time>2021-06-19T09:36:35+0000</time>
      </trkpt>
      <trkpt lat="40.64826" lon="-2.4102900000000003">
        <time>2021-06-19T09:36:36+0000</time>
      </trkpt>
      <trkpt lat="40.648390000000006" lon="-2.41032">
        <time>2021-06-19T09:36:37+0000</time>
      </trkpt>
      <trkpt lat="40.64853" lon="-2.4103700000000003">
        <time>2021-06-19T09:36:38+0000</time>
      </trkpt>
      <trkpt lat="40.64867" lon="-2.4104300000000003">
        <time>2021-06-19T09:36:39+0000</time>
      </trkpt>
      <trkpt lat="40.6488" lon="-2.4105100000000004">
        <time>2021-06-19T09:36:40+0000</time>
      </trkpt>
      <trkpt lat="40.64893" lon="-2.4105800000000004">
        <time>2021-06-19T09:36:41+0000</time>
      </trkpt>
      <trkpt lat="40.64905" lon="-2.41066">
        <time>2021-06-19T09:36:42+0000</time>
      </trkpt>
      <trkpt lat="40.64918" lon="-2.41075">
        <time>2021-06-19T09:36:43+0000</time>
      </trkpt>
      <trkpt lat="40.649300000000004" lon="-2.41082">
        <time>2021-06-19T09:36:44+0000</time>
      </trkpt>
      <trkpt lat="40.649420000000006" lon="-2.4109000000000003">
        <time>2021-06-19T09:36:45+0000</time>
      </trkpt>
      <trkpt lat="40.64954" lon="-2.4109700000000003">
        <time>2021-06-19T09:36:46+0000</time>
      </trkpt>
      <trkpt lat="40.649660000000004" lon="-2.4110400000000003">
        <time>2021-06-19T09:36:47+0000</time>
      </trkpt>
      <trkpt lat="40.64978" lon="-2.4111100000000003">
        <time>2021-06-19T09:36:48+0000</time>
      </trkpt>
      <trkpt lat="40.649890000000006" lon="-2.4111800000000003">
        <time>2021-06-19T09:36:49+0000</time>
      </trkpt>
      <trkpt lat="40.650000000000006" lon="-2.4112400000000003">
        <time>2021-06-19T09:36:50+0000</time>
      </trkpt>
      <trkpt lat="40.650110000000005" lon="-2.4113100000000003">
        <time>2021-06-19T09:36:51+0000</time>
      </trkpt>
      <trkpt lat="40.65021" lon="-2.4113700000000002">
        <time>2021-06-19T09:36:52+0000</time>
      </trkpt>
      <trkpt lat="40.65032" lon="-2.4114400000000002">
        <time>2021-06-19T09:36:53+0000</time>
      </trkpt>
      <trkpt lat="40.65043" lon="-2.4115">
        <time>2021-06-19T09:36:54+0000</time>
      </trkpt>
      <trkpt lat="40.65054000000001" lon="-2.41157">
        <time>2021-06-19T09:36:55+0000</time>
      </trkpt>
      <trkpt lat="40.650650000000006" lon="-2.4116400000000002">
        <time>2021-06-19T09:36:56+0000</time>
      </trkpt>
      <trkpt lat="40.650780000000005" lon="-2.4117">
        <time>2021-06-19T09:36:57+0000</time>
      </trkpt>
      <trkpt lat="40.650920000000006" lon="-2.4117300000000004">
        <time>2021-06-19T09:36:58+0000</time>
      </trkpt>
      <trkpt lat="40.651070000000004" lon="-2.4117300000000004">
        <time>2021-06-19T09:36:59+0000</time>
      </trkpt>
      <trkpt lat="40.65122" lon="-2.41169">
        <time>2021-06-19T09:37:00+0000</time>
      </trkpt>
      <trkpt lat="40.65138" lon="-2.41163">
        <time>2021-06-19T09:37:01+0000</time>
      </trkpt>
      <trkpt lat="40.651520000000005" lon="-2.41157">
        <time>2021-06-19T09:37:02+0000</time>
      </trkpt>
      <trkpt lat="40.65167" lon="-2.4115100000000003">
        <time>2021-06-19T09:37:03+0000</time>
      </trkpt>
      <trkpt lat="40.65182" lon="-2.41148">
        <time>2021-06-19T09:37:04+0000</time>
      </trkpt>
      <trkpt lat="40.65196" lon="-2.4114600000000004">
        <time>2021-06-19T09:37:05+0000</time>
      </trkpt>
      <trkpt lat="40.65209" lon="-2.41148">
        <time>2021-06-19T09:37:06+0000</time>
      </trkpt>
      <trkpt lat="40.65222" lon="-2.41154">
        <time>2021-06-19T09:37:07+0000</time>
      </trkpt>
      <trkpt lat="40.65234" lon="-2.41163">
        <time>2021-06-19T09:37:08+0000</time>
      </trkpt>
      <trkpt lat="40.65245" lon="-2.4117200000000003">
        <time>2021-06-19T09:37:09+0000</time>
      </trkpt>
      <trkpt lat="40.65256" lon="-2.41181">
        <time>2021-06-19T09:37:10+0000</time>
      </trkpt>
      <trkpt lat="40.652680000000004" lon="-2.41188">
        <time>2021-06-19T09:37:11+0000</time>
      </trkpt>
      <trkpt lat="40.65279" lon="-2.4119400000000004">
        <time>2021-06-19T09:37:12+0000</time>
      </trkpt>
      <trkpt lat="40.652910000000006" lon="-2.4120000000000004">
        <time>2021-06-19T09:37:13+0000</time>
      </trkpt>
      <trkpt lat="40.653000000000006" lon="-2.41209">
        <time>2021-06-19T09:37:14+0000</time>
      </trkpt>
      <trkpt lat="40.65306" lon="-2.4122000000000003">
        <time>2021-06-19T09:37:15+0000</time>
      </trkpt>
      <trkpt lat="40.6531" lon="-2.4123200000000002">
        <time>2021-06-19T09:37:16+0000</time>
      </trkpt>
      <trkpt lat="40.653130000000004" lon="-2.41244">
        <time>2021-06-19T09:37:17+0000</time>
      </trkpt>
      <trkpt lat="40.65319" lon="-2.4125300000000003">
        <time>2021-06-19T09:37:18+0000</time>
      </trkpt>
      <trkpt lat="40.653270000000006" lon="-2.4125900000000002">
        <time>2021-06-19T09:37:19+0000</time>
      </trkpt>
      <trkpt lat="40.653360000000006" lon="-2.41257">
        <time>2021-06-19T09:37:20+0000</time>
      </trkpt>
      <trkpt lat="40.65344" lon="-2.4125300000000003">
        <time>2021-06-19T09:37:21+0000</time>
      </trkpt>
      <trkpt lat="40.65353" lon="-2.41245">
        <time>2021-06-19T09:37:22+0000</time>
      </trkpt>
      <trkpt lat="40.65363000000001" lon="-2.41236">
        <time>2021-06-19T09:37:23+0000</time>
      </trkpt>
      <trkpt lat="40.653740000000006" lon="-2.4123">
        <time>2021-06-19T09:37:24+0000</time>
      </trkpt>
      <trkpt lat="40.65386" lon="-2.4123">
        <time>2021-06-19T09:37:25+0000</time>
      </trkpt>
      <trkpt lat="40.65399" lon="-2.4123">
        <time>2021-06-19T09:37:26+0000</time>
      </trkpt>
      <trkpt lat="40.65413" lon="-2.41231">
        <time>2021-06-19T09:37:27+0000</time>
      </trkpt>
      <trkpt lat="40.654270000000004" lon="-2.41228">
        <time>2021-06-19T09:37:28+0000</time>
      </trkpt>
      <trkpt lat="40.654410000000006" lon="-2.4122600000000003">
        <time>2021-06-19T09:37:29+0000</time>
      </trkpt>
      <trkpt lat="40.654560000000004" lon="-2.41224">
        <time>2021-06-19T09:37:30+0000</time>
      </trkpt>
      <trkpt lat="40.65469" lon="-2.41223">
        <time>2021-06-19T09:37:31+0000</time>
      </trkpt>
      <trkpt lat="40.654830000000004" lon="-2.41224">
        <time>2021-06-19T09:37:32+0000</time>
      </trkpt>
      <trkpt lat="40.654970000000006" lon="-2.4122600000000003">
        <time>2021-06-19T09:37:33+0000</time>
      </trkpt>
      <trkpt lat="40.65509" lon="-2.41228">
        <time>2021-06-19T09:37:34+0000</time>
      </trkpt>
      <trkpt lat="40.65522" lon="-2.4123">
        <time>2021-06-19T09:37:35+0000</time>
      </trkpt>
      <trkpt lat="40.655350000000006" lon="-2.41231">
        <time>2021-06-19T09:37:36+0000</time>
      </trkpt>
      <trkpt lat="40.655480000000004" lon="-2.41231">
        <time>2021-06-19T09:37:37+0000</time>
      </trkpt>
      <trkpt lat="40.65561" lon="-2.41229">
        <time>2021-06-19T09:37:38+0000</time>
      </trkpt>
      <trkpt lat="40.65574" lon="-2.41228">
        <time>2021-06-19T09:37:39+0000</time>
      </trkpt>
      <trkpt lat="40.65588" lon="-2.4122600000000003">
        <time>2021-06-19T09:37:40+0000</time>
      </trkpt>
      <trkpt lat="40.65601" lon="-2.4122600000000003">
        <time>2021-06-19T09:37:41+0000</time>
      </trkpt>
      <trkpt lat="40.656150000000004" lon="-2.4122600000000003">
        <time>2021-06-19T09:37:42+0000</time>
      </trkpt>
      <trkpt lat="40.656290000000006" lon="-2.41229">
        <time>2021-06-19T09:37:43+0000</time>
      </trkpt>
      <trkpt lat="40.656420000000004" lon="-2.4123300000000003">
        <time>2021-06-19T09:37:44+0000</time>
      </trkpt>
      <trkpt lat="40.65655" lon="-2.41237">
        <time>2021-06-19T09:37:45+0000</time>
      </trkpt>
      <trkpt lat="40.656670000000005" lon="-2.4124100000000004">
        <time>2021-06-19T09:37:46+0000</time>
      </trkpt>
      <trkpt lat="40.656780000000005" lon="-2.41243">
        <time>2021-06-19T09:37:47+0000</time>
      </trkpt>
      <trkpt lat="40.656890000000004" lon="-2.4124100000000004">
        <time>2021-06-19T09:37:48+0000</time>
      </trkpt>
      <trkpt lat="40.656980000000004" lon="-2.41236">
        <time>2021-06-19T09:37:49+0000</time>
      </trkpt>
      <trkpt lat="40.657050000000005" lon="-2.41229">
        <time>2021-06-19T09:37:50+0000</time>
      </trkpt>
      <trkpt lat="40.65713" lon="-2.41222">
        <time>2021-06-19T09:37:51+0000</time>
      </trkpt>
      <trkpt lat="40.65722" lon="-2.4122000000000003">
        <time>2021-06-19T09:37:52+0000</time>
      </trkpt>
      <trkpt lat="40.65731" lon="-2.41222">
        <time>2021-06-19T09:37:53+0000</time>
      </trkpt>
      <trkpt lat="40.657410000000006" lon="-2.4122600000000003">
        <time>2021-06-19T09:37:54+0000</time>
      </trkpt>
      <trkpt lat="40.65751" lon="-2.4123300000000003">
        <time>2021-06-19T09:37:55+0000</time>
      </trkpt>
      <trkpt lat="40.65762" lon="-2.4124000000000003">
        <time>2021-06-19T09:37:56+0000</time>
      </trkpt>
      <trkpt lat="40.657740000000004" lon="-2.41249">
        <time>2021-06-19T09:37:57+0000</time>
      </trkpt>
      <trkpt lat="40.65786000000001" lon="-2.41258">
        <time>2021-06-19T09:37:58+0000</time>
      </trkpt>
      <trkpt lat="40.657990000000005" lon="-2.4126700000000003">
        <time>2021-06-19T09:37:59+0000</time>
      </trkpt>
      <trkpt lat="40.65811" lon="-2.4127500000000004">
        <time>2021-06-19T09:38:00+0000</time>
      </trkpt>
      <trkpt lat="40.65823" lon="-2.41283">
        <time>2021-06-19T09:38:01+0000</time>
      </trkpt>
      <trkpt lat="40.658350000000006" lon="-2.41289">
        <time>2021-06-19T09:38:02+0000</time>
      </trkpt>
      <trkpt lat="40.658480000000004" lon="-2.4129300000000002">
        <time>2021-06-19T09:38:03+0000</time>
      </trkpt>
      <trkpt lat="40.65863" lon="-2.4129500000000004">
        <time>2021-06-19T09:38:04+0000</time>
      </trkpt>
      <trkpt lat="40.65878" lon="-2.41296">
        <time>2021-06-19T09:38:05+0000</time>
      </trkpt>
      <trkpt lat="40.658930000000005" lon="-2.41297">
        <time>2021-06-19T09:38:06+0000</time>
      </trkpt>
      <trkpt lat="40.65908" lon="-2.41299">
        <time>2021-06-19T09:38:07+0000</time>
      </trkpt>
      <trkpt lat="40.65923" lon="-2.4130100000000003">
        <time>2021-06-19T09:38:08+0000</time>
      </trkpt>
      <trkpt lat="40.65937" lon="-2.41303">
        <time>2021-06-19T09:38:09+0000</time>
      </trkpt>
      <trkpt lat="40.659510000000004" lon="-2.41305">
        <time>2021-06-19T09:38:10+0000</time>
      </trkpt>
      <trkpt lat="40.65964" lon="-2.4131">
        <time>2021-06-19T09:38:11+0000</time>
      </trkpt>
      <trkpt lat="40.659760000000006" lon="-2.4131600000000004">
        <time>2021-06-19T09:38:12+0000</time>
      </trkpt>
      <trkpt lat="40.65988" lon="-2.4132200000000004">
        <time>2021-06-19T09:38:13+0000</time>
      </trkpt>
      <trkpt lat="40.660000000000004" lon="-2.4132800000000003">
        <time>2021-06-19T09:38:14+0000</time>
      </trkpt>
      <trkpt lat="40.660120000000006" lon="-2.4133400000000003">
        <time>2021-06-19T09:38:15+0000</time>
      </trkpt>
      <trkpt lat="40.66024" lon="-2.4134100000000003">
        <time>2021-06-19T09:38:16+0000</time>
      </trkpt>
      <trkpt lat="40.66037" lon="-2.4134800000000003">
        <time>2021-06-19T09:38:17+0000</time>
      </trkpt>
      <trkpt lat="40.660500000000006" lon="-2.4135400000000002">
        <time>2021-06-19T09:38:18+0000</time>
      </trkpt>
      <trkpt lat="40.66064" lon="-2.4136100000000003">
        <time>2021-06-19T09:38:19+0000</time>
      </trkpt>
      <trkpt lat="40.66076" lon="-2.4136800000000003">
        <time>2021-06-19T09:38:20+0000</time>
      </trkpt>
      <trkpt lat="40.660880000000006" lon="-2.4137500000000003">
        <time>2021-06-19T09:38:21+0000</time>
      </trkpt>
      <trkpt lat="40.661" lon="-2.4138100000000002">
        <time>2021-06-19T09:38:22+0000</time>
      </trkpt>
      <trkpt lat="40.661120000000004" lon="-2.41386">
        <time>2021-06-19T09:38:23+0000</time>
      </trkpt>
      <trkpt lat="40.66124000000001" lon="-2.4138900000000003">
        <time>2021-06-19T09:38:24+0000</time>
      </trkpt>
      <trkpt lat="40.661370000000005" lon="-2.4138900000000003">
        <time>2021-06-19T09:38:25+0000</time>
      </trkpt>
      <trkpt lat="40.66151" lon="-2.4138800000000002">
        <time>2021-06-19T09:38:26+0000</time>
      </trkpt>
      <trkpt lat="40.66165" lon="-2.41386">
        <time>2021-06-19T09:38:27+0000</time>
      </trkpt>
      <trkpt lat="40.66178" lon="-2.41385">
        <time>2021-06-19T09:38:28+0000</time>
      </trkpt>
      <trkpt lat="40.661910000000006" lon="-2.4138300000000004">
        <time>2021-06-19T09:38:29+0000</time>
      </trkpt>
      <trkpt lat="40.66203" lon="-2.41379">
        <time>2021-06-19T09:38:30+0000</time>
      </trkpt>
      <trkpt lat="40.662150000000004" lon="-2.41371">
        <time>2021-06-19T09:38:31+0000</time>
      </trkpt>
      <trkpt lat="40.66226" lon="-2.4136">
        <time>2021-06-19T09:38:32+0000</time>
      </trkpt>
      <trkpt lat="40.66237" lon="-2.4134700000000002">
        <time>2021-06-19T09:38:33+0000</time>
      </trkpt>
      <trkpt lat="40.66248" lon="-2.41333">
        <time>2021-06-19T09:38:34+0000</time>
      </trkpt>
      <trkpt lat="40.66259" lon="-2.4132000000000002">
        <time>2021-06-19T09:38:35+0000</time>
      </trkpt>
      <trkpt lat="40.6627" lon="-2.4130700000000003">
        <time>2021-06-19T09:38:36+0000</time>
      </trkpt>
      <trkpt lat="40.66281" lon="-2.4129400000000003">
        <time>2021-06-19T09:38:37+0000</time>
      </trkpt>
      <trkpt lat="40.66292000000001" lon="-2.4128100000000003">
        <time>2021-06-19T09:38:38+0000</time>
      </trkpt>
      <trkpt lat="40.663030000000006" lon="-2.4126800000000004">
        <time>2021-06-19T09:38:39+0000</time>
      </trkpt>
      <trkpt lat="40.663140000000006" lon="-2.4125500000000004">
        <time>2021-06-19T09:38:40+0000</time>
      </trkpt>
      <trkpt lat="40.663250000000005" lon="-2.41242">
        <time>2021-06-19T09:38:41+0000</time>
      </trkpt>
      <trkpt lat="40.663360000000004" lon="-2.41229">
        <time>2021-06-19T09:38:42+0000</time>
      </trkpt>
      <trkpt lat="40.663470000000004" lon="-2.41216">
        <time>2021-06-19T09:38:43+0000</time>
      </trkpt>
      <trkpt lat="40.66358" lon="-2.41203">
        <time>2021-06-19T09:38:44+0000</time>
      </trkpt>
      <trkpt lat="40.66368000000001" lon="-2.4119">
        <time>2021-06-19T09:38:45+0000</time>
      </trkpt>
      <trkpt lat="40.66378" lon="-2.41177">
        <time>2021-06-19T09:38:46+0000</time>
      </trkpt>
      <trkpt lat="40.663880000000006" lon="-2.41161">
        <time>2021-06-19T09:38:47+0000</time>
      </trkpt>
      <trkpt lat="40.66396" lon="-2.4114500000000003">
        <time>2021-06-19T09:38:48+0000</time>
      </trkpt>
      <trkpt lat="40.66404" lon="-2.41128">
        <time>2021-06-19T09:38:49+0000</time>
      </trkpt>
      <trkpt lat="40.66414" lon="-2.4111100000000003">
        <time>2021-06-19T09:38:50+0000</time>
      </trkpt>
      <trkpt lat="40.66423" lon="-2.41094">
        <time>2021-06-19T09:38:51+0000</time>
      </trkpt>
      <trkpt lat="40.66433000000001" lon="-2.4107800000000004">
        <time>2021-06-19T09:38:52+0000</time>
      </trkpt>
      <trkpt lat="40.66443" lon="-2.4106300000000003">
        <time>2021-06-19T09:38:53+0000</time>
      </trkpt>
      <trkpt lat="40.664550000000006" lon="-2.4104900000000002">
        <time>2021-06-19T09:38:54+0000</time>
      </trkpt>
      <trkpt lat="40.664660000000005" lon="-2.4103600000000003">
        <time>2021-06-19T09:38:55+0000</time>
      </trkpt>
      <trkpt lat="40.66479" lon="-2.41021">
        <time>2021-06-19T09:38:56+0000</time>
      </trkpt>
      <trkpt lat="40.66492" lon="-2.41006">
        <time>2021-06-19T09:38:57+0000</time>
      </trkpt>
      <trkpt lat="40.665060000000004" lon="-2.4099000000000004">
        <time>2021-06-19T09:38:58+0000</time>
      </trkpt>
      <trkpt lat="40.665200000000006" lon="-2.4097500000000003">
        <time>2021-06-19T09:38:59+0000</time>
      </trkpt>
      <trkpt lat="40.66534" lon="-2.40959">
        <time>2021-06-19T09:39:00+0000</time>
      </trkpt>
      <trkpt lat="40.665470000000006" lon="-2.40944">
        <time>2021-06-19T09:39:01+0000</time>
      </trkpt>
      <trkpt lat="40.665600000000005" lon="-2.4092900000000004">
        <time>2021-06-19T09:39:02+0000</time>
      </trkpt>
      <trkpt lat="40.66573" lon="-2.4091400000000003">
        <time>2021-06-19T09:39:03+0000</time>
      </trkpt>
      <trkpt lat="40.66584" lon="-2.40899">
        <time>2021-06-19T09:39:04+0000</time>
      </trkpt>
      <trkpt lat="40.66595" lon="-2.40883">
        <time>2021-06-19T09:39:05+0000</time>
      </trkpt>
      <trkpt lat="40.66604" lon="-2.4086800000000004">
        <time>2021-06-19T09:39:06+0000</time>
      </trkpt>
      <trkpt lat="40.66612000000001" lon="-2.4085300000000003">
        <time>2021-06-19T09:39:07+0000</time>
      </trkpt>
      <trkpt lat="40.66621000000001" lon="-2.4083900000000003">
        <time>2021-06-19T09:39:08+0000</time>
      </trkpt>
      <trkpt lat="40.66628" lon="-2.4082500000000002">
        <time>2021-06-19T09:39:09+0000</time>
      </trkpt>
      <trkpt lat="40.666340000000005" lon="-2.40811">
        <time>2021-06-19T09:39:10+0000</time>
      </trkpt>
      <trkpt lat="40.6664" lon="-2.40795">
        <time>2021-06-19T09:39:11+0000</time>
      </trkpt>
      <trkpt lat="40.66644" lon="-2.4077800000000003">
        <time>2021-06-19T09:39:12+0000</time>
      </trkpt>
      <trkpt lat="40.666470000000004" lon="-2.4075900000000003">
        <time>2021-06-19T09:39:13+0000</time>
      </trkpt>
      <trkpt lat="40.666500000000006" lon="-2.40741">
        <time>2021-06-19T09:39:14+0000</time>
      </trkpt>
      <trkpt lat="40.66651" lon="-2.40723">
        <time>2021-06-19T09:39:15+0000</time>
      </trkpt>
      <trkpt lat="40.666540000000005" lon="-2.40706">
        <time>2021-06-19T09:39:16+0000</time>
      </trkpt>
      <trkpt lat="40.666560000000004" lon="-2.40689">
        <time>2021-06-19T09:39:17+0000</time>
      </trkpt>
      <trkpt lat="40.66659000000001" lon="-2.40674">
        <time>2021-06-19T09:39:18+0000</time>
      </trkpt>
      <trkpt lat="40.66662" lon="-2.40659">
        <time>2021-06-19T09:39:19+0000</time>
      </trkpt>
      <trkpt lat="40.66666" lon="-2.40645">
        <time>2021-06-19T09:39:20+0000</time>
      </trkpt>
      <trkpt lat="40.66671" lon="-2.40632">
        <time>2021-06-19T09:39:21+0000</time>
      </trkpt>
      <trkpt lat="40.66675" lon="-2.4062">
        <time>2021-06-19T09:39:22+0000</time>
      </trkpt>
      <trkpt lat="40.666790000000006" lon="-2.40608">
        <time>2021-06-19T09:39:23+0000</time>
      </trkpt>
      <trkpt lat="40.666830000000004" lon="-2.4059600000000003">
        <time>2021-06-19T09:39:24+0000</time>
      </trkpt>
      <trkpt lat="40.66686" lon="-2.40586">
        <time>2021-06-19T09:39:25+0000</time>
      </trkpt>
      <trkpt lat="40.66689" lon="-2.4057600000000003">
        <time>2021-06-19T09:39:26+0000</time>
      </trkpt>
      <trkpt lat="40.66693" lon="-2.40567">
        <time>2021-06-19T09:39:27+0000</time>
      </trkpt>
      <trkpt lat="40.66695" lon="-2.40559">
        <time>2021-06-19T09:39:28+0000</time>
      </trkpt>
      <trkpt lat="40.66698" lon="-2.4055000000000004">
        <time>2021-06-19T09:39:29+0000</time>
      </trkpt>
      <trkpt lat="40.667010000000005" lon="-2.4054200000000003">
        <time>2021-06-19T09:39:30+0000</time>
      </trkpt>
      <trkpt lat="40.667030000000004" lon="-2.4053400000000003">
        <time>2021-06-19T09:39:31+0000</time>
      </trkpt>
      <trkpt lat="40.667060000000006" lon="-2.40525">
        <time>2021-06-19T09:39:32+0000</time>
      </trkpt>
      <trkpt lat="40.66709" lon="-2.40517">
        <time>2021-06-19T09:39:33+0000</time>
      </trkpt>
      <trkpt lat="40.667120000000004" lon="-2.4050800000000003">
        <time>2021-06-19T09:39:34+0000</time>
      </trkpt>
      <trkpt lat="40.66714" lon="-2.4050000000000002">
        <time>2021-06-19T09:39:35+0000</time>
      </trkpt>
      <trkpt lat="40.667170000000006" lon="-2.40491">
        <time>2021-06-19T09:39:36+0000</time>
      </trkpt>
      <trkpt lat="40.6672" lon="-2.40483">
        <time>2021-06-19T09:39:37+0000</time>
      </trkpt>
      <trkpt lat="40.66723" lon="-2.40476">
        <time>2021-06-19T09:39:38+0000</time>
      </trkpt>
      <trkpt lat="40.667260000000006" lon="-2.40469">
        <time>2021-06-19T09:39:39+0000</time>
      </trkpt>
      <trkpt lat="40.667300000000004" lon="-2.40463">
        <time>2021-06-19T09:39:40+0000</time>
      </trkpt>
      <trkpt lat="40.66733000000001" lon="-2.40456">
        <time>2021-06-19T09:39:41+0000</time>
      </trkpt>
      <trkpt lat="40.667370000000005" lon="-2.4045">
        <time>2021-06-19T09:39:42+0000</time>
      </trkpt>
      <trkpt lat="40.6674" lon="-2.4044600000000003">
        <time>2021-06-19T09:39:43+0000</time>
      </trkpt>
      <trkpt lat="40.667440000000006" lon="-2.4044100000000004">
        <time>2021-06-19T09:39:44+0000</time>
      </trkpt>
      <trkpt lat="40.66747" lon="-2.40437">
        <time>2021-06-19T09:39:45+0000</time>
      </trkpt>
      <trkpt lat="40.667500000000004" lon="-2.4043300000000003">
        <time>2021-06-19T09:39:46+0000</time>
      </trkpt>
      <trkpt lat="40.66752" lon="-2.40429">
        <time>2021-06-19T09:39:47+0000</time>
      </trkpt>
      <trkpt lat="40.66754" lon="-2.4042600000000003">
        <time>2021-06-19T09:39:48+0000</time>
      </trkpt>
      <trkpt lat="40.66756" lon="-2.40423">
        <time>2021-06-19T09:39:49+0000</time>
      </trkpt>
      <trkpt lat="40.667570000000005" lon="-2.4042100000000004">
        <time>2021-06-19T09:39:50+0000</time>
      </trkpt>
      <trkpt lat="40.66758" lon="-2.40418">
        <time>2021-06-19T09:39:51+0000</time>
      </trkpt>
      <trkpt lat="40.6676" lon="-2.40415">
        <time>2021-06-19T09:39:52+0000</time>
      </trkpt>
      <trkpt lat="40.66761" lon="-2.40411">
        <time>2021-06-19T09:39:53+0000</time>
      </trkpt>
      <trkpt lat="40.66763" lon="-2.4040700000000004">
        <time>2021-06-19T09:39:54+0000</time>
      </trkpt>
      <trkpt lat="40.667660000000005" lon="-2.40402">
        <time>2021-06-19T09:39:55+0000</time>
      </trkpt>
      <trkpt lat="40.66769" lon="-2.40396">
        <time>2021-06-19T09:39:56+0000</time>
      </trkpt>
      <trkpt lat="40.667730000000006" lon="-2.40391">
        <time>2021-06-19T09:39:57+0000</time>
      </trkpt>
      <trkpt lat="40.66776" lon="-2.40384">
        <time>2021-06-19T09:39:58+0000</time>
      </trkpt>
      <trkpt lat="40.667790000000004" lon="-2.40377">
        <time>2021-06-19T09:39:59+0000</time>
      </trkpt>
      <trkpt lat="40.667820000000006" lon="-2.4037">
        <time>2021-06-19T09:40:00+0000</time>
      </trkpt>
      <trkpt lat="40.66785" lon="-2.40363">
        <time>2021-06-19T09:40:01+0000</time>
      </trkpt>
      <trkpt lat="40.66789" lon="-2.40357">
        <time>2021-06-19T09:40:02+0000</time>
      </trkpt>
      <trkpt lat="40.66792" lon="-2.4035100000000003">
        <time>2021-06-19T09:40:03+0000</time>
      </trkpt>
      <trkpt lat="40.66794" lon="-2.40347">
        <time>2021-06-19T09:40:04+0000</time>
      </trkpt>
      <trkpt lat="40.667970000000004" lon="-2.40342">
        <time>2021-06-19T09:40:05+0000</time>
      </trkpt>
      <trkpt lat="40.668000000000006" lon="-2.4033800000000003">
        <time>2021-06-19T09:40:06+0000</time>
      </trkpt>
      <trkpt lat="40.66803" lon="-2.40334">
        <time>2021-06-19T09:40:07+0000</time>
      </trkpt>
      <trkpt lat="40.66807" lon="-2.4033">
        <time>2021-06-19T09:40:08+0000</time>
      </trkpt>
      <trkpt lat="40.6681" lon="-2.4032600000000004">
        <time>2021-06-19T09:40:09+0000</time>
      </trkpt>
      <trkpt lat="40.668150000000004" lon="-2.40323">
        <time>2021-06-19T09:40:10+0000</time>
      </trkpt>
      <trkpt lat="40.66819" lon="-2.40321">
        <time>2021-06-19T09:40:11+0000</time>
      </trkpt>
      <trkpt lat="40.66823" lon="-2.4031900000000004">
        <time>2021-06-19T09:40:12+0000</time>
      </trkpt>
      <trkpt lat="40.668260000000004" lon="-2.4031700000000003">
        <time>2021-06-19T09:40:13+0000</time>
      </trkpt>
      <trkpt lat="40.668290000000006" lon="-2.4031700000000003">
        <time>2021-06-19T09:40:14+0000</time>
      </trkpt>
      <trkpt lat="40.66832" lon="-2.40316">
        <time>2021-06-19T09:40:15+0000</time>
      </trkpt>
      <trkpt lat="40.668350000000004" lon="-2.40314">
        <time>2021-06-19T09:40:16+0000</time>
      </trkpt>
      <trkpt lat="40.66837" lon="-2.4031200000000004">
        <time>2021-06-19T09:40:17+0000</time>
      </trkpt>
      <trkpt lat="40.66839" lon="-2.40309">
        <time>2021-06-19T09:40:18+0000</time>
      </trkpt>
      <trkpt lat="40.66841" lon="-2.40307">
        <time>2021-06-19T09:40:19+0000</time>
      </trkpt>
      <trkpt lat="40.66843" lon="-2.4030400000000003">
        <time>2021-06-19T09:40:20+0000</time>
      </trkpt>
      <trkpt lat="40.668440000000004" lon="-2.40302">
        <time>2021-06-19T09:40:21+0000</time>
      </trkpt>
      <trkpt lat="40.66845" lon="-2.403">
        <time>2021-06-19T09:40:22+0000</time>
      </trkpt>
      <trkpt lat="40.668470000000006" lon="-2.4029700000000003">
        <time>2021-06-19T09:40:23+0000</time>
      </trkpt>
      <trkpt lat="40.66848" lon="-2.40295">
        <time>2021-06-19T09:40:24+0000</time>
      </trkpt>
      <trkpt lat="40.668490000000006" lon="-2.40294">
        <time>2021-06-19T09:40:25+0000</time>
      </trkpt>
      <trkpt lat="40.6685" lon="-2.4029200000000004">
        <time>2021-06-19T09:40:26+0000</time>
      </trkpt>
      <trkpt lat="40.668510000000005" lon="-2.4029100000000003">
        <time>2021-06-19T09:40:27+0000</time>
      </trkpt>
      <trkpt lat="40.668530000000004" lon="-2.40288">
        <time>2021-06-19T09:40:29+0000</time>
      </trkpt>
      <trkpt lat="40.66854" lon="-2.4028500000000004">
        <time>2021-06-19T09:40:30+0000</time>
      </trkpt>
      <trkpt lat="40.66857" lon="-2.4028300000000002">
        <time>2021-06-19T09:40:56+0000</time>
      </trkpt>
      <trkpt lat="40.66859" lon="-2.40281">
        <time>2021-06-19T09:40:57+0000</time>
      </trkpt>
      <trkpt lat="40.66861" lon="-2.4028">
        <time>2021-06-19T09:40:58+0000</time>
      </trkpt>
      <trkpt lat="40.668620000000004" lon="-2.4027800000000004">
        <time>2021-06-19T09:40:59+0000</time>
      </trkpt>
      <trkpt lat="40.66863" lon="-2.4027700000000003">
        <time>2021-06-19T09:41:00+0000</time>
      </trkpt>
      <trkpt lat="40.66864" lon="-2.40275">
        <time>2021-06-19T09:41:01+0000</time>
      </trkpt>
      <trkpt lat="40.66865000000001" lon="-2.40274">
        <time>2021-06-19T09:41:02+0000</time>
      </trkpt>
      <trkpt lat="40.668690000000005" lon="-2.40275">
        <time>2021-06-19T09:41:29+0000</time>
      </trkpt>
      <trkpt lat="40.66872" lon="-2.40275">
        <time>2021-06-19T09:41:30+0000</time>
      </trkpt>
      <trkpt lat="40.66874000000001" lon="-2.40274">
        <time>2021-06-19T09:41:31+0000</time>
      </trkpt>
      <trkpt lat="40.66877" lon="-2.40273">
        <time>2021-06-19T09:41:32+0000</time>
      </trkpt>
      <trkpt lat="40.668800000000005" lon="-2.4027100000000003">
        <time>2021-06-19T09:41:33+0000</time>
      </trkpt>
      <trkpt lat="40.668820000000004" lon="-2.40268">
        <time>2021-06-19T09:41:34+0000</time>
      </trkpt>
      <trkpt lat="40.668850000000006" lon="-2.40266">
        <time>2021-06-19T09:41:35+0000</time>
      </trkpt>
      <trkpt lat="40.668870000000005" lon="-2.40266">
        <time>2021-06-19T09:41:36+0000</time>
      </trkpt>
      <trkpt lat="40.668890000000005" lon="-2.4026500000000004">
        <time>2021-06-19T09:41:37+0000</time>
      </trkpt>
      <trkpt lat="40.66897" lon="-2.4026">
        <time>2021-06-19T09:41:48+0000</time>
      </trkpt>
      <trkpt lat="40.669000000000004" lon="-2.40259">
        <time>2021-06-19T09:41:49+0000</time>
      </trkpt>
      <trkpt lat="40.66903000000001" lon="-2.40259">
        <time>2021-06-19T09:41:50+0000</time>
      </trkpt>
      <trkpt lat="40.669050000000006" lon="-2.4025800000000004">
        <time>2021-06-19T09:41:51+0000</time>
      </trkpt>
      <trkpt lat="40.66908" lon="-2.4026">
        <time>2021-06-19T09:41:52+0000</time>
      </trkpt>
      <trkpt lat="40.66911" lon="-2.40262">
        <time>2021-06-19T09:41:53+0000</time>
      </trkpt>
      <trkpt lat="40.669180000000004" lon="-2.4026">
        <time>2021-06-19T09:42:09+0000</time>
      </trkpt>
      <trkpt lat="40.66921000000001" lon="-2.40259">
        <time>2021-06-19T09:42:10+0000</time>
      </trkpt>
      <trkpt lat="40.66926" lon="-2.4025800000000004">
        <time>2021-06-19T09:42:11+0000</time>
      </trkpt>
      <trkpt lat="40.6693" lon="-2.4025700000000003">
        <time>2021-06-19T09:42:12+0000</time>
      </trkpt>
      <trkpt lat="40.66933" lon="-2.4025700000000003">
        <time>2021-06-19T09:42:13+0000</time>
      </trkpt>
      <trkpt lat="40.66935" lon="-2.4025600000000003">
        <time>2021-06-19T09:42:14+0000</time>
      </trkpt>
      <trkpt lat="40.66937" lon="-2.4025600000000003">
        <time>2021-06-19T09:42:15+0000</time>
      </trkpt>
      <trkpt lat="40.66939" lon="-2.40255">
        <time>2021-06-19T09:42:16+0000</time>
      </trkpt>
      <trkpt lat="40.66942" lon="-2.4025600000000003">
        <time>2021-06-19T09:42:37+0000</time>
      </trkpt>
      <trkpt lat="40.669450000000005" lon="-2.4025600000000003">
        <time>2021-06-19T09:42:38+0000</time>
      </trkpt>
      <trkpt lat="40.669500000000006" lon="-2.40259">
        <time>2021-06-19T09:42:39+0000</time>
      </trkpt>
      <trkpt lat="40.669520000000006" lon="-2.40262">
        <time>2021-06-19T09:42:40+0000</time>
      </trkpt>
      <trkpt lat="40.66953" lon="-2.4026500000000004">
        <time>2021-06-19T09:42:41+0000</time>
      </trkpt>
      <trkpt lat="40.66951" lon="-2.40269">
        <time>2021-06-19T09:42:42+0000</time>
      </trkpt>
      <trkpt lat="40.669520000000006" lon="-2.40273">
        <time>2021-06-19T09:42:43+0000</time>
      </trkpt>
      <trkpt lat="40.669520000000006" lon="-2.4027600000000002">
        <time>2021-06-19T09:42:44+0000</time>
      </trkpt>
      <trkpt lat="40.66955" lon="-2.4028400000000003">
        <time>2021-06-19T10:43:01+0000</time>
      </trkpt>
      <trkpt lat="40.66962" lon="-2.4027800000000004">
        <time>2021-06-19T10:44:10+0000</time>
      </trkpt>
      <trkpt lat="40.66962" lon="-2.4027700000000003">
        <time>2021-06-19T10:44:11+0000</time>
      </trkpt>
      <trkpt lat="40.66962" lon="-2.4027600000000002">
        <time>2021-06-19T10:44:12+0000</time>
      </trkpt>
      <trkpt lat="40.66962" lon="-2.40275">
        <time>2021-06-19T10:44:13+0000</time>
      </trkpt>
      <trkpt lat="40.66962" lon="-2.40273">
        <time>2021-06-19T10:44:14+0000</time>
      </trkpt>
      <trkpt lat="40.66962" lon="-2.4027100000000003">
        <time>2021-06-19T10:44:15+0000</time>
      </trkpt>
      <trkpt lat="40.66962" lon="-2.40269">
        <time>2021-06-19T10:44:16+0000</time>
      </trkpt>
      <trkpt lat="40.66962" lon="-2.40267">
        <time>2021-06-19T10:44:17+0000</time>
      </trkpt>
      <trkpt lat="40.669610000000006" lon="-2.4026400000000003">
        <time>2021-06-19T10:44:18+0000</time>
      </trkpt>
      <trkpt lat="40.669610000000006" lon="-2.40261">
        <time>2021-06-19T10:44:19+0000</time>
      </trkpt>
      <trkpt lat="40.6696" lon="-2.40259">
        <time>2021-06-19T10:44:20+0000</time>
      </trkpt>
      <trkpt lat="40.6696" lon="-2.4025800000000004">
        <time>2021-06-19T10:44:21+0000</time>
      </trkpt>
      <trkpt lat="40.66958" lon="-2.4025600000000003">
        <time>2021-06-19T10:44:22+0000</time>
      </trkpt>
      <trkpt lat="40.66955" lon="-2.4025600000000003">
        <time>2021-06-19T10:44:23+0000</time>
      </trkpt>
      <trkpt lat="40.66953" lon="-2.40254">
        <time>2021-06-19T10:44:24+0000</time>
      </trkpt>
      <trkpt lat="40.669500000000006" lon="-2.40255">
        <time>2021-06-19T10:44:25+0000</time>
      </trkpt>
      <trkpt lat="40.66948" lon="-2.40254">
        <time>2021-06-19T10:44:26+0000</time>
      </trkpt>
      <trkpt lat="40.66946" lon="-2.40254">
        <time>2021-06-19T10:44:27+0000</time>
      </trkpt>
      <trkpt lat="40.669430000000006" lon="-2.40253">
        <time>2021-06-19T10:44:28+0000</time>
      </trkpt>
      <trkpt lat="40.66939" lon="-2.40254">
        <time>2021-06-19T10:44:29+0000</time>
      </trkpt>
      <trkpt lat="40.66935" lon="-2.40255">
        <time>2021-06-19T10:44:30+0000</time>
      </trkpt>
      <trkpt lat="40.669320000000006" lon="-2.4025600000000003">
        <time>2021-06-19T10:44:31+0000</time>
      </trkpt>
      <trkpt lat="40.6693" lon="-2.4025600000000003">
        <time>2021-06-19T10:44:32+0000</time>
      </trkpt>
      <trkpt lat="40.66928" lon="-2.4025600000000003">
        <time>2021-06-19T10:44:33+0000</time>
      </trkpt>
      <trkpt lat="40.669250000000005" lon="-2.4025700000000003">
        <time>2021-06-19T10:44:34+0000</time>
      </trkpt>
      <trkpt lat="40.669230000000006" lon="-2.4025700000000003">
        <time>2021-06-19T10:44:35+0000</time>
      </trkpt>
      <trkpt lat="40.66921000000001" lon="-2.4025700000000003">
        <time>2021-06-19T10:44:36+0000</time>
      </trkpt>
      <trkpt lat="40.66919" lon="-2.4025700000000003">
        <time>2021-06-19T10:44:37+0000</time>
      </trkpt>
      <trkpt lat="40.66917" lon="-2.4025800000000004">
        <time>2021-06-19T10:44:38+0000</time>
      </trkpt>
      <trkpt lat="40.669160000000005" lon="-2.4025800000000004">
        <time>2021-06-19T10:44:39+0000</time>
      </trkpt>
      <trkpt lat="40.66915" lon="-2.4025800000000004">
        <time>2021-06-19T10:44:40+0000</time>
      </trkpt>
      <trkpt lat="40.66913" lon="-2.4025800000000004">
        <time>2021-06-19T10:44:41+0000</time>
      </trkpt>
      <trkpt lat="40.66913" lon="-2.4025800000000004">
        <time>2021-06-19T10:44:42+0000</time>
      </trkpt>
      <trkpt lat="40.66911" lon="-2.4025800000000004">
        <time>2021-06-19T10:44:43+0000</time>
      </trkpt>
      <trkpt lat="40.66903000000001" lon="-2.4026">
        <time>2021-06-19T10:46:40+0000</time>
      </trkpt>
      <trkpt lat="40.669000000000004" lon="-2.40259">
        <time>2021-06-19T10:46:41+0000</time>
      </trkpt>
      <trkpt lat="40.668980000000005" lon="-2.40259">
        <time>2021-06-19T10:46:42+0000</time>
      </trkpt>
      <trkpt lat="40.668960000000006" lon="-2.40259">
        <time>2021-06-19T10:46:43+0000</time>
      </trkpt>
      <trkpt lat="40.66893" lon="-2.40259">
        <time>2021-06-19T10:46:44+0000</time>
      </trkpt>
      <trkpt lat="40.668910000000004" lon="-2.40259">
        <time>2021-06-19T10:46:45+0000</time>
      </trkpt>
      <trkpt lat="40.66888" lon="-2.4026">
        <time>2021-06-19T10:46:46+0000</time>
      </trkpt>
      <trkpt lat="40.66886" lon="-2.40262">
        <time>2021-06-19T10:46:47+0000</time>
      </trkpt>
      <trkpt lat="40.66883" lon="-2.4026400000000003">
        <time>2021-06-19T10:46:48+0000</time>
      </trkpt>
      <trkpt lat="40.668800000000005" lon="-2.4026500000000004">
        <time>2021-06-19T10:46:49+0000</time>
      </trkpt>
      <trkpt lat="40.66877" lon="-2.40267">
        <time>2021-06-19T10:46:50+0000</time>
      </trkpt>
      <trkpt lat="40.66874000000001" lon="-2.40269">
        <time>2021-06-19T10:46:51+0000</time>
      </trkpt>
      <trkpt lat="40.6687" lon="-2.4027000000000003">
        <time>2021-06-19T10:46:52+0000</time>
      </trkpt>
      <trkpt lat="40.668670000000006" lon="-2.4027000000000003">
        <time>2021-06-19T10:46:53+0000</time>
      </trkpt>
      <trkpt lat="40.66864" lon="-2.4027100000000003">
        <time>2021-06-19T10:46:54+0000</time>
      </trkpt>
      <trkpt lat="40.668620000000004" lon="-2.40273">
        <time>2021-06-19T10:46:55+0000</time>
      </trkpt>
      <trkpt lat="40.668600000000005" lon="-2.40274">
        <time>2021-06-19T10:46:56+0000</time>
      </trkpt>
      <trkpt lat="40.668580000000006" lon="-2.4027600000000002">
        <time>2021-06-19T10:46:57+0000</time>
      </trkpt>
      <trkpt lat="40.66856000000001" lon="-2.4027800000000004">
        <time>2021-06-19T10:46:58+0000</time>
      </trkpt>
      <trkpt lat="40.66854" lon="-2.4028">
        <time>2021-06-19T10:46:59+0000</time>
      </trkpt>
      <trkpt lat="40.66852" lon="-2.4028300000000002">
        <time>2021-06-19T10:47:00+0000</time>
      </trkpt>
      <trkpt lat="40.6685" lon="-2.40286">
        <time>2021-06-19T10:47:01+0000</time>
      </trkpt>
      <trkpt lat="40.66848" lon="-2.4029000000000003">
        <time>2021-06-19T10:47:02+0000</time>
      </trkpt>
      <trkpt lat="40.66845" lon="-2.40293">
        <time>2021-06-19T10:47:03+0000</time>
      </trkpt>
      <trkpt lat="40.66843" lon="-2.40295">
        <time>2021-06-19T10:47:04+0000</time>
      </trkpt>
      <trkpt lat="40.668420000000005" lon="-2.4029900000000004">
        <time>2021-06-19T10:47:05+0000</time>
      </trkpt>
      <trkpt lat="40.668400000000005" lon="-2.40302">
        <time>2021-06-19T10:47:06+0000</time>
      </trkpt>
      <trkpt lat="40.668380000000006" lon="-2.4030600000000004">
        <time>2021-06-19T10:47:07+0000</time>
      </trkpt>
      <trkpt lat="40.66836" lon="-2.40309">
        <time>2021-06-19T10:47:08+0000</time>
      </trkpt>
      <trkpt lat="40.668330000000005" lon="-2.4031200000000004">
        <time>2021-06-19T10:47:09+0000</time>
      </trkpt>
      <trkpt lat="40.668310000000005" lon="-2.40314">
        <time>2021-06-19T10:47:10+0000</time>
      </trkpt>
      <trkpt lat="40.66828" lon="-2.40316">
        <time>2021-06-19T10:47:11+0000</time>
      </trkpt>
      <trkpt lat="40.668240000000004" lon="-2.4031900000000004">
        <time>2021-06-19T10:47:12+0000</time>
      </trkpt>
      <trkpt lat="40.668200000000006" lon="-2.40321">
        <time>2021-06-19T10:47:13+0000</time>
      </trkpt>
      <trkpt lat="40.66814" lon="-2.4032400000000003">
        <time>2021-06-19T10:47:14+0000</time>
      </trkpt>
      <trkpt lat="40.66809000000001" lon="-2.40327">
        <time>2021-06-19T10:47:15+0000</time>
      </trkpt>
      <trkpt lat="40.66803" lon="-2.4033100000000003">
        <time>2021-06-19T10:47:16+0000</time>
      </trkpt>
      <trkpt lat="40.66799" lon="-2.4033700000000002">
        <time>2021-06-19T10:47:17+0000</time>
      </trkpt>
      <trkpt lat="40.667950000000005" lon="-2.40343">
        <time>2021-06-19T10:47:18+0000</time>
      </trkpt>
      <trkpt lat="40.667910000000006" lon="-2.4035">
        <time>2021-06-19T10:47:19+0000</time>
      </trkpt>
      <trkpt lat="40.667880000000004" lon="-2.40357">
        <time>2021-06-19T10:47:20+0000</time>
      </trkpt>
      <trkpt lat="40.667840000000005" lon="-2.40364">
        <time>2021-06-19T10:47:21+0000</time>
      </trkpt>
      <trkpt lat="40.66780000000001" lon="-2.4037200000000003">
        <time>2021-06-19T10:47:22+0000</time>
      </trkpt>
      <trkpt lat="40.667750000000005" lon="-2.40381">
        <time>2021-06-19T10:47:23+0000</time>
      </trkpt>
      <trkpt lat="40.66771000000001" lon="-2.40391">
        <time>2021-06-19T10:47:24+0000</time>
      </trkpt>
      <trkpt lat="40.667660000000005" lon="-2.40401">
        <time>2021-06-19T10:47:25+0000</time>
      </trkpt>
      <trkpt lat="40.6676" lon="-2.40411">
        <time>2021-06-19T10:47:26+0000</time>
      </trkpt>
      <trkpt lat="40.66754" lon="-2.40422">
        <time>2021-06-19T10:47:27+0000</time>
      </trkpt>
      <trkpt lat="40.667460000000005" lon="-2.40435">
        <time>2021-06-19T10:47:28+0000</time>
      </trkpt>
      <trkpt lat="40.66738" lon="-2.40449">
        <time>2021-06-19T10:47:29+0000</time>
      </trkpt>
      <trkpt lat="40.66729" lon="-2.40462">
        <time>2021-06-19T10:47:30+0000</time>
      </trkpt>
      <trkpt lat="40.6672" lon="-2.40479">
        <time>2021-06-19T10:47:31+0000</time>
      </trkpt>
      <trkpt lat="40.66713" lon="-2.40498">
        <time>2021-06-19T10:47:32+0000</time>
      </trkpt>
      <trkpt lat="40.667060000000006" lon="-2.40518">
        <time>2021-06-19T10:47:33+0000</time>
      </trkpt>
      <trkpt lat="40.667" lon="-2.40537">
        <time>2021-06-19T10:47:34+0000</time>
      </trkpt>
      <trkpt lat="40.66695" lon="-2.4055500000000003">
        <time>2021-06-19T10:47:35+0000</time>
      </trkpt>
      <trkpt lat="40.66689" lon="-2.40572">
        <time>2021-06-19T10:47:36+0000</time>
      </trkpt>
      <trkpt lat="40.66684" lon="-2.40587">
        <time>2021-06-19T10:47:37+0000</time>
      </trkpt>
      <trkpt lat="40.666790000000006" lon="-2.4060200000000003">
        <time>2021-06-19T10:47:38+0000</time>
      </trkpt>
      <trkpt lat="40.666740000000004" lon="-2.4061700000000004">
        <time>2021-06-19T10:47:39+0000</time>
      </trkpt>
      <trkpt lat="40.66669" lon="-2.40632">
        <time>2021-06-19T10:47:40+0000</time>
      </trkpt>
      <trkpt lat="40.66664" lon="-2.40648">
        <time>2021-06-19T10:47:41+0000</time>
      </trkpt>
      <trkpt lat="40.6666" lon="-2.4066300000000003">
        <time>2021-06-19T10:47:42+0000</time>
      </trkpt>
      <trkpt lat="40.666560000000004" lon="-2.40679">
        <time>2021-06-19T10:47:43+0000</time>
      </trkpt>
      <trkpt lat="40.666540000000005" lon="-2.40696">
        <time>2021-06-19T10:47:44+0000</time>
      </trkpt>
      <trkpt lat="40.666520000000006" lon="-2.40713">
        <time>2021-06-19T10:47:45+0000</time>
      </trkpt>
      <trkpt lat="40.666500000000006" lon="-2.4073">
        <time>2021-06-19T10:47:46+0000</time>
      </trkpt>
      <trkpt lat="40.66649" lon="-2.40749">
        <time>2021-06-19T10:47:47+0000</time>
      </trkpt>
      <trkpt lat="40.666470000000004" lon="-2.4076600000000004">
        <time>2021-06-19T10:47:48+0000</time>
      </trkpt>
      <trkpt lat="40.66644" lon="-2.40782">
        <time>2021-06-19T10:47:49+0000</time>
      </trkpt>
      <trkpt lat="40.6664" lon="-2.40797">
        <time>2021-06-19T10:47:50+0000</time>
      </trkpt>
      <trkpt lat="40.666340000000005" lon="-2.4081200000000003">
        <time>2021-06-19T10:47:51+0000</time>
      </trkpt>
      <trkpt lat="40.66628" lon="-2.4082700000000004">
        <time>2021-06-19T10:47:52+0000</time>
      </trkpt>
      <trkpt lat="40.6662" lon="-2.4084100000000004">
        <time>2021-06-19T10:47:53+0000</time>
      </trkpt>
      <trkpt lat="40.66611" lon="-2.40856">
        <time>2021-06-19T10:47:54+0000</time>
      </trkpt>
      <trkpt lat="40.66602" lon="-2.40871">
        <time>2021-06-19T10:47:55+0000</time>
      </trkpt>
      <trkpt lat="40.66593" lon="-2.4088600000000002">
        <time>2021-06-19T10:47:56+0000</time>
      </trkpt>
      <trkpt lat="40.66584" lon="-2.4090000000000003">
        <time>2021-06-19T10:47:57+0000</time>
      </trkpt>
      <trkpt lat="40.66574000000001" lon="-2.40911">
        <time>2021-06-19T10:47:58+0000</time>
      </trkpt>
      <trkpt lat="40.66566" lon="-2.4092200000000004">
        <time>2021-06-19T10:47:59+0000</time>
      </trkpt>
      <trkpt lat="40.66557" lon="-2.40932">
        <time>2021-06-19T10:48:00+0000</time>
      </trkpt>
      <trkpt lat="40.66548" lon="-2.4094300000000004">
        <time>2021-06-19T10:48:01+0000</time>
      </trkpt>
      <trkpt lat="40.66539" lon="-2.40953">
        <time>2021-06-19T10:48:02+0000</time>
      </trkpt>
      <trkpt lat="40.665290000000006" lon="-2.40964">
        <time>2021-06-19T10:48:03+0000</time>
      </trkpt>
      <trkpt lat="40.66519" lon="-2.4097500000000003">
        <time>2021-06-19T10:48:04+0000</time>
      </trkpt>
      <trkpt lat="40.665090000000006" lon="-2.40986">
        <time>2021-06-19T10:48:05+0000</time>
      </trkpt>
      <trkpt lat="40.66499" lon="-2.4099700000000004">
        <time>2021-06-19T10:48:06+0000</time>
      </trkpt>
      <trkpt lat="40.66489000000001" lon="-2.4100800000000002">
        <time>2021-06-19T10:48:07+0000</time>
      </trkpt>
      <trkpt lat="40.66479" lon="-2.41019">
        <time>2021-06-19T10:48:08+0000</time>
      </trkpt>
      <trkpt lat="40.66469" lon="-2.4103100000000004">
        <time>2021-06-19T10:48:09+0000</time>
      </trkpt>
      <trkpt lat="40.664590000000004" lon="-2.4104200000000002">
        <time>2021-06-19T10:48:10+0000</time>
      </trkpt>
      <trkpt lat="40.66451" lon="-2.41053">
        <time>2021-06-19T10:48:11+0000</time>
      </trkpt>
      <trkpt lat="40.66442" lon="-2.4106400000000003">
        <time>2021-06-19T10:48:12+0000</time>
      </trkpt>
      <trkpt lat="40.66433000000001" lon="-2.4107600000000002">
        <time>2021-06-19T10:48:13+0000</time>
      </trkpt>
      <trkpt lat="40.66425" lon="-2.41089">
        <time>2021-06-19T10:48:14+0000</time>
      </trkpt>
      <trkpt lat="40.66418" lon="-2.4110400000000003">
        <time>2021-06-19T10:48:15+0000</time>
      </trkpt>
      <trkpt lat="40.664100000000005" lon="-2.4111900000000004">
        <time>2021-06-19T10:48:16+0000</time>
      </trkpt>
      <trkpt lat="40.66402" lon="-2.41134">
        <time>2021-06-19T10:48:17+0000</time>
      </trkpt>
      <trkpt lat="40.663940000000004" lon="-2.41149">
        <time>2021-06-19T10:48:18+0000</time>
      </trkpt>
      <trkpt lat="40.66386000000001" lon="-2.41163">
        <time>2021-06-19T10:48:19+0000</time>
      </trkpt>
      <trkpt lat="40.66378" lon="-2.41177">
        <time>2021-06-19T10:48:20+0000</time>
      </trkpt>
      <trkpt lat="40.663700000000006" lon="-2.41189">
        <time>2021-06-19T10:48:21+0000</time>
      </trkpt>
      <trkpt lat="40.6636" lon="-2.41201">
        <time>2021-06-19T10:48:22+0000</time>
      </trkpt>
      <trkpt lat="40.663500000000006" lon="-2.4121300000000003">
        <time>2021-06-19T10:48:23+0000</time>
      </trkpt>
      <trkpt lat="40.6634" lon="-2.4122500000000002">
        <time>2021-06-19T10:48:24+0000</time>
      </trkpt>
      <trkpt lat="40.66329" lon="-2.41237">
        <time>2021-06-19T10:48:25+0000</time>
      </trkpt>
      <trkpt lat="40.663180000000004" lon="-2.41249">
        <time>2021-06-19T10:48:26+0000</time>
      </trkpt>
      <trkpt lat="40.66308" lon="-2.41262">
        <time>2021-06-19T10:48:27+0000</time>
      </trkpt>
      <trkpt lat="40.66297" lon="-2.4127400000000003">
        <time>2021-06-19T10:48:28+0000</time>
      </trkpt>
      <trkpt lat="40.662870000000005" lon="-2.4128600000000002">
        <time>2021-06-19T10:48:29+0000</time>
      </trkpt>
      <trkpt lat="40.662760000000006" lon="-2.41299">
        <time>2021-06-19T10:48:30+0000</time>
      </trkpt>
      <trkpt lat="40.662650000000006" lon="-2.41312">
        <time>2021-06-19T10:48:31+0000</time>
      </trkpt>
      <trkpt lat="40.66255" lon="-2.41325">
        <time>2021-06-19T10:48:32+0000</time>
      </trkpt>
      <trkpt lat="40.662440000000004" lon="-2.41338">
        <time>2021-06-19T10:48:33+0000</time>
      </trkpt>
      <trkpt lat="40.662330000000004" lon="-2.41351">
        <time>2021-06-19T10:48:34+0000</time>
      </trkpt>
      <trkpt lat="40.662220000000005" lon="-2.4136300000000004">
        <time>2021-06-19T10:48:35+0000</time>
      </trkpt>
      <trkpt lat="40.6621" lon="-2.41374">
        <time>2021-06-19T10:48:36+0000</time>
      </trkpt>
      <trkpt lat="40.661970000000004" lon="-2.4138100000000002">
        <time>2021-06-19T10:48:37+0000</time>
      </trkpt>
      <trkpt lat="40.661820000000006" lon="-2.41385">
        <time>2021-06-19T10:48:38+0000</time>
      </trkpt>
      <trkpt lat="40.661660000000005" lon="-2.41386">
        <time>2021-06-19T10:48:39+0000</time>
      </trkpt>
      <trkpt lat="40.661500000000004" lon="-2.41387">
        <time>2021-06-19T10:48:40+0000</time>
      </trkpt>
      <trkpt lat="40.661350000000006" lon="-2.4138900000000003">
        <time>2021-06-19T10:48:41+0000</time>
      </trkpt>
      <trkpt lat="40.6612" lon="-2.4138800000000002">
        <time>2021-06-19T10:48:42+0000</time>
      </trkpt>
      <trkpt lat="40.661060000000006" lon="-2.41384">
        <time>2021-06-19T10:48:43+0000</time>
      </trkpt>
      <trkpt lat="40.66091" lon="-2.4137600000000003">
        <time>2021-06-19T10:48:44+0000</time>
      </trkpt>
      <trkpt lat="40.66075" lon="-2.4136900000000003">
        <time>2021-06-19T10:48:45+0000</time>
      </trkpt>
      <trkpt lat="40.660590000000006" lon="-2.41359">
        <time>2021-06-19T10:48:46+0000</time>
      </trkpt>
      <trkpt lat="40.66042" lon="-2.4135">
        <time>2021-06-19T10:48:47+0000</time>
      </trkpt>
      <trkpt lat="40.66026" lon="-2.4134100000000003">
        <time>2021-06-19T10:48:48+0000</time>
      </trkpt>
      <trkpt lat="40.6601" lon="-2.41332">
        <time>2021-06-19T10:48:49+0000</time>
      </trkpt>
      <trkpt lat="40.659940000000006" lon="-2.41324">
        <time>2021-06-19T10:48:50+0000</time>
      </trkpt>
      <trkpt lat="40.65977" lon="-2.4131600000000004">
        <time>2021-06-19T10:48:51+0000</time>
      </trkpt>
      <trkpt lat="40.659600000000005" lon="-2.4130800000000003">
        <time>2021-06-19T10:48:52+0000</time>
      </trkpt>
      <trkpt lat="40.659420000000004" lon="-2.4130200000000004">
        <time>2021-06-19T10:48:53+0000</time>
      </trkpt>
      <trkpt lat="40.659240000000004" lon="-2.41299">
        <time>2021-06-19T10:48:54+0000</time>
      </trkpt>
      <trkpt lat="40.659060000000004" lon="-2.41298">
        <time>2021-06-19T10:48:55+0000</time>
      </trkpt>
      <trkpt lat="40.65887" lon="-2.41297">
        <time>2021-06-19T10:48:56+0000</time>
      </trkpt>
      <trkpt lat="40.658710000000006" lon="-2.41296">
        <time>2021-06-19T10:48:57+0000</time>
      </trkpt>
      <trkpt lat="40.65854" lon="-2.4129400000000003">
        <time>2021-06-19T10:48:58+0000</time>
      </trkpt>
      <trkpt lat="40.6584" lon="-2.41292">
        <time>2021-06-19T10:48:59+0000</time>
      </trkpt>
      <trkpt lat="40.658260000000006" lon="-2.4128800000000004">
        <time>2021-06-19T10:49:00+0000</time>
      </trkpt>
      <trkpt lat="40.65813" lon="-2.4128000000000003">
        <time>2021-06-19T10:49:01+0000</time>
      </trkpt>
      <trkpt lat="40.657990000000005" lon="-2.41271">
        <time>2021-06-19T10:49:02+0000</time>
      </trkpt>
      <trkpt lat="40.65787" lon="-2.4126100000000004">
        <time>2021-06-19T10:49:03+0000</time>
      </trkpt>
      <trkpt lat="40.657740000000004" lon="-2.41251">
        <time>2021-06-19T10:49:04+0000</time>
      </trkpt>
      <trkpt lat="40.65762" lon="-2.41242">
        <time>2021-06-19T10:49:05+0000</time>
      </trkpt>
      <trkpt lat="40.657500000000006" lon="-2.4123300000000003">
        <time>2021-06-19T10:49:06+0000</time>
      </trkpt>
      <trkpt lat="40.65738" lon="-2.4122700000000004">
        <time>2021-06-19T10:49:07+0000</time>
      </trkpt>
      <trkpt lat="40.65728" lon="-2.41222">
        <time>2021-06-19T10:49:08+0000</time>
      </trkpt>
      <trkpt lat="40.657180000000004" lon="-2.4122000000000003">
        <time>2021-06-19T10:49:09+0000</time>
      </trkpt>
      <trkpt lat="40.657090000000004" lon="-2.41222">
        <time>2021-06-19T10:49:10+0000</time>
      </trkpt>
      <trkpt lat="40.65701000000001" lon="-2.41229">
        <time>2021-06-19T10:49:11+0000</time>
      </trkpt>
      <trkpt lat="40.656940000000006" lon="-2.41238">
        <time>2021-06-19T10:49:12+0000</time>
      </trkpt>
      <trkpt lat="40.65684" lon="-2.41245">
        <time>2021-06-19T10:49:13+0000</time>
      </trkpt>
      <trkpt lat="40.65672" lon="-2.4124600000000003">
        <time>2021-06-19T10:49:14+0000</time>
      </trkpt>
      <trkpt lat="40.656600000000005" lon="-2.4124100000000004">
        <time>2021-06-19T10:49:15+0000</time>
      </trkpt>
      <trkpt lat="40.656470000000006" lon="-2.41237">
        <time>2021-06-19T10:49:16+0000</time>
      </trkpt>
      <trkpt lat="40.65634" lon="-2.4123400000000004">
        <time>2021-06-19T10:49:17+0000</time>
      </trkpt>
      <trkpt lat="40.656200000000005" lon="-2.4123">
        <time>2021-06-19T10:49:18+0000</time>
      </trkpt>
      <trkpt lat="40.65608" lon="-2.41228">
        <time>2021-06-19T10:49:19+0000</time>
      </trkpt>
      <trkpt lat="40.65597" lon="-2.41228">
        <time>2021-06-19T10:49:20+0000</time>
      </trkpt>
      <trkpt lat="40.65588" lon="-2.41228">
        <time>2021-06-19T10:49:21+0000</time>
      </trkpt>
      <trkpt lat="40.655800000000006" lon="-2.41228">
        <time>2021-06-19T10:49:22+0000</time>
      </trkpt>
      <trkpt lat="40.65574" lon="-2.4123">
        <time>2021-06-19T10:49:23+0000</time>
      </trkpt>
      <trkpt lat="40.655680000000004" lon="-2.41231">
        <time>2021-06-19T10:49:24+0000</time>
      </trkpt>
      <trkpt lat="40.65563" lon="-2.4123300000000003">
        <time>2021-06-19T10:49:25+0000</time>
      </trkpt>
      <trkpt lat="40.655590000000004" lon="-2.4123400000000004">
        <time>2021-06-19T10:49:26+0000</time>
      </trkpt>
      <trkpt lat="40.655550000000005" lon="-2.4123400000000004">
        <time>2021-06-19T10:49:27+0000</time>
      </trkpt>
      <trkpt lat="40.65552" lon="-2.4123400000000004">
        <time>2021-06-19T10:49:28+0000</time>
      </trkpt>
      <trkpt lat="40.65549" lon="-2.4123400000000004">
        <time>2021-06-19T10:49:29+0000</time>
      </trkpt>
      <trkpt lat="40.65545" lon="-2.41235">
        <time>2021-06-19T10:49:30+0000</time>
      </trkpt>
      <trkpt lat="40.65541" lon="-2.41236">
        <time>2021-06-19T10:49:31+0000</time>
      </trkpt>
      <trkpt lat="40.65536" lon="-2.41237">
        <time>2021-06-19T10:49:32+0000</time>
      </trkpt>
      <trkpt lat="40.65532" lon="-2.41237">
        <time>2021-06-19T10:49:33+0000</time>
      </trkpt>
      <trkpt lat="40.655260000000006" lon="-2.41237">
        <time>2021-06-19T10:49:34+0000</time>
      </trkpt>
      <trkpt lat="40.6552" lon="-2.41237">
        <time>2021-06-19T10:49:35+0000</time>
      </trkpt>
      <trkpt lat="40.65514" lon="-2.41236">
        <time>2021-06-19T10:49:36+0000</time>
      </trkpt>
      <trkpt lat="40.65507" lon="-2.41235">
        <time>2021-06-19T10:49:37+0000</time>
      </trkpt>
      <trkpt lat="40.655" lon="-2.4123400000000004">
        <time>2021-06-19T10:49:38+0000</time>
      </trkpt>
      <trkpt lat="40.65493" lon="-2.4123300000000003">
        <time>2021-06-19T10:49:39+0000</time>
      </trkpt>
      <trkpt lat="40.654860000000006" lon="-2.4123200000000002">
        <time>2021-06-19T10:49:40+0000</time>
      </trkpt>
      <trkpt lat="40.65478" lon="-2.41231">
        <time>2021-06-19T10:49:41+0000</time>
      </trkpt>
      <trkpt lat="40.65471" lon="-2.4123">
        <time>2021-06-19T10:49:42+0000</time>
      </trkpt>
      <trkpt lat="40.654650000000004" lon="-2.4123400000000004">
        <time>2021-06-19T10:49:43+0000</time>
      </trkpt>
      <trkpt lat="40.654590000000006" lon="-2.41235">
        <time>2021-06-19T10:49:44+0000</time>
      </trkpt>
      <trkpt lat="40.65453" lon="-2.41236">
        <time>2021-06-19T10:49:45+0000</time>
      </trkpt>
      <trkpt lat="40.65447" lon="-2.41236">
        <time>2021-06-19T10:49:46+0000</time>
      </trkpt>
      <trkpt lat="40.654430000000005" lon="-2.41237">
        <time>2021-06-19T10:49:47+0000</time>
      </trkpt>
      <trkpt lat="40.65439000000001" lon="-2.41237">
        <time>2021-06-19T10:49:48+0000</time>
      </trkpt>
      <trkpt lat="40.654340000000005" lon="-2.41238">
        <time>2021-06-19T10:49:49+0000</time>
      </trkpt>
      <trkpt lat="40.65428" lon="-2.41238">
        <time>2021-06-19T10:49:50+0000</time>
      </trkpt>
      <trkpt lat="40.65422" lon="-2.41238">
        <time>2021-06-19T10:49:51+0000</time>
      </trkpt>
      <trkpt lat="40.65417" lon="-2.4123900000000003">
        <time>2021-06-19T10:49:52+0000</time>
      </trkpt>
      <trkpt lat="40.65411" lon="-2.4123900000000003">
        <time>2021-06-19T10:49:53+0000</time>
      </trkpt>
      <trkpt lat="40.654050000000005" lon="-2.41238">
        <time>2021-06-19T10:49:54+0000</time>
      </trkpt>
      <trkpt lat="40.65399" lon="-2.41238">
        <time>2021-06-19T10:49:55+0000</time>
      </trkpt>
      <trkpt lat="40.65392000000001" lon="-2.41238">
        <time>2021-06-19T10:49:56+0000</time>
      </trkpt>
      <trkpt lat="40.65384" lon="-2.41237">
        <time>2021-06-19T10:49:57+0000</time>
      </trkpt>
      <trkpt lat="40.653740000000006" lon="-2.4124000000000003">
        <time>2021-06-19T10:49:58+0000</time>
      </trkpt>
      <trkpt lat="40.65364" lon="-2.4124700000000003">
        <time>2021-06-19T10:49:59+0000</time>
      </trkpt>
      <trkpt lat="40.65355" lon="-2.4125500000000004">
        <time>2021-06-19T10:50:00+0000</time>
      </trkpt>
      <trkpt lat="40.65346" lon="-2.41262">
        <time>2021-06-19T10:50:01+0000</time>
      </trkpt>
      <trkpt lat="40.65337" lon="-2.4126600000000002">
        <time>2021-06-19T10:50:02+0000</time>
      </trkpt>
      <trkpt lat="40.653290000000005" lon="-2.4126600000000002">
        <time>2021-06-19T10:50:03+0000</time>
      </trkpt>
      <trkpt lat="40.653220000000005" lon="-2.41263">
        <time>2021-06-19T10:50:04+0000</time>
      </trkpt>
      <trkpt lat="40.653150000000004" lon="-2.41257">
        <time>2021-06-19T10:50:05+0000</time>
      </trkpt>
      <trkpt lat="40.653110000000005" lon="-2.4124700000000003">
        <time>2021-06-19T10:50:06+0000</time>
      </trkpt>
      <trkpt lat="40.653090000000006" lon="-2.41235">
        <time>2021-06-19T10:50:07+0000</time>
      </trkpt>
      <trkpt lat="40.65305" lon="-2.41223">
        <time>2021-06-19T10:50:08+0000</time>
      </trkpt>
      <trkpt lat="40.65298000000001" lon="-2.4121200000000003">
        <time>2021-06-19T10:50:09+0000</time>
      </trkpt>
      <trkpt lat="40.65287" lon="-2.41204">
        <time>2021-06-19T10:50:10+0000</time>
      </trkpt>
      <trkpt lat="40.652770000000004" lon="-2.4119800000000002">
        <time>2021-06-19T10:50:11+0000</time>
      </trkpt>
      <trkpt lat="40.65265" lon="-2.41191">
        <time>2021-06-19T10:50:12+0000</time>
      </trkpt>
      <trkpt lat="40.65252" lon="-2.41183">
        <time>2021-06-19T10:50:13+0000</time>
      </trkpt>
      <trkpt lat="40.652390000000004" lon="-2.41174">
        <time>2021-06-19T10:50:14+0000</time>
      </trkpt>
      <trkpt lat="40.652280000000005" lon="-2.4116500000000003">
        <time>2021-06-19T10:50:15+0000</time>
      </trkpt>
      <trkpt lat="40.65216" lon="-2.4115800000000003">
        <time>2021-06-19T10:50:16+0000</time>
      </trkpt>
      <trkpt lat="40.65203" lon="-2.41155">
        <time>2021-06-19T10:50:17+0000</time>
      </trkpt>
      <trkpt lat="40.651900000000005" lon="-2.41154">
        <time>2021-06-19T10:50:18+0000</time>
      </trkpt>
      <trkpt lat="40.65175" lon="-2.41156">
        <time>2021-06-19T10:50:19+0000</time>
      </trkpt>
      <trkpt lat="40.651610000000005" lon="-2.4115900000000003">
        <time>2021-06-19T10:50:20+0000</time>
      </trkpt>
      <trkpt lat="40.65148000000001" lon="-2.4116400000000002">
        <time>2021-06-19T10:50:21+0000</time>
      </trkpt>
      <trkpt lat="40.65135" lon="-2.4117100000000002">
        <time>2021-06-19T10:50:22+0000</time>
      </trkpt>
      <trkpt lat="40.65122" lon="-2.41176">
        <time>2021-06-19T10:50:23+0000</time>
      </trkpt>
      <trkpt lat="40.65109" lon="-2.4118000000000004">
        <time>2021-06-19T10:50:24+0000</time>
      </trkpt>
      <trkpt lat="40.650960000000005" lon="-2.41183">
        <time>2021-06-19T10:50:25+0000</time>
      </trkpt>
      <trkpt lat="40.65082" lon="-2.4118000000000004">
        <time>2021-06-19T10:50:26+0000</time>
      </trkpt>
      <trkpt lat="40.65068" lon="-2.41174">
        <time>2021-06-19T10:50:27+0000</time>
      </trkpt>
      <trkpt lat="40.65053" lon="-2.4116600000000004">
        <time>2021-06-19T10:50:28+0000</time>
      </trkpt>
      <trkpt lat="40.650380000000006" lon="-2.41156">
        <time>2021-06-19T10:50:29+0000</time>
      </trkpt>
      <trkpt lat="40.65023" lon="-2.4114600000000004">
        <time>2021-06-19T10:50:30+0000</time>
      </trkpt>
      <trkpt lat="40.65008" lon="-2.4113700000000002">
        <time>2021-06-19T10:50:31+0000</time>
      </trkpt>
      <trkpt lat="40.64994" lon="-2.41128">
        <time>2021-06-19T10:50:32+0000</time>
      </trkpt>
      <trkpt lat="40.649800000000006" lon="-2.4111900000000004">
        <time>2021-06-19T10:50:33+0000</time>
      </trkpt>
      <trkpt lat="40.64965" lon="-2.4111200000000004">
        <time>2021-06-19T10:50:34+0000</time>
      </trkpt>
      <trkpt lat="40.64952" lon="-2.4110400000000003">
        <time>2021-06-19T10:50:35+0000</time>
      </trkpt>
      <trkpt lat="40.649390000000004" lon="-2.41094">
        <time>2021-06-19T10:50:36+0000</time>
      </trkpt>
      <trkpt lat="40.649260000000005" lon="-2.41086">
        <time>2021-06-19T10:50:37+0000</time>
      </trkpt>
      <trkpt lat="40.64912" lon="-2.41079">
        <time>2021-06-19T10:50:38+0000</time>
      </trkpt>
      <trkpt lat="40.649" lon="-2.4107100000000004">
        <time>2021-06-19T10:50:39+0000</time>
      </trkpt>
      <trkpt lat="40.648880000000005" lon="-2.41066">
        <time>2021-06-19T10:50:40+0000</time>
      </trkpt>
      <trkpt lat="40.648770000000006" lon="-2.41061">
        <time>2021-06-19T10:50:41+0000</time>
      </trkpt>
      <trkpt lat="40.64866000000001" lon="-2.4105600000000003">
        <time>2021-06-19T10:50:42+0000</time>
      </trkpt>
      <trkpt lat="40.64855" lon="-2.4105000000000003">
        <time>2021-06-19T10:50:43+0000</time>
      </trkpt>
      <trkpt lat="40.648430000000005" lon="-2.41045">
        <time>2021-06-19T10:50:44+0000</time>
      </trkpt>
      <trkpt lat="40.648300000000006" lon="-2.41041">
        <time>2021-06-19T10:50:45+0000</time>
      </trkpt>
      <trkpt lat="40.648160000000004" lon="-2.4103800000000004">
        <time>2021-06-19T10:50:46+0000</time>
      </trkpt>
      <trkpt lat="40.64802" lon="-2.41035">
        <time>2021-06-19T10:50:47+0000</time>
      </trkpt>
      <trkpt lat="40.647870000000005" lon="-2.41032">
        <time>2021-06-19T10:50:48+0000</time>
      </trkpt>
      <trkpt lat="40.64772000000001" lon="-2.41028">
        <time>2021-06-19T10:50:49+0000</time>
      </trkpt>
      <trkpt lat="40.647580000000005" lon="-2.41026">
        <time>2021-06-19T10:50:50+0000</time>
      </trkpt>
      <trkpt lat="40.64744" lon="-2.4102300000000003">
        <time>2021-06-19T10:50:51+0000</time>
      </trkpt>
      <trkpt lat="40.64732" lon="-2.41018">
        <time>2021-06-19T10:50:52+0000</time>
      </trkpt>
      <trkpt lat="40.64723" lon="-2.4101100000000004">
        <time>2021-06-19T10:50:53+0000</time>
      </trkpt>
      <trkpt lat="40.64714" lon="-2.40999">
        <time>2021-06-19T10:50:54+0000</time>
      </trkpt>
      <trkpt lat="40.64707000000001" lon="-2.40985">
        <time>2021-06-19T10:50:55+0000</time>
      </trkpt>
      <trkpt lat="40.647000000000006" lon="-2.4097000000000004">
        <time>2021-06-19T10:50:56+0000</time>
      </trkpt>
      <trkpt lat="40.64694" lon="-2.40957">
        <time>2021-06-19T10:50:57+0000</time>
      </trkpt>
      <trkpt lat="40.64688" lon="-2.4094700000000002">
        <time>2021-06-19T10:50:58+0000</time>
      </trkpt>
      <trkpt lat="40.64679" lon="-2.40939">
        <time>2021-06-19T10:50:59+0000</time>
      </trkpt>
      <trkpt lat="40.64667" lon="-2.40938">
        <time>2021-06-19T10:51:00+0000</time>
      </trkpt>
      <trkpt lat="40.646530000000006" lon="-2.4094300000000004">
        <time>2021-06-19T10:51:01+0000</time>
      </trkpt>
      <trkpt lat="40.646390000000004" lon="-2.4094900000000004">
        <time>2021-06-19T10:51:02+0000</time>
      </trkpt>
      <trkpt lat="40.64623" lon="-2.4094800000000003">
        <time>2021-06-19T10:51:03+0000</time>
      </trkpt>
      <trkpt lat="40.646080000000005" lon="-2.4094300000000004">
        <time>2021-06-19T10:51:04+0000</time>
      </trkpt>
      <trkpt lat="40.64593" lon="-2.4093600000000004">
        <time>2021-06-19T10:51:05+0000</time>
      </trkpt>
      <trkpt lat="40.6458" lon="-2.40926">
        <time>2021-06-19T10:51:06+0000</time>
      </trkpt>
      <trkpt lat="40.645680000000006" lon="-2.4091600000000004">
        <time>2021-06-19T10:51:07+0000</time>
      </trkpt>
      <trkpt lat="40.64558" lon="-2.4090700000000003">
        <time>2021-06-19T10:51:08+0000</time>
      </trkpt>
      <trkpt lat="40.645480000000006" lon="-2.4090100000000003">
        <time>2021-06-19T10:51:09+0000</time>
      </trkpt>
      <trkpt lat="40.64535" lon="-2.4090000000000003">
        <time>2021-06-19T10:51:10+0000</time>
      </trkpt>
      <trkpt lat="40.64524" lon="-2.40897">
        <time>2021-06-19T10:51:11+0000</time>
      </trkpt>
      <trkpt lat="40.645120000000006" lon="-2.4089500000000004">
        <time>2021-06-19T10:51:12+0000</time>
      </trkpt>
      <trkpt lat="40.645010000000006" lon="-2.4089400000000003">
        <time>2021-06-19T10:51:13+0000</time>
      </trkpt>
      <trkpt lat="40.6449" lon="-2.4089400000000003">
        <time>2021-06-19T10:51:14+0000</time>
      </trkpt>
      <trkpt lat="40.64481000000001" lon="-2.4090000000000003">
        <time>2021-06-19T10:51:15+0000</time>
      </trkpt>
      <trkpt lat="40.64475" lon="-2.4091">
        <time>2021-06-19T10:51:16+0000</time>
      </trkpt>
      <trkpt lat="40.64471" lon="-2.40923">
        <time>2021-06-19T10:51:17+0000</time>
      </trkpt>
      <trkpt lat="40.644690000000004" lon="-2.40938">
        <time>2021-06-19T10:51:18+0000</time>
      </trkpt>
      <trkpt lat="40.64466" lon="-2.4095400000000002">
        <time>2021-06-19T10:51:19+0000</time>
      </trkpt>
      <trkpt lat="40.64461" lon="-2.40967">
        <time>2021-06-19T10:51:20+0000</time>
      </trkpt>
      <trkpt lat="40.64455" lon="-2.40978">
        <time>2021-06-19T10:51:21+0000</time>
      </trkpt>
      <trkpt lat="40.644470000000005" lon="-2.4098800000000002">
        <time>2021-06-19T10:51:22+0000</time>
      </trkpt>
      <trkpt lat="40.64437" lon="-2.40998">
        <time>2021-06-19T10:51:23+0000</time>
      </trkpt>
      <trkpt lat="40.64424" lon="-2.41006">
        <time>2021-06-19T10:51:24+0000</time>
      </trkpt>
      <trkpt lat="40.644130000000004" lon="-2.4101600000000003">
        <time>2021-06-19T10:51:25+0000</time>
      </trkpt>
      <trkpt lat="40.644040000000004" lon="-2.4102900000000003">
        <time>2021-06-19T10:51:26+0000</time>
      </trkpt>
      <trkpt lat="40.643930000000005" lon="-2.41039">
        <time>2021-06-19T10:51:27+0000</time>
      </trkpt>
      <trkpt lat="40.64378000000001" lon="-2.41045">
        <time>2021-06-19T10:51:28+0000</time>
      </trkpt>
      <trkpt lat="40.64363" lon="-2.41048">
        <time>2021-06-19T10:51:29+0000</time>
      </trkpt>
      <trkpt lat="40.64347" lon="-2.41052">
        <time>2021-06-19T10:51:30+0000</time>
      </trkpt>
      <trkpt lat="40.643330000000006" lon="-2.41059">
        <time>2021-06-19T10:51:31+0000</time>
      </trkpt>
      <trkpt lat="40.6432" lon="-2.41069">
        <time>2021-06-19T10:51:32+0000</time>
      </trkpt>
      <trkpt lat="40.64307" lon="-2.41079">
        <time>2021-06-19T10:51:33+0000</time>
      </trkpt>
      <trkpt lat="40.642970000000005" lon="-2.41089">
        <time>2021-06-19T10:51:34+0000</time>
      </trkpt>
      <trkpt lat="40.64289" lon="-2.411">
        <time>2021-06-19T10:51:35+0000</time>
      </trkpt>
      <trkpt lat="40.64284000000001" lon="-2.4111100000000003">
        <time>2021-06-19T10:51:36+0000</time>
      </trkpt>
      <trkpt lat="40.6428" lon="-2.41123">
        <time>2021-06-19T10:51:37+0000</time>
      </trkpt>
      <trkpt lat="40.642810000000004" lon="-2.4113700000000002">
        <time>2021-06-19T10:51:38+0000</time>
      </trkpt>
      <trkpt lat="40.64285" lon="-2.4115100000000003">
        <time>2021-06-19T10:51:39+0000</time>
      </trkpt>
      <trkpt lat="40.64287" lon="-2.4116500000000003">
        <time>2021-06-19T10:51:40+0000</time>
      </trkpt>
      <trkpt lat="40.64285" lon="-2.41176">
        <time>2021-06-19T10:51:41+0000</time>
      </trkpt>
      <trkpt lat="40.6428" lon="-2.4118600000000003">
        <time>2021-06-19T10:51:42+0000</time>
      </trkpt>
      <trkpt lat="40.642720000000004" lon="-2.41195">
        <time>2021-06-19T10:51:43+0000</time>
      </trkpt>
      <trkpt lat="40.642610000000005" lon="-2.41203">
        <time>2021-06-19T10:51:44+0000</time>
      </trkpt>
      <trkpt lat="40.642500000000005" lon="-2.4121300000000003">
        <time>2021-06-19T10:51:45+0000</time>
      </trkpt>
      <trkpt lat="40.64237000000001" lon="-2.41224">
        <time>2021-06-19T10:51:46+0000</time>
      </trkpt>
      <trkpt lat="40.642230000000005" lon="-2.4123400000000004">
        <time>2021-06-19T10:51:47+0000</time>
      </trkpt>
      <trkpt lat="40.64208" lon="-2.41244">
        <time>2021-06-19T10:51:48+0000</time>
      </trkpt>
      <trkpt lat="40.64195" lon="-2.4125300000000003">
        <time>2021-06-19T10:51:49+0000</time>
      </trkpt>
      <trkpt lat="40.64181000000001" lon="-2.41262">
        <time>2021-06-19T10:51:50+0000</time>
      </trkpt>
      <trkpt lat="40.64168" lon="-2.41271">
        <time>2021-06-19T10:51:51+0000</time>
      </trkpt>
      <trkpt lat="40.641540000000006" lon="-2.4128100000000003">
        <time>2021-06-19T10:51:52+0000</time>
      </trkpt>
      <trkpt lat="40.64139" lon="-2.41289">
        <time>2021-06-19T10:51:53+0000</time>
      </trkpt>
      <trkpt lat="40.64126" lon="-2.41298">
        <time>2021-06-19T10:51:54+0000</time>
      </trkpt>
      <trkpt lat="40.64112" lon="-2.4130800000000003">
        <time>2021-06-19T10:51:55+0000</time>
      </trkpt>
      <trkpt lat="40.640980000000006" lon="-2.41317">
        <time>2021-06-19T10:51:56+0000</time>
      </trkpt>
      <trkpt lat="40.64085" lon="-2.41326">
        <time>2021-06-19T10:51:57+0000</time>
      </trkpt>
      <trkpt lat="40.64072" lon="-2.4133400000000003">
        <time>2021-06-19T10:51:58+0000</time>
      </trkpt>
      <trkpt lat="40.64061" lon="-2.4134100000000003">
        <time>2021-06-19T10:51:59+0000</time>
      </trkpt>
      <trkpt lat="40.64052" lon="-2.4134900000000004">
        <time>2021-06-19T10:52:00+0000</time>
      </trkpt>
      <trkpt lat="40.640420000000006" lon="-2.4135600000000004">
        <time>2021-06-19T10:52:01+0000</time>
      </trkpt>
      <trkpt lat="40.640330000000006" lon="-2.4136300000000004">
        <time>2021-06-19T10:52:02+0000</time>
      </trkpt>
      <trkpt lat="40.64025" lon="-2.4136900000000003">
        <time>2021-06-19T10:52:03+0000</time>
      </trkpt>
      <trkpt lat="40.64016" lon="-2.4137500000000003">
        <time>2021-06-19T10:52:04+0000</time>
      </trkpt>
      <trkpt lat="40.640080000000005" lon="-2.4138100000000002">
        <time>2021-06-19T10:52:05+0000</time>
      </trkpt>
      <trkpt lat="40.639990000000004" lon="-2.41387">
        <time>2021-06-19T10:52:06+0000</time>
      </trkpt>
      <trkpt lat="40.63989" lon="-2.41394">
        <time>2021-06-19T10:52:07+0000</time>
      </trkpt>
      <trkpt lat="40.639790000000005" lon="-2.414">
        <time>2021-06-19T10:52:08+0000</time>
      </trkpt>
      <trkpt lat="40.63969" lon="-2.4140800000000002">
        <time>2021-06-19T10:52:09+0000</time>
      </trkpt>
      <trkpt lat="40.63958" lon="-2.4141500000000002">
        <time>2021-06-19T10:52:10+0000</time>
      </trkpt>
      <trkpt lat="40.63947" lon="-2.4142200000000003">
        <time>2021-06-19T10:52:11+0000</time>
      </trkpt>
      <trkpt lat="40.63937000000001" lon="-2.4142900000000003">
        <time>2021-06-19T10:52:12+0000</time>
      </trkpt>
      <trkpt lat="40.63926" lon="-2.4143700000000003">
        <time>2021-06-19T10:52:13+0000</time>
      </trkpt>
      <trkpt lat="40.63915" lon="-2.4144400000000004">
        <time>2021-06-19T10:52:14+0000</time>
      </trkpt>
      <trkpt lat="40.639030000000005" lon="-2.41452">
        <time>2021-06-19T10:52:15+0000</time>
      </trkpt>
      <trkpt lat="40.63891" lon="-2.4146">
        <time>2021-06-19T10:52:16+0000</time>
      </trkpt>
      <trkpt lat="40.6388" lon="-2.41468">
        <time>2021-06-19T10:52:17+0000</time>
      </trkpt>
      <trkpt lat="40.63868" lon="-2.4147700000000003">
        <time>2021-06-19T10:52:18+0000</time>
      </trkpt>
      <trkpt lat="40.63855" lon="-2.41486">
        <time>2021-06-19T10:52:19+0000</time>
      </trkpt>
      <trkpt lat="40.63841" lon="-2.41495">
        <time>2021-06-19T10:52:20+0000</time>
      </trkpt>
      <trkpt lat="40.63826" lon="-2.4150500000000004">
        <time>2021-06-19T10:52:21+0000</time>
      </trkpt>
      <trkpt lat="40.6381" lon="-2.41516">
        <time>2021-06-19T10:52:22+0000</time>
      </trkpt>
      <trkpt lat="40.63792" lon="-2.41528">
        <time>2021-06-19T10:52:23+0000</time>
      </trkpt>
      <trkpt lat="40.63776" lon="-2.4153800000000003">
        <time>2021-06-19T10:52:24+0000</time>
      </trkpt>
      <trkpt lat="40.637600000000006" lon="-2.41549">
        <time>2021-06-19T10:52:25+0000</time>
      </trkpt>
      <trkpt lat="40.637460000000004" lon="-2.4155900000000003">
        <time>2021-06-19T10:52:26+0000</time>
      </trkpt>
      <trkpt lat="40.637350000000005" lon="-2.41574">
        <time>2021-06-19T10:52:27+0000</time>
      </trkpt>
      <trkpt lat="40.637260000000005" lon="-2.41595">
        <time>2021-06-19T10:52:28+0000</time>
      </trkpt>
      <trkpt lat="40.637190000000004" lon="-2.41618">
        <time>2021-06-19T10:52:29+0000</time>
      </trkpt>
      <trkpt lat="40.63714" lon="-2.41644">
        <time>2021-06-19T10:52:30+0000</time>
      </trkpt>
      <trkpt lat="40.63709" lon="-2.4166700000000003">
        <time>2021-06-19T10:52:31+0000</time>
      </trkpt>
      <trkpt lat="40.637040000000006" lon="-2.4169">
        <time>2021-06-19T10:52:32+0000</time>
      </trkpt>
      <trkpt lat="40.637" lon="-2.41712">
        <time>2021-06-19T10:52:33+0000</time>
      </trkpt>
      <trkpt lat="40.636970000000005" lon="-2.4173600000000004">
        <time>2021-06-19T10:52:34+0000</time>
      </trkpt>
      <trkpt lat="40.636970000000005" lon="-2.4176200000000003">
        <time>2021-06-19T10:52:35+0000</time>
      </trkpt>
      <trkpt lat="40.63698" lon="-2.4178800000000003">
        <time>2021-06-19T10:52:36+0000</time>
      </trkpt>
      <trkpt lat="40.637" lon="-2.41814">
        <time>2021-06-19T10:52:37+0000</time>
      </trkpt>
      <trkpt lat="40.63702000000001" lon="-2.4184">
        <time>2021-06-19T10:52:38+0000</time>
      </trkpt>
      <trkpt lat="40.63703" lon="-2.4186500000000004">
        <time>2021-06-19T10:52:39+0000</time>
      </trkpt>
      <trkpt lat="40.63702000000001" lon="-2.41887">
        <time>2021-06-19T10:52:40+0000</time>
      </trkpt>
      <trkpt lat="40.63696" lon="-2.4191000000000003">
        <time>2021-06-19T10:52:41+0000</time>
      </trkpt>
      <trkpt lat="40.63687" lon="-2.41933">
        <time>2021-06-19T10:52:42+0000</time>
      </trkpt>
      <trkpt lat="40.636750000000006" lon="-2.41955">
        <time>2021-06-19T10:52:43+0000</time>
      </trkpt>
      <trkpt lat="40.6366" lon="-2.41974">
        <time>2021-06-19T10:52:44+0000</time>
      </trkpt>
      <trkpt lat="40.63646000000001" lon="-2.4199100000000002">
        <time>2021-06-19T10:52:45+0000</time>
      </trkpt>
      <trkpt lat="40.636340000000004" lon="-2.4200600000000003">
        <time>2021-06-19T10:52:46+0000</time>
      </trkpt>
      <trkpt lat="40.63622" lon="-2.4202100000000004">
        <time>2021-06-19T10:52:47+0000</time>
      </trkpt>
      <trkpt lat="40.636120000000005" lon="-2.42035">
        <time>2021-06-19T10:52:48+0000</time>
      </trkpt>
      <trkpt lat="40.63604" lon="-2.4205">
        <time>2021-06-19T10:52:49+0000</time>
      </trkpt>
      <trkpt lat="40.63597" lon="-2.42064">
        <time>2021-06-19T10:52:50+0000</time>
      </trkpt>
      <trkpt lat="40.63591" lon="-2.42077">
        <time>2021-06-19T10:52:51+0000</time>
      </trkpt>
      <trkpt lat="40.63584" lon="-2.4208700000000003">
        <time>2021-06-19T10:52:52+0000</time>
      </trkpt>
      <trkpt lat="40.635760000000005" lon="-2.4209500000000004">
        <time>2021-06-19T10:52:53+0000</time>
      </trkpt>
      <trkpt lat="40.635670000000005" lon="-2.4210100000000003">
        <time>2021-06-19T10:52:54+0000</time>
      </trkpt>
      <trkpt lat="40.63557" lon="-2.4210900000000004">
        <time>2021-06-19T10:52:55+0000</time>
      </trkpt>
      <trkpt lat="40.635470000000005" lon="-2.42119">
        <time>2021-06-19T10:52:56+0000</time>
      </trkpt>
      <trkpt lat="40.63537" lon="-2.42131">
        <time>2021-06-19T10:52:57+0000</time>
      </trkpt>
      <trkpt lat="40.635290000000005" lon="-2.42146">
        <time>2021-06-19T10:52:58+0000</time>
      </trkpt>
      <trkpt lat="40.63521" lon="-2.4216100000000003">
        <time>2021-06-19T10:52:59+0000</time>
      </trkpt>
      <trkpt lat="40.635130000000004" lon="-2.4217500000000003">
        <time>2021-06-19T10:53:00+0000</time>
      </trkpt>
      <trkpt lat="40.63505000000001" lon="-2.4218800000000003">
        <time>2021-06-19T10:53:01+0000</time>
      </trkpt>
      <trkpt lat="40.63497" lon="-2.42201">
        <time>2021-06-19T10:53:02+0000</time>
      </trkpt>
      <trkpt lat="40.6349" lon="-2.42213">
        <time>2021-06-19T10:53:03+0000</time>
      </trkpt>
      <trkpt lat="40.63483" lon="-2.42225">
        <time>2021-06-19T10:53:04+0000</time>
      </trkpt>
      <trkpt lat="40.63476" lon="-2.4223600000000003">
        <time>2021-06-19T10:53:05+0000</time>
      </trkpt>
      <trkpt lat="40.63468" lon="-2.42248">
        <time>2021-06-19T10:53:06+0000</time>
      </trkpt>
      <trkpt lat="40.634600000000006" lon="-2.42261">
        <time>2021-06-19T10:53:07+0000</time>
      </trkpt>
      <trkpt lat="40.6345" lon="-2.42273">
        <time>2021-06-19T10:53:08+0000</time>
      </trkpt>
      <trkpt lat="40.63441" lon="-2.4228500000000004">
        <time>2021-06-19T10:53:09+0000</time>
      </trkpt>
      <trkpt lat="40.634310000000006" lon="-2.42295">
        <time>2021-06-19T10:53:10+0000</time>
      </trkpt>
      <trkpt lat="40.63421" lon="-2.42306">
        <time>2021-06-19T10:53:11+0000</time>
      </trkpt>
      <trkpt lat="40.63411000000001" lon="-2.42316">
        <time>2021-06-19T10:53:12+0000</time>
      </trkpt>
      <trkpt lat="40.633990000000004" lon="-2.4232400000000003">
        <time>2021-06-19T10:53:13+0000</time>
      </trkpt>
      <trkpt lat="40.633860000000006" lon="-2.4233100000000003">
        <time>2021-06-19T10:53:14+0000</time>
      </trkpt>
      <trkpt lat="40.63371" lon="-2.42336">
        <time>2021-06-19T10:53:15+0000</time>
      </trkpt>
      <trkpt lat="40.63355000000001" lon="-2.4233800000000003">
        <time>2021-06-19T10:53:16+0000</time>
      </trkpt>
      <trkpt lat="40.633390000000006" lon="-2.42342">
        <time>2021-06-19T10:53:17+0000</time>
      </trkpt>
      <trkpt lat="40.63322" lon="-2.4234500000000003">
        <time>2021-06-19T10:53:18+0000</time>
      </trkpt>
      <trkpt lat="40.633070000000004" lon="-2.42348">
        <time>2021-06-19T10:53:19+0000</time>
      </trkpt>
      <trkpt lat="40.63293" lon="-2.4235">
        <time>2021-06-19T10:53:20+0000</time>
      </trkpt>
      <trkpt lat="40.63279" lon="-2.4235100000000003">
        <time>2021-06-19T10:53:21+0000</time>
      </trkpt>
      <trkpt lat="40.632670000000005" lon="-2.4235100000000003">
        <time>2021-06-19T10:53:22+0000</time>
      </trkpt>
      <trkpt lat="40.63255" lon="-2.42356">
        <time>2021-06-19T10:53:23+0000</time>
      </trkpt>
      <trkpt lat="40.63243000000001" lon="-2.4236600000000004">
        <time>2021-06-19T10:53:24+0000</time>
      </trkpt>
      <trkpt lat="40.632310000000004" lon="-2.42377">
        <time>2021-06-19T10:53:25+0000</time>
      </trkpt>
      <trkpt lat="40.63217" lon="-2.42384">
        <time>2021-06-19T10:53:26+0000</time>
      </trkpt>
      <trkpt lat="40.632020000000004" lon="-2.4238700000000004">
        <time>2021-06-19T10:53:27+0000</time>
      </trkpt>
      <trkpt lat="40.63188" lon="-2.42388">
        <time>2021-06-19T10:53:28+0000</time>
      </trkpt>
      <trkpt lat="40.63176" lon="-2.42389">
        <time>2021-06-19T10:53:29+0000</time>
      </trkpt>
      <trkpt lat="40.631640000000004" lon="-2.42389">
        <time>2021-06-19T10:53:30+0000</time>
      </trkpt>
      <trkpt lat="40.631530000000005" lon="-2.4238700000000004">
        <time>2021-06-19T10:53:31+0000</time>
      </trkpt>
      <trkpt lat="40.63141" lon="-2.4238700000000004">
        <time>2021-06-19T10:53:32+0000</time>
      </trkpt>
      <trkpt lat="40.6313" lon="-2.42384">
        <time>2021-06-19T10:53:33+0000</time>
      </trkpt>
      <trkpt lat="40.631190000000004" lon="-2.4238000000000004">
        <time>2021-06-19T10:53:34+0000</time>
      </trkpt>
      <trkpt lat="40.6311" lon="-2.42376">
        <time>2021-06-19T10:53:35+0000</time>
      </trkpt>
      <trkpt lat="40.631" lon="-2.4237200000000003">
        <time>2021-06-19T10:53:36+0000</time>
      </trkpt>
      <trkpt lat="40.630900000000004" lon="-2.42368">
        <time>2021-06-19T10:53:37+0000</time>
      </trkpt>
      <trkpt lat="40.630810000000004" lon="-2.4236400000000002">
        <time>2021-06-19T10:53:38+0000</time>
      </trkpt>
      <trkpt lat="40.630720000000004" lon="-2.4236">
        <time>2021-06-19T10:53:39+0000</time>
      </trkpt>
      <trkpt lat="40.63062" lon="-2.42356">
        <time>2021-06-19T10:53:40+0000</time>
      </trkpt>
      <trkpt lat="40.63053" lon="-2.4235200000000003">
        <time>2021-06-19T10:53:41+0000</time>
      </trkpt>
      <trkpt lat="40.630430000000004" lon="-2.42348">
        <time>2021-06-19T10:53:42+0000</time>
      </trkpt>
      <trkpt lat="40.630320000000005" lon="-2.42343">
        <time>2021-06-19T10:53:43+0000</time>
      </trkpt>
      <trkpt lat="40.6302" lon="-2.4233800000000003">
        <time>2021-06-19T10:53:44+0000</time>
      </trkpt>
      <trkpt lat="40.63008000000001" lon="-2.42333">
        <time>2021-06-19T10:53:45+0000</time>
      </trkpt>
      <trkpt lat="40.629940000000005" lon="-2.42328">
        <time>2021-06-19T10:53:46+0000</time>
      </trkpt>
      <trkpt lat="40.6298" lon="-2.42322">
        <time>2021-06-19T10:53:47+0000</time>
      </trkpt>
      <trkpt lat="40.629650000000005" lon="-2.4231700000000003">
        <time>2021-06-19T10:53:48+0000</time>
      </trkpt>
      <trkpt lat="40.629490000000004" lon="-2.42315">
        <time>2021-06-19T10:53:49+0000</time>
      </trkpt>
      <trkpt lat="40.62932" lon="-2.42314">
        <time>2021-06-19T10:53:50+0000</time>
      </trkpt>
      <trkpt lat="40.629160000000006" lon="-2.42315">
        <time>2021-06-19T10:53:51+0000</time>
      </trkpt>
      <trkpt lat="40.629020000000004" lon="-2.42315">
        <time>2021-06-19T10:53:52+0000</time>
      </trkpt>
      <trkpt lat="40.62888" lon="-2.42316">
        <time>2021-06-19T10:53:53+0000</time>
      </trkpt>
      <trkpt lat="40.628750000000004" lon="-2.42316">
        <time>2021-06-19T10:53:54+0000</time>
      </trkpt>
      <trkpt lat="40.628640000000004" lon="-2.42315">
        <time>2021-06-19T10:53:55+0000</time>
      </trkpt>
      <trkpt lat="40.628530000000005" lon="-2.42314">
        <time>2021-06-19T10:53:56+0000</time>
      </trkpt>
      <trkpt lat="40.62841" lon="-2.4231000000000003">
        <time>2021-06-19T10:53:57+0000</time>
      </trkpt>
      <trkpt lat="40.62827" lon="-2.4230500000000004">
        <time>2021-06-19T10:53:58+0000</time>
      </trkpt>
      <trkpt lat="40.62814" lon="-2.4229800000000004">
        <time>2021-06-19T10:53:59+0000</time>
      </trkpt>
      <trkpt lat="40.62802000000001" lon="-2.42288">
        <time>2021-06-19T10:54:00+0000</time>
      </trkpt>
      <trkpt lat="40.62792" lon="-2.42273">
        <time>2021-06-19T10:54:01+0000</time>
      </trkpt>
      <trkpt lat="40.627840000000006" lon="-2.42254">
        <time>2021-06-19T10:54:02+0000</time>
      </trkpt>
      <trkpt lat="40.62776" lon="-2.42232">
        <time>2021-06-19T10:54:03+0000</time>
      </trkpt>
      <trkpt lat="40.627700000000004" lon="-2.4221000000000004">
        <time>2021-06-19T10:54:04+0000</time>
      </trkpt>
      <trkpt lat="40.62763" lon="-2.4218800000000003">
        <time>2021-06-19T10:54:05+0000</time>
      </trkpt>
      <trkpt lat="40.62756" lon="-2.42166">
        <time>2021-06-19T10:54:06+0000</time>
      </trkpt>
      <trkpt lat="40.62751" lon="-2.42146">
        <time>2021-06-19T10:54:07+0000</time>
      </trkpt>
      <trkpt lat="40.62745" lon="-2.4212800000000003">
        <time>2021-06-19T10:54:08+0000</time>
      </trkpt>
      <trkpt lat="40.6274" lon="-2.4211">
        <time>2021-06-19T10:54:09+0000</time>
      </trkpt>
      <trkpt lat="40.62735" lon="-2.4209300000000002">
        <time>2021-06-19T10:54:10+0000</time>
      </trkpt>
      <trkpt lat="40.627300000000005" lon="-2.42077">
        <time>2021-06-19T10:54:11+0000</time>
      </trkpt>
      <trkpt lat="40.627230000000004" lon="-2.42064">
        <time>2021-06-19T10:54:12+0000</time>
      </trkpt>
      <trkpt lat="40.62718" lon="-2.42051">
        <time>2021-06-19T10:54:13+0000</time>
      </trkpt>
      <trkpt lat="40.627140000000004" lon="-2.42038">
        <time>2021-06-19T10:54:14+0000</time>
      </trkpt>
      <trkpt lat="40.627100000000006" lon="-2.4202500000000002">
        <time>2021-06-19T10:54:15+0000</time>
      </trkpt>
      <trkpt lat="40.62706" lon="-2.4201200000000003">
        <time>2021-06-19T10:54:16+0000</time>
      </trkpt>
      <trkpt lat="40.627010000000006" lon="-2.41997">
        <time>2021-06-19T10:54:17+0000</time>
      </trkpt>
      <trkpt lat="40.626960000000004" lon="-2.41982">
        <time>2021-06-19T10:54:18+0000</time>
      </trkpt>
      <trkpt lat="40.62691" lon="-2.4196500000000003">
        <time>2021-06-19T10:54:19+0000</time>
      </trkpt>
      <trkpt lat="40.62686" lon="-2.41948">
        <time>2021-06-19T10:54:20+0000</time>
      </trkpt>
      <trkpt lat="40.6268" lon="-2.4193100000000003">
        <time>2021-06-19T10:54:21+0000</time>
      </trkpt>
      <trkpt lat="40.62675" lon="-2.4191200000000004">
        <time>2021-06-19T10:54:22+0000</time>
      </trkpt>
      <trkpt lat="40.62669" lon="-2.41894">
        <time>2021-06-19T10:54:23+0000</time>
      </trkpt>
      <trkpt lat="40.626630000000006" lon="-2.41875">
        <time>2021-06-19T10:54:24+0000</time>
      </trkpt>
      <trkpt lat="40.62657" lon="-2.4185600000000003">
        <time>2021-06-19T10:54:25+0000</time>
      </trkpt>
      <trkpt lat="40.626520000000006" lon="-2.41839">
        <time>2021-06-19T10:54:26+0000</time>
      </trkpt>
      <trkpt lat="40.62646" lon="-2.4182300000000003">
        <time>2021-06-19T10:54:27+0000</time>
      </trkpt>
      <trkpt lat="40.62641" lon="-2.41806">
        <time>2021-06-19T10:54:28+0000</time>
      </trkpt>
      <trkpt lat="40.62637" lon="-2.41791">
        <time>2021-06-19T10:54:29+0000</time>
      </trkpt>
      <trkpt lat="40.62633" lon="-2.4177700000000004">
        <time>2021-06-19T10:54:30+0000</time>
      </trkpt>
      <trkpt lat="40.62628" lon="-2.4176300000000004">
        <time>2021-06-19T10:54:31+0000</time>
      </trkpt>
      <trkpt lat="40.626250000000006" lon="-2.4175">
        <time>2021-06-19T10:54:32+0000</time>
      </trkpt>
      <trkpt lat="40.62621" lon="-2.41738">
        <time>2021-06-19T10:54:33+0000</time>
      </trkpt>
      <trkpt lat="40.62617" lon="-2.41726">
        <time>2021-06-19T10:54:34+0000</time>
      </trkpt>
      <trkpt lat="40.62614000000001" lon="-2.4171500000000004">
        <time>2021-06-19T10:54:35+0000</time>
      </trkpt>
      <trkpt lat="40.626110000000004" lon="-2.41704">
        <time>2021-06-19T10:54:36+0000</time>
      </trkpt>
      <trkpt lat="40.626070000000006" lon="-2.4169400000000003">
        <time>2021-06-19T10:54:37+0000</time>
      </trkpt>
      <trkpt lat="40.626020000000004" lon="-2.4168600000000002">
        <time>2021-06-19T10:54:38+0000</time>
      </trkpt>
      <trkpt lat="40.625960000000006" lon="-2.4168000000000003">
        <time>2021-06-19T10:54:39+0000</time>
      </trkpt>
      <trkpt lat="40.625890000000005" lon="-2.4167500000000004">
        <time>2021-06-19T10:54:40+0000</time>
      </trkpt>
      <trkpt lat="40.62585" lon="-2.4167300000000003">
        <time>2021-06-19T10:54:41+0000</time>
      </trkpt>
      <trkpt lat="40.625820000000004" lon="-2.41671">
        <time>2021-06-19T10:54:42+0000</time>
      </trkpt>
      <trkpt lat="40.62579" lon="-2.4166800000000004">
        <time>2021-06-19T10:54:43+0000</time>
      </trkpt>
      <trkpt lat="40.62576000000001" lon="-2.4166600000000003">
        <time>2021-06-19T10:54:44+0000</time>
      </trkpt>
      <trkpt lat="40.625730000000004" lon="-2.41663">
        <time>2021-06-19T10:54:45+0000</time>
      </trkpt>
      <trkpt lat="40.625690000000006" lon="-2.4166000000000003">
        <time>2021-06-19T10:54:46+0000</time>
      </trkpt>
      <trkpt lat="40.62566" lon="-2.41658">
        <time>2021-06-19T10:54:47+0000</time>
      </trkpt>
      <trkpt lat="40.625620000000005" lon="-2.41656">
        <time>2021-06-19T10:54:48+0000</time>
      </trkpt>
      <trkpt lat="40.62559" lon="-2.4165400000000004">
        <time>2021-06-19T10:54:49+0000</time>
      </trkpt>
      <trkpt lat="40.62557" lon="-2.4165200000000002">
        <time>2021-06-19T10:54:50+0000</time>
      </trkpt>
      <trkpt lat="40.62554" lon="-2.4165">
        <time>2021-06-19T10:54:51+0000</time>
      </trkpt>
      <trkpt lat="40.62552" lon="-2.4164800000000004">
        <time>2021-06-19T10:54:52+0000</time>
      </trkpt>
      <trkpt lat="40.625490000000006" lon="-2.41645">
        <time>2021-06-19T10:54:53+0000</time>
      </trkpt>
      <trkpt lat="40.625460000000004" lon="-2.41643">
        <time>2021-06-19T10:54:54+0000</time>
      </trkpt>
      <trkpt lat="40.625440000000005" lon="-2.4164100000000004">
        <time>2021-06-19T10:54:55+0000</time>
      </trkpt>
      <trkpt lat="40.62541" lon="-2.41638">
        <time>2021-06-19T10:54:56+0000</time>
      </trkpt>
      <trkpt lat="40.62538" lon="-2.4163300000000003">
        <time>2021-06-19T10:54:57+0000</time>
      </trkpt>
      <trkpt lat="40.62536" lon="-2.4163400000000004">
        <time>2021-06-19T10:54:58+0000</time>
      </trkpt>
      <trkpt lat="40.62541" lon="-2.4162000000000003">
        <time>2021-06-19T10:54:59+0000</time>
      </trkpt>
      <trkpt lat="40.62548" lon="-2.4161300000000003">
        <time>2021-06-19T10:55:00+0000</time>
      </trkpt>
      <trkpt lat="40.625530000000005" lon="-2.4160500000000003">
        <time>2021-06-19T10:55:01+0000</time>
      </trkpt>
      <trkpt lat="40.625600000000006" lon="-2.41595">
        <time>2021-06-19T10:55:02+0000</time>
      </trkpt>
      <trkpt lat="40.62568" lon="-2.41581">
        <time>2021-06-19T10:55:03+0000</time>
      </trkpt>
      <trkpt lat="40.62576000000001" lon="-2.41563">
        <time>2021-06-19T10:55:04+0000</time>
      </trkpt>
      <trkpt lat="40.62583" lon="-2.4154400000000003">
        <time>2021-06-19T10:55:05+0000</time>
      </trkpt>
      <trkpt lat="40.62592" lon="-2.4152400000000003">
        <time>2021-06-19T10:55:06+0000</time>
      </trkpt>
      <trkpt lat="40.62601" lon="-2.41502">
        <time>2021-06-19T10:55:07+0000</time>
      </trkpt>
      <trkpt lat="40.626090000000005" lon="-2.4148">
        <time>2021-06-19T10:55:08+0000</time>
      </trkpt>
      <trkpt lat="40.62617" lon="-2.4145800000000004">
        <time>2021-06-19T10:55:09+0000</time>
      </trkpt>
      <trkpt lat="40.62622" lon="-2.41433">
        <time>2021-06-19T10:55:10+0000</time>
      </trkpt>
      <trkpt lat="40.62626" lon="-2.4140800000000002">
        <time>2021-06-19T10:55:11+0000</time>
      </trkpt>
      <trkpt lat="40.626270000000005" lon="-2.4138200000000003">
        <time>2021-06-19T10:55:12+0000</time>
      </trkpt>
      <trkpt lat="40.62626" lon="-2.4135600000000004">
        <time>2021-06-19T10:55:13+0000</time>
      </trkpt>
      <trkpt lat="40.62624" lon="-2.4133">
        <time>2021-06-19T10:55:14+0000</time>
      </trkpt>
      <trkpt lat="40.626180000000005" lon="-2.41303">
        <time>2021-06-19T10:55:15+0000</time>
      </trkpt>
      <trkpt lat="40.626110000000004" lon="-2.4127500000000004">
        <time>2021-06-19T10:55:16+0000</time>
      </trkpt>
      <trkpt lat="40.626020000000004" lon="-2.41249">
        <time>2021-06-19T10:55:17+0000</time>
      </trkpt>
      <trkpt lat="40.62595" lon="-2.41222">
        <time>2021-06-19T10:55:18+0000</time>
      </trkpt>
      <trkpt lat="40.625890000000005" lon="-2.4119300000000004">
        <time>2021-06-19T10:55:19+0000</time>
      </trkpt>
      <trkpt lat="40.625820000000004" lon="-2.41163">
        <time>2021-06-19T10:55:20+0000</time>
      </trkpt>
      <trkpt lat="40.625780000000006" lon="-2.4113300000000004">
        <time>2021-06-19T10:55:21+0000</time>
      </trkpt>
      <trkpt lat="40.62576000000001" lon="-2.41101">
        <time>2021-06-19T10:55:22+0000</time>
      </trkpt>
      <trkpt lat="40.62579" lon="-2.41069">
        <time>2021-06-19T10:55:23+0000</time>
      </trkpt>
      <trkpt lat="40.625840000000004" lon="-2.41039">
        <time>2021-06-19T10:55:24+0000</time>
      </trkpt>
      <trkpt lat="40.625930000000004" lon="-2.4101100000000004">
        <time>2021-06-19T10:55:25+0000</time>
      </trkpt>
      <trkpt lat="40.626020000000004" lon="-2.40985">
        <time>2021-06-19T10:55:26+0000</time>
      </trkpt>
      <trkpt lat="40.626110000000004" lon="-2.4096100000000003">
        <time>2021-06-19T10:55:27+0000</time>
      </trkpt>
      <trkpt lat="40.626200000000004" lon="-2.40937">
        <time>2021-06-19T10:55:28+0000</time>
      </trkpt>
      <trkpt lat="40.626290000000004" lon="-2.40913">
        <time>2021-06-19T10:55:29+0000</time>
      </trkpt>
      <trkpt lat="40.626380000000005" lon="-2.4088800000000004">
        <time>2021-06-19T10:55:30+0000</time>
      </trkpt>
      <trkpt lat="40.62646" lon="-2.40864">
        <time>2021-06-19T10:55:31+0000</time>
      </trkpt>
      <trkpt lat="40.62653" lon="-2.4083900000000003">
        <time>2021-06-19T10:55:32+0000</time>
      </trkpt>
      <trkpt lat="40.62662" lon="-2.4081400000000004">
        <time>2021-06-19T10:55:33+0000</time>
      </trkpt>
      <trkpt lat="40.62671" lon="-2.4078600000000003">
        <time>2021-06-19T10:55:34+0000</time>
      </trkpt>
      <trkpt lat="40.626810000000006" lon="-2.4075900000000003">
        <time>2021-06-19T10:55:35+0000</time>
      </trkpt>
      <trkpt lat="40.62689" lon="-2.40728">
        <time>2021-06-19T10:55:36+0000</time>
      </trkpt>
      <trkpt lat="40.62698" lon="-2.4069900000000004">
        <time>2021-06-19T10:55:37+0000</time>
      </trkpt>
      <trkpt lat="40.62706" lon="-2.40669">
        <time>2021-06-19T10:55:38+0000</time>
      </trkpt>
      <trkpt lat="40.62713" lon="-2.4063800000000004">
        <time>2021-06-19T10:55:39+0000</time>
      </trkpt>
      <trkpt lat="40.627210000000005" lon="-2.40607">
        <time>2021-06-19T10:55:40+0000</time>
      </trkpt>
      <trkpt lat="40.627280000000006" lon="-2.4057600000000003">
        <time>2021-06-19T10:55:41+0000</time>
      </trkpt>
      <trkpt lat="40.62735" lon="-2.40544">
        <time>2021-06-19T10:55:42+0000</time>
      </trkpt>
      <trkpt lat="40.627430000000004" lon="-2.40513">
        <time>2021-06-19T10:55:43+0000</time>
      </trkpt>
      <trkpt lat="40.62751" lon="-2.4048200000000004">
        <time>2021-06-19T10:55:44+0000</time>
      </trkpt>
      <trkpt lat="40.62758" lon="-2.40452">
        <time>2021-06-19T10:55:45+0000</time>
      </trkpt>
      <trkpt lat="40.62765" lon="-2.40422">
        <time>2021-06-19T10:55:46+0000</time>
      </trkpt>
      <trkpt lat="40.627720000000004" lon="-2.4039200000000003">
        <time>2021-06-19T10:55:47+0000</time>
      </trkpt>
      <trkpt lat="40.627790000000005" lon="-2.40364">
        <time>2021-06-19T10:55:48+0000</time>
      </trkpt>
      <trkpt lat="40.62785" lon="-2.40336">
        <time>2021-06-19T10:55:49+0000</time>
      </trkpt>
      <trkpt lat="40.62792" lon="-2.40309">
        <time>2021-06-19T10:55:50+0000</time>
      </trkpt>
      <trkpt lat="40.62798" lon="-2.40281">
        <time>2021-06-19T10:55:51+0000</time>
      </trkpt>
      <trkpt lat="40.62805" lon="-2.40254">
        <time>2021-06-19T10:55:52+0000</time>
      </trkpt>
      <trkpt lat="40.62811000000001" lon="-2.40228">
        <time>2021-06-19T10:55:53+0000</time>
      </trkpt>
      <trkpt lat="40.628170000000004" lon="-2.4020400000000004">
        <time>2021-06-19T10:55:54+0000</time>
      </trkpt>
      <trkpt lat="40.62823" lon="-2.4018100000000002">
        <time>2021-06-19T10:55:55+0000</time>
      </trkpt>
      <trkpt lat="40.62827" lon="-2.40159">
        <time>2021-06-19T10:55:56+0000</time>
      </trkpt>
      <trkpt lat="40.62832" lon="-2.40137">
        <time>2021-06-19T10:55:57+0000</time>
      </trkpt>
      <trkpt lat="40.628370000000004" lon="-2.4011500000000003">
        <time>2021-06-19T10:55:58+0000</time>
      </trkpt>
      <trkpt lat="40.62843" lon="-2.4009300000000002">
        <time>2021-06-19T10:55:59+0000</time>
      </trkpt>
      <trkpt lat="40.62848" lon="-2.40069">
        <time>2021-06-19T10:56:00+0000</time>
      </trkpt>
      <trkpt lat="40.62854" lon="-2.40045">
        <time>2021-06-19T10:56:01+0000</time>
      </trkpt>
      <trkpt lat="40.628600000000006" lon="-2.4002100000000004">
        <time>2021-06-19T10:56:02+0000</time>
      </trkpt>
      <trkpt lat="40.62865" lon="-2.39997">
        <time>2021-06-19T10:56:03+0000</time>
      </trkpt>
      <trkpt lat="40.6287" lon="-2.3997200000000003">
        <time>2021-06-19T10:56:04+0000</time>
      </trkpt>
      <trkpt lat="40.62876000000001" lon="-2.39947">
        <time>2021-06-19T10:56:05+0000</time>
      </trkpt>
      <trkpt lat="40.628840000000004" lon="-2.39923">
        <time>2021-06-19T10:56:06+0000</time>
      </trkpt>
      <trkpt lat="40.62895" lon="-2.3989900000000004">
        <time>2021-06-19T10:56:07+0000</time>
      </trkpt>
      <trkpt lat="40.629070000000006" lon="-2.3987800000000004">
        <time>2021-06-19T10:56:08+0000</time>
      </trkpt>
      <trkpt lat="40.629180000000005" lon="-2.39855">
        <time>2021-06-19T10:56:09+0000</time>
      </trkpt>
      <trkpt lat="40.6293" lon="-2.3983100000000004">
        <time>2021-06-19T10:56:10+0000</time>
      </trkpt>
      <trkpt lat="40.62942" lon="-2.39807">
        <time>2021-06-19T10:56:11+0000</time>
      </trkpt>
      <trkpt lat="40.62955" lon="-2.39781">
        <time>2021-06-19T10:56:12+0000</time>
      </trkpt>
      <trkpt lat="40.62968" lon="-2.3975500000000003">
        <time>2021-06-19T10:56:13+0000</time>
      </trkpt>
      <trkpt lat="40.629810000000006" lon="-2.3972900000000004">
        <time>2021-06-19T10:56:14+0000</time>
      </trkpt>
      <trkpt lat="40.629940000000005" lon="-2.39703">
        <time>2021-06-19T10:56:15+0000</time>
      </trkpt>
      <trkpt lat="40.63009" lon="-2.39677">
        <time>2021-06-19T10:56:16+0000</time>
      </trkpt>
      <trkpt lat="40.630230000000005" lon="-2.39651">
        <time>2021-06-19T10:56:17+0000</time>
      </trkpt>
      <trkpt lat="40.630370000000006" lon="-2.39624">
        <time>2021-06-19T10:56:18+0000</time>
      </trkpt>
      <trkpt lat="40.630500000000005" lon="-2.39595">
        <time>2021-06-19T10:56:19+0000</time>
      </trkpt>
      <trkpt lat="40.630660000000006" lon="-2.39569">
        <time>2021-06-19T10:56:20+0000</time>
      </trkpt>
      <trkpt lat="40.6308" lon="-2.39541">
        <time>2021-06-19T10:56:21+0000</time>
      </trkpt>
      <trkpt lat="40.630930000000006" lon="-2.3951200000000004">
        <time>2021-06-19T10:56:22+0000</time>
      </trkpt>
      <trkpt lat="40.631080000000004" lon="-2.3948400000000003">
        <time>2021-06-19T10:56:23+0000</time>
      </trkpt>
      <trkpt lat="40.63123" lon="-2.3945600000000002">
        <time>2021-06-19T10:56:24+0000</time>
      </trkpt>
      <trkpt lat="40.63138" lon="-2.39428">
        <time>2021-06-19T10:56:25+0000</time>
      </trkpt>
      <trkpt lat="40.63152" lon="-2.39398">
        <time>2021-06-19T10:56:26+0000</time>
      </trkpt>
      <trkpt lat="40.631660000000004" lon="-2.3936900000000003">
        <time>2021-06-19T10:56:27+0000</time>
      </trkpt>
      <trkpt lat="40.63181" lon="-2.3934100000000003">
        <time>2021-06-19T10:56:28+0000</time>
      </trkpt>
      <trkpt lat="40.63196000000001" lon="-2.39312">
        <time>2021-06-19T10:56:29+0000</time>
      </trkpt>
      <trkpt lat="40.6321" lon="-2.39284">
        <time>2021-06-19T10:56:30+0000</time>
      </trkpt>
      <trkpt lat="40.63223" lon="-2.39256">
        <time>2021-06-19T10:56:31+0000</time>
      </trkpt>
      <trkpt lat="40.632340000000006" lon="-2.3922600000000003">
        <time>2021-06-19T10:56:32+0000</time>
      </trkpt>
      <trkpt lat="40.63241" lon="-2.3919300000000003">
        <time>2021-06-19T10:56:33+0000</time>
      </trkpt>
      <trkpt lat="40.63244" lon="-2.3915900000000003">
        <time>2021-06-19T10:56:34+0000</time>
      </trkpt>
      <trkpt lat="40.632470000000005" lon="-2.39123">
        <time>2021-06-19T10:56:35+0000</time>
      </trkpt>
      <trkpt lat="40.632490000000004" lon="-2.39088">
        <time>2021-06-19T10:56:36+0000</time>
      </trkpt>
      <trkpt lat="40.6325" lon="-2.39053">
        <time>2021-06-19T10:56:37+0000</time>
      </trkpt>
      <trkpt lat="40.63252000000001" lon="-2.3901800000000004">
        <time>2021-06-19T10:56:38+0000</time>
      </trkpt>
      <trkpt lat="40.632540000000006" lon="-2.3898300000000003">
        <time>2021-06-19T10:56:39+0000</time>
      </trkpt>
      <trkpt lat="40.632560000000005" lon="-2.3894900000000003">
        <time>2021-06-19T10:56:40+0000</time>
      </trkpt>
      <trkpt lat="40.632580000000004" lon="-2.3891400000000003">
        <time>2021-06-19T10:56:41+0000</time>
      </trkpt>
      <trkpt lat="40.632600000000004" lon="-2.3888100000000003">
        <time>2021-06-19T10:56:42+0000</time>
      </trkpt>
      <trkpt lat="40.63261000000001" lon="-2.3884700000000003">
        <time>2021-06-19T10:56:43+0000</time>
      </trkpt>
      <trkpt lat="40.632630000000006" lon="-2.3881400000000004">
        <time>2021-06-19T10:56:44+0000</time>
      </trkpt>
      <trkpt lat="40.632650000000005" lon="-2.3878000000000004">
        <time>2021-06-19T10:56:45+0000</time>
      </trkpt>
      <trkpt lat="40.63266" lon="-2.3874500000000003">
        <time>2021-06-19T10:56:46+0000</time>
      </trkpt>
      <trkpt lat="40.63268" lon="-2.3871100000000003">
        <time>2021-06-19T10:56:47+0000</time>
      </trkpt>
      <trkpt lat="40.6327" lon="-2.38676">
        <time>2021-06-19T10:56:48+0000</time>
      </trkpt>
      <trkpt lat="40.632720000000006" lon="-2.38642">
        <time>2021-06-19T10:56:49+0000</time>
      </trkpt>
      <trkpt lat="40.632740000000005" lon="-2.38607">
        <time>2021-06-19T10:56:50+0000</time>
      </trkpt>
      <trkpt lat="40.63275" lon="-2.38573">
        <time>2021-06-19T10:56:51+0000</time>
      </trkpt>
      <trkpt lat="40.63277" lon="-2.38538">
        <time>2021-06-19T10:56:52+0000</time>
      </trkpt>
      <trkpt lat="40.63279" lon="-2.38504">
        <time>2021-06-19T10:56:53+0000</time>
      </trkpt>
      <trkpt lat="40.632850000000005" lon="-2.38469">
        <time>2021-06-19T10:56:54+0000</time>
      </trkpt>
      <trkpt lat="40.632870000000004" lon="-2.3843400000000003">
        <time>2021-06-19T10:56:55+0000</time>
      </trkpt>
      <trkpt lat="40.63288" lon="-2.3839900000000003">
        <time>2021-06-19T10:56:56+0000</time>
      </trkpt>
      <trkpt lat="40.63290000000001" lon="-2.38363">
        <time>2021-06-19T10:56:57+0000</time>
      </trkpt>
      <trkpt lat="40.632920000000006" lon="-2.38328">
        <time>2021-06-19T10:56:58+0000</time>
      </trkpt>
      <trkpt lat="40.632940000000005" lon="-2.38293">
        <time>2021-06-19T10:56:59+0000</time>
      </trkpt>
      <trkpt lat="40.632960000000004" lon="-2.3825800000000004">
        <time>2021-06-19T10:57:00+0000</time>
      </trkpt>
      <trkpt lat="40.63298" lon="-2.3822400000000004">
        <time>2021-06-19T10:57:01+0000</time>
      </trkpt>
      <trkpt lat="40.63299000000001" lon="-2.3819100000000004">
        <time>2021-06-19T10:57:02+0000</time>
      </trkpt>
      <trkpt lat="40.633" lon="-2.38159">
        <time>2021-06-19T10:57:03+0000</time>
      </trkpt>
      <trkpt lat="40.63302" lon="-2.38127">
        <time>2021-06-19T10:57:04+0000</time>
      </trkpt>
      <trkpt lat="40.63304" lon="-2.3809600000000004">
        <time>2021-06-19T10:57:05+0000</time>
      </trkpt>
      <trkpt lat="40.633050000000004" lon="-2.38065">
        <time>2021-06-19T10:57:06+0000</time>
      </trkpt>
      <trkpt lat="40.633070000000004" lon="-2.38037">
        <time>2021-06-19T10:57:07+0000</time>
      </trkpt>
      <trkpt lat="40.63308000000001" lon="-2.3801">
        <time>2021-06-19T10:57:08+0000</time>
      </trkpt>
      <trkpt lat="40.63309" lon="-2.3798500000000002">
        <time>2021-06-19T10:57:09+0000</time>
      </trkpt>
      <trkpt lat="40.633100000000006" lon="-2.37963">
        <time>2021-06-19T10:57:10+0000</time>
      </trkpt>
      <trkpt lat="40.63311" lon="-2.37944">
        <time>2021-06-19T10:57:11+0000</time>
      </trkpt>
      <trkpt lat="40.633120000000005" lon="-2.3792600000000004">
        <time>2021-06-19T10:57:12+0000</time>
      </trkpt>
      <trkpt lat="40.633120000000005" lon="-2.37909">
        <time>2021-06-19T10:57:13+0000</time>
      </trkpt>
      <trkpt lat="40.63313" lon="-2.37893">
        <time>2021-06-19T10:57:14+0000</time>
      </trkpt>
      <trkpt lat="40.633120000000005" lon="-2.3787700000000003">
        <time>2021-06-19T10:57:15+0000</time>
      </trkpt>
      <trkpt lat="40.633120000000005" lon="-2.37861">
        <time>2021-06-19T10:57:16+0000</time>
      </trkpt>
      <trkpt lat="40.63311" lon="-2.3784400000000003">
        <time>2021-06-19T10:57:17+0000</time>
      </trkpt>
      <trkpt lat="40.63311" lon="-2.37828">
        <time>2021-06-19T10:57:18+0000</time>
      </trkpt>
      <trkpt lat="40.633100000000006" lon="-2.37813">
        <time>2021-06-19T10:57:19+0000</time>
      </trkpt>
      <trkpt lat="40.63309" lon="-2.37799">
        <time>2021-06-19T10:57:20+0000</time>
      </trkpt>
      <trkpt lat="40.63308000000001" lon="-2.3778400000000004">
        <time>2021-06-19T10:57:21+0000</time>
      </trkpt>
      <trkpt lat="40.633070000000004" lon="-2.3776800000000002">
        <time>2021-06-19T10:57:22+0000</time>
      </trkpt>
      <trkpt lat="40.63306" lon="-2.37752">
        <time>2021-06-19T10:57:23+0000</time>
      </trkpt>
      <trkpt lat="40.63304" lon="-2.3773600000000004">
        <time>2021-06-19T10:57:24+0000</time>
      </trkpt>
      <trkpt lat="40.633030000000005" lon="-2.3772">
        <time>2021-06-19T10:57:25+0000</time>
      </trkpt>
      <trkpt lat="40.633" lon="-2.37703">
        <time>2021-06-19T10:57:26+0000</time>
      </trkpt>
      <trkpt lat="40.63299000000001" lon="-2.37685">
        <time>2021-06-19T10:57:27+0000</time>
      </trkpt>
      <trkpt lat="40.63297" lon="-2.3766700000000003">
        <time>2021-06-19T10:57:28+0000</time>
      </trkpt>
      <trkpt lat="40.632960000000004" lon="-2.3764800000000004">
        <time>2021-06-19T10:57:29+0000</time>
      </trkpt>
      <trkpt lat="40.632940000000005" lon="-2.3762700000000003">
        <time>2021-06-19T10:57:30+0000</time>
      </trkpt>
      <trkpt lat="40.63293" lon="-2.37605">
        <time>2021-06-19T10:57:31+0000</time>
      </trkpt>
      <trkpt lat="40.63293" lon="-2.37582">
        <time>2021-06-19T10:57:32+0000</time>
      </trkpt>
      <trkpt lat="40.632940000000005" lon="-2.3755800000000002">
        <time>2021-06-19T10:57:33+0000</time>
      </trkpt>
      <trkpt lat="40.63299000000001" lon="-2.3753300000000004">
        <time>2021-06-19T10:57:34+0000</time>
      </trkpt>
      <trkpt lat="40.63306" lon="-2.37508">
        <time>2021-06-19T10:57:35+0000</time>
      </trkpt>
      <trkpt lat="40.63317" lon="-2.3748500000000003">
        <time>2021-06-19T10:57:36+0000</time>
      </trkpt>
      <trkpt lat="40.63331" lon="-2.3746400000000003">
        <time>2021-06-19T10:57:37+0000</time>
      </trkpt>
      <trkpt lat="40.63347" lon="-2.37446">
        <time>2021-06-19T10:57:38+0000</time>
      </trkpt>
      <trkpt lat="40.63365" lon="-2.3743100000000004">
        <time>2021-06-19T10:57:39+0000</time>
      </trkpt>
      <trkpt lat="40.633840000000006" lon="-2.37419">
        <time>2021-06-19T10:57:40+0000</time>
      </trkpt>
      <trkpt lat="40.634040000000006" lon="-2.3741000000000003">
        <time>2021-06-19T10:57:41+0000</time>
      </trkpt>
      <trkpt lat="40.634240000000005" lon="-2.3740400000000004">
        <time>2021-06-19T10:57:42+0000</time>
      </trkpt>
      <trkpt lat="40.63443" lon="-2.37399">
        <time>2021-06-19T10:57:43+0000</time>
      </trkpt>
      <trkpt lat="40.634620000000005" lon="-2.37394">
        <time>2021-06-19T10:57:44+0000</time>
      </trkpt>
      <trkpt lat="40.634800000000006" lon="-2.37388">
        <time>2021-06-19T10:57:45+0000</time>
      </trkpt>
      <trkpt lat="40.63497" lon="-2.3738200000000003">
        <time>2021-06-19T10:57:46+0000</time>
      </trkpt>
      <trkpt lat="40.63514" lon="-2.37374">
        <time>2021-06-19T10:57:47+0000</time>
      </trkpt>
      <trkpt lat="40.635290000000005" lon="-2.37364">
        <time>2021-06-19T10:57:48+0000</time>
      </trkpt>
      <trkpt lat="40.63543000000001" lon="-2.37353">
        <time>2021-06-19T10:57:49+0000</time>
      </trkpt>
      <trkpt lat="40.63555" lon="-2.3734">
        <time>2021-06-19T10:57:50+0000</time>
      </trkpt>
      <trkpt lat="40.63566" lon="-2.37327">
        <time>2021-06-19T10:57:51+0000</time>
      </trkpt>
      <trkpt lat="40.63573" lon="-2.37311">
        <time>2021-06-19T10:57:52+0000</time>
      </trkpt>
      <trkpt lat="40.6358" lon="-2.37297">
        <time>2021-06-19T10:57:53+0000</time>
      </trkpt>
      <trkpt lat="40.635870000000004" lon="-2.37283">
        <time>2021-06-19T10:57:54+0000</time>
      </trkpt>
      <trkpt lat="40.63593" lon="-2.3726800000000003">
        <time>2021-06-19T10:57:55+0000</time>
      </trkpt>
      <trkpt lat="40.63599000000001" lon="-2.3725">
        <time>2021-06-19T10:57:56+0000</time>
      </trkpt>
      <trkpt lat="40.63604" lon="-2.37231">
        <time>2021-06-19T10:57:57+0000</time>
      </trkpt>
      <trkpt lat="40.636100000000006" lon="-2.37211">
        <time>2021-06-19T10:57:58+0000</time>
      </trkpt>
      <trkpt lat="40.636160000000004" lon="-2.3719">
        <time>2021-06-19T10:57:59+0000</time>
      </trkpt>
      <trkpt lat="40.636210000000005" lon="-2.37171">
        <time>2021-06-19T10:58:00+0000</time>
      </trkpt>
      <trkpt lat="40.63626" lon="-2.37154">
        <time>2021-06-19T10:58:01+0000</time>
      </trkpt>
      <trkpt lat="40.63631" lon="-2.3713800000000003">
        <time>2021-06-19T10:58:02+0000</time>
      </trkpt>
      <trkpt lat="40.63636" lon="-2.37123">
        <time>2021-06-19T10:58:03+0000</time>
      </trkpt>
      <trkpt lat="40.63642" lon="-2.3711">
        <time>2021-06-19T10:58:04+0000</time>
      </trkpt>
      <trkpt lat="40.63647" lon="-2.3709900000000004">
        <time>2021-06-19T10:58:05+0000</time>
      </trkpt>
      <trkpt lat="40.636540000000004" lon="-2.37089">
        <time>2021-06-19T10:58:06+0000</time>
      </trkpt>
      <trkpt lat="40.6366" lon="-2.3707900000000004">
        <time>2021-06-19T10:58:07+0000</time>
      </trkpt>
      <trkpt lat="40.63667" lon="-2.3707000000000003">
        <time>2021-06-19T10:58:08+0000</time>
      </trkpt>
      <trkpt lat="40.63673" lon="-2.37061">
        <time>2021-06-19T10:58:09+0000</time>
      </trkpt>
      <trkpt lat="40.6368" lon="-2.37053">
        <time>2021-06-19T10:58:10+0000</time>
      </trkpt>
      <trkpt lat="40.636880000000005" lon="-2.3704500000000004">
        <time>2021-06-19T10:58:11+0000</time>
      </trkpt>
      <trkpt lat="40.63696" lon="-2.3703800000000004">
        <time>2021-06-19T10:58:12+0000</time>
      </trkpt>
      <trkpt lat="40.63705" lon="-2.3703100000000004">
        <time>2021-06-19T10:58:13+0000</time>
      </trkpt>
      <trkpt lat="40.637150000000005" lon="-2.37022">
        <time>2021-06-19T10:58:14+0000</time>
      </trkpt>
      <trkpt lat="40.63725" lon="-2.37014">
        <time>2021-06-19T10:58:15+0000</time>
      </trkpt>
      <trkpt lat="40.63736" lon="-2.37007">
        <time>2021-06-19T10:58:16+0000</time>
      </trkpt>
      <trkpt lat="40.637480000000004" lon="-2.37001">
        <time>2021-06-19T10:58:17+0000</time>
      </trkpt>
      <trkpt lat="40.63761" lon="-2.36994">
        <time>2021-06-19T10:58:18+0000</time>
      </trkpt>
      <trkpt lat="40.637750000000004" lon="-2.36987">
        <time>2021-06-19T10:58:19+0000</time>
      </trkpt>
      <trkpt lat="40.637890000000006" lon="-2.36979">
        <time>2021-06-19T10:58:20+0000</time>
      </trkpt>
      <trkpt lat="40.63805" lon="-2.3697000000000004">
        <time>2021-06-19T10:58:21+0000</time>
      </trkpt>
      <trkpt lat="40.63821" lon="-2.3696200000000003">
        <time>2021-06-19T10:58:22+0000</time>
      </trkpt>
      <trkpt lat="40.638380000000005" lon="-2.36953">
        <time>2021-06-19T10:58:23+0000</time>
      </trkpt>
      <trkpt lat="40.63855" lon="-2.36944">
        <time>2021-06-19T10:58:24+0000</time>
      </trkpt>
      <trkpt lat="40.638720000000006" lon="-2.3693500000000003">
        <time>2021-06-19T10:58:25+0000</time>
      </trkpt>
      <trkpt lat="40.63889" lon="-2.36927">
        <time>2021-06-19T10:58:26+0000</time>
      </trkpt>
      <trkpt lat="40.639050000000005" lon="-2.36918">
        <time>2021-06-19T10:58:27+0000</time>
      </trkpt>
      <trkpt lat="40.639230000000005" lon="-2.3690800000000003">
        <time>2021-06-19T10:58:28+0000</time>
      </trkpt>
      <trkpt lat="40.639410000000005" lon="-2.369">
        <time>2021-06-19T10:58:29+0000</time>
      </trkpt>
      <trkpt lat="40.639590000000005" lon="-2.36891">
        <time>2021-06-19T10:58:30+0000</time>
      </trkpt>
      <trkpt lat="40.63978" lon="-2.36883">
        <time>2021-06-19T10:58:31+0000</time>
      </trkpt>
      <trkpt lat="40.639970000000005" lon="-2.3687300000000002">
        <time>2021-06-19T10:58:32+0000</time>
      </trkpt>
      <trkpt lat="40.640170000000005" lon="-2.36863">
        <time>2021-06-19T10:58:33+0000</time>
      </trkpt>
      <trkpt lat="40.640370000000004" lon="-2.3685400000000003">
        <time>2021-06-19T10:58:34+0000</time>
      </trkpt>
      <trkpt lat="40.64058" lon="-2.3684600000000002">
        <time>2021-06-19T10:58:35+0000</time>
      </trkpt>
      <trkpt lat="40.64078000000001" lon="-2.36836">
        <time>2021-06-19T10:58:36+0000</time>
      </trkpt>
      <trkpt lat="40.64099" lon="-2.3682700000000003">
        <time>2021-06-19T10:58:37+0000</time>
      </trkpt>
      <trkpt lat="40.641200000000005" lon="-2.36817">
        <time>2021-06-19T10:58:38+0000</time>
      </trkpt>
      <trkpt lat="40.641400000000004" lon="-2.3680800000000004">
        <time>2021-06-19T10:58:39+0000</time>
      </trkpt>
      <trkpt lat="40.641600000000004" lon="-2.36798">
        <time>2021-06-19T10:58:40+0000</time>
      </trkpt>
      <trkpt lat="40.6418" lon="-2.36788">
        <time>2021-06-19T10:58:41+0000</time>
      </trkpt>
      <trkpt lat="40.64199" lon="-2.36777">
        <time>2021-06-19T10:58:42+0000</time>
      </trkpt>
      <trkpt lat="40.642160000000004" lon="-2.36761">
        <time>2021-06-19T10:58:43+0000</time>
      </trkpt>
      <trkpt lat="40.642320000000005" lon="-2.36742">
        <time>2021-06-19T10:58:44+0000</time>
      </trkpt>
      <trkpt lat="40.64246" lon="-2.3672000000000004">
        <time>2021-06-19T10:58:45+0000</time>
      </trkpt>
      <trkpt lat="40.642570000000006" lon="-2.36693">
        <time>2021-06-19T10:58:46+0000</time>
      </trkpt>
      <trkpt lat="40.64265" lon="-2.3666500000000004">
        <time>2021-06-19T10:58:47+0000</time>
      </trkpt>
      <trkpt lat="40.64269" lon="-2.36634">
        <time>2021-06-19T10:58:48+0000</time>
      </trkpt>
      <trkpt lat="40.64271" lon="-2.3660300000000003">
        <time>2021-06-19T10:58:49+0000</time>
      </trkpt>
      <trkpt lat="40.64274" lon="-2.36572">
        <time>2021-06-19T10:58:50+0000</time>
      </trkpt>
      <trkpt lat="40.642790000000005" lon="-2.36544">
        <time>2021-06-19T10:58:51+0000</time>
      </trkpt>
      <trkpt lat="40.64285" lon="-2.36519">
        <time>2021-06-19T10:58:52+0000</time>
      </trkpt>
      <trkpt lat="40.64291" lon="-2.36497">
        <time>2021-06-19T10:58:53+0000</time>
      </trkpt>
      <trkpt lat="40.64298" lon="-2.36477">
        <time>2021-06-19T10:58:54+0000</time>
      </trkpt>
      <trkpt lat="40.64303" lon="-2.36458">
        <time>2021-06-19T10:58:55+0000</time>
      </trkpt>
      <trkpt lat="40.643100000000004" lon="-2.36438">
        <time>2021-06-19T10:58:56+0000</time>
      </trkpt>
      <trkpt lat="40.64316" lon="-2.36418">
        <time>2021-06-19T10:58:57+0000</time>
      </trkpt>
      <trkpt lat="40.64322000000001" lon="-2.36397">
        <time>2021-06-19T10:58:58+0000</time>
      </trkpt>
      <trkpt lat="40.64329" lon="-2.36375">
        <time>2021-06-19T10:58:59+0000</time>
      </trkpt>
      <trkpt lat="40.643350000000005" lon="-2.3635300000000004">
        <time>2021-06-19T10:59:00+0000</time>
      </trkpt>
      <trkpt lat="40.643420000000006" lon="-2.3633">
        <time>2021-06-19T10:59:01+0000</time>
      </trkpt>
      <trkpt lat="40.6435" lon="-2.36309">
        <time>2021-06-19T10:59:02+0000</time>
      </trkpt>
      <trkpt lat="40.64356" lon="-2.3628500000000003">
        <time>2021-06-19T10:59:03+0000</time>
      </trkpt>
      <trkpt lat="40.64365" lon="-2.36262">
        <time>2021-06-19T10:59:04+0000</time>
      </trkpt>
      <trkpt lat="40.643730000000005" lon="-2.3623700000000003">
        <time>2021-06-19T10:59:05+0000</time>
      </trkpt>
      <trkpt lat="40.643800000000006" lon="-2.36213">
        <time>2021-06-19T10:59:06+0000</time>
      </trkpt>
      <trkpt lat="40.64388" lon="-2.36187">
        <time>2021-06-19T10:59:07+0000</time>
      </trkpt>
      <trkpt lat="40.64396" lon="-2.3616200000000003">
        <time>2021-06-19T10:59:08+0000</time>
      </trkpt>
      <trkpt lat="40.64403" lon="-2.3613700000000004">
        <time>2021-06-19T10:59:09+0000</time>
      </trkpt>
      <trkpt lat="40.64412" lon="-2.3611">
        <time>2021-06-19T10:59:10+0000</time>
      </trkpt>
      <trkpt lat="40.64419" lon="-2.36084">
        <time>2021-06-19T10:59:11+0000</time>
      </trkpt>
      <trkpt lat="40.644270000000006" lon="-2.36059">
        <time>2021-06-19T10:59:12+0000</time>
      </trkpt>
      <trkpt lat="40.64435" lon="-2.3603400000000003">
        <time>2021-06-19T10:59:13+0000</time>
      </trkpt>
      <trkpt lat="40.644420000000004" lon="-2.3601">
        <time>2021-06-19T10:59:14+0000</time>
      </trkpt>
      <trkpt lat="40.6445" lon="-2.3598500000000002">
        <time>2021-06-19T10:59:15+0000</time>
      </trkpt>
      <trkpt lat="40.644580000000005" lon="-2.3596000000000004">
        <time>2021-06-19T10:59:16+0000</time>
      </trkpt>
      <trkpt lat="40.64466" lon="-2.35936">
        <time>2021-06-19T10:59:17+0000</time>
      </trkpt>
      <trkpt lat="40.64475" lon="-2.3591200000000003">
        <time>2021-06-19T10:59:18+0000</time>
      </trkpt>
      <trkpt lat="40.644850000000005" lon="-2.35888">
        <time>2021-06-19T10:59:19+0000</time>
      </trkpt>
      <trkpt lat="40.64495" lon="-2.3586500000000004">
        <time>2021-06-19T10:59:20+0000</time>
      </trkpt>
      <trkpt lat="40.64506" lon="-2.35841">
        <time>2021-06-19T10:59:21+0000</time>
      </trkpt>
      <trkpt lat="40.64518" lon="-2.3581800000000004">
        <time>2021-06-19T10:59:22+0000</time>
      </trkpt>
      <trkpt lat="40.645300000000006" lon="-2.35794">
        <time>2021-06-19T10:59:23+0000</time>
      </trkpt>
      <trkpt lat="40.64542" lon="-2.35771">
        <time>2021-06-19T10:59:24+0000</time>
      </trkpt>
      <trkpt lat="40.64555" lon="-2.35747">
        <time>2021-06-19T10:59:25+0000</time>
      </trkpt>
      <trkpt lat="40.64566000000001" lon="-2.35724">
        <time>2021-06-19T10:59:26+0000</time>
      </trkpt>
      <trkpt lat="40.64578" lon="-2.3570100000000003">
        <time>2021-06-19T10:59:27+0000</time>
      </trkpt>
      <trkpt lat="40.64589" lon="-2.3568000000000002">
        <time>2021-06-19T10:59:28+0000</time>
      </trkpt>
      <trkpt lat="40.646" lon="-2.3566100000000003">
        <time>2021-06-19T10:59:29+0000</time>
      </trkpt>
      <trkpt lat="40.64609" lon="-2.35644">
        <time>2021-06-19T10:59:30+0000</time>
      </trkpt>
      <trkpt lat="40.646170000000005" lon="-2.35629">
        <time>2021-06-19T10:59:31+0000</time>
      </trkpt>
      <trkpt lat="40.646240000000006" lon="-2.3561500000000004">
        <time>2021-06-19T10:59:32+0000</time>
      </trkpt>
      <trkpt lat="40.64631000000001" lon="-2.35603">
        <time>2021-06-19T10:59:33+0000</time>
      </trkpt>
      <trkpt lat="40.646370000000005" lon="-2.35591">
        <time>2021-06-19T10:59:34+0000</time>
      </trkpt>
      <trkpt lat="40.646420000000006" lon="-2.3558000000000003">
        <time>2021-06-19T10:59:35+0000</time>
      </trkpt>
      <trkpt lat="40.646480000000004" lon="-2.35569">
        <time>2021-06-19T10:59:36+0000</time>
      </trkpt>
      <trkpt lat="40.646530000000006" lon="-2.3555900000000003">
        <time>2021-06-19T10:59:37+0000</time>
      </trkpt>
      <trkpt lat="40.64659" lon="-2.35548">
        <time>2021-06-19T10:59:38+0000</time>
      </trkpt>
      <trkpt lat="40.64665" lon="-2.35537">
        <time>2021-06-19T10:59:39+0000</time>
      </trkpt>
      <trkpt lat="40.646710000000006" lon="-2.3552400000000002">
        <time>2021-06-19T10:59:40+0000</time>
      </trkpt>
      <trkpt lat="40.64678000000001" lon="-2.3551100000000003">
        <time>2021-06-19T10:59:41+0000</time>
      </trkpt>
      <trkpt lat="40.646840000000005" lon="-2.3549800000000003">
        <time>2021-06-19T10:59:42+0000</time>
      </trkpt>
      <trkpt lat="40.646910000000005" lon="-2.3548500000000003">
        <time>2021-06-19T10:59:43+0000</time>
      </trkpt>
      <trkpt lat="40.647000000000006" lon="-2.3547000000000002">
        <time>2021-06-19T10:59:44+0000</time>
      </trkpt>
      <trkpt lat="40.64708" lon="-2.35454">
        <time>2021-06-19T10:59:45+0000</time>
      </trkpt>
      <trkpt lat="40.64717" lon="-2.3543800000000004">
        <time>2021-06-19T10:59:46+0000</time>
      </trkpt>
      <trkpt lat="40.647270000000006" lon="-2.3542">
        <time>2021-06-19T10:59:47+0000</time>
      </trkpt>
      <trkpt lat="40.647360000000006" lon="-2.35401">
        <time>2021-06-19T10:59:48+0000</time>
      </trkpt>
      <trkpt lat="40.647470000000006" lon="-2.3538300000000003">
        <time>2021-06-19T10:59:49+0000</time>
      </trkpt>
      <trkpt lat="40.64757" lon="-2.3536400000000004">
        <time>2021-06-19T10:59:50+0000</time>
      </trkpt>
      <trkpt lat="40.647670000000005" lon="-2.35344">
        <time>2021-06-19T10:59:51+0000</time>
      </trkpt>
      <trkpt lat="40.647780000000004" lon="-2.35324">
        <time>2021-06-19T10:59:52+0000</time>
      </trkpt>
      <trkpt lat="40.647890000000004" lon="-2.35304">
        <time>2021-06-19T10:59:53+0000</time>
      </trkpt>
      <trkpt lat="40.64799" lon="-2.35285">
        <time>2021-06-19T10:59:54+0000</time>
      </trkpt>
      <trkpt lat="40.64809" lon="-2.3526700000000003">
        <time>2021-06-19T10:59:55+0000</time>
      </trkpt>
      <trkpt lat="40.64819000000001" lon="-2.3524800000000003">
        <time>2021-06-19T10:59:56+0000</time>
      </trkpt>
      <trkpt lat="40.64829" lon="-2.35229">
        <time>2021-06-19T10:59:57+0000</time>
      </trkpt>
      <trkpt lat="40.648390000000006" lon="-2.3520800000000004">
        <time>2021-06-19T10:59:58+0000</time>
      </trkpt>
      <trkpt lat="40.648500000000006" lon="-2.3518700000000003">
        <time>2021-06-19T10:59:59+0000</time>
      </trkpt>
      <trkpt lat="40.648610000000005" lon="-2.3516700000000004">
        <time>2021-06-19T11:00:00+0000</time>
      </trkpt>
      <trkpt lat="40.648720000000004" lon="-2.3514500000000003">
        <time>2021-06-19T11:00:01+0000</time>
      </trkpt>
      <trkpt lat="40.64882" lon="-2.35124">
        <time>2021-06-19T11:00:02+0000</time>
      </trkpt>
      <trkpt lat="40.64893" lon="-2.35103">
        <time>2021-06-19T11:00:03+0000</time>
      </trkpt>
      <trkpt lat="40.64904000000001" lon="-2.35083">
        <time>2021-06-19T11:00:04+0000</time>
      </trkpt>
      <trkpt lat="40.649150000000006" lon="-2.35062">
        <time>2021-06-19T11:00:05+0000</time>
      </trkpt>
      <trkpt lat="40.649260000000005" lon="-2.35042">
        <time>2021-06-19T11:00:06+0000</time>
      </trkpt>
      <trkpt lat="40.64936" lon="-2.35022">
        <time>2021-06-19T11:00:07+0000</time>
      </trkpt>
      <trkpt lat="40.64947" lon="-2.35002">
        <time>2021-06-19T11:00:08+0000</time>
      </trkpt>
      <trkpt lat="40.64959" lon="-2.3498">
        <time>2021-06-19T11:00:09+0000</time>
      </trkpt>
      <trkpt lat="40.6497" lon="-2.34958">
        <time>2021-06-19T11:00:10+0000</time>
      </trkpt>
      <trkpt lat="40.649820000000005" lon="-2.3493500000000003">
        <time>2021-06-19T11:00:11+0000</time>
      </trkpt>
      <trkpt lat="40.649930000000005" lon="-2.34912">
        <time>2021-06-19T11:00:12+0000</time>
      </trkpt>
      <trkpt lat="40.65005" lon="-2.3488800000000003">
        <time>2021-06-19T11:00:13+0000</time>
      </trkpt>
      <trkpt lat="40.650180000000006" lon="-2.34864">
        <time>2021-06-19T11:00:14+0000</time>
      </trkpt>
      <trkpt lat="40.65032" lon="-2.34839">
        <time>2021-06-19T11:00:15+0000</time>
      </trkpt>
      <trkpt lat="40.65044" lon="-2.3481500000000004">
        <time>2021-06-19T11:00:16+0000</time>
      </trkpt>
      <trkpt lat="40.65057" lon="-2.3479200000000002">
        <time>2021-06-19T11:00:17+0000</time>
      </trkpt>
      <trkpt lat="40.650690000000004" lon="-2.34768">
        <time>2021-06-19T11:00:18+0000</time>
      </trkpt>
      <trkpt lat="40.65081" lon="-2.3474500000000003">
        <time>2021-06-19T11:00:19+0000</time>
      </trkpt>
      <trkpt lat="40.65093" lon="-2.34721">
        <time>2021-06-19T11:00:20+0000</time>
      </trkpt>
      <trkpt lat="40.651050000000005" lon="-2.3469700000000002">
        <time>2021-06-19T11:00:21+0000</time>
      </trkpt>
      <trkpt lat="40.651180000000004" lon="-2.34673">
        <time>2021-06-19T11:00:22+0000</time>
      </trkpt>
      <trkpt lat="40.651300000000006" lon="-2.3465000000000003">
        <time>2021-06-19T11:00:23+0000</time>
      </trkpt>
      <trkpt lat="40.651430000000005" lon="-2.34627">
        <time>2021-06-19T11:00:24+0000</time>
      </trkpt>
      <trkpt lat="40.65153" lon="-2.3460500000000004">
        <time>2021-06-19T11:00:25+0000</time>
      </trkpt>
      <trkpt lat="40.65164" lon="-2.34586">
        <time>2021-06-19T11:00:26+0000</time>
      </trkpt>
      <trkpt lat="40.65175" lon="-2.34568">
        <time>2021-06-19T11:00:27+0000</time>
      </trkpt>
      <trkpt lat="40.65184" lon="-2.34552">
        <time>2021-06-19T11:00:28+0000</time>
      </trkpt>
      <trkpt lat="40.65194" lon="-2.3453700000000004">
        <time>2021-06-19T11:00:29+0000</time>
      </trkpt>
      <trkpt lat="40.65203" lon="-2.34524">
        <time>2021-06-19T11:00:30+0000</time>
      </trkpt>
      <trkpt lat="40.652120000000004" lon="-2.34512">
        <time>2021-06-19T11:00:31+0000</time>
      </trkpt>
      <trkpt lat="40.6522" lon="-2.3450200000000003">
        <time>2021-06-19T11:00:32+0000</time>
      </trkpt>
      <trkpt lat="40.652280000000005" lon="-2.34492">
        <time>2021-06-19T11:00:33+0000</time>
      </trkpt>
      <trkpt lat="40.65238" lon="-2.3448200000000003">
        <time>2021-06-19T11:00:34+0000</time>
      </trkpt>
      <trkpt lat="40.65247" lon="-2.34472">
        <time>2021-06-19T11:00:35+0000</time>
      </trkpt>
      <trkpt lat="40.652590000000004" lon="-2.3446100000000003">
        <time>2021-06-19T11:00:36+0000</time>
      </trkpt>
      <trkpt lat="40.652710000000006" lon="-2.3445">
        <time>2021-06-19T11:00:37+0000</time>
      </trkpt>
      <trkpt lat="40.65283" lon="-2.34439">
        <time>2021-06-19T11:00:38+0000</time>
      </trkpt>
      <trkpt lat="40.65296" lon="-2.3442800000000004">
        <time>2021-06-19T11:00:39+0000</time>
      </trkpt>
      <trkpt lat="40.6531" lon="-2.3441500000000004">
        <time>2021-06-19T11:00:40+0000</time>
      </trkpt>
      <trkpt lat="40.65326" lon="-2.34404">
        <time>2021-06-19T11:00:41+0000</time>
      </trkpt>
      <trkpt lat="40.65341" lon="-2.3439400000000004">
        <time>2021-06-19T11:00:42+0000</time>
      </trkpt>
      <trkpt lat="40.653560000000006" lon="-2.34383">
        <time>2021-06-19T11:00:43+0000</time>
      </trkpt>
      <trkpt lat="40.65372" lon="-2.3437300000000003">
        <time>2021-06-19T11:00:44+0000</time>
      </trkpt>
      <trkpt lat="40.653870000000005" lon="-2.34362">
        <time>2021-06-19T11:00:45+0000</time>
      </trkpt>
      <trkpt lat="40.65401000000001" lon="-2.3435200000000003">
        <time>2021-06-19T11:00:46+0000</time>
      </trkpt>
      <trkpt lat="40.65415" lon="-2.34343">
        <time>2021-06-19T11:00:47+0000</time>
      </trkpt>
      <trkpt lat="40.65428" lon="-2.3433300000000004">
        <time>2021-06-19T11:00:48+0000</time>
      </trkpt>
      <trkpt lat="40.654410000000006" lon="-2.34324">
        <time>2021-06-19T11:00:49+0000</time>
      </trkpt>
      <trkpt lat="40.65455" lon="-2.34315">
        <time>2021-06-19T11:00:50+0000</time>
      </trkpt>
      <trkpt lat="40.65469" lon="-2.3430500000000003">
        <time>2021-06-19T11:00:51+0000</time>
      </trkpt>
      <trkpt lat="40.65484" lon="-2.34295">
        <time>2021-06-19T11:00:52+0000</time>
      </trkpt>
      <trkpt lat="40.655" lon="-2.3428400000000003">
        <time>2021-06-19T11:00:53+0000</time>
      </trkpt>
      <trkpt lat="40.65516" lon="-2.3427200000000004">
        <time>2021-06-19T11:00:54+0000</time>
      </trkpt>
      <trkpt lat="40.655330000000006" lon="-2.3426">
        <time>2021-06-19T11:00:55+0000</time>
      </trkpt>
      <trkpt lat="40.6555" lon="-2.34249">
        <time>2021-06-19T11:00:56+0000</time>
      </trkpt>
      <trkpt lat="40.65565" lon="-2.3423800000000004">
        <time>2021-06-19T11:00:57+0000</time>
      </trkpt>
      <trkpt lat="40.65581" lon="-2.34227">
        <time>2021-06-19T11:00:58+0000</time>
      </trkpt>
      <trkpt lat="40.65597" lon="-2.3421600000000002">
        <time>2021-06-19T11:00:59+0000</time>
      </trkpt>
      <trkpt lat="40.65612" lon="-2.34206">
        <time>2021-06-19T11:01:00+0000</time>
      </trkpt>
      <trkpt lat="40.65625" lon="-2.3419700000000003">
        <time>2021-06-19T11:01:01+0000</time>
      </trkpt>
      <trkpt lat="40.65635" lon="-2.3418900000000002">
        <time>2021-06-19T11:01:02+0000</time>
      </trkpt>
      <trkpt lat="40.65645000000001" lon="-2.3418300000000003">
        <time>2021-06-19T11:01:03+0000</time>
      </trkpt>
      <trkpt lat="40.65652" lon="-2.34175">
        <time>2021-06-19T11:01:04+0000</time>
      </trkpt>
      <trkpt lat="40.65659" lon="-2.3417100000000004">
        <time>2021-06-19T11:01:05+0000</time>
      </trkpt>
      <trkpt lat="40.656650000000006" lon="-2.34166">
        <time>2021-06-19T11:01:06+0000</time>
      </trkpt>
      <trkpt lat="40.656710000000004" lon="-2.3416200000000003">
        <time>2021-06-19T11:01:07+0000</time>
      </trkpt>
      <trkpt lat="40.656780000000005" lon="-2.34159">
        <time>2021-06-19T11:01:08+0000</time>
      </trkpt>
      <trkpt lat="40.656850000000006" lon="-2.34152">
        <time>2021-06-19T11:01:09+0000</time>
      </trkpt>
      <trkpt lat="40.656940000000006" lon="-2.34146">
        <time>2021-06-19T11:01:10+0000</time>
      </trkpt>
      <trkpt lat="40.65701000000001" lon="-2.34139">
        <time>2021-06-19T11:01:11+0000</time>
      </trkpt>
      <trkpt lat="40.657090000000004" lon="-2.34133">
        <time>2021-06-19T11:01:12+0000</time>
      </trkpt>
      <trkpt lat="40.657180000000004" lon="-2.34126">
        <time>2021-06-19T11:01:13+0000</time>
      </trkpt>
      <trkpt lat="40.657270000000004" lon="-2.34119">
        <time>2021-06-19T11:01:14+0000</time>
      </trkpt>
      <trkpt lat="40.657360000000004" lon="-2.34112">
        <time>2021-06-19T11:01:15+0000</time>
      </trkpt>
      <trkpt lat="40.65746" lon="-2.34106">
        <time>2021-06-19T11:01:16+0000</time>
      </trkpt>
      <trkpt lat="40.657560000000004" lon="-2.34099">
        <time>2021-06-19T11:01:17+0000</time>
      </trkpt>
      <trkpt lat="40.65766" lon="-2.34092">
        <time>2021-06-19T11:01:18+0000</time>
      </trkpt>
      <trkpt lat="40.65776" lon="-2.34084">
        <time>2021-06-19T11:01:19+0000</time>
      </trkpt>
      <trkpt lat="40.65787" lon="-2.34077">
        <time>2021-06-19T11:01:20+0000</time>
      </trkpt>
      <trkpt lat="40.65798" lon="-2.3406900000000004">
        <time>2021-06-19T11:01:21+0000</time>
      </trkpt>
      <trkpt lat="40.65809" lon="-2.3406100000000003">
        <time>2021-06-19T11:01:22+0000</time>
      </trkpt>
      <trkpt lat="40.6582" lon="-2.34053">
        <time>2021-06-19T11:01:23+0000</time>
      </trkpt>
      <trkpt lat="40.65831" lon="-2.34046">
        <time>2021-06-19T11:01:24+0000</time>
      </trkpt>
      <trkpt lat="40.65842000000001" lon="-2.34038">
        <time>2021-06-19T11:01:25+0000</time>
      </trkpt>
      <trkpt lat="40.658530000000006" lon="-2.3403">
        <time>2021-06-19T11:01:26+0000</time>
      </trkpt>
      <trkpt lat="40.65865" lon="-2.3402200000000004">
        <time>2021-06-19T11:01:27+0000</time>
      </trkpt>
      <trkpt lat="40.65876" lon="-2.3401400000000003">
        <time>2021-06-19T11:01:28+0000</time>
      </trkpt>
      <trkpt lat="40.65887" lon="-2.3400600000000003">
        <time>2021-06-19T11:01:29+0000</time>
      </trkpt>
      <trkpt lat="40.65899" lon="-2.33998">
        <time>2021-06-19T11:01:30+0000</time>
      </trkpt>
      <trkpt lat="40.659110000000005" lon="-2.33989">
        <time>2021-06-19T11:01:31+0000</time>
      </trkpt>
      <trkpt lat="40.659240000000004" lon="-2.3398000000000003">
        <time>2021-06-19T11:01:32+0000</time>
      </trkpt>
      <trkpt lat="40.65936000000001" lon="-2.3397">
        <time>2021-06-19T11:01:33+0000</time>
      </trkpt>
      <trkpt lat="40.6595" lon="-2.3396100000000004">
        <time>2021-06-19T11:01:34+0000</time>
      </trkpt>
      <trkpt lat="40.659620000000004" lon="-2.33951">
        <time>2021-06-19T11:01:35+0000</time>
      </trkpt>
      <trkpt lat="40.659740000000006" lon="-2.33941">
        <time>2021-06-19T11:01:36+0000</time>
      </trkpt>
      <trkpt lat="40.659870000000005" lon="-2.33929">
        <time>2021-06-19T11:01:37+0000</time>
      </trkpt>
      <trkpt lat="40.660000000000004" lon="-2.33916">
        <time>2021-06-19T11:01:38+0000</time>
      </trkpt>
      <trkpt lat="40.66013" lon="-2.33902">
        <time>2021-06-19T11:01:39+0000</time>
      </trkpt>
      <trkpt lat="40.660270000000004" lon="-2.33887">
        <time>2021-06-19T11:01:40+0000</time>
      </trkpt>
      <trkpt lat="40.6604" lon="-2.3387000000000002">
        <time>2021-06-19T11:01:41+0000</time>
      </trkpt>
      <trkpt lat="40.660540000000005" lon="-2.3385100000000003">
        <time>2021-06-19T11:01:42+0000</time>
      </trkpt>
      <trkpt lat="40.66067" lon="-2.3383200000000004">
        <time>2021-06-19T11:01:43+0000</time>
      </trkpt>
      <trkpt lat="40.660790000000006" lon="-2.33813">
        <time>2021-06-19T11:01:44+0000</time>
      </trkpt>
      <trkpt lat="40.66091" lon="-2.33792">
        <time>2021-06-19T11:01:45+0000</time>
      </trkpt>
      <trkpt lat="40.661030000000004" lon="-2.3377100000000004">
        <time>2021-06-19T11:01:46+0000</time>
      </trkpt>
      <trkpt lat="40.66116" lon="-2.3375000000000004">
        <time>2021-06-19T11:01:47+0000</time>
      </trkpt>
      <trkpt lat="40.66127" lon="-2.3372900000000003">
        <time>2021-06-19T11:01:48+0000</time>
      </trkpt>
      <trkpt lat="40.661390000000004" lon="-2.33711">
        <time>2021-06-19T11:01:49+0000</time>
      </trkpt>
      <trkpt lat="40.66151" lon="-2.3369">
        <time>2021-06-19T11:01:50+0000</time>
      </trkpt>
      <trkpt lat="40.661640000000006" lon="-2.3366900000000004">
        <time>2021-06-19T11:01:51+0000</time>
      </trkpt>
      <trkpt lat="40.66176" lon="-2.3364800000000003">
        <time>2021-06-19T11:01:52+0000</time>
      </trkpt>
      <trkpt lat="40.66189000000001" lon="-2.3362600000000002">
        <time>2021-06-19T11:01:53+0000</time>
      </trkpt>
      <trkpt lat="40.662020000000005" lon="-2.33604">
        <time>2021-06-19T11:01:54+0000</time>
      </trkpt>
      <trkpt lat="40.66216" lon="-2.3358100000000004">
        <time>2021-06-19T11:01:55+0000</time>
      </trkpt>
      <trkpt lat="40.662290000000006" lon="-2.33558">
        <time>2021-06-19T11:01:56+0000</time>
      </trkpt>
      <trkpt lat="40.662420000000004" lon="-2.33535">
        <time>2021-06-19T11:01:57+0000</time>
      </trkpt>
      <trkpt lat="40.662560000000006" lon="-2.3351200000000003">
        <time>2021-06-19T11:01:58+0000</time>
      </trkpt>
      <trkpt lat="40.6627" lon="-2.33488">
        <time>2021-06-19T11:01:59+0000</time>
      </trkpt>
      <trkpt lat="40.66284" lon="-2.3346500000000003">
        <time>2021-06-19T11:02:00+0000</time>
      </trkpt>
      <trkpt lat="40.663000000000004" lon="-2.33442">
        <time>2021-06-19T11:02:01+0000</time>
      </trkpt>
      <trkpt lat="40.66315" lon="-2.3342">
        <time>2021-06-19T11:02:02+0000</time>
      </trkpt>
      <trkpt lat="40.66331" lon="-2.334">
        <time>2021-06-19T11:02:03+0000</time>
      </trkpt>
      <trkpt lat="40.66348" lon="-2.33381">
        <time>2021-06-19T11:02:04+0000</time>
      </trkpt>
      <trkpt lat="40.66364" lon="-2.3336200000000002">
        <time>2021-06-19T11:02:05+0000</time>
      </trkpt>
      <trkpt lat="40.663790000000006" lon="-2.3334300000000003">
        <time>2021-06-19T11:02:06+0000</time>
      </trkpt>
      <trkpt lat="40.663940000000004" lon="-2.33326">
        <time>2021-06-19T11:02:07+0000</time>
      </trkpt>
      <trkpt lat="40.66409" lon="-2.3331000000000004">
        <time>2021-06-19T11:02:08+0000</time>
      </trkpt>
      <trkpt lat="40.664210000000004" lon="-2.33297">
        <time>2021-06-19T11:02:09+0000</time>
      </trkpt>
      <trkpt lat="40.664320000000004" lon="-2.33284">
        <time>2021-06-19T11:02:10+0000</time>
      </trkpt>
      <trkpt lat="40.66442" lon="-2.33273">
        <time>2021-06-19T11:02:11+0000</time>
      </trkpt>
      <trkpt lat="40.66451" lon="-2.3326200000000004">
        <time>2021-06-19T11:02:12+0000</time>
      </trkpt>
      <trkpt lat="40.664590000000004" lon="-2.3325">
        <time>2021-06-19T11:02:13+0000</time>
      </trkpt>
      <trkpt lat="40.66467" lon="-2.3324000000000003">
        <time>2021-06-19T11:02:14+0000</time>
      </trkpt>
      <trkpt lat="40.664750000000005" lon="-2.3322800000000004">
        <time>2021-06-19T11:02:15+0000</time>
      </trkpt>
      <trkpt lat="40.66485" lon="-2.3321500000000004">
        <time>2021-06-19T11:02:16+0000</time>
      </trkpt>
      <trkpt lat="40.664950000000005" lon="-2.33203">
        <time>2021-06-19T11:02:17+0000</time>
      </trkpt>
      <trkpt lat="40.665040000000005" lon="-2.33192">
        <time>2021-06-19T11:02:18+0000</time>
      </trkpt>
      <trkpt lat="40.665130000000005" lon="-2.3318000000000003">
        <time>2021-06-19T11:02:19+0000</time>
      </trkpt>
      <trkpt lat="40.665220000000005" lon="-2.33168">
        <time>2021-06-19T11:02:20+0000</time>
      </trkpt>
      <trkpt lat="40.6653" lon="-2.33156">
        <time>2021-06-19T11:02:21+0000</time>
      </trkpt>
      <trkpt lat="40.66537" lon="-2.3314500000000002">
        <time>2021-06-19T11:02:22+0000</time>
      </trkpt>
      <trkpt lat="40.66543" lon="-2.3313400000000004">
        <time>2021-06-19T11:02:23+0000</time>
      </trkpt>
      <trkpt lat="40.6655" lon="-2.33121">
        <time>2021-06-19T11:02:24+0000</time>
      </trkpt>
      <trkpt lat="40.665580000000006" lon="-2.33108">
        <time>2021-06-19T11:02:25+0000</time>
      </trkpt>
      <trkpt lat="40.66566" lon="-2.3309300000000004">
        <time>2021-06-19T11:02:26+0000</time>
      </trkpt>
      <trkpt lat="40.66575" lon="-2.3307800000000003">
        <time>2021-06-19T11:02:27+0000</time>
      </trkpt>
      <trkpt lat="40.665850000000006" lon="-2.3306">
        <time>2021-06-19T11:02:28+0000</time>
      </trkpt>
      <trkpt lat="40.665940000000006" lon="-2.33042">
        <time>2021-06-19T11:02:29+0000</time>
      </trkpt>
      <trkpt lat="40.66604" lon="-2.3302400000000003">
        <time>2021-06-19T11:02:30+0000</time>
      </trkpt>
      <trkpt lat="40.666140000000006" lon="-2.3300300000000003">
        <time>2021-06-19T11:02:31+0000</time>
      </trkpt>
      <trkpt lat="40.66622" lon="-2.32981">
        <time>2021-06-19T11:02:32+0000</time>
      </trkpt>
      <trkpt lat="40.66630000000001" lon="-2.32959">
        <time>2021-06-19T11:02:33+0000</time>
      </trkpt>
      <trkpt lat="40.666360000000005" lon="-2.3293700000000004">
        <time>2021-06-19T11:02:34+0000</time>
      </trkpt>
      <trkpt lat="40.66642" lon="-2.3291500000000003">
        <time>2021-06-19T11:02:35+0000</time>
      </trkpt>
      <trkpt lat="40.666470000000004" lon="-2.32891">
        <time>2021-06-19T11:02:36+0000</time>
      </trkpt>
      <trkpt lat="40.666520000000006" lon="-2.3286800000000003">
        <time>2021-06-19T11:02:37+0000</time>
      </trkpt>
      <trkpt lat="40.66657" lon="-2.32843">
        <time>2021-06-19T11:02:38+0000</time>
      </trkpt>
      <trkpt lat="40.66662" lon="-2.32819">
        <time>2021-06-19T11:02:39+0000</time>
      </trkpt>
      <trkpt lat="40.66667" lon="-2.3279500000000004">
        <time>2021-06-19T11:02:40+0000</time>
      </trkpt>
      <trkpt lat="40.66671" lon="-2.32771">
        <time>2021-06-19T11:02:41+0000</time>
      </trkpt>
      <trkpt lat="40.666760000000004" lon="-2.3274700000000004">
        <time>2021-06-19T11:02:42+0000</time>
      </trkpt>
      <trkpt lat="40.66678" lon="-2.32723">
        <time>2021-06-19T11:02:43+0000</time>
      </trkpt>
      <trkpt lat="40.666830000000004" lon="-2.32701">
        <time>2021-06-19T11:02:44+0000</time>
      </trkpt>
      <trkpt lat="40.66687" lon="-2.3267800000000003">
        <time>2021-06-19T11:02:45+0000</time>
      </trkpt>
      <trkpt lat="40.66691" lon="-2.32656">
        <time>2021-06-19T11:02:46+0000</time>
      </trkpt>
      <trkpt lat="40.666940000000004" lon="-2.32633">
        <time>2021-06-19T11:02:47+0000</time>
      </trkpt>
      <trkpt lat="40.666970000000006" lon="-2.3261000000000003">
        <time>2021-06-19T11:02:48+0000</time>
      </trkpt>
      <trkpt lat="40.66698" lon="-2.32586">
        <time>2021-06-19T11:02:49+0000</time>
      </trkpt>
      <trkpt lat="40.666970000000006" lon="-2.32561">
        <time>2021-06-19T11:02:50+0000</time>
      </trkpt>
      <trkpt lat="40.666940000000004" lon="-2.32538">
        <time>2021-06-19T11:02:51+0000</time>
      </trkpt>
      <trkpt lat="40.666880000000006" lon="-2.32514">
        <time>2021-06-19T11:02:52+0000</time>
      </trkpt>
      <trkpt lat="40.666810000000005" lon="-2.32492">
        <time>2021-06-19T11:02:53+0000</time>
      </trkpt>
      <trkpt lat="40.666720000000005" lon="-2.32471">
        <time>2021-06-19T11:02:54+0000</time>
      </trkpt>
      <trkpt lat="40.666610000000006" lon="-2.32452">
        <time>2021-06-19T11:02:55+0000</time>
      </trkpt>
      <trkpt lat="40.66649" lon="-2.3243400000000003">
        <time>2021-06-19T11:02:56+0000</time>
      </trkpt>
      <trkpt lat="40.666360000000005" lon="-2.32418">
        <time>2021-06-19T11:02:57+0000</time>
      </trkpt>
      <trkpt lat="40.66621000000001" lon="-2.3240100000000004">
        <time>2021-06-19T11:02:58+0000</time>
      </trkpt>
      <trkpt lat="40.66606" lon="-2.32384">
        <time>2021-06-19T11:02:59+0000</time>
      </trkpt>
      <trkpt lat="40.6659" lon="-2.3236700000000003">
        <time>2021-06-19T11:03:00+0000</time>
      </trkpt>
      <trkpt lat="40.66573" lon="-2.32349">
        <time>2021-06-19T11:03:01+0000</time>
      </trkpt>
      <trkpt lat="40.66557" lon="-2.3233">
        <time>2021-06-19T11:03:02+0000</time>
      </trkpt>
      <trkpt lat="40.66541" lon="-2.3231200000000003">
        <time>2021-06-19T11:03:03+0000</time>
      </trkpt>
      <trkpt lat="40.66527000000001" lon="-2.3229100000000003">
        <time>2021-06-19T11:03:04+0000</time>
      </trkpt>
      <trkpt lat="40.66514" lon="-2.32269">
        <time>2021-06-19T11:03:05+0000</time>
      </trkpt>
      <trkpt lat="40.66503" lon="-2.3224500000000003">
        <time>2021-06-19T11:03:06+0000</time>
      </trkpt>
      <trkpt lat="40.66496" lon="-2.32219">
        <time>2021-06-19T11:03:07+0000</time>
      </trkpt>
      <trkpt lat="40.66487" lon="-2.32192">
        <time>2021-06-19T11:03:08+0000</time>
      </trkpt>
      <trkpt lat="40.66479" lon="-2.32165">
        <time>2021-06-19T11:03:09+0000</time>
      </trkpt>
      <trkpt lat="40.66469" lon="-2.32139">
        <time>2021-06-19T11:03:10+0000</time>
      </trkpt>
      <trkpt lat="40.66461" lon="-2.32114">
        <time>2021-06-19T11:03:11+0000</time>
      </trkpt>
      <trkpt lat="40.66452" lon="-2.32087">
        <time>2021-06-19T11:03:12+0000</time>
      </trkpt>
      <trkpt lat="40.664440000000006" lon="-2.3206100000000003">
        <time>2021-06-19T11:03:13+0000</time>
      </trkpt>
      <trkpt lat="40.664350000000006" lon="-2.3203400000000003">
        <time>2021-06-19T11:03:14+0000</time>
      </trkpt>
      <trkpt lat="40.66427" lon="-2.3200700000000003">
        <time>2021-06-19T11:03:15+0000</time>
      </trkpt>
      <trkpt lat="40.664190000000005" lon="-2.31982">
        <time>2021-06-19T11:03:16+0000</time>
      </trkpt>
      <trkpt lat="40.664100000000005" lon="-2.31956">
        <time>2021-06-19T11:03:17+0000</time>
      </trkpt>
      <trkpt lat="40.66402" lon="-2.31931">
        <time>2021-06-19T11:03:18+0000</time>
      </trkpt>
      <trkpt lat="40.663940000000004" lon="-2.3190600000000003">
        <time>2021-06-19T11:03:19+0000</time>
      </trkpt>
      <trkpt lat="40.66387" lon="-2.31882">
        <time>2021-06-19T11:03:20+0000</time>
      </trkpt>
      <trkpt lat="40.663790000000006" lon="-2.3185900000000004">
        <time>2021-06-19T11:03:21+0000</time>
      </trkpt>
      <trkpt lat="40.66371" lon="-2.31835">
        <time>2021-06-19T11:03:22+0000</time>
      </trkpt>
      <trkpt lat="40.66364" lon="-2.3181100000000003">
        <time>2021-06-19T11:03:23+0000</time>
      </trkpt>
      <trkpt lat="40.663560000000004" lon="-2.31786">
        <time>2021-06-19T11:03:24+0000</time>
      </trkpt>
      <trkpt lat="40.66348" lon="-2.3176">
        <time>2021-06-19T11:03:25+0000</time>
      </trkpt>
      <trkpt lat="40.6634" lon="-2.3173500000000002">
        <time>2021-06-19T11:03:26+0000</time>
      </trkpt>
      <trkpt lat="40.663320000000006" lon="-2.3170900000000003">
        <time>2021-06-19T11:03:27+0000</time>
      </trkpt>
      <trkpt lat="40.66324" lon="-2.31684">
        <time>2021-06-19T11:03:28+0000</time>
      </trkpt>
      <trkpt lat="40.66317" lon="-2.31659">
        <time>2021-06-19T11:03:29+0000</time>
      </trkpt>
      <trkpt lat="40.663140000000006" lon="-2.3163300000000002">
        <time>2021-06-19T11:03:30+0000</time>
      </trkpt>
      <trkpt lat="40.663120000000006" lon="-2.3160700000000003">
        <time>2021-06-19T11:03:31+0000</time>
      </trkpt>
      <trkpt lat="40.66311" lon="-2.3158000000000003">
        <time>2021-06-19T11:03:32+0000</time>
      </trkpt>
      <trkpt lat="40.663120000000006" lon="-2.3155200000000002">
        <time>2021-06-19T11:03:33+0000</time>
      </trkpt>
      <trkpt lat="40.66311" lon="-2.3152500000000003">
        <time>2021-06-19T11:03:34+0000</time>
      </trkpt>
      <trkpt lat="40.663120000000006" lon="-2.3149800000000003">
        <time>2021-06-19T11:03:35+0000</time>
      </trkpt>
      <trkpt lat="40.663120000000006" lon="-2.3147">
        <time>2021-06-19T11:03:36+0000</time>
      </trkpt>
      <trkpt lat="40.66313" lon="-2.31443">
        <time>2021-06-19T11:03:37+0000</time>
      </trkpt>
      <trkpt lat="40.663140000000006" lon="-2.31416">
        <time>2021-06-19T11:03:38+0000</time>
      </trkpt>
      <trkpt lat="40.663140000000006" lon="-2.3139100000000004">
        <time>2021-06-19T11:03:39+0000</time>
      </trkpt>
      <trkpt lat="40.663140000000006" lon="-2.31366">
        <time>2021-06-19T11:03:40+0000</time>
      </trkpt>
      <trkpt lat="40.663120000000006" lon="-2.31341">
        <time>2021-06-19T11:03:41+0000</time>
      </trkpt>
      <trkpt lat="40.6631" lon="-2.3131700000000004">
        <time>2021-06-19T11:03:42+0000</time>
      </trkpt>
      <trkpt lat="40.663070000000005" lon="-2.31294">
        <time>2021-06-19T11:03:43+0000</time>
      </trkpt>
      <trkpt lat="40.66304" lon="-2.3127">
        <time>2021-06-19T11:03:44+0000</time>
      </trkpt>
      <trkpt lat="40.66301" lon="-2.3124700000000002">
        <time>2021-06-19T11:03:45+0000</time>
      </trkpt>
      <trkpt lat="40.662980000000005" lon="-2.31223">
        <time>2021-06-19T11:03:46+0000</time>
      </trkpt>
      <trkpt lat="40.662940000000006" lon="-2.31198">
        <time>2021-06-19T11:03:47+0000</time>
      </trkpt>
      <trkpt lat="40.662910000000004" lon="-2.31172">
        <time>2021-06-19T11:03:48+0000</time>
      </trkpt>
      <trkpt lat="40.662870000000005" lon="-2.3114600000000003">
        <time>2021-06-19T11:03:49+0000</time>
      </trkpt>
      <trkpt lat="40.66283000000001" lon="-2.3111900000000003">
        <time>2021-06-19T11:03:50+0000</time>
      </trkpt>
      <trkpt lat="40.662800000000004" lon="-2.3109200000000003">
        <time>2021-06-19T11:03:51+0000</time>
      </trkpt>
      <trkpt lat="40.662760000000006" lon="-2.3106600000000004">
        <time>2021-06-19T11:03:52+0000</time>
      </trkpt>
      <trkpt lat="40.66273" lon="-2.3104">
        <time>2021-06-19T11:03:53+0000</time>
      </trkpt>
      <trkpt lat="40.662690000000005" lon="-2.3101700000000003">
        <time>2021-06-19T11:03:54+0000</time>
      </trkpt>
      <trkpt lat="40.66266" lon="-2.30994">
        <time>2021-06-19T11:03:55+0000</time>
      </trkpt>
      <trkpt lat="40.66263" lon="-2.3097000000000003">
        <time>2021-06-19T11:03:56+0000</time>
      </trkpt>
      <trkpt lat="40.662600000000005" lon="-2.30947">
        <time>2021-06-19T11:03:57+0000</time>
      </trkpt>
      <trkpt lat="40.662560000000006" lon="-2.3092300000000003">
        <time>2021-06-19T11:03:58+0000</time>
      </trkpt>
      <trkpt lat="40.662530000000004" lon="-2.30899">
        <time>2021-06-19T11:03:59+0000</time>
      </trkpt>
      <trkpt lat="40.6625" lon="-2.3087500000000003">
        <time>2021-06-19T11:04:00+0000</time>
      </trkpt>
      <trkpt lat="40.66246" lon="-2.3085">
        <time>2021-06-19T11:04:01+0000</time>
      </trkpt>
      <trkpt lat="40.66243" lon="-2.30825">
        <time>2021-06-19T11:04:02+0000</time>
      </trkpt>
      <trkpt lat="40.66241" lon="-2.3080000000000003">
        <time>2021-06-19T11:04:03+0000</time>
      </trkpt>
      <trkpt lat="40.66245000000001" lon="-2.3077300000000003">
        <time>2021-06-19T11:04:04+0000</time>
      </trkpt>
      <trkpt lat="40.66246" lon="-2.30748">
        <time>2021-06-19T11:04:05+0000</time>
      </trkpt>
      <trkpt lat="40.6625" lon="-2.30724">
        <time>2021-06-19T11:04:06+0000</time>
      </trkpt>
      <trkpt lat="40.662560000000006" lon="-2.3070000000000004">
        <time>2021-06-19T11:04:07+0000</time>
      </trkpt>
      <trkpt lat="40.66263" lon="-2.3067800000000003">
        <time>2021-06-19T11:04:08+0000</time>
      </trkpt>
      <trkpt lat="40.66272" lon="-2.3065800000000003">
        <time>2021-06-19T11:04:09+0000</time>
      </trkpt>
      <trkpt lat="40.662800000000004" lon="-2.3063800000000003">
        <time>2021-06-19T11:04:10+0000</time>
      </trkpt>
      <trkpt lat="40.6629" lon="-2.3061700000000003">
        <time>2021-06-19T11:04:11+0000</time>
      </trkpt>
      <trkpt lat="40.663000000000004" lon="-2.3059700000000003">
        <time>2021-06-19T11:04:12+0000</time>
      </trkpt>
      <trkpt lat="40.6631" lon="-2.3057600000000003">
        <time>2021-06-19T11:04:13+0000</time>
      </trkpt>
      <trkpt lat="40.663180000000004" lon="-2.30554">
        <time>2021-06-19T11:04:14+0000</time>
      </trkpt>
      <trkpt lat="40.663270000000004" lon="-2.30534">
        <time>2021-06-19T11:04:15+0000</time>
      </trkpt>
      <trkpt lat="40.66337" lon="-2.30514">
        <time>2021-06-19T11:04:16+0000</time>
      </trkpt>
      <trkpt lat="40.66346" lon="-2.30493">
        <time>2021-06-19T11:04:17+0000</time>
      </trkpt>
      <trkpt lat="40.66355" lon="-2.30473">
        <time>2021-06-19T11:04:18+0000</time>
      </trkpt>
      <trkpt lat="40.66364" lon="-2.30453">
        <time>2021-06-19T11:04:19+0000</time>
      </trkpt>
      <trkpt lat="40.66373" lon="-2.30433">
        <time>2021-06-19T11:04:20+0000</time>
      </trkpt>
      <trkpt lat="40.663830000000004" lon="-2.30411">
        <time>2021-06-19T11:04:21+0000</time>
      </trkpt>
      <trkpt lat="40.66393" lon="-2.3038800000000004">
        <time>2021-06-19T11:04:22+0000</time>
      </trkpt>
      <trkpt lat="40.664030000000004" lon="-2.3036600000000003">
        <time>2021-06-19T11:04:23+0000</time>
      </trkpt>
      <trkpt lat="40.66414" lon="-2.30342">
        <time>2021-06-19T11:04:24+0000</time>
      </trkpt>
      <trkpt lat="40.66424000000001" lon="-2.3031900000000003">
        <time>2021-06-19T11:04:25+0000</time>
      </trkpt>
      <trkpt lat="40.664350000000006" lon="-2.30295">
        <time>2021-06-19T11:04:26+0000</time>
      </trkpt>
      <trkpt lat="40.664460000000005" lon="-2.3027100000000003">
        <time>2021-06-19T11:04:27+0000</time>
      </trkpt>
      <trkpt lat="40.66458" lon="-2.3024600000000004">
        <time>2021-06-19T11:04:28+0000</time>
      </trkpt>
      <trkpt lat="40.664680000000004" lon="-2.30221">
        <time>2021-06-19T11:04:29+0000</time>
      </trkpt>
      <trkpt lat="40.66479" lon="-2.3019600000000002">
        <time>2021-06-19T11:04:30+0000</time>
      </trkpt>
      <trkpt lat="40.664880000000004" lon="-2.3017000000000003">
        <time>2021-06-19T11:04:31+0000</time>
      </trkpt>
      <trkpt lat="40.664970000000004" lon="-2.3014200000000002">
        <time>2021-06-19T11:04:32+0000</time>
      </trkpt>
      <trkpt lat="40.66505" lon="-2.3011500000000003">
        <time>2021-06-19T11:04:33+0000</time>
      </trkpt>
      <trkpt lat="40.66512" lon="-2.30087">
        <time>2021-06-19T11:04:34+0000</time>
      </trkpt>
      <trkpt lat="40.66518000000001" lon="-2.30058">
        <time>2021-06-19T11:04:35+0000</time>
      </trkpt>
      <trkpt lat="40.66523" lon="-2.3002900000000004">
        <time>2021-06-19T11:04:36+0000</time>
      </trkpt>
      <trkpt lat="40.66526" lon="-2.29999">
        <time>2021-06-19T11:04:37+0000</time>
      </trkpt>
      <trkpt lat="40.66528" lon="-2.29969">
        <time>2021-06-19T11:04:38+0000</time>
      </trkpt>
      <trkpt lat="40.6653" lon="-2.2993900000000003">
        <time>2021-06-19T11:04:39+0000</time>
      </trkpt>
      <trkpt lat="40.6653" lon="-2.29911">
        <time>2021-06-19T11:04:40+0000</time>
      </trkpt>
      <trkpt lat="40.665290000000006" lon="-2.2988500000000003">
        <time>2021-06-19T11:04:41+0000</time>
      </trkpt>
      <trkpt lat="40.66528" lon="-2.2986">
        <time>2021-06-19T11:04:42+0000</time>
      </trkpt>
      <trkpt lat="40.66525" lon="-2.29836">
        <time>2021-06-19T11:04:43+0000</time>
      </trkpt>
      <trkpt lat="40.665220000000005" lon="-2.2981200000000004">
        <time>2021-06-19T11:04:44+0000</time>
      </trkpt>
      <trkpt lat="40.66519" lon="-2.29789">
        <time>2021-06-19T11:04:45+0000</time>
      </trkpt>
      <trkpt lat="40.665150000000004" lon="-2.29766">
        <time>2021-06-19T11:04:46+0000</time>
      </trkpt>
      <trkpt lat="40.6651" lon="-2.2974400000000004">
        <time>2021-06-19T11:04:47+0000</time>
      </trkpt>
      <trkpt lat="40.66505" lon="-2.2972200000000003">
        <time>2021-06-19T11:04:48+0000</time>
      </trkpt>
      <trkpt lat="40.66499" lon="-2.29701">
        <time>2021-06-19T11:04:49+0000</time>
      </trkpt>
      <trkpt lat="40.66494" lon="-2.29678">
        <time>2021-06-19T11:04:50+0000</time>
      </trkpt>
      <trkpt lat="40.664880000000004" lon="-2.2965500000000003">
        <time>2021-06-19T11:04:51+0000</time>
      </trkpt>
      <trkpt lat="40.66483" lon="-2.29631">
        <time>2021-06-19T11:04:52+0000</time>
      </trkpt>
      <trkpt lat="40.664770000000004" lon="-2.2960700000000003">
        <time>2021-06-19T11:04:53+0000</time>
      </trkpt>
      <trkpt lat="40.66471000000001" lon="-2.29583">
        <time>2021-06-19T11:04:54+0000</time>
      </trkpt>
      <trkpt lat="40.66465" lon="-2.2955900000000002">
        <time>2021-06-19T11:04:55+0000</time>
      </trkpt>
      <trkpt lat="40.664590000000004" lon="-2.29535">
        <time>2021-06-19T11:04:56+0000</time>
      </trkpt>
      <trkpt lat="40.664550000000006" lon="-2.29511">
        <time>2021-06-19T11:04:57+0000</time>
      </trkpt>
      <trkpt lat="40.664530000000006" lon="-2.2948700000000004">
        <time>2021-06-19T11:04:58+0000</time>
      </trkpt>
      <trkpt lat="40.664530000000006" lon="-2.29463">
        <time>2021-06-19T11:04:59+0000</time>
      </trkpt>
      <trkpt lat="40.66454" lon="-2.2944">
        <time>2021-06-19T11:05:00+0000</time>
      </trkpt>
      <trkpt lat="40.664570000000005" lon="-2.2941700000000003">
        <time>2021-06-19T11:05:01+0000</time>
      </trkpt>
      <trkpt lat="40.66463" lon="-2.29395">
        <time>2021-06-19T11:05:02+0000</time>
      </trkpt>
      <trkpt lat="40.66471000000001" lon="-2.29372">
        <time>2021-06-19T11:05:03+0000</time>
      </trkpt>
      <trkpt lat="40.66480000000001" lon="-2.2935000000000003">
        <time>2021-06-19T11:05:04+0000</time>
      </trkpt>
      <trkpt lat="40.66492" lon="-2.2932900000000003">
        <time>2021-06-19T11:05:05+0000</time>
      </trkpt>
      <trkpt lat="40.665040000000005" lon="-2.2930900000000003">
        <time>2021-06-19T11:05:06+0000</time>
      </trkpt>
      <trkpt lat="40.66516" lon="-2.2928900000000003">
        <time>2021-06-19T11:05:07+0000</time>
      </trkpt>
      <trkpt lat="40.66527000000001" lon="-2.2927000000000004">
        <time>2021-06-19T11:05:08+0000</time>
      </trkpt>
      <trkpt lat="40.66539" lon="-2.29251">
        <time>2021-06-19T11:05:09+0000</time>
      </trkpt>
      <trkpt lat="40.6655" lon="-2.29231">
        <time>2021-06-19T11:05:10+0000</time>
      </trkpt>
      <trkpt lat="40.66563" lon="-2.2921300000000002">
        <time>2021-06-19T11:05:11+0000</time>
      </trkpt>
      <trkpt lat="40.66574000000001" lon="-2.2919400000000003">
        <time>2021-06-19T11:05:12+0000</time>
      </trkpt>
      <trkpt lat="40.665850000000006" lon="-2.2917500000000004">
        <time>2021-06-19T11:05:13+0000</time>
      </trkpt>
      <trkpt lat="40.665940000000006" lon="-2.29155">
        <time>2021-06-19T11:05:14+0000</time>
      </trkpt>
      <trkpt lat="40.66602" lon="-2.29135">
        <time>2021-06-19T11:05:15+0000</time>
      </trkpt>
      <trkpt lat="40.66608" lon="-2.2911400000000004">
        <time>2021-06-19T11:05:16+0000</time>
      </trkpt>
      <trkpt lat="40.66612000000001" lon="-2.2909200000000003">
        <time>2021-06-19T11:05:17+0000</time>
      </trkpt>
      <trkpt lat="40.666160000000005" lon="-2.2907">
        <time>2021-06-19T11:05:18+0000</time>
      </trkpt>
      <trkpt lat="40.66617" lon="-2.29047">
        <time>2021-06-19T11:05:19+0000</time>
      </trkpt>
      <trkpt lat="40.66619" lon="-2.2902600000000004">
        <time>2021-06-19T11:05:20+0000</time>
      </trkpt>
      <trkpt lat="40.6662" lon="-2.29002">
        <time>2021-06-19T11:05:21+0000</time>
      </trkpt>
      <trkpt lat="40.66621000000001" lon="-2.2897700000000003">
        <time>2021-06-19T11:05:22+0000</time>
      </trkpt>
      <trkpt lat="40.666230000000006" lon="-2.28952">
        <time>2021-06-19T11:05:23+0000</time>
      </trkpt>
      <trkpt lat="40.66624" lon="-2.2892900000000003">
        <time>2021-06-19T11:05:24+0000</time>
      </trkpt>
      <trkpt lat="40.666250000000005" lon="-2.28907">
        <time>2021-06-19T11:05:25+0000</time>
      </trkpt>
      <trkpt lat="40.66626" lon="-2.28886">
        <time>2021-06-19T11:05:26+0000</time>
      </trkpt>
      <trkpt lat="40.666270000000004" lon="-2.28866">
        <time>2021-06-19T11:05:27+0000</time>
      </trkpt>
      <trkpt lat="40.666290000000004" lon="-2.2884700000000002">
        <time>2021-06-19T11:05:28+0000</time>
      </trkpt>
      <trkpt lat="40.666320000000006" lon="-2.2883">
        <time>2021-06-19T11:05:29+0000</time>
      </trkpt>
      <trkpt lat="40.666360000000005" lon="-2.28813">
        <time>2021-06-19T11:05:30+0000</time>
      </trkpt>
      <trkpt lat="40.6664" lon="-2.28797">
        <time>2021-06-19T11:05:31+0000</time>
      </trkpt>
      <trkpt lat="40.66646" lon="-2.2878000000000003">
        <time>2021-06-19T11:05:32+0000</time>
      </trkpt>
      <trkpt lat="40.66653" lon="-2.28764">
        <time>2021-06-19T11:05:33+0000</time>
      </trkpt>
      <trkpt lat="40.666610000000006" lon="-2.2874800000000004">
        <time>2021-06-19T11:05:34+0000</time>
      </trkpt>
      <trkpt lat="40.666700000000006" lon="-2.28735">
        <time>2021-06-19T11:05:35+0000</time>
      </trkpt>
      <trkpt lat="40.666790000000006" lon="-2.28722">
        <time>2021-06-19T11:05:36+0000</time>
      </trkpt>
      <trkpt lat="40.66689" lon="-2.2871">
        <time>2021-06-19T11:05:37+0000</time>
      </trkpt>
      <trkpt lat="40.66698" lon="-2.2869900000000003">
        <time>2021-06-19T11:05:38+0000</time>
      </trkpt>
      <trkpt lat="40.66707" lon="-2.2868700000000004">
        <time>2021-06-19T11:05:39+0000</time>
      </trkpt>
      <trkpt lat="40.66716" lon="-2.28676">
        <time>2021-06-19T11:05:40+0000</time>
      </trkpt>
      <trkpt lat="40.66725" lon="-2.2866500000000003">
        <time>2021-06-19T11:05:41+0000</time>
      </trkpt>
      <trkpt lat="40.66733000000001" lon="-2.28655">
        <time>2021-06-19T11:05:42+0000</time>
      </trkpt>
      <trkpt lat="40.667390000000005" lon="-2.28643">
        <time>2021-06-19T11:05:43+0000</time>
      </trkpt>
      <trkpt lat="40.66745" lon="-2.28633">
        <time>2021-06-19T11:05:44+0000</time>
      </trkpt>
      <trkpt lat="40.66752" lon="-2.2862500000000003">
        <time>2021-06-19T11:05:45+0000</time>
      </trkpt>
      <trkpt lat="40.667590000000004" lon="-2.28616">
        <time>2021-06-19T11:05:46+0000</time>
      </trkpt>
      <trkpt lat="40.66765" lon="-2.28609">
        <time>2021-06-19T11:05:47+0000</time>
      </trkpt>
      <trkpt lat="40.66771000000001" lon="-2.28601">
        <time>2021-06-19T11:05:48+0000</time>
      </trkpt>
      <trkpt lat="40.667770000000004" lon="-2.28594">
        <time>2021-06-19T11:05:49+0000</time>
      </trkpt>
      <trkpt lat="40.66783" lon="-2.28586">
        <time>2021-06-19T11:05:50+0000</time>
      </trkpt>
      <trkpt lat="40.66789" lon="-2.28579">
        <time>2021-06-19T11:05:51+0000</time>
      </trkpt>
      <trkpt lat="40.66796" lon="-2.2857100000000004">
        <time>2021-06-19T11:05:52+0000</time>
      </trkpt>
      <trkpt lat="40.66803" lon="-2.28562">
        <time>2021-06-19T11:05:53+0000</time>
      </trkpt>
      <trkpt lat="40.6681" lon="-2.28552">
        <time>2021-06-19T11:05:54+0000</time>
      </trkpt>
      <trkpt lat="40.66819" lon="-2.28541">
        <time>2021-06-19T11:05:55+0000</time>
      </trkpt>
      <trkpt lat="40.66828" lon="-2.28528">
        <time>2021-06-19T11:05:56+0000</time>
      </trkpt>
      <trkpt lat="40.66837" lon="-2.28514">
        <time>2021-06-19T11:05:57+0000</time>
      </trkpt>
      <trkpt lat="40.66846" lon="-2.28498">
        <time>2021-06-19T11:05:58+0000</time>
      </trkpt>
      <trkpt lat="40.66854" lon="-2.2848">
        <time>2021-06-19T11:05:59+0000</time>
      </trkpt>
      <trkpt lat="40.668620000000004" lon="-2.28459">
        <time>2021-06-19T11:06:00+0000</time>
      </trkpt>
      <trkpt lat="40.66868" lon="-2.2843500000000003">
        <time>2021-06-19T11:06:01+0000</time>
      </trkpt>
      <trkpt lat="40.668710000000004" lon="-2.28413">
        <time>2021-06-19T11:06:02+0000</time>
      </trkpt>
      <trkpt lat="40.668710000000004" lon="-2.28389">
        <time>2021-06-19T11:06:03+0000</time>
      </trkpt>
      <trkpt lat="40.668710000000004" lon="-2.28364">
        <time>2021-06-19T11:06:04+0000</time>
      </trkpt>
      <trkpt lat="40.668710000000004" lon="-2.28337">
        <time>2021-06-19T11:06:05+0000</time>
      </trkpt>
      <trkpt lat="40.668690000000005" lon="-2.28309">
        <time>2021-06-19T11:06:06+0000</time>
      </trkpt>
      <trkpt lat="40.668670000000006" lon="-2.28282">
        <time>2021-06-19T11:06:07+0000</time>
      </trkpt>
      <trkpt lat="40.66865000000001" lon="-2.28255">
        <time>2021-06-19T11:06:08+0000</time>
      </trkpt>
      <trkpt lat="40.66863" lon="-2.2822600000000004">
        <time>2021-06-19T11:06:09+0000</time>
      </trkpt>
      <trkpt lat="40.66861" lon="-2.2819700000000003">
        <time>2021-06-19T11:06:10+0000</time>
      </trkpt>
      <trkpt lat="40.668580000000006" lon="-2.2817000000000003">
        <time>2021-06-19T11:06:11+0000</time>
      </trkpt>
      <trkpt lat="40.66856000000001" lon="-2.2814300000000003">
        <time>2021-06-19T11:06:12+0000</time>
      </trkpt>
      <trkpt lat="40.66855" lon="-2.28118">
        <time>2021-06-19T11:06:13+0000</time>
      </trkpt>
      <trkpt lat="40.668530000000004" lon="-2.28093">
        <time>2021-06-19T11:06:14+0000</time>
      </trkpt>
      <trkpt lat="40.66852" lon="-2.28071">
        <time>2021-06-19T11:06:15+0000</time>
      </trkpt>
      <trkpt lat="40.6685" lon="-2.2804800000000003">
        <time>2021-06-19T11:06:16+0000</time>
      </trkpt>
      <trkpt lat="40.668490000000006" lon="-2.2802700000000002">
        <time>2021-06-19T11:06:17+0000</time>
      </trkpt>
      <trkpt lat="40.66848" lon="-2.2800700000000003">
        <time>2021-06-19T11:06:18+0000</time>
      </trkpt>
      <trkpt lat="40.668470000000006" lon="-2.27985">
        <time>2021-06-19T11:06:19+0000</time>
      </trkpt>
      <trkpt lat="40.66845" lon="-2.27965">
        <time>2021-06-19T11:06:20+0000</time>
      </trkpt>
      <trkpt lat="40.668440000000004" lon="-2.27944">
        <time>2021-06-19T11:06:21+0000</time>
      </trkpt>
      <trkpt lat="40.66843" lon="-2.27923">
        <time>2021-06-19T11:06:22+0000</time>
      </trkpt>
      <trkpt lat="40.668420000000005" lon="-2.27903">
        <time>2021-06-19T11:06:23+0000</time>
      </trkpt>
      <trkpt lat="40.668400000000005" lon="-2.27882">
        <time>2021-06-19T11:06:24+0000</time>
      </trkpt>
      <trkpt lat="40.668400000000005" lon="-2.27861">
        <time>2021-06-19T11:06:25+0000</time>
      </trkpt>
      <trkpt lat="40.66839" lon="-2.2783800000000003">
        <time>2021-06-19T11:06:26+0000</time>
      </trkpt>
      <trkpt lat="40.668380000000006" lon="-2.27816">
        <time>2021-06-19T11:06:27+0000</time>
      </trkpt>
      <trkpt lat="40.668380000000006" lon="-2.2779200000000004">
        <time>2021-06-19T11:06:28+0000</time>
      </trkpt>
      <trkpt lat="40.668400000000005" lon="-2.27768">
        <time>2021-06-19T11:06:29+0000</time>
      </trkpt>
      <trkpt lat="40.668440000000004" lon="-2.2774400000000004">
        <time>2021-06-19T11:06:30+0000</time>
      </trkpt>
      <trkpt lat="40.668510000000005" lon="-2.2772">
        <time>2021-06-19T11:06:31+0000</time>
      </trkpt>
      <trkpt lat="40.66859" lon="-2.2769700000000004">
        <time>2021-06-19T11:06:32+0000</time>
      </trkpt>
      <trkpt lat="40.66868" lon="-2.2767500000000003">
        <time>2021-06-19T11:06:33+0000</time>
      </trkpt>
      <trkpt lat="40.668800000000005" lon="-2.27653">
        <time>2021-06-19T11:06:34+0000</time>
      </trkpt>
      <trkpt lat="40.66892" lon="-2.27632">
        <time>2021-06-19T11:06:35+0000</time>
      </trkpt>
      <trkpt lat="40.66904" lon="-2.2761">
        <time>2021-06-19T11:06:36+0000</time>
      </trkpt>
      <trkpt lat="40.66915" lon="-2.2758800000000003">
        <time>2021-06-19T11:06:37+0000</time>
      </trkpt>
      <trkpt lat="40.669270000000004" lon="-2.2756600000000002">
        <time>2021-06-19T11:06:38+0000</time>
      </trkpt>
      <trkpt lat="40.66939" lon="-2.27544">
        <time>2021-06-19T11:06:39+0000</time>
      </trkpt>
      <trkpt lat="40.669500000000006" lon="-2.27522">
        <time>2021-06-19T11:06:40+0000</time>
      </trkpt>
      <trkpt lat="40.66962" lon="-2.2750000000000004">
        <time>2021-06-19T11:06:41+0000</time>
      </trkpt>
      <trkpt lat="40.669740000000004" lon="-2.2747800000000002">
        <time>2021-06-19T11:06:42+0000</time>
      </trkpt>
      <trkpt lat="40.66984" lon="-2.27456">
        <time>2021-06-19T11:06:43+0000</time>
      </trkpt>
      <trkpt lat="40.669940000000004" lon="-2.2743700000000002">
        <time>2021-06-19T11:06:44+0000</time>
      </trkpt>
      <trkpt lat="40.670030000000004" lon="-2.2741800000000003">
        <time>2021-06-19T11:06:45+0000</time>
      </trkpt>
      <trkpt lat="40.67013" lon="-2.274">
        <time>2021-06-19T11:06:46+0000</time>
      </trkpt>
      <trkpt lat="40.6702" lon="-2.27382">
        <time>2021-06-19T11:06:47+0000</time>
      </trkpt>
      <trkpt lat="40.670280000000005" lon="-2.2736500000000004">
        <time>2021-06-19T11:06:48+0000</time>
      </trkpt>
      <trkpt lat="40.670370000000005" lon="-2.27348">
        <time>2021-06-19T11:06:49+0000</time>
      </trkpt>
      <trkpt lat="40.670460000000006" lon="-2.2733100000000004">
        <time>2021-06-19T11:06:50+0000</time>
      </trkpt>
      <trkpt lat="40.67056" lon="-2.27313">
        <time>2021-06-19T11:06:51+0000</time>
      </trkpt>
      <trkpt lat="40.67065" lon="-2.27294">
        <time>2021-06-19T11:06:52+0000</time>
      </trkpt>
      <trkpt lat="40.670750000000005" lon="-2.27274">
        <time>2021-06-19T11:06:53+0000</time>
      </trkpt>
      <trkpt lat="40.67085" lon="-2.2725400000000002">
        <time>2021-06-19T11:06:54+0000</time>
      </trkpt>
      <trkpt lat="40.67096" lon="-2.2723400000000002">
        <time>2021-06-19T11:06:55+0000</time>
      </trkpt>
      <trkpt lat="40.67107" lon="-2.2721400000000003">
        <time>2021-06-19T11:06:56+0000</time>
      </trkpt>
      <trkpt lat="40.67118000000001" lon="-2.2719300000000002">
        <time>2021-06-19T11:06:57+0000</time>
      </trkpt>
      <trkpt lat="40.671290000000006" lon="-2.27171">
        <time>2021-06-19T11:06:58+0000</time>
      </trkpt>
      <trkpt lat="40.671400000000006" lon="-2.2715">
        <time>2021-06-19T11:06:59+0000</time>
      </trkpt>
      <trkpt lat="40.67152" lon="-2.27128">
        <time>2021-06-19T11:07:00+0000</time>
      </trkpt>
      <trkpt lat="40.671640000000004" lon="-2.2710700000000004">
        <time>2021-06-19T11:07:01+0000</time>
      </trkpt>
      <trkpt lat="40.67174" lon="-2.2708600000000003">
        <time>2021-06-19T11:07:02+0000</time>
      </trkpt>
      <trkpt lat="40.67184" lon="-2.27068">
        <time>2021-06-19T11:07:03+0000</time>
      </trkpt>
      <trkpt lat="40.67193" lon="-2.2705100000000003">
        <time>2021-06-19T11:07:04+0000</time>
      </trkpt>
      <trkpt lat="40.67201" lon="-2.27035">
        <time>2021-06-19T11:07:05+0000</time>
      </trkpt>
      <trkpt lat="40.67208" lon="-2.2701900000000004">
        <time>2021-06-19T11:07:06+0000</time>
      </trkpt>
      <trkpt lat="40.67215" lon="-2.2700500000000003">
        <time>2021-06-19T11:07:07+0000</time>
      </trkpt>
      <trkpt lat="40.672200000000004" lon="-2.2699000000000003">
        <time>2021-06-19T11:07:08+0000</time>
      </trkpt>
      <trkpt lat="40.672250000000005" lon="-2.26976">
        <time>2021-06-19T11:07:09+0000</time>
      </trkpt>
      <trkpt lat="40.67231" lon="-2.26962">
        <time>2021-06-19T11:07:10+0000</time>
      </trkpt>
      <trkpt lat="40.67237" lon="-2.26947">
        <time>2021-06-19T11:07:11+0000</time>
      </trkpt>
      <trkpt lat="40.672430000000006" lon="-2.2693100000000004">
        <time>2021-06-19T11:07:12+0000</time>
      </trkpt>
      <trkpt lat="40.67250000000001" lon="-2.26914">
        <time>2021-06-19T11:07:13+0000</time>
      </trkpt>
      <trkpt lat="40.67257" lon="-2.2689700000000004">
        <time>2021-06-19T11:07:14+0000</time>
      </trkpt>
      <trkpt lat="40.672630000000005" lon="-2.26879">
        <time>2021-06-19T11:07:15+0000</time>
      </trkpt>
      <trkpt lat="40.67269" lon="-2.2686200000000003">
        <time>2021-06-19T11:07:16+0000</time>
      </trkpt>
      <trkpt lat="40.672740000000005" lon="-2.26846">
        <time>2021-06-19T11:07:17+0000</time>
      </trkpt>
      <trkpt lat="40.67278" lon="-2.26832">
        <time>2021-06-19T11:07:18+0000</time>
      </trkpt>
      <trkpt lat="40.67282" lon="-2.26818">
        <time>2021-06-19T11:07:19+0000</time>
      </trkpt>
      <trkpt lat="40.67287" lon="-2.2680200000000004">
        <time>2021-06-19T11:07:20+0000</time>
      </trkpt>
      <trkpt lat="40.67291" lon="-2.2678700000000003">
        <time>2021-06-19T11:07:21+0000</time>
      </trkpt>
      <trkpt lat="40.67295" lon="-2.26772">
        <time>2021-06-19T11:07:22+0000</time>
      </trkpt>
      <trkpt lat="40.672990000000006" lon="-2.26756">
        <time>2021-06-19T11:07:23+0000</time>
      </trkpt>
      <trkpt lat="40.67304" lon="-2.2674000000000003">
        <time>2021-06-19T11:07:24+0000</time>
      </trkpt>
      <trkpt lat="40.673080000000006" lon="-2.26723">
        <time>2021-06-19T11:07:25+0000</time>
      </trkpt>
      <trkpt lat="40.67313" lon="-2.2670600000000003">
        <time>2021-06-19T11:07:26+0000</time>
      </trkpt>
      <trkpt lat="40.67318" lon="-2.26688">
        <time>2021-06-19T11:07:27+0000</time>
      </trkpt>
      <trkpt lat="40.67322" lon="-2.2667">
        <time>2021-06-19T11:07:28+0000</time>
      </trkpt>
      <trkpt lat="40.673280000000005" lon="-2.2665">
        <time>2021-06-19T11:07:29+0000</time>
      </trkpt>
      <trkpt lat="40.67333" lon="-2.2663">
        <time>2021-06-19T11:07:30+0000</time>
      </trkpt>
      <trkpt lat="40.67338" lon="-2.26613">
        <time>2021-06-19T11:07:31+0000</time>
      </trkpt>
      <trkpt lat="40.67344000000001" lon="-2.26593">
        <time>2021-06-19T11:07:32+0000</time>
      </trkpt>
      <trkpt lat="40.67349" lon="-2.26574">
        <time>2021-06-19T11:07:33+0000</time>
      </trkpt>
      <trkpt lat="40.673550000000006" lon="-2.26555">
        <time>2021-06-19T11:07:34+0000</time>
      </trkpt>
      <trkpt lat="40.6736" lon="-2.26535">
        <time>2021-06-19T11:07:35+0000</time>
      </trkpt>
      <trkpt lat="40.673660000000005" lon="-2.26515">
        <time>2021-06-19T11:07:36+0000</time>
      </trkpt>
      <trkpt lat="40.67372" lon="-2.2649500000000002">
        <time>2021-06-19T11:07:37+0000</time>
      </trkpt>
      <trkpt lat="40.67378" lon="-2.26474">
        <time>2021-06-19T11:07:38+0000</time>
      </trkpt>
      <trkpt lat="40.673840000000006" lon="-2.26453">
        <time>2021-06-19T11:07:39+0000</time>
      </trkpt>
      <trkpt lat="40.6739" lon="-2.26433">
        <time>2021-06-19T11:07:40+0000</time>
      </trkpt>
      <trkpt lat="40.67396" lon="-2.26412">
        <time>2021-06-19T11:07:41+0000</time>
      </trkpt>
      <trkpt lat="40.674020000000006" lon="-2.2638900000000004">
        <time>2021-06-19T11:07:42+0000</time>
      </trkpt>
      <trkpt lat="40.674080000000004" lon="-2.2636700000000003">
        <time>2021-06-19T11:07:43+0000</time>
      </trkpt>
      <trkpt lat="40.674150000000004" lon="-2.26344">
        <time>2021-06-19T11:07:44+0000</time>
      </trkpt>
      <trkpt lat="40.67421" lon="-2.26323">
        <time>2021-06-19T11:07:45+0000</time>
      </trkpt>
      <trkpt lat="40.674260000000004" lon="-2.26303">
        <time>2021-06-19T11:07:46+0000</time>
      </trkpt>
      <trkpt lat="40.6743" lon="-2.26284">
        <time>2021-06-19T11:07:47+0000</time>
      </trkpt>
      <trkpt lat="40.67432" lon="-2.2626500000000003">
        <time>2021-06-19T11:07:48+0000</time>
      </trkpt>
      <trkpt lat="40.674350000000004" lon="-2.26247">
        <time>2021-06-19T11:07:49+0000</time>
      </trkpt>
      <trkpt lat="40.67437" lon="-2.2623">
        <time>2021-06-19T11:07:50+0000</time>
      </trkpt>
      <trkpt lat="40.67439" lon="-2.2621200000000004">
        <time>2021-06-19T11:07:51+0000</time>
      </trkpt>
      <trkpt lat="40.674400000000006" lon="-2.26196">
        <time>2021-06-19T11:07:52+0000</time>
      </trkpt>
      <trkpt lat="40.674420000000005" lon="-2.2618">
        <time>2021-06-19T11:07:53+0000</time>
      </trkpt>
      <trkpt lat="40.674420000000005" lon="-2.2616300000000003">
        <time>2021-06-19T11:07:54+0000</time>
      </trkpt>
      <trkpt lat="40.674440000000004" lon="-2.2614300000000003">
        <time>2021-06-19T11:07:55+0000</time>
      </trkpt>
      <trkpt lat="40.67445" lon="-2.2612200000000002">
        <time>2021-06-19T11:07:56+0000</time>
      </trkpt>
      <trkpt lat="40.67448" lon="-2.26101">
        <time>2021-06-19T11:07:57+0000</time>
      </trkpt>
      <trkpt lat="40.674510000000005" lon="-2.2608200000000003">
        <time>2021-06-19T11:07:58+0000</time>
      </trkpt>
      <trkpt lat="40.67456000000001" lon="-2.2606200000000003">
        <time>2021-06-19T11:07:59+0000</time>
      </trkpt>
      <trkpt lat="40.67461" lon="-2.2604300000000004">
        <time>2021-06-19T11:08:00+0000</time>
      </trkpt>
      <trkpt lat="40.674690000000005" lon="-2.26024">
        <time>2021-06-19T11:08:01+0000</time>
      </trkpt>
      <trkpt lat="40.674780000000005" lon="-2.26006">
        <time>2021-06-19T11:08:02+0000</time>
      </trkpt>
      <trkpt lat="40.67488" lon="-2.2599">
        <time>2021-06-19T11:08:03+0000</time>
      </trkpt>
      <trkpt lat="40.675000000000004" lon="-2.25976">
        <time>2021-06-19T11:08:04+0000</time>
      </trkpt>
      <trkpt lat="40.67513" lon="-2.2596200000000004">
        <time>2021-06-19T11:08:05+0000</time>
      </trkpt>
      <trkpt lat="40.675270000000005" lon="-2.2595">
        <time>2021-06-19T11:08:06+0000</time>
      </trkpt>
      <trkpt lat="40.675430000000006" lon="-2.25938">
        <time>2021-06-19T11:08:07+0000</time>
      </trkpt>
      <trkpt lat="40.67562" lon="-2.2592700000000003">
        <time>2021-06-19T11:08:08+0000</time>
      </trkpt>
      <trkpt lat="40.675810000000006" lon="-2.25916">
        <time>2021-06-19T11:08:09+0000</time>
      </trkpt>
      <trkpt lat="40.676010000000005" lon="-2.2590500000000002">
        <time>2021-06-19T11:08:10+0000</time>
      </trkpt>
      <trkpt lat="40.676190000000005" lon="-2.2589400000000004">
        <time>2021-06-19T11:08:11+0000</time>
      </trkpt>
      <trkpt lat="40.67638" lon="-2.25883">
        <time>2021-06-19T11:08:12+0000</time>
      </trkpt>
      <trkpt lat="40.676550000000006" lon="-2.2587300000000003">
        <time>2021-06-19T11:08:13+0000</time>
      </trkpt>
      <trkpt lat="40.676730000000006" lon="-2.25863">
        <time>2021-06-19T11:08:14+0000</time>
      </trkpt>
      <trkpt lat="40.67689" lon="-2.2585300000000004">
        <time>2021-06-19T11:08:15+0000</time>
      </trkpt>
      <trkpt lat="40.677060000000004" lon="-2.2584400000000002">
        <time>2021-06-19T11:08:16+0000</time>
      </trkpt>
      <trkpt lat="40.67723" lon="-2.2583300000000004">
        <time>2021-06-19T11:08:17+0000</time>
      </trkpt>
      <trkpt lat="40.67737" lon="-2.25821">
        <time>2021-06-19T11:08:18+0000</time>
      </trkpt>
      <trkpt lat="40.6775" lon="-2.25808">
        <time>2021-06-19T11:08:19+0000</time>
      </trkpt>
      <trkpt lat="40.67763" lon="-2.25794">
        <time>2021-06-19T11:08:20+0000</time>
      </trkpt>
      <trkpt lat="40.67774" lon="-2.2577800000000003">
        <time>2021-06-19T11:08:21+0000</time>
      </trkpt>
      <trkpt lat="40.67783" lon="-2.25761">
        <time>2021-06-19T11:08:22+0000</time>
      </trkpt>
      <trkpt lat="40.677910000000004" lon="-2.2574400000000003">
        <time>2021-06-19T11:08:23+0000</time>
      </trkpt>
      <trkpt lat="40.677980000000005" lon="-2.25726">
        <time>2021-06-19T11:08:24+0000</time>
      </trkpt>
      <trkpt lat="40.67803000000001" lon="-2.25707">
        <time>2021-06-19T11:08:25+0000</time>
      </trkpt>
      <trkpt lat="40.678070000000005" lon="-2.2568900000000003">
        <time>2021-06-19T11:08:26+0000</time>
      </trkpt>
      <trkpt lat="40.678090000000005" lon="-2.25674">
        <time>2021-06-19T11:08:27+0000</time>
      </trkpt>
      <trkpt lat="40.678110000000004" lon="-2.2566200000000003">
        <time>2021-06-19T11:08:28+0000</time>
      </trkpt>
      <trkpt lat="40.67813" lon="-2.25653">
        <time>2021-06-19T11:08:29+0000</time>
      </trkpt>
      <trkpt lat="40.67813" lon="-2.2564800000000003">
        <time>2021-06-19T11:08:30+0000</time>
      </trkpt>
      <trkpt lat="40.678140000000006" lon="-2.2564200000000003">
        <time>2021-06-19T11:08:31+0000</time>
      </trkpt>
      <trkpt lat="40.67815" lon="-2.2563500000000003">
        <time>2021-06-19T11:08:32+0000</time>
      </trkpt>
      <trkpt lat="40.678160000000005" lon="-2.2562900000000004">
        <time>2021-06-19T11:08:33+0000</time>
      </trkpt>
      <trkpt lat="40.678160000000005" lon="-2.2562200000000003">
        <time>2021-06-19T11:08:34+0000</time>
      </trkpt>
      <trkpt lat="40.678160000000005" lon="-2.2561400000000003">
        <time>2021-06-19T11:08:35+0000</time>
      </trkpt>
      <trkpt lat="40.678160000000005" lon="-2.25606">
        <time>2021-06-19T11:08:36+0000</time>
      </trkpt>
      <trkpt lat="40.67815" lon="-2.25598">
        <time>2021-06-19T11:08:37+0000</time>
      </trkpt>
      <trkpt lat="40.67813" lon="-2.2558900000000004">
        <time>2021-06-19T11:08:38+0000</time>
      </trkpt>
      <trkpt lat="40.6781" lon="-2.2558100000000003">
        <time>2021-06-19T11:08:39+0000</time>
      </trkpt>
      <trkpt lat="40.67808" lon="-2.2557300000000002">
        <time>2021-06-19T11:08:40+0000</time>
      </trkpt>
      <trkpt lat="40.678050000000006" lon="-2.25565">
        <time>2021-06-19T11:08:41+0000</time>
      </trkpt>
      <trkpt lat="40.67803000000001" lon="-2.25558">
        <time>2021-06-19T11:08:42+0000</time>
      </trkpt>
      <trkpt lat="40.67801" lon="-2.25551">
        <time>2021-06-19T11:08:43+0000</time>
      </trkpt>
      <trkpt lat="40.677980000000005" lon="-2.25545">
        <time>2021-06-19T11:08:44+0000</time>
      </trkpt>
      <trkpt lat="40.677960000000006" lon="-2.25538">
        <time>2021-06-19T11:08:45+0000</time>
      </trkpt>
      <trkpt lat="40.67794000000001" lon="-2.2553300000000003">
        <time>2021-06-19T11:08:46+0000</time>
      </trkpt>
      <trkpt lat="40.67792" lon="-2.2552700000000003">
        <time>2021-06-19T11:08:47+0000</time>
      </trkpt>
      <trkpt lat="40.677890000000005" lon="-2.2552100000000004">
        <time>2021-06-19T11:08:48+0000</time>
      </trkpt>
      <trkpt lat="40.677870000000006" lon="-2.2551400000000004">
        <time>2021-06-19T11:08:49+0000</time>
      </trkpt>
      <trkpt lat="40.67785000000001" lon="-2.2550700000000004">
        <time>2021-06-19T11:08:50+0000</time>
      </trkpt>
      <trkpt lat="40.677820000000004" lon="-2.2550000000000003">
        <time>2021-06-19T11:08:51+0000</time>
      </trkpt>
      <trkpt lat="40.67779" lon="-2.2549300000000003">
        <time>2021-06-19T11:08:52+0000</time>
      </trkpt>
      <trkpt lat="40.677760000000006" lon="-2.2548700000000004">
        <time>2021-06-19T11:08:53+0000</time>
      </trkpt>
      <trkpt lat="40.67772" lon="-2.25481">
        <time>2021-06-19T11:08:54+0000</time>
      </trkpt>
      <trkpt lat="40.677670000000006" lon="-2.25475">
        <time>2021-06-19T11:08:55+0000</time>
      </trkpt>
      <trkpt lat="40.677620000000005" lon="-2.2547">
        <time>2021-06-19T11:08:56+0000</time>
      </trkpt>
      <trkpt lat="40.67757" lon="-2.25464">
        <time>2021-06-19T11:08:57+0000</time>
      </trkpt>
      <trkpt lat="40.677510000000005" lon="-2.2545800000000003">
        <time>2021-06-19T11:08:58+0000</time>
      </trkpt>
      <trkpt lat="40.67746" lon="-2.2545100000000002">
        <time>2021-06-19T11:08:59+0000</time>
      </trkpt>
      <trkpt lat="40.67743" lon="-2.2544000000000004">
        <time>2021-06-19T11:09:00+0000</time>
      </trkpt>
      <trkpt lat="40.67741" lon="-2.25429">
        <time>2021-06-19T11:09:01+0000</time>
      </trkpt>
      <trkpt lat="40.677400000000006" lon="-2.2541700000000002">
        <time>2021-06-19T11:09:02+0000</time>
      </trkpt>
      <trkpt lat="40.67738000000001" lon="-2.2540500000000003">
        <time>2021-06-19T11:09:03+0000</time>
      </trkpt>
      <trkpt lat="40.677400000000006" lon="-2.25393">
        <time>2021-06-19T11:09:04+0000</time>
      </trkpt>
      <trkpt lat="40.677400000000006" lon="-2.25382">
        <time>2021-06-19T11:09:05+0000</time>
      </trkpt>
      <trkpt lat="40.67745" lon="-2.25374">
        <time>2021-06-19T11:09:06+0000</time>
      </trkpt>
      <trkpt lat="40.67748" lon="-2.25366">
        <time>2021-06-19T11:09:07+0000</time>
      </trkpt>
      <trkpt lat="40.67752" lon="-2.25359">
        <time>2021-06-19T11:09:08+0000</time>
      </trkpt>
      <trkpt lat="40.67757" lon="-2.25352">
        <time>2021-06-19T11:09:09+0000</time>
      </trkpt>
      <trkpt lat="40.67763" lon="-2.2534400000000003">
        <time>2021-06-19T11:09:10+0000</time>
      </trkpt>
      <trkpt lat="40.67766" lon="-2.25334">
        <time>2021-06-19T11:09:11+0000</time>
      </trkpt>
      <trkpt lat="40.67772" lon="-2.25325">
        <time>2021-06-19T11:09:12+0000</time>
      </trkpt>
      <trkpt lat="40.67777" lon="-2.2531600000000003">
        <time>2021-06-19T11:09:13+0000</time>
      </trkpt>
      <trkpt lat="40.677820000000004" lon="-2.25308">
        <time>2021-06-19T11:09:14+0000</time>
      </trkpt>
      <trkpt lat="40.67786" lon="-2.253">
        <time>2021-06-19T11:09:15+0000</time>
      </trkpt>
      <trkpt lat="40.67793" lon="-2.2529600000000003">
        <time>2021-06-19T11:09:16+0000</time>
      </trkpt>
      <trkpt lat="40.67797" lon="-2.2528900000000003">
        <time>2021-06-19T11:09:17+0000</time>
      </trkpt>
      <trkpt lat="40.678020000000004" lon="-2.25281">
        <time>2021-06-19T11:09:18+0000</time>
      </trkpt>
      <trkpt lat="40.678070000000005" lon="-2.25272">
        <time>2021-06-19T11:09:19+0000</time>
      </trkpt>
      <trkpt lat="40.6781" lon="-2.2526100000000002">
        <time>2021-06-19T11:09:20+0000</time>
      </trkpt>
      <trkpt lat="40.67813" lon="-2.25252">
        <time>2021-06-19T11:09:21+0000</time>
      </trkpt>
      <trkpt lat="40.67817" lon="-2.2524100000000002">
        <time>2021-06-19T11:09:22+0000</time>
      </trkpt>
      <trkpt lat="40.67815" lon="-2.2522800000000003">
        <time>2021-06-19T11:09:23+0000</time>
      </trkpt>
      <trkpt lat="40.678160000000005" lon="-2.2521500000000003">
        <time>2021-06-19T11:09:24+0000</time>
      </trkpt>
      <trkpt lat="40.67817" lon="-2.25203">
        <time>2021-06-19T11:09:25+0000</time>
      </trkpt>
      <trkpt lat="40.678180000000005" lon="-2.2519">
        <time>2021-06-19T11:09:26+0000</time>
      </trkpt>
      <trkpt lat="40.67822" lon="-2.25176">
        <time>2021-06-19T11:09:27+0000</time>
      </trkpt>
      <trkpt lat="40.678270000000005" lon="-2.25163">
        <time>2021-06-19T11:09:28+0000</time>
      </trkpt>
      <trkpt lat="40.678380000000004" lon="-2.2515500000000004">
        <time>2021-06-19T11:09:29+0000</time>
      </trkpt>
      <trkpt lat="40.67848" lon="-2.2515">
        <time>2021-06-19T11:09:30+0000</time>
      </trkpt>
      <trkpt lat="40.6786" lon="-2.2514600000000002">
        <time>2021-06-19T11:09:31+0000</time>
      </trkpt>
      <trkpt lat="40.678700000000006" lon="-2.25142">
        <time>2021-06-19T11:09:32+0000</time>
      </trkpt>
      <trkpt lat="40.67878" lon="-2.2513900000000002">
        <time>2021-06-19T11:09:33+0000</time>
      </trkpt>
      <trkpt lat="40.67886" lon="-2.25135">
        <time>2021-06-19T11:09:34+0000</time>
      </trkpt>
      <trkpt lat="40.678940000000004" lon="-2.2513">
        <time>2021-06-19T11:09:35+0000</time>
      </trkpt>
      <trkpt lat="40.67902" lon="-2.25124">
        <time>2021-06-19T11:09:36+0000</time>
      </trkpt>
      <trkpt lat="40.679080000000006" lon="-2.2511400000000004">
        <time>2021-06-19T11:09:37+0000</time>
      </trkpt>
      <trkpt lat="40.67913" lon="-2.25104">
        <time>2021-06-19T11:09:38+0000</time>
      </trkpt>
      <trkpt lat="40.6792" lon="-2.25095">
        <time>2021-06-19T11:09:39+0000</time>
      </trkpt>
      <trkpt lat="40.67925" lon="-2.25084">
        <time>2021-06-19T11:09:40+0000</time>
      </trkpt>
      <trkpt lat="40.679320000000004" lon="-2.25074">
        <time>2021-06-19T11:09:41+0000</time>
      </trkpt>
      <trkpt lat="40.679390000000005" lon="-2.2506500000000003">
        <time>2021-06-19T11:09:42+0000</time>
      </trkpt>
      <trkpt lat="40.67947" lon="-2.25055">
        <time>2021-06-19T11:09:43+0000</time>
      </trkpt>
      <trkpt lat="40.67953000000001" lon="-2.2504600000000003">
        <time>2021-06-19T11:09:44+0000</time>
      </trkpt>
      <trkpt lat="40.679610000000004" lon="-2.25037">
        <time>2021-06-19T11:09:45+0000</time>
      </trkpt>
      <trkpt lat="40.67967" lon="-2.25029">
        <time>2021-06-19T11:09:46+0000</time>
      </trkpt>
      <trkpt lat="40.67974" lon="-2.2502">
        <time>2021-06-19T11:09:47+0000</time>
      </trkpt>
      <trkpt lat="40.67981" lon="-2.2501200000000003">
        <time>2021-06-19T11:09:48+0000</time>
      </trkpt>
      <trkpt lat="40.67989" lon="-2.2500400000000003">
        <time>2021-06-19T11:09:49+0000</time>
      </trkpt>
      <trkpt lat="40.679970000000004" lon="-2.24995">
        <time>2021-06-19T11:09:50+0000</time>
      </trkpt>
      <trkpt lat="40.68007" lon="-2.24986">
        <time>2021-06-19T11:09:51+0000</time>
      </trkpt>
      <trkpt lat="40.68018" lon="-2.24975">
        <time>2021-06-19T11:09:52+0000</time>
      </trkpt>
      <trkpt lat="40.68029000000001" lon="-2.2496500000000004">
        <time>2021-06-19T11:09:53+0000</time>
      </trkpt>
      <trkpt lat="40.680400000000006" lon="-2.24954">
        <time>2021-06-19T11:09:54+0000</time>
      </trkpt>
      <trkpt lat="40.6805" lon="-2.2494400000000003">
        <time>2021-06-19T11:09:55+0000</time>
      </trkpt>
      <trkpt lat="40.68059" lon="-2.2493000000000003">
        <time>2021-06-19T11:09:56+0000</time>
      </trkpt>
      <trkpt lat="40.68065" lon="-2.24913">
        <time>2021-06-19T11:09:57+0000</time>
      </trkpt>
      <trkpt lat="40.68066" lon="-2.24892">
        <time>2021-06-19T11:09:58+0000</time>
      </trkpt>
      <trkpt lat="40.680640000000004" lon="-2.2486900000000003">
        <time>2021-06-19T11:09:59+0000</time>
      </trkpt>
      <trkpt lat="40.680580000000006" lon="-2.2484800000000003">
        <time>2021-06-19T11:10:00+0000</time>
      </trkpt>
      <trkpt lat="40.680510000000005" lon="-2.2482800000000003">
        <time>2021-06-19T11:10:01+0000</time>
      </trkpt>
      <trkpt lat="40.68039" lon="-2.24812">
        <time>2021-06-19T11:10:02+0000</time>
      </trkpt>
      <trkpt lat="40.68034" lon="-2.24791">
        <time>2021-06-19T11:10:03+0000</time>
      </trkpt>
      <trkpt lat="40.68029000000001" lon="-2.24769">
        <time>2021-06-19T11:10:04+0000</time>
      </trkpt>
      <trkpt lat="40.68025" lon="-2.2474600000000002">
        <time>2021-06-19T11:10:05+0000</time>
      </trkpt>
      <trkpt lat="40.680200000000006" lon="-2.24725">
        <time>2021-06-19T11:10:06+0000</time>
      </trkpt>
      <trkpt lat="40.68016" lon="-2.24704">
        <time>2021-06-19T11:10:07+0000</time>
      </trkpt>
      <trkpt lat="40.68012" lon="-2.2468500000000002">
        <time>2021-06-19T11:10:08+0000</time>
      </trkpt>
      <trkpt lat="40.68009" lon="-2.2466600000000003">
        <time>2021-06-19T11:10:09+0000</time>
      </trkpt>
      <trkpt lat="40.68005" lon="-2.24648">
        <time>2021-06-19T11:10:10+0000</time>
      </trkpt>
      <trkpt lat="40.680020000000006" lon="-2.2463">
        <time>2021-06-19T11:10:11+0000</time>
      </trkpt>
      <trkpt lat="40.679990000000004" lon="-2.2461100000000003">
        <time>2021-06-19T11:10:12+0000</time>
      </trkpt>
      <trkpt lat="40.679970000000004" lon="-2.2459100000000003">
        <time>2021-06-19T11:10:13+0000</time>
      </trkpt>
      <trkpt lat="40.67996" lon="-2.24573">
        <time>2021-06-19T11:10:14+0000</time>
      </trkpt>
      <trkpt lat="40.67996" lon="-2.24554">
        <time>2021-06-19T11:10:15+0000</time>
      </trkpt>
      <trkpt lat="40.679990000000004" lon="-2.24533">
        <time>2021-06-19T11:10:16+0000</time>
      </trkpt>
      <trkpt lat="40.68005" lon="-2.2451100000000004">
        <time>2021-06-19T11:10:17+0000</time>
      </trkpt>
      <trkpt lat="40.680130000000005" lon="-2.2448900000000003">
        <time>2021-06-19T11:10:18+0000</time>
      </trkpt>
      <trkpt lat="40.680240000000005" lon="-2.24471">
        <time>2021-06-19T11:10:19+0000</time>
      </trkpt>
      <trkpt lat="40.68034" lon="-2.24453">
        <time>2021-06-19T11:10:20+0000</time>
      </trkpt>
      <trkpt lat="40.680490000000006" lon="-2.24437">
        <time>2021-06-19T11:10:21+0000</time>
      </trkpt>
      <trkpt lat="40.68065" lon="-2.2442">
        <time>2021-06-19T11:10:22+0000</time>
      </trkpt>
      <trkpt lat="40.680820000000004" lon="-2.24403">
        <time>2021-06-19T11:10:23+0000</time>
      </trkpt>
      <trkpt lat="40.68099" lon="-2.24386">
        <time>2021-06-19T11:10:24+0000</time>
      </trkpt>
      <trkpt lat="40.68115" lon="-2.2437">
        <time>2021-06-19T11:10:25+0000</time>
      </trkpt>
      <trkpt lat="40.68131" lon="-2.2435400000000003">
        <time>2021-06-19T11:10:26+0000</time>
      </trkpt>
      <trkpt lat="40.681470000000004" lon="-2.24338">
        <time>2021-06-19T11:10:27+0000</time>
      </trkpt>
      <trkpt lat="40.681630000000006" lon="-2.24322">
        <time>2021-06-19T11:10:28+0000</time>
      </trkpt>
      <trkpt lat="40.6818" lon="-2.2430600000000003">
        <time>2021-06-19T11:10:29+0000</time>
      </trkpt>
      <trkpt lat="40.681960000000004" lon="-2.2429">
        <time>2021-06-19T11:10:30+0000</time>
      </trkpt>
      <trkpt lat="40.682120000000005" lon="-2.2427400000000004">
        <time>2021-06-19T11:10:31+0000</time>
      </trkpt>
      <trkpt lat="40.682280000000006" lon="-2.24257">
        <time>2021-06-19T11:10:32+0000</time>
      </trkpt>
      <trkpt lat="40.682430000000004" lon="-2.2423900000000003">
        <time>2021-06-19T11:10:33+0000</time>
      </trkpt>
      <trkpt lat="40.68258" lon="-2.2422">
        <time>2021-06-19T11:10:34+0000</time>
      </trkpt>
      <trkpt lat="40.68274" lon="-2.24202">
        <time>2021-06-19T11:10:35+0000</time>
      </trkpt>
      <trkpt lat="40.68291000000001" lon="-2.24183">
        <time>2021-06-19T11:10:36+0000</time>
      </trkpt>
      <trkpt lat="40.68309" lon="-2.2416400000000003">
        <time>2021-06-19T11:10:37+0000</time>
      </trkpt>
      <trkpt lat="40.68327" lon="-2.2414400000000003">
        <time>2021-06-19T11:10:38+0000</time>
      </trkpt>
      <trkpt lat="40.683460000000004" lon="-2.2412400000000003">
        <time>2021-06-19T11:10:39+0000</time>
      </trkpt>
      <trkpt lat="40.683640000000004" lon="-2.2410300000000003">
        <time>2021-06-19T11:10:40+0000</time>
      </trkpt>
      <trkpt lat="40.683820000000004" lon="-2.2408400000000004">
        <time>2021-06-19T11:10:41+0000</time>
      </trkpt>
      <trkpt lat="40.68399" lon="-2.24065">
        <time>2021-06-19T11:10:42+0000</time>
      </trkpt>
      <trkpt lat="40.684160000000006" lon="-2.24046">
        <time>2021-06-19T11:10:43+0000</time>
      </trkpt>
      <trkpt lat="40.68433" lon="-2.2402800000000003">
        <time>2021-06-19T11:10:44+0000</time>
      </trkpt>
      <trkpt lat="40.68451" lon="-2.24012">
        <time>2021-06-19T11:10:45+0000</time>
      </trkpt>
      <trkpt lat="40.68470000000001" lon="-2.23998">
        <time>2021-06-19T11:10:46+0000</time>
      </trkpt>
      <trkpt lat="40.68491" lon="-2.2398700000000002">
        <time>2021-06-19T11:10:47+0000</time>
      </trkpt>
      <trkpt lat="40.685140000000004" lon="-2.2398000000000002">
        <time>2021-06-19T11:10:48+0000</time>
      </trkpt>
      <trkpt lat="40.685370000000006" lon="-2.23977">
        <time>2021-06-19T11:10:49+0000</time>
      </trkpt>
      <trkpt lat="40.685610000000004" lon="-2.23978">
        <time>2021-06-19T11:10:50+0000</time>
      </trkpt>
      <trkpt lat="40.685840000000006" lon="-2.23983">
        <time>2021-06-19T11:10:51+0000</time>
      </trkpt>
      <trkpt lat="40.68605" lon="-2.23993">
        <time>2021-06-19T11:10:52+0000</time>
      </trkpt>
      <trkpt lat="40.68625" lon="-2.24006">
        <time>2021-06-19T11:10:53+0000</time>
      </trkpt>
      <trkpt lat="40.686440000000005" lon="-2.2402">
        <time>2021-06-19T11:10:54+0000</time>
      </trkpt>
      <trkpt lat="40.68663" lon="-2.24034">
        <time>2021-06-19T11:10:55+0000</time>
      </trkpt>
      <trkpt lat="40.686820000000004" lon="-2.24047">
        <time>2021-06-19T11:10:56+0000</time>
      </trkpt>
      <trkpt lat="40.687000000000005" lon="-2.24059">
        <time>2021-06-19T11:10:57+0000</time>
      </trkpt>
      <trkpt lat="40.687200000000004" lon="-2.2406800000000002">
        <time>2021-06-19T11:10:58+0000</time>
      </trkpt>
      <trkpt lat="40.68741" lon="-2.24072">
        <time>2021-06-19T11:10:59+0000</time>
      </trkpt>
      <trkpt lat="40.687630000000006" lon="-2.24072">
        <time>2021-06-19T11:11:00+0000</time>
      </trkpt>
      <trkpt lat="40.68784" lon="-2.24066">
        <time>2021-06-19T11:11:01+0000</time>
      </trkpt>
      <trkpt lat="40.688050000000004" lon="-2.2405500000000003">
        <time>2021-06-19T11:11:02+0000</time>
      </trkpt>
      <trkpt lat="40.688250000000004" lon="-2.2404100000000002">
        <time>2021-06-19T11:11:03+0000</time>
      </trkpt>
      <trkpt lat="40.68845" lon="-2.2402200000000003">
        <time>2021-06-19T11:11:04+0000</time>
      </trkpt>
      <trkpt lat="40.68863" lon="-2.2400200000000003">
        <time>2021-06-19T11:11:05+0000</time>
      </trkpt>
      <trkpt lat="40.688810000000004" lon="-2.23983">
        <time>2021-06-19T11:11:06+0000</time>
      </trkpt>
      <trkpt lat="40.688990000000004" lon="-2.23965">
        <time>2021-06-19T11:11:07+0000</time>
      </trkpt>
      <trkpt lat="40.68916" lon="-2.2394800000000004">
        <time>2021-06-19T11:11:08+0000</time>
      </trkpt>
      <trkpt lat="40.689350000000005" lon="-2.2393400000000003">
        <time>2021-06-19T11:11:09+0000</time>
      </trkpt>
      <trkpt lat="40.689550000000004" lon="-2.23924">
        <time>2021-06-19T11:11:10+0000</time>
      </trkpt>
      <trkpt lat="40.68977" lon="-2.23917">
        <time>2021-06-19T11:11:11+0000</time>
      </trkpt>
      <trkpt lat="40.68999" lon="-2.23912">
        <time>2021-06-19T11:11:12+0000</time>
      </trkpt>
      <trkpt lat="40.69023000000001" lon="-2.23909">
        <time>2021-06-19T11:11:13+0000</time>
      </trkpt>
      <trkpt lat="40.69048" lon="-2.2390700000000003">
        <time>2021-06-19T11:11:14+0000</time>
      </trkpt>
      <trkpt lat="40.69073" lon="-2.23904">
        <time>2021-06-19T11:11:15+0000</time>
      </trkpt>
      <trkpt lat="40.69098" lon="-2.2390000000000003">
        <time>2021-06-19T11:11:16+0000</time>
      </trkpt>
      <trkpt lat="40.691250000000004" lon="-2.23896">
        <time>2021-06-19T11:11:17+0000</time>
      </trkpt>
      <trkpt lat="40.69151" lon="-2.23891">
        <time>2021-06-19T11:11:18+0000</time>
      </trkpt>
      <trkpt lat="40.691770000000005" lon="-2.2388500000000002">
        <time>2021-06-19T11:11:19+0000</time>
      </trkpt>
      <trkpt lat="40.69202000000001" lon="-2.2387900000000003">
        <time>2021-06-19T11:11:20+0000</time>
      </trkpt>
      <trkpt lat="40.69227" lon="-2.2387200000000003">
        <time>2021-06-19T11:11:21+0000</time>
      </trkpt>
      <trkpt lat="40.692530000000005" lon="-2.2386600000000003">
        <time>2021-06-19T11:11:22+0000</time>
      </trkpt>
      <trkpt lat="40.692800000000005" lon="-2.2385900000000003">
        <time>2021-06-19T11:11:23+0000</time>
      </trkpt>
      <trkpt lat="40.693070000000006" lon="-2.2385200000000003">
        <time>2021-06-19T11:11:24+0000</time>
      </trkpt>
      <trkpt lat="40.69333" lon="-2.2384500000000003">
        <time>2021-06-19T11:11:25+0000</time>
      </trkpt>
      <trkpt lat="40.693580000000004" lon="-2.2383800000000003">
        <time>2021-06-19T11:11:26+0000</time>
      </trkpt>
      <trkpt lat="40.69382" lon="-2.2383200000000003">
        <time>2021-06-19T11:11:27+0000</time>
      </trkpt>
      <trkpt lat="40.69404" lon="-2.2382500000000003">
        <time>2021-06-19T11:11:28+0000</time>
      </trkpt>
      <trkpt lat="40.694250000000004" lon="-2.2381800000000003">
        <time>2021-06-19T11:11:29+0000</time>
      </trkpt>
      <trkpt lat="40.69444" lon="-2.23808">
        <time>2021-06-19T11:11:30+0000</time>
      </trkpt>
      <trkpt lat="40.69462" lon="-2.2379700000000002">
        <time>2021-06-19T11:11:31+0000</time>
      </trkpt>
      <trkpt lat="40.694790000000005" lon="-2.23782">
        <time>2021-06-19T11:11:32+0000</time>
      </trkpt>
      <trkpt lat="40.69496" lon="-2.2376400000000003">
        <time>2021-06-19T11:11:33+0000</time>
      </trkpt>
      <trkpt lat="40.69512" lon="-2.2374300000000003">
        <time>2021-06-19T11:11:34+0000</time>
      </trkpt>
      <trkpt lat="40.69529" lon="-2.2372300000000003">
        <time>2021-06-19T11:11:35+0000</time>
      </trkpt>
      <trkpt lat="40.69545" lon="-2.2370300000000003">
        <time>2021-06-19T11:11:36+0000</time>
      </trkpt>
      <trkpt lat="40.695620000000005" lon="-2.2368200000000003">
        <time>2021-06-19T11:11:37+0000</time>
      </trkpt>
      <trkpt lat="40.695780000000006" lon="-2.23661">
        <time>2021-06-19T11:11:38+0000</time>
      </trkpt>
      <trkpt lat="40.69595" lon="-2.2364200000000003">
        <time>2021-06-19T11:11:39+0000</time>
      </trkpt>
      <trkpt lat="40.696090000000005" lon="-2.23624">
        <time>2021-06-19T11:11:40+0000</time>
      </trkpt>
      <trkpt lat="40.69621" lon="-2.2360800000000003">
        <time>2021-06-19T11:11:41+0000</time>
      </trkpt>
      <trkpt lat="40.696310000000004" lon="-2.23593">
        <time>2021-06-19T11:11:42+0000</time>
      </trkpt>
      <trkpt lat="40.696400000000004" lon="-2.23579">
        <time>2021-06-19T11:11:43+0000</time>
      </trkpt>
      <trkpt lat="40.69648" lon="-2.23564">
        <time>2021-06-19T11:11:44+0000</time>
      </trkpt>
      <trkpt lat="40.696560000000005" lon="-2.23549">
        <time>2021-06-19T11:11:45+0000</time>
      </trkpt>
      <trkpt lat="40.696580000000004" lon="-2.23531">
        <time>2021-06-19T11:11:46+0000</time>
      </trkpt>
      <trkpt lat="40.696600000000004" lon="-2.2351300000000003">
        <time>2021-06-19T11:11:47+0000</time>
      </trkpt>
      <trkpt lat="40.69662" lon="-2.2349300000000003">
        <time>2021-06-19T11:11:48+0000</time>
      </trkpt>
      <trkpt lat="40.696600000000004" lon="-2.2347300000000003">
        <time>2021-06-19T11:11:49+0000</time>
      </trkpt>
      <trkpt lat="40.69657" lon="-2.2345">
        <time>2021-06-19T11:11:50+0000</time>
      </trkpt>
      <trkpt lat="40.69653" lon="-2.2342600000000004">
        <time>2021-06-19T11:11:51+0000</time>
      </trkpt>
      <trkpt lat="40.69648" lon="-2.234">
        <time>2021-06-19T11:11:52+0000</time>
      </trkpt>
      <trkpt lat="40.69643000000001" lon="-2.23373">
        <time>2021-06-19T11:11:53+0000</time>
      </trkpt>
      <trkpt lat="40.696380000000005" lon="-2.23348">
        <time>2021-06-19T11:11:54+0000</time>
      </trkpt>
      <trkpt lat="40.696340000000006" lon="-2.2332400000000003">
        <time>2021-06-19T11:11:55+0000</time>
      </trkpt>
      <trkpt lat="40.696290000000005" lon="-2.23301">
        <time>2021-06-19T11:11:56+0000</time>
      </trkpt>
      <trkpt lat="40.696250000000006" lon="-2.23278">
        <time>2021-06-19T11:11:57+0000</time>
      </trkpt>
      <trkpt lat="40.69621" lon="-2.2325700000000004">
        <time>2021-06-19T11:11:58+0000</time>
      </trkpt>
      <trkpt lat="40.69617" lon="-2.23234">
        <time>2021-06-19T11:11:59+0000</time>
      </trkpt>
      <trkpt lat="40.696130000000004" lon="-2.23212">
        <time>2021-06-19T11:12:00+0000</time>
      </trkpt>
      <trkpt lat="40.696090000000005" lon="-2.2318900000000004">
        <time>2021-06-19T11:12:01+0000</time>
      </trkpt>
      <trkpt lat="40.69604" lon="-2.23166">
        <time>2021-06-19T11:12:02+0000</time>
      </trkpt>
      <trkpt lat="40.696000000000005" lon="-2.23144">
        <time>2021-06-19T11:12:03+0000</time>
      </trkpt>
      <trkpt lat="40.69596000000001" lon="-2.2312000000000003">
        <time>2021-06-19T11:12:04+0000</time>
      </trkpt>
      <trkpt lat="40.69592" lon="-2.23098">
        <time>2021-06-19T11:12:05+0000</time>
      </trkpt>
      <trkpt lat="40.69588" lon="-2.2307400000000004">
        <time>2021-06-19T11:12:06+0000</time>
      </trkpt>
      <trkpt lat="40.69586" lon="-2.23051">
        <time>2021-06-19T11:12:07+0000</time>
      </trkpt>
      <trkpt lat="40.695840000000004" lon="-2.23027">
        <time>2021-06-19T11:12:08+0000</time>
      </trkpt>
      <trkpt lat="40.695840000000004" lon="-2.23002">
        <time>2021-06-19T11:12:09+0000</time>
      </trkpt>
      <trkpt lat="40.695840000000004" lon="-2.2297700000000003">
        <time>2021-06-19T11:12:10+0000</time>
      </trkpt>
      <trkpt lat="40.695840000000004" lon="-2.22954">
        <time>2021-06-19T11:12:11+0000</time>
      </trkpt>
      <trkpt lat="40.69585" lon="-2.22932">
        <time>2021-06-19T11:12:12+0000</time>
      </trkpt>
      <trkpt lat="40.69586" lon="-2.2291100000000004">
        <time>2021-06-19T11:12:13+0000</time>
      </trkpt>
      <trkpt lat="40.695870000000006" lon="-2.2288900000000003">
        <time>2021-06-19T11:12:14+0000</time>
      </trkpt>
      <trkpt lat="40.695870000000006" lon="-2.22866">
        <time>2021-06-19T11:12:15+0000</time>
      </trkpt>
      <trkpt lat="40.69588" lon="-2.2284300000000004">
        <time>2021-06-19T11:12:16+0000</time>
      </trkpt>
      <trkpt lat="40.695870000000006" lon="-2.2282">
        <time>2021-06-19T11:12:17+0000</time>
      </trkpt>
      <trkpt lat="40.69586" lon="-2.22798">
        <time>2021-06-19T11:12:18+0000</time>
      </trkpt>
      <trkpt lat="40.69585" lon="-2.22776">
        <time>2021-06-19T11:12:19+0000</time>
      </trkpt>
      <trkpt lat="40.695840000000004" lon="-2.22756">
        <time>2021-06-19T11:12:20+0000</time>
      </trkpt>
      <trkpt lat="40.69583" lon="-2.22736">
        <time>2021-06-19T11:12:21+0000</time>
      </trkpt>
      <trkpt lat="40.695820000000005" lon="-2.22718">
        <time>2021-06-19T11:12:22+0000</time>
      </trkpt>
      <trkpt lat="40.69581" lon="-2.2270100000000004">
        <time>2021-06-19T11:12:23+0000</time>
      </trkpt>
      <trkpt lat="40.695800000000006" lon="-2.22684">
        <time>2021-06-19T11:12:24+0000</time>
      </trkpt>
      <trkpt lat="40.695800000000006" lon="-2.22668">
        <time>2021-06-19T11:12:25+0000</time>
      </trkpt>
      <trkpt lat="40.695780000000006" lon="-2.22654">
        <time>2021-06-19T11:12:26+0000</time>
      </trkpt>
      <trkpt lat="40.69576" lon="-2.2263800000000002">
        <time>2021-06-19T11:12:27+0000</time>
      </trkpt>
      <trkpt lat="40.69576" lon="-2.22622">
        <time>2021-06-19T11:12:28+0000</time>
      </trkpt>
      <trkpt lat="40.69576" lon="-2.2260400000000002">
        <time>2021-06-19T11:12:29+0000</time>
      </trkpt>
      <trkpt lat="40.695750000000004" lon="-2.2258500000000003">
        <time>2021-06-19T11:12:30+0000</time>
      </trkpt>
      <trkpt lat="40.695750000000004" lon="-2.22563">
        <time>2021-06-19T11:12:31+0000</time>
      </trkpt>
      <trkpt lat="40.69576" lon="-2.2254">
        <time>2021-06-19T11:12:32+0000</time>
      </trkpt>
      <trkpt lat="40.69576" lon="-2.2251800000000004">
        <time>2021-06-19T11:12:33+0000</time>
      </trkpt>
      <trkpt lat="40.69576" lon="-2.2249700000000003">
        <time>2021-06-19T11:12:34+0000</time>
      </trkpt>
      <trkpt lat="40.69577" lon="-2.2247600000000003">
        <time>2021-06-19T11:12:35+0000</time>
      </trkpt>
      <trkpt lat="40.695780000000006" lon="-2.2245600000000003">
        <time>2021-06-19T11:12:36+0000</time>
      </trkpt>
      <trkpt lat="40.695780000000006" lon="-2.2243700000000004">
        <time>2021-06-19T11:12:37+0000</time>
      </trkpt>
      <trkpt lat="40.69579" lon="-2.22419">
        <time>2021-06-19T11:12:38+0000</time>
      </trkpt>
      <trkpt lat="40.69579" lon="-2.2240200000000003">
        <time>2021-06-19T11:12:39+0000</time>
      </trkpt>
      <trkpt lat="40.69579" lon="-2.22384">
        <time>2021-06-19T11:12:40+0000</time>
      </trkpt>
      <trkpt lat="40.69579" lon="-2.22364">
        <time>2021-06-19T11:12:41+0000</time>
      </trkpt>
      <trkpt lat="40.695800000000006" lon="-2.22344">
        <time>2021-06-19T11:12:42+0000</time>
      </trkpt>
      <trkpt lat="40.69579" lon="-2.22322">
        <time>2021-06-19T11:12:43+0000</time>
      </trkpt>
      <trkpt lat="40.69579" lon="-2.2229900000000002">
        <time>2021-06-19T11:12:44+0000</time>
      </trkpt>
      <trkpt lat="40.695780000000006" lon="-2.22276">
        <time>2021-06-19T11:12:45+0000</time>
      </trkpt>
      <trkpt lat="40.695780000000006" lon="-2.2225200000000003">
        <time>2021-06-19T11:12:46+0000</time>
      </trkpt>
      <trkpt lat="40.69577" lon="-2.2223">
        <time>2021-06-19T11:12:47+0000</time>
      </trkpt>
      <trkpt lat="40.69576" lon="-2.22207">
        <time>2021-06-19T11:12:48+0000</time>
      </trkpt>
      <trkpt lat="40.695750000000004" lon="-2.2218400000000003">
        <time>2021-06-19T11:12:49+0000</time>
      </trkpt>
      <trkpt lat="40.69574" lon="-2.22162">
        <time>2021-06-19T11:12:50+0000</time>
      </trkpt>
      <trkpt lat="40.69572" lon="-2.22139">
        <time>2021-06-19T11:12:51+0000</time>
      </trkpt>
      <trkpt lat="40.6957" lon="-2.22115">
        <time>2021-06-19T11:12:52+0000</time>
      </trkpt>
      <trkpt lat="40.69567" lon="-2.2209100000000004">
        <time>2021-06-19T11:12:53+0000</time>
      </trkpt>
      <trkpt lat="40.69565" lon="-2.22067">
        <time>2021-06-19T11:12:54+0000</time>
      </trkpt>
      <trkpt lat="40.69561" lon="-2.2204200000000003">
        <time>2021-06-19T11:12:55+0000</time>
      </trkpt>
      <trkpt lat="40.69558000000001" lon="-2.22018">
        <time>2021-06-19T11:12:56+0000</time>
      </trkpt>
      <trkpt lat="40.69554" lon="-2.21993">
        <time>2021-06-19T11:12:57+0000</time>
      </trkpt>
      <trkpt lat="40.695510000000006" lon="-2.2197">
        <time>2021-06-19T11:12:58+0000</time>
      </trkpt>
      <trkpt lat="40.69548" lon="-2.21946">
        <time>2021-06-19T11:12:59+0000</time>
      </trkpt>
      <trkpt lat="40.69545" lon="-2.21923">
        <time>2021-06-19T11:13:00+0000</time>
      </trkpt>
      <trkpt lat="40.695420000000006" lon="-2.2190100000000004">
        <time>2021-06-19T11:13:01+0000</time>
      </trkpt>
      <trkpt lat="40.69539" lon="-2.2187900000000003">
        <time>2021-06-19T11:13:02+0000</time>
      </trkpt>
      <trkpt lat="40.69536" lon="-2.21858">
        <time>2021-06-19T11:13:03+0000</time>
      </trkpt>
      <trkpt lat="40.695330000000006" lon="-2.21836">
        <time>2021-06-19T11:13:04+0000</time>
      </trkpt>
      <trkpt lat="40.69529" lon="-2.21815">
        <time>2021-06-19T11:13:05+0000</time>
      </trkpt>
      <trkpt lat="40.695240000000005" lon="-2.2179300000000004">
        <time>2021-06-19T11:13:06+0000</time>
      </trkpt>
      <trkpt lat="40.69518" lon="-2.2177100000000003">
        <time>2021-06-19T11:13:07+0000</time>
      </trkpt>
      <trkpt lat="40.695080000000004" lon="-2.21749">
        <time>2021-06-19T11:13:08+0000</time>
      </trkpt>
      <trkpt lat="40.694990000000004" lon="-2.21727">
        <time>2021-06-19T11:13:09+0000</time>
      </trkpt>
      <trkpt lat="40.69489" lon="-2.21707">
        <time>2021-06-19T11:13:10+0000</time>
      </trkpt>
      <trkpt lat="40.694790000000005" lon="-2.21688">
        <time>2021-06-19T11:13:11+0000</time>
      </trkpt>
      <trkpt lat="40.69469" lon="-2.2167000000000003">
        <time>2021-06-19T11:13:12+0000</time>
      </trkpt>
      <trkpt lat="40.694590000000005" lon="-2.21653">
        <time>2021-06-19T11:13:13+0000</time>
      </trkpt>
      <trkpt lat="40.69449" lon="-2.2163600000000003">
        <time>2021-06-19T11:13:14+0000</time>
      </trkpt>
      <trkpt lat="40.694390000000006" lon="-2.21618">
        <time>2021-06-19T11:13:15+0000</time>
      </trkpt>
      <trkpt lat="40.69429" lon="-2.2160100000000003">
        <time>2021-06-19T11:13:16+0000</time>
      </trkpt>
      <trkpt lat="40.6942" lon="-2.2158100000000003">
        <time>2021-06-19T11:13:17+0000</time>
      </trkpt>
      <trkpt lat="40.69409" lon="-2.21563">
        <time>2021-06-19T11:13:18+0000</time>
      </trkpt>
      <trkpt lat="40.69398" lon="-2.21543">
        <time>2021-06-19T11:13:19+0000</time>
      </trkpt>
      <trkpt lat="40.69386" lon="-2.21523">
        <time>2021-06-19T11:13:20+0000</time>
      </trkpt>
      <trkpt lat="40.693740000000005" lon="-2.21505">
        <time>2021-06-19T11:13:21+0000</time>
      </trkpt>
      <trkpt lat="40.69364" lon="-2.2148700000000003">
        <time>2021-06-19T11:13:22+0000</time>
      </trkpt>
      <trkpt lat="40.693540000000006" lon="-2.21471">
        <time>2021-06-19T11:13:23+0000</time>
      </trkpt>
      <trkpt lat="40.69346" lon="-2.2145300000000003">
        <time>2021-06-19T11:13:24+0000</time>
      </trkpt>
      <trkpt lat="40.69335" lon="-2.21436">
        <time>2021-06-19T11:13:25+0000</time>
      </trkpt>
      <trkpt lat="40.693250000000006" lon="-2.21417">
        <time>2021-06-19T11:13:26+0000</time>
      </trkpt>
      <trkpt lat="40.69314000000001" lon="-2.21397">
        <time>2021-06-19T11:13:27+0000</time>
      </trkpt>
      <trkpt lat="40.69303" lon="-2.21376">
        <time>2021-06-19T11:13:28+0000</time>
      </trkpt>
      <trkpt lat="40.692930000000004" lon="-2.21353">
        <time>2021-06-19T11:13:29+0000</time>
      </trkpt>
      <trkpt lat="40.692820000000005" lon="-2.21329">
        <time>2021-06-19T11:13:30+0000</time>
      </trkpt>
      <trkpt lat="40.69272" lon="-2.21305">
        <time>2021-06-19T11:13:31+0000</time>
      </trkpt>
      <trkpt lat="40.692620000000005" lon="-2.2128">
        <time>2021-06-19T11:13:32+0000</time>
      </trkpt>
      <trkpt lat="40.69252" lon="-2.2125500000000002">
        <time>2021-06-19T11:13:33+0000</time>
      </trkpt>
      <trkpt lat="40.69243" lon="-2.2123000000000004">
        <time>2021-06-19T11:13:34+0000</time>
      </trkpt>
      <trkpt lat="40.692330000000005" lon="-2.21206">
        <time>2021-06-19T11:13:35+0000</time>
      </trkpt>
      <trkpt lat="40.69223" lon="-2.2118100000000003">
        <time>2021-06-19T11:13:36+0000</time>
      </trkpt>
      <trkpt lat="40.69214" lon="-2.21157">
        <time>2021-06-19T11:13:37+0000</time>
      </trkpt>
      <trkpt lat="40.69205" lon="-2.21132">
        <time>2021-06-19T11:13:38+0000</time>
      </trkpt>
      <trkpt lat="40.691970000000005" lon="-2.2110700000000003">
        <time>2021-06-19T11:13:39+0000</time>
      </trkpt>
      <trkpt lat="40.691900000000004" lon="-2.21083">
        <time>2021-06-19T11:13:40+0000</time>
      </trkpt>
      <trkpt lat="40.69183" lon="-2.21058">
        <time>2021-06-19T11:13:41+0000</time>
      </trkpt>
      <trkpt lat="40.69176" lon="-2.2103300000000004">
        <time>2021-06-19T11:13:42+0000</time>
      </trkpt>
      <trkpt lat="40.69169" lon="-2.21008">
        <time>2021-06-19T11:13:43+0000</time>
      </trkpt>
      <trkpt lat="40.69162" lon="-2.2098400000000002">
        <time>2021-06-19T11:13:44+0000</time>
      </trkpt>
      <trkpt lat="40.69155000000001" lon="-2.2096">
        <time>2021-06-19T11:13:45+0000</time>
      </trkpt>
      <trkpt lat="40.69149" lon="-2.20935">
        <time>2021-06-19T11:13:46+0000</time>
      </trkpt>
      <trkpt lat="40.691410000000005" lon="-2.2091000000000003">
        <time>2021-06-19T11:13:47+0000</time>
      </trkpt>
      <trkpt lat="40.691340000000004" lon="-2.20885">
        <time>2021-06-19T11:13:48+0000</time>
      </trkpt>
      <trkpt lat="40.69127" lon="-2.20861">
        <time>2021-06-19T11:13:49+0000</time>
      </trkpt>
      <trkpt lat="40.6912" lon="-2.2083600000000003">
        <time>2021-06-19T11:13:50+0000</time>
      </trkpt>
      <trkpt lat="40.691120000000005" lon="-2.20811">
        <time>2021-06-19T11:13:51+0000</time>
      </trkpt>
      <trkpt lat="40.691050000000004" lon="-2.20786">
        <time>2021-06-19T11:13:52+0000</time>
      </trkpt>
      <trkpt lat="40.690990000000006" lon="-2.2076000000000002">
        <time>2021-06-19T11:13:53+0000</time>
      </trkpt>
      <trkpt lat="40.690920000000006" lon="-2.20732">
        <time>2021-06-19T11:13:54+0000</time>
      </trkpt>
      <trkpt lat="40.69086" lon="-2.20704">
        <time>2021-06-19T11:13:55+0000</time>
      </trkpt>
      <trkpt lat="40.69082" lon="-2.20675">
        <time>2021-06-19T11:13:56+0000</time>
      </trkpt>
      <trkpt lat="40.690780000000004" lon="-2.2064700000000004">
        <time>2021-06-19T11:13:57+0000</time>
      </trkpt>
      <trkpt lat="40.69075" lon="-2.2061900000000003">
        <time>2021-06-19T11:13:58+0000</time>
      </trkpt>
      <trkpt lat="40.690720000000006" lon="-2.2059100000000003">
        <time>2021-06-19T11:13:59+0000</time>
      </trkpt>
      <trkpt lat="40.690690000000004" lon="-2.20563">
        <time>2021-06-19T11:14:00+0000</time>
      </trkpt>
      <trkpt lat="40.690670000000004" lon="-2.20534">
        <time>2021-06-19T11:14:01+0000</time>
      </trkpt>
      <trkpt lat="40.69064" lon="-2.2050500000000004">
        <time>2021-06-19T11:14:02+0000</time>
      </trkpt>
      <trkpt lat="40.69062" lon="-2.2047700000000003">
        <time>2021-06-19T11:14:03+0000</time>
      </trkpt>
      <trkpt lat="40.69061000000001" lon="-2.20448">
        <time>2021-06-19T11:14:04+0000</time>
      </trkpt>
      <trkpt lat="40.69061000000001" lon="-2.20419">
        <time>2021-06-19T11:14:05+0000</time>
      </trkpt>
      <trkpt lat="40.690630000000006" lon="-2.2038900000000003">
        <time>2021-06-19T11:14:06+0000</time>
      </trkpt>
      <trkpt lat="40.690650000000005" lon="-2.20359">
        <time>2021-06-19T11:14:07+0000</time>
      </trkpt>
      <trkpt lat="40.69068" lon="-2.2033">
        <time>2021-06-19T11:14:08+0000</time>
      </trkpt>
      <trkpt lat="40.69070000000001" lon="-2.2030000000000003">
        <time>2021-06-19T11:14:09+0000</time>
      </trkpt>
      <trkpt lat="40.69073" lon="-2.2027">
        <time>2021-06-19T11:14:10+0000</time>
      </trkpt>
      <trkpt lat="40.69077" lon="-2.2024000000000004">
        <time>2021-06-19T11:14:11+0000</time>
      </trkpt>
      <trkpt lat="40.690810000000006" lon="-2.20209">
        <time>2021-06-19T11:14:12+0000</time>
      </trkpt>
      <trkpt lat="40.69086" lon="-2.2017900000000004">
        <time>2021-06-19T11:14:13+0000</time>
      </trkpt>
      <trkpt lat="40.690900000000006" lon="-2.20148">
        <time>2021-06-19T11:14:14+0000</time>
      </trkpt>
      <trkpt lat="40.69095" lon="-2.2011800000000004">
        <time>2021-06-19T11:14:15+0000</time>
      </trkpt>
      <trkpt lat="40.691" lon="-2.20087">
        <time>2021-06-19T11:14:16+0000</time>
      </trkpt>
      <trkpt lat="40.69104" lon="-2.2005600000000003">
        <time>2021-06-19T11:14:17+0000</time>
      </trkpt>
      <trkpt lat="40.69109" lon="-2.20025">
        <time>2021-06-19T11:14:18+0000</time>
      </trkpt>
      <trkpt lat="40.69113" lon="-2.1999500000000003">
        <time>2021-06-19T11:14:19+0000</time>
      </trkpt>
      <trkpt lat="40.69116" lon="-2.19965">
        <time>2021-06-19T11:14:20+0000</time>
      </trkpt>
      <trkpt lat="40.69118" lon="-2.1993500000000004">
        <time>2021-06-19T11:14:21+0000</time>
      </trkpt>
      <trkpt lat="40.691190000000006" lon="-2.1990600000000002">
        <time>2021-06-19T11:14:22+0000</time>
      </trkpt>
      <trkpt lat="40.6912" lon="-2.19877">
        <time>2021-06-19T11:14:23+0000</time>
      </trkpt>
      <trkpt lat="40.691210000000005" lon="-2.1985">
        <time>2021-06-19T11:14:24+0000</time>
      </trkpt>
      <trkpt lat="40.691210000000005" lon="-2.19824">
        <time>2021-06-19T11:14:25+0000</time>
      </trkpt>
      <trkpt lat="40.69122" lon="-2.1979900000000003">
        <time>2021-06-19T11:14:26+0000</time>
      </trkpt>
      <trkpt lat="40.69126000000001" lon="-2.19775">
        <time>2021-06-19T11:14:27+0000</time>
      </trkpt>
      <trkpt lat="40.69126000000001" lon="-2.19753">
        <time>2021-06-19T11:14:28+0000</time>
      </trkpt>
      <trkpt lat="40.691250000000004" lon="-2.1973100000000003">
        <time>2021-06-19T11:14:29+0000</time>
      </trkpt>
      <trkpt lat="40.69124" lon="-2.1971000000000003">
        <time>2021-06-19T11:14:30+0000</time>
      </trkpt>
      <trkpt lat="40.691230000000004" lon="-2.19688">
        <time>2021-06-19T11:14:31+0000</time>
      </trkpt>
      <trkpt lat="40.69122" lon="-2.19666">
        <time>2021-06-19T11:14:32+0000</time>
      </trkpt>
      <trkpt lat="40.69118" lon="-2.1964400000000004">
        <time>2021-06-19T11:14:33+0000</time>
      </trkpt>
      <trkpt lat="40.69116" lon="-2.19624">
        <time>2021-06-19T11:14:34+0000</time>
      </trkpt>
      <trkpt lat="40.69115" lon="-2.19604">
        <time>2021-06-19T11:14:35+0000</time>
      </trkpt>
      <trkpt lat="40.691140000000004" lon="-2.19586">
        <time>2021-06-19T11:14:36+0000</time>
      </trkpt>
      <trkpt lat="40.691120000000005" lon="-2.1956800000000003">
        <time>2021-06-19T11:14:37+0000</time>
      </trkpt>
      <trkpt lat="40.69111" lon="-2.19551">
        <time>2021-06-19T11:14:38+0000</time>
      </trkpt>
      <trkpt lat="40.69109" lon="-2.1953500000000004">
        <time>2021-06-19T11:14:39+0000</time>
      </trkpt>
      <trkpt lat="40.69107" lon="-2.1952000000000003">
        <time>2021-06-19T11:14:40+0000</time>
      </trkpt>
      <trkpt lat="40.691050000000004" lon="-2.19504">
        <time>2021-06-19T11:14:41+0000</time>
      </trkpt>
      <trkpt lat="40.69104" lon="-2.1948800000000004">
        <time>2021-06-19T11:14:42+0000</time>
      </trkpt>
      <trkpt lat="40.691030000000005" lon="-2.19471">
        <time>2021-06-19T11:14:43+0000</time>
      </trkpt>
      <trkpt lat="40.69102" lon="-2.1945400000000004">
        <time>2021-06-19T11:14:44+0000</time>
      </trkpt>
      <trkpt lat="40.691" lon="-2.19436">
        <time>2021-06-19T11:14:45+0000</time>
      </trkpt>
      <trkpt lat="40.690990000000006" lon="-2.19417">
        <time>2021-06-19T11:14:46+0000</time>
      </trkpt>
      <trkpt lat="40.69098" lon="-2.1939800000000003">
        <time>2021-06-19T11:14:47+0000</time>
      </trkpt>
      <trkpt lat="40.690960000000004" lon="-2.1937900000000004">
        <time>2021-06-19T11:14:48+0000</time>
      </trkpt>
      <trkpt lat="40.69095" lon="-2.1935900000000004">
        <time>2021-06-19T11:14:49+0000</time>
      </trkpt>
      <trkpt lat="40.69093" lon="-2.1933800000000003">
        <time>2021-06-19T11:14:50+0000</time>
      </trkpt>
      <trkpt lat="40.690920000000006" lon="-2.19316">
        <time>2021-06-19T11:14:51+0000</time>
      </trkpt>
      <trkpt lat="40.690900000000006" lon="-2.19294">
        <time>2021-06-19T11:14:52+0000</time>
      </trkpt>
      <trkpt lat="40.69089" lon="-2.1927100000000004">
        <time>2021-06-19T11:14:53+0000</time>
      </trkpt>
      <trkpt lat="40.690870000000004" lon="-2.19247">
        <time>2021-06-19T11:14:54+0000</time>
      </trkpt>
      <trkpt lat="40.690850000000005" lon="-2.1922300000000003">
        <time>2021-06-19T11:14:55+0000</time>
      </trkpt>
      <trkpt lat="40.69082" lon="-2.19198">
        <time>2021-06-19T11:14:56+0000</time>
      </trkpt>
      <trkpt lat="40.690780000000004" lon="-2.19173">
        <time>2021-06-19T11:14:57+0000</time>
      </trkpt>
      <trkpt lat="40.690740000000005" lon="-2.1914700000000003">
        <time>2021-06-19T11:14:58+0000</time>
      </trkpt>
      <trkpt lat="40.690690000000004" lon="-2.1912100000000003">
        <time>2021-06-19T11:14:59+0000</time>
      </trkpt>
      <trkpt lat="40.69064" lon="-2.1909500000000004">
        <time>2021-06-19T11:15:00+0000</time>
      </trkpt>
      <trkpt lat="40.69059" lon="-2.19068">
        <time>2021-06-19T11:15:01+0000</time>
      </trkpt>
      <trkpt lat="40.69053" lon="-2.19043">
        <time>2021-06-19T11:15:02+0000</time>
      </trkpt>
      <trkpt lat="40.69046" lon="-2.1901800000000002">
        <time>2021-06-19T11:15:03+0000</time>
      </trkpt>
      <trkpt lat="40.690400000000004" lon="-2.1899200000000003">
        <time>2021-06-19T11:15:04+0000</time>
      </trkpt>
      <trkpt lat="40.690340000000006" lon="-2.18967">
        <time>2021-06-19T11:15:05+0000</time>
      </trkpt>
      <trkpt lat="40.69028" lon="-2.18942">
        <time>2021-06-19T11:15:06+0000</time>
      </trkpt>
      <trkpt lat="40.690200000000004" lon="-2.1891800000000003">
        <time>2021-06-19T11:15:07+0000</time>
      </trkpt>
      <trkpt lat="40.69013" lon="-2.18895">
        <time>2021-06-19T11:15:08+0000</time>
      </trkpt>
      <trkpt lat="40.69005000000001" lon="-2.1887100000000004">
        <time>2021-06-19T11:15:09+0000</time>
      </trkpt>
      <trkpt lat="40.68997" lon="-2.18847">
        <time>2021-06-19T11:15:10+0000</time>
      </trkpt>
      <trkpt lat="40.689890000000005" lon="-2.1882300000000003">
        <time>2021-06-19T11:15:11+0000</time>
      </trkpt>
      <trkpt lat="40.68981" lon="-2.188">
        <time>2021-06-19T11:15:12+0000</time>
      </trkpt>
      <trkpt lat="40.68972" lon="-2.18777">
        <time>2021-06-19T11:15:13+0000</time>
      </trkpt>
      <trkpt lat="40.689640000000004" lon="-2.1875500000000003">
        <time>2021-06-19T11:15:14+0000</time>
      </trkpt>
      <trkpt lat="40.68954" lon="-2.18733">
        <time>2021-06-19T11:15:15+0000</time>
      </trkpt>
      <trkpt lat="40.68945" lon="-2.1871300000000002">
        <time>2021-06-19T11:15:16+0000</time>
      </trkpt>
      <trkpt lat="40.689350000000005" lon="-2.1869300000000003">
        <time>2021-06-19T11:15:17+0000</time>
      </trkpt>
      <trkpt lat="40.689240000000005" lon="-2.1867400000000004">
        <time>2021-06-19T11:15:18+0000</time>
      </trkpt>
      <trkpt lat="40.68914" lon="-2.1865400000000004">
        <time>2021-06-19T11:15:19+0000</time>
      </trkpt>
      <trkpt lat="40.68903" lon="-2.18635">
        <time>2021-06-19T11:15:20+0000</time>
      </trkpt>
      <trkpt lat="40.688930000000006" lon="-2.18615">
        <time>2021-06-19T11:15:21+0000</time>
      </trkpt>
      <trkpt lat="40.68882000000001" lon="-2.18595">
        <time>2021-06-19T11:15:22+0000</time>
      </trkpt>
      <trkpt lat="40.68871" lon="-2.18575">
        <time>2021-06-19T11:15:23+0000</time>
      </trkpt>
      <trkpt lat="40.688610000000004" lon="-2.18555">
        <time>2021-06-19T11:15:24+0000</time>
      </trkpt>
      <trkpt lat="40.68851" lon="-2.18535">
        <time>2021-06-19T11:15:25+0000</time>
      </trkpt>
      <trkpt lat="40.68842" lon="-2.18516">
        <time>2021-06-19T11:15:26+0000</time>
      </trkpt>
      <trkpt lat="40.68833" lon="-2.18499">
        <time>2021-06-19T11:15:27+0000</time>
      </trkpt>
      <trkpt lat="40.68826000000001" lon="-2.18482">
        <time>2021-06-19T11:15:28+0000</time>
      </trkpt>
      <trkpt lat="40.68817000000001" lon="-2.18465">
        <time>2021-06-19T11:15:29+0000</time>
      </trkpt>
      <trkpt lat="40.68809" lon="-2.18447">
        <time>2021-06-19T11:15:30+0000</time>
      </trkpt>
      <trkpt lat="40.68802" lon="-2.1842900000000003">
        <time>2021-06-19T11:15:31+0000</time>
      </trkpt>
      <trkpt lat="40.687940000000005" lon="-2.1840900000000003">
        <time>2021-06-19T11:15:32+0000</time>
      </trkpt>
      <trkpt lat="40.687870000000004" lon="-2.18387">
        <time>2021-06-19T11:15:33+0000</time>
      </trkpt>
      <trkpt lat="40.6878" lon="-2.18365">
        <time>2021-06-19T11:15:34+0000</time>
      </trkpt>
      <trkpt lat="40.68775" lon="-2.18343">
        <time>2021-06-19T11:15:35+0000</time>
      </trkpt>
      <trkpt lat="40.68768" lon="-2.1832100000000003">
        <time>2021-06-19T11:15:36+0000</time>
      </trkpt>
      <trkpt lat="40.68762" lon="-2.1830000000000003">
        <time>2021-06-19T11:15:37+0000</time>
      </trkpt>
      <trkpt lat="40.68755" lon="-2.1828000000000003">
        <time>2021-06-19T11:15:38+0000</time>
      </trkpt>
      <trkpt lat="40.6875" lon="-2.1826100000000004">
        <time>2021-06-19T11:15:39+0000</time>
      </trkpt>
      <trkpt lat="40.687450000000005" lon="-2.18243">
        <time>2021-06-19T11:15:40+0000</time>
      </trkpt>
      <trkpt lat="40.687400000000004" lon="-2.1822500000000002">
        <time>2021-06-19T11:15:41+0000</time>
      </trkpt>
      <trkpt lat="40.68737" lon="-2.1820700000000004">
        <time>2021-06-19T11:15:42+0000</time>
      </trkpt>
      <trkpt lat="40.687310000000004" lon="-2.1819">
        <time>2021-06-19T11:15:43+0000</time>
      </trkpt>
      <trkpt lat="40.68726" lon="-2.1817200000000003">
        <time>2021-06-19T11:15:44+0000</time>
      </trkpt>
      <trkpt lat="40.687200000000004" lon="-2.18154">
        <time>2021-06-19T11:15:45+0000</time>
      </trkpt>
      <trkpt lat="40.68713" lon="-2.18135">
        <time>2021-06-19T11:15:46+0000</time>
      </trkpt>
      <trkpt lat="40.687070000000006" lon="-2.18116">
        <time>2021-06-19T11:15:47+0000</time>
      </trkpt>
      <trkpt lat="40.687000000000005" lon="-2.1809600000000002">
        <time>2021-06-19T11:15:48+0000</time>
      </trkpt>
      <trkpt lat="40.68692" lon="-2.1807600000000003">
        <time>2021-06-19T11:15:49+0000</time>
      </trkpt>
      <trkpt lat="40.68685000000001" lon="-2.18055">
        <time>2021-06-19T11:15:50+0000</time>
      </trkpt>
      <trkpt lat="40.68676000000001" lon="-2.18034">
        <time>2021-06-19T11:15:51+0000</time>
      </trkpt>
      <trkpt lat="40.68668" lon="-2.18014">
        <time>2021-06-19T11:15:52+0000</time>
      </trkpt>
      <trkpt lat="40.686600000000006" lon="-2.17994">
        <time>2021-06-19T11:15:53+0000</time>
      </trkpt>
      <trkpt lat="40.68654" lon="-2.1797500000000003">
        <time>2021-06-19T11:15:54+0000</time>
      </trkpt>
      <trkpt lat="40.68647" lon="-2.17957">
        <time>2021-06-19T11:15:55+0000</time>
      </trkpt>
      <trkpt lat="40.68641" lon="-2.17939">
        <time>2021-06-19T11:15:56+0000</time>
      </trkpt>
      <trkpt lat="40.686350000000004" lon="-2.1792100000000003">
        <time>2021-06-19T11:15:57+0000</time>
      </trkpt>
      <trkpt lat="40.68629000000001" lon="-2.17903">
        <time>2021-06-19T11:15:58+0000</time>
      </trkpt>
      <trkpt lat="40.68623" lon="-2.17885">
        <time>2021-06-19T11:15:59+0000</time>
      </trkpt>
      <trkpt lat="40.686170000000004" lon="-2.1786600000000003">
        <time>2021-06-19T11:16:00+0000</time>
      </trkpt>
      <trkpt lat="40.6861" lon="-2.1784700000000004">
        <time>2021-06-19T11:16:01+0000</time>
      </trkpt>
      <trkpt lat="40.68603" lon="-2.1782700000000004">
        <time>2021-06-19T11:16:02+0000</time>
      </trkpt>
      <trkpt lat="40.68596" lon="-2.1780700000000004">
        <time>2021-06-19T11:16:03+0000</time>
      </trkpt>
      <trkpt lat="40.685880000000004" lon="-2.1778500000000003">
        <time>2021-06-19T11:16:04+0000</time>
      </trkpt>
      <trkpt lat="40.6858" lon="-2.17762">
        <time>2021-06-19T11:16:05+0000</time>
      </trkpt>
      <trkpt lat="40.68571" lon="-2.1773900000000004">
        <time>2021-06-19T11:16:06+0000</time>
      </trkpt>
      <trkpt lat="40.68563" lon="-2.17716">
        <time>2021-06-19T11:16:07+0000</time>
      </trkpt>
      <trkpt lat="40.685550000000006" lon="-2.17693">
        <time>2021-06-19T11:16:08+0000</time>
      </trkpt>
      <trkpt lat="40.68547" lon="-2.1767000000000003">
        <time>2021-06-19T11:16:09+0000</time>
      </trkpt>
      <trkpt lat="40.685390000000005" lon="-2.17648">
        <time>2021-06-19T11:16:10+0000</time>
      </trkpt>
      <trkpt lat="40.68531" lon="-2.17626">
        <time>2021-06-19T11:16:11+0000</time>
      </trkpt>
      <trkpt lat="40.68524" lon="-2.17604">
        <time>2021-06-19T11:16:12+0000</time>
      </trkpt>
      <trkpt lat="40.68517000000001" lon="-2.1758200000000003">
        <time>2021-06-19T11:16:13+0000</time>
      </trkpt>
      <trkpt lat="40.68509" lon="-2.1756100000000003">
        <time>2021-06-19T11:16:14+0000</time>
      </trkpt>
      <trkpt lat="40.685010000000005" lon="-2.17539">
        <time>2021-06-19T11:16:15+0000</time>
      </trkpt>
      <trkpt lat="40.68493" lon="-2.17517">
        <time>2021-06-19T11:16:16+0000</time>
      </trkpt>
      <trkpt lat="40.684850000000004" lon="-2.1749500000000004">
        <time>2021-06-19T11:16:17+0000</time>
      </trkpt>
      <trkpt lat="40.68477" lon="-2.1747300000000003">
        <time>2021-06-19T11:16:18+0000</time>
      </trkpt>
      <trkpt lat="40.68469" lon="-2.1745">
        <time>2021-06-19T11:16:19+0000</time>
      </trkpt>
      <trkpt lat="40.684610000000006" lon="-2.1742700000000004">
        <time>2021-06-19T11:16:20+0000</time>
      </trkpt>
      <trkpt lat="40.68453" lon="-2.17404">
        <time>2021-06-19T11:16:21+0000</time>
      </trkpt>
      <trkpt lat="40.684450000000005" lon="-2.17381">
        <time>2021-06-19T11:16:22+0000</time>
      </trkpt>
      <trkpt lat="40.68437" lon="-2.1735800000000003">
        <time>2021-06-19T11:16:23+0000</time>
      </trkpt>
      <trkpt lat="40.68428" lon="-2.17334">
        <time>2021-06-19T11:16:24+0000</time>
      </trkpt>
      <trkpt lat="40.684200000000004" lon="-2.1731000000000003">
        <time>2021-06-19T11:16:25+0000</time>
      </trkpt>
      <trkpt lat="40.68412" lon="-2.17286">
        <time>2021-06-19T11:16:26+0000</time>
      </trkpt>
      <trkpt lat="40.68403" lon="-2.17261">
        <time>2021-06-19T11:16:27+0000</time>
      </trkpt>
      <trkpt lat="40.683960000000006" lon="-2.1723700000000004">
        <time>2021-06-19T11:16:28+0000</time>
      </trkpt>
      <trkpt lat="40.68388" lon="-2.1721500000000002">
        <time>2021-06-19T11:16:29+0000</time>
      </trkpt>
      <trkpt lat="40.683800000000005" lon="-2.17191">
        <time>2021-06-19T11:16:30+0000</time>
      </trkpt>
      <trkpt lat="40.68372" lon="-2.17166">
        <time>2021-06-19T11:16:31+0000</time>
      </trkpt>
      <trkpt lat="40.68365" lon="-2.1714100000000003">
        <time>2021-06-19T11:16:32+0000</time>
      </trkpt>
      <trkpt lat="40.683580000000006" lon="-2.1711500000000004">
        <time>2021-06-19T11:16:33+0000</time>
      </trkpt>
      <trkpt lat="40.68352" lon="-2.17089">
        <time>2021-06-19T11:16:34+0000</time>
      </trkpt>
      <trkpt lat="40.683440000000004" lon="-2.17063">
        <time>2021-06-19T11:16:35+0000</time>
      </trkpt>
      <trkpt lat="40.68338000000001" lon="-2.17036">
        <time>2021-06-19T11:16:36+0000</time>
      </trkpt>
      <trkpt lat="40.6833" lon="-2.1701">
        <time>2021-06-19T11:16:37+0000</time>
      </trkpt>
      <trkpt lat="40.683220000000006" lon="-2.16983">
        <time>2021-06-19T11:16:38+0000</time>
      </trkpt>
      <trkpt lat="40.68312" lon="-2.16957">
        <time>2021-06-19T11:16:39+0000</time>
      </trkpt>
      <trkpt lat="40.683020000000006" lon="-2.1693100000000003">
        <time>2021-06-19T11:16:40+0000</time>
      </trkpt>
      <trkpt lat="40.682900000000004" lon="-2.16906">
        <time>2021-06-19T11:16:41+0000</time>
      </trkpt>
      <trkpt lat="40.682790000000004" lon="-2.16881">
        <time>2021-06-19T11:16:42+0000</time>
      </trkpt>
      <trkpt lat="40.68267" lon="-2.16855">
        <time>2021-06-19T11:16:43+0000</time>
      </trkpt>
      <trkpt lat="40.68256" lon="-2.1682900000000003">
        <time>2021-06-19T11:16:44+0000</time>
      </trkpt>
      <trkpt lat="40.68245" lon="-2.1680300000000003">
        <time>2021-06-19T11:16:45+0000</time>
      </trkpt>
      <trkpt lat="40.68233" lon="-2.16777">
        <time>2021-06-19T11:16:46+0000</time>
      </trkpt>
      <trkpt lat="40.68222" lon="-2.16752">
        <time>2021-06-19T11:16:47+0000</time>
      </trkpt>
      <trkpt lat="40.68211" lon="-2.16725">
        <time>2021-06-19T11:16:48+0000</time>
      </trkpt>
      <trkpt lat="40.681990000000006" lon="-2.16699">
        <time>2021-06-19T11:16:49+0000</time>
      </trkpt>
      <trkpt lat="40.68188000000001" lon="-2.1667400000000003">
        <time>2021-06-19T11:16:50+0000</time>
      </trkpt>
      <trkpt lat="40.68177" lon="-2.16648">
        <time>2021-06-19T11:16:51+0000</time>
      </trkpt>
      <trkpt lat="40.68166" lon="-2.16622">
        <time>2021-06-19T11:16:52+0000</time>
      </trkpt>
      <trkpt lat="40.681560000000005" lon="-2.16597">
        <time>2021-06-19T11:16:53+0000</time>
      </trkpt>
      <trkpt lat="40.681450000000005" lon="-2.1657300000000004">
        <time>2021-06-19T11:16:54+0000</time>
      </trkpt>
      <trkpt lat="40.681360000000005" lon="-2.1655">
        <time>2021-06-19T11:16:55+0000</time>
      </trkpt>
      <trkpt lat="40.68126" lon="-2.16529">
        <time>2021-06-19T11:16:56+0000</time>
      </trkpt>
      <trkpt lat="40.68117" lon="-2.16507">
        <time>2021-06-19T11:16:57+0000</time>
      </trkpt>
      <trkpt lat="40.681070000000005" lon="-2.16486">
        <time>2021-06-19T11:16:58+0000</time>
      </trkpt>
      <trkpt lat="40.680980000000005" lon="-2.1646400000000003">
        <time>2021-06-19T11:16:59+0000</time>
      </trkpt>
      <trkpt lat="40.68088" lon="-2.1644200000000002">
        <time>2021-06-19T11:17:00+0000</time>
      </trkpt>
      <trkpt lat="40.680800000000005" lon="-2.1642200000000003">
        <time>2021-06-19T11:17:01+0000</time>
      </trkpt>
      <trkpt lat="40.680710000000005" lon="-2.1640200000000003">
        <time>2021-06-19T11:17:02+0000</time>
      </trkpt>
      <trkpt lat="40.68063" lon="-2.1638300000000004">
        <time>2021-06-19T11:17:03+0000</time>
      </trkpt>
      <trkpt lat="40.68056" lon="-2.16365">
        <time>2021-06-19T11:17:04+0000</time>
      </trkpt>
      <trkpt lat="40.680490000000006" lon="-2.1634700000000002">
        <time>2021-06-19T11:17:05+0000</time>
      </trkpt>
      <trkpt lat="40.680420000000005" lon="-2.1632900000000004">
        <time>2021-06-19T11:17:06+0000</time>
      </trkpt>
      <trkpt lat="40.68036" lon="-2.1631">
        <time>2021-06-19T11:17:07+0000</time>
      </trkpt>
      <trkpt lat="40.68029000000001" lon="-2.16291">
        <time>2021-06-19T11:17:08+0000</time>
      </trkpt>
      <trkpt lat="40.68023" lon="-2.16271">
        <time>2021-06-19T11:17:09+0000</time>
      </trkpt>
      <trkpt lat="40.68016" lon="-2.1625">
        <time>2021-06-19T11:17:10+0000</time>
      </trkpt>
      <trkpt lat="40.68009" lon="-2.16228">
        <time>2021-06-19T11:17:11+0000</time>
      </trkpt>
      <trkpt lat="40.68003" lon="-2.1620600000000003">
        <time>2021-06-19T11:17:12+0000</time>
      </trkpt>
      <trkpt lat="40.67998" lon="-2.16183">
        <time>2021-06-19T11:17:13+0000</time>
      </trkpt>
      <trkpt lat="40.67992" lon="-2.1616">
        <time>2021-06-19T11:17:14+0000</time>
      </trkpt>
      <trkpt lat="40.679880000000004" lon="-2.1613700000000002">
        <time>2021-06-19T11:17:15+0000</time>
      </trkpt>
      <trkpt lat="40.67982000000001" lon="-2.1611200000000004">
        <time>2021-06-19T11:17:16+0000</time>
      </trkpt>
      <trkpt lat="40.679770000000005" lon="-2.16087">
        <time>2021-06-19T11:17:17+0000</time>
      </trkpt>
      <trkpt lat="40.67972" lon="-2.16061">
        <time>2021-06-19T11:17:18+0000</time>
      </trkpt>
      <trkpt lat="40.67967" lon="-2.1603600000000003">
        <time>2021-06-19T11:17:19+0000</time>
      </trkpt>
      <trkpt lat="40.67962" lon="-2.1601000000000004">
        <time>2021-06-19T11:17:20+0000</time>
      </trkpt>
      <trkpt lat="40.67956" lon="-2.15985">
        <time>2021-06-19T11:17:21+0000</time>
      </trkpt>
      <trkpt lat="40.67951" lon="-2.1596100000000003">
        <time>2021-06-19T11:17:22+0000</time>
      </trkpt>
      <trkpt lat="40.679460000000006" lon="-2.1593600000000004">
        <time>2021-06-19T11:17:23+0000</time>
      </trkpt>
      <trkpt lat="40.679410000000004" lon="-2.15911">
        <time>2021-06-19T11:17:24+0000</time>
      </trkpt>
      <trkpt lat="40.679370000000006" lon="-2.1588600000000002">
        <time>2021-06-19T11:17:25+0000</time>
      </trkpt>
      <trkpt lat="40.679320000000004" lon="-2.1586100000000004">
        <time>2021-06-19T11:17:26+0000</time>
      </trkpt>
      <trkpt lat="40.679260000000006" lon="-2.15837">
        <time>2021-06-19T11:17:27+0000</time>
      </trkpt>
      <trkpt lat="40.679210000000005" lon="-2.1581200000000003">
        <time>2021-06-19T11:17:28+0000</time>
      </trkpt>
      <trkpt lat="40.67916" lon="-2.15788">
        <time>2021-06-19T11:17:29+0000</time>
      </trkpt>
      <trkpt lat="40.67911" lon="-2.1576400000000002">
        <time>2021-06-19T11:17:30+0000</time>
      </trkpt>
      <trkpt lat="40.67906000000001" lon="-2.1574">
        <time>2021-06-19T11:17:31+0000</time>
      </trkpt>
      <trkpt lat="40.679010000000005" lon="-2.15716">
        <time>2021-06-19T11:17:32+0000</time>
      </trkpt>
      <trkpt lat="40.67897000000001" lon="-2.1569200000000004">
        <time>2021-06-19T11:17:33+0000</time>
      </trkpt>
      <trkpt lat="40.678920000000005" lon="-2.15669">
        <time>2021-06-19T11:17:34+0000</time>
      </trkpt>
      <trkpt lat="40.67887" lon="-2.15647">
        <time>2021-06-19T11:17:35+0000</time>
      </trkpt>
      <trkpt lat="40.678830000000005" lon="-2.1562400000000004">
        <time>2021-06-19T11:17:36+0000</time>
      </trkpt>
      <trkpt lat="40.67878" lon="-2.1560300000000003">
        <time>2021-06-19T11:17:37+0000</time>
      </trkpt>
      <trkpt lat="40.678740000000005" lon="-2.1558200000000003">
        <time>2021-06-19T11:17:38+0000</time>
      </trkpt>
      <trkpt lat="40.67868" lon="-2.1556300000000004">
        <time>2021-06-19T11:17:39+0000</time>
      </trkpt>
      <trkpt lat="40.67864" lon="-2.15543">
        <time>2021-06-19T11:17:40+0000</time>
      </trkpt>
      <trkpt lat="40.6786" lon="-2.15524">
        <time>2021-06-19T11:17:41+0000</time>
      </trkpt>
      <trkpt lat="40.678560000000004" lon="-2.15505">
        <time>2021-06-19T11:17:42+0000</time>
      </trkpt>
      <trkpt lat="40.678520000000006" lon="-2.15486">
        <time>2021-06-19T11:17:43+0000</time>
      </trkpt>
      <trkpt lat="40.67848" lon="-2.1546700000000003">
        <time>2021-06-19T11:17:44+0000</time>
      </trkpt>
      <trkpt lat="40.67844" lon="-2.1544800000000004">
        <time>2021-06-19T11:17:45+0000</time>
      </trkpt>
      <trkpt lat="40.6784" lon="-2.15429">
        <time>2021-06-19T11:17:46+0000</time>
      </trkpt>
      <trkpt lat="40.678360000000005" lon="-2.15409">
        <time>2021-06-19T11:17:47+0000</time>
      </trkpt>
      <trkpt lat="40.67833" lon="-2.1539">
        <time>2021-06-19T11:17:48+0000</time>
      </trkpt>
      <trkpt lat="40.678290000000004" lon="-2.15369">
        <time>2021-06-19T11:17:49+0000</time>
      </trkpt>
      <trkpt lat="40.678250000000006" lon="-2.15349">
        <time>2021-06-19T11:17:50+0000</time>
      </trkpt>
      <trkpt lat="40.67822" lon="-2.15327">
        <time>2021-06-19T11:17:51+0000</time>
      </trkpt>
      <trkpt lat="40.67817" lon="-2.1530500000000004">
        <time>2021-06-19T11:17:52+0000</time>
      </trkpt>
      <trkpt lat="40.678140000000006" lon="-2.15282">
        <time>2021-06-19T11:17:53+0000</time>
      </trkpt>
      <trkpt lat="40.67812" lon="-2.15259">
        <time>2021-06-19T11:17:54+0000</time>
      </trkpt>
      <trkpt lat="40.678090000000005" lon="-2.1523600000000003">
        <time>2021-06-19T11:17:55+0000</time>
      </trkpt>
      <trkpt lat="40.67804" lon="-2.15212">
        <time>2021-06-19T11:17:56+0000</time>
      </trkpt>
      <trkpt lat="40.678020000000004" lon="-2.15187">
        <time>2021-06-19T11:17:57+0000</time>
      </trkpt>
      <trkpt lat="40.677980000000005" lon="-2.1516100000000002">
        <time>2021-06-19T11:17:58+0000</time>
      </trkpt>
      <trkpt lat="40.67794000000001" lon="-2.1513400000000003">
        <time>2021-06-19T11:17:59+0000</time>
      </trkpt>
      <trkpt lat="40.6779" lon="-2.1510700000000003">
        <time>2021-06-19T11:18:00+0000</time>
      </trkpt>
      <trkpt lat="40.677870000000006" lon="-2.1508100000000003">
        <time>2021-06-19T11:18:01+0000</time>
      </trkpt>
      <trkpt lat="40.67784" lon="-2.15055">
        <time>2021-06-19T11:18:02+0000</time>
      </trkpt>
      <trkpt lat="40.67781" lon="-2.1503">
        <time>2021-06-19T11:18:03+0000</time>
      </trkpt>
      <trkpt lat="40.677780000000006" lon="-2.1500600000000003">
        <time>2021-06-19T11:18:04+0000</time>
      </trkpt>
      <trkpt lat="40.67775" lon="-2.14983">
        <time>2021-06-19T11:18:05+0000</time>
      </trkpt>
      <trkpt lat="40.677730000000004" lon="-2.14961">
        <time>2021-06-19T11:18:06+0000</time>
      </trkpt>
      <trkpt lat="40.677690000000005" lon="-2.1493900000000004">
        <time>2021-06-19T11:18:07+0000</time>
      </trkpt>
      <trkpt lat="40.67766" lon="-2.1491800000000003">
        <time>2021-06-19T11:18:08+0000</time>
      </trkpt>
      <trkpt lat="40.67763" lon="-2.1489700000000003">
        <time>2021-06-19T11:18:09+0000</time>
      </trkpt>
      <trkpt lat="40.67759" lon="-2.14875">
        <time>2021-06-19T11:18:10+0000</time>
      </trkpt>
      <trkpt lat="40.67756000000001" lon="-2.14853">
        <time>2021-06-19T11:18:11+0000</time>
      </trkpt>
      <trkpt lat="40.67752" lon="-2.1483000000000003">
        <time>2021-06-19T11:18:12+0000</time>
      </trkpt>
      <trkpt lat="40.67748" lon="-2.14808">
        <time>2021-06-19T11:18:13+0000</time>
      </trkpt>
      <trkpt lat="40.677440000000004" lon="-2.14784">
        <time>2021-06-19T11:18:14+0000</time>
      </trkpt>
      <trkpt lat="40.677400000000006" lon="-2.1476">
        <time>2021-06-19T11:18:15+0000</time>
      </trkpt>
      <trkpt lat="40.677350000000004" lon="-2.1473600000000004">
        <time>2021-06-19T11:18:16+0000</time>
      </trkpt>
      <trkpt lat="40.677310000000006" lon="-2.14712">
        <time>2021-06-19T11:18:17+0000</time>
      </trkpt>
      <trkpt lat="40.67727" lon="-2.1468700000000003">
        <time>2021-06-19T11:18:18+0000</time>
      </trkpt>
      <trkpt lat="40.67723" lon="-2.14662">
        <time>2021-06-19T11:18:19+0000</time>
      </trkpt>
      <trkpt lat="40.67718" lon="-2.14637">
        <time>2021-06-19T11:18:20+0000</time>
      </trkpt>
      <trkpt lat="40.67714" lon="-2.1461200000000002">
        <time>2021-06-19T11:18:21+0000</time>
      </trkpt>
      <trkpt lat="40.6771" lon="-2.14588">
        <time>2021-06-19T11:18:22+0000</time>
      </trkpt>
      <trkpt lat="40.67705" lon="-2.1456500000000003">
        <time>2021-06-19T11:18:23+0000</time>
      </trkpt>
      <trkpt lat="40.67701" lon="-2.14542">
        <time>2021-06-19T11:18:24+0000</time>
      </trkpt>
      <trkpt lat="40.676950000000005" lon="-2.1452">
        <time>2021-06-19T11:18:25+0000</time>
      </trkpt>
      <trkpt lat="40.676880000000004" lon="-2.1449700000000003">
        <time>2021-06-19T11:18:26+0000</time>
      </trkpt>
      <trkpt lat="40.676820000000006" lon="-2.14473">
        <time>2021-06-19T11:18:27+0000</time>
      </trkpt>
      <trkpt lat="40.67674" lon="-2.1445000000000003">
        <time>2021-06-19T11:18:28+0000</time>
      </trkpt>
      <trkpt lat="40.67665" lon="-2.14426">
        <time>2021-06-19T11:18:29+0000</time>
      </trkpt>
      <trkpt lat="40.67656" lon="-2.14401">
        <time>2021-06-19T11:18:30+0000</time>
      </trkpt>
      <trkpt lat="40.676460000000006" lon="-2.14377">
        <time>2021-06-19T11:18:31+0000</time>
      </trkpt>
      <trkpt lat="40.67636" lon="-2.14352">
        <time>2021-06-19T11:18:32+0000</time>
      </trkpt>
      <trkpt lat="40.67624" lon="-2.14326">
        <time>2021-06-19T11:18:33+0000</time>
      </trkpt>
      <trkpt lat="40.67613" lon="-2.1430100000000003">
        <time>2021-06-19T11:18:34+0000</time>
      </trkpt>
      <trkpt lat="40.676" lon="-2.14276">
        <time>2021-06-19T11:18:35+0000</time>
      </trkpt>
      <trkpt lat="40.67588000000001" lon="-2.14251">
        <time>2021-06-19T11:18:36+0000</time>
      </trkpt>
      <trkpt lat="40.675740000000005" lon="-2.1422700000000003">
        <time>2021-06-19T11:18:37+0000</time>
      </trkpt>
      <trkpt lat="40.675610000000006" lon="-2.14203">
        <time>2021-06-19T11:18:38+0000</time>
      </trkpt>
      <trkpt lat="40.67546" lon="-2.1417900000000003">
        <time>2021-06-19T11:18:39+0000</time>
      </trkpt>
      <trkpt lat="40.675320000000006" lon="-2.14156">
        <time>2021-06-19T11:18:40+0000</time>
      </trkpt>
      <trkpt lat="40.675160000000005" lon="-2.14133">
        <time>2021-06-19T11:18:41+0000</time>
      </trkpt>
      <trkpt lat="40.67501" lon="-2.1411100000000003">
        <time>2021-06-19T11:18:42+0000</time>
      </trkpt>
      <trkpt lat="40.67486" lon="-2.1409000000000002">
        <time>2021-06-19T11:18:43+0000</time>
      </trkpt>
      <trkpt lat="40.674710000000005" lon="-2.14069">
        <time>2021-06-19T11:18:44+0000</time>
      </trkpt>
      <trkpt lat="40.67457" lon="-2.14048">
        <time>2021-06-19T11:18:45+0000</time>
      </trkpt>
      <trkpt lat="40.67443" lon="-2.14028">
        <time>2021-06-19T11:18:46+0000</time>
      </trkpt>
      <trkpt lat="40.6743" lon="-2.14008">
        <time>2021-06-19T11:18:47+0000</time>
      </trkpt>
      <trkpt lat="40.67416" lon="-2.1398800000000002">
        <time>2021-06-19T11:18:48+0000</time>
      </trkpt>
      <trkpt lat="40.674040000000005" lon="-2.1396800000000002">
        <time>2021-06-19T11:18:49+0000</time>
      </trkpt>
      <trkpt lat="40.67391000000001" lon="-2.1394800000000003">
        <time>2021-06-19T11:18:50+0000</time>
      </trkpt>
      <trkpt lat="40.67378" lon="-2.1392700000000002">
        <time>2021-06-19T11:18:51+0000</time>
      </trkpt>
      <trkpt lat="40.67365" lon="-2.13905">
        <time>2021-06-19T11:18:52+0000</time>
      </trkpt>
      <trkpt lat="40.67353000000001" lon="-2.13884">
        <time>2021-06-19T11:18:53+0000</time>
      </trkpt>
      <trkpt lat="40.6734" lon="-2.13863">
        <time>2021-06-19T11:18:54+0000</time>
      </trkpt>
      <trkpt lat="40.673280000000005" lon="-2.13843">
        <time>2021-06-19T11:18:55+0000</time>
      </trkpt>
      <trkpt lat="40.673170000000006" lon="-2.13823">
        <time>2021-06-19T11:18:56+0000</time>
      </trkpt>
      <trkpt lat="40.67307" lon="-2.13803">
        <time>2021-06-19T11:18:57+0000</time>
      </trkpt>
      <trkpt lat="40.67297000000001" lon="-2.13783">
        <time>2021-06-19T11:18:58+0000</time>
      </trkpt>
      <trkpt lat="40.67287" lon="-2.1376500000000003">
        <time>2021-06-19T11:18:59+0000</time>
      </trkpt>
      <trkpt lat="40.67277" lon="-2.13747">
        <time>2021-06-19T11:19:00+0000</time>
      </trkpt>
      <trkpt lat="40.67268000000001" lon="-2.13729">
        <time>2021-06-19T11:19:01+0000</time>
      </trkpt>
      <trkpt lat="40.67259000000001" lon="-2.13713">
        <time>2021-06-19T11:19:02+0000</time>
      </trkpt>
      <trkpt lat="40.67251" lon="-2.13695">
        <time>2021-06-19T11:19:03+0000</time>
      </trkpt>
      <trkpt lat="40.67242" lon="-2.1367700000000003">
        <time>2021-06-19T11:19:04+0000</time>
      </trkpt>
      <trkpt lat="40.672320000000006" lon="-2.1365800000000004">
        <time>2021-06-19T11:19:05+0000</time>
      </trkpt>
      <trkpt lat="40.67222" lon="-2.13639">
        <time>2021-06-19T11:19:06+0000</time>
      </trkpt>
      <trkpt lat="40.67212000000001" lon="-2.1362">
        <time>2021-06-19T11:19:07+0000</time>
      </trkpt>
      <trkpt lat="40.67201" lon="-2.13599">
        <time>2021-06-19T11:19:08+0000</time>
      </trkpt>
      <trkpt lat="40.6719" lon="-2.13579">
        <time>2021-06-19T11:19:09+0000</time>
      </trkpt>
      <trkpt lat="40.67179" lon="-2.13558">
        <time>2021-06-19T11:19:10+0000</time>
      </trkpt>
      <trkpt lat="40.67168" lon="-2.13538">
        <time>2021-06-19T11:19:11+0000</time>
      </trkpt>
      <trkpt lat="40.671580000000006" lon="-2.13518">
        <time>2021-06-19T11:19:12+0000</time>
      </trkpt>
      <trkpt lat="40.67148" lon="-2.13499">
        <time>2021-06-19T11:19:13+0000</time>
      </trkpt>
      <trkpt lat="40.67139" lon="-2.1348000000000003">
        <time>2021-06-19T11:19:14+0000</time>
      </trkpt>
      <trkpt lat="40.67128" lon="-2.1346100000000003">
        <time>2021-06-19T11:19:15+0000</time>
      </trkpt>
      <trkpt lat="40.67118000000001" lon="-2.13443">
        <time>2021-06-19T11:19:16+0000</time>
      </trkpt>
      <trkpt lat="40.671060000000004" lon="-2.13424">
        <time>2021-06-19T11:19:17+0000</time>
      </trkpt>
      <trkpt lat="40.670950000000005" lon="-2.13404">
        <time>2021-06-19T11:19:18+0000</time>
      </trkpt>
      <trkpt lat="40.67083" lon="-2.1338500000000002">
        <time>2021-06-19T11:19:19+0000</time>
      </trkpt>
      <trkpt lat="40.670700000000004" lon="-2.1336500000000003">
        <time>2021-06-19T11:19:20+0000</time>
      </trkpt>
      <trkpt lat="40.670590000000004" lon="-2.13347">
        <time>2021-06-19T11:19:21+0000</time>
      </trkpt>
      <trkpt lat="40.670480000000005" lon="-2.1333">
        <time>2021-06-19T11:19:22+0000</time>
      </trkpt>
      <trkpt lat="40.67038" lon="-2.13313">
        <time>2021-06-19T11:19:23+0000</time>
      </trkpt>
      <trkpt lat="40.670280000000005" lon="-2.1329700000000003">
        <time>2021-06-19T11:19:24+0000</time>
      </trkpt>
      <trkpt lat="40.670190000000005" lon="-2.13282">
        <time>2021-06-19T11:19:25+0000</time>
      </trkpt>
      <trkpt lat="40.670100000000005" lon="-2.13267">
        <time>2021-06-19T11:19:26+0000</time>
      </trkpt>
      <trkpt lat="40.670010000000005" lon="-2.13253">
        <time>2021-06-19T11:19:27+0000</time>
      </trkpt>
      <trkpt lat="40.669940000000004" lon="-2.13239">
        <time>2021-06-19T11:19:28+0000</time>
      </trkpt>
      <trkpt lat="40.66984" lon="-2.13228">
        <time>2021-06-19T11:19:29+0000</time>
      </trkpt>
      <trkpt lat="40.66975" lon="-2.1321700000000003">
        <time>2021-06-19T11:19:30+0000</time>
      </trkpt>
      <trkpt lat="40.66967" lon="-2.1320300000000003">
        <time>2021-06-19T11:19:31+0000</time>
      </trkpt>
      <trkpt lat="40.66959000000001" lon="-2.1318900000000003">
        <time>2021-06-19T11:19:32+0000</time>
      </trkpt>
      <trkpt lat="40.669500000000006" lon="-2.13174">
        <time>2021-06-19T11:19:33+0000</time>
      </trkpt>
      <trkpt lat="40.66942" lon="-2.13159">
        <time>2021-06-19T11:19:34+0000</time>
      </trkpt>
      <trkpt lat="40.66933" lon="-2.1314300000000004">
        <time>2021-06-19T11:19:35+0000</time>
      </trkpt>
      <trkpt lat="40.669250000000005" lon="-2.13127">
        <time>2021-06-19T11:19:36+0000</time>
      </trkpt>
      <trkpt lat="40.669160000000005" lon="-2.13112">
        <time>2021-06-19T11:19:37+0000</time>
      </trkpt>
      <trkpt lat="40.66908" lon="-2.13097">
        <time>2021-06-19T11:19:38+0000</time>
      </trkpt>
      <trkpt lat="40.669000000000004" lon="-2.1308100000000003">
        <time>2021-06-19T11:19:39+0000</time>
      </trkpt>
      <trkpt lat="40.66893" lon="-2.13064">
        <time>2021-06-19T11:19:40+0000</time>
      </trkpt>
      <trkpt lat="40.668850000000006" lon="-2.1304800000000004">
        <time>2021-06-19T11:19:41+0000</time>
      </trkpt>
      <trkpt lat="40.66877" lon="-2.1303">
        <time>2021-06-19T11:19:42+0000</time>
      </trkpt>
      <trkpt lat="40.6687" lon="-2.1301300000000003">
        <time>2021-06-19T11:19:43+0000</time>
      </trkpt>
      <trkpt lat="40.668620000000004" lon="-2.1299400000000004">
        <time>2021-06-19T11:19:44+0000</time>
      </trkpt>
      <trkpt lat="40.66854" lon="-2.12976">
        <time>2021-06-19T11:19:45+0000</time>
      </trkpt>
      <trkpt lat="40.66846" lon="-2.12957">
        <time>2021-06-19T11:19:46+0000</time>
      </trkpt>
      <trkpt lat="40.668380000000006" lon="-2.12937">
        <time>2021-06-19T11:19:47+0000</time>
      </trkpt>
      <trkpt lat="40.6683" lon="-2.1291700000000002">
        <time>2021-06-19T11:19:48+0000</time>
      </trkpt>
      <trkpt lat="40.668220000000005" lon="-2.12896">
        <time>2021-06-19T11:19:49+0000</time>
      </trkpt>
      <trkpt lat="40.668130000000005" lon="-2.12876">
        <time>2021-06-19T11:19:50+0000</time>
      </trkpt>
      <trkpt lat="40.66805" lon="-2.12855">
        <time>2021-06-19T11:19:51+0000</time>
      </trkpt>
      <trkpt lat="40.66796" lon="-2.12835">
        <time>2021-06-19T11:19:52+0000</time>
      </trkpt>
      <trkpt lat="40.667880000000004" lon="-2.12815">
        <time>2021-06-19T11:19:53+0000</time>
      </trkpt>
      <trkpt lat="40.66780000000001" lon="-2.1279600000000003">
        <time>2021-06-19T11:19:54+0000</time>
      </trkpt>
      <trkpt lat="40.667730000000006" lon="-2.12778">
        <time>2021-06-19T11:19:55+0000</time>
      </trkpt>
      <trkpt lat="40.667660000000005" lon="-2.1276">
        <time>2021-06-19T11:19:56+0000</time>
      </trkpt>
      <trkpt lat="40.667590000000004" lon="-2.12744">
        <time>2021-06-19T11:19:57+0000</time>
      </trkpt>
      <trkpt lat="40.667530000000006" lon="-2.12727">
        <time>2021-06-19T11:19:58+0000</time>
      </trkpt>
      <trkpt lat="40.667460000000005" lon="-2.12711">
        <time>2021-06-19T11:19:59+0000</time>
      </trkpt>
      <trkpt lat="40.667390000000005" lon="-2.12696">
        <time>2021-06-19T11:20:00+0000</time>
      </trkpt>
      <trkpt lat="40.66733000000001" lon="-2.1268100000000003">
        <time>2021-06-19T11:20:01+0000</time>
      </trkpt>
      <trkpt lat="40.667260000000006" lon="-2.1266700000000003">
        <time>2021-06-19T11:20:02+0000</time>
      </trkpt>
      <trkpt lat="40.667190000000005" lon="-2.1265300000000003">
        <time>2021-06-19T11:20:03+0000</time>
      </trkpt>
      <trkpt lat="40.66713" lon="-2.1263900000000002">
        <time>2021-06-19T11:20:04+0000</time>
      </trkpt>
      <trkpt lat="40.66707" lon="-2.12624">
        <time>2021-06-19T11:20:05+0000</time>
      </trkpt>
      <trkpt lat="40.667010000000005" lon="-2.12609">
        <time>2021-06-19T11:20:06+0000</time>
      </trkpt>
      <trkpt lat="40.666940000000004" lon="-2.1259200000000003">
        <time>2021-06-19T11:20:07+0000</time>
      </trkpt>
      <trkpt lat="40.66686" lon="-2.12575">
        <time>2021-06-19T11:20:08+0000</time>
      </trkpt>
      <trkpt lat="40.666790000000006" lon="-2.12557">
        <time>2021-06-19T11:20:09+0000</time>
      </trkpt>
      <trkpt lat="40.66671" lon="-2.1253800000000003">
        <time>2021-06-19T11:20:10+0000</time>
      </trkpt>
      <trkpt lat="40.66664" lon="-2.1252">
        <time>2021-06-19T11:20:11+0000</time>
      </trkpt>
      <trkpt lat="40.666560000000004" lon="-2.12502">
        <time>2021-06-19T11:20:12+0000</time>
      </trkpt>
      <trkpt lat="40.66649" lon="-2.1248400000000003">
        <time>2021-06-19T11:20:13+0000</time>
      </trkpt>
      <trkpt lat="40.666430000000005" lon="-2.1246500000000004">
        <time>2021-06-19T11:20:14+0000</time>
      </trkpt>
      <trkpt lat="40.66637" lon="-2.12447">
        <time>2021-06-19T11:20:15+0000</time>
      </trkpt>
      <trkpt lat="40.666320000000006" lon="-2.12428">
        <time>2021-06-19T11:20:16+0000</time>
      </trkpt>
      <trkpt lat="40.666270000000004" lon="-2.1240900000000003">
        <time>2021-06-19T11:20:17+0000</time>
      </trkpt>
      <trkpt lat="40.666230000000006" lon="-2.12387">
        <time>2021-06-19T11:20:18+0000</time>
      </trkpt>
      <trkpt lat="40.66619" lon="-2.12365">
        <time>2021-06-19T11:20:19+0000</time>
      </trkpt>
      <trkpt lat="40.666140000000006" lon="-2.1234300000000004">
        <time>2021-06-19T11:20:20+0000</time>
      </trkpt>
      <trkpt lat="40.666090000000004" lon="-2.1232">
        <time>2021-06-19T11:20:21+0000</time>
      </trkpt>
      <trkpt lat="40.66604" lon="-2.12297">
        <time>2021-06-19T11:20:22+0000</time>
      </trkpt>
      <trkpt lat="40.666000000000004" lon="-2.1227300000000002">
        <time>2021-06-19T11:20:23+0000</time>
      </trkpt>
      <trkpt lat="40.665960000000005" lon="-2.1225">
        <time>2021-06-19T11:20:24+0000</time>
      </trkpt>
      <trkpt lat="40.66592" lon="-2.1222700000000003">
        <time>2021-06-19T11:20:25+0000</time>
      </trkpt>
      <trkpt lat="40.66588" lon="-2.12204">
        <time>2021-06-19T11:20:26+0000</time>
      </trkpt>
      <trkpt lat="40.665850000000006" lon="-2.12181">
        <time>2021-06-19T11:20:27+0000</time>
      </trkpt>
      <trkpt lat="40.665820000000004" lon="-2.1215800000000002">
        <time>2021-06-19T11:20:28+0000</time>
      </trkpt>
      <trkpt lat="40.665780000000005" lon="-2.12135">
        <time>2021-06-19T11:20:29+0000</time>
      </trkpt>
      <trkpt lat="40.66575" lon="-2.1211200000000003">
        <time>2021-06-19T11:20:30+0000</time>
      </trkpt>
      <trkpt lat="40.665710000000004" lon="-2.12089">
        <time>2021-06-19T11:20:31+0000</time>
      </trkpt>
      <trkpt lat="40.665670000000006" lon="-2.1206500000000004">
        <time>2021-06-19T11:20:32+0000</time>
      </trkpt>
      <trkpt lat="40.665620000000004" lon="-2.12041">
        <time>2021-06-19T11:20:33+0000</time>
      </trkpt>
      <trkpt lat="40.66557" lon="-2.12015">
        <time>2021-06-19T11:20:34+0000</time>
      </trkpt>
      <trkpt lat="40.665510000000005" lon="-2.1199000000000003">
        <time>2021-06-19T11:20:35+0000</time>
      </trkpt>
      <trkpt lat="40.66543" lon="-2.11966">
        <time>2021-06-19T11:20:36+0000</time>
      </trkpt>
      <trkpt lat="40.665350000000004" lon="-2.1194200000000003">
        <time>2021-06-19T11:20:37+0000</time>
      </trkpt>
      <trkpt lat="40.66526" lon="-2.11918">
        <time>2021-06-19T11:20:38+0000</time>
      </trkpt>
      <trkpt lat="40.665150000000004" lon="-2.1189500000000003">
        <time>2021-06-19T11:20:39+0000</time>
      </trkpt>
      <trkpt lat="40.665040000000005" lon="-2.1187300000000002">
        <time>2021-06-19T11:20:40+0000</time>
      </trkpt>
      <trkpt lat="40.664910000000006" lon="-2.11851">
        <time>2021-06-19T11:20:41+0000</time>
      </trkpt>
      <trkpt lat="40.664770000000004" lon="-2.1183">
        <time>2021-06-19T11:20:42+0000</time>
      </trkpt>
      <trkpt lat="40.664620000000006" lon="-2.11811">
        <time>2021-06-19T11:20:43+0000</time>
      </trkpt>
      <trkpt lat="40.664460000000005" lon="-2.1179300000000003">
        <time>2021-06-19T11:20:44+0000</time>
      </trkpt>
      <trkpt lat="40.66431" lon="-2.11776">
        <time>2021-06-19T11:20:45+0000</time>
      </trkpt>
      <trkpt lat="40.66416" lon="-2.1175900000000003">
        <time>2021-06-19T11:20:46+0000</time>
      </trkpt>
      <trkpt lat="40.664" lon="-2.11744">
        <time>2021-06-19T11:20:47+0000</time>
      </trkpt>
      <trkpt lat="40.663830000000004" lon="-2.1173">
        <time>2021-06-19T11:20:48+0000</time>
      </trkpt>
      <trkpt lat="40.66367" lon="-2.11716">
        <time>2021-06-19T11:20:49+0000</time>
      </trkpt>
      <trkpt lat="40.663500000000006" lon="-2.117">
        <time>2021-06-19T11:20:50+0000</time>
      </trkpt>
      <trkpt lat="40.66335" lon="-2.11682">
        <time>2021-06-19T11:20:51+0000</time>
      </trkpt>
      <trkpt lat="40.66321000000001" lon="-2.11662">
        <time>2021-06-19T11:20:52+0000</time>
      </trkpt>
      <trkpt lat="40.663070000000005" lon="-2.11641">
        <time>2021-06-19T11:20:53+0000</time>
      </trkpt>
      <trkpt lat="40.66293" lon="-2.1161800000000004">
        <time>2021-06-19T11:20:54+0000</time>
      </trkpt>
      <trkpt lat="40.66281" lon="-2.11595">
        <time>2021-06-19T11:20:55+0000</time>
      </trkpt>
      <trkpt lat="40.662690000000005" lon="-2.1157000000000004">
        <time>2021-06-19T11:20:56+0000</time>
      </trkpt>
      <trkpt lat="40.662580000000005" lon="-2.11546">
        <time>2021-06-19T11:20:57+0000</time>
      </trkpt>
      <trkpt lat="40.66246" lon="-2.1152">
        <time>2021-06-19T11:20:58+0000</time>
      </trkpt>
      <trkpt lat="40.66235" lon="-2.1149500000000003">
        <time>2021-06-19T11:20:59+0000</time>
      </trkpt>
      <trkpt lat="40.662240000000004" lon="-2.1147">
        <time>2021-06-19T11:21:00+0000</time>
      </trkpt>
      <trkpt lat="40.66212" lon="-2.11444">
        <time>2021-06-19T11:21:01+0000</time>
      </trkpt>
      <trkpt lat="40.66201" lon="-2.11417">
        <time>2021-06-19T11:21:02+0000</time>
      </trkpt>
      <trkpt lat="40.6619" lon="-2.11391">
        <time>2021-06-19T11:21:03+0000</time>
      </trkpt>
      <trkpt lat="40.66178" lon="-2.1136500000000003">
        <time>2021-06-19T11:21:04+0000</time>
      </trkpt>
      <trkpt lat="40.66167" lon="-2.1133900000000003">
        <time>2021-06-19T11:21:05+0000</time>
      </trkpt>
      <trkpt lat="40.66156" lon="-2.11313">
        <time>2021-06-19T11:21:06+0000</time>
      </trkpt>
      <trkpt lat="40.66145" lon="-2.11287">
        <time>2021-06-19T11:21:07+0000</time>
      </trkpt>
      <trkpt lat="40.66134" lon="-2.11262">
        <time>2021-06-19T11:21:08+0000</time>
      </trkpt>
      <trkpt lat="40.66124000000001" lon="-2.1123800000000004">
        <time>2021-06-19T11:21:09+0000</time>
      </trkpt>
      <trkpt lat="40.66114" lon="-2.11213">
        <time>2021-06-19T11:21:10+0000</time>
      </trkpt>
      <trkpt lat="40.66105" lon="-2.11187">
        <time>2021-06-19T11:21:11+0000</time>
      </trkpt>
      <trkpt lat="40.66098" lon="-2.11161">
        <time>2021-06-19T11:21:12+0000</time>
      </trkpt>
      <trkpt lat="40.66091" lon="-2.11134">
        <time>2021-06-19T11:21:13+0000</time>
      </trkpt>
      <trkpt lat="40.66085" lon="-2.1110700000000002">
        <time>2021-06-19T11:21:14+0000</time>
      </trkpt>
      <trkpt lat="40.660810000000005" lon="-2.1108000000000002">
        <time>2021-06-19T11:21:15+0000</time>
      </trkpt>
      <trkpt lat="40.66078" lon="-2.1105500000000004">
        <time>2021-06-19T11:21:16+0000</time>
      </trkpt>
      <trkpt lat="40.66076" lon="-2.1103">
        <time>2021-06-19T11:21:17+0000</time>
      </trkpt>
      <trkpt lat="40.660740000000004" lon="-2.1100700000000003">
        <time>2021-06-19T11:21:18+0000</time>
      </trkpt>
      <trkpt lat="40.660740000000004" lon="-2.1098500000000002">
        <time>2021-06-19T11:21:19+0000</time>
      </trkpt>
      <trkpt lat="40.660740000000004" lon="-2.1096500000000002">
        <time>2021-06-19T11:21:20+0000</time>
      </trkpt>
      <trkpt lat="40.660740000000004" lon="-2.1094500000000003">
        <time>2021-06-19T11:21:21+0000</time>
      </trkpt>
      <trkpt lat="40.66073" lon="-2.10927">
        <time>2021-06-19T11:21:22+0000</time>
      </trkpt>
      <trkpt lat="40.66073" lon="-2.10909">
        <time>2021-06-19T11:21:23+0000</time>
      </trkpt>
      <trkpt lat="40.66073" lon="-2.1089200000000003">
        <time>2021-06-19T11:21:24+0000</time>
      </trkpt>
      <trkpt lat="40.660740000000004" lon="-2.10875">
        <time>2021-06-19T11:21:25+0000</time>
      </trkpt>
      <trkpt lat="40.66073" lon="-2.1085700000000003">
        <time>2021-06-19T11:21:26+0000</time>
      </trkpt>
      <trkpt lat="40.660720000000005" lon="-2.1084">
        <time>2021-06-19T11:21:27+0000</time>
      </trkpt>
      <trkpt lat="40.66073" lon="-2.10822">
        <time>2021-06-19T11:21:28+0000</time>
      </trkpt>
      <trkpt lat="40.66073" lon="-2.1080400000000004">
        <time>2021-06-19T11:21:29+0000</time>
      </trkpt>
      <trkpt lat="40.66073" lon="-2.10786">
        <time>2021-06-19T11:21:30+0000</time>
      </trkpt>
      <trkpt lat="40.66073" lon="-2.10768">
        <time>2021-06-19T11:21:31+0000</time>
      </trkpt>
      <trkpt lat="40.66073" lon="-2.1074900000000003">
        <time>2021-06-19T11:21:32+0000</time>
      </trkpt>
      <trkpt lat="40.660740000000004" lon="-2.1072900000000003">
        <time>2021-06-19T11:21:33+0000</time>
      </trkpt>
      <trkpt lat="40.660740000000004" lon="-2.1070800000000003">
        <time>2021-06-19T11:21:34+0000</time>
      </trkpt>
      <trkpt lat="40.660740000000004" lon="-2.1068700000000002">
        <time>2021-06-19T11:21:35+0000</time>
      </trkpt>
      <trkpt lat="40.66075" lon="-2.10666">
        <time>2021-06-19T11:21:36+0000</time>
      </trkpt>
      <trkpt lat="40.66075" lon="-2.10644">
        <time>2021-06-19T11:21:37+0000</time>
      </trkpt>
      <trkpt lat="40.66076" lon="-2.1062100000000004">
        <time>2021-06-19T11:21:38+0000</time>
      </trkpt>
      <trkpt lat="40.66076" lon="-2.1059900000000003">
        <time>2021-06-19T11:21:39+0000</time>
      </trkpt>
      <trkpt lat="40.66077000000001" lon="-2.10576">
        <time>2021-06-19T11:21:40+0000</time>
      </trkpt>
      <trkpt lat="40.66078" lon="-2.1055300000000003">
        <time>2021-06-19T11:21:41+0000</time>
      </trkpt>
      <trkpt lat="40.66078" lon="-2.1053100000000002">
        <time>2021-06-19T11:21:42+0000</time>
      </trkpt>
      <trkpt lat="40.660790000000006" lon="-2.10508">
        <time>2021-06-19T11:21:43+0000</time>
      </trkpt>
      <trkpt lat="40.660790000000006" lon="-2.10486">
        <time>2021-06-19T11:21:44+0000</time>
      </trkpt>
      <trkpt lat="40.6608" lon="-2.1046400000000003">
        <time>2021-06-19T11:21:45+0000</time>
      </trkpt>
      <trkpt lat="40.660810000000005" lon="-2.10442">
        <time>2021-06-19T11:21:46+0000</time>
      </trkpt>
      <trkpt lat="40.660810000000005" lon="-2.10419">
        <time>2021-06-19T11:21:47+0000</time>
      </trkpt>
      <trkpt lat="40.66082" lon="-2.1039600000000003">
        <time>2021-06-19T11:21:48+0000</time>
      </trkpt>
      <trkpt lat="40.66082" lon="-2.10373">
        <time>2021-06-19T11:21:49+0000</time>
      </trkpt>
      <trkpt lat="40.660830000000004" lon="-2.1034900000000003">
        <time>2021-06-19T11:21:50+0000</time>
      </trkpt>
      <trkpt lat="40.660830000000004" lon="-2.10324">
        <time>2021-06-19T11:21:51+0000</time>
      </trkpt>
      <trkpt lat="40.66084" lon="-2.10299">
        <time>2021-06-19T11:21:52+0000</time>
      </trkpt>
      <trkpt lat="40.66085" lon="-2.1027400000000003">
        <time>2021-06-19T11:21:53+0000</time>
      </trkpt>
      <trkpt lat="40.66086000000001" lon="-2.1024800000000003">
        <time>2021-06-19T11:21:54+0000</time>
      </trkpt>
      <trkpt lat="40.66087" lon="-2.10222">
        <time>2021-06-19T11:21:55+0000</time>
      </trkpt>
      <trkpt lat="40.66089" lon="-2.10195">
        <time>2021-06-19T11:21:56+0000</time>
      </trkpt>
      <trkpt lat="40.66091" lon="-2.10169">
        <time>2021-06-19T11:21:57+0000</time>
      </trkpt>
      <trkpt lat="40.66091" lon="-2.10143">
        <time>2021-06-19T11:21:58+0000</time>
      </trkpt>
      <trkpt lat="40.66095000000001" lon="-2.10117">
        <time>2021-06-19T11:21:59+0000</time>
      </trkpt>
      <trkpt lat="40.660970000000006" lon="-2.1009100000000003">
        <time>2021-06-19T11:22:00+0000</time>
      </trkpt>
      <trkpt lat="40.660970000000006" lon="-2.1006500000000004">
        <time>2021-06-19T11:22:01+0000</time>
      </trkpt>
      <trkpt lat="40.660990000000005" lon="-2.1004">
        <time>2021-06-19T11:22:02+0000</time>
      </trkpt>
      <trkpt lat="40.661010000000005" lon="-2.10015">
        <time>2021-06-19T11:22:03+0000</time>
      </trkpt>
      <trkpt lat="40.661030000000004" lon="-2.0999000000000003">
        <time>2021-06-19T11:22:04+0000</time>
      </trkpt>
      <trkpt lat="40.66105" lon="-2.09965">
        <time>2021-06-19T11:22:05+0000</time>
      </trkpt>
      <trkpt lat="40.66107" lon="-2.09941">
        <time>2021-06-19T11:22:06+0000</time>
      </trkpt>
      <trkpt lat="40.66109" lon="-2.09917">
        <time>2021-06-19T11:22:07+0000</time>
      </trkpt>
      <trkpt lat="40.661100000000005" lon="-2.0989400000000002">
        <time>2021-06-19T11:22:08+0000</time>
      </trkpt>
      <trkpt lat="40.661120000000004" lon="-2.09871">
        <time>2021-06-19T11:22:09+0000</time>
      </trkpt>
      <trkpt lat="40.66114" lon="-2.0985">
        <time>2021-06-19T11:22:10+0000</time>
      </trkpt>
      <trkpt lat="40.661150000000006" lon="-2.0983">
        <time>2021-06-19T11:22:11+0000</time>
      </trkpt>
      <trkpt lat="40.661170000000006" lon="-2.09809">
        <time>2021-06-19T11:22:12+0000</time>
      </trkpt>
      <trkpt lat="40.661190000000005" lon="-2.09788">
        <time>2021-06-19T11:22:13+0000</time>
      </trkpt>
      <trkpt lat="40.661210000000004" lon="-2.0976700000000004">
        <time>2021-06-19T11:22:14+0000</time>
      </trkpt>
      <trkpt lat="40.66124000000001" lon="-2.0974600000000003">
        <time>2021-06-19T11:22:15+0000</time>
      </trkpt>
      <trkpt lat="40.66127" lon="-2.09724">
        <time>2021-06-19T11:22:16+0000</time>
      </trkpt>
      <trkpt lat="40.661300000000004" lon="-2.09703">
        <time>2021-06-19T11:22:17+0000</time>
      </trkpt>
      <trkpt lat="40.66134" lon="-2.09682">
        <time>2021-06-19T11:22:18+0000</time>
      </trkpt>
      <trkpt lat="40.66136" lon="-2.09662">
        <time>2021-06-19T11:22:19+0000</time>
      </trkpt>
      <trkpt lat="40.661390000000004" lon="-2.0964300000000002">
        <time>2021-06-19T11:22:20+0000</time>
      </trkpt>
      <trkpt lat="40.66143" lon="-2.0962400000000003">
        <time>2021-06-19T11:22:21+0000</time>
      </trkpt>
      <trkpt lat="40.66147" lon="-2.09606">
        <time>2021-06-19T11:22:22+0000</time>
      </trkpt>
      <trkpt lat="40.66151" lon="-2.09586">
        <time>2021-06-19T11:22:23+0000</time>
      </trkpt>
      <trkpt lat="40.66156" lon="-2.09567">
        <time>2021-06-19T11:22:24+0000</time>
      </trkpt>
      <trkpt lat="40.661620000000006" lon="-2.09547">
        <time>2021-06-19T11:22:25+0000</time>
      </trkpt>
      <trkpt lat="40.66167" lon="-2.09526">
        <time>2021-06-19T11:22:26+0000</time>
      </trkpt>
      <trkpt lat="40.661730000000006" lon="-2.09505">
        <time>2021-06-19T11:22:27+0000</time>
      </trkpt>
      <trkpt lat="40.66178" lon="-2.09485">
        <time>2021-06-19T11:22:28+0000</time>
      </trkpt>
      <trkpt lat="40.66183" lon="-2.09464">
        <time>2021-06-19T11:22:29+0000</time>
      </trkpt>
      <trkpt lat="40.66189000000001" lon="-2.09443">
        <time>2021-06-19T11:22:30+0000</time>
      </trkpt>
      <trkpt lat="40.66194" lon="-2.09423">
        <time>2021-06-19T11:22:31+0000</time>
      </trkpt>
      <trkpt lat="40.662000000000006" lon="-2.09403">
        <time>2021-06-19T11:22:32+0000</time>
      </trkpt>
      <trkpt lat="40.66205" lon="-2.09383">
        <time>2021-06-19T11:22:33+0000</time>
      </trkpt>
      <trkpt lat="40.6621" lon="-2.09363">
        <time>2021-06-19T11:22:34+0000</time>
      </trkpt>
      <trkpt lat="40.66214" lon="-2.09344">
        <time>2021-06-19T11:22:35+0000</time>
      </trkpt>
      <trkpt lat="40.662200000000006" lon="-2.09323">
        <time>2021-06-19T11:22:36+0000</time>
      </trkpt>
      <trkpt lat="40.66225" lon="-2.09303">
        <time>2021-06-19T11:22:37+0000</time>
      </trkpt>
      <trkpt lat="40.662310000000005" lon="-2.09281">
        <time>2021-06-19T11:22:38+0000</time>
      </trkpt>
      <trkpt lat="40.66236000000001" lon="-2.0926">
        <time>2021-06-19T11:22:39+0000</time>
      </trkpt>
      <trkpt lat="40.662420000000004" lon="-2.0923800000000004">
        <time>2021-06-19T11:22:40+0000</time>
      </trkpt>
      <trkpt lat="40.66248" lon="-2.0921600000000002">
        <time>2021-06-19T11:22:41+0000</time>
      </trkpt>
      <trkpt lat="40.662530000000004" lon="-2.09193">
        <time>2021-06-19T11:22:42+0000</time>
      </trkpt>
      <trkpt lat="40.662600000000005" lon="-2.09171">
        <time>2021-06-19T11:22:43+0000</time>
      </trkpt>
      <trkpt lat="40.66266" lon="-2.0914800000000002">
        <time>2021-06-19T11:22:44+0000</time>
      </trkpt>
      <trkpt lat="40.66272" lon="-2.09126">
        <time>2021-06-19T11:22:45+0000</time>
      </trkpt>
      <trkpt lat="40.66277" lon="-2.09104">
        <time>2021-06-19T11:22:46+0000</time>
      </trkpt>
      <trkpt lat="40.66283000000001" lon="-2.0908100000000003">
        <time>2021-06-19T11:22:47+0000</time>
      </trkpt>
      <trkpt lat="40.662890000000004" lon="-2.09058">
        <time>2021-06-19T11:22:48+0000</time>
      </trkpt>
      <trkpt lat="40.66295" lon="-2.0903500000000004">
        <time>2021-06-19T11:22:49+0000</time>
      </trkpt>
      <trkpt lat="40.66301" lon="-2.09011">
        <time>2021-06-19T11:22:50+0000</time>
      </trkpt>
      <trkpt lat="40.66306" lon="-2.0898700000000003">
        <time>2021-06-19T11:22:51+0000</time>
      </trkpt>
      <trkpt lat="40.663120000000006" lon="-2.08962">
        <time>2021-06-19T11:22:52+0000</time>
      </trkpt>
      <trkpt lat="40.66319" lon="-2.08937">
        <time>2021-06-19T11:22:53+0000</time>
      </trkpt>
      <trkpt lat="40.663270000000004" lon="-2.0891200000000003">
        <time>2021-06-19T11:22:54+0000</time>
      </trkpt>
      <trkpt lat="40.66333" lon="-2.0888600000000004">
        <time>2021-06-19T11:22:55+0000</time>
      </trkpt>
      <trkpt lat="40.663380000000004" lon="-2.0886">
        <time>2021-06-19T11:22:56+0000</time>
      </trkpt>
      <trkpt lat="40.663450000000005" lon="-2.08833">
        <time>2021-06-19T11:22:57+0000</time>
      </trkpt>
      <trkpt lat="40.663520000000005" lon="-2.08806">
        <time>2021-06-19T11:22:58+0000</time>
      </trkpt>
      <trkpt lat="40.6636" lon="-2.0877700000000003">
        <time>2021-06-19T11:22:59+0000</time>
      </trkpt>
      <trkpt lat="40.66367" lon="-2.0874800000000002">
        <time>2021-06-19T11:23:00+0000</time>
      </trkpt>
      <trkpt lat="40.663740000000004" lon="-2.08719">
        <time>2021-06-19T11:23:01+0000</time>
      </trkpt>
      <trkpt lat="40.66382" lon="-2.08692">
        <time>2021-06-19T11:23:02+0000</time>
      </trkpt>
      <trkpt lat="40.66389" lon="-2.08664">
        <time>2021-06-19T11:23:03+0000</time>
      </trkpt>
      <trkpt lat="40.66396" lon="-2.08636">
        <time>2021-06-19T11:23:04+0000</time>
      </trkpt>
      <trkpt lat="40.664030000000004" lon="-2.0860700000000003">
        <time>2021-06-19T11:23:05+0000</time>
      </trkpt>
      <trkpt lat="40.66411" lon="-2.0857900000000003">
        <time>2021-06-19T11:23:06+0000</time>
      </trkpt>
      <trkpt lat="40.66418" lon="-2.0855">
        <time>2021-06-19T11:23:07+0000</time>
      </trkpt>
      <trkpt lat="40.66425" lon="-2.08521">
        <time>2021-06-19T11:23:08+0000</time>
      </trkpt>
      <trkpt lat="40.66433000000001" lon="-2.0849200000000003">
        <time>2021-06-19T11:23:09+0000</time>
      </trkpt>
      <trkpt lat="40.664410000000004" lon="-2.08462">
        <time>2021-06-19T11:23:10+0000</time>
      </trkpt>
      <trkpt lat="40.664480000000005" lon="-2.08433">
        <time>2021-06-19T11:23:11+0000</time>
      </trkpt>
      <trkpt lat="40.66456" lon="-2.0840300000000003">
        <time>2021-06-19T11:23:12+0000</time>
      </trkpt>
      <trkpt lat="40.664640000000006" lon="-2.08373">
        <time>2021-06-19T11:23:13+0000</time>
      </trkpt>
      <trkpt lat="40.66471000000001" lon="-2.08344">
        <time>2021-06-19T11:23:14+0000</time>
      </trkpt>
      <trkpt lat="40.66479" lon="-2.08314">
        <time>2021-06-19T11:23:15+0000</time>
      </trkpt>
      <trkpt lat="40.66487" lon="-2.08285">
        <time>2021-06-19T11:23:16+0000</time>
      </trkpt>
      <trkpt lat="40.66494" lon="-2.0825500000000003">
        <time>2021-06-19T11:23:17+0000</time>
      </trkpt>
      <trkpt lat="40.665020000000005" lon="-2.08225">
        <time>2021-06-19T11:23:18+0000</time>
      </trkpt>
      <trkpt lat="40.6651" lon="-2.0819400000000003">
        <time>2021-06-19T11:23:19+0000</time>
      </trkpt>
      <trkpt lat="40.66518000000001" lon="-2.0816500000000002">
        <time>2021-06-19T11:23:20+0000</time>
      </trkpt>
      <trkpt lat="40.665240000000004" lon="-2.0813300000000003">
        <time>2021-06-19T11:23:21+0000</time>
      </trkpt>
      <trkpt lat="40.665310000000005" lon="-2.08103">
        <time>2021-06-19T11:23:22+0000</time>
      </trkpt>
      <trkpt lat="40.66539" lon="-2.0807200000000003">
        <time>2021-06-19T11:23:23+0000</time>
      </trkpt>
      <trkpt lat="40.665470000000006" lon="-2.08042">
        <time>2021-06-19T11:23:24+0000</time>
      </trkpt>
      <trkpt lat="40.66555" lon="-2.08012">
        <time>2021-06-19T11:23:25+0000</time>
      </trkpt>
      <trkpt lat="40.66563" lon="-2.0798200000000002">
        <time>2021-06-19T11:23:26+0000</time>
      </trkpt>
      <trkpt lat="40.665710000000004" lon="-2.07952">
        <time>2021-06-19T11:23:27+0000</time>
      </trkpt>
      <trkpt lat="40.665780000000005" lon="-2.0792200000000003">
        <time>2021-06-19T11:23:28+0000</time>
      </trkpt>
      <trkpt lat="40.66586" lon="-2.07893">
        <time>2021-06-19T11:23:29+0000</time>
      </trkpt>
      <trkpt lat="40.665940000000006" lon="-2.07864">
        <time>2021-06-19T11:23:30+0000</time>
      </trkpt>
      <trkpt lat="40.66601" lon="-2.0783500000000004">
        <time>2021-06-19T11:23:31+0000</time>
      </trkpt>
      <trkpt lat="40.666090000000004" lon="-2.0780800000000004">
        <time>2021-06-19T11:23:32+0000</time>
      </trkpt>
      <trkpt lat="40.666160000000005" lon="-2.07783">
        <time>2021-06-19T11:23:33+0000</time>
      </trkpt>
      <trkpt lat="40.66621000000001" lon="-2.07762">
        <time>2021-06-19T11:23:34+0000</time>
      </trkpt>
      <trkpt lat="40.66626" lon="-2.07742">
        <time>2021-06-19T11:23:35+0000</time>
      </trkpt>
      <trkpt lat="40.66631" lon="-2.07723">
        <time>2021-06-19T11:23:36+0000</time>
      </trkpt>
      <trkpt lat="40.666360000000005" lon="-2.0770500000000003">
        <time>2021-06-19T11:23:37+0000</time>
      </trkpt>
      <trkpt lat="40.666410000000006" lon="-2.07689">
        <time>2021-06-19T11:23:38+0000</time>
      </trkpt>
      <trkpt lat="40.666450000000005" lon="-2.0767200000000003">
        <time>2021-06-19T11:23:39+0000</time>
      </trkpt>
      <trkpt lat="40.66649" lon="-2.0765700000000002">
        <time>2021-06-19T11:23:40+0000</time>
      </trkpt>
      <trkpt lat="40.66653" lon="-2.0764500000000004">
        <time>2021-06-19T11:23:41+0000</time>
      </trkpt>
      <trkpt lat="40.666560000000004" lon="-2.07633">
        <time>2021-06-19T11:23:42+0000</time>
      </trkpt>
      <trkpt lat="40.66658" lon="-2.07621">
        <time>2021-06-19T11:23:43+0000</time>
      </trkpt>
      <trkpt lat="40.666610000000006" lon="-2.07609">
        <time>2021-06-19T11:23:44+0000</time>
      </trkpt>
      <trkpt lat="40.66664" lon="-2.0759800000000004">
        <time>2021-06-19T11:23:45+0000</time>
      </trkpt>
      <trkpt lat="40.66667" lon="-2.07586">
        <time>2021-06-19T11:23:46+0000</time>
      </trkpt>
      <trkpt lat="40.66671" lon="-2.0757600000000003">
        <time>2021-06-19T11:23:47+0000</time>
      </trkpt>
      <trkpt lat="40.66675" lon="-2.07565">
        <time>2021-06-19T11:23:48+0000</time>
      </trkpt>
      <trkpt lat="40.66678" lon="-2.0755500000000002">
        <time>2021-06-19T11:23:49+0000</time>
      </trkpt>
      <trkpt lat="40.66682" lon="-2.07544">
        <time>2021-06-19T11:23:50+0000</time>
      </trkpt>
      <trkpt lat="40.666850000000004" lon="-2.07534">
        <time>2021-06-19T11:23:51+0000</time>
      </trkpt>
      <trkpt lat="40.66689" lon="-2.07524">
        <time>2021-06-19T11:23:52+0000</time>
      </trkpt>
      <trkpt lat="40.666920000000005" lon="-2.07514">
        <time>2021-06-19T11:23:53+0000</time>
      </trkpt>
      <trkpt lat="40.66696" lon="-2.07504">
        <time>2021-06-19T11:23:54+0000</time>
      </trkpt>
      <trkpt lat="40.666990000000006" lon="-2.0749400000000002">
        <time>2021-06-19T11:23:55+0000</time>
      </trkpt>
      <trkpt lat="40.667030000000004" lon="-2.07483">
        <time>2021-06-19T11:23:56+0000</time>
      </trkpt>
      <trkpt lat="40.667060000000006" lon="-2.0747400000000003">
        <time>2021-06-19T11:23:57+0000</time>
      </trkpt>
      <trkpt lat="40.66709" lon="-2.07465">
        <time>2021-06-19T11:23:58+0000</time>
      </trkpt>
      <trkpt lat="40.66713" lon="-2.07457">
        <time>2021-06-19T11:23:59+0000</time>
      </trkpt>
      <trkpt lat="40.66716" lon="-2.0744800000000003">
        <time>2021-06-19T11:24:00+0000</time>
      </trkpt>
      <trkpt lat="40.667190000000005" lon="-2.07439">
        <time>2021-06-19T11:24:01+0000</time>
      </trkpt>
      <trkpt lat="40.66723" lon="-2.07429">
        <time>2021-06-19T11:24:02+0000</time>
      </trkpt>
      <trkpt lat="40.66727" lon="-2.07419">
        <time>2021-06-19T11:24:03+0000</time>
      </trkpt>
      <trkpt lat="40.66731" lon="-2.07409">
        <time>2021-06-19T11:24:04+0000</time>
      </trkpt>
      <trkpt lat="40.667350000000006" lon="-2.07398">
        <time>2021-06-19T11:24:05+0000</time>
      </trkpt>
      <trkpt lat="40.667390000000005" lon="-2.0738800000000004">
        <time>2021-06-19T11:24:06+0000</time>
      </trkpt>
      <trkpt lat="40.66743" lon="-2.0737900000000002">
        <time>2021-06-19T11:24:07+0000</time>
      </trkpt>
      <trkpt lat="40.667460000000005" lon="-2.0737">
        <time>2021-06-19T11:24:08+0000</time>
      </trkpt>
      <trkpt lat="40.667500000000004" lon="-2.07361">
        <time>2021-06-19T11:24:09+0000</time>
      </trkpt>
      <trkpt lat="40.667530000000006" lon="-2.0735300000000003">
        <time>2021-06-19T11:24:10+0000</time>
      </trkpt>
      <trkpt lat="40.66756" lon="-2.07344">
        <time>2021-06-19T11:24:11+0000</time>
      </trkpt>
      <trkpt lat="40.667590000000004" lon="-2.07336">
        <time>2021-06-19T11:24:12+0000</time>
      </trkpt>
      <trkpt lat="40.66762000000001" lon="-2.07329">
        <time>2021-06-19T11:24:13+0000</time>
      </trkpt>
      <trkpt lat="40.667640000000006" lon="-2.07323">
        <time>2021-06-19T11:24:14+0000</time>
      </trkpt>
      <trkpt lat="40.667660000000005" lon="-2.07317">
        <time>2021-06-19T11:24:15+0000</time>
      </trkpt>
      <trkpt lat="40.667680000000004" lon="-2.0731100000000002">
        <time>2021-06-19T11:24:16+0000</time>
      </trkpt>
      <trkpt lat="40.66771000000001" lon="-2.07303">
        <time>2021-06-19T11:24:17+0000</time>
      </trkpt>
      <trkpt lat="40.66774" lon="-2.07295">
        <time>2021-06-19T11:24:18+0000</time>
      </trkpt>
      <trkpt lat="40.667770000000004" lon="-2.0728600000000004">
        <time>2021-06-19T11:24:19+0000</time>
      </trkpt>
      <trkpt lat="40.66780000000001" lon="-2.0727700000000002">
        <time>2021-06-19T11:24:20+0000</time>
      </trkpt>
      <trkpt lat="40.667840000000005" lon="-2.07268">
        <time>2021-06-19T11:24:21+0000</time>
      </trkpt>
      <trkpt lat="40.667880000000004" lon="-2.0725700000000002">
        <time>2021-06-19T11:24:22+0000</time>
      </trkpt>
      <trkpt lat="40.66792" lon="-2.07246">
        <time>2021-06-19T11:24:23+0000</time>
      </trkpt>
      <trkpt lat="40.667950000000005" lon="-2.07234">
        <time>2021-06-19T11:24:24+0000</time>
      </trkpt>
      <trkpt lat="40.66799" lon="-2.0722">
        <time>2021-06-19T11:24:25+0000</time>
      </trkpt>
      <trkpt lat="40.668020000000006" lon="-2.07206">
        <time>2021-06-19T11:24:26+0000</time>
      </trkpt>
      <trkpt lat="40.66801" lon="-2.0719100000000004">
        <time>2021-06-19T11:24:27+0000</time>
      </trkpt>
      <trkpt lat="40.667970000000004" lon="-2.07175">
        <time>2021-06-19T11:24:28+0000</time>
      </trkpt>
      <trkpt lat="40.667910000000006" lon="-2.07161">
        <time>2021-06-19T11:24:29+0000</time>
      </trkpt>
      <trkpt lat="40.667840000000005" lon="-2.07148">
        <time>2021-06-19T11:24:30+0000</time>
      </trkpt>
      <trkpt lat="40.667750000000005" lon="-2.0713700000000004">
        <time>2021-06-19T11:24:31+0000</time>
      </trkpt>
      <trkpt lat="40.667640000000006" lon="-2.07131">
        <time>2021-06-19T11:24:32+0000</time>
      </trkpt>
      <trkpt lat="40.667550000000006" lon="-2.07134">
        <time>2021-06-19T11:24:33+0000</time>
      </trkpt>
      <trkpt lat="40.66747" lon="-2.07139">
        <time>2021-06-19T11:24:34+0000</time>
      </trkpt>
      <trkpt lat="40.6674" lon="-2.07148">
        <time>2021-06-19T11:24:35+0000</time>
      </trkpt>
      <trkpt lat="40.66734" lon="-2.07159">
        <time>2021-06-19T11:24:36+0000</time>
      </trkpt>
      <trkpt lat="40.667280000000005" lon="-2.0716900000000003">
        <time>2021-06-19T11:24:37+0000</time>
      </trkpt>
      <trkpt lat="40.66722" lon="-2.07178">
        <time>2021-06-19T11:24:38+0000</time>
      </trkpt>
      <trkpt lat="40.66715000000001" lon="-2.07185">
        <time>2021-06-19T11:24:39+0000</time>
      </trkpt>
      <trkpt lat="40.66709" lon="-2.0719000000000003">
        <time>2021-06-19T11:24:40+0000</time>
      </trkpt>
      <trkpt lat="40.66704" lon="-2.0719000000000003">
        <time>2021-06-19T11:24:41+0000</time>
      </trkpt>
      <trkpt lat="40.667" lon="-2.07195">
        <time>2021-06-19T11:24:42+0000</time>
      </trkpt>
      <trkpt lat="40.66695" lon="-2.07195">
        <time>2021-06-19T11:24:43+0000</time>
      </trkpt>
      <trkpt lat="40.666900000000005" lon="-2.0719800000000004">
        <time>2021-06-19T11:24:44+0000</time>
      </trkpt>
      <trkpt lat="40.666850000000004" lon="-2.072">
        <time>2021-06-19T11:24:45+0000</time>
      </trkpt>
      <trkpt lat="40.666790000000006" lon="-2.0720300000000003">
        <time>2021-06-19T11:24:46+0000</time>
      </trkpt>
      <trkpt lat="40.666720000000005" lon="-2.07206">
        <time>2021-06-19T11:24:47+0000</time>
      </trkpt>
      <trkpt lat="40.66666" lon="-2.07208">
        <time>2021-06-19T11:24:48+0000</time>
      </trkpt>
      <trkpt lat="40.66659000000001" lon="-2.0721000000000003">
        <time>2021-06-19T11:24:49+0000</time>
      </trkpt>
      <trkpt lat="40.66653" lon="-2.07212">
        <time>2021-06-19T11:24:50+0000</time>
      </trkpt>
      <trkpt lat="40.66646" lon="-2.07214">
        <time>2021-06-19T11:24:51+0000</time>
      </trkpt>
      <trkpt lat="40.66639" lon="-2.07214">
        <time>2021-06-19T11:24:52+0000</time>
      </trkpt>
      <trkpt lat="40.666320000000006" lon="-2.0721700000000003">
        <time>2021-06-19T11:24:53+0000</time>
      </trkpt>
      <trkpt lat="40.66624" lon="-2.0721800000000004">
        <time>2021-06-19T11:24:54+0000</time>
      </trkpt>
      <trkpt lat="40.66615" lon="-2.0721600000000002">
        <time>2021-06-19T11:24:55+0000</time>
      </trkpt>
      <trkpt lat="40.66606" lon="-2.07212">
        <time>2021-06-19T11:24:56+0000</time>
      </trkpt>
      <trkpt lat="40.665980000000005" lon="-2.07206">
        <time>2021-06-19T11:24:57+0000</time>
      </trkpt>
      <trkpt lat="40.665910000000004" lon="-2.072">
        <time>2021-06-19T11:24:58+0000</time>
      </trkpt>
      <trkpt lat="40.665850000000006" lon="-2.07193">
        <time>2021-06-19T11:24:59+0000</time>
      </trkpt>
      <trkpt lat="40.66579" lon="-2.07185">
        <time>2021-06-19T11:25:00+0000</time>
      </trkpt>
      <trkpt lat="40.66573" lon="-2.07178">
        <time>2021-06-19T11:25:01+0000</time>
      </trkpt>
      <trkpt lat="40.665670000000006" lon="-2.0717000000000003">
        <time>2021-06-19T11:25:02+0000</time>
      </trkpt>
      <trkpt lat="40.66561" lon="-2.07161">
        <time>2021-06-19T11:25:03+0000</time>
      </trkpt>
      <trkpt lat="40.66555" lon="-2.07151">
        <time>2021-06-19T11:25:04+0000</time>
      </trkpt>
      <trkpt lat="40.66548" lon="-2.0714200000000003">
        <time>2021-06-19T11:25:05+0000</time>
      </trkpt>
      <trkpt lat="40.66541" lon="-2.07134">
        <time>2021-06-19T11:25:06+0000</time>
      </trkpt>
      <trkpt lat="40.665350000000004" lon="-2.0713000000000004">
        <time>2021-06-19T11:25:07+0000</time>
      </trkpt>
      <trkpt lat="40.6653" lon="-2.07127">
        <time>2021-06-19T11:25:08+0000</time>
      </trkpt>
      <trkpt lat="40.66526" lon="-2.07125">
        <time>2021-06-19T11:25:09+0000</time>
      </trkpt>
      <trkpt lat="40.665220000000005" lon="-2.07124">
        <time>2021-06-19T11:25:10+0000</time>
      </trkpt>
      <trkpt lat="40.66519" lon="-2.07121">
        <time>2021-06-19T11:25:11+0000</time>
      </trkpt>
      <trkpt lat="40.665150000000004" lon="-2.07121">
        <time>2021-06-19T11:25:12+0000</time>
      </trkpt>
      <trkpt lat="40.665110000000006" lon="-2.07119">
        <time>2021-06-19T11:25:13+0000</time>
      </trkpt>
      <trkpt lat="40.66507" lon="-2.07117">
        <time>2021-06-19T11:25:14+0000</time>
      </trkpt>
      <trkpt lat="40.66503" lon="-2.0711500000000003">
        <time>2021-06-19T11:25:15+0000</time>
      </trkpt>
      <trkpt lat="40.665000000000006" lon="-2.07111">
        <time>2021-06-19T11:25:16+0000</time>
      </trkpt>
      <trkpt lat="40.66496" lon="-2.0710900000000003">
        <time>2021-06-19T11:25:17+0000</time>
      </trkpt>
      <trkpt lat="40.66492" lon="-2.07106">
        <time>2021-06-19T11:25:18+0000</time>
      </trkpt>
      <trkpt lat="40.664880000000004" lon="-2.07104">
        <time>2021-06-19T11:25:19+0000</time>
      </trkpt>
      <trkpt lat="40.664840000000005" lon="-2.0710200000000003">
        <time>2021-06-19T11:25:20+0000</time>
      </trkpt>
      <trkpt lat="40.66481" lon="-2.07099">
        <time>2021-06-19T11:25:21+0000</time>
      </trkpt>
      <trkpt lat="40.66478" lon="-2.0709500000000003">
        <time>2021-06-19T11:25:22+0000</time>
      </trkpt>
      <trkpt lat="40.66474" lon="-2.07092">
        <time>2021-06-19T11:25:23+0000</time>
      </trkpt>
      <trkpt lat="40.664750000000005" lon="-2.07084">
        <time>2021-06-19T11:25:24+0000</time>
      </trkpt>
      <trkpt lat="40.66476" lon="-2.07078">
        <time>2021-06-19T11:25:25+0000</time>
      </trkpt>
      <trkpt lat="40.66480000000001" lon="-2.0707400000000002">
        <time>2021-06-19T11:25:26+0000</time>
      </trkpt>
      <trkpt lat="40.664840000000005" lon="-2.07071">
        <time>2021-06-19T11:25:27+0000</time>
      </trkpt>
      <trkpt lat="40.66489000000001" lon="-2.0706900000000004">
        <time>2021-06-19T11:25:28+0000</time>
      </trkpt>
      <trkpt lat="40.66494" lon="-2.07072">
        <time>2021-06-19T11:25:29+0000</time>
      </trkpt>
      <trkpt lat="40.66499" lon="-2.0707500000000003">
        <time>2021-06-19T11:25:30+0000</time>
      </trkpt>
      <trkpt lat="40.66503" lon="-2.07079">
        <time>2021-06-19T11:25:31+0000</time>
      </trkpt>
      <trkpt lat="40.66507" lon="-2.07083">
        <time>2021-06-19T11:25:32+0000</time>
      </trkpt>
      <trkpt lat="40.66512" lon="-2.07086">
        <time>2021-06-19T11:25:33+0000</time>
      </trkpt>
      <trkpt lat="40.66517" lon="-2.0708900000000003">
        <time>2021-06-19T11:25:34+0000</time>
      </trkpt>
      <trkpt lat="40.665220000000005" lon="-2.07093">
        <time>2021-06-19T11:25:35+0000</time>
      </trkpt>
      <trkpt lat="40.66528" lon="-2.0709500000000003">
        <time>2021-06-19T11:25:36+0000</time>
      </trkpt>
      <trkpt lat="40.66534" lon="-2.07093">
        <time>2021-06-19T11:25:37+0000</time>
      </trkpt>
      <trkpt lat="40.66537" lon="-2.07087">
        <time>2021-06-19T11:25:38+0000</time>
      </trkpt>
      <trkpt lat="40.66539" lon="-2.0708100000000003">
        <time>2021-06-19T11:25:39+0000</time>
      </trkpt>
      <trkpt lat="40.66536000000001" lon="-2.0707400000000002">
        <time>2021-06-19T11:25:40+0000</time>
      </trkpt>
      <trkpt lat="40.66532" lon="-2.0706900000000004">
        <time>2021-06-19T11:25:41+0000</time>
      </trkpt>
      <trkpt lat="40.66526" lon="-2.07065">
        <time>2021-06-19T11:25:42+0000</time>
      </trkpt>
      <trkpt lat="40.665200000000006" lon="-2.0706100000000003">
        <time>2021-06-19T11:25:43+0000</time>
      </trkpt>
      <trkpt lat="40.665150000000004" lon="-2.07058">
        <time>2021-06-19T11:25:44+0000</time>
      </trkpt>
      <trkpt lat="40.665090000000006" lon="-2.0705400000000003">
        <time>2021-06-19T11:25:45+0000</time>
      </trkpt>
      <trkpt lat="40.66503" lon="-2.07051">
        <time>2021-06-19T11:25:46+0000</time>
      </trkpt>
      <trkpt lat="40.66498" lon="-2.0704700000000003">
        <time>2021-06-19T11:25:47+0000</time>
      </trkpt>
      <trkpt lat="40.664930000000005" lon="-2.0704200000000004">
        <time>2021-06-19T11:25:48+0000</time>
      </trkpt>
      <trkpt lat="40.664880000000004" lon="-2.07037">
        <time>2021-06-19T11:25:49+0000</time>
      </trkpt>
      <trkpt lat="40.66483" lon="-2.07031">
        <time>2021-06-19T11:25:50+0000</time>
      </trkpt>
      <trkpt lat="40.66478" lon="-2.07026">
        <time>2021-06-19T11:25:51+0000</time>
      </trkpt>
      <trkpt lat="40.66474" lon="-2.0702100000000003">
        <time>2021-06-19T11:25:52+0000</time>
      </trkpt>
      <trkpt lat="40.664680000000004" lon="-2.0702000000000003">
        <time>2021-06-19T11:25:53+0000</time>
      </trkpt>
      <trkpt lat="40.664620000000006" lon="-2.07022">
        <time>2021-06-19T11:25:54+0000</time>
      </trkpt>
      <trkpt lat="40.66456" lon="-2.07024">
        <time>2021-06-19T11:25:55+0000</time>
      </trkpt>
      <trkpt lat="40.664500000000004" lon="-2.0702700000000003">
        <time>2021-06-19T11:25:56+0000</time>
      </trkpt>
      <trkpt lat="40.66445" lon="-2.0703">
        <time>2021-06-19T11:25:57+0000</time>
      </trkpt>
      <trkpt lat="40.664390000000004" lon="-2.07032">
        <time>2021-06-19T11:25:58+0000</time>
      </trkpt>
      <trkpt lat="40.66434" lon="-2.07031">
        <time>2021-06-19T11:25:59+0000</time>
      </trkpt>
      <trkpt lat="40.66429" lon="-2.07029">
        <time>2021-06-19T11:26:00+0000</time>
      </trkpt>
      <trkpt lat="40.66425" lon="-2.07025">
        <time>2021-06-19T11:26:01+0000</time>
      </trkpt>
      <trkpt lat="40.664210000000004" lon="-2.0702000000000003">
        <time>2021-06-19T11:26:02+0000</time>
      </trkpt>
      <trkpt lat="40.66416" lon="-2.0701400000000003">
        <time>2021-06-19T11:26:03+0000</time>
      </trkpt>
      <trkpt lat="40.664120000000004" lon="-2.0700800000000004">
        <time>2021-06-19T11:26:04+0000</time>
      </trkpt>
      <trkpt lat="40.66407" lon="-2.07002">
        <time>2021-06-19T11:26:05+0000</time>
      </trkpt>
      <trkpt lat="40.664" lon="-2.06997">
        <time>2021-06-19T11:26:06+0000</time>
      </trkpt>
      <trkpt lat="40.66391" lon="-2.06991">
        <time>2021-06-19T11:26:07+0000</time>
      </trkpt>
      <trkpt lat="40.663810000000005" lon="-2.0699">
        <time>2021-06-19T11:26:08+0000</time>
      </trkpt>
      <trkpt lat="40.663720000000005" lon="-2.0698800000000004">
        <time>2021-06-19T11:26:09+0000</time>
      </trkpt>
      <trkpt lat="40.66362" lon="-2.0698700000000003">
        <time>2021-06-19T11:26:10+0000</time>
      </trkpt>
      <trkpt lat="40.66353" lon="-2.06985">
        <time>2021-06-19T11:26:11+0000</time>
      </trkpt>
      <trkpt lat="40.663430000000005" lon="-2.06983">
        <time>2021-06-19T11:26:12+0000</time>
      </trkpt>
      <trkpt lat="40.66333" lon="-2.0698000000000003">
        <time>2021-06-19T11:26:13+0000</time>
      </trkpt>
      <trkpt lat="40.663230000000006" lon="-2.06978">
        <time>2021-06-19T11:26:14+0000</time>
      </trkpt>
      <trkpt lat="40.66313" lon="-2.06975">
        <time>2021-06-19T11:26:15+0000</time>
      </trkpt>
      <trkpt lat="40.66304" lon="-2.0697400000000004">
        <time>2021-06-19T11:26:16+0000</time>
      </trkpt>
      <trkpt lat="40.66293" lon="-2.0697200000000002">
        <time>2021-06-19T11:26:17+0000</time>
      </trkpt>
      <trkpt lat="40.66282" lon="-2.06976">
        <time>2021-06-19T11:26:18+0000</time>
      </trkpt>
      <trkpt lat="40.6627" lon="-2.06983">
        <time>2021-06-19T11:26:19+0000</time>
      </trkpt>
      <trkpt lat="40.66257" lon="-2.06991">
        <time>2021-06-19T11:26:20+0000</time>
      </trkpt>
      <trkpt lat="40.662440000000004" lon="-2.06999">
        <time>2021-06-19T11:26:21+0000</time>
      </trkpt>
      <trkpt lat="40.66232" lon="-2.0700600000000002">
        <time>2021-06-19T11:26:22+0000</time>
      </trkpt>
      <trkpt lat="40.662200000000006" lon="-2.0701300000000002">
        <time>2021-06-19T11:26:23+0000</time>
      </trkpt>
      <trkpt lat="40.662090000000006" lon="-2.07017">
        <time>2021-06-19T11:26:24+0000</time>
      </trkpt>
      <trkpt lat="40.66199" lon="-2.07018">
        <time>2021-06-19T11:26:25+0000</time>
      </trkpt>
      <trkpt lat="40.661880000000004" lon="-2.07016">
        <time>2021-06-19T11:26:26+0000</time>
      </trkpt>
      <trkpt lat="40.66178" lon="-2.0701">
        <time>2021-06-19T11:26:27+0000</time>
      </trkpt>
      <trkpt lat="40.66169" lon="-2.06999">
        <time>2021-06-19T11:26:28+0000</time>
      </trkpt>
      <trkpt lat="40.66161" lon="-2.0698700000000003">
        <time>2021-06-19T11:26:29+0000</time>
      </trkpt>
      <trkpt lat="40.661500000000004" lon="-2.0697900000000002">
        <time>2021-06-19T11:26:30+0000</time>
      </trkpt>
      <trkpt lat="40.66138" lon="-2.0697400000000004">
        <time>2021-06-19T11:26:31+0000</time>
      </trkpt>
      <trkpt lat="40.66125" lon="-2.0697">
        <time>2021-06-19T11:26:32+0000</time>
      </trkpt>
      <trkpt lat="40.661080000000005" lon="-2.0697300000000003">
        <time>2021-06-19T11:26:33+0000</time>
      </trkpt>
      <trkpt lat="40.660900000000005" lon="-2.06975">
        <time>2021-06-19T11:26:34+0000</time>
      </trkpt>
      <trkpt lat="40.66073" lon="-2.0697400000000004">
        <time>2021-06-19T11:26:35+0000</time>
      </trkpt>
      <trkpt lat="40.66055" lon="-2.06971">
        <time>2021-06-19T11:26:36+0000</time>
      </trkpt>
      <trkpt lat="40.66037" lon="-2.0697">
        <time>2021-06-19T11:26:37+0000</time>
      </trkpt>
      <trkpt lat="40.660180000000004" lon="-2.0697">
        <time>2021-06-19T11:26:38+0000</time>
      </trkpt>
      <trkpt lat="40.659980000000004" lon="-2.06969">
        <time>2021-06-19T11:26:39+0000</time>
      </trkpt>
      <trkpt lat="40.659780000000005" lon="-2.06969">
        <time>2021-06-19T11:26:40+0000</time>
      </trkpt>
      <trkpt lat="40.659600000000005" lon="-2.06964">
        <time>2021-06-19T11:26:41+0000</time>
      </trkpt>
      <trkpt lat="40.65941" lon="-2.06961">
        <time>2021-06-19T11:26:42+0000</time>
      </trkpt>
      <trkpt lat="40.65923" lon="-2.06957">
        <time>2021-06-19T11:26:43+0000</time>
      </trkpt>
      <trkpt lat="40.659060000000004" lon="-2.0695">
        <time>2021-06-19T11:26:44+0000</time>
      </trkpt>
      <trkpt lat="40.65889000000001" lon="-2.06944">
        <time>2021-06-19T11:26:45+0000</time>
      </trkpt>
      <trkpt lat="40.65872" lon="-2.06938">
        <time>2021-06-19T11:26:46+0000</time>
      </trkpt>
      <trkpt lat="40.65854" lon="-2.0693300000000003">
        <time>2021-06-19T11:26:47+0000</time>
      </trkpt>
      <trkpt lat="40.65836" lon="-2.0693">
        <time>2021-06-19T11:26:48+0000</time>
      </trkpt>
      <trkpt lat="40.65816" lon="-2.06928">
        <time>2021-06-19T11:26:49+0000</time>
      </trkpt>
      <trkpt lat="40.65796" lon="-2.06928">
        <time>2021-06-19T11:26:50+0000</time>
      </trkpt>
      <trkpt lat="40.65776" lon="-2.06928">
        <time>2021-06-19T11:26:51+0000</time>
      </trkpt>
      <trkpt lat="40.65755" lon="-2.06929">
        <time>2021-06-19T11:26:52+0000</time>
      </trkpt>
      <trkpt lat="40.65735" lon="-2.06929">
        <time>2021-06-19T11:26:53+0000</time>
      </trkpt>
      <trkpt lat="40.657160000000005" lon="-2.0692700000000004">
        <time>2021-06-19T11:26:54+0000</time>
      </trkpt>
      <trkpt lat="40.656960000000005" lon="-2.06922">
        <time>2021-06-19T11:26:55+0000</time>
      </trkpt>
      <trkpt lat="40.656760000000006" lon="-2.06914">
        <time>2021-06-19T11:26:56+0000</time>
      </trkpt>
      <trkpt lat="40.656560000000006" lon="-2.06904">
        <time>2021-06-19T11:26:57+0000</time>
      </trkpt>
      <trkpt lat="40.65636000000001" lon="-2.0689300000000004">
        <time>2021-06-19T11:26:58+0000</time>
      </trkpt>
      <trkpt lat="40.65616" lon="-2.06882">
        <time>2021-06-19T11:26:59+0000</time>
      </trkpt>
      <trkpt lat="40.65596" lon="-2.06876">
        <time>2021-06-19T11:27:00+0000</time>
      </trkpt>
      <trkpt lat="40.655750000000005" lon="-2.06868">
        <time>2021-06-19T11:27:01+0000</time>
      </trkpt>
      <trkpt lat="40.655530000000006" lon="-2.0686600000000004">
        <time>2021-06-19T11:27:02+0000</time>
      </trkpt>
      <trkpt lat="40.65531" lon="-2.06868">
        <time>2021-06-19T11:27:03+0000</time>
      </trkpt>
      <trkpt lat="40.65507" lon="-2.0687100000000003">
        <time>2021-06-19T11:27:04+0000</time>
      </trkpt>
      <trkpt lat="40.65484" lon="-2.06874">
        <time>2021-06-19T11:27:05+0000</time>
      </trkpt>
      <trkpt lat="40.654610000000005" lon="-2.06877">
        <time>2021-06-19T11:27:06+0000</time>
      </trkpt>
      <trkpt lat="40.65437" lon="-2.06875">
        <time>2021-06-19T11:27:07+0000</time>
      </trkpt>
      <trkpt lat="40.654140000000005" lon="-2.0687">
        <time>2021-06-19T11:27:08+0000</time>
      </trkpt>
      <trkpt lat="40.65392000000001" lon="-2.0686">
        <time>2021-06-19T11:27:09+0000</time>
      </trkpt>
      <trkpt lat="40.653710000000004" lon="-2.06846">
        <time>2021-06-19T11:27:10+0000</time>
      </trkpt>
      <trkpt lat="40.6535" lon="-2.0683000000000002">
        <time>2021-06-19T11:27:11+0000</time>
      </trkpt>
      <trkpt lat="40.6533" lon="-2.06813">
        <time>2021-06-19T11:27:12+0000</time>
      </trkpt>
      <trkpt lat="40.6531" lon="-2.06794">
        <time>2021-06-19T11:27:13+0000</time>
      </trkpt>
      <trkpt lat="40.6529" lon="-2.0677700000000003">
        <time>2021-06-19T11:27:14+0000</time>
      </trkpt>
      <trkpt lat="40.652710000000006" lon="-2.0676">
        <time>2021-06-19T11:27:15+0000</time>
      </trkpt>
      <trkpt lat="40.65252" lon="-2.0674300000000003">
        <time>2021-06-19T11:27:16+0000</time>
      </trkpt>
      <trkpt lat="40.652330000000006" lon="-2.06727">
        <time>2021-06-19T11:27:17+0000</time>
      </trkpt>
      <trkpt lat="40.652150000000006" lon="-2.06712">
        <time>2021-06-19T11:27:18+0000</time>
      </trkpt>
      <trkpt lat="40.65198" lon="-2.06698">
        <time>2021-06-19T11:27:19+0000</time>
      </trkpt>
      <trkpt lat="40.6518" lon="-2.06684">
        <time>2021-06-19T11:27:20+0000</time>
      </trkpt>
      <trkpt lat="40.651610000000005" lon="-2.06671">
        <time>2021-06-19T11:27:21+0000</time>
      </trkpt>
      <trkpt lat="40.65142" lon="-2.0666200000000003">
        <time>2021-06-19T11:27:22+0000</time>
      </trkpt>
      <trkpt lat="40.65122" lon="-2.06653">
        <time>2021-06-19T11:27:23+0000</time>
      </trkpt>
      <trkpt lat="40.65101000000001" lon="-2.0664700000000003">
        <time>2021-06-19T11:27:24+0000</time>
      </trkpt>
      <trkpt lat="40.650800000000004" lon="-2.0664200000000004">
        <time>2021-06-19T11:27:25+0000</time>
      </trkpt>
      <trkpt lat="40.650580000000005" lon="-2.0664000000000002">
        <time>2021-06-19T11:27:26+0000</time>
      </trkpt>
      <trkpt lat="40.650380000000006" lon="-2.06644">
        <time>2021-06-19T11:27:27+0000</time>
      </trkpt>
      <trkpt lat="40.65019" lon="-2.0664700000000003">
        <time>2021-06-19T11:27:28+0000</time>
      </trkpt>
      <trkpt lat="40.650020000000005" lon="-2.06651">
        <time>2021-06-19T11:27:29+0000</time>
      </trkpt>
      <trkpt lat="40.64985" lon="-2.06656">
        <time>2021-06-19T11:27:30+0000</time>
      </trkpt>
      <trkpt lat="40.649680000000004" lon="-2.0666100000000003">
        <time>2021-06-19T11:27:31+0000</time>
      </trkpt>
      <trkpt lat="40.6495" lon="-2.06666">
        <time>2021-06-19T11:27:32+0000</time>
      </trkpt>
      <trkpt lat="40.64932" lon="-2.0667400000000002">
        <time>2021-06-19T11:27:33+0000</time>
      </trkpt>
      <trkpt lat="40.649150000000006" lon="-2.06685">
        <time>2021-06-19T11:27:34+0000</time>
      </trkpt>
      <trkpt lat="40.648990000000005" lon="-2.0669600000000004">
        <time>2021-06-19T11:27:35+0000</time>
      </trkpt>
      <trkpt lat="40.64882" lon="-2.06707">
        <time>2021-06-19T11:27:36+0000</time>
      </trkpt>
      <trkpt lat="40.64865" lon="-2.06717">
        <time>2021-06-19T11:27:37+0000</time>
      </trkpt>
      <trkpt lat="40.64847" lon="-2.06727">
        <time>2021-06-19T11:27:38+0000</time>
      </trkpt>
      <trkpt lat="40.64828000000001" lon="-2.06733">
        <time>2021-06-19T11:27:39+0000</time>
      </trkpt>
      <trkpt lat="40.64808" lon="-2.0673600000000003">
        <time>2021-06-19T11:27:40+0000</time>
      </trkpt>
      <trkpt lat="40.64788" lon="-2.0673600000000003">
        <time>2021-06-19T11:27:41+0000</time>
      </trkpt>
      <trkpt lat="40.64766" lon="-2.06733">
        <time>2021-06-19T11:27:42+0000</time>
      </trkpt>
      <trkpt lat="40.647450000000006" lon="-2.06727">
        <time>2021-06-19T11:27:43+0000</time>
      </trkpt>
      <trkpt lat="40.647240000000004" lon="-2.06717">
        <time>2021-06-19T11:27:44+0000</time>
      </trkpt>
      <trkpt lat="40.64703" lon="-2.0670300000000004">
        <time>2021-06-19T11:27:45+0000</time>
      </trkpt>
      <trkpt lat="40.646840000000005" lon="-2.06687">
        <time>2021-06-19T11:27:46+0000</time>
      </trkpt>
      <trkpt lat="40.646660000000004" lon="-2.0666800000000003">
        <time>2021-06-19T11:27:47+0000</time>
      </trkpt>
      <trkpt lat="40.646480000000004" lon="-2.06652">
        <time>2021-06-19T11:27:48+0000</time>
      </trkpt>
      <trkpt lat="40.64632" lon="-2.0663500000000004">
        <time>2021-06-19T11:27:49+0000</time>
      </trkpt>
      <trkpt lat="40.646170000000005" lon="-2.06618">
        <time>2021-06-19T11:27:50+0000</time>
      </trkpt>
      <trkpt lat="40.64602" lon="-2.06602">
        <time>2021-06-19T11:27:51+0000</time>
      </trkpt>
      <trkpt lat="40.645880000000005" lon="-2.06585">
        <time>2021-06-19T11:27:52+0000</time>
      </trkpt>
      <trkpt lat="40.64574" lon="-2.0657">
        <time>2021-06-19T11:27:53+0000</time>
      </trkpt>
      <trkpt lat="40.645590000000006" lon="-2.0655400000000004">
        <time>2021-06-19T11:27:54+0000</time>
      </trkpt>
      <trkpt lat="40.645430000000005" lon="-2.0654000000000003">
        <time>2021-06-19T11:27:55+0000</time>
      </trkpt>
      <trkpt lat="40.64526" lon="-2.06523">
        <time>2021-06-19T11:27:56+0000</time>
      </trkpt>
      <trkpt lat="40.645100000000006" lon="-2.0650500000000003">
        <time>2021-06-19T11:27:57+0000</time>
      </trkpt>
      <trkpt lat="40.644940000000005" lon="-2.06483">
        <time>2021-06-19T11:27:58+0000</time>
      </trkpt>
      <trkpt lat="40.644800000000004" lon="-2.06462">
        <time>2021-06-19T11:27:59+0000</time>
      </trkpt>
      <trkpt lat="40.644670000000005" lon="-2.0643700000000003">
        <time>2021-06-19T11:28:00+0000</time>
      </trkpt>
      <trkpt lat="40.644560000000006" lon="-2.0641100000000003">
        <time>2021-06-19T11:28:01+0000</time>
      </trkpt>
      <trkpt lat="40.6445" lon="-2.0638300000000003">
        <time>2021-06-19T11:28:02+0000</time>
      </trkpt>
      <trkpt lat="40.644450000000006" lon="-2.0635700000000003">
        <time>2021-06-19T11:28:03+0000</time>
      </trkpt>
      <trkpt lat="40.64441" lon="-2.06332">
        <time>2021-06-19T11:28:04+0000</time>
      </trkpt>
      <trkpt lat="40.644360000000006" lon="-2.0630800000000002">
        <time>2021-06-19T11:28:05+0000</time>
      </trkpt>
      <trkpt lat="40.64432" lon="-2.06285">
        <time>2021-06-19T11:28:06+0000</time>
      </trkpt>
      <trkpt lat="40.64426" lon="-2.06263">
        <time>2021-06-19T11:28:07+0000</time>
      </trkpt>
      <trkpt lat="40.64419" lon="-2.0624000000000002">
        <time>2021-06-19T11:28:08+0000</time>
      </trkpt>
      <trkpt lat="40.644110000000005" lon="-2.06218">
        <time>2021-06-19T11:28:09+0000</time>
      </trkpt>
      <trkpt lat="40.64401" lon="-2.06195">
        <time>2021-06-19T11:28:10+0000</time>
      </trkpt>
      <trkpt lat="40.643890000000006" lon="-2.06172">
        <time>2021-06-19T11:28:11+0000</time>
      </trkpt>
      <trkpt lat="40.64374" lon="-2.0615200000000002">
        <time>2021-06-19T11:28:12+0000</time>
      </trkpt>
      <trkpt lat="40.64359" lon="-2.06131">
        <time>2021-06-19T11:28:13+0000</time>
      </trkpt>
      <trkpt lat="40.64341" lon="-2.0611300000000004">
        <time>2021-06-19T11:28:14+0000</time>
      </trkpt>
      <trkpt lat="40.64321" lon="-2.06097">
        <time>2021-06-19T11:28:15+0000</time>
      </trkpt>
      <trkpt lat="40.643" lon="-2.06083">
        <time>2021-06-19T11:28:16+0000</time>
      </trkpt>
      <trkpt lat="40.64278" lon="-2.0607200000000003">
        <time>2021-06-19T11:28:17+0000</time>
      </trkpt>
      <trkpt lat="40.64256" lon="-2.06061">
        <time>2021-06-19T11:28:18+0000</time>
      </trkpt>
      <trkpt lat="40.642340000000004" lon="-2.0605">
        <time>2021-06-19T11:28:19+0000</time>
      </trkpt>
      <trkpt lat="40.642120000000006" lon="-2.0603900000000004">
        <time>2021-06-19T11:28:20+0000</time>
      </trkpt>
      <trkpt lat="40.64190000000001" lon="-2.06028">
        <time>2021-06-19T11:28:21+0000</time>
      </trkpt>
      <trkpt lat="40.641690000000004" lon="-2.0601800000000003">
        <time>2021-06-19T11:28:22+0000</time>
      </trkpt>
      <trkpt lat="40.64148" lon="-2.06008">
        <time>2021-06-19T11:28:23+0000</time>
      </trkpt>
      <trkpt lat="40.64128" lon="-2.0599800000000004">
        <time>2021-06-19T11:28:24+0000</time>
      </trkpt>
      <trkpt lat="40.641090000000005" lon="-2.05989">
        <time>2021-06-19T11:28:25+0000</time>
      </trkpt>
      <trkpt lat="40.640910000000005" lon="-2.05979">
        <time>2021-06-19T11:28:26+0000</time>
      </trkpt>
      <trkpt lat="40.64072" lon="-2.0597000000000003">
        <time>2021-06-19T11:28:27+0000</time>
      </trkpt>
      <trkpt lat="40.640530000000005" lon="-2.05961">
        <time>2021-06-19T11:28:28+0000</time>
      </trkpt>
      <trkpt lat="40.64034" lon="-2.05951">
        <time>2021-06-19T11:28:29+0000</time>
      </trkpt>
      <trkpt lat="40.640150000000006" lon="-2.0594200000000003">
        <time>2021-06-19T11:28:30+0000</time>
      </trkpt>
      <trkpt lat="40.63996" lon="-2.05932">
        <time>2021-06-19T11:28:31+0000</time>
      </trkpt>
      <trkpt lat="40.639770000000006" lon="-2.0592300000000003">
        <time>2021-06-19T11:28:32+0000</time>
      </trkpt>
      <trkpt lat="40.63958" lon="-2.0591000000000004">
        <time>2021-06-19T11:28:33+0000</time>
      </trkpt>
      <trkpt lat="40.6394" lon="-2.0589500000000003">
        <time>2021-06-19T11:28:34+0000</time>
      </trkpt>
      <trkpt lat="40.639230000000005" lon="-2.05877">
        <time>2021-06-19T11:28:35+0000</time>
      </trkpt>
      <trkpt lat="40.639070000000004" lon="-2.05857">
        <time>2021-06-19T11:28:36+0000</time>
      </trkpt>
      <trkpt lat="40.63891" lon="-2.0583500000000003">
        <time>2021-06-19T11:28:37+0000</time>
      </trkpt>
      <trkpt lat="40.638760000000005" lon="-2.05812">
        <time>2021-06-19T11:28:38+0000</time>
      </trkpt>
      <trkpt lat="40.63862" lon="-2.0579">
        <time>2021-06-19T11:28:39+0000</time>
      </trkpt>
      <trkpt lat="40.63848" lon="-2.0576700000000003">
        <time>2021-06-19T11:28:40+0000</time>
      </trkpt>
      <trkpt lat="40.63833" lon="-2.0574500000000002">
        <time>2021-06-19T11:28:41+0000</time>
      </trkpt>
      <trkpt lat="40.63817" lon="-2.05722">
        <time>2021-06-19T11:28:42+0000</time>
      </trkpt>
      <trkpt lat="40.638020000000004" lon="-2.0570000000000004">
        <time>2021-06-19T11:28:43+0000</time>
      </trkpt>
      <trkpt lat="40.63786" lon="-2.05681">
        <time>2021-06-19T11:28:44+0000</time>
      </trkpt>
      <trkpt lat="40.637710000000006" lon="-2.0565900000000004">
        <time>2021-06-19T11:28:45+0000</time>
      </trkpt>
      <trkpt lat="40.637530000000005" lon="-2.05642">
        <time>2021-06-19T11:28:46+0000</time>
      </trkpt>
      <trkpt lat="40.637350000000005" lon="-2.0562500000000004">
        <time>2021-06-19T11:28:47+0000</time>
      </trkpt>
      <trkpt lat="40.637170000000005" lon="-2.05608">
        <time>2021-06-19T11:28:48+0000</time>
      </trkpt>
      <trkpt lat="40.636990000000004" lon="-2.0559100000000003">
        <time>2021-06-19T11:28:49+0000</time>
      </trkpt>
      <trkpt lat="40.636810000000004" lon="-2.05572">
        <time>2021-06-19T11:28:50+0000</time>
      </trkpt>
      <trkpt lat="40.636630000000004" lon="-2.05551">
        <time>2021-06-19T11:28:51+0000</time>
      </trkpt>
      <trkpt lat="40.63646000000001" lon="-2.05528">
        <time>2021-06-19T11:28:52+0000</time>
      </trkpt>
      <trkpt lat="40.636300000000006" lon="-2.05504">
        <time>2021-06-19T11:28:53+0000</time>
      </trkpt>
      <trkpt lat="40.63613" lon="-2.0548">
        <time>2021-06-19T11:28:54+0000</time>
      </trkpt>
      <trkpt lat="40.63597" lon="-2.0545600000000004">
        <time>2021-06-19T11:28:55+0000</time>
      </trkpt>
      <trkpt lat="40.635810000000006" lon="-2.05432">
        <time>2021-06-19T11:28:56+0000</time>
      </trkpt>
      <trkpt lat="40.63566" lon="-2.05409">
        <time>2021-06-19T11:28:57+0000</time>
      </trkpt>
      <trkpt lat="40.6355" lon="-2.05385">
        <time>2021-06-19T11:28:58+0000</time>
      </trkpt>
      <trkpt lat="40.63534000000001" lon="-2.05362">
        <time>2021-06-19T11:28:59+0000</time>
      </trkpt>
      <trkpt lat="40.635180000000005" lon="-2.05337">
        <time>2021-06-19T11:29:00+0000</time>
      </trkpt>
      <trkpt lat="40.635020000000004" lon="-2.05314">
        <time>2021-06-19T11:29:01+0000</time>
      </trkpt>
      <trkpt lat="40.63485" lon="-2.05289">
        <time>2021-06-19T11:29:02+0000</time>
      </trkpt>
      <trkpt lat="40.634690000000006" lon="-2.0526400000000002">
        <time>2021-06-19T11:29:03+0000</time>
      </trkpt>
      <trkpt lat="40.634530000000005" lon="-2.0523900000000004">
        <time>2021-06-19T11:29:04+0000</time>
      </trkpt>
      <trkpt lat="40.634370000000004" lon="-2.05215">
        <time>2021-06-19T11:29:05+0000</time>
      </trkpt>
      <trkpt lat="40.63421" lon="-2.0519100000000003">
        <time>2021-06-19T11:29:06+0000</time>
      </trkpt>
      <trkpt lat="40.634060000000005" lon="-2.05168">
        <time>2021-06-19T11:29:07+0000</time>
      </trkpt>
      <trkpt lat="40.63392" lon="-2.05146">
        <time>2021-06-19T11:29:08+0000</time>
      </trkpt>
      <trkpt lat="40.63378" lon="-2.05125">
        <time>2021-06-19T11:29:09+0000</time>
      </trkpt>
      <trkpt lat="40.63364000000001" lon="-2.05104">
        <time>2021-06-19T11:29:10+0000</time>
      </trkpt>
      <trkpt lat="40.633500000000005" lon="-2.05084">
        <time>2021-06-19T11:29:11+0000</time>
      </trkpt>
      <trkpt lat="40.633370000000006" lon="-2.05064">
        <time>2021-06-19T11:29:12+0000</time>
      </trkpt>
      <trkpt lat="40.63324" lon="-2.05044">
        <time>2021-06-19T11:29:13+0000</time>
      </trkpt>
      <trkpt lat="40.63309" lon="-2.05025">
        <time>2021-06-19T11:29:14+0000</time>
      </trkpt>
      <trkpt lat="40.632960000000004" lon="-2.05006">
        <time>2021-06-19T11:29:15+0000</time>
      </trkpt>
      <trkpt lat="40.63282" lon="-2.04985">
        <time>2021-06-19T11:29:16+0000</time>
      </trkpt>
      <trkpt lat="40.63268" lon="-2.04965">
        <time>2021-06-19T11:29:17+0000</time>
      </trkpt>
      <trkpt lat="40.63255" lon="-2.04944">
        <time>2021-06-19T11:29:18+0000</time>
      </trkpt>
      <trkpt lat="40.632400000000004" lon="-2.0492500000000002">
        <time>2021-06-19T11:29:19+0000</time>
      </trkpt>
      <trkpt lat="40.63226" lon="-2.0490600000000003">
        <time>2021-06-19T11:29:20+0000</time>
      </trkpt>
      <trkpt lat="40.63212" lon="-2.04888">
        <time>2021-06-19T11:29:21+0000</time>
      </trkpt>
      <trkpt lat="40.631980000000006" lon="-2.0487">
        <time>2021-06-19T11:29:22+0000</time>
      </trkpt>
      <trkpt lat="40.63185" lon="-2.04853">
        <time>2021-06-19T11:29:23+0000</time>
      </trkpt>
      <trkpt lat="40.63172" lon="-2.04836">
        <time>2021-06-19T11:29:24+0000</time>
      </trkpt>
      <trkpt lat="40.63159" lon="-2.0482">
        <time>2021-06-19T11:29:25+0000</time>
      </trkpt>
      <trkpt lat="40.63147" lon="-2.0480400000000003">
        <time>2021-06-19T11:29:26+0000</time>
      </trkpt>
      <trkpt lat="40.63134" lon="-2.04787">
        <time>2021-06-19T11:29:27+0000</time>
      </trkpt>
      <trkpt lat="40.63121" lon="-2.0477100000000004">
        <time>2021-06-19T11:29:28+0000</time>
      </trkpt>
      <trkpt lat="40.63109" lon="-2.04754">
        <time>2021-06-19T11:29:29+0000</time>
      </trkpt>
      <trkpt lat="40.630970000000005" lon="-2.04738">
        <time>2021-06-19T11:29:30+0000</time>
      </trkpt>
      <trkpt lat="40.63085" lon="-2.04724">
        <time>2021-06-19T11:29:31+0000</time>
      </trkpt>
      <trkpt lat="40.63074" lon="-2.0470900000000003">
        <time>2021-06-19T11:29:32+0000</time>
      </trkpt>
      <trkpt lat="40.63064000000001" lon="-2.0469600000000003">
        <time>2021-06-19T11:29:33+0000</time>
      </trkpt>
      <trkpt lat="40.63054" lon="-2.0468300000000004">
        <time>2021-06-19T11:29:34+0000</time>
      </trkpt>
      <trkpt lat="40.63044" lon="-2.0467">
        <time>2021-06-19T11:29:35+0000</time>
      </trkpt>
      <trkpt lat="40.630340000000004" lon="-2.04658">
        <time>2021-06-19T11:29:36+0000</time>
      </trkpt>
      <trkpt lat="40.630250000000004" lon="-2.04646">
        <time>2021-06-19T11:29:37+0000</time>
      </trkpt>
      <trkpt lat="40.630160000000004" lon="-2.04633">
        <time>2021-06-19T11:29:38+0000</time>
      </trkpt>
      <trkpt lat="40.63007" lon="-2.0462100000000003">
        <time>2021-06-19T11:29:39+0000</time>
      </trkpt>
      <trkpt lat="40.62998" lon="-2.0461">
        <time>2021-06-19T11:29:40+0000</time>
      </trkpt>
      <trkpt lat="40.629900000000006" lon="-2.04599">
        <time>2021-06-19T11:29:41+0000</time>
      </trkpt>
      <trkpt lat="40.62982" lon="-2.0458800000000004">
        <time>2021-06-19T11:29:42+0000</time>
      </trkpt>
      <trkpt lat="40.629740000000005" lon="-2.04578">
        <time>2021-06-19T11:29:43+0000</time>
      </trkpt>
      <trkpt lat="40.629670000000004" lon="-2.0456700000000003">
        <time>2021-06-19T11:29:44+0000</time>
      </trkpt>
      <trkpt lat="40.62959" lon="-2.04556">
        <time>2021-06-19T11:29:45+0000</time>
      </trkpt>
      <trkpt lat="40.62951" lon="-2.04545">
        <time>2021-06-19T11:29:46+0000</time>
      </trkpt>
      <trkpt lat="40.629430000000006" lon="-2.0453200000000002">
        <time>2021-06-19T11:29:47+0000</time>
      </trkpt>
      <trkpt lat="40.62935" lon="-2.0452000000000004">
        <time>2021-06-19T11:29:48+0000</time>
      </trkpt>
      <trkpt lat="40.629270000000005" lon="-2.0450700000000004">
        <time>2021-06-19T11:29:49+0000</time>
      </trkpt>
      <trkpt lat="40.62919" lon="-2.04495">
        <time>2021-06-19T11:29:50+0000</time>
      </trkpt>
      <trkpt lat="40.629110000000004" lon="-2.04483">
        <time>2021-06-19T11:29:51+0000</time>
      </trkpt>
      <trkpt lat="40.62903" lon="-2.0447100000000002">
        <time>2021-06-19T11:29:52+0000</time>
      </trkpt>
      <trkpt lat="40.628960000000006" lon="-2.0445800000000003">
        <time>2021-06-19T11:29:53+0000</time>
      </trkpt>
      <trkpt lat="40.62888" lon="-2.0444600000000004">
        <time>2021-06-19T11:29:54+0000</time>
      </trkpt>
      <trkpt lat="40.628800000000005" lon="-2.04435">
        <time>2021-06-19T11:29:55+0000</time>
      </trkpt>
      <trkpt lat="40.62872" lon="-2.04423">
        <time>2021-06-19T11:29:56+0000</time>
      </trkpt>
      <trkpt lat="40.62863" lon="-2.0441100000000003">
        <time>2021-06-19T11:29:57+0000</time>
      </trkpt>
      <trkpt lat="40.62854" lon="-2.044">
        <time>2021-06-19T11:29:58+0000</time>
      </trkpt>
      <trkpt lat="40.62845" lon="-2.04389">
        <time>2021-06-19T11:29:59+0000</time>
      </trkpt>
      <trkpt lat="40.62836" lon="-2.0437800000000004">
        <time>2021-06-19T11:30:00+0000</time>
      </trkpt>
      <trkpt lat="40.628260000000004" lon="-2.04367">
        <time>2021-06-19T11:30:01+0000</time>
      </trkpt>
      <trkpt lat="40.62816" lon="-2.04355">
        <time>2021-06-19T11:30:02+0000</time>
      </trkpt>
      <trkpt lat="40.62805" lon="-2.0434300000000003">
        <time>2021-06-19T11:30:03+0000</time>
      </trkpt>
      <trkpt lat="40.627930000000006" lon="-2.04331">
        <time>2021-06-19T11:30:04+0000</time>
      </trkpt>
      <trkpt lat="40.6278" lon="-2.04319">
        <time>2021-06-19T11:30:05+0000</time>
      </trkpt>
      <trkpt lat="40.627660000000006" lon="-2.04307">
        <time>2021-06-19T11:30:06+0000</time>
      </trkpt>
      <trkpt lat="40.627520000000004" lon="-2.04294">
        <time>2021-06-19T11:30:07+0000</time>
      </trkpt>
      <trkpt lat="40.62736" lon="-2.0428">
        <time>2021-06-19T11:30:08+0000</time>
      </trkpt>
      <trkpt lat="40.6272" lon="-2.04267">
        <time>2021-06-19T11:30:09+0000</time>
      </trkpt>
      <trkpt lat="40.627050000000004" lon="-2.0425400000000002">
        <time>2021-06-19T11:30:10+0000</time>
      </trkpt>
      <trkpt lat="40.626900000000006" lon="-2.0424100000000003">
        <time>2021-06-19T11:30:11+0000</time>
      </trkpt>
      <trkpt lat="40.62675" lon="-2.0422900000000004">
        <time>2021-06-19T11:30:12+0000</time>
      </trkpt>
      <trkpt lat="40.6266" lon="-2.04216">
        <time>2021-06-19T11:30:13+0000</time>
      </trkpt>
      <trkpt lat="40.626450000000006" lon="-2.04204">
        <time>2021-06-19T11:30:14+0000</time>
      </trkpt>
      <trkpt lat="40.626310000000004" lon="-2.04192">
        <time>2021-06-19T11:30:15+0000</time>
      </trkpt>
      <trkpt lat="40.62617" lon="-2.0418000000000003">
        <time>2021-06-19T11:30:16+0000</time>
      </trkpt>
      <trkpt lat="40.62603" lon="-2.0416700000000003">
        <time>2021-06-19T11:30:17+0000</time>
      </trkpt>
      <trkpt lat="40.62588" lon="-2.0415400000000004">
        <time>2021-06-19T11:30:18+0000</time>
      </trkpt>
      <trkpt lat="40.625730000000004" lon="-2.04141">
        <time>2021-06-19T11:30:19+0000</time>
      </trkpt>
      <trkpt lat="40.62559" lon="-2.04128">
        <time>2021-06-19T11:30:20+0000</time>
      </trkpt>
      <trkpt lat="40.62545" lon="-2.04114">
        <time>2021-06-19T11:30:21+0000</time>
      </trkpt>
      <trkpt lat="40.625310000000006" lon="-2.0409900000000003">
        <time>2021-06-19T11:30:22+0000</time>
      </trkpt>
      <trkpt lat="40.62519" lon="-2.04084">
        <time>2021-06-19T11:30:23+0000</time>
      </trkpt>
      <trkpt lat="40.625080000000004" lon="-2.04069">
        <time>2021-06-19T11:30:24+0000</time>
      </trkpt>
      <trkpt lat="40.62498" lon="-2.0405200000000003">
        <time>2021-06-19T11:30:25+0000</time>
      </trkpt>
      <trkpt lat="40.62489" lon="-2.04035">
        <time>2021-06-19T11:30:26+0000</time>
      </trkpt>
      <trkpt lat="40.6248" lon="-2.0401800000000003">
        <time>2021-06-19T11:30:27+0000</time>
      </trkpt>
      <trkpt lat="40.62472" lon="-2.04001">
        <time>2021-06-19T11:30:28+0000</time>
      </trkpt>
      <trkpt lat="40.62463" lon="-2.0398500000000004">
        <time>2021-06-19T11:30:29+0000</time>
      </trkpt>
      <trkpt lat="40.624550000000006" lon="-2.0396900000000002">
        <time>2021-06-19T11:30:30+0000</time>
      </trkpt>
      <trkpt lat="40.62447" lon="-2.03955">
        <time>2021-06-19T11:30:31+0000</time>
      </trkpt>
      <trkpt lat="40.62438" lon="-2.03941">
        <time>2021-06-19T11:30:32+0000</time>
      </trkpt>
      <trkpt lat="40.62429" lon="-2.03928">
        <time>2021-06-19T11:30:33+0000</time>
      </trkpt>
      <trkpt lat="40.624190000000006" lon="-2.0391500000000002">
        <time>2021-06-19T11:30:34+0000</time>
      </trkpt>
      <trkpt lat="40.624100000000006" lon="-2.0390300000000003">
        <time>2021-06-19T11:30:35+0000</time>
      </trkpt>
      <trkpt lat="40.624010000000006" lon="-2.03891">
        <time>2021-06-19T11:30:36+0000</time>
      </trkpt>
      <trkpt lat="40.62393" lon="-2.0388">
        <time>2021-06-19T11:30:37+0000</time>
      </trkpt>
      <trkpt lat="40.62384" lon="-2.0386800000000003">
        <time>2021-06-19T11:30:38+0000</time>
      </trkpt>
      <trkpt lat="40.623760000000004" lon="-2.03857">
        <time>2021-06-19T11:30:39+0000</time>
      </trkpt>
      <trkpt lat="40.62368" lon="-2.0384700000000002">
        <time>2021-06-19T11:30:40+0000</time>
      </trkpt>
      <trkpt lat="40.62359" lon="-2.03837">
        <time>2021-06-19T11:30:41+0000</time>
      </trkpt>
      <trkpt lat="40.62351" lon="-2.0382700000000002">
        <time>2021-06-19T11:30:42+0000</time>
      </trkpt>
      <trkpt lat="40.62344" lon="-2.03818">
        <time>2021-06-19T11:30:43+0000</time>
      </trkpt>
      <trkpt lat="40.62337" lon="-2.03809">
        <time>2021-06-19T11:30:44+0000</time>
      </trkpt>
      <trkpt lat="40.6233" lon="-2.03799">
        <time>2021-06-19T11:30:45+0000</time>
      </trkpt>
      <trkpt lat="40.62323000000001" lon="-2.0379">
        <time>2021-06-19T11:30:46+0000</time>
      </trkpt>
      <trkpt lat="40.623160000000006" lon="-2.0378100000000003">
        <time>2021-06-19T11:30:47+0000</time>
      </trkpt>
      <trkpt lat="40.6231" lon="-2.03772">
        <time>2021-06-19T11:30:48+0000</time>
      </trkpt>
      <trkpt lat="40.62304" lon="-2.03763">
        <time>2021-06-19T11:30:49+0000</time>
      </trkpt>
      <trkpt lat="40.62297" lon="-2.03755">
        <time>2021-06-19T11:30:50+0000</time>
      </trkpt>
      <trkpt lat="40.62292" lon="-2.03748">
        <time>2021-06-19T11:30:51+0000</time>
      </trkpt>
      <trkpt lat="40.62288" lon="-2.03742">
        <time>2021-06-19T11:30:52+0000</time>
      </trkpt>
      <trkpt lat="40.622840000000004" lon="-2.03737">
        <time>2021-06-19T11:30:53+0000</time>
      </trkpt>
      <trkpt lat="40.62281" lon="-2.0373400000000004">
        <time>2021-06-19T11:30:54+0000</time>
      </trkpt>
      <trkpt lat="40.622780000000006" lon="-2.0373">
        <time>2021-06-19T11:30:55+0000</time>
      </trkpt>
      <trkpt lat="40.62274" lon="-2.0372600000000003">
        <time>2021-06-19T11:30:56+0000</time>
      </trkpt>
      <trkpt lat="40.622710000000005" lon="-2.03721">
        <time>2021-06-19T11:30:57+0000</time>
      </trkpt>
      <trkpt lat="40.62268" lon="-2.03716">
        <time>2021-06-19T11:30:58+0000</time>
      </trkpt>
      <trkpt lat="40.622640000000004" lon="-2.0371">
        <time>2021-06-19T11:30:59+0000</time>
      </trkpt>
      <trkpt lat="40.62261" lon="-2.0370500000000002">
        <time>2021-06-19T11:31:00+0000</time>
      </trkpt>
      <trkpt lat="40.622580000000006" lon="-2.03701">
        <time>2021-06-19T11:31:01+0000</time>
      </trkpt>
      <trkpt lat="40.622550000000004" lon="-2.03696">
        <time>2021-06-19T11:31:02+0000</time>
      </trkpt>
      <trkpt lat="40.622530000000005" lon="-2.0369200000000003">
        <time>2021-06-19T11:31:03+0000</time>
      </trkpt>
      <trkpt lat="40.6225" lon="-2.03688">
        <time>2021-06-19T11:31:04+0000</time>
      </trkpt>
      <trkpt lat="40.62248" lon="-2.03684">
        <time>2021-06-19T11:31:05+0000</time>
      </trkpt>
      <trkpt lat="40.622460000000004" lon="-2.03681">
        <time>2021-06-19T11:31:06+0000</time>
      </trkpt>
      <trkpt lat="40.62243" lon="-2.03677">
        <time>2021-06-19T11:31:07+0000</time>
      </trkpt>
      <trkpt lat="40.62241" lon="-2.03674">
        <time>2021-06-19T11:31:08+0000</time>
      </trkpt>
      <trkpt lat="40.62239" lon="-2.0367">
        <time>2021-06-19T11:31:09+0000</time>
      </trkpt>
      <trkpt lat="40.622370000000004" lon="-2.03667">
        <time>2021-06-19T11:31:10+0000</time>
      </trkpt>
      <trkpt lat="40.62234" lon="-2.03663">
        <time>2021-06-19T11:31:11+0000</time>
      </trkpt>
      <trkpt lat="40.62232" lon="-2.0365900000000003">
        <time>2021-06-19T11:31:12+0000</time>
      </trkpt>
      <trkpt lat="40.622310000000006" lon="-2.03656">
        <time>2021-06-19T11:31:13+0000</time>
      </trkpt>
      <trkpt lat="40.62229000000001" lon="-2.03654">
        <time>2021-06-19T11:31:14+0000</time>
      </trkpt>
      <trkpt lat="40.62228" lon="-2.0365200000000003">
        <time>2021-06-19T11:31:15+0000</time>
      </trkpt>
      <trkpt lat="40.62227" lon="-2.0365">
        <time>2021-06-19T11:31:16+0000</time>
      </trkpt>
      <trkpt lat="40.622240000000005" lon="-2.0364600000000004">
        <time>2021-06-19T11:31:55+0000</time>
      </trkpt>
      <trkpt lat="40.62220000000001" lon="-2.03641">
        <time>2021-06-19T11:31:56+0000</time>
      </trkpt>
      <trkpt lat="40.622150000000005" lon="-2.03635">
        <time>2021-06-19T11:31:57+0000</time>
      </trkpt>
      <trkpt lat="40.6221" lon="-2.03629">
        <time>2021-06-19T11:31:58+0000</time>
      </trkpt>
      <trkpt lat="40.622040000000005" lon="-2.0362400000000003">
        <time>2021-06-19T11:31:59+0000</time>
      </trkpt>
      <trkpt lat="40.62198" lon="-2.0361800000000003">
        <time>2021-06-19T11:32:00+0000</time>
      </trkpt>
      <trkpt lat="40.62192" lon="-2.03614">
        <time>2021-06-19T11:32:01+0000</time>
      </trkpt>
      <trkpt lat="40.621860000000005" lon="-2.03608">
        <time>2021-06-19T11:32:02+0000</time>
      </trkpt>
      <trkpt lat="40.62181" lon="-2.03602">
        <time>2021-06-19T11:32:03+0000</time>
      </trkpt>
      <trkpt lat="40.621770000000005" lon="-2.03593">
        <time>2021-06-19T11:32:04+0000</time>
      </trkpt>
      <trkpt lat="40.62173000000001" lon="-2.0358300000000003">
        <time>2021-06-19T11:32:05+0000</time>
      </trkpt>
      <trkpt lat="40.621700000000004" lon="-2.03574">
        <time>2021-06-19T11:32:06+0000</time>
      </trkpt>
      <trkpt lat="40.62167" lon="-2.03565">
        <time>2021-06-19T11:32:07+0000</time>
      </trkpt>
      <trkpt lat="40.62163" lon="-2.0355600000000003">
        <time>2021-06-19T11:32:08+0000</time>
      </trkpt>
      <trkpt lat="40.621590000000005" lon="-2.0354900000000002">
        <time>2021-06-19T11:32:09+0000</time>
      </trkpt>
      <trkpt lat="40.62154" lon="-2.0354300000000003">
        <time>2021-06-19T11:32:10+0000</time>
      </trkpt>
      <trkpt lat="40.621500000000005" lon="-2.03538">
        <time>2021-06-19T11:32:11+0000</time>
      </trkpt>
      <trkpt lat="40.62145" lon="-2.03534">
        <time>2021-06-19T11:32:12+0000</time>
      </trkpt>
      <trkpt lat="40.621410000000004" lon="-2.0353000000000003">
        <time>2021-06-19T11:32:13+0000</time>
      </trkpt>
      <trkpt lat="40.62138" lon="-2.0352300000000003">
        <time>2021-06-19T11:32:14+0000</time>
      </trkpt>
      <trkpt lat="40.621370000000006" lon="-2.0351500000000002">
        <time>2021-06-19T11:32:15+0000</time>
      </trkpt>
      <trkpt lat="40.621390000000005" lon="-2.03506">
        <time>2021-06-19T11:32:16+0000</time>
      </trkpt>
      <trkpt lat="40.62142" lon="-2.03498">
        <time>2021-06-19T11:32:17+0000</time>
      </trkpt>
      <trkpt lat="40.62145" lon="-2.0348900000000003">
        <time>2021-06-19T11:32:18+0000</time>
      </trkpt>
      <trkpt lat="40.62149" lon="-2.03479">
        <time>2021-06-19T11:32:19+0000</time>
      </trkpt>
      <trkpt lat="40.62153" lon="-2.03467">
        <time>2021-06-19T11:32:20+0000</time>
      </trkpt>
      <trkpt lat="40.621570000000006" lon="-2.0345500000000003">
        <time>2021-06-19T11:32:21+0000</time>
      </trkpt>
      <trkpt lat="40.621610000000004" lon="-2.03443">
        <time>2021-06-19T11:32:22+0000</time>
      </trkpt>
      <trkpt lat="40.62165" lon="-2.03433">
        <time>2021-06-19T11:32:23+0000</time>
      </trkpt>
      <trkpt lat="40.62169" lon="-2.0342200000000004">
        <time>2021-06-19T11:32:24+0000</time>
      </trkpt>
      <trkpt lat="40.621750000000006" lon="-2.03412">
        <time>2021-06-19T11:32:25+0000</time>
      </trkpt>
      <trkpt lat="40.62181" lon="-2.03403">
        <time>2021-06-19T11:32:26+0000</time>
      </trkpt>
      <trkpt lat="40.62189" lon="-2.03392">
        <time>2021-06-19T11:32:27+0000</time>
      </trkpt>
      <trkpt lat="40.621970000000005" lon="-2.03382">
        <time>2021-06-19T11:32:28+0000</time>
      </trkpt>
      <trkpt lat="40.62205" lon="-2.03372">
        <time>2021-06-19T11:32:29+0000</time>
      </trkpt>
      <trkpt lat="40.622150000000005" lon="-2.03362">
        <time>2021-06-19T11:32:30+0000</time>
      </trkpt>
      <trkpt lat="40.62225" lon="-2.0335300000000003">
        <time>2021-06-19T11:32:31+0000</time>
      </trkpt>
      <trkpt lat="40.62236" lon="-2.0334600000000003">
        <time>2021-06-19T11:32:32+0000</time>
      </trkpt>
      <trkpt lat="40.62247" lon="-2.0334100000000004">
        <time>2021-06-19T11:32:33+0000</time>
      </trkpt>
      <trkpt lat="40.622580000000006" lon="-2.03337">
        <time>2021-06-19T11:32:34+0000</time>
      </trkpt>
      <trkpt lat="40.62267000000001" lon="-2.03335">
        <time>2021-06-19T11:32:35+0000</time>
      </trkpt>
      <trkpt lat="40.62277" lon="-2.0333300000000003">
        <time>2021-06-19T11:32:36+0000</time>
      </trkpt>
      <trkpt lat="40.62286" lon="-2.03331">
        <time>2021-06-19T11:32:37+0000</time>
      </trkpt>
      <trkpt lat="40.62295" lon="-2.0333">
        <time>2021-06-19T11:32:38+0000</time>
      </trkpt>
      <trkpt lat="40.623050000000006" lon="-2.03331">
        <time>2021-06-19T11:32:39+0000</time>
      </trkpt>
      <trkpt lat="40.62317" lon="-2.0333400000000004">
        <time>2021-06-19T11:32:40+0000</time>
      </trkpt>
      <trkpt lat="40.623290000000004" lon="-2.03338">
        <time>2021-06-19T11:32:41+0000</time>
      </trkpt>
      <trkpt lat="40.62342" lon="-2.03344">
        <time>2021-06-19T11:32:42+0000</time>
      </trkpt>
      <trkpt lat="40.62355" lon="-2.03349">
        <time>2021-06-19T11:32:43+0000</time>
      </trkpt>
      <trkpt lat="40.62370000000001" lon="-2.0335400000000003">
        <time>2021-06-19T11:32:44+0000</time>
      </trkpt>
      <trkpt lat="40.62384" lon="-2.03357">
        <time>2021-06-19T11:32:45+0000</time>
      </trkpt>
      <trkpt lat="40.62398" lon="-2.03357">
        <time>2021-06-19T11:32:46+0000</time>
      </trkpt>
      <trkpt lat="40.62413" lon="-2.03356">
        <time>2021-06-19T11:32:47+0000</time>
      </trkpt>
      <trkpt lat="40.624280000000006" lon="-2.03352">
        <time>2021-06-19T11:32:48+0000</time>
      </trkpt>
      <trkpt lat="40.624430000000004" lon="-2.0334700000000003">
        <time>2021-06-19T11:32:49+0000</time>
      </trkpt>
      <trkpt lat="40.624590000000005" lon="-2.0334100000000004">
        <time>2021-06-19T11:32:50+0000</time>
      </trkpt>
      <trkpt lat="40.624750000000006" lon="-2.0333300000000003">
        <time>2021-06-19T11:32:51+0000</time>
      </trkpt>
      <trkpt lat="40.62491" lon="-2.03324">
        <time>2021-06-19T11:32:52+0000</time>
      </trkpt>
      <trkpt lat="40.625060000000005" lon="-2.0331300000000003">
        <time>2021-06-19T11:32:53+0000</time>
      </trkpt>
      <trkpt lat="40.62520000000001" lon="-2.0330000000000004">
        <time>2021-06-19T11:32:54+0000</time>
      </trkpt>
      <trkpt lat="40.62534" lon="-2.03288">
        <time>2021-06-19T11:32:55+0000</time>
      </trkpt>
      <trkpt lat="40.62548" lon="-2.03276">
        <time>2021-06-19T11:32:56+0000</time>
      </trkpt>
      <trkpt lat="40.625620000000005" lon="-2.03263">
        <time>2021-06-19T11:32:57+0000</time>
      </trkpt>
      <trkpt lat="40.625750000000004" lon="-2.0325100000000003">
        <time>2021-06-19T11:32:58+0000</time>
      </trkpt>
      <trkpt lat="40.625870000000006" lon="-2.0323800000000003">
        <time>2021-06-19T11:32:59+0000</time>
      </trkpt>
      <trkpt lat="40.62599" lon="-2.0322400000000003">
        <time>2021-06-19T11:33:00+0000</time>
      </trkpt>
      <trkpt lat="40.626090000000005" lon="-2.0321000000000002">
        <time>2021-06-19T11:33:01+0000</time>
      </trkpt>
      <trkpt lat="40.62619" lon="-2.03194">
        <time>2021-06-19T11:33:02+0000</time>
      </trkpt>
      <trkpt lat="40.626290000000004" lon="-2.0318">
        <time>2021-06-19T11:33:03+0000</time>
      </trkpt>
      <trkpt lat="40.626380000000005" lon="-2.03165">
        <time>2021-06-19T11:33:04+0000</time>
      </trkpt>
      <trkpt lat="40.62648" lon="-2.0315000000000003">
        <time>2021-06-19T11:33:05+0000</time>
      </trkpt>
      <trkpt lat="40.62657" lon="-2.03135">
        <time>2021-06-19T11:33:06+0000</time>
      </trkpt>
      <trkpt lat="40.626670000000004" lon="-2.03121">
        <time>2021-06-19T11:33:07+0000</time>
      </trkpt>
      <trkpt lat="40.62677" lon="-2.0310900000000003">
        <time>2021-06-19T11:33:08+0000</time>
      </trkpt>
      <trkpt lat="40.62688" lon="-2.03098">
        <time>2021-06-19T11:33:09+0000</time>
      </trkpt>
      <trkpt lat="40.627010000000006" lon="-2.0308800000000002">
        <time>2021-06-19T11:33:10+0000</time>
      </trkpt>
      <trkpt lat="40.62715" lon="-2.0308">
        <time>2021-06-19T11:33:11+0000</time>
      </trkpt>
      <trkpt lat="40.627300000000005" lon="-2.03074">
        <time>2021-06-19T11:33:12+0000</time>
      </trkpt>
      <trkpt lat="40.627460000000006" lon="-2.0306900000000003">
        <time>2021-06-19T11:33:13+0000</time>
      </trkpt>
      <trkpt lat="40.62762" lon="-2.03066">
        <time>2021-06-19T11:33:14+0000</time>
      </trkpt>
      <trkpt lat="40.627790000000005" lon="-2.0306200000000003">
        <time>2021-06-19T11:33:15+0000</time>
      </trkpt>
      <trkpt lat="40.62796" lon="-2.0305600000000004">
        <time>2021-06-19T11:33:16+0000</time>
      </trkpt>
      <trkpt lat="40.628130000000006" lon="-2.0305">
        <time>2021-06-19T11:33:17+0000</time>
      </trkpt>
      <trkpt lat="40.62829" lon="-2.0304100000000003">
        <time>2021-06-19T11:33:18+0000</time>
      </trkpt>
      <trkpt lat="40.628440000000005" lon="-2.03032">
        <time>2021-06-19T11:33:19+0000</time>
      </trkpt>
      <trkpt lat="40.62859" lon="-2.0302200000000004">
        <time>2021-06-19T11:33:20+0000</time>
      </trkpt>
      <trkpt lat="40.628730000000004" lon="-2.03012">
        <time>2021-06-19T11:33:21+0000</time>
      </trkpt>
      <trkpt lat="40.628870000000006" lon="-2.0300100000000003">
        <time>2021-06-19T11:33:22+0000</time>
      </trkpt>
      <trkpt lat="40.629000000000005" lon="-2.0299300000000002">
        <time>2021-06-19T11:33:23+0000</time>
      </trkpt>
      <trkpt lat="40.62914000000001" lon="-2.02989">
        <time>2021-06-19T11:33:24+0000</time>
      </trkpt>
      <trkpt lat="40.629290000000005" lon="-2.02989">
        <time>2021-06-19T11:33:25+0000</time>
      </trkpt>
      <trkpt lat="40.62946" lon="-2.02992">
        <time>2021-06-19T11:33:26+0000</time>
      </trkpt>
      <trkpt lat="40.62964" lon="-2.02996">
        <time>2021-06-19T11:33:27+0000</time>
      </trkpt>
      <trkpt lat="40.629830000000005" lon="-2.0300100000000003">
        <time>2021-06-19T11:33:28+0000</time>
      </trkpt>
      <trkpt lat="40.630010000000006" lon="-2.03006">
        <time>2021-06-19T11:33:29+0000</time>
      </trkpt>
      <trkpt lat="40.630190000000006" lon="-2.0301">
        <time>2021-06-19T11:33:30+0000</time>
      </trkpt>
      <trkpt lat="40.63038" lon="-2.0301400000000003">
        <time>2021-06-19T11:33:31+0000</time>
      </trkpt>
      <trkpt lat="40.63058" lon="-2.03018">
        <time>2021-06-19T11:33:32+0000</time>
      </trkpt>
      <trkpt lat="40.630770000000005" lon="-2.03024">
        <time>2021-06-19T11:33:33+0000</time>
      </trkpt>
      <trkpt lat="40.630970000000005" lon="-2.0302900000000004">
        <time>2021-06-19T11:33:34+0000</time>
      </trkpt>
      <trkpt lat="40.631170000000004" lon="-2.0303400000000003">
        <time>2021-06-19T11:33:35+0000</time>
      </trkpt>
      <trkpt lat="40.631370000000004" lon="-2.03039">
        <time>2021-06-19T11:33:36+0000</time>
      </trkpt>
      <trkpt lat="40.63157" lon="-2.03043">
        <time>2021-06-19T11:33:37+0000</time>
      </trkpt>
      <trkpt lat="40.631780000000006" lon="-2.03046">
        <time>2021-06-19T11:33:38+0000</time>
      </trkpt>
      <trkpt lat="40.63197" lon="-2.0304900000000004">
        <time>2021-06-19T11:33:39+0000</time>
      </trkpt>
      <trkpt lat="40.63217" lon="-2.03051">
        <time>2021-06-19T11:33:40+0000</time>
      </trkpt>
      <trkpt lat="40.632360000000006" lon="-2.03053">
        <time>2021-06-19T11:33:41+0000</time>
      </trkpt>
      <trkpt lat="40.63255" lon="-2.0305500000000003">
        <time>2021-06-19T11:33:42+0000</time>
      </trkpt>
      <trkpt lat="40.63273" lon="-2.03057">
        <time>2021-06-19T11:33:43+0000</time>
      </trkpt>
      <trkpt lat="40.632920000000006" lon="-2.03059">
        <time>2021-06-19T11:33:44+0000</time>
      </trkpt>
      <trkpt lat="40.63309" lon="-2.0306200000000003">
        <time>2021-06-19T11:33:45+0000</time>
      </trkpt>
      <trkpt lat="40.63327" lon="-2.03066">
        <time>2021-06-19T11:33:46+0000</time>
      </trkpt>
      <trkpt lat="40.63345" lon="-2.03072">
        <time>2021-06-19T11:33:47+0000</time>
      </trkpt>
      <trkpt lat="40.63362" lon="-2.03079">
        <time>2021-06-19T11:33:48+0000</time>
      </trkpt>
      <trkpt lat="40.6338" lon="-2.03086">
        <time>2021-06-19T11:33:49+0000</time>
      </trkpt>
      <trkpt lat="40.633970000000005" lon="-2.03093">
        <time>2021-06-19T11:33:50+0000</time>
      </trkpt>
      <trkpt lat="40.63416" lon="-2.03099">
        <time>2021-06-19T11:33:51+0000</time>
      </trkpt>
      <trkpt lat="40.63434" lon="-2.03104">
        <time>2021-06-19T11:33:52+0000</time>
      </trkpt>
      <trkpt lat="40.63452" lon="-2.03105">
        <time>2021-06-19T11:33:53+0000</time>
      </trkpt>
      <trkpt lat="40.6347" lon="-2.0310200000000003">
        <time>2021-06-19T11:33:54+0000</time>
      </trkpt>
      <trkpt lat="40.63487000000001" lon="-2.0309600000000003">
        <time>2021-06-19T11:33:55+0000</time>
      </trkpt>
      <trkpt lat="40.635040000000004" lon="-2.03087">
        <time>2021-06-19T11:33:56+0000</time>
      </trkpt>
      <trkpt lat="40.635200000000005" lon="-2.03078">
        <time>2021-06-19T11:33:57+0000</time>
      </trkpt>
      <trkpt lat="40.635360000000006" lon="-2.0306900000000003">
        <time>2021-06-19T11:33:58+0000</time>
      </trkpt>
      <trkpt lat="40.63552000000001" lon="-2.0306">
        <time>2021-06-19T11:33:59+0000</time>
      </trkpt>
      <trkpt lat="40.635670000000005" lon="-2.0305400000000002">
        <time>2021-06-19T11:34:00+0000</time>
      </trkpt>
      <trkpt lat="40.635830000000006" lon="-2.0305">
        <time>2021-06-19T11:34:01+0000</time>
      </trkpt>
      <trkpt lat="40.63597" lon="-2.03047">
        <time>2021-06-19T11:34:02+0000</time>
      </trkpt>
      <trkpt lat="40.636120000000005" lon="-2.03045">
        <time>2021-06-19T11:34:03+0000</time>
      </trkpt>
      <trkpt lat="40.636280000000006" lon="-2.03043">
        <time>2021-06-19T11:34:04+0000</time>
      </trkpt>
      <trkpt lat="40.636430000000004" lon="-2.0304200000000003">
        <time>2021-06-19T11:34:05+0000</time>
      </trkpt>
      <trkpt lat="40.636590000000005" lon="-2.0304">
        <time>2021-06-19T11:34:06+0000</time>
      </trkpt>
      <trkpt lat="40.63676" lon="-2.03038">
        <time>2021-06-19T11:34:07+0000</time>
      </trkpt>
      <trkpt lat="40.63692" lon="-2.0303600000000004">
        <time>2021-06-19T11:34:08+0000</time>
      </trkpt>
      <trkpt lat="40.63709" lon="-2.0303400000000003">
        <time>2021-06-19T11:34:09+0000</time>
      </trkpt>
      <trkpt lat="40.637260000000005" lon="-2.03031">
        <time>2021-06-19T11:34:10+0000</time>
      </trkpt>
      <trkpt lat="40.637420000000006" lon="-2.0302800000000003">
        <time>2021-06-19T11:34:11+0000</time>
      </trkpt>
      <trkpt lat="40.63758" lon="-2.03025">
        <time>2021-06-19T11:34:12+0000</time>
      </trkpt>
      <trkpt lat="40.63772" lon="-2.0302200000000004">
        <time>2021-06-19T11:34:13+0000</time>
      </trkpt>
      <trkpt lat="40.63786" lon="-2.03019">
        <time>2021-06-19T11:34:14+0000</time>
      </trkpt>
      <trkpt lat="40.63799" lon="-2.0301500000000003">
        <time>2021-06-19T11:34:15+0000</time>
      </trkpt>
      <trkpt lat="40.6381" lon="-2.03012">
        <time>2021-06-19T11:34:16+0000</time>
      </trkpt>
      <trkpt lat="40.638200000000005" lon="-2.03009">
        <time>2021-06-19T11:34:17+0000</time>
      </trkpt>
      <trkpt lat="40.6383" lon="-2.03006">
        <time>2021-06-19T11:34:18+0000</time>
      </trkpt>
      <trkpt lat="40.638380000000005" lon="-2.03003">
        <time>2021-06-19T11:34:19+0000</time>
      </trkpt>
      <trkpt lat="40.638450000000006" lon="-2.0300100000000003">
        <time>2021-06-19T11:34:20+0000</time>
      </trkpt>
      <trkpt lat="40.638510000000004" lon="-2.02999">
        <time>2021-06-19T11:34:21+0000</time>
      </trkpt>
      <trkpt lat="40.63857" lon="-2.02997">
        <time>2021-06-19T11:34:22+0000</time>
      </trkpt>
      <trkpt lat="40.638630000000006" lon="-2.0299500000000004">
        <time>2021-06-19T11:34:23+0000</time>
      </trkpt>
      <trkpt lat="40.63868" lon="-2.0299300000000002">
        <time>2021-06-19T11:34:24+0000</time>
      </trkpt>
      <trkpt lat="40.638740000000006" lon="-2.02992">
        <time>2021-06-19T11:34:25+0000</time>
      </trkpt>
      <trkpt lat="40.63879" lon="-2.0299">
        <time>2021-06-19T11:34:26+0000</time>
      </trkpt>
      <trkpt lat="40.63884" lon="-2.02989">
        <time>2021-06-19T11:34:27+0000</time>
      </trkpt>
      <trkpt lat="40.63890000000001" lon="-2.0298700000000003">
        <time>2021-06-19T11:34:28+0000</time>
      </trkpt>
      <trkpt lat="40.63895" lon="-2.02985">
        <time>2021-06-19T11:34:29+0000</time>
      </trkpt>
      <trkpt lat="40.639" lon="-2.02984">
        <time>2021-06-19T11:34:30+0000</time>
      </trkpt>
      <trkpt lat="40.639050000000005" lon="-2.02982">
        <time>2021-06-19T11:34:31+0000</time>
      </trkpt>
      <trkpt lat="40.63911" lon="-2.0298100000000003">
        <time>2021-06-19T11:34:32+0000</time>
      </trkpt>
      <trkpt lat="40.639160000000004" lon="-2.0298000000000003">
        <time>2021-06-19T11:34:33+0000</time>
      </trkpt>
      <trkpt lat="40.63922" lon="-2.02979">
        <time>2021-06-19T11:34:34+0000</time>
      </trkpt>
      <trkpt lat="40.63927" lon="-2.02977">
        <time>2021-06-19T11:34:35+0000</time>
      </trkpt>
      <trkpt lat="40.639320000000005" lon="-2.02976">
        <time>2021-06-19T11:34:36+0000</time>
      </trkpt>
      <trkpt lat="40.63938" lon="-2.0297400000000003">
        <time>2021-06-19T11:34:37+0000</time>
      </trkpt>
      <trkpt lat="40.63944" lon="-2.02972">
        <time>2021-06-19T11:34:38+0000</time>
      </trkpt>
      <trkpt lat="40.639500000000005" lon="-2.02971">
        <time>2021-06-19T11:34:39+0000</time>
      </trkpt>
      <trkpt lat="40.63956" lon="-2.0297">
        <time>2021-06-19T11:34:40+0000</time>
      </trkpt>
      <trkpt lat="40.63962" lon="-2.02969">
        <time>2021-06-19T11:34:41+0000</time>
      </trkpt>
      <trkpt lat="40.63969" lon="-2.0296800000000004">
        <time>2021-06-19T11:34:42+0000</time>
      </trkpt>
      <trkpt lat="40.63976" lon="-2.0296700000000003">
        <time>2021-06-19T11:34:43+0000</time>
      </trkpt>
      <trkpt lat="40.63985" lon="-2.02965">
        <time>2021-06-19T11:34:44+0000</time>
      </trkpt>
      <trkpt lat="40.63993000000001" lon="-2.02963">
        <time>2021-06-19T11:34:45+0000</time>
      </trkpt>
      <trkpt lat="40.64002" lon="-2.0296100000000004">
        <time>2021-06-19T11:34:46+0000</time>
      </trkpt>
      <trkpt lat="40.64011" lon="-2.0296000000000003">
        <time>2021-06-19T11:34:47+0000</time>
      </trkpt>
      <trkpt lat="40.640190000000004" lon="-2.02958">
        <time>2021-06-19T11:34:48+0000</time>
      </trkpt>
      <trkpt lat="40.640260000000005" lon="-2.02957">
        <time>2021-06-19T11:34:49+0000</time>
      </trkpt>
      <trkpt lat="40.640330000000006" lon="-2.02955">
        <time>2021-06-19T11:34:50+0000</time>
      </trkpt>
      <trkpt lat="40.64040000000001" lon="-2.0295400000000003">
        <time>2021-06-19T11:34:51+0000</time>
      </trkpt>
      <trkpt lat="40.64047" lon="-2.02952">
        <time>2021-06-19T11:34:52+0000</time>
      </trkpt>
      <trkpt lat="40.640550000000005" lon="-2.02949">
        <time>2021-06-19T11:34:53+0000</time>
      </trkpt>
      <trkpt lat="40.64063" lon="-2.02945">
        <time>2021-06-19T11:34:54+0000</time>
      </trkpt>
      <trkpt lat="40.64072" lon="-2.0293900000000002">
        <time>2021-06-19T11:34:55+0000</time>
      </trkpt>
      <trkpt lat="40.64079" lon="-2.02931">
        <time>2021-06-19T11:34:56+0000</time>
      </trkpt>
      <trkpt lat="40.64086" lon="-2.0291900000000003">
        <time>2021-06-19T11:34:57+0000</time>
      </trkpt>
      <trkpt lat="40.640910000000005" lon="-2.0290500000000002">
        <time>2021-06-19T11:34:58+0000</time>
      </trkpt>
      <trkpt lat="40.64096000000001" lon="-2.0289">
        <time>2021-06-19T11:34:59+0000</time>
      </trkpt>
      <trkpt lat="40.641000000000005" lon="-2.02875">
        <time>2021-06-19T11:35:00+0000</time>
      </trkpt>
      <trkpt lat="40.64105" lon="-2.0285800000000003">
        <time>2021-06-19T11:35:01+0000</time>
      </trkpt>
      <trkpt lat="40.641110000000005" lon="-2.0284">
        <time>2021-06-19T11:35:02+0000</time>
      </trkpt>
      <trkpt lat="40.641160000000006" lon="-2.02822">
        <time>2021-06-19T11:35:03+0000</time>
      </trkpt>
      <trkpt lat="40.64121" lon="-2.02806">
        <time>2021-06-19T11:35:04+0000</time>
      </trkpt>
      <trkpt lat="40.64128" lon="-2.02792">
        <time>2021-06-19T11:35:05+0000</time>
      </trkpt>
      <trkpt lat="40.641360000000006" lon="-2.0277700000000003">
        <time>2021-06-19T11:35:06+0000</time>
      </trkpt>
      <trkpt lat="40.64146" lon="-2.0276400000000003">
        <time>2021-06-19T11:35:07+0000</time>
      </trkpt>
      <trkpt lat="40.64157" lon="-2.02755">
        <time>2021-06-19T11:35:08+0000</time>
      </trkpt>
      <trkpt lat="40.6417" lon="-2.02748">
        <time>2021-06-19T11:35:09+0000</time>
      </trkpt>
      <trkpt lat="40.64182" lon="-2.0274300000000003">
        <time>2021-06-19T11:35:10+0000</time>
      </trkpt>
      <trkpt lat="40.641940000000005" lon="-2.0274">
        <time>2021-06-19T11:35:11+0000</time>
      </trkpt>
      <trkpt lat="40.64204" lon="-2.0273700000000003">
        <time>2021-06-19T11:35:12+0000</time>
      </trkpt>
      <trkpt lat="40.642140000000005" lon="-2.02733">
        <time>2021-06-19T11:35:13+0000</time>
      </trkpt>
      <trkpt lat="40.64224" lon="-2.0272900000000003">
        <time>2021-06-19T11:35:14+0000</time>
      </trkpt>
      <trkpt lat="40.642340000000004" lon="-2.0272400000000004">
        <time>2021-06-19T11:35:15+0000</time>
      </trkpt>
      <trkpt lat="40.64244" lon="-2.0271700000000004">
        <time>2021-06-19T11:35:16+0000</time>
      </trkpt>
      <trkpt lat="40.642540000000004" lon="-2.0271000000000003">
        <time>2021-06-19T11:35:17+0000</time>
      </trkpt>
      <trkpt lat="40.64264" lon="-2.0270300000000003">
        <time>2021-06-19T11:35:18+0000</time>
      </trkpt>
      <trkpt lat="40.64274" lon="-2.0269600000000003">
        <time>2021-06-19T11:35:19+0000</time>
      </trkpt>
      <trkpt lat="40.64284000000001" lon="-2.0268800000000002">
        <time>2021-06-19T11:35:20+0000</time>
      </trkpt>
      <trkpt lat="40.64293" lon="-2.0268100000000002">
        <time>2021-06-19T11:35:21+0000</time>
      </trkpt>
      <trkpt lat="40.64302" lon="-2.02673">
        <time>2021-06-19T11:35:22+0000</time>
      </trkpt>
      <trkpt lat="40.643100000000004" lon="-2.02666">
        <time>2021-06-19T11:35:23+0000</time>
      </trkpt>
      <trkpt lat="40.64321" lon="-2.02657">
        <time>2021-06-19T11:35:24+0000</time>
      </trkpt>
      <trkpt lat="40.64331000000001" lon="-2.0264800000000003">
        <time>2021-06-19T11:35:25+0000</time>
      </trkpt>
      <trkpt lat="40.64341" lon="-2.02638">
        <time>2021-06-19T11:35:26+0000</time>
      </trkpt>
      <trkpt lat="40.643510000000006" lon="-2.0262700000000002">
        <time>2021-06-19T11:35:27+0000</time>
      </trkpt>
      <trkpt lat="40.64361" lon="-2.02616">
        <time>2021-06-19T11:35:28+0000</time>
      </trkpt>
      <trkpt lat="40.643710000000006" lon="-2.02605">
        <time>2021-06-19T11:35:29+0000</time>
      </trkpt>
      <trkpt lat="40.64381" lon="-2.0259500000000004">
        <time>2021-06-19T11:35:30+0000</time>
      </trkpt>
      <trkpt lat="40.64392" lon="-2.02586">
        <time>2021-06-19T11:35:31+0000</time>
      </trkpt>
      <trkpt lat="40.64403" lon="-2.02577">
        <time>2021-06-19T11:35:32+0000</time>
      </trkpt>
      <trkpt lat="40.64414" lon="-2.0256700000000003">
        <time>2021-06-19T11:35:33+0000</time>
      </trkpt>
      <trkpt lat="40.64425000000001" lon="-2.02555">
        <time>2021-06-19T11:35:34+0000</time>
      </trkpt>
      <trkpt lat="40.644360000000006" lon="-2.0254100000000004">
        <time>2021-06-19T11:35:35+0000</time>
      </trkpt>
      <trkpt lat="40.64444" lon="-2.02524">
        <time>2021-06-19T11:35:36+0000</time>
      </trkpt>
      <trkpt lat="40.6445" lon="-2.0250600000000003">
        <time>2021-06-19T11:35:37+0000</time>
      </trkpt>
      <trkpt lat="40.64455" lon="-2.0248600000000003">
        <time>2021-06-19T11:35:38+0000</time>
      </trkpt>
      <trkpt lat="40.644580000000005" lon="-2.0246600000000003">
        <time>2021-06-19T11:35:39+0000</time>
      </trkpt>
      <trkpt lat="40.64459" lon="-2.02447">
        <time>2021-06-19T11:35:40+0000</time>
      </trkpt>
      <trkpt lat="40.64461" lon="-2.0243100000000003">
        <time>2021-06-19T11:35:41+0000</time>
      </trkpt>
      <trkpt lat="40.64466" lon="-2.02416">
        <time>2021-06-19T11:35:42+0000</time>
      </trkpt>
      <trkpt lat="40.64472000000001" lon="-2.02403">
        <time>2021-06-19T11:35:43+0000</time>
      </trkpt>
      <trkpt lat="40.64481000000001" lon="-2.02393">
        <time>2021-06-19T11:35:44+0000</time>
      </trkpt>
      <trkpt lat="40.644920000000006" lon="-2.0238500000000004">
        <time>2021-06-19T11:35:45+0000</time>
      </trkpt>
      <trkpt lat="40.645050000000005" lon="-2.0238">
        <time>2021-06-19T11:35:46+0000</time>
      </trkpt>
      <trkpt lat="40.64519000000001" lon="-2.02379">
        <time>2021-06-19T11:35:47+0000</time>
      </trkpt>
      <trkpt lat="40.645340000000004" lon="-2.0238300000000002">
        <time>2021-06-19T11:35:48+0000</time>
      </trkpt>
      <trkpt lat="40.645480000000006" lon="-2.0239000000000003">
        <time>2021-06-19T11:35:49+0000</time>
      </trkpt>
      <trkpt lat="40.64562" lon="-2.02396">
        <time>2021-06-19T11:35:50+0000</time>
      </trkpt>
      <trkpt lat="40.64575000000001" lon="-2.02401">
        <time>2021-06-19T11:35:51+0000</time>
      </trkpt>
      <trkpt lat="40.645880000000005" lon="-2.0240500000000003">
        <time>2021-06-19T11:35:52+0000</time>
      </trkpt>
      <trkpt lat="40.646010000000004" lon="-2.02407">
        <time>2021-06-19T11:35:53+0000</time>
      </trkpt>
      <trkpt lat="40.64614" lon="-2.0240400000000003">
        <time>2021-06-19T11:35:54+0000</time>
      </trkpt>
      <trkpt lat="40.64625" lon="-2.02399">
        <time>2021-06-19T11:35:55+0000</time>
      </trkpt>
      <trkpt lat="40.64636" lon="-2.0239000000000003">
        <time>2021-06-19T11:35:56+0000</time>
      </trkpt>
      <trkpt lat="40.646460000000005" lon="-2.0238">
        <time>2021-06-19T11:35:57+0000</time>
      </trkpt>
      <trkpt lat="40.646550000000005" lon="-2.0237000000000003">
        <time>2021-06-19T11:35:58+0000</time>
      </trkpt>
      <trkpt lat="40.646640000000005" lon="-2.02362">
        <time>2021-06-19T11:35:59+0000</time>
      </trkpt>
      <trkpt lat="40.646750000000004" lon="-2.0235700000000003">
        <time>2021-06-19T11:36:00+0000</time>
      </trkpt>
      <trkpt lat="40.64685" lon="-2.0235700000000003">
        <time>2021-06-19T11:36:01+0000</time>
      </trkpt>
      <trkpt lat="40.64697" lon="-2.02362">
        <time>2021-06-19T11:36:02+0000</time>
      </trkpt>
      <trkpt lat="40.64708" lon="-2.02369">
        <time>2021-06-19T11:36:03+0000</time>
      </trkpt>
      <trkpt lat="40.647200000000005" lon="-2.0237700000000003">
        <time>2021-06-19T11:36:04+0000</time>
      </trkpt>
      <trkpt lat="40.647330000000004" lon="-2.02386">
        <time>2021-06-19T11:36:05+0000</time>
      </trkpt>
      <trkpt lat="40.64746" lon="-2.02395">
        <time>2021-06-19T11:36:06+0000</time>
      </trkpt>
      <trkpt lat="40.647600000000004" lon="-2.0240400000000003">
        <time>2021-06-19T11:36:07+0000</time>
      </trkpt>
      <trkpt lat="40.64773" lon="-2.02413">
        <time>2021-06-19T11:36:08+0000</time>
      </trkpt>
      <trkpt lat="40.64786" lon="-2.02422">
        <time>2021-06-19T11:36:09+0000</time>
      </trkpt>
      <trkpt lat="40.647980000000004" lon="-2.02429">
        <time>2021-06-19T11:36:10+0000</time>
      </trkpt>
      <trkpt lat="40.64811" lon="-2.02436">
        <time>2021-06-19T11:36:11+0000</time>
      </trkpt>
      <trkpt lat="40.648230000000005" lon="-2.02441">
        <time>2021-06-19T11:36:12+0000</time>
      </trkpt>
      <trkpt lat="40.64837" lon="-2.0244400000000002">
        <time>2021-06-19T11:36:13+0000</time>
      </trkpt>
      <trkpt lat="40.64851" lon="-2.0244500000000003">
        <time>2021-06-19T11:36:14+0000</time>
      </trkpt>
      <trkpt lat="40.64865" lon="-2.0244500000000003">
        <time>2021-06-19T11:36:15+0000</time>
      </trkpt>
      <trkpt lat="40.648810000000005" lon="-2.02448">
        <time>2021-06-19T11:36:16+0000</time>
      </trkpt>
      <trkpt lat="40.64896" lon="-2.0245200000000003">
        <time>2021-06-19T11:36:17+0000</time>
      </trkpt>
      <trkpt lat="40.64909" lon="-2.02456">
        <time>2021-06-19T11:36:18+0000</time>
      </trkpt>
      <trkpt lat="40.6492" lon="-2.02461">
        <time>2021-06-19T11:36:19+0000</time>
      </trkpt>
      <trkpt lat="40.64931" lon="-2.02464">
        <time>2021-06-19T11:36:20+0000</time>
      </trkpt>
      <trkpt lat="40.64941" lon="-2.0246600000000003">
        <time>2021-06-19T11:36:21+0000</time>
      </trkpt>
      <trkpt lat="40.64951000000001" lon="-2.02467">
        <time>2021-06-19T11:36:22+0000</time>
      </trkpt>
      <trkpt lat="40.649620000000006" lon="-2.02467">
        <time>2021-06-19T11:36:23+0000</time>
      </trkpt>
      <trkpt lat="40.649730000000005" lon="-2.02464">
        <time>2021-06-19T11:36:24+0000</time>
      </trkpt>
      <trkpt lat="40.649840000000005" lon="-2.0245800000000003">
        <time>2021-06-19T11:36:25+0000</time>
      </trkpt>
      <trkpt lat="40.64992" lon="-2.02448">
        <time>2021-06-19T11:36:26+0000</time>
      </trkpt>
      <trkpt lat="40.65001" lon="-2.0243700000000002">
        <time>2021-06-19T11:36:27+0000</time>
      </trkpt>
      <trkpt lat="40.6501" lon="-2.02427">
        <time>2021-06-19T11:36:28+0000</time>
      </trkpt>
      <trkpt lat="40.65021" lon="-2.0241800000000003">
        <time>2021-06-19T11:36:29+0000</time>
      </trkpt>
      <trkpt lat="40.65032" lon="-2.0241200000000004">
        <time>2021-06-19T11:36:30+0000</time>
      </trkpt>
      <trkpt lat="40.65044" lon="-2.02406">
        <time>2021-06-19T11:36:31+0000</time>
      </trkpt>
      <trkpt lat="40.650560000000006" lon="-2.024">
        <time>2021-06-19T11:36:32+0000</time>
      </trkpt>
      <trkpt lat="40.650690000000004" lon="-2.02395">
        <time>2021-06-19T11:36:33+0000</time>
      </trkpt>
      <trkpt lat="40.65082" lon="-2.0239200000000004">
        <time>2021-06-19T11:36:34+0000</time>
      </trkpt>
      <trkpt lat="40.65095" lon="-2.02389">
        <time>2021-06-19T11:36:35+0000</time>
      </trkpt>
      <trkpt lat="40.65108" lon="-2.02386">
        <time>2021-06-19T11:36:36+0000</time>
      </trkpt>
      <trkpt lat="40.651210000000006" lon="-2.0238300000000002">
        <time>2021-06-19T11:36:37+0000</time>
      </trkpt>
      <trkpt lat="40.65135" lon="-2.0237800000000004">
        <time>2021-06-19T11:36:38+0000</time>
      </trkpt>
      <trkpt lat="40.65148000000001" lon="-2.02372">
        <time>2021-06-19T11:36:39+0000</time>
      </trkpt>
      <trkpt lat="40.65162" lon="-2.02366">
        <time>2021-06-19T11:36:40+0000</time>
      </trkpt>
      <trkpt lat="40.65175" lon="-2.0236300000000003">
        <time>2021-06-19T11:36:41+0000</time>
      </trkpt>
      <trkpt lat="40.651880000000006" lon="-2.0236400000000003">
        <time>2021-06-19T11:36:42+0000</time>
      </trkpt>
      <trkpt lat="40.652" lon="-2.02369">
        <time>2021-06-19T11:36:43+0000</time>
      </trkpt>
      <trkpt lat="40.65213000000001" lon="-2.0237700000000003">
        <time>2021-06-19T11:36:44+0000</time>
      </trkpt>
      <trkpt lat="40.652240000000006" lon="-2.0238400000000003">
        <time>2021-06-19T11:36:45+0000</time>
      </trkpt>
      <trkpt lat="40.652350000000006" lon="-2.0239000000000003">
        <time>2021-06-19T11:36:46+0000</time>
      </trkpt>
      <trkpt lat="40.652460000000005" lon="-2.02396">
        <time>2021-06-19T11:36:47+0000</time>
      </trkpt>
      <trkpt lat="40.652550000000005" lon="-2.02401">
        <time>2021-06-19T11:36:48+0000</time>
      </trkpt>
      <trkpt lat="40.65263" lon="-2.0240500000000003">
        <time>2021-06-19T11:36:49+0000</time>
      </trkpt>
      <trkpt lat="40.652710000000006" lon="-2.02409">
        <time>2021-06-19T11:36:50+0000</time>
      </trkpt>
      <trkpt lat="40.65278" lon="-2.02413">
        <time>2021-06-19T11:36:51+0000</time>
      </trkpt>
      <trkpt lat="40.652840000000005" lon="-2.02416">
        <time>2021-06-19T11:36:52+0000</time>
      </trkpt>
      <trkpt lat="40.652910000000006" lon="-2.0241900000000004">
        <time>2021-06-19T11:36:53+0000</time>
      </trkpt>
      <trkpt lat="40.65298000000001" lon="-2.02422">
        <time>2021-06-19T11:36:54+0000</time>
      </trkpt>
      <trkpt lat="40.65306" lon="-2.02423">
        <time>2021-06-19T11:36:55+0000</time>
      </trkpt>
      <trkpt lat="40.653130000000004" lon="-2.0242500000000003">
        <time>2021-06-19T11:36:56+0000</time>
      </trkpt>
      <trkpt lat="40.653200000000005" lon="-2.02426">
        <time>2021-06-19T11:36:57+0000</time>
      </trkpt>
      <trkpt lat="40.653270000000006" lon="-2.02426">
        <time>2021-06-19T11:36:58+0000</time>
      </trkpt>
      <trkpt lat="40.65335" lon="-2.0242400000000003">
        <time>2021-06-19T11:36:59+0000</time>
      </trkpt>
      <trkpt lat="40.65343" lon="-2.0241900000000004">
        <time>2021-06-19T11:37:00+0000</time>
      </trkpt>
      <trkpt lat="40.6535" lon="-2.0241200000000004">
        <time>2021-06-19T11:37:01+0000</time>
      </trkpt>
      <trkpt lat="40.65357" lon="-2.02403">
        <time>2021-06-19T11:37:02+0000</time>
      </trkpt>
      <trkpt lat="40.653650000000006" lon="-2.0239200000000004">
        <time>2021-06-19T11:37:03+0000</time>
      </trkpt>
      <trkpt lat="40.65375" lon="-2.02381">
        <time>2021-06-19T11:37:04+0000</time>
      </trkpt>
      <trkpt lat="40.65386" lon="-2.0237700000000003">
        <time>2021-06-19T11:37:05+0000</time>
      </trkpt>
      <trkpt lat="40.65399" lon="-2.02374">
        <time>2021-06-19T11:37:06+0000</time>
      </trkpt>
      <trkpt lat="40.65411" lon="-2.02373">
        <time>2021-06-19T11:37:07+0000</time>
      </trkpt>
      <trkpt lat="40.65424" lon="-2.02374">
        <time>2021-06-19T11:37:08+0000</time>
      </trkpt>
      <trkpt lat="40.654360000000004" lon="-2.0237600000000002">
        <time>2021-06-19T11:37:09+0000</time>
      </trkpt>
      <trkpt lat="40.654500000000006" lon="-2.0238">
        <time>2021-06-19T11:37:10+0000</time>
      </trkpt>
      <trkpt lat="40.654610000000005" lon="-2.02386">
        <time>2021-06-19T11:37:11+0000</time>
      </trkpt>
      <trkpt lat="40.654720000000005" lon="-2.0239200000000004">
        <time>2021-06-19T11:37:12+0000</time>
      </trkpt>
      <trkpt lat="40.654830000000004" lon="-2.0239800000000003">
        <time>2021-06-19T11:37:13+0000</time>
      </trkpt>
      <trkpt lat="40.65495000000001" lon="-2.02403">
        <time>2021-06-19T11:37:14+0000</time>
      </trkpt>
      <trkpt lat="40.65507" lon="-2.02407">
        <time>2021-06-19T11:37:15+0000</time>
      </trkpt>
      <trkpt lat="40.65518" lon="-2.0241100000000003">
        <time>2021-06-19T11:37:16+0000</time>
      </trkpt>
      <trkpt lat="40.655300000000004" lon="-2.02413">
        <time>2021-06-19T11:37:17+0000</time>
      </trkpt>
      <trkpt lat="40.65541" lon="-2.0241100000000003">
        <time>2021-06-19T11:37:18+0000</time>
      </trkpt>
      <trkpt lat="40.655530000000006" lon="-2.02407">
        <time>2021-06-19T11:37:19+0000</time>
      </trkpt>
      <trkpt lat="40.655640000000005" lon="-2.02402">
        <time>2021-06-19T11:37:20+0000</time>
      </trkpt>
      <trkpt lat="40.655750000000005" lon="-2.02394">
        <time>2021-06-19T11:37:21+0000</time>
      </trkpt>
      <trkpt lat="40.65585" lon="-2.0238400000000003">
        <time>2021-06-19T11:37:22+0000</time>
      </trkpt>
      <trkpt lat="40.655950000000004" lon="-2.02374">
        <time>2021-06-19T11:37:23+0000</time>
      </trkpt>
      <trkpt lat="40.65601" lon="-2.02361">
        <time>2021-06-19T11:37:24+0000</time>
      </trkpt>
      <trkpt lat="40.6561" lon="-2.0235000000000003">
        <time>2021-06-19T11:37:25+0000</time>
      </trkpt>
      <trkpt lat="40.656180000000006" lon="-2.02339">
        <time>2021-06-19T11:37:26+0000</time>
      </trkpt>
      <trkpt lat="40.65628" lon="-2.0233000000000003">
        <time>2021-06-19T11:37:27+0000</time>
      </trkpt>
      <trkpt lat="40.656380000000006" lon="-2.0232300000000003">
        <time>2021-06-19T11:37:28+0000</time>
      </trkpt>
      <trkpt lat="40.6565" lon="-2.0231700000000004">
        <time>2021-06-19T11:37:29+0000</time>
      </trkpt>
      <trkpt lat="40.656620000000004" lon="-2.02314">
        <time>2021-06-19T11:37:30+0000</time>
      </trkpt>
      <trkpt lat="40.656740000000006" lon="-2.02312">
        <time>2021-06-19T11:37:31+0000</time>
      </trkpt>
      <trkpt lat="40.656850000000006" lon="-2.0231000000000003">
        <time>2021-06-19T11:37:32+0000</time>
      </trkpt>
      <trkpt lat="40.65697" lon="-2.02308">
        <time>2021-06-19T11:37:33+0000</time>
      </trkpt>
      <trkpt lat="40.657090000000004" lon="-2.02305">
        <time>2021-06-19T11:37:34+0000</time>
      </trkpt>
      <trkpt lat="40.657210000000006" lon="-2.0230200000000003">
        <time>2021-06-19T11:37:35+0000</time>
      </trkpt>
      <trkpt lat="40.65733" lon="-2.023">
        <time>2021-06-19T11:37:36+0000</time>
      </trkpt>
      <trkpt lat="40.657450000000004" lon="-2.0229700000000004">
        <time>2021-06-19T11:37:37+0000</time>
      </trkpt>
      <trkpt lat="40.65758" lon="-2.0229500000000002">
        <time>2021-06-19T11:37:38+0000</time>
      </trkpt>
      <trkpt lat="40.657720000000005" lon="-2.02293">
        <time>2021-06-19T11:37:39+0000</time>
      </trkpt>
      <trkpt lat="40.65786000000001" lon="-2.02292">
        <time>2021-06-19T11:37:40+0000</time>
      </trkpt>
      <trkpt lat="40.657990000000005" lon="-2.0229000000000004">
        <time>2021-06-19T11:37:41+0000</time>
      </trkpt>
      <trkpt lat="40.65813" lon="-2.02293">
        <time>2021-06-19T11:37:42+0000</time>
      </trkpt>
      <trkpt lat="40.65827" lon="-2.0229500000000002">
        <time>2021-06-19T11:37:43+0000</time>
      </trkpt>
      <trkpt lat="40.65841" lon="-2.02299">
        <time>2021-06-19T11:37:44+0000</time>
      </trkpt>
      <trkpt lat="40.65854" lon="-2.02304">
        <time>2021-06-19T11:37:45+0000</time>
      </trkpt>
      <trkpt lat="40.65867" lon="-2.02311">
        <time>2021-06-19T11:37:46+0000</time>
      </trkpt>
      <trkpt lat="40.65880000000001" lon="-2.0232">
        <time>2021-06-19T11:37:47+0000</time>
      </trkpt>
      <trkpt lat="40.65892" lon="-2.02328">
        <time>2021-06-19T11:37:48+0000</time>
      </trkpt>
      <trkpt lat="40.659040000000005" lon="-2.0234">
        <time>2021-06-19T11:37:49+0000</time>
      </trkpt>
      <trkpt lat="40.65916" lon="-2.02354">
        <time>2021-06-19T11:37:50+0000</time>
      </trkpt>
      <trkpt lat="40.65926" lon="-2.02368">
        <time>2021-06-19T11:37:51+0000</time>
      </trkpt>
      <trkpt lat="40.65937" lon="-2.02382">
        <time>2021-06-19T11:37:52+0000</time>
      </trkpt>
      <trkpt lat="40.659490000000005" lon="-2.0239700000000003">
        <time>2021-06-19T11:37:53+0000</time>
      </trkpt>
      <trkpt lat="40.659600000000005" lon="-2.0241100000000003">
        <time>2021-06-19T11:37:54+0000</time>
      </trkpt>
      <trkpt lat="40.65972" lon="-2.0242400000000003">
        <time>2021-06-19T11:37:55+0000</time>
      </trkpt>
      <trkpt lat="40.65984" lon="-2.0243700000000002">
        <time>2021-06-19T11:37:56+0000</time>
      </trkpt>
      <trkpt lat="40.659960000000005" lon="-2.0245100000000003">
        <time>2021-06-19T11:37:57+0000</time>
      </trkpt>
      <trkpt lat="40.660070000000005" lon="-2.02464">
        <time>2021-06-19T11:37:58+0000</time>
      </trkpt>
      <trkpt lat="40.66017" lon="-2.0247900000000003">
        <time>2021-06-19T11:37:59+0000</time>
      </trkpt>
      <trkpt lat="40.660270000000004" lon="-2.02494">
        <time>2021-06-19T11:38:00+0000</time>
      </trkpt>
      <trkpt lat="40.66038" lon="-2.02509">
        <time>2021-06-19T11:38:01+0000</time>
      </trkpt>
      <trkpt lat="40.66049" lon="-2.02523">
        <time>2021-06-19T11:38:02+0000</time>
      </trkpt>
      <trkpt lat="40.66062" lon="-2.0253400000000004">
        <time>2021-06-19T11:38:03+0000</time>
      </trkpt>
      <trkpt lat="40.66075" lon="-2.02543">
        <time>2021-06-19T11:38:04+0000</time>
      </trkpt>
      <trkpt lat="40.660880000000006" lon="-2.0255">
        <time>2021-06-19T11:38:05+0000</time>
      </trkpt>
      <trkpt lat="40.661030000000004" lon="-2.02555">
        <time>2021-06-19T11:38:06+0000</time>
      </trkpt>
      <trkpt lat="40.66118" lon="-2.0256000000000003">
        <time>2021-06-19T11:38:07+0000</time>
      </trkpt>
      <trkpt lat="40.66134" lon="-2.02564">
        <time>2021-06-19T11:38:08+0000</time>
      </trkpt>
      <trkpt lat="40.66149" lon="-2.02569">
        <time>2021-06-19T11:38:09+0000</time>
      </trkpt>
      <trkpt lat="40.66163" lon="-2.0257400000000003">
        <time>2021-06-19T11:38:10+0000</time>
      </trkpt>
      <trkpt lat="40.661770000000004" lon="-2.02578">
        <time>2021-06-19T11:38:11+0000</time>
      </trkpt>
      <trkpt lat="40.66192" lon="-2.02583">
        <time>2021-06-19T11:38:12+0000</time>
      </trkpt>
      <trkpt lat="40.662060000000004" lon="-2.0258700000000003">
        <time>2021-06-19T11:38:13+0000</time>
      </trkpt>
      <trkpt lat="40.66221" lon="-2.02591">
        <time>2021-06-19T11:38:14+0000</time>
      </trkpt>
      <trkpt lat="40.66237" lon="-2.0259400000000003">
        <time>2021-06-19T11:38:15+0000</time>
      </trkpt>
      <trkpt lat="40.662530000000004" lon="-2.02598">
        <time>2021-06-19T11:38:16+0000</time>
      </trkpt>
      <trkpt lat="40.66268" lon="-2.0260100000000003">
        <time>2021-06-19T11:38:17+0000</time>
      </trkpt>
      <trkpt lat="40.66283000000001" lon="-2.02605">
        <time>2021-06-19T11:38:18+0000</time>
      </trkpt>
      <trkpt lat="40.66297" lon="-2.0261">
        <time>2021-06-19T11:38:19+0000</time>
      </trkpt>
      <trkpt lat="40.66311" lon="-2.0262000000000002">
        <time>2021-06-19T11:38:20+0000</time>
      </trkpt>
      <trkpt lat="40.66324" lon="-2.0262900000000004">
        <time>2021-06-19T11:38:21+0000</time>
      </trkpt>
      <trkpt lat="40.66335" lon="-2.02639">
        <time>2021-06-19T11:38:22+0000</time>
      </trkpt>
      <trkpt lat="40.663470000000004" lon="-2.0264800000000003">
        <time>2021-06-19T11:38:23+0000</time>
      </trkpt>
      <trkpt lat="40.663590000000006" lon="-2.0265600000000004">
        <time>2021-06-19T11:38:24+0000</time>
      </trkpt>
      <trkpt lat="40.66371" lon="-2.0266">
        <time>2021-06-19T11:38:25+0000</time>
      </trkpt>
      <trkpt lat="40.66384" lon="-2.0266">
        <time>2021-06-19T11:38:26+0000</time>
      </trkpt>
      <trkpt lat="40.66395" lon="-2.0266300000000004">
        <time>2021-06-19T11:38:27+0000</time>
      </trkpt>
      <trkpt lat="40.66405" lon="-2.02667">
        <time>2021-06-19T11:38:28+0000</time>
      </trkpt>
      <trkpt lat="40.66414" lon="-2.0267">
        <time>2021-06-19T11:38:29+0000</time>
      </trkpt>
      <trkpt lat="40.664210000000004" lon="-2.02673">
        <time>2021-06-19T11:38:30+0000</time>
      </trkpt>
      <trkpt lat="40.66427" lon="-2.0267500000000003">
        <time>2021-06-19T11:38:31+0000</time>
      </trkpt>
      <trkpt lat="40.66433000000001" lon="-2.02677">
        <time>2021-06-19T11:38:32+0000</time>
      </trkpt>
      <trkpt lat="40.66438" lon="-2.02677">
        <time>2021-06-19T11:38:33+0000</time>
      </trkpt>
      <trkpt lat="40.66443" lon="-2.0267600000000003">
        <time>2021-06-19T11:38:34+0000</time>
      </trkpt>
      <trkpt lat="40.664480000000005" lon="-2.02674">
        <time>2021-06-19T11:38:35+0000</time>
      </trkpt>
      <trkpt lat="40.664500000000004" lon="-2.0266800000000003">
        <time>2021-06-19T11:38:36+0000</time>
      </trkpt>
      <trkpt lat="40.664530000000006" lon="-2.0266200000000003">
        <time>2021-06-19T11:38:37+0000</time>
      </trkpt>
      <trkpt lat="40.66454" lon="-2.0265400000000002">
        <time>2021-06-19T11:38:38+0000</time>
      </trkpt>
      <trkpt lat="40.664570000000005" lon="-2.02644">
        <time>2021-06-19T11:38:39+0000</time>
      </trkpt>
      <trkpt lat="40.664590000000004" lon="-2.02633">
        <time>2021-06-19T11:38:40+0000</time>
      </trkpt>
      <trkpt lat="40.66461" lon="-2.02619">
        <time>2021-06-19T11:38:41+0000</time>
      </trkpt>
      <trkpt lat="40.66461" lon="-2.02604">
        <time>2021-06-19T11:38:42+0000</time>
      </trkpt>
      <trkpt lat="40.664620000000006" lon="-2.0259">
        <time>2021-06-19T11:38:43+0000</time>
      </trkpt>
      <trkpt lat="40.664640000000006" lon="-2.0257500000000004">
        <time>2021-06-19T11:38:44+0000</time>
      </trkpt>
      <trkpt lat="40.664660000000005" lon="-2.0256000000000003">
        <time>2021-06-19T11:38:45+0000</time>
      </trkpt>
      <trkpt lat="40.66467" lon="-2.0254600000000003">
        <time>2021-06-19T11:38:46+0000</time>
      </trkpt>
      <trkpt lat="40.664680000000004" lon="-2.0253400000000004">
        <time>2021-06-19T11:38:47+0000</time>
      </trkpt>
      <trkpt lat="40.66469" lon="-2.02524">
        <time>2021-06-19T11:38:48+0000</time>
      </trkpt>
      <trkpt lat="40.66471000000001" lon="-2.0251300000000003">
        <time>2021-06-19T11:38:49+0000</time>
      </trkpt>
      <trkpt lat="40.66471000000001" lon="-2.02503">
        <time>2021-06-19T11:38:50+0000</time>
      </trkpt>
      <trkpt lat="40.66472" lon="-2.02491">
        <time>2021-06-19T11:38:51+0000</time>
      </trkpt>
      <trkpt lat="40.664730000000006" lon="-2.0247900000000003">
        <time>2021-06-19T11:38:52+0000</time>
      </trkpt>
      <trkpt lat="40.66474" lon="-2.0246600000000003">
        <time>2021-06-19T11:38:53+0000</time>
      </trkpt>
      <trkpt lat="40.664750000000005" lon="-2.0245300000000004">
        <time>2021-06-19T11:38:54+0000</time>
      </trkpt>
      <trkpt lat="40.664770000000004" lon="-2.0243900000000004">
        <time>2021-06-19T11:38:55+0000</time>
      </trkpt>
      <trkpt lat="40.66478" lon="-2.0242400000000003">
        <time>2021-06-19T11:38:56+0000</time>
      </trkpt>
      <trkpt lat="40.66479" lon="-2.02409">
        <time>2021-06-19T11:38:57+0000</time>
      </trkpt>
      <trkpt lat="40.66481" lon="-2.02394">
        <time>2021-06-19T11:38:58+0000</time>
      </trkpt>
      <trkpt lat="40.66483" lon="-2.0237700000000003">
        <time>2021-06-19T11:38:59+0000</time>
      </trkpt>
      <trkpt lat="40.664860000000004" lon="-2.0236">
        <time>2021-06-19T11:39:00+0000</time>
      </trkpt>
      <trkpt lat="40.6649" lon="-2.0234300000000003">
        <time>2021-06-19T11:39:01+0000</time>
      </trkpt>
      <trkpt lat="40.66494" lon="-2.02326">
        <time>2021-06-19T11:39:02+0000</time>
      </trkpt>
      <trkpt lat="40.66499" lon="-2.02312">
        <time>2021-06-19T11:39:03+0000</time>
      </trkpt>
      <trkpt lat="40.66505" lon="-2.0229700000000004">
        <time>2021-06-19T11:39:04+0000</time>
      </trkpt>
      <trkpt lat="40.665110000000006" lon="-2.0228200000000003">
        <time>2021-06-19T11:39:05+0000</time>
      </trkpt>
      <trkpt lat="40.66517" lon="-2.0226800000000003">
        <time>2021-06-19T11:39:06+0000</time>
      </trkpt>
      <trkpt lat="40.665240000000004" lon="-2.0225500000000003">
        <time>2021-06-19T11:39:07+0000</time>
      </trkpt>
      <trkpt lat="40.665310000000005" lon="-2.02244">
        <time>2021-06-19T11:39:08+0000</time>
      </trkpt>
      <trkpt lat="40.665380000000006" lon="-2.0223400000000002">
        <time>2021-06-19T11:39:09+0000</time>
      </trkpt>
      <trkpt lat="40.66545" lon="-2.02224">
        <time>2021-06-19T11:39:10+0000</time>
      </trkpt>
      <trkpt lat="40.66552" lon="-2.0221400000000003">
        <time>2021-06-19T11:39:11+0000</time>
      </trkpt>
      <trkpt lat="40.66559" lon="-2.02204">
        <time>2021-06-19T11:39:12+0000</time>
      </trkpt>
      <trkpt lat="40.665670000000006" lon="-2.0219400000000003">
        <time>2021-06-19T11:39:13+0000</time>
      </trkpt>
      <trkpt lat="40.66575" lon="-2.02183">
        <time>2021-06-19T11:39:14+0000</time>
      </trkpt>
      <trkpt lat="40.66584" lon="-2.02171">
        <time>2021-06-19T11:39:15+0000</time>
      </trkpt>
      <trkpt lat="40.66593" lon="-2.02159">
        <time>2021-06-19T11:39:16+0000</time>
      </trkpt>
      <trkpt lat="40.66601" lon="-2.0214700000000003">
        <time>2021-06-19T11:39:17+0000</time>
      </trkpt>
      <trkpt lat="40.666090000000004" lon="-2.02135">
        <time>2021-06-19T11:39:18+0000</time>
      </trkpt>
      <trkpt lat="40.66617" lon="-2.02123">
        <time>2021-06-19T11:39:19+0000</time>
      </trkpt>
      <trkpt lat="40.66624" lon="-2.0211200000000002">
        <time>2021-06-19T11:39:20+0000</time>
      </trkpt>
      <trkpt lat="40.666320000000006" lon="-2.02101">
        <time>2021-06-19T11:39:21+0000</time>
      </trkpt>
      <trkpt lat="40.666380000000004" lon="-2.02091">
        <time>2021-06-19T11:39:22+0000</time>
      </trkpt>
      <trkpt lat="40.66644" lon="-2.02081">
        <time>2021-06-19T11:39:23+0000</time>
      </trkpt>
      <trkpt lat="40.666500000000006" lon="-2.0207">
        <time>2021-06-19T11:39:24+0000</time>
      </trkpt>
      <trkpt lat="40.666540000000005" lon="-2.0205900000000003">
        <time>2021-06-19T11:39:25+0000</time>
      </trkpt>
      <trkpt lat="40.66658" lon="-2.02047">
        <time>2021-06-19T11:39:26+0000</time>
      </trkpt>
      <trkpt lat="40.6666" lon="-2.02034">
        <time>2021-06-19T11:39:27+0000</time>
      </trkpt>
      <trkpt lat="40.6666" lon="-2.0202">
        <time>2021-06-19T11:39:28+0000</time>
      </trkpt>
      <trkpt lat="40.66658" lon="-2.02006">
        <time>2021-06-19T11:39:29+0000</time>
      </trkpt>
      <trkpt lat="40.66655" lon="-2.0199200000000004">
        <time>2021-06-19T11:39:30+0000</time>
      </trkpt>
      <trkpt lat="40.666500000000006" lon="-2.0197800000000004">
        <time>2021-06-19T11:39:31+0000</time>
      </trkpt>
      <trkpt lat="40.66644" lon="-2.01965">
        <time>2021-06-19T11:39:32+0000</time>
      </trkpt>
      <trkpt lat="40.666360000000005" lon="-2.01953">
        <time>2021-06-19T11:39:33+0000</time>
      </trkpt>
      <trkpt lat="40.66628" lon="-2.0194">
        <time>2021-06-19T11:39:34+0000</time>
      </trkpt>
      <trkpt lat="40.6662" lon="-2.01927">
        <time>2021-06-19T11:39:35+0000</time>
      </trkpt>
      <trkpt lat="40.66613" lon="-2.0191600000000003">
        <time>2021-06-19T11:39:36+0000</time>
      </trkpt>
      <trkpt lat="40.66606" lon="-2.01904">
        <time>2021-06-19T11:39:37+0000</time>
      </trkpt>
      <trkpt lat="40.665980000000005" lon="-2.0189500000000002">
        <time>2021-06-19T11:39:38+0000</time>
      </trkpt>
      <trkpt lat="40.665890000000005" lon="-2.0188800000000002">
        <time>2021-06-19T11:39:39+0000</time>
      </trkpt>
      <trkpt lat="40.66581" lon="-2.0188300000000003">
        <time>2021-06-19T11:39:40+0000</time>
      </trkpt>
      <trkpt lat="40.6657" lon="-2.01879">
        <time>2021-06-19T11:39:41+0000</time>
      </trkpt>
      <trkpt lat="40.66559" lon="-2.0188">
        <time>2021-06-19T11:39:42+0000</time>
      </trkpt>
      <trkpt lat="40.665470000000006" lon="-2.0188200000000003">
        <time>2021-06-19T11:39:43+0000</time>
      </trkpt>
      <trkpt lat="40.665350000000004" lon="-2.01886">
        <time>2021-06-19T11:39:44+0000</time>
      </trkpt>
      <trkpt lat="40.66521" lon="-2.01892">
        <time>2021-06-19T11:39:45+0000</time>
      </trkpt>
      <trkpt lat="40.66507" lon="-2.019">
        <time>2021-06-19T11:39:46+0000</time>
      </trkpt>
      <trkpt lat="40.664950000000005" lon="-2.01907">
        <time>2021-06-19T11:39:47+0000</time>
      </trkpt>
      <trkpt lat="40.66483" lon="-2.01912">
        <time>2021-06-19T11:39:48+0000</time>
      </trkpt>
      <trkpt lat="40.66471000000001" lon="-2.01918">
        <time>2021-06-19T11:39:49+0000</time>
      </trkpt>
      <trkpt lat="40.664570000000005" lon="-2.01921">
        <time>2021-06-19T11:39:50+0000</time>
      </trkpt>
      <trkpt lat="40.66445" lon="-2.0192200000000002">
        <time>2021-06-19T11:39:51+0000</time>
      </trkpt>
      <trkpt lat="40.66431" lon="-2.01921">
        <time>2021-06-19T11:39:52+0000</time>
      </trkpt>
      <trkpt lat="40.664190000000005" lon="-2.0191600000000003">
        <time>2021-06-19T11:39:53+0000</time>
      </trkpt>
      <trkpt lat="40.664080000000006" lon="-2.01908">
        <time>2021-06-19T11:39:54+0000</time>
      </trkpt>
      <trkpt lat="40.66398" lon="-2.01898">
        <time>2021-06-19T11:39:55+0000</time>
      </trkpt>
      <trkpt lat="40.663880000000006" lon="-2.01886">
        <time>2021-06-19T11:39:56+0000</time>
      </trkpt>
      <trkpt lat="40.6638" lon="-2.01873">
        <time>2021-06-19T11:39:57+0000</time>
      </trkpt>
      <trkpt lat="40.66373" lon="-2.01859">
        <time>2021-06-19T11:39:58+0000</time>
      </trkpt>
      <trkpt lat="40.66367" lon="-2.01844">
        <time>2021-06-19T11:39:59+0000</time>
      </trkpt>
      <trkpt lat="40.663630000000005" lon="-2.0182900000000004">
        <time>2021-06-19T11:40:00+0000</time>
      </trkpt>
      <trkpt lat="40.6636" lon="-2.0181400000000003">
        <time>2021-06-19T11:40:01+0000</time>
      </trkpt>
      <trkpt lat="40.66358" lon="-2.01797">
        <time>2021-06-19T11:40:02+0000</time>
      </trkpt>
      <trkpt lat="40.66357" lon="-2.0178000000000003">
        <time>2021-06-19T11:40:03+0000</time>
      </trkpt>
      <trkpt lat="40.66357" lon="-2.01763">
        <time>2021-06-19T11:40:04+0000</time>
      </trkpt>
      <trkpt lat="40.663590000000006" lon="-2.0174600000000003">
        <time>2021-06-19T11:40:05+0000</time>
      </trkpt>
      <trkpt lat="40.663590000000006" lon="-2.0173">
        <time>2021-06-19T11:40:06+0000</time>
      </trkpt>
      <trkpt lat="40.663610000000006" lon="-2.0171300000000003">
        <time>2021-06-19T11:40:07+0000</time>
      </trkpt>
      <trkpt lat="40.663630000000005" lon="-2.01697">
        <time>2021-06-19T11:40:08+0000</time>
      </trkpt>
      <trkpt lat="40.66366" lon="-2.0168000000000004">
        <time>2021-06-19T11:40:09+0000</time>
      </trkpt>
      <trkpt lat="40.66368000000001" lon="-2.01663">
        <time>2021-06-19T11:40:10+0000</time>
      </trkpt>
      <trkpt lat="40.663720000000005" lon="-2.0164600000000004">
        <time>2021-06-19T11:40:11+0000</time>
      </trkpt>
      <trkpt lat="40.66376" lon="-2.0163">
        <time>2021-06-19T11:40:12+0000</time>
      </trkpt>
      <trkpt lat="40.663810000000005" lon="-2.01615">
        <time>2021-06-19T11:40:13+0000</time>
      </trkpt>
      <trkpt lat="40.663880000000006" lon="-2.01602">
        <time>2021-06-19T11:40:14+0000</time>
      </trkpt>
      <trkpt lat="40.66395" lon="-2.01589">
        <time>2021-06-19T11:40:15+0000</time>
      </trkpt>
      <trkpt lat="40.664030000000004" lon="-2.0157700000000003">
        <time>2021-06-19T11:40:16+0000</time>
      </trkpt>
      <trkpt lat="40.66411" lon="-2.0156500000000004">
        <time>2021-06-19T11:40:17+0000</time>
      </trkpt>
      <trkpt lat="40.6642" lon="-2.01552">
        <time>2021-06-19T11:40:18+0000</time>
      </trkpt>
      <trkpt lat="40.66429" lon="-2.01539">
        <time>2021-06-19T11:40:19+0000</time>
      </trkpt>
      <trkpt lat="40.664390000000004" lon="-2.01526">
        <time>2021-06-19T11:40:20+0000</time>
      </trkpt>
      <trkpt lat="40.664480000000005" lon="-2.01513">
        <time>2021-06-19T11:40:21+0000</time>
      </trkpt>
      <trkpt lat="40.664570000000005" lon="-2.01501">
        <time>2021-06-19T11:40:22+0000</time>
      </trkpt>
      <trkpt lat="40.664660000000005" lon="-2.0148800000000002">
        <time>2021-06-19T11:40:23+0000</time>
      </trkpt>
      <trkpt lat="40.664750000000005" lon="-2.0147600000000003">
        <time>2021-06-19T11:40:24+0000</time>
      </trkpt>
      <trkpt lat="40.664840000000005" lon="-2.01464">
        <time>2021-06-19T11:40:25+0000</time>
      </trkpt>
      <trkpt lat="40.66494" lon="-2.01454">
        <time>2021-06-19T11:40:26+0000</time>
      </trkpt>
      <trkpt lat="40.66505" lon="-2.01444">
        <time>2021-06-19T11:40:27+0000</time>
      </trkpt>
      <trkpt lat="40.66517" lon="-2.0143600000000004">
        <time>2021-06-19T11:40:28+0000</time>
      </trkpt>
      <trkpt lat="40.6653" lon="-2.0142900000000004">
        <time>2021-06-19T11:40:29+0000</time>
      </trkpt>
      <trkpt lat="40.665440000000004" lon="-2.01424">
        <time>2021-06-19T11:40:30+0000</time>
      </trkpt>
      <trkpt lat="40.665580000000006" lon="-2.0142100000000003">
        <time>2021-06-19T11:40:31+0000</time>
      </trkpt>
      <trkpt lat="40.66573" lon="-2.01419">
        <time>2021-06-19T11:40:32+0000</time>
      </trkpt>
      <trkpt lat="40.665870000000005" lon="-2.01419">
        <time>2021-06-19T11:40:33+0000</time>
      </trkpt>
      <trkpt lat="40.66602" lon="-2.0142100000000003">
        <time>2021-06-19T11:40:34+0000</time>
      </trkpt>
      <trkpt lat="40.666180000000004" lon="-2.01423">
        <time>2021-06-19T11:40:35+0000</time>
      </trkpt>
      <trkpt lat="40.666340000000005" lon="-2.01425">
        <time>2021-06-19T11:40:36+0000</time>
      </trkpt>
      <trkpt lat="40.66649" lon="-2.0142700000000002">
        <time>2021-06-19T11:40:37+0000</time>
      </trkpt>
      <trkpt lat="40.666610000000006" lon="-2.01425">
        <time>2021-06-19T11:40:38+0000</time>
      </trkpt>
      <trkpt lat="40.66673" lon="-2.0142">
        <time>2021-06-19T11:40:39+0000</time>
      </trkpt>
      <trkpt lat="40.666810000000005" lon="-2.01412">
        <time>2021-06-19T11:40:40+0000</time>
      </trkpt>
      <trkpt lat="40.66689" lon="-2.0140000000000002">
        <time>2021-06-19T11:40:41+0000</time>
      </trkpt>
      <trkpt lat="40.66695" lon="-2.01385">
        <time>2021-06-19T11:40:42+0000</time>
      </trkpt>
      <trkpt lat="40.666940000000004" lon="-2.01369">
        <time>2021-06-19T11:40:43+0000</time>
      </trkpt>
      <trkpt lat="40.666920000000005" lon="-2.01352">
        <time>2021-06-19T11:40:44+0000</time>
      </trkpt>
      <trkpt lat="40.66689" lon="-2.0133400000000004">
        <time>2021-06-19T11:40:45+0000</time>
      </trkpt>
      <trkpt lat="40.66686" lon="-2.01315">
        <time>2021-06-19T11:40:46+0000</time>
      </trkpt>
      <trkpt lat="40.666830000000004" lon="-2.01297">
        <time>2021-06-19T11:40:47+0000</time>
      </trkpt>
      <trkpt lat="40.66684" lon="-2.0127900000000003">
        <time>2021-06-19T11:40:48+0000</time>
      </trkpt>
      <trkpt lat="40.666850000000004" lon="-2.01264">
        <time>2021-06-19T11:40:49+0000</time>
      </trkpt>
      <trkpt lat="40.666900000000005" lon="-2.01248">
        <time>2021-06-19T11:40:50+0000</time>
      </trkpt>
      <trkpt lat="40.66698" lon="-2.01235">
        <time>2021-06-19T11:40:51+0000</time>
      </trkpt>
      <trkpt lat="40.66709" lon="-2.0122500000000003">
        <time>2021-06-19T11:40:52+0000</time>
      </trkpt>
      <trkpt lat="40.66722" lon="-2.0121900000000004">
        <time>2021-06-19T11:40:53+0000</time>
      </trkpt>
      <trkpt lat="40.667350000000006" lon="-2.01214">
        <time>2021-06-19T11:40:54+0000</time>
      </trkpt>
      <trkpt lat="40.667480000000005" lon="-2.0121">
        <time>2021-06-19T11:40:55+0000</time>
      </trkpt>
      <trkpt lat="40.66761" lon="-2.01206">
        <time>2021-06-19T11:40:56+0000</time>
      </trkpt>
      <trkpt lat="40.66774" lon="-2.012">
        <time>2021-06-19T11:40:57+0000</time>
      </trkpt>
      <trkpt lat="40.66787" lon="-2.01193">
        <time>2021-06-19T11:40:58+0000</time>
      </trkpt>
      <trkpt lat="40.667970000000004" lon="-2.0118500000000004">
        <time>2021-06-19T11:40:59+0000</time>
      </trkpt>
      <trkpt lat="40.66805" lon="-2.0117700000000003">
        <time>2021-06-19T11:41:00+0000</time>
      </trkpt>
      <trkpt lat="40.668130000000005" lon="-2.01166">
        <time>2021-06-19T11:41:01+0000</time>
      </trkpt>
      <trkpt lat="40.66817" lon="-2.01152">
        <time>2021-06-19T11:41:02+0000</time>
      </trkpt>
      <trkpt lat="40.66818000000001" lon="-2.0113700000000003">
        <time>2021-06-19T11:41:03+0000</time>
      </trkpt>
      <trkpt lat="40.66816" lon="-2.01121">
        <time>2021-06-19T11:41:04+0000</time>
      </trkpt>
      <trkpt lat="40.66812" lon="-2.01105">
        <time>2021-06-19T11:41:05+0000</time>
      </trkpt>
      <trkpt lat="40.668040000000005" lon="-2.0109000000000004">
        <time>2021-06-19T11:41:06+0000</time>
      </trkpt>
      <trkpt lat="40.66796" lon="-2.0107500000000003">
        <time>2021-06-19T11:41:07+0000</time>
      </trkpt>
      <trkpt lat="40.66787" lon="-2.01059">
        <time>2021-06-19T11:41:08+0000</time>
      </trkpt>
      <trkpt lat="40.66780000000001" lon="-2.01044">
        <time>2021-06-19T11:41:09+0000</time>
      </trkpt>
      <trkpt lat="40.667750000000005" lon="-2.0103">
        <time>2021-06-19T11:41:10+0000</time>
      </trkpt>
      <trkpt lat="40.667730000000006" lon="-2.0101400000000003">
        <time>2021-06-19T11:41:11+0000</time>
      </trkpt>
      <trkpt lat="40.667730000000006" lon="-2.0100000000000002">
        <time>2021-06-19T11:41:12+0000</time>
      </trkpt>
      <trkpt lat="40.66776" lon="-2.00985">
        <time>2021-06-19T11:41:13+0000</time>
      </trkpt>
      <trkpt lat="40.66780000000001" lon="-2.00971">
        <time>2021-06-19T11:41:14+0000</time>
      </trkpt>
      <trkpt lat="40.66787" lon="-2.00958">
        <time>2021-06-19T11:41:15+0000</time>
      </trkpt>
      <trkpt lat="40.667950000000005" lon="-2.0094600000000002">
        <time>2021-06-19T11:41:16+0000</time>
      </trkpt>
      <trkpt lat="40.66805" lon="-2.00937">
        <time>2021-06-19T11:41:17+0000</time>
      </trkpt>
      <trkpt lat="40.66816" lon="-2.00928">
        <time>2021-06-19T11:41:18+0000</time>
      </trkpt>
      <trkpt lat="40.66827000000001" lon="-2.0091900000000003">
        <time>2021-06-19T11:41:19+0000</time>
      </trkpt>
      <trkpt lat="40.66839" lon="-2.00911">
        <time>2021-06-19T11:41:20+0000</time>
      </trkpt>
      <trkpt lat="40.668510000000005" lon="-2.00902">
        <time>2021-06-19T11:41:21+0000</time>
      </trkpt>
      <trkpt lat="40.668620000000004" lon="-2.0089300000000003">
        <time>2021-06-19T11:41:22+0000</time>
      </trkpt>
      <trkpt lat="40.66874000000001" lon="-2.00884">
        <time>2021-06-19T11:41:23+0000</time>
      </trkpt>
      <trkpt lat="40.66886" lon="-2.00874">
        <time>2021-06-19T11:41:24+0000</time>
      </trkpt>
      <trkpt lat="40.668980000000005" lon="-2.00864">
        <time>2021-06-19T11:41:25+0000</time>
      </trkpt>
      <trkpt lat="40.669090000000004" lon="-2.00854">
        <time>2021-06-19T11:41:26+0000</time>
      </trkpt>
      <trkpt lat="40.669180000000004" lon="-2.00843">
        <time>2021-06-19T11:41:27+0000</time>
      </trkpt>
      <trkpt lat="40.669270000000004" lon="-2.0083100000000003">
        <time>2021-06-19T11:41:28+0000</time>
      </trkpt>
      <trkpt lat="40.66933" lon="-2.0081900000000004">
        <time>2021-06-19T11:41:29+0000</time>
      </trkpt>
      <trkpt lat="40.669340000000005" lon="-2.0080400000000003">
        <time>2021-06-19T11:41:30+0000</time>
      </trkpt>
      <trkpt lat="40.669340000000005" lon="-2.00789">
        <time>2021-06-19T11:41:31+0000</time>
      </trkpt>
      <trkpt lat="40.6693" lon="-2.00774">
        <time>2021-06-19T11:41:32+0000</time>
      </trkpt>
      <trkpt lat="40.66924" lon="-2.0075800000000004">
        <time>2021-06-19T11:41:33+0000</time>
      </trkpt>
      <trkpt lat="40.66917" lon="-2.00742">
        <time>2021-06-19T11:41:34+0000</time>
      </trkpt>
      <trkpt lat="40.66911" lon="-2.00727">
        <time>2021-06-19T11:41:35+0000</time>
      </trkpt>
      <trkpt lat="40.669050000000006" lon="-2.00712">
        <time>2021-06-19T11:41:36+0000</time>
      </trkpt>
      <trkpt lat="40.66902" lon="-2.0069700000000004">
        <time>2021-06-19T11:41:37+0000</time>
      </trkpt>
      <trkpt lat="40.669000000000004" lon="-2.0068">
        <time>2021-06-19T11:41:38+0000</time>
      </trkpt>
      <trkpt lat="40.669050000000006" lon="-2.00665">
        <time>2021-06-19T11:41:39+0000</time>
      </trkpt>
      <trkpt lat="40.66908" lon="-2.0064900000000003">
        <time>2021-06-19T11:41:40+0000</time>
      </trkpt>
      <trkpt lat="40.66912000000001" lon="-2.00633">
        <time>2021-06-19T11:41:41+0000</time>
      </trkpt>
      <trkpt lat="40.669180000000004" lon="-2.00616">
        <time>2021-06-19T11:41:42+0000</time>
      </trkpt>
      <trkpt lat="40.669230000000006" lon="-2.00597">
        <time>2021-06-19T11:41:43+0000</time>
      </trkpt>
      <trkpt lat="40.669270000000004" lon="-2.00578">
        <time>2021-06-19T11:41:44+0000</time>
      </trkpt>
      <trkpt lat="40.669290000000004" lon="-2.00559">
        <time>2021-06-19T11:41:45+0000</time>
      </trkpt>
      <trkpt lat="40.669270000000004" lon="-2.0054000000000003">
        <time>2021-06-19T11:41:46+0000</time>
      </trkpt>
      <trkpt lat="40.669250000000005" lon="-2.0052000000000003">
        <time>2021-06-19T11:41:47+0000</time>
      </trkpt>
      <trkpt lat="40.669200000000004" lon="-2.00501">
        <time>2021-06-19T11:41:48+0000</time>
      </trkpt>
      <trkpt lat="40.66913" lon="-2.00483">
        <time>2021-06-19T11:41:49+0000</time>
      </trkpt>
      <trkpt lat="40.66904" lon="-2.0046600000000003">
        <time>2021-06-19T11:41:50+0000</time>
      </trkpt>
      <trkpt lat="40.668940000000006" lon="-2.0045">
        <time>2021-06-19T11:41:51+0000</time>
      </trkpt>
      <trkpt lat="40.66884" lon="-2.00435">
        <time>2021-06-19T11:41:52+0000</time>
      </trkpt>
      <trkpt lat="40.66874000000001" lon="-2.0042">
        <time>2021-06-19T11:41:53+0000</time>
      </trkpt>
      <trkpt lat="40.66866" lon="-2.00402">
        <time>2021-06-19T11:41:54+0000</time>
      </trkpt>
      <trkpt lat="40.66861" lon="-2.0038400000000003">
        <time>2021-06-19T11:41:55+0000</time>
      </trkpt>
      <trkpt lat="40.66859" lon="-2.0036500000000004">
        <time>2021-06-19T11:41:56+0000</time>
      </trkpt>
      <trkpt lat="40.66859" lon="-2.0034400000000003">
        <time>2021-06-19T11:41:57+0000</time>
      </trkpt>
      <trkpt lat="40.668600000000005" lon="-2.0032200000000002">
        <time>2021-06-19T11:41:58+0000</time>
      </trkpt>
      <trkpt lat="40.668620000000004" lon="-2.003">
        <time>2021-06-19T11:41:59+0000</time>
      </trkpt>
      <trkpt lat="40.668620000000004" lon="-2.00279">
        <time>2021-06-19T11:42:00+0000</time>
      </trkpt>
      <trkpt lat="40.66864" lon="-2.00257">
        <time>2021-06-19T11:42:01+0000</time>
      </trkpt>
      <trkpt lat="40.66863" lon="-2.0023600000000004">
        <time>2021-06-19T11:42:02+0000</time>
      </trkpt>
      <trkpt lat="40.66864" lon="-2.0021600000000004">
        <time>2021-06-19T11:42:03+0000</time>
      </trkpt>
      <trkpt lat="40.66866" lon="-2.00198">
        <time>2021-06-19T11:42:04+0000</time>
      </trkpt>
      <trkpt lat="40.668670000000006" lon="-2.0018100000000003">
        <time>2021-06-19T11:42:05+0000</time>
      </trkpt>
      <trkpt lat="40.66868" lon="-2.00165">
        <time>2021-06-19T11:42:06+0000</time>
      </trkpt>
      <trkpt lat="40.668690000000005" lon="-2.0014800000000004">
        <time>2021-06-19T11:42:07+0000</time>
      </trkpt>
      <trkpt lat="40.66872" lon="-2.00131">
        <time>2021-06-19T11:42:08+0000</time>
      </trkpt>
      <trkpt lat="40.668780000000005" lon="-2.0011400000000004">
        <time>2021-06-19T11:42:09+0000</time>
      </trkpt>
      <trkpt lat="40.668850000000006" lon="-2.00096">
        <time>2021-06-19T11:42:10+0000</time>
      </trkpt>
      <trkpt lat="40.668910000000004" lon="-2.00077">
        <time>2021-06-19T11:42:11+0000</time>
      </trkpt>
      <trkpt lat="40.668980000000005" lon="-2.0005800000000002">
        <time>2021-06-19T11:42:12+0000</time>
      </trkpt>
      <trkpt lat="40.66906" lon="-2.0004">
        <time>2021-06-19T11:42:13+0000</time>
      </trkpt>
      <trkpt lat="40.66912000000001" lon="-2.0002">
        <time>2021-06-19T11:42:14+0000</time>
      </trkpt>
      <trkpt lat="40.66919" lon="-2.00002">
        <time>2021-06-19T11:42:15+0000</time>
      </trkpt>
      <trkpt lat="40.669270000000004" lon="-1.9998500000000001">
        <time>2021-06-19T11:42:16+0000</time>
      </trkpt>
      <trkpt lat="40.669340000000005" lon="-1.9996800000000001">
        <time>2021-06-19T11:42:17+0000</time>
      </trkpt>
      <trkpt lat="40.669410000000006" lon="-1.9995300000000003">
        <time>2021-06-19T11:42:18+0000</time>
      </trkpt>
      <trkpt lat="40.66948" lon="-1.9993800000000002">
        <time>2021-06-19T11:42:19+0000</time>
      </trkpt>
      <trkpt lat="40.669520000000006" lon="-1.99923">
        <time>2021-06-19T11:42:20+0000</time>
      </trkpt>
      <trkpt lat="40.66959000000001" lon="-1.9990900000000003">
        <time>2021-06-19T11:42:21+0000</time>
      </trkpt>
      <trkpt lat="40.66968000000001" lon="-1.99896">
        <time>2021-06-19T11:42:22+0000</time>
      </trkpt>
      <trkpt lat="40.66977000000001" lon="-1.9988200000000003">
        <time>2021-06-19T11:42:23+0000</time>
      </trkpt>
      <trkpt lat="40.669880000000006" lon="-1.9986800000000002">
        <time>2021-06-19T11:42:24+0000</time>
      </trkpt>
      <trkpt lat="40.669990000000006" lon="-1.9985400000000002">
        <time>2021-06-19T11:42:25+0000</time>
      </trkpt>
      <trkpt lat="40.670120000000004" lon="-1.9984100000000002">
        <time>2021-06-19T11:42:26+0000</time>
      </trkpt>
      <trkpt lat="40.67024000000001" lon="-1.9982900000000001">
        <time>2021-06-19T11:42:27+0000</time>
      </trkpt>
      <trkpt lat="40.670370000000005" lon="-1.9981600000000002">
        <time>2021-06-19T11:42:28+0000</time>
      </trkpt>
      <trkpt lat="40.67049" lon="-1.9980400000000003">
        <time>2021-06-19T11:42:29+0000</time>
      </trkpt>
      <trkpt lat="40.67061" lon="-1.9979200000000001">
        <time>2021-06-19T11:42:30+0000</time>
      </trkpt>
      <trkpt lat="40.67072" lon="-1.9977900000000002">
        <time>2021-06-19T11:42:31+0000</time>
      </trkpt>
      <trkpt lat="40.67083" lon="-1.9976600000000002">
        <time>2021-06-19T11:42:32+0000</time>
      </trkpt>
      <trkpt lat="40.670930000000006" lon="-1.9975200000000002">
        <time>2021-06-19T11:42:33+0000</time>
      </trkpt>
      <trkpt lat="40.671020000000006" lon="-1.9973600000000002">
        <time>2021-06-19T11:42:34+0000</time>
      </trkpt>
      <trkpt lat="40.67108" lon="-1.9971900000000002">
        <time>2021-06-19T11:42:35+0000</time>
      </trkpt>
      <trkpt lat="40.67116" lon="-1.9970200000000002">
        <time>2021-06-19T11:42:36+0000</time>
      </trkpt>
      <trkpt lat="40.671220000000005" lon="-1.99683">
        <time>2021-06-19T11:42:37+0000</time>
      </trkpt>
      <trkpt lat="40.67128" lon="-1.99662">
        <time>2021-06-19T11:42:38+0000</time>
      </trkpt>
      <trkpt lat="40.671330000000005" lon="-1.9963800000000003">
        <time>2021-06-19T11:42:39+0000</time>
      </trkpt>
      <trkpt lat="40.671400000000006" lon="-1.9961400000000002">
        <time>2021-06-19T11:42:40+0000</time>
      </trkpt>
      <trkpt lat="40.67146" lon="-1.99591">
        <time>2021-06-19T11:42:41+0000</time>
      </trkpt>
      <trkpt lat="40.67152" lon="-1.9956800000000001">
        <time>2021-06-19T11:42:42+0000</time>
      </trkpt>
      <trkpt lat="40.671580000000006" lon="-1.9954500000000002">
        <time>2021-06-19T11:42:43+0000</time>
      </trkpt>
      <trkpt lat="40.671640000000004" lon="-1.9952100000000002">
        <time>2021-06-19T11:42:44+0000</time>
      </trkpt>
      <trkpt lat="40.6717" lon="-1.9949700000000001">
        <time>2021-06-19T11:42:45+0000</time>
      </trkpt>
      <trkpt lat="40.67175" lon="-1.9947100000000002">
        <time>2021-06-19T11:42:46+0000</time>
      </trkpt>
      <trkpt lat="40.67179" lon="-1.9944300000000001">
        <time>2021-06-19T11:42:47+0000</time>
      </trkpt>
      <trkpt lat="40.67184" lon="-1.99415">
        <time>2021-06-19T11:42:48+0000</time>
      </trkpt>
      <trkpt lat="40.67188" lon="-1.9938700000000003">
        <time>2021-06-19T11:42:49+0000</time>
      </trkpt>
      <trkpt lat="40.67193" lon="-1.9935800000000001">
        <time>2021-06-19T11:42:50+0000</time>
      </trkpt>
      <trkpt lat="40.67197" lon="-1.9932900000000002">
        <time>2021-06-19T11:42:51+0000</time>
      </trkpt>
      <trkpt lat="40.67202" lon="-1.9930100000000002">
        <time>2021-06-19T11:42:52+0000</time>
      </trkpt>
      <trkpt lat="40.67206" lon="-1.9927300000000001">
        <time>2021-06-19T11:42:53+0000</time>
      </trkpt>
      <trkpt lat="40.67211" lon="-1.99245">
        <time>2021-06-19T11:42:54+0000</time>
      </trkpt>
      <trkpt lat="40.672160000000005" lon="-1.9921700000000002">
        <time>2021-06-19T11:42:55+0000</time>
      </trkpt>
      <trkpt lat="40.67222" lon="-1.99191">
        <time>2021-06-19T11:42:56+0000</time>
      </trkpt>
      <trkpt lat="40.67228" lon="-1.9916600000000002">
        <time>2021-06-19T11:42:57+0000</time>
      </trkpt>
      <trkpt lat="40.67235" lon="-1.9914200000000002">
        <time>2021-06-19T11:42:58+0000</time>
      </trkpt>
      <trkpt lat="40.672410000000006" lon="-1.9911900000000002">
        <time>2021-06-19T11:42:59+0000</time>
      </trkpt>
      <trkpt lat="40.672470000000004" lon="-1.9909500000000002">
        <time>2021-06-19T11:43:00+0000</time>
      </trkpt>
      <trkpt lat="40.67253" lon="-1.9907100000000002">
        <time>2021-06-19T11:43:01+0000</time>
      </trkpt>
      <trkpt lat="40.6726" lon="-1.9904700000000002">
        <time>2021-06-19T11:43:02+0000</time>
      </trkpt>
      <trkpt lat="40.67266" lon="-1.9902300000000002">
        <time>2021-06-19T11:43:03+0000</time>
      </trkpt>
      <trkpt lat="40.672720000000005" lon="-1.9900000000000002">
        <time>2021-06-19T11:43:04+0000</time>
      </trkpt>
      <trkpt lat="40.67278" lon="-1.9897600000000002">
        <time>2021-06-19T11:43:05+0000</time>
      </trkpt>
      <trkpt lat="40.672880000000006" lon="-1.98954">
        <time>2021-06-19T11:43:06+0000</time>
      </trkpt>
      <trkpt lat="40.67293" lon="-1.9893100000000001">
        <time>2021-06-19T11:43:07+0000</time>
      </trkpt>
      <trkpt lat="40.672990000000006" lon="-1.9890800000000002">
        <time>2021-06-19T11:43:08+0000</time>
      </trkpt>
      <trkpt lat="40.67305" lon="-1.98886">
        <time>2021-06-19T11:43:09+0000</time>
      </trkpt>
      <trkpt lat="40.673120000000004" lon="-1.9886500000000003">
        <time>2021-06-19T11:43:10+0000</time>
      </trkpt>
      <trkpt lat="40.67318" lon="-1.9884400000000002">
        <time>2021-06-19T11:43:11+0000</time>
      </trkpt>
      <trkpt lat="40.67327" lon="-1.9882600000000001">
        <time>2021-06-19T11:43:12+0000</time>
      </trkpt>
      <trkpt lat="40.673370000000006" lon="-1.98808">
        <time>2021-06-19T11:43:13+0000</time>
      </trkpt>
      <trkpt lat="40.67347" lon="-1.98791">
        <time>2021-06-19T11:43:14+0000</time>
      </trkpt>
      <trkpt lat="40.673550000000006" lon="-1.98771">
        <time>2021-06-19T11:43:15+0000</time>
      </trkpt>
      <trkpt lat="40.67362000000001" lon="-1.98751">
        <time>2021-06-19T11:43:16+0000</time>
      </trkpt>
      <trkpt lat="40.67367" lon="-1.9873">
        <time>2021-06-19T11:43:17+0000</time>
      </trkpt>
      <trkpt lat="40.67372" lon="-1.9870800000000002">
        <time>2021-06-19T11:43:18+0000</time>
      </trkpt>
      <trkpt lat="40.673770000000005" lon="-1.9868700000000001">
        <time>2021-06-19T11:43:19+0000</time>
      </trkpt>
      <trkpt lat="40.673820000000006" lon="-1.98666">
        <time>2021-06-19T11:43:20+0000</time>
      </trkpt>
      <trkpt lat="40.67387" lon="-1.9864500000000003">
        <time>2021-06-19T11:43:21+0000</time>
      </trkpt>
      <trkpt lat="40.6739" lon="-1.9862600000000001">
        <time>2021-06-19T11:43:22+0000</time>
      </trkpt>
      <trkpt lat="40.67392" lon="-1.9860900000000001">
        <time>2021-06-19T11:43:23+0000</time>
      </trkpt>
      <trkpt lat="40.67392" lon="-1.9859000000000002">
        <time>2021-06-19T11:43:24+0000</time>
      </trkpt>
      <trkpt lat="40.67389" lon="-1.9857200000000002">
        <time>2021-06-19T11:43:25+0000</time>
      </trkpt>
      <trkpt lat="40.67385" lon="-1.98554">
        <time>2021-06-19T11:43:26+0000</time>
      </trkpt>
      <trkpt lat="40.673790000000004" lon="-1.98537">
        <time>2021-06-19T11:43:27+0000</time>
      </trkpt>
      <trkpt lat="40.673700000000004" lon="-1.9852200000000002">
        <time>2021-06-19T11:43:28+0000</time>
      </trkpt>
      <trkpt lat="40.67358" lon="-1.9850800000000002">
        <time>2021-06-19T11:43:29+0000</time>
      </trkpt>
      <trkpt lat="40.67345" lon="-1.9849500000000002">
        <time>2021-06-19T11:43:30+0000</time>
      </trkpt>
      <trkpt lat="40.673320000000004" lon="-1.98486">
        <time>2021-06-19T11:43:31+0000</time>
      </trkpt>
      <trkpt lat="40.67318" lon="-1.9847700000000001">
        <time>2021-06-19T11:43:32+0000</time>
      </trkpt>
      <trkpt lat="40.673080000000006" lon="-1.98466">
        <time>2021-06-19T11:43:33+0000</time>
      </trkpt>
      <trkpt lat="40.673" lon="-1.9845500000000003">
        <time>2021-06-19T11:43:34+0000</time>
      </trkpt>
      <trkpt lat="40.67295" lon="-1.98442">
        <time>2021-06-19T11:43:35+0000</time>
      </trkpt>
      <trkpt lat="40.672920000000005" lon="-1.9842700000000002">
        <time>2021-06-19T11:43:36+0000</time>
      </trkpt>
      <trkpt lat="40.67293" lon="-1.9841100000000003">
        <time>2021-06-19T11:43:37+0000</time>
      </trkpt>
      <trkpt lat="40.67296" lon="-1.9839400000000003">
        <time>2021-06-19T11:43:38+0000</time>
      </trkpt>
      <trkpt lat="40.673" lon="-1.9837600000000002">
        <time>2021-06-19T11:43:39+0000</time>
      </trkpt>
      <trkpt lat="40.67305" lon="-1.98357">
        <time>2021-06-19T11:43:40+0000</time>
      </trkpt>
      <trkpt lat="40.67309" lon="-1.9833800000000001">
        <time>2021-06-19T11:43:41+0000</time>
      </trkpt>
      <trkpt lat="40.67313" lon="-1.9832">
        <time>2021-06-19T11:43:42+0000</time>
      </trkpt>
      <trkpt lat="40.673170000000006" lon="-1.98303">
        <time>2021-06-19T11:43:43+0000</time>
      </trkpt>
      <trkpt lat="40.6732" lon="-1.98286">
        <time>2021-06-19T11:43:44+0000</time>
      </trkpt>
      <trkpt lat="40.673230000000004" lon="-1.9826800000000002">
        <time>2021-06-19T11:43:45+0000</time>
      </trkpt>
      <trkpt lat="40.67325" lon="-1.9825000000000002">
        <time>2021-06-19T11:43:46+0000</time>
      </trkpt>
      <trkpt lat="40.67325" lon="-1.9823000000000002">
        <time>2021-06-19T11:43:47+0000</time>
      </trkpt>
      <trkpt lat="40.67324" lon="-1.9821000000000002">
        <time>2021-06-19T11:43:48+0000</time>
      </trkpt>
      <trkpt lat="40.673210000000005" lon="-1.9819000000000002">
        <time>2021-06-19T11:43:49+0000</time>
      </trkpt>
      <trkpt lat="40.67316" lon="-1.9817000000000002">
        <time>2021-06-19T11:43:50+0000</time>
      </trkpt>
      <trkpt lat="40.67309" lon="-1.98151">
        <time>2021-06-19T11:43:51+0000</time>
      </trkpt>
      <trkpt lat="40.67302" lon="-1.9813200000000002">
        <time>2021-06-19T11:43:52+0000</time>
      </trkpt>
      <trkpt lat="40.672940000000004" lon="-1.9811400000000001">
        <time>2021-06-19T11:43:53+0000</time>
      </trkpt>
      <trkpt lat="40.67287" lon="-1.98096">
        <time>2021-06-19T11:43:54+0000</time>
      </trkpt>
      <trkpt lat="40.67282" lon="-1.9808000000000001">
        <time>2021-06-19T11:43:55+0000</time>
      </trkpt>
      <trkpt lat="40.67277" lon="-1.9806400000000002">
        <time>2021-06-19T11:43:56+0000</time>
      </trkpt>
      <trkpt lat="40.672740000000005" lon="-1.9804800000000002">
        <time>2021-06-19T11:43:57+0000</time>
      </trkpt>
      <trkpt lat="40.672720000000005" lon="-1.9803100000000002">
        <time>2021-06-19T11:43:58+0000</time>
      </trkpt>
      <trkpt lat="40.672700000000006" lon="-1.98012">
        <time>2021-06-19T11:43:59+0000</time>
      </trkpt>
      <trkpt lat="40.67271" lon="-1.9799300000000002">
        <time>2021-06-19T11:44:00+0000</time>
      </trkpt>
      <trkpt lat="40.672740000000005" lon="-1.9797300000000002">
        <time>2021-06-19T11:44:01+0000</time>
      </trkpt>
      <trkpt lat="40.6728" lon="-1.9795300000000002">
        <time>2021-06-19T11:44:02+0000</time>
      </trkpt>
      <trkpt lat="40.67286" lon="-1.97934">
        <time>2021-06-19T11:44:03+0000</time>
      </trkpt>
      <trkpt lat="40.67295" lon="-1.9791600000000003">
        <time>2021-06-19T11:44:04+0000</time>
      </trkpt>
      <trkpt lat="40.67304" lon="-1.9789800000000002">
        <time>2021-06-19T11:44:05+0000</time>
      </trkpt>
      <trkpt lat="40.673140000000004" lon="-1.9788100000000002">
        <time>2021-06-19T11:44:06+0000</time>
      </trkpt>
      <trkpt lat="40.673230000000004" lon="-1.97863">
        <time>2021-06-19T11:44:07+0000</time>
      </trkpt>
      <trkpt lat="40.67333" lon="-1.9784300000000001">
        <time>2021-06-19T11:44:08+0000</time>
      </trkpt>
      <trkpt lat="40.67342" lon="-1.9782300000000002">
        <time>2021-06-19T11:44:09+0000</time>
      </trkpt>
      <trkpt lat="40.67351" lon="-1.9780300000000002">
        <time>2021-06-19T11:44:10+0000</time>
      </trkpt>
      <trkpt lat="40.673590000000004" lon="-1.9778300000000002">
        <time>2021-06-19T11:44:11+0000</time>
      </trkpt>
      <trkpt lat="40.67367" lon="-1.97764">
        <time>2021-06-19T11:44:12+0000</time>
      </trkpt>
      <trkpt lat="40.67376" lon="-1.97747">
        <time>2021-06-19T11:44:13+0000</time>
      </trkpt>
      <trkpt lat="40.67383" lon="-1.97727">
        <time>2021-06-19T11:44:14+0000</time>
      </trkpt>
      <trkpt lat="40.67394" lon="-1.9771200000000002">
        <time>2021-06-19T11:44:15+0000</time>
      </trkpt>
      <trkpt lat="40.674040000000005" lon="-1.9769800000000002">
        <time>2021-06-19T11:44:16+0000</time>
      </trkpt>
      <trkpt lat="40.67414" lon="-1.9768500000000002">
        <time>2021-06-19T11:44:17+0000</time>
      </trkpt>
      <trkpt lat="40.674240000000005" lon="-1.97673">
        <time>2021-06-19T11:44:18+0000</time>
      </trkpt>
      <trkpt lat="40.67434" lon="-1.9766400000000002">
        <time>2021-06-19T11:44:19+0000</time>
      </trkpt>
      <trkpt lat="40.67445" lon="-1.9765400000000002">
        <time>2021-06-19T11:44:20+0000</time>
      </trkpt>
      <trkpt lat="40.67455" lon="-1.9764300000000001">
        <time>2021-06-19T11:44:21+0000</time>
      </trkpt>
      <trkpt lat="40.674670000000006" lon="-1.9763300000000001">
        <time>2021-06-19T11:44:22+0000</time>
      </trkpt>
      <trkpt lat="40.674800000000005" lon="-1.97625">
        <time>2021-06-19T11:44:23+0000</time>
      </trkpt>
      <trkpt lat="40.67494000000001" lon="-1.9761700000000002">
        <time>2021-06-19T11:44:24+0000</time>
      </trkpt>
      <trkpt lat="40.675090000000004" lon="-1.97608">
        <time>2021-06-19T11:44:25+0000</time>
      </trkpt>
      <trkpt lat="40.67524" lon="-1.9760000000000002">
        <time>2021-06-19T11:44:26+0000</time>
      </trkpt>
      <trkpt lat="40.67539" lon="-1.97588">
        <time>2021-06-19T11:44:27+0000</time>
      </trkpt>
      <trkpt lat="40.67553" lon="-1.97574">
        <time>2021-06-19T11:44:28+0000</time>
      </trkpt>
      <trkpt lat="40.675650000000005" lon="-1.9755700000000003">
        <time>2021-06-19T11:44:29+0000</time>
      </trkpt>
      <trkpt lat="40.675760000000004" lon="-1.9753900000000002">
        <time>2021-06-19T11:44:30+0000</time>
      </trkpt>
      <trkpt lat="40.67586" lon="-1.9752">
        <time>2021-06-19T11:44:31+0000</time>
      </trkpt>
      <trkpt lat="40.67596" lon="-1.9750200000000002">
        <time>2021-06-19T11:44:32+0000</time>
      </trkpt>
      <trkpt lat="40.676080000000006" lon="-1.9748700000000001">
        <time>2021-06-19T11:44:33+0000</time>
      </trkpt>
      <trkpt lat="40.6762" lon="-1.9747000000000001">
        <time>2021-06-19T11:44:34+0000</time>
      </trkpt>
      <trkpt lat="40.67631" lon="-1.97452">
        <time>2021-06-19T11:44:35+0000</time>
      </trkpt>
      <trkpt lat="40.67643" lon="-1.9743300000000001">
        <time>2021-06-19T11:44:36+0000</time>
      </trkpt>
      <trkpt lat="40.67654" lon="-1.9741400000000002">
        <time>2021-06-19T11:44:37+0000</time>
      </trkpt>
      <trkpt lat="40.67665" lon="-1.97395">
        <time>2021-06-19T11:44:38+0000</time>
      </trkpt>
      <trkpt lat="40.676750000000006" lon="-1.9737500000000001">
        <time>2021-06-19T11:44:39+0000</time>
      </trkpt>
      <trkpt lat="40.676860000000005" lon="-1.9735500000000001">
        <time>2021-06-19T11:44:40+0000</time>
      </trkpt>
      <trkpt lat="40.676970000000004" lon="-1.9733600000000002">
        <time>2021-06-19T11:44:41+0000</time>
      </trkpt>
      <trkpt lat="40.67707" lon="-1.9731500000000002">
        <time>2021-06-19T11:44:42+0000</time>
      </trkpt>
      <trkpt lat="40.67718" lon="-1.9729600000000003">
        <time>2021-06-19T11:44:43+0000</time>
      </trkpt>
      <trkpt lat="40.67728" lon="-1.9727700000000001">
        <time>2021-06-19T11:44:44+0000</time>
      </trkpt>
      <trkpt lat="40.67739" lon="-1.9726100000000002">
        <time>2021-06-19T11:44:45+0000</time>
      </trkpt>
      <trkpt lat="40.677510000000005" lon="-1.9724700000000002">
        <time>2021-06-19T11:44:46+0000</time>
      </trkpt>
      <trkpt lat="40.67765" lon="-1.9723400000000002">
        <time>2021-06-19T11:44:47+0000</time>
      </trkpt>
      <trkpt lat="40.67781" lon="-1.9722300000000001">
        <time>2021-06-19T11:44:48+0000</time>
      </trkpt>
      <trkpt lat="40.677980000000005" lon="-1.9721300000000002">
        <time>2021-06-19T11:44:49+0000</time>
      </trkpt>
      <trkpt lat="40.678160000000005" lon="-1.9720300000000002">
        <time>2021-06-19T11:44:50+0000</time>
      </trkpt>
      <trkpt lat="40.67833" lon="-1.9719400000000002">
        <time>2021-06-19T11:44:51+0000</time>
      </trkpt>
      <trkpt lat="40.67850000000001" lon="-1.9718400000000003">
        <time>2021-06-19T11:44:52+0000</time>
      </trkpt>
      <trkpt lat="40.67866" lon="-1.9717400000000003">
        <time>2021-06-19T11:44:53+0000</time>
      </trkpt>
      <trkpt lat="40.6788" lon="-1.9716300000000002">
        <time>2021-06-19T11:44:54+0000</time>
      </trkpt>
      <trkpt lat="40.678940000000004" lon="-1.97151">
        <time>2021-06-19T11:44:55+0000</time>
      </trkpt>
      <trkpt lat="40.67906000000001" lon="-1.9713800000000001">
        <time>2021-06-19T11:44:56+0000</time>
      </trkpt>
      <trkpt lat="40.679170000000006" lon="-1.97124">
        <time>2021-06-19T11:44:57+0000</time>
      </trkpt>
      <trkpt lat="40.679260000000006" lon="-1.97107">
        <time>2021-06-19T11:44:58+0000</time>
      </trkpt>
      <trkpt lat="40.67935000000001" lon="-1.9709">
        <time>2021-06-19T11:44:59+0000</time>
      </trkpt>
      <trkpt lat="40.67943" lon="-1.97073">
        <time>2021-06-19T11:45:00+0000</time>
      </trkpt>
      <trkpt lat="40.679500000000004" lon="-1.9705300000000001">
        <time>2021-06-19T11:45:01+0000</time>
      </trkpt>
      <trkpt lat="40.67956" lon="-1.97032">
        <time>2021-06-19T11:45:02+0000</time>
      </trkpt>
      <trkpt lat="40.6796" lon="-1.9700900000000001">
        <time>2021-06-19T11:45:03+0000</time>
      </trkpt>
      <trkpt lat="40.67962" lon="-1.96985">
        <time>2021-06-19T11:45:04+0000</time>
      </trkpt>
      <trkpt lat="40.67965" lon="-1.9696000000000002">
        <time>2021-06-19T11:45:05+0000</time>
      </trkpt>
      <trkpt lat="40.67967" lon="-1.9693600000000002">
        <time>2021-06-19T11:45:06+0000</time>
      </trkpt>
      <trkpt lat="40.67969" lon="-1.9691300000000003">
        <time>2021-06-19T11:45:07+0000</time>
      </trkpt>
      <trkpt lat="40.67971" lon="-1.9689">
        <time>2021-06-19T11:45:08+0000</time>
      </trkpt>
      <trkpt lat="40.679770000000005" lon="-1.96869">
        <time>2021-06-19T11:45:09+0000</time>
      </trkpt>
      <trkpt lat="40.67985" lon="-1.9685100000000002">
        <time>2021-06-19T11:45:10+0000</time>
      </trkpt>
      <trkpt lat="40.679970000000004" lon="-1.96836">
        <time>2021-06-19T11:45:11+0000</time>
      </trkpt>
      <trkpt lat="40.680110000000006" lon="-1.96822">
        <time>2021-06-19T11:45:12+0000</time>
      </trkpt>
      <trkpt lat="40.680260000000004" lon="-1.9681000000000002">
        <time>2021-06-19T11:45:13+0000</time>
      </trkpt>
      <trkpt lat="40.68041" lon="-1.9680000000000002">
        <time>2021-06-19T11:45:14+0000</time>
      </trkpt>
      <trkpt lat="40.680550000000004" lon="-1.9679000000000002">
        <time>2021-06-19T11:45:15+0000</time>
      </trkpt>
      <trkpt lat="40.680690000000006" lon="-1.9677900000000002">
        <time>2021-06-19T11:45:16+0000</time>
      </trkpt>
      <trkpt lat="40.680820000000004" lon="-1.9677000000000002">
        <time>2021-06-19T11:45:17+0000</time>
      </trkpt>
      <trkpt lat="40.68092" lon="-1.9675700000000003">
        <time>2021-06-19T11:45:18+0000</time>
      </trkpt>
      <trkpt lat="40.68101" lon="-1.96744">
        <time>2021-06-19T11:45:19+0000</time>
      </trkpt>
      <trkpt lat="40.6811" lon="-1.9673000000000003">
        <time>2021-06-19T11:45:20+0000</time>
      </trkpt>
      <trkpt lat="40.68122" lon="-1.96717">
        <time>2021-06-19T11:45:21+0000</time>
      </trkpt>
      <trkpt lat="40.6813" lon="-1.9669900000000002">
        <time>2021-06-19T11:45:22+0000</time>
      </trkpt>
      <trkpt lat="40.68139" lon="-1.9668100000000002">
        <time>2021-06-19T11:45:23+0000</time>
      </trkpt>
      <trkpt lat="40.68148" lon="-1.9666500000000002">
        <time>2021-06-19T11:45:24+0000</time>
      </trkpt>
      <trkpt lat="40.681560000000005" lon="-1.96649">
        <time>2021-06-19T11:45:25+0000</time>
      </trkpt>
      <trkpt lat="40.68164" lon="-1.9663300000000001">
        <time>2021-06-19T11:45:26+0000</time>
      </trkpt>
      <trkpt lat="40.68173" lon="-1.9661700000000002">
        <time>2021-06-19T11:45:27+0000</time>
      </trkpt>
      <trkpt lat="40.681810000000006" lon="-1.96602">
        <time>2021-06-19T11:45:28+0000</time>
      </trkpt>
      <trkpt lat="40.68191" lon="-1.96588">
        <time>2021-06-19T11:45:29+0000</time>
      </trkpt>
      <trkpt lat="40.68202" lon="-1.9657600000000002">
        <time>2021-06-19T11:45:30+0000</time>
      </trkpt>
      <trkpt lat="40.68215" lon="-1.9656700000000003">
        <time>2021-06-19T11:45:31+0000</time>
      </trkpt>
      <trkpt lat="40.68229" lon="-1.96561">
        <time>2021-06-19T11:45:32+0000</time>
      </trkpt>
      <trkpt lat="40.68244000000001" lon="-1.9655700000000003">
        <time>2021-06-19T11:45:33+0000</time>
      </trkpt>
      <trkpt lat="40.68258" lon="-1.9655300000000002">
        <time>2021-06-19T11:45:34+0000</time>
      </trkpt>
      <trkpt lat="40.682700000000004" lon="-1.9654800000000001">
        <time>2021-06-19T11:45:35+0000</time>
      </trkpt>
      <trkpt lat="40.6828" lon="-1.9654000000000003">
        <time>2021-06-19T11:45:36+0000</time>
      </trkpt>
      <trkpt lat="40.68287" lon="-1.9652900000000002">
        <time>2021-06-19T11:45:37+0000</time>
      </trkpt>
      <trkpt lat="40.68292" lon="-1.96514">
        <time>2021-06-19T11:45:38+0000</time>
      </trkpt>
      <trkpt lat="40.682950000000005" lon="-1.9649600000000003">
        <time>2021-06-19T11:45:39+0000</time>
      </trkpt>
      <trkpt lat="40.68298" lon="-1.9647700000000001">
        <time>2021-06-19T11:45:40+0000</time>
      </trkpt>
      <trkpt lat="40.68301" lon="-1.96459">
        <time>2021-06-19T11:45:41+0000</time>
      </trkpt>
      <trkpt lat="40.68307" lon="-1.9644300000000001">
        <time>2021-06-19T11:45:42+0000</time>
      </trkpt>
      <trkpt lat="40.68316" lon="-1.9642800000000002">
        <time>2021-06-19T11:45:43+0000</time>
      </trkpt>
      <trkpt lat="40.68327" lon="-1.9641300000000002">
        <time>2021-06-19T11:45:44+0000</time>
      </trkpt>
      <trkpt lat="40.68339" lon="-1.9639900000000001">
        <time>2021-06-19T11:45:45+0000</time>
      </trkpt>
      <trkpt lat="40.6835" lon="-1.9638400000000003">
        <time>2021-06-19T11:45:46+0000</time>
      </trkpt>
      <trkpt lat="40.68359" lon="-1.9636900000000002">
        <time>2021-06-19T11:45:47+0000</time>
      </trkpt>
      <trkpt lat="40.68366" lon="-1.9635200000000002">
        <time>2021-06-19T11:45:48+0000</time>
      </trkpt>
      <trkpt lat="40.6837" lon="-1.96334">
        <time>2021-06-19T11:45:49+0000</time>
      </trkpt>
      <trkpt lat="40.683730000000004" lon="-1.96317">
        <time>2021-06-19T11:45:50+0000</time>
      </trkpt>
      <trkpt lat="40.68379" lon="-1.9630200000000002">
        <time>2021-06-19T11:45:51+0000</time>
      </trkpt>
      <trkpt lat="40.68386" lon="-1.9628700000000001">
        <time>2021-06-19T11:45:52+0000</time>
      </trkpt>
      <trkpt lat="40.68394000000001" lon="-1.96276">
        <time>2021-06-19T11:45:53+0000</time>
      </trkpt>
      <trkpt lat="40.684050000000006" lon="-1.9626900000000003">
        <time>2021-06-19T11:45:54+0000</time>
      </trkpt>
      <trkpt lat="40.684180000000005" lon="-1.96266">
        <time>2021-06-19T11:45:55+0000</time>
      </trkpt>
      <trkpt lat="40.6843" lon="-1.9626800000000002">
        <time>2021-06-19T11:45:56+0000</time>
      </trkpt>
      <trkpt lat="40.684430000000006" lon="-1.9627200000000002">
        <time>2021-06-19T11:45:57+0000</time>
      </trkpt>
      <trkpt lat="40.68455" lon="-1.9627900000000003">
        <time>2021-06-19T11:45:58+0000</time>
      </trkpt>
      <trkpt lat="40.68466" lon="-1.9628500000000002">
        <time>2021-06-19T11:45:59+0000</time>
      </trkpt>
      <trkpt lat="40.68477" lon="-1.9629100000000002">
        <time>2021-06-19T11:46:00+0000</time>
      </trkpt>
      <trkpt lat="40.684870000000004" lon="-1.9629600000000003">
        <time>2021-06-19T11:46:01+0000</time>
      </trkpt>
      <trkpt lat="40.68498" lon="-1.9629600000000003">
        <time>2021-06-19T11:46:02+0000</time>
      </trkpt>
      <trkpt lat="40.68509" lon="-1.96293">
        <time>2021-06-19T11:46:03+0000</time>
      </trkpt>
      <trkpt lat="40.68522" lon="-1.9628800000000002">
        <time>2021-06-19T11:46:04+0000</time>
      </trkpt>
      <trkpt lat="40.685340000000004" lon="-1.9627900000000003">
        <time>2021-06-19T11:46:05+0000</time>
      </trkpt>
      <trkpt lat="40.68547" lon="-1.9626900000000003">
        <time>2021-06-19T11:46:06+0000</time>
      </trkpt>
      <trkpt lat="40.6856" lon="-1.9626200000000003">
        <time>2021-06-19T11:46:07+0000</time>
      </trkpt>
      <trkpt lat="40.68574" lon="-1.9625700000000001">
        <time>2021-06-19T11:46:08+0000</time>
      </trkpt>
      <trkpt lat="40.685880000000004" lon="-1.9625500000000002">
        <time>2021-06-19T11:46:09+0000</time>
      </trkpt>
      <trkpt lat="40.686020000000006" lon="-1.9625700000000001">
        <time>2021-06-19T11:46:10+0000</time>
      </trkpt>
      <trkpt lat="40.686170000000004" lon="-1.9626000000000001">
        <time>2021-06-19T11:46:11+0000</time>
      </trkpt>
      <trkpt lat="40.686310000000006" lon="-1.9626500000000002">
        <time>2021-06-19T11:46:12+0000</time>
      </trkpt>
      <trkpt lat="40.686440000000005" lon="-1.9626800000000002">
        <time>2021-06-19T11:46:13+0000</time>
      </trkpt>
      <trkpt lat="40.68657" lon="-1.9627100000000002">
        <time>2021-06-19T11:46:14+0000</time>
      </trkpt>
      <trkpt lat="40.686690000000006" lon="-1.9627100000000002">
        <time>2021-06-19T11:46:15+0000</time>
      </trkpt>
      <trkpt lat="40.68681" lon="-1.9626800000000002">
        <time>2021-06-19T11:46:16+0000</time>
      </trkpt>
      <trkpt lat="40.68692" lon="-1.9626200000000003">
        <time>2021-06-19T11:46:17+0000</time>
      </trkpt>
      <trkpt lat="40.68701" lon="-1.9625200000000003">
        <time>2021-06-19T11:46:18+0000</time>
      </trkpt>
      <trkpt lat="40.687070000000006" lon="-1.9624000000000001">
        <time>2021-06-19T11:46:19+0000</time>
      </trkpt>
      <trkpt lat="40.68712" lon="-1.9622700000000002">
        <time>2021-06-19T11:46:20+0000</time>
      </trkpt>
      <trkpt lat="40.68713" lon="-1.9621100000000002">
        <time>2021-06-19T11:46:21+0000</time>
      </trkpt>
      <trkpt lat="40.6871" lon="-1.9619400000000002">
        <time>2021-06-19T11:46:22+0000</time>
      </trkpt>
      <trkpt lat="40.68704" lon="-1.9617600000000002">
        <time>2021-06-19T11:46:23+0000</time>
      </trkpt>
      <trkpt lat="40.68697" lon="-1.9616200000000001">
        <time>2021-06-19T11:46:24+0000</time>
      </trkpt>
      <trkpt lat="40.6869" lon="-1.9614800000000001">
        <time>2021-06-19T11:46:25+0000</time>
      </trkpt>
      <trkpt lat="40.68683" lon="-1.9613500000000001">
        <time>2021-06-19T11:46:26+0000</time>
      </trkpt>
      <trkpt lat="40.68677" lon="-1.9612100000000001">
        <time>2021-06-19T11:46:27+0000</time>
      </trkpt>
      <trkpt lat="40.686730000000004" lon="-1.9610600000000002">
        <time>2021-06-19T11:46:28+0000</time>
      </trkpt>
      <trkpt lat="40.686710000000005" lon="-1.9609">
        <time>2021-06-19T11:46:29+0000</time>
      </trkpt>
      <trkpt lat="40.68672" lon="-1.9607400000000001">
        <time>2021-06-19T11:46:30+0000</time>
      </trkpt>
      <trkpt lat="40.68677" lon="-1.96059">
        <time>2021-06-19T11:46:31+0000</time>
      </trkpt>
      <trkpt lat="40.686840000000004" lon="-1.9604700000000002">
        <time>2021-06-19T11:46:32+0000</time>
      </trkpt>
      <trkpt lat="40.686930000000004" lon="-1.9603800000000002">
        <time>2021-06-19T11:46:33+0000</time>
      </trkpt>
      <trkpt lat="40.687050000000006" lon="-1.9603100000000002">
        <time>2021-06-19T11:46:34+0000</time>
      </trkpt>
      <trkpt lat="40.68717" lon="-1.9602800000000002">
        <time>2021-06-19T11:46:35+0000</time>
      </trkpt>
      <trkpt lat="40.687310000000004" lon="-1.9602800000000002">
        <time>2021-06-19T11:46:36+0000</time>
      </trkpt>
      <trkpt lat="40.68744" lon="-1.9603100000000002">
        <time>2021-06-19T11:46:37+0000</time>
      </trkpt>
      <trkpt lat="40.687580000000004" lon="-1.96036">
        <time>2021-06-19T11:46:38+0000</time>
      </trkpt>
      <trkpt lat="40.68771" lon="-1.9604100000000002">
        <time>2021-06-19T11:46:39+0000</time>
      </trkpt>
      <trkpt lat="40.68784" lon="-1.9604700000000002">
        <time>2021-06-19T11:46:40+0000</time>
      </trkpt>
      <trkpt lat="40.68797" lon="-1.96053">
        <time>2021-06-19T11:46:41+0000</time>
      </trkpt>
      <trkpt lat="40.688100000000006" lon="-1.9605800000000002">
        <time>2021-06-19T11:46:42+0000</time>
      </trkpt>
      <trkpt lat="40.68824" lon="-1.9606200000000003">
        <time>2021-06-19T11:46:43+0000</time>
      </trkpt>
      <trkpt lat="40.68838" lon="-1.9606500000000002">
        <time>2021-06-19T11:46:44+0000</time>
      </trkpt>
      <trkpt lat="40.68853" lon="-1.96066">
        <time>2021-06-19T11:46:45+0000</time>
      </trkpt>
      <trkpt lat="40.688660000000006" lon="-1.9606900000000003">
        <time>2021-06-19T11:46:46+0000</time>
      </trkpt>
      <trkpt lat="40.68878" lon="-1.9607200000000002">
        <time>2021-06-19T11:46:47+0000</time>
      </trkpt>
      <trkpt lat="40.68889" lon="-1.9607800000000002">
        <time>2021-06-19T11:46:48+0000</time>
      </trkpt>
      <trkpt lat="40.68901" lon="-1.9608500000000002">
        <time>2021-06-19T11:46:49+0000</time>
      </trkpt>
      <trkpt lat="40.689130000000006" lon="-1.96093">
        <time>2021-06-19T11:46:50+0000</time>
      </trkpt>
      <trkpt lat="40.689240000000005" lon="-1.9610400000000001">
        <time>2021-06-19T11:46:51+0000</time>
      </trkpt>
      <trkpt lat="40.689350000000005" lon="-1.9611800000000001">
        <time>2021-06-19T11:46:52+0000</time>
      </trkpt>
      <trkpt lat="40.689440000000005" lon="-1.9613200000000002">
        <time>2021-06-19T11:46:53+0000</time>
      </trkpt>
      <trkpt lat="40.689510000000006" lon="-1.9614600000000002">
        <time>2021-06-19T11:46:54+0000</time>
      </trkpt>
      <trkpt lat="40.68959" lon="-1.9615700000000003">
        <time>2021-06-19T11:46:55+0000</time>
      </trkpt>
      <trkpt lat="40.689690000000006" lon="-1.9616600000000002">
        <time>2021-06-19T11:46:56+0000</time>
      </trkpt>
      <trkpt lat="40.68981" lon="-1.96171">
        <time>2021-06-19T11:46:57+0000</time>
      </trkpt>
      <trkpt lat="40.689930000000004" lon="-1.9617200000000001">
        <time>2021-06-19T11:46:58+0000</time>
      </trkpt>
      <trkpt lat="40.690070000000006" lon="-1.96168">
        <time>2021-06-19T11:46:59+0000</time>
      </trkpt>
      <trkpt lat="40.69021" lon="-1.9615700000000003">
        <time>2021-06-19T11:47:00+0000</time>
      </trkpt>
      <trkpt lat="40.690340000000006" lon="-1.9614500000000001">
        <time>2021-06-19T11:47:01+0000</time>
      </trkpt>
      <trkpt lat="40.690450000000006" lon="-1.96131">
        <time>2021-06-19T11:47:02+0000</time>
      </trkpt>
      <trkpt lat="40.69055" lon="-1.9612100000000001">
        <time>2021-06-19T11:47:03+0000</time>
      </trkpt>
      <trkpt lat="40.69066" lon="-1.96114">
        <time>2021-06-19T11:47:04+0000</time>
      </trkpt>
      <trkpt lat="40.69079" lon="-1.9611">
        <time>2021-06-19T11:47:05+0000</time>
      </trkpt>
      <trkpt lat="40.69093" lon="-1.9611100000000001">
        <time>2021-06-19T11:47:06+0000</time>
      </trkpt>
      <trkpt lat="40.691050000000004" lon="-1.9611500000000002">
        <time>2021-06-19T11:47:07+0000</time>
      </trkpt>
      <trkpt lat="40.69118" lon="-1.9612200000000002">
        <time>2021-06-19T11:47:08+0000</time>
      </trkpt>
      <trkpt lat="40.691280000000006" lon="-1.96134">
        <time>2021-06-19T11:47:09+0000</time>
      </trkpt>
      <trkpt lat="40.69135" lon="-1.9614600000000002">
        <time>2021-06-19T11:47:10+0000</time>
      </trkpt>
      <trkpt lat="40.6914" lon="-1.9615900000000002">
        <time>2021-06-19T11:47:11+0000</time>
      </trkpt>
      <trkpt lat="40.69142" lon="-1.9617300000000002">
        <time>2021-06-19T11:47:12+0000</time>
      </trkpt>
      <trkpt lat="40.691430000000004" lon="-1.9618600000000002">
        <time>2021-06-19T11:47:13+0000</time>
      </trkpt>
      <trkpt lat="40.6914" lon="-1.9620000000000002">
        <time>2021-06-19T11:47:14+0000</time>
      </trkpt>
      <trkpt lat="40.69136" lon="-1.9621300000000002">
        <time>2021-06-19T11:47:15+0000</time>
      </trkpt>
      <trkpt lat="40.69131" lon="-1.96225">
        <time>2021-06-19T11:47:16+0000</time>
      </trkpt>
      <trkpt lat="40.69126000000001" lon="-1.9623700000000002">
        <time>2021-06-19T11:47:17+0000</time>
      </trkpt>
      <trkpt lat="40.691210000000005" lon="-1.9625000000000001">
        <time>2021-06-19T11:47:18+0000</time>
      </trkpt>
      <trkpt lat="40.691190000000006" lon="-1.9626400000000002">
        <time>2021-06-19T11:47:19+0000</time>
      </trkpt>
      <trkpt lat="40.69118" lon="-1.9627800000000002">
        <time>2021-06-19T11:47:20+0000</time>
      </trkpt>
      <trkpt lat="40.691190000000006" lon="-1.96293">
        <time>2021-06-19T11:47:21+0000</time>
      </trkpt>
      <trkpt lat="40.69122" lon="-1.9630800000000002">
        <time>2021-06-19T11:47:22+0000</time>
      </trkpt>
      <trkpt lat="40.691280000000006" lon="-1.9632200000000002">
        <time>2021-06-19T11:47:23+0000</time>
      </trkpt>
      <trkpt lat="40.69138" lon="-1.96334">
        <time>2021-06-19T11:47:24+0000</time>
      </trkpt>
      <trkpt lat="40.69151" lon="-1.96344">
        <time>2021-06-19T11:47:25+0000</time>
      </trkpt>
      <trkpt lat="40.691660000000006" lon="-1.9634900000000002">
        <time>2021-06-19T11:47:26+0000</time>
      </trkpt>
      <trkpt lat="40.69183" lon="-1.9634800000000001">
        <time>2021-06-19T11:47:27+0000</time>
      </trkpt>
      <trkpt lat="40.691990000000004" lon="-1.9634500000000001">
        <time>2021-06-19T11:47:28+0000</time>
      </trkpt>
      <trkpt lat="40.692150000000005" lon="-1.9634200000000002">
        <time>2021-06-19T11:47:29+0000</time>
      </trkpt>
      <trkpt lat="40.6923" lon="-1.96341">
        <time>2021-06-19T11:47:30+0000</time>
      </trkpt>
      <trkpt lat="40.692440000000005" lon="-1.96344">
        <time>2021-06-19T11:47:31+0000</time>
      </trkpt>
      <trkpt lat="40.69257" lon="-1.9635200000000002">
        <time>2021-06-19T11:47:32+0000</time>
      </trkpt>
      <trkpt lat="40.692690000000006" lon="-1.96364">
        <time>2021-06-19T11:47:33+0000</time>
      </trkpt>
      <trkpt lat="40.69279" lon="-1.9637700000000002">
        <time>2021-06-19T11:47:34+0000</time>
      </trkpt>
      <trkpt lat="40.69288" lon="-1.96392">
        <time>2021-06-19T11:47:35+0000</time>
      </trkpt>
      <trkpt lat="40.69296000000001" lon="-1.9640600000000001">
        <time>2021-06-19T11:47:36+0000</time>
      </trkpt>
      <trkpt lat="40.69305000000001" lon="-1.9642100000000002">
        <time>2021-06-19T11:47:37+0000</time>
      </trkpt>
      <trkpt lat="40.69315" lon="-1.9643300000000001">
        <time>2021-06-19T11:47:38+0000</time>
      </trkpt>
      <trkpt lat="40.693270000000005" lon="-1.96442">
        <time>2021-06-19T11:47:39+0000</time>
      </trkpt>
      <trkpt lat="40.693400000000004" lon="-1.9644800000000002">
        <time>2021-06-19T11:47:40+0000</time>
      </trkpt>
      <trkpt lat="40.69355" lon="-1.9645000000000001">
        <time>2021-06-19T11:47:41+0000</time>
      </trkpt>
      <trkpt lat="40.69370000000001" lon="-1.9645000000000001">
        <time>2021-06-19T11:47:42+0000</time>
      </trkpt>
      <trkpt lat="40.69386" lon="-1.96446">
        <time>2021-06-19T11:47:43+0000</time>
      </trkpt>
      <trkpt lat="40.694" lon="-1.9644400000000002">
        <time>2021-06-19T11:47:44+0000</time>
      </trkpt>
      <trkpt lat="40.69413" lon="-1.96446">
        <time>2021-06-19T11:47:45+0000</time>
      </trkpt>
      <trkpt lat="40.69427" lon="-1.9645100000000002">
        <time>2021-06-19T11:47:46+0000</time>
      </trkpt>
      <trkpt lat="40.69442" lon="-1.9645700000000001">
        <time>2021-06-19T11:47:47+0000</time>
      </trkpt>
      <trkpt lat="40.694570000000006" lon="-1.9646500000000002">
        <time>2021-06-19T11:47:48+0000</time>
      </trkpt>
      <trkpt lat="40.69471" lon="-1.96473">
        <time>2021-06-19T11:47:49+0000</time>
      </trkpt>
      <trkpt lat="40.69485" lon="-1.9648100000000002">
        <time>2021-06-19T11:47:50+0000</time>
      </trkpt>
      <trkpt lat="40.695" lon="-1.9648800000000002">
        <time>2021-06-19T11:47:51+0000</time>
      </trkpt>
      <trkpt lat="40.695130000000006" lon="-1.9649600000000003">
        <time>2021-06-19T11:47:52+0000</time>
      </trkpt>
      <trkpt lat="40.695260000000005" lon="-1.9650400000000001">
        <time>2021-06-19T11:47:53+0000</time>
      </trkpt>
      <trkpt lat="40.69539" lon="-1.9651">
        <time>2021-06-19T11:47:54+0000</time>
      </trkpt>
      <trkpt lat="40.69552" lon="-1.96517">
        <time>2021-06-19T11:47:55+0000</time>
      </trkpt>
      <trkpt lat="40.695640000000004" lon="-1.96524">
        <time>2021-06-19T11:47:56+0000</time>
      </trkpt>
      <trkpt lat="40.69577" lon="-1.9653000000000003">
        <time>2021-06-19T11:47:57+0000</time>
      </trkpt>
      <trkpt lat="40.695890000000006" lon="-1.96537">
        <time>2021-06-19T11:47:58+0000</time>
      </trkpt>
      <trkpt lat="40.696020000000004" lon="-1.9654300000000002">
        <time>2021-06-19T11:47:59+0000</time>
      </trkpt>
      <trkpt lat="40.69614000000001" lon="-1.9654900000000002">
        <time>2021-06-19T11:48:00+0000</time>
      </trkpt>
      <trkpt lat="40.69626" lon="-1.9655500000000001">
        <time>2021-06-19T11:48:01+0000</time>
      </trkpt>
      <trkpt lat="40.69637" lon="-1.96561">
        <time>2021-06-19T11:48:02+0000</time>
      </trkpt>
      <trkpt lat="40.696490000000004" lon="-1.9656700000000003">
        <time>2021-06-19T11:48:03+0000</time>
      </trkpt>
      <trkpt lat="40.69661000000001" lon="-1.96571">
        <time>2021-06-19T11:48:04+0000</time>
      </trkpt>
      <trkpt lat="40.69673" lon="-1.9657300000000002">
        <time>2021-06-19T11:48:05+0000</time>
      </trkpt>
      <trkpt lat="40.696870000000004" lon="-1.9657300000000002">
        <time>2021-06-19T11:48:06+0000</time>
      </trkpt>
      <trkpt lat="40.69699000000001" lon="-1.96571">
        <time>2021-06-19T11:48:07+0000</time>
      </trkpt>
      <trkpt lat="40.697120000000005" lon="-1.9656600000000002">
        <time>2021-06-19T11:48:08+0000</time>
      </trkpt>
      <trkpt lat="40.69724" lon="-1.96558">
        <time>2021-06-19T11:48:09+0000</time>
      </trkpt>
      <trkpt lat="40.69735" lon="-1.96547">
        <time>2021-06-19T11:48:10+0000</time>
      </trkpt>
      <trkpt lat="40.69745" lon="-1.9653500000000002">
        <time>2021-06-19T11:48:11+0000</time>
      </trkpt>
      <trkpt lat="40.697540000000004" lon="-1.9651900000000002">
        <time>2021-06-19T11:48:12+0000</time>
      </trkpt>
      <trkpt lat="40.697610000000005" lon="-1.9650200000000002">
        <time>2021-06-19T11:48:13+0000</time>
      </trkpt>
      <trkpt lat="40.69764" lon="-1.96483">
        <time>2021-06-19T11:48:14+0000</time>
      </trkpt>
      <trkpt lat="40.69767" lon="-1.9646200000000003">
        <time>2021-06-19T11:48:15+0000</time>
      </trkpt>
      <trkpt lat="40.697700000000005" lon="-1.9644100000000002">
        <time>2021-06-19T11:48:16+0000</time>
      </trkpt>
      <trkpt lat="40.69773" lon="-1.9642000000000002">
        <time>2021-06-19T11:48:17+0000</time>
      </trkpt>
      <trkpt lat="40.69776" lon="-1.9640000000000002">
        <time>2021-06-19T11:48:18+0000</time>
      </trkpt>
      <trkpt lat="40.697810000000004" lon="-1.9637900000000001">
        <time>2021-06-19T11:48:19+0000</time>
      </trkpt>
      <trkpt lat="40.697880000000005" lon="-1.9636000000000002">
        <time>2021-06-19T11:48:20+0000</time>
      </trkpt>
      <trkpt lat="40.697970000000005" lon="-1.9634000000000003">
        <time>2021-06-19T11:48:21+0000</time>
      </trkpt>
      <trkpt lat="40.698080000000004" lon="-1.9632100000000001">
        <time>2021-06-19T11:48:22+0000</time>
      </trkpt>
      <trkpt lat="40.698190000000004" lon="-1.9630200000000002">
        <time>2021-06-19T11:48:23+0000</time>
      </trkpt>
      <trkpt lat="40.6983" lon="-1.9628200000000002">
        <time>2021-06-19T11:48:24+0000</time>
      </trkpt>
      <trkpt lat="40.69841" lon="-1.9626200000000003">
        <time>2021-06-19T11:48:25+0000</time>
      </trkpt>
      <trkpt lat="40.69852" lon="-1.96242">
        <time>2021-06-19T11:48:26+0000</time>
      </trkpt>
      <trkpt lat="40.69863" lon="-1.9622300000000001">
        <time>2021-06-19T11:48:27+0000</time>
      </trkpt>
      <trkpt lat="40.69874" lon="-1.9620300000000002">
        <time>2021-06-19T11:48:28+0000</time>
      </trkpt>
      <trkpt lat="40.69885" lon="-1.9618400000000003">
        <time>2021-06-19T11:48:29+0000</time>
      </trkpt>
      <trkpt lat="40.69895" lon="-1.9616500000000001">
        <time>2021-06-19T11:48:30+0000</time>
      </trkpt>
      <trkpt lat="40.69906" lon="-1.9614600000000002">
        <time>2021-06-19T11:48:31+0000</time>
      </trkpt>
      <trkpt lat="40.699160000000006" lon="-1.96127">
        <time>2021-06-19T11:48:32+0000</time>
      </trkpt>
      <trkpt lat="40.69926" lon="-1.9610900000000002">
        <time>2021-06-19T11:48:33+0000</time>
      </trkpt>
      <trkpt lat="40.69935" lon="-1.96093">
        <time>2021-06-19T11:48:34+0000</time>
      </trkpt>
      <trkpt lat="40.69946" lon="-1.9607800000000002">
        <time>2021-06-19T11:48:35+0000</time>
      </trkpt>
      <trkpt lat="40.699540000000006" lon="-1.9606000000000001">
        <time>2021-06-19T11:48:36+0000</time>
      </trkpt>
      <trkpt lat="40.699630000000006" lon="-1.9604400000000002">
        <time>2021-06-19T11:48:37+0000</time>
      </trkpt>
      <trkpt lat="40.69971" lon="-1.96029">
        <time>2021-06-19T11:48:38+0000</time>
      </trkpt>
      <trkpt lat="40.69981000000001" lon="-1.9601400000000002">
        <time>2021-06-19T11:48:39+0000</time>
      </trkpt>
      <trkpt lat="40.69989" lon="-1.9599700000000002">
        <time>2021-06-19T11:48:40+0000</time>
      </trkpt>
      <trkpt lat="40.69997" lon="-1.95981">
        <time>2021-06-19T11:48:41+0000</time>
      </trkpt>
      <trkpt lat="40.70006" lon="-1.9596500000000001">
        <time>2021-06-19T11:48:42+0000</time>
      </trkpt>
      <trkpt lat="40.70017" lon="-1.9595000000000002">
        <time>2021-06-19T11:48:43+0000</time>
      </trkpt>
      <trkpt lat="40.70024" lon="-1.9593300000000002">
        <time>2021-06-19T11:48:44+0000</time>
      </trkpt>
      <trkpt lat="40.700320000000005" lon="-1.95914">
        <time>2021-06-19T11:48:45+0000</time>
      </trkpt>
      <trkpt lat="40.700390000000006" lon="-1.9589600000000003">
        <time>2021-06-19T11:48:46+0000</time>
      </trkpt>
      <trkpt lat="40.700430000000004" lon="-1.95876">
        <time>2021-06-19T11:48:47+0000</time>
      </trkpt>
      <trkpt lat="40.70047" lon="-1.95856">
        <time>2021-06-19T11:48:48+0000</time>
      </trkpt>
      <trkpt lat="40.700500000000005" lon="-1.9583500000000003">
        <time>2021-06-19T11:48:49+0000</time>
      </trkpt>
      <trkpt lat="40.70053" lon="-1.9581400000000002">
        <time>2021-06-19T11:48:50+0000</time>
      </trkpt>
      <trkpt lat="40.700570000000006" lon="-1.9579300000000002">
        <time>2021-06-19T11:48:51+0000</time>
      </trkpt>
      <trkpt lat="40.700610000000005" lon="-1.95771">
        <time>2021-06-19T11:48:52+0000</time>
      </trkpt>
      <trkpt lat="40.70062" lon="-1.9575000000000002">
        <time>2021-06-19T11:48:53+0000</time>
      </trkpt>
      <trkpt lat="40.700660000000006" lon="-1.9572800000000001">
        <time>2021-06-19T11:48:54+0000</time>
      </trkpt>
      <trkpt lat="40.70069" lon="-1.95707">
        <time>2021-06-19T11:48:55+0000</time>
      </trkpt>
      <trkpt lat="40.700720000000004" lon="-1.9568800000000002">
        <time>2021-06-19T11:48:56+0000</time>
      </trkpt>
      <trkpt lat="40.70076" lon="-1.9566900000000003">
        <time>2021-06-19T11:48:57+0000</time>
      </trkpt>
      <trkpt lat="40.700810000000004" lon="-1.9565200000000003">
        <time>2021-06-19T11:48:58+0000</time>
      </trkpt>
      <trkpt lat="40.70087" lon="-1.9563500000000003">
        <time>2021-06-19T11:48:59+0000</time>
      </trkpt>
      <trkpt lat="40.700950000000006" lon="-1.9561800000000003">
        <time>2021-06-19T11:49:00+0000</time>
      </trkpt>
      <trkpt lat="40.70105" lon="-1.9560100000000002">
        <time>2021-06-19T11:49:01+0000</time>
      </trkpt>
      <trkpt lat="40.701170000000005" lon="-1.9558600000000002">
        <time>2021-06-19T11:49:02+0000</time>
      </trkpt>
      <trkpt lat="40.70131000000001" lon="-1.9557200000000001">
        <time>2021-06-19T11:49:03+0000</time>
      </trkpt>
      <trkpt lat="40.70147" lon="-1.95561">
        <time>2021-06-19T11:49:04+0000</time>
      </trkpt>
      <trkpt lat="40.70163" lon="-1.9555000000000002">
        <time>2021-06-19T11:49:05+0000</time>
      </trkpt>
      <trkpt lat="40.701800000000006" lon="-1.9553800000000001">
        <time>2021-06-19T11:49:06+0000</time>
      </trkpt>
      <trkpt lat="40.701980000000006" lon="-1.95527">
        <time>2021-06-19T11:49:07+0000</time>
      </trkpt>
      <trkpt lat="40.702160000000006" lon="-1.9551500000000002">
        <time>2021-06-19T11:49:08+0000</time>
      </trkpt>
      <trkpt lat="40.70233" lon="-1.9550400000000001">
        <time>2021-06-19T11:49:09+0000</time>
      </trkpt>
      <trkpt lat="40.702510000000004" lon="-1.9549100000000001">
        <time>2021-06-19T11:49:10+0000</time>
      </trkpt>
      <trkpt lat="40.70268" lon="-1.9547900000000002">
        <time>2021-06-19T11:49:11+0000</time>
      </trkpt>
      <trkpt lat="40.702850000000005" lon="-1.9546700000000001">
        <time>2021-06-19T11:49:12+0000</time>
      </trkpt>
      <trkpt lat="40.70302" lon="-1.9545700000000001">
        <time>2021-06-19T11:49:13+0000</time>
      </trkpt>
      <trkpt lat="40.70318" lon="-1.95446">
        <time>2021-06-19T11:49:14+0000</time>
      </trkpt>
      <trkpt lat="40.70335" lon="-1.95436">
        <time>2021-06-19T11:49:15+0000</time>
      </trkpt>
      <trkpt lat="40.703500000000005" lon="-1.9542500000000003">
        <time>2021-06-19T11:49:16+0000</time>
      </trkpt>
      <trkpt lat="40.703660000000006" lon="-1.95415">
        <time>2021-06-19T11:49:17+0000</time>
      </trkpt>
      <trkpt lat="40.703810000000004" lon="-1.9540600000000001">
        <time>2021-06-19T11:49:18+0000</time>
      </trkpt>
      <trkpt lat="40.703950000000006" lon="-1.9539700000000002">
        <time>2021-06-19T11:49:19+0000</time>
      </trkpt>
      <trkpt lat="40.70409" lon="-1.95388">
        <time>2021-06-19T11:49:20+0000</time>
      </trkpt>
      <trkpt lat="40.70423" lon="-1.9537900000000001">
        <time>2021-06-19T11:49:21+0000</time>
      </trkpt>
      <trkpt lat="40.70436" lon="-1.9537000000000002">
        <time>2021-06-19T11:49:22+0000</time>
      </trkpt>
      <trkpt lat="40.70449" lon="-1.9536200000000001">
        <time>2021-06-19T11:49:23+0000</time>
      </trkpt>
      <trkpt lat="40.70461" lon="-1.95354">
        <time>2021-06-19T11:49:24+0000</time>
      </trkpt>
      <trkpt lat="40.70474" lon="-1.9534600000000002">
        <time>2021-06-19T11:49:25+0000</time>
      </trkpt>
      <trkpt lat="40.70487000000001" lon="-1.9533800000000001">
        <time>2021-06-19T11:49:26+0000</time>
      </trkpt>
      <trkpt lat="40.70499" lon="-1.9533000000000003">
        <time>2021-06-19T11:49:27+0000</time>
      </trkpt>
      <trkpt lat="40.705130000000004" lon="-1.9532200000000002">
        <time>2021-06-19T11:49:28+0000</time>
      </trkpt>
      <trkpt lat="40.70526" lon="-1.9531300000000003">
        <time>2021-06-19T11:49:29+0000</time>
      </trkpt>
      <trkpt lat="40.705400000000004" lon="-1.9530500000000002">
        <time>2021-06-19T11:49:30+0000</time>
      </trkpt>
      <trkpt lat="40.705540000000006" lon="-1.9529500000000002">
        <time>2021-06-19T11:49:31+0000</time>
      </trkpt>
      <trkpt lat="40.705690000000004" lon="-1.9528600000000003">
        <time>2021-06-19T11:49:32+0000</time>
      </trkpt>
      <trkpt lat="40.70584" lon="-1.95276">
        <time>2021-06-19T11:49:33+0000</time>
      </trkpt>
      <trkpt lat="40.706010000000006" lon="-1.95266">
        <time>2021-06-19T11:49:34+0000</time>
      </trkpt>
      <trkpt lat="40.70619000000001" lon="-1.95256">
        <time>2021-06-19T11:49:35+0000</time>
      </trkpt>
      <trkpt lat="40.706360000000004" lon="-1.95246">
        <time>2021-06-19T11:49:36+0000</time>
      </trkpt>
      <trkpt lat="40.706540000000004" lon="-1.95236">
        <time>2021-06-19T11:49:37+0000</time>
      </trkpt>
      <trkpt lat="40.70673" lon="-1.95226">
        <time>2021-06-19T11:49:38+0000</time>
      </trkpt>
      <trkpt lat="40.70691" lon="-1.9521600000000001">
        <time>2021-06-19T11:49:39+0000</time>
      </trkpt>
      <trkpt lat="40.70709" lon="-1.9520600000000001">
        <time>2021-06-19T11:49:40+0000</time>
      </trkpt>
      <trkpt lat="40.707280000000004" lon="-1.9519700000000002">
        <time>2021-06-19T11:49:41+0000</time>
      </trkpt>
      <trkpt lat="40.707460000000005" lon="-1.95188">
        <time>2021-06-19T11:49:42+0000</time>
      </trkpt>
      <trkpt lat="40.70765" lon="-1.9517900000000001">
        <time>2021-06-19T11:49:43+0000</time>
      </trkpt>
      <trkpt lat="40.70783" lon="-1.9517000000000002">
        <time>2021-06-19T11:49:44+0000</time>
      </trkpt>
      <trkpt lat="40.708020000000005" lon="-1.95161">
        <time>2021-06-19T11:49:45+0000</time>
      </trkpt>
      <trkpt lat="40.70821" lon="-1.9515200000000001">
        <time>2021-06-19T11:49:46+0000</time>
      </trkpt>
      <trkpt lat="40.708400000000005" lon="-1.95144">
        <time>2021-06-19T11:49:47+0000</time>
      </trkpt>
      <trkpt lat="40.708580000000005" lon="-1.9513500000000001">
        <time>2021-06-19T11:49:48+0000</time>
      </trkpt>
      <trkpt lat="40.70875" lon="-1.95127">
        <time>2021-06-19T11:49:49+0000</time>
      </trkpt>
      <trkpt lat="40.708920000000006" lon="-1.9512000000000003">
        <time>2021-06-19T11:49:50+0000</time>
      </trkpt>
      <trkpt lat="40.70909" lon="-1.9511200000000002">
        <time>2021-06-19T11:49:51+0000</time>
      </trkpt>
      <trkpt lat="40.709250000000004" lon="-1.9510500000000002">
        <time>2021-06-19T11:49:52+0000</time>
      </trkpt>
      <trkpt lat="40.709430000000005" lon="-1.9509800000000002">
        <time>2021-06-19T11:49:53+0000</time>
      </trkpt>
      <trkpt lat="40.7096" lon="-1.9509">
        <time>2021-06-19T11:49:54+0000</time>
      </trkpt>
      <trkpt lat="40.709790000000005" lon="-1.9508100000000002">
        <time>2021-06-19T11:49:55+0000</time>
      </trkpt>
      <trkpt lat="40.70998" lon="-1.95073">
        <time>2021-06-19T11:49:56+0000</time>
      </trkpt>
      <trkpt lat="40.710170000000005" lon="-1.9506200000000002">
        <time>2021-06-19T11:49:57+0000</time>
      </trkpt>
      <trkpt lat="40.710370000000005" lon="-1.95053">
        <time>2021-06-19T11:49:58+0000</time>
      </trkpt>
      <trkpt lat="40.710570000000004" lon="-1.9504400000000002">
        <time>2021-06-19T11:49:59+0000</time>
      </trkpt>
      <trkpt lat="40.710770000000004" lon="-1.9503500000000003">
        <time>2021-06-19T11:50:00+0000</time>
      </trkpt>
      <trkpt lat="40.71097" lon="-1.95026">
        <time>2021-06-19T11:50:01+0000</time>
      </trkpt>
      <trkpt lat="40.711180000000006" lon="-1.9501700000000002">
        <time>2021-06-19T11:50:02+0000</time>
      </trkpt>
      <trkpt lat="40.711380000000005" lon="-1.9500800000000003">
        <time>2021-06-19T11:50:03+0000</time>
      </trkpt>
      <trkpt lat="40.71159" lon="-1.9499900000000001">
        <time>2021-06-19T11:50:04+0000</time>
      </trkpt>
      <trkpt lat="40.711800000000004" lon="-1.94992">
        <time>2021-06-19T11:50:05+0000</time>
      </trkpt>
      <trkpt lat="40.71201000000001" lon="-1.94982">
        <time>2021-06-19T11:50:06+0000</time>
      </trkpt>
      <trkpt lat="40.71222" lon="-1.9496900000000001">
        <time>2021-06-19T11:50:07+0000</time>
      </trkpt>
      <trkpt lat="40.712430000000005" lon="-1.94958">
        <time>2021-06-19T11:50:08+0000</time>
      </trkpt>
      <trkpt lat="40.71264" lon="-1.9494500000000001">
        <time>2021-06-19T11:50:09+0000</time>
      </trkpt>
      <trkpt lat="40.71285" lon="-1.9493200000000002">
        <time>2021-06-19T11:50:10+0000</time>
      </trkpt>
      <trkpt lat="40.71305" lon="-1.9491900000000002">
        <time>2021-06-19T11:50:11+0000</time>
      </trkpt>
      <trkpt lat="40.713240000000006" lon="-1.9490500000000002">
        <time>2021-06-19T11:50:12+0000</time>
      </trkpt>
      <trkpt lat="40.7134" lon="-1.9489">
        <time>2021-06-19T11:50:13+0000</time>
      </trkpt>
      <trkpt lat="40.71358" lon="-1.9487600000000003">
        <time>2021-06-19T11:50:14+0000</time>
      </trkpt>
      <trkpt lat="40.71376" lon="-1.9486200000000002">
        <time>2021-06-19T11:50:15+0000</time>
      </trkpt>
      <trkpt lat="40.71392" lon="-1.9484700000000001">
        <time>2021-06-19T11:50:16+0000</time>
      </trkpt>
      <trkpt lat="40.714090000000006" lon="-1.94832">
        <time>2021-06-19T11:50:17+0000</time>
      </trkpt>
      <trkpt lat="40.71425" lon="-1.94819">
        <time>2021-06-19T11:50:18+0000</time>
      </trkpt>
      <trkpt lat="40.714420000000004" lon="-1.94805">
        <time>2021-06-19T11:50:19+0000</time>
      </trkpt>
      <trkpt lat="40.714580000000005" lon="-1.9479100000000003">
        <time>2021-06-19T11:50:20+0000</time>
      </trkpt>
      <trkpt lat="40.71473" lon="-1.9477700000000002">
        <time>2021-06-19T11:50:21+0000</time>
      </trkpt>
      <trkpt lat="40.71488" lon="-1.94761">
        <time>2021-06-19T11:50:22+0000</time>
      </trkpt>
      <trkpt lat="40.71502" lon="-1.9474500000000001">
        <time>2021-06-19T11:50:23+0000</time>
      </trkpt>
      <trkpt lat="40.715160000000004" lon="-1.9472800000000001">
        <time>2021-06-19T11:50:24+0000</time>
      </trkpt>
      <trkpt lat="40.71529" lon="-1.9470900000000002">
        <time>2021-06-19T11:50:25+0000</time>
      </trkpt>
      <trkpt lat="40.7154" lon="-1.9469">
        <time>2021-06-19T11:50:26+0000</time>
      </trkpt>
      <trkpt lat="40.71551" lon="-1.9466900000000003">
        <time>2021-06-19T11:50:27+0000</time>
      </trkpt>
      <trkpt lat="40.715610000000005" lon="-1.94646">
        <time>2021-06-19T11:50:28+0000</time>
      </trkpt>
      <trkpt lat="40.71569" lon="-1.94622">
        <time>2021-06-19T11:50:29+0000</time>
      </trkpt>
      <trkpt lat="40.715770000000006" lon="-1.9459700000000002">
        <time>2021-06-19T11:50:30+0000</time>
      </trkpt>
      <trkpt lat="40.715810000000005" lon="-1.94571">
        <time>2021-06-19T11:50:31+0000</time>
      </trkpt>
      <trkpt lat="40.71585" lon="-1.9454500000000001">
        <time>2021-06-19T11:50:32+0000</time>
      </trkpt>
      <trkpt lat="40.715880000000006" lon="-1.94517">
        <time>2021-06-19T11:50:33+0000</time>
      </trkpt>
      <trkpt lat="40.715880000000006" lon="-1.9449">
        <time>2021-06-19T11:50:34+0000</time>
      </trkpt>
      <trkpt lat="40.715880000000006" lon="-1.9446200000000002">
        <time>2021-06-19T11:50:35+0000</time>
      </trkpt>
      <trkpt lat="40.71587" lon="-1.9443500000000002">
        <time>2021-06-19T11:50:36+0000</time>
      </trkpt>
      <trkpt lat="40.715830000000004" lon="-1.9440800000000003">
        <time>2021-06-19T11:50:37+0000</time>
      </trkpt>
      <trkpt lat="40.71578" lon="-1.9438300000000002">
        <time>2021-06-19T11:50:38+0000</time>
      </trkpt>
      <trkpt lat="40.715720000000005" lon="-1.94358">
        <time>2021-06-19T11:50:39+0000</time>
      </trkpt>
      <trkpt lat="40.715650000000004" lon="-1.9433300000000002">
        <time>2021-06-19T11:50:40+0000</time>
      </trkpt>
      <trkpt lat="40.715590000000006" lon="-1.9430900000000002">
        <time>2021-06-19T11:50:41+0000</time>
      </trkpt>
      <trkpt lat="40.71553" lon="-1.9428500000000002">
        <time>2021-06-19T11:50:42+0000</time>
      </trkpt>
      <trkpt lat="40.71547" lon="-1.9426100000000002">
        <time>2021-06-19T11:50:43+0000</time>
      </trkpt>
      <trkpt lat="40.715430000000005" lon="-1.94236">
        <time>2021-06-19T11:50:44+0000</time>
      </trkpt>
      <trkpt lat="40.71542" lon="-1.94212">
        <time>2021-06-19T11:50:45+0000</time>
      </trkpt>
      <trkpt lat="40.71542" lon="-1.9418600000000001">
        <time>2021-06-19T11:50:46+0000</time>
      </trkpt>
      <trkpt lat="40.71546" lon="-1.9416000000000002">
        <time>2021-06-19T11:50:47+0000</time>
      </trkpt>
      <trkpt lat="40.715520000000005" lon="-1.9413300000000002">
        <time>2021-06-19T11:50:48+0000</time>
      </trkpt>
      <trkpt lat="40.715610000000005" lon="-1.94107">
        <time>2021-06-19T11:50:49+0000</time>
      </trkpt>
      <trkpt lat="40.715700000000005" lon="-1.9407900000000002">
        <time>2021-06-19T11:50:50+0000</time>
      </trkpt>
      <trkpt lat="40.715770000000006" lon="-1.9405100000000002">
        <time>2021-06-19T11:50:51+0000</time>
      </trkpt>
      <trkpt lat="40.71585" lon="-1.9402300000000001">
        <time>2021-06-19T11:50:52+0000</time>
      </trkpt>
      <trkpt lat="40.71594" lon="-1.9399600000000001">
        <time>2021-06-19T11:50:53+0000</time>
      </trkpt>
      <trkpt lat="40.71602" lon="-1.93968">
        <time>2021-06-19T11:50:54+0000</time>
      </trkpt>
      <trkpt lat="40.716100000000004" lon="-1.9394200000000001">
        <time>2021-06-19T11:50:55+0000</time>
      </trkpt>
      <trkpt lat="40.71618" lon="-1.9391600000000002">
        <time>2021-06-19T11:50:56+0000</time>
      </trkpt>
      <trkpt lat="40.71625" lon="-1.9389100000000001">
        <time>2021-06-19T11:50:57+0000</time>
      </trkpt>
      <trkpt lat="40.716330000000006" lon="-1.93866">
        <time>2021-06-19T11:50:58+0000</time>
      </trkpt>
      <trkpt lat="40.7164" lon="-1.93843">
        <time>2021-06-19T11:50:59+0000</time>
      </trkpt>
      <trkpt lat="40.71647" lon="-1.9382000000000001">
        <time>2021-06-19T11:51:00+0000</time>
      </trkpt>
      <trkpt lat="40.716550000000005" lon="-1.9379800000000003">
        <time>2021-06-19T11:51:01+0000</time>
      </trkpt>
      <trkpt lat="40.716640000000005" lon="-1.9377700000000002">
        <time>2021-06-19T11:51:02+0000</time>
      </trkpt>
      <trkpt lat="40.716750000000005" lon="-1.9375600000000002">
        <time>2021-06-19T11:51:03+0000</time>
      </trkpt>
      <trkpt lat="40.71687" lon="-1.9373700000000003">
        <time>2021-06-19T11:51:04+0000</time>
      </trkpt>
      <trkpt lat="40.71703" lon="-1.9372000000000003">
        <time>2021-06-19T11:51:05+0000</time>
      </trkpt>
      <trkpt lat="40.717200000000005" lon="-1.93704">
        <time>2021-06-19T11:51:06+0000</time>
      </trkpt>
      <trkpt lat="40.71739" lon="-1.9369100000000001">
        <time>2021-06-19T11:51:07+0000</time>
      </trkpt>
      <trkpt lat="40.71759" lon="-1.9368100000000001">
        <time>2021-06-19T11:51:08+0000</time>
      </trkpt>
      <trkpt lat="40.71779" lon="-1.93673">
        <time>2021-06-19T11:51:09+0000</time>
      </trkpt>
      <trkpt lat="40.718" lon="-1.9366800000000002">
        <time>2021-06-19T11:51:10+0000</time>
      </trkpt>
      <trkpt lat="40.718210000000006" lon="-1.9366700000000001">
        <time>2021-06-19T11:51:11+0000</time>
      </trkpt>
      <trkpt lat="40.718430000000005" lon="-1.9366800000000002">
        <time>2021-06-19T11:51:12+0000</time>
      </trkpt>
      <trkpt lat="40.71864" lon="-1.93673">
        <time>2021-06-19T11:51:13+0000</time>
      </trkpt>
      <trkpt lat="40.71884" lon="-1.9368">
        <time>2021-06-19T11:51:14+0000</time>
      </trkpt>
      <trkpt lat="40.719030000000004" lon="-1.9369">
        <time>2021-06-19T11:51:15+0000</time>
      </trkpt>
      <trkpt lat="40.7192" lon="-1.937">
        <time>2021-06-19T11:51:16+0000</time>
      </trkpt>
      <trkpt lat="40.71936" lon="-1.9370900000000002">
        <time>2021-06-19T11:51:17+0000</time>
      </trkpt>
      <trkpt lat="40.719530000000006" lon="-1.9371900000000002">
        <time>2021-06-19T11:51:18+0000</time>
      </trkpt>
      <trkpt lat="40.71969" lon="-1.9372600000000002">
        <time>2021-06-19T11:51:19+0000</time>
      </trkpt>
      <trkpt lat="40.71985" lon="-1.93731">
        <time>2021-06-19T11:51:20+0000</time>
      </trkpt>
      <trkpt lat="40.720020000000005" lon="-1.9373300000000002">
        <time>2021-06-19T11:51:21+0000</time>
      </trkpt>
      <trkpt lat="40.720180000000006" lon="-1.93731">
        <time>2021-06-19T11:51:22+0000</time>
      </trkpt>
      <trkpt lat="40.72034" lon="-1.93724">
        <time>2021-06-19T11:51:23+0000</time>
      </trkpt>
      <trkpt lat="40.72048" lon="-1.93714">
        <time>2021-06-19T11:51:24+0000</time>
      </trkpt>
      <trkpt lat="40.720600000000005" lon="-1.9370200000000002">
        <time>2021-06-19T11:51:25+0000</time>
      </trkpt>
      <trkpt lat="40.720690000000005" lon="-1.9368500000000002">
        <time>2021-06-19T11:51:26+0000</time>
      </trkpt>
      <trkpt lat="40.72077" lon="-1.9366700000000001">
        <time>2021-06-19T11:51:27+0000</time>
      </trkpt>
      <trkpt lat="40.72082" lon="-1.9364900000000003">
        <time>2021-06-19T11:51:28+0000</time>
      </trkpt>
      <trkpt lat="40.72086" lon="-1.93629">
        <time>2021-06-19T11:51:29+0000</time>
      </trkpt>
      <trkpt lat="40.720890000000004" lon="-1.9361000000000002">
        <time>2021-06-19T11:51:30+0000</time>
      </trkpt>
      <trkpt lat="40.72091" lon="-1.9358800000000003">
        <time>2021-06-19T11:51:31+0000</time>
      </trkpt>
      <trkpt lat="40.72092000000001" lon="-1.9356600000000002">
        <time>2021-06-19T11:51:32+0000</time>
      </trkpt>
      <trkpt lat="40.72093" lon="-1.9354300000000002">
        <time>2021-06-19T11:51:33+0000</time>
      </trkpt>
      <trkpt lat="40.720940000000006" lon="-1.9352000000000003">
        <time>2021-06-19T11:51:34+0000</time>
      </trkpt>
      <trkpt lat="40.720960000000005" lon="-1.9349800000000001">
        <time>2021-06-19T11:51:35+0000</time>
      </trkpt>
      <trkpt lat="40.72097" lon="-1.93477">
        <time>2021-06-19T11:51:36+0000</time>
      </trkpt>
      <trkpt lat="40.720980000000004" lon="-1.9345700000000001">
        <time>2021-06-19T11:51:37+0000</time>
      </trkpt>
      <trkpt lat="40.72099" lon="-1.9343700000000001">
        <time>2021-06-19T11:51:38+0000</time>
      </trkpt>
      <trkpt lat="40.721000000000004" lon="-1.9341700000000002">
        <time>2021-06-19T11:51:39+0000</time>
      </trkpt>
      <trkpt lat="40.72101000000001" lon="-1.9339700000000002">
        <time>2021-06-19T11:51:40+0000</time>
      </trkpt>
      <trkpt lat="40.72102" lon="-1.9337700000000002">
        <time>2021-06-19T11:51:41+0000</time>
      </trkpt>
      <trkpt lat="40.721030000000006" lon="-1.9335700000000002">
        <time>2021-06-19T11:51:42+0000</time>
      </trkpt>
      <trkpt lat="40.72104" lon="-1.93338">
        <time>2021-06-19T11:51:43+0000</time>
      </trkpt>
      <trkpt lat="40.721050000000005" lon="-1.9332000000000003">
        <time>2021-06-19T11:51:44+0000</time>
      </trkpt>
      <trkpt lat="40.72106" lon="-1.9330300000000002">
        <time>2021-06-19T11:51:45+0000</time>
      </trkpt>
      <trkpt lat="40.721070000000005" lon="-1.9328800000000002">
        <time>2021-06-19T11:51:46+0000</time>
      </trkpt>
      <trkpt lat="40.72106" lon="-1.93273">
        <time>2021-06-19T11:51:47+0000</time>
      </trkpt>
      <trkpt lat="40.72106" lon="-1.9325900000000003">
        <time>2021-06-19T11:51:48+0000</time>
      </trkpt>
      <trkpt lat="40.721070000000005" lon="-1.93246">
        <time>2021-06-19T11:51:49+0000</time>
      </trkpt>
      <trkpt lat="40.721070000000005" lon="-1.93233">
        <time>2021-06-19T11:51:50+0000</time>
      </trkpt>
      <trkpt lat="40.721070000000005" lon="-1.93219">
        <time>2021-06-19T11:51:51+0000</time>
      </trkpt>
      <trkpt lat="40.72106" lon="-1.93206">
        <time>2021-06-19T11:51:52+0000</time>
      </trkpt>
      <trkpt lat="40.721050000000005" lon="-1.93192">
        <time>2021-06-19T11:51:53+0000</time>
      </trkpt>
      <trkpt lat="40.721030000000006" lon="-1.9317700000000002">
        <time>2021-06-19T11:51:54+0000</time>
      </trkpt>
      <trkpt lat="40.721000000000004" lon="-1.9316000000000002">
        <time>2021-06-19T11:51:55+0000</time>
      </trkpt>
      <trkpt lat="40.72095" lon="-1.9314300000000002">
        <time>2021-06-19T11:51:56+0000</time>
      </trkpt>
      <trkpt lat="40.720890000000004" lon="-1.9312300000000002">
        <time>2021-06-19T11:51:57+0000</time>
      </trkpt>
      <trkpt lat="40.72084" lon="-1.9310300000000002">
        <time>2021-06-19T11:51:58+0000</time>
      </trkpt>
      <trkpt lat="40.72079" lon="-1.9308300000000003">
        <time>2021-06-19T11:51:59+0000</time>
      </trkpt>
      <trkpt lat="40.720740000000006" lon="-1.93063">
        <time>2021-06-19T11:52:00+0000</time>
      </trkpt>
      <trkpt lat="40.72072" lon="-1.9304100000000002">
        <time>2021-06-19T11:52:01+0000</time>
      </trkpt>
      <trkpt lat="40.720710000000004" lon="-1.9302000000000001">
        <time>2021-06-19T11:52:02+0000</time>
      </trkpt>
      <trkpt lat="40.72073" lon="-1.9299800000000003">
        <time>2021-06-19T11:52:03+0000</time>
      </trkpt>
      <trkpt lat="40.72077" lon="-1.9297600000000001">
        <time>2021-06-19T11:52:04+0000</time>
      </trkpt>
      <trkpt lat="40.72083000000001" lon="-1.9295600000000002">
        <time>2021-06-19T11:52:05+0000</time>
      </trkpt>
      <trkpt lat="40.7209" lon="-1.9293600000000002">
        <time>2021-06-19T11:52:06+0000</time>
      </trkpt>
      <trkpt lat="40.72099" lon="-1.9291800000000001">
        <time>2021-06-19T11:52:07+0000</time>
      </trkpt>
      <trkpt lat="40.721090000000004" lon="-1.9290200000000002">
        <time>2021-06-19T11:52:08+0000</time>
      </trkpt>
      <trkpt lat="40.7212" lon="-1.92887">
        <time>2021-06-19T11:52:09+0000</time>
      </trkpt>
      <trkpt lat="40.72133" lon="-1.9287400000000001">
        <time>2021-06-19T11:52:10+0000</time>
      </trkpt>
      <trkpt lat="40.721450000000004" lon="-1.92863">
        <time>2021-06-19T11:52:11+0000</time>
      </trkpt>
      <trkpt lat="40.721590000000006" lon="-1.9285400000000001">
        <time>2021-06-19T11:52:12+0000</time>
      </trkpt>
      <trkpt lat="40.721720000000005" lon="-1.92846">
        <time>2021-06-19T11:52:13+0000</time>
      </trkpt>
      <trkpt lat="40.72186000000001" lon="-1.9284000000000001">
        <time>2021-06-19T11:52:14+0000</time>
      </trkpt>
      <trkpt lat="40.722010000000004" lon="-1.9283500000000002">
        <time>2021-06-19T11:52:15+0000</time>
      </trkpt>
      <trkpt lat="40.722150000000006" lon="-1.9283200000000003">
        <time>2021-06-19T11:52:16+0000</time>
      </trkpt>
      <trkpt lat="40.72229" lon="-1.9283000000000001">
        <time>2021-06-19T11:52:17+0000</time>
      </trkpt>
      <trkpt lat="40.72243" lon="-1.9283000000000001">
        <time>2021-06-19T11:52:18+0000</time>
      </trkpt>
      <trkpt lat="40.72256" lon="-1.9283100000000002">
        <time>2021-06-19T11:52:19+0000</time>
      </trkpt>
      <trkpt lat="40.72269" lon="-1.92833">
        <time>2021-06-19T11:52:20+0000</time>
      </trkpt>
      <trkpt lat="40.72281" lon="-1.92836">
        <time>2021-06-19T11:52:21+0000</time>
      </trkpt>
      <trkpt lat="40.722930000000005" lon="-1.9284000000000001">
        <time>2021-06-19T11:52:22+0000</time>
      </trkpt>
      <trkpt lat="40.72303" lon="-1.9284400000000002">
        <time>2021-06-19T11:52:23+0000</time>
      </trkpt>
      <trkpt lat="40.72314" lon="-1.9285">
        <time>2021-06-19T11:52:24+0000</time>
      </trkpt>
      <trkpt lat="40.72323" lon="-1.9285500000000002">
        <time>2021-06-19T11:52:25+0000</time>
      </trkpt>
      <trkpt lat="40.723330000000004" lon="-1.92863">
        <time>2021-06-19T11:52:26+0000</time>
      </trkpt>
      <trkpt lat="40.72345000000001" lon="-1.9287">
        <time>2021-06-19T11:52:27+0000</time>
      </trkpt>
      <trkpt lat="40.723560000000006" lon="-1.9287900000000002">
        <time>2021-06-19T11:52:28+0000</time>
      </trkpt>
      <trkpt lat="40.723670000000006" lon="-1.9288800000000001">
        <time>2021-06-19T11:52:29+0000</time>
      </trkpt>
      <trkpt lat="40.723780000000005" lon="-1.9289800000000001">
        <time>2021-06-19T11:52:30+0000</time>
      </trkpt>
      <trkpt lat="40.72388" lon="-1.92907">
        <time>2021-06-19T11:52:31+0000</time>
      </trkpt>
      <trkpt lat="40.723980000000005" lon="-1.9291500000000001">
        <time>2021-06-19T11:52:32+0000</time>
      </trkpt>
      <trkpt lat="40.72408" lon="-1.92924">
        <time>2021-06-19T11:52:33+0000</time>
      </trkpt>
      <trkpt lat="40.724180000000004" lon="-1.9293300000000002">
        <time>2021-06-19T11:52:34+0000</time>
      </trkpt>
      <trkpt lat="40.72428" lon="-1.92941">
        <time>2021-06-19T11:52:35+0000</time>
      </trkpt>
      <trkpt lat="40.724380000000004" lon="-1.9295000000000002">
        <time>2021-06-19T11:52:36+0000</time>
      </trkpt>
      <trkpt lat="40.72448" lon="-1.9295900000000001">
        <time>2021-06-19T11:52:37+0000</time>
      </trkpt>
      <trkpt lat="40.724590000000006" lon="-1.92968">
        <time>2021-06-19T11:52:38+0000</time>
      </trkpt>
      <trkpt lat="40.72471" lon="-1.9297700000000002">
        <time>2021-06-19T11:52:39+0000</time>
      </trkpt>
      <trkpt lat="40.72484" lon="-1.9298700000000002">
        <time>2021-06-19T11:52:40+0000</time>
      </trkpt>
      <trkpt lat="40.724970000000006" lon="-1.9299600000000001">
        <time>2021-06-19T11:52:41+0000</time>
      </trkpt>
      <trkpt lat="40.725120000000004" lon="-1.9300500000000003">
        <time>2021-06-19T11:52:42+0000</time>
      </trkpt>
      <trkpt lat="40.72527" lon="-1.9301500000000003">
        <time>2021-06-19T11:52:43+0000</time>
      </trkpt>
      <trkpt lat="40.725440000000006" lon="-1.93026">
        <time>2021-06-19T11:52:44+0000</time>
      </trkpt>
      <trkpt lat="40.725620000000006" lon="-1.93036">
        <time>2021-06-19T11:52:45+0000</time>
      </trkpt>
      <trkpt lat="40.72580000000001" lon="-1.9304700000000001">
        <time>2021-06-19T11:52:46+0000</time>
      </trkpt>
      <trkpt lat="40.72599" lon="-1.9305700000000001">
        <time>2021-06-19T11:52:47+0000</time>
      </trkpt>
      <trkpt lat="40.72619" lon="-1.9306800000000002">
        <time>2021-06-19T11:52:48+0000</time>
      </trkpt>
      <trkpt lat="40.72639" lon="-1.9307800000000002">
        <time>2021-06-19T11:52:49+0000</time>
      </trkpt>
      <trkpt lat="40.726580000000006" lon="-1.93087">
        <time>2021-06-19T11:52:50+0000</time>
      </trkpt>
      <trkpt lat="40.72679" lon="-1.93097">
        <time>2021-06-19T11:52:51+0000</time>
      </trkpt>
      <trkpt lat="40.72702" lon="-1.93107">
        <time>2021-06-19T11:52:52+0000</time>
      </trkpt>
      <trkpt lat="40.72724" lon="-1.9311800000000001">
        <time>2021-06-19T11:52:53+0000</time>
      </trkpt>
      <trkpt lat="40.727450000000005" lon="-1.93131">
        <time>2021-06-19T11:52:54+0000</time>
      </trkpt>
      <trkpt lat="40.727650000000004" lon="-1.9314600000000002">
        <time>2021-06-19T11:52:55+0000</time>
      </trkpt>
      <trkpt lat="40.72784" lon="-1.93165">
        <time>2021-06-19T11:52:56+0000</time>
      </trkpt>
      <trkpt lat="40.728010000000005" lon="-1.9318700000000002">
        <time>2021-06-19T11:52:57+0000</time>
      </trkpt>
      <trkpt lat="40.728170000000006" lon="-1.93209">
        <time>2021-06-19T11:52:58+0000</time>
      </trkpt>
      <trkpt lat="40.728300000000004" lon="-1.9323400000000002">
        <time>2021-06-19T11:52:59+0000</time>
      </trkpt>
      <trkpt lat="40.728410000000004" lon="-1.9325900000000003">
        <time>2021-06-19T11:53:00+0000</time>
      </trkpt>
      <trkpt lat="40.72851" lon="-1.9328500000000002">
        <time>2021-06-19T11:53:01+0000</time>
      </trkpt>
      <trkpt lat="40.7286" lon="-1.9330900000000002">
        <time>2021-06-19T11:53:02+0000</time>
      </trkpt>
      <trkpt lat="40.72869" lon="-1.9333300000000002">
        <time>2021-06-19T11:53:03+0000</time>
      </trkpt>
      <trkpt lat="40.72876" lon="-1.9335600000000002">
        <time>2021-06-19T11:53:04+0000</time>
      </trkpt>
      <trkpt lat="40.728840000000005" lon="-1.93378">
        <time>2021-06-19T11:53:05+0000</time>
      </trkpt>
      <trkpt lat="40.72892" lon="-1.93399">
        <time>2021-06-19T11:53:06+0000</time>
      </trkpt>
      <trkpt lat="40.72899" lon="-1.93419">
        <time>2021-06-19T11:53:07+0000</time>
      </trkpt>
      <trkpt lat="40.729060000000004" lon="-1.9343800000000002">
        <time>2021-06-19T11:53:08+0000</time>
      </trkpt>
      <trkpt lat="40.729130000000005" lon="-1.9345700000000001">
        <time>2021-06-19T11:53:09+0000</time>
      </trkpt>
      <trkpt lat="40.729200000000006" lon="-1.9347400000000001">
        <time>2021-06-19T11:53:10+0000</time>
      </trkpt>
      <trkpt lat="40.729260000000004" lon="-1.9349200000000002">
        <time>2021-06-19T11:53:11+0000</time>
      </trkpt>
      <trkpt lat="40.729330000000004" lon="-1.9351000000000003">
        <time>2021-06-19T11:53:12+0000</time>
      </trkpt>
      <trkpt lat="40.729400000000005" lon="-1.9353000000000002">
        <time>2021-06-19T11:53:13+0000</time>
      </trkpt>
      <trkpt lat="40.729470000000006" lon="-1.93551">
        <time>2021-06-19T11:53:14+0000</time>
      </trkpt>
      <trkpt lat="40.72955" lon="-1.93572">
        <time>2021-06-19T11:53:15+0000</time>
      </trkpt>
      <trkpt lat="40.729620000000004" lon="-1.9359400000000002">
        <time>2021-06-19T11:53:16+0000</time>
      </trkpt>
      <trkpt lat="40.7297" lon="-1.9361800000000002">
        <time>2021-06-19T11:53:17+0000</time>
      </trkpt>
      <trkpt lat="40.729780000000005" lon="-1.9364200000000003">
        <time>2021-06-19T11:53:18+0000</time>
      </trkpt>
      <trkpt lat="40.729850000000006" lon="-1.9366700000000001">
        <time>2021-06-19T11:53:19+0000</time>
      </trkpt>
      <trkpt lat="40.72992" lon="-1.9369300000000003">
        <time>2021-06-19T11:53:20+0000</time>
      </trkpt>
      <trkpt lat="40.729980000000005" lon="-1.9372000000000003">
        <time>2021-06-19T11:53:21+0000</time>
      </trkpt>
      <trkpt lat="40.73004" lon="-1.93748">
        <time>2021-06-19T11:53:22+0000</time>
      </trkpt>
      <trkpt lat="40.73011" lon="-1.9377600000000001">
        <time>2021-06-19T11:53:23+0000</time>
      </trkpt>
      <trkpt lat="40.73017" lon="-1.9380400000000002">
        <time>2021-06-19T11:53:24+0000</time>
      </trkpt>
      <trkpt lat="40.730230000000006" lon="-1.9383000000000001">
        <time>2021-06-19T11:53:25+0000</time>
      </trkpt>
      <trkpt lat="40.730290000000004" lon="-1.9385700000000001">
        <time>2021-06-19T11:53:26+0000</time>
      </trkpt>
      <trkpt lat="40.730340000000005" lon="-1.93883">
        <time>2021-06-19T11:53:27+0000</time>
      </trkpt>
      <trkpt lat="40.7304" lon="-1.9390900000000002">
        <time>2021-06-19T11:53:28+0000</time>
      </trkpt>
      <trkpt lat="40.730470000000004" lon="-1.9393500000000001">
        <time>2021-06-19T11:53:29+0000</time>
      </trkpt>
      <trkpt lat="40.730540000000005" lon="-1.93961">
        <time>2021-06-19T11:53:30+0000</time>
      </trkpt>
      <trkpt lat="40.73062" lon="-1.9398700000000002">
        <time>2021-06-19T11:53:31+0000</time>
      </trkpt>
      <trkpt lat="40.73073" lon="-1.9401100000000002">
        <time>2021-06-19T11:53:32+0000</time>
      </trkpt>
      <trkpt lat="40.730850000000004" lon="-1.9403400000000002">
        <time>2021-06-19T11:53:33+0000</time>
      </trkpt>
      <trkpt lat="40.730990000000006" lon="-1.94056">
        <time>2021-06-19T11:53:34+0000</time>
      </trkpt>
      <trkpt lat="40.73114" lon="-1.9407600000000003">
        <time>2021-06-19T11:53:35+0000</time>
      </trkpt>
      <trkpt lat="40.73129" lon="-1.94094">
        <time>2021-06-19T11:53:36+0000</time>
      </trkpt>
      <trkpt lat="40.731440000000006" lon="-1.9411200000000002">
        <time>2021-06-19T11:53:37+0000</time>
      </trkpt>
      <trkpt lat="40.7316" lon="-1.9412900000000002">
        <time>2021-06-19T11:53:38+0000</time>
      </trkpt>
      <trkpt lat="40.731750000000005" lon="-1.9414600000000002">
        <time>2021-06-19T11:53:39+0000</time>
      </trkpt>
      <trkpt lat="40.7319" lon="-1.9416300000000002">
        <time>2021-06-19T11:53:40+0000</time>
      </trkpt>
      <trkpt lat="40.732060000000004" lon="-1.9417900000000001">
        <time>2021-06-19T11:53:41+0000</time>
      </trkpt>
      <trkpt lat="40.73223" lon="-1.9419400000000002">
        <time>2021-06-19T11:53:42+0000</time>
      </trkpt>
      <trkpt lat="40.732400000000005" lon="-1.9420800000000003">
        <time>2021-06-19T11:53:43+0000</time>
      </trkpt>
      <trkpt lat="40.73256000000001" lon="-1.94219">
        <time>2021-06-19T11:53:44+0000</time>
      </trkpt>
      <trkpt lat="40.732730000000004" lon="-1.94229">
        <time>2021-06-19T11:53:45+0000</time>
      </trkpt>
      <trkpt lat="40.7329" lon="-1.9424000000000001">
        <time>2021-06-19T11:53:46+0000</time>
      </trkpt>
      <trkpt lat="40.733070000000005" lon="-1.9425100000000002">
        <time>2021-06-19T11:53:47+0000</time>
      </trkpt>
      <trkpt lat="40.733250000000005" lon="-1.9426200000000002">
        <time>2021-06-19T11:53:48+0000</time>
      </trkpt>
      <trkpt lat="40.73342" lon="-1.94273">
        <time>2021-06-19T11:53:49+0000</time>
      </trkpt>
      <trkpt lat="40.73359000000001" lon="-1.94283">
        <time>2021-06-19T11:53:50+0000</time>
      </trkpt>
      <trkpt lat="40.73375" lon="-1.9429200000000002">
        <time>2021-06-19T11:53:51+0000</time>
      </trkpt>
      <trkpt lat="40.73391" lon="-1.9430200000000002">
        <time>2021-06-19T11:53:52+0000</time>
      </trkpt>
      <trkpt lat="40.73405" lon="-1.9431100000000001">
        <time>2021-06-19T11:53:53+0000</time>
      </trkpt>
      <trkpt lat="40.734190000000005" lon="-1.9431900000000002">
        <time>2021-06-19T11:53:54+0000</time>
      </trkpt>
      <trkpt lat="40.734320000000004" lon="-1.9432800000000001">
        <time>2021-06-19T11:53:55+0000</time>
      </trkpt>
      <trkpt lat="40.73445" lon="-1.9433500000000001">
        <time>2021-06-19T11:53:56+0000</time>
      </trkpt>
      <trkpt lat="40.73458" lon="-1.9434300000000002">
        <time>2021-06-19T11:53:57+0000</time>
      </trkpt>
      <trkpt lat="40.734700000000004" lon="-1.94351">
        <time>2021-06-19T11:53:58+0000</time>
      </trkpt>
      <trkpt lat="40.734820000000006" lon="-1.9435900000000002">
        <time>2021-06-19T11:53:59+0000</time>
      </trkpt>
      <trkpt lat="40.734930000000006" lon="-1.9436700000000002">
        <time>2021-06-19T11:54:00+0000</time>
      </trkpt>
      <trkpt lat="40.73503" lon="-1.9437700000000002">
        <time>2021-06-19T11:54:01+0000</time>
      </trkpt>
      <trkpt lat="40.735130000000005" lon="-1.9438700000000002">
        <time>2021-06-19T11:54:02+0000</time>
      </trkpt>
      <trkpt lat="40.735220000000005" lon="-1.9440000000000002">
        <time>2021-06-19T11:54:03+0000</time>
      </trkpt>
      <trkpt lat="40.7353" lon="-1.9441300000000001">
        <time>2021-06-19T11:54:04+0000</time>
      </trkpt>
      <trkpt lat="40.73537" lon="-1.94426">
        <time>2021-06-19T11:54:05+0000</time>
      </trkpt>
      <trkpt lat="40.73543" lon="-1.9443800000000002">
        <time>2021-06-19T11:54:06+0000</time>
      </trkpt>
      <trkpt lat="40.73547000000001" lon="-1.9444800000000002">
        <time>2021-06-19T11:54:07+0000</time>
      </trkpt>
      <trkpt lat="40.735510000000005" lon="-1.9445800000000002">
        <time>2021-06-19T11:54:08+0000</time>
      </trkpt>
      <trkpt lat="40.73555" lon="-1.9446700000000001">
        <time>2021-06-19T11:54:09+0000</time>
      </trkpt>
      <trkpt lat="40.73559" lon="-1.9447500000000002">
        <time>2021-06-19T11:54:10+0000</time>
      </trkpt>
      <trkpt lat="40.73563" lon="-1.94483">
        <time>2021-06-19T11:54:11+0000</time>
      </trkpt>
      <trkpt lat="40.735670000000006" lon="-1.9449200000000002">
        <time>2021-06-19T11:54:12+0000</time>
      </trkpt>
      <trkpt lat="40.73572" lon="-1.9450100000000001">
        <time>2021-06-19T11:54:13+0000</time>
      </trkpt>
      <trkpt lat="40.735780000000005" lon="-1.9451100000000001">
        <time>2021-06-19T11:54:14+0000</time>
      </trkpt>
      <trkpt lat="40.73583" lon="-1.94521">
        <time>2021-06-19T11:54:15+0000</time>
      </trkpt>
      <trkpt lat="40.735890000000005" lon="-1.9453200000000002">
        <time>2021-06-19T11:54:16+0000</time>
      </trkpt>
      <trkpt lat="40.73594000000001" lon="-1.9454300000000002">
        <time>2021-06-19T11:54:17+0000</time>
      </trkpt>
      <trkpt lat="40.736000000000004" lon="-1.9455500000000001">
        <time>2021-06-19T11:54:18+0000</time>
      </trkpt>
      <trkpt lat="40.73606" lon="-1.9456700000000002">
        <time>2021-06-19T11:54:19+0000</time>
      </trkpt>
      <trkpt lat="40.73612000000001" lon="-1.9458000000000002">
        <time>2021-06-19T11:54:20+0000</time>
      </trkpt>
      <trkpt lat="40.73619" lon="-1.94592">
        <time>2021-06-19T11:54:21+0000</time>
      </trkpt>
      <trkpt lat="40.73626" lon="-1.9460700000000002">
        <time>2021-06-19T11:54:22+0000</time>
      </trkpt>
      <trkpt lat="40.73633" lon="-1.9462300000000001">
        <time>2021-06-19T11:54:23+0000</time>
      </trkpt>
      <trkpt lat="40.73641000000001" lon="-1.9463800000000002">
        <time>2021-06-19T11:54:24+0000</time>
      </trkpt>
      <trkpt lat="40.736470000000004" lon="-1.9465200000000003">
        <time>2021-06-19T11:54:25+0000</time>
      </trkpt>
      <trkpt lat="40.73655" lon="-1.94666">
        <time>2021-06-19T11:54:26+0000</time>
      </trkpt>
      <trkpt lat="40.73662" lon="-1.9468200000000002">
        <time>2021-06-19T11:54:27+0000</time>
      </trkpt>
      <trkpt lat="40.73671" lon="-1.9469800000000002">
        <time>2021-06-19T11:54:28+0000</time>
      </trkpt>
      <trkpt lat="40.736790000000006" lon="-1.9471500000000002">
        <time>2021-06-19T11:54:29+0000</time>
      </trkpt>
      <trkpt lat="40.736880000000006" lon="-1.9473200000000002">
        <time>2021-06-19T11:54:30+0000</time>
      </trkpt>
      <trkpt lat="40.73697000000001" lon="-1.9475000000000002">
        <time>2021-06-19T11:54:31+0000</time>
      </trkpt>
      <trkpt lat="40.73707" lon="-1.9477000000000002">
        <time>2021-06-19T11:54:32+0000</time>
      </trkpt>
      <trkpt lat="40.73716" lon="-1.94788">
        <time>2021-06-19T11:54:33+0000</time>
      </trkpt>
      <trkpt lat="40.73725" lon="-1.9480700000000002">
        <time>2021-06-19T11:54:34+0000</time>
      </trkpt>
      <trkpt lat="40.737350000000006" lon="-1.9482700000000002">
        <time>2021-06-19T11:54:35+0000</time>
      </trkpt>
      <trkpt lat="40.73747" lon="-1.9484700000000001">
        <time>2021-06-19T11:54:36+0000</time>
      </trkpt>
      <trkpt lat="40.7376" lon="-1.9486700000000001">
        <time>2021-06-19T11:54:37+0000</time>
      </trkpt>
      <trkpt lat="40.73774" lon="-1.9488500000000002">
        <time>2021-06-19T11:54:38+0000</time>
      </trkpt>
      <trkpt lat="40.73789" lon="-1.9490200000000002">
        <time>2021-06-19T11:54:39+0000</time>
      </trkpt>
      <trkpt lat="40.738040000000005" lon="-1.9491600000000002">
        <time>2021-06-19T11:54:40+0000</time>
      </trkpt>
      <trkpt lat="40.73819" lon="-1.9492900000000002">
        <time>2021-06-19T11:54:41+0000</time>
      </trkpt>
      <trkpt lat="40.738350000000004" lon="-1.9493900000000002">
        <time>2021-06-19T11:54:42+0000</time>
      </trkpt>
      <trkpt lat="40.73852" lon="-1.9494700000000003">
        <time>2021-06-19T11:54:43+0000</time>
      </trkpt>
      <trkpt lat="40.738690000000005" lon="-1.94954">
        <time>2021-06-19T11:54:44+0000</time>
      </trkpt>
      <trkpt lat="40.738870000000006" lon="-1.9495900000000002">
        <time>2021-06-19T11:54:45+0000</time>
      </trkpt>
      <trkpt lat="40.739050000000006" lon="-1.9496200000000001">
        <time>2021-06-19T11:54:46+0000</time>
      </trkpt>
      <trkpt lat="40.73924" lon="-1.94961">
        <time>2021-06-19T11:54:47+0000</time>
      </trkpt>
      <trkpt lat="40.739430000000006" lon="-1.94961">
        <time>2021-06-19T11:54:48+0000</time>
      </trkpt>
      <trkpt lat="40.73962" lon="-1.9496000000000002">
        <time>2021-06-19T11:54:49+0000</time>
      </trkpt>
      <trkpt lat="40.73982" lon="-1.9495900000000002">
        <time>2021-06-19T11:54:50+0000</time>
      </trkpt>
      <trkpt lat="40.740010000000005" lon="-1.9495900000000002">
        <time>2021-06-19T11:54:51+0000</time>
      </trkpt>
      <trkpt lat="40.74022" lon="-1.9495600000000002">
        <time>2021-06-19T11:54:52+0000</time>
      </trkpt>
      <trkpt lat="40.74044000000001" lon="-1.9495700000000002">
        <time>2021-06-19T11:54:53+0000</time>
      </trkpt>
      <trkpt lat="40.740640000000006" lon="-1.9495600000000002">
        <time>2021-06-19T11:54:54+0000</time>
      </trkpt>
      <trkpt lat="40.74085" lon="-1.9495600000000002">
        <time>2021-06-19T11:54:55+0000</time>
      </trkpt>
      <trkpt lat="40.741060000000004" lon="-1.94958">
        <time>2021-06-19T11:54:56+0000</time>
      </trkpt>
      <trkpt lat="40.74127" lon="-1.9496300000000002">
        <time>2021-06-19T11:54:57+0000</time>
      </trkpt>
      <trkpt lat="40.741490000000006" lon="-1.94971">
        <time>2021-06-19T11:54:58+0000</time>
      </trkpt>
      <trkpt lat="40.7417" lon="-1.9498100000000003">
        <time>2021-06-19T11:54:59+0000</time>
      </trkpt>
      <trkpt lat="40.74192" lon="-1.94992">
        <time>2021-06-19T11:55:00+0000</time>
      </trkpt>
      <trkpt lat="40.742140000000006" lon="-1.9500300000000002">
        <time>2021-06-19T11:55:01+0000</time>
      </trkpt>
      <trkpt lat="40.742360000000005" lon="-1.9501400000000002">
        <time>2021-06-19T11:55:02+0000</time>
      </trkpt>
      <trkpt lat="40.74259" lon="-1.9502400000000002">
        <time>2021-06-19T11:55:03+0000</time>
      </trkpt>
      <trkpt lat="40.742810000000006" lon="-1.9503400000000002">
        <time>2021-06-19T11:55:04+0000</time>
      </trkpt>
      <trkpt lat="40.74302" lon="-1.9504200000000003">
        <time>2021-06-19T11:55:05+0000</time>
      </trkpt>
      <trkpt lat="40.743230000000004" lon="-1.9505100000000002">
        <time>2021-06-19T11:55:06+0000</time>
      </trkpt>
      <trkpt lat="40.743430000000004" lon="-1.9505800000000002">
        <time>2021-06-19T11:55:07+0000</time>
      </trkpt>
      <trkpt lat="40.74362" lon="-1.9506500000000002">
        <time>2021-06-19T11:55:08+0000</time>
      </trkpt>
      <trkpt lat="40.74381" lon="-1.9507200000000002">
        <time>2021-06-19T11:55:09+0000</time>
      </trkpt>
      <trkpt lat="40.74400000000001" lon="-1.9507700000000001">
        <time>2021-06-19T11:55:10+0000</time>
      </trkpt>
      <trkpt lat="40.744200000000006" lon="-1.9508">
        <time>2021-06-19T11:55:11+0000</time>
      </trkpt>
      <trkpt lat="40.74441" lon="-1.9508100000000002">
        <time>2021-06-19T11:55:12+0000</time>
      </trkpt>
      <trkpt lat="40.744620000000005" lon="-1.9508">
        <time>2021-06-19T11:55:13+0000</time>
      </trkpt>
      <trkpt lat="40.74484" lon="-1.9507500000000002">
        <time>2021-06-19T11:55:14+0000</time>
      </trkpt>
      <trkpt lat="40.74504" lon="-1.9506700000000001">
        <time>2021-06-19T11:55:15+0000</time>
      </trkpt>
      <trkpt lat="40.745250000000006" lon="-1.9505700000000001">
        <time>2021-06-19T11:55:16+0000</time>
      </trkpt>
      <trkpt lat="40.74544" lon="-1.9504400000000002">
        <time>2021-06-19T11:55:17+0000</time>
      </trkpt>
      <trkpt lat="40.74562" lon="-1.9503000000000001">
        <time>2021-06-19T11:55:18+0000</time>
      </trkpt>
      <trkpt lat="40.74578" lon="-1.9501400000000002">
        <time>2021-06-19T11:55:19+0000</time>
      </trkpt>
      <trkpt lat="40.745920000000005" lon="-1.9499400000000002">
        <time>2021-06-19T11:55:20+0000</time>
      </trkpt>
      <trkpt lat="40.746050000000004" lon="-1.94975">
        <time>2021-06-19T11:55:21+0000</time>
      </trkpt>
      <trkpt lat="40.74618" lon="-1.9495700000000002">
        <time>2021-06-19T11:55:22+0000</time>
      </trkpt>
      <trkpt lat="40.746280000000006" lon="-1.9493700000000003">
        <time>2021-06-19T11:55:23+0000</time>
      </trkpt>
      <trkpt lat="40.74638" lon="-1.9491600000000002">
        <time>2021-06-19T11:55:24+0000</time>
      </trkpt>
      <trkpt lat="40.746480000000005" lon="-1.9489600000000002">
        <time>2021-06-19T11:55:25+0000</time>
      </trkpt>
      <trkpt lat="40.74656" lon="-1.9487400000000001">
        <time>2021-06-19T11:55:26+0000</time>
      </trkpt>
      <trkpt lat="40.746660000000006" lon="-1.9485500000000002">
        <time>2021-06-19T11:55:27+0000</time>
      </trkpt>
      <trkpt lat="40.74676" lon="-1.9483300000000001">
        <time>2021-06-19T11:55:28+0000</time>
      </trkpt>
      <trkpt lat="40.746860000000005" lon="-1.9481100000000002">
        <time>2021-06-19T11:55:29+0000</time>
      </trkpt>
      <trkpt lat="40.746970000000005" lon="-1.9478900000000001">
        <time>2021-06-19T11:55:30+0000</time>
      </trkpt>
      <trkpt lat="40.74707" lon="-1.94768">
        <time>2021-06-19T11:55:31+0000</time>
      </trkpt>
      <trkpt lat="40.74718" lon="-1.94748">
        <time>2021-06-19T11:55:32+0000</time>
      </trkpt>
      <trkpt lat="40.7473" lon="-1.9472800000000001">
        <time>2021-06-19T11:55:33+0000</time>
      </trkpt>
      <trkpt lat="40.747440000000005" lon="-1.9470900000000002">
        <time>2021-06-19T11:55:34+0000</time>
      </trkpt>
      <trkpt lat="40.747600000000006" lon="-1.9469200000000002">
        <time>2021-06-19T11:55:35+0000</time>
      </trkpt>
      <trkpt lat="40.74776000000001" lon="-1.9467600000000003">
        <time>2021-06-19T11:55:36+0000</time>
      </trkpt>
      <trkpt lat="40.74794" lon="-1.9466">
        <time>2021-06-19T11:55:37+0000</time>
      </trkpt>
      <trkpt lat="40.748110000000004" lon="-1.9464500000000002">
        <time>2021-06-19T11:55:38+0000</time>
      </trkpt>
      <trkpt lat="40.74828" lon="-1.9463100000000002">
        <time>2021-06-19T11:55:39+0000</time>
      </trkpt>
      <trkpt lat="40.748450000000005" lon="-1.9461700000000002">
        <time>2021-06-19T11:55:40+0000</time>
      </trkpt>
      <trkpt lat="40.7486" lon="-1.9460300000000001">
        <time>2021-06-19T11:55:41+0000</time>
      </trkpt>
      <trkpt lat="40.748740000000005" lon="-1.94588">
        <time>2021-06-19T11:55:42+0000</time>
      </trkpt>
      <trkpt lat="40.748870000000004" lon="-1.9457400000000002">
        <time>2021-06-19T11:55:43+0000</time>
      </trkpt>
      <trkpt lat="40.749" lon="-1.94558">
        <time>2021-06-19T11:55:44+0000</time>
      </trkpt>
      <trkpt lat="40.74911" lon="-1.9454000000000002">
        <time>2021-06-19T11:55:45+0000</time>
      </trkpt>
      <trkpt lat="40.749230000000004" lon="-1.9452300000000002">
        <time>2021-06-19T11:55:46+0000</time>
      </trkpt>
      <trkpt lat="40.74935000000001" lon="-1.9450600000000002">
        <time>2021-06-19T11:55:47+0000</time>
      </trkpt>
      <trkpt lat="40.74947" lon="-1.9449">
        <time>2021-06-19T11:55:48+0000</time>
      </trkpt>
      <trkpt lat="40.74958" lon="-1.9447500000000002">
        <time>2021-06-19T11:55:49+0000</time>
      </trkpt>
      <trkpt lat="40.749700000000004" lon="-1.9446100000000002">
        <time>2021-06-19T11:55:50+0000</time>
      </trkpt>
      <trkpt lat="40.74982000000001" lon="-1.94449">
        <time>2021-06-19T11:55:51+0000</time>
      </trkpt>
      <trkpt lat="40.749930000000006" lon="-1.9443800000000002">
        <time>2021-06-19T11:55:52+0000</time>
      </trkpt>
      <trkpt lat="40.750040000000006" lon="-1.9442700000000002">
        <time>2021-06-19T11:55:53+0000</time>
      </trkpt>
      <trkpt lat="40.750150000000005" lon="-1.9441700000000002">
        <time>2021-06-19T11:55:54+0000</time>
      </trkpt>
      <trkpt lat="40.75027" lon="-1.9440600000000001">
        <time>2021-06-19T11:55:55+0000</time>
      </trkpt>
      <trkpt lat="40.750370000000004" lon="-1.9439600000000001">
        <time>2021-06-19T11:55:56+0000</time>
      </trkpt>
      <trkpt lat="40.75047" lon="-1.9438600000000001">
        <time>2021-06-19T11:55:57+0000</time>
      </trkpt>
      <trkpt lat="40.750550000000004" lon="-1.9437700000000002">
        <time>2021-06-19T11:55:58+0000</time>
      </trkpt>
      <trkpt lat="40.750620000000005" lon="-1.9437000000000002">
        <time>2021-06-19T11:55:59+0000</time>
      </trkpt>
      <trkpt lat="40.750690000000006" lon="-1.9436300000000002">
        <time>2021-06-19T11:56:00+0000</time>
      </trkpt>
      <trkpt lat="40.75076000000001" lon="-1.9435600000000002">
        <time>2021-06-19T11:56:01+0000</time>
      </trkpt>
      <trkpt lat="40.750820000000004" lon="-1.9435000000000002">
        <time>2021-06-19T11:56:02+0000</time>
      </trkpt>
      <trkpt lat="40.750890000000005" lon="-1.94344">
        <time>2021-06-19T11:56:03+0000</time>
      </trkpt>
      <trkpt lat="40.750960000000006" lon="-1.94338">
        <time>2021-06-19T11:56:04+0000</time>
      </trkpt>
      <trkpt lat="40.751020000000004" lon="-1.94331">
        <time>2021-06-19T11:56:05+0000</time>
      </trkpt>
      <trkpt lat="40.7511" lon="-1.94324">
        <time>2021-06-19T11:56:06+0000</time>
      </trkpt>
      <trkpt lat="40.751180000000005" lon="-1.94317">
        <time>2021-06-19T11:56:07+0000</time>
      </trkpt>
      <trkpt lat="40.751250000000006" lon="-1.9431">
        <time>2021-06-19T11:56:08+0000</time>
      </trkpt>
      <trkpt lat="40.75133" lon="-1.94304">
        <time>2021-06-19T11:56:09+0000</time>
      </trkpt>
      <trkpt lat="40.75141" lon="-1.94297">
        <time>2021-06-19T11:56:10+0000</time>
      </trkpt>
      <trkpt lat="40.751490000000004" lon="-1.9429100000000001">
        <time>2021-06-19T11:56:11+0000</time>
      </trkpt>
      <trkpt lat="40.751580000000004" lon="-1.9428500000000002">
        <time>2021-06-19T11:56:12+0000</time>
      </trkpt>
      <trkpt lat="40.751670000000004" lon="-1.9427900000000002">
        <time>2021-06-19T11:56:13+0000</time>
      </trkpt>
      <trkpt lat="40.751780000000004" lon="-1.9427400000000001">
        <time>2021-06-19T11:56:14+0000</time>
      </trkpt>
      <trkpt lat="40.75189" lon="-1.9426900000000002">
        <time>2021-06-19T11:56:15+0000</time>
      </trkpt>
      <trkpt lat="40.751990000000006" lon="-1.9426500000000002">
        <time>2021-06-19T11:56:16+0000</time>
      </trkpt>
      <trkpt lat="40.75208000000001" lon="-1.9426200000000002">
        <time>2021-06-19T11:56:17+0000</time>
      </trkpt>
      <trkpt lat="40.75215" lon="-1.9425900000000003">
        <time>2021-06-19T11:56:18+0000</time>
      </trkpt>
      <trkpt lat="40.752210000000005" lon="-1.9425700000000001">
        <time>2021-06-19T11:56:19+0000</time>
      </trkpt>
      <trkpt lat="40.75227" lon="-1.9425500000000002">
        <time>2021-06-19T11:56:20+0000</time>
      </trkpt>
      <trkpt lat="40.75231" lon="-1.9425400000000002">
        <time>2021-06-19T11:56:21+0000</time>
      </trkpt>
      <trkpt lat="40.752340000000004" lon="-1.94253">
        <time>2021-06-19T11:56:22+0000</time>
      </trkpt>
      <trkpt lat="40.75238" lon="-1.9425200000000002">
        <time>2021-06-19T11:56:23+0000</time>
      </trkpt>
      <trkpt lat="40.752410000000005" lon="-1.9425100000000002">
        <time>2021-06-19T11:56:24+0000</time>
      </trkpt>
      <trkpt lat="40.75244" lon="-1.9425000000000001">
        <time>2021-06-19T11:56:25+0000</time>
      </trkpt>
      <trkpt lat="40.75247" lon="-1.94249">
        <time>2021-06-19T11:56:26+0000</time>
      </trkpt>
      <trkpt lat="40.752520000000004" lon="-1.9424800000000002">
        <time>2021-06-19T11:56:27+0000</time>
      </trkpt>
      <trkpt lat="40.752570000000006" lon="-1.9424700000000001">
        <time>2021-06-19T11:56:28+0000</time>
      </trkpt>
      <trkpt lat="40.75262" lon="-1.94246">
        <time>2021-06-19T11:56:29+0000</time>
      </trkpt>
      <trkpt lat="40.752680000000005" lon="-1.9424400000000002">
        <time>2021-06-19T11:56:30+0000</time>
      </trkpt>
      <trkpt lat="40.75273000000001" lon="-1.94243">
        <time>2021-06-19T11:56:31+0000</time>
      </trkpt>
      <trkpt lat="40.752790000000005" lon="-1.9424100000000002">
        <time>2021-06-19T11:56:32+0000</time>
      </trkpt>
      <trkpt lat="40.752840000000006" lon="-1.9424000000000001">
        <time>2021-06-19T11:56:33+0000</time>
      </trkpt>
      <trkpt lat="40.752900000000004" lon="-1.94239">
        <time>2021-06-19T11:56:34+0000</time>
      </trkpt>
      <trkpt lat="40.75296" lon="-1.9423700000000002">
        <time>2021-06-19T11:56:35+0000</time>
      </trkpt>
      <trkpt lat="40.75303" lon="-1.94236">
        <time>2021-06-19T11:56:36+0000</time>
      </trkpt>
      <trkpt lat="40.75311000000001" lon="-1.9423400000000002">
        <time>2021-06-19T11:56:37+0000</time>
      </trkpt>
      <trkpt lat="40.75320000000001" lon="-1.9423200000000003">
        <time>2021-06-19T11:56:38+0000</time>
      </trkpt>
      <trkpt lat="40.75329" lon="-1.9423000000000001">
        <time>2021-06-19T11:56:39+0000</time>
      </trkpt>
      <trkpt lat="40.75339" lon="-1.9422800000000002">
        <time>2021-06-19T11:56:40+0000</time>
      </trkpt>
      <trkpt lat="40.753510000000006" lon="-1.94226">
        <time>2021-06-19T11:56:41+0000</time>
      </trkpt>
      <trkpt lat="40.75366" lon="-1.9422500000000003">
        <time>2021-06-19T11:56:42+0000</time>
      </trkpt>
      <trkpt lat="40.753800000000005" lon="-1.9422300000000001">
        <time>2021-06-19T11:56:43+0000</time>
      </trkpt>
      <trkpt lat="40.753930000000004" lon="-1.94222">
        <time>2021-06-19T11:56:44+0000</time>
      </trkpt>
      <trkpt lat="40.754090000000005" lon="-1.9422100000000002">
        <time>2021-06-19T11:56:45+0000</time>
      </trkpt>
      <trkpt lat="40.75426" lon="-1.9422000000000001">
        <time>2021-06-19T11:56:46+0000</time>
      </trkpt>
      <trkpt lat="40.754430000000006" lon="-1.9422000000000001">
        <time>2021-06-19T11:56:47+0000</time>
      </trkpt>
      <trkpt lat="40.7546" lon="-1.9421800000000002">
        <time>2021-06-19T11:56:48+0000</time>
      </trkpt>
      <trkpt lat="40.75477" lon="-1.9422000000000001">
        <time>2021-06-19T11:56:49+0000</time>
      </trkpt>
      <trkpt lat="40.75495" lon="-1.9422300000000001">
        <time>2021-06-19T11:56:50+0000</time>
      </trkpt>
      <trkpt lat="40.755120000000005" lon="-1.9423000000000001">
        <time>2021-06-19T11:56:51+0000</time>
      </trkpt>
      <trkpt lat="40.755300000000005" lon="-1.9423800000000002">
        <time>2021-06-19T11:56:52+0000</time>
      </trkpt>
      <trkpt lat="40.755480000000006" lon="-1.94249">
        <time>2021-06-19T11:56:53+0000</time>
      </trkpt>
      <trkpt lat="40.755660000000006" lon="-1.9426200000000002">
        <time>2021-06-19T11:56:54+0000</time>
      </trkpt>
      <trkpt lat="40.75583" lon="-1.9427400000000001">
        <time>2021-06-19T11:56:55+0000</time>
      </trkpt>
      <trkpt lat="40.755990000000004" lon="-1.9428500000000002">
        <time>2021-06-19T11:56:56+0000</time>
      </trkpt>
      <trkpt lat="40.756150000000005" lon="-1.9429400000000001">
        <time>2021-06-19T11:56:57+0000</time>
      </trkpt>
      <trkpt lat="40.75629" lon="-1.9430100000000001">
        <time>2021-06-19T11:56:58+0000</time>
      </trkpt>
      <trkpt lat="40.75645" lon="-1.9430600000000002">
        <time>2021-06-19T11:56:59+0000</time>
      </trkpt>
      <trkpt lat="40.756600000000006" lon="-1.9430800000000001">
        <time>2021-06-19T11:57:00+0000</time>
      </trkpt>
      <trkpt lat="40.75677" lon="-1.9430800000000001">
        <time>2021-06-19T11:57:01+0000</time>
      </trkpt>
      <trkpt lat="40.756930000000004" lon="-1.94304">
        <time>2021-06-19T11:57:02+0000</time>
      </trkpt>
      <trkpt lat="40.7571" lon="-1.9429800000000002">
        <time>2021-06-19T11:57:03+0000</time>
      </trkpt>
      <trkpt lat="40.757270000000005" lon="-1.9428900000000002">
        <time>2021-06-19T11:57:04+0000</time>
      </trkpt>
      <trkpt lat="40.75744" lon="-1.9427500000000002">
        <time>2021-06-19T11:57:05+0000</time>
      </trkpt>
      <trkpt lat="40.757600000000004" lon="-1.9425900000000003">
        <time>2021-06-19T11:57:06+0000</time>
      </trkpt>
      <trkpt lat="40.757740000000005" lon="-1.94243">
        <time>2021-06-19T11:57:07+0000</time>
      </trkpt>
      <trkpt lat="40.75786" lon="-1.94226">
        <time>2021-06-19T11:57:08+0000</time>
      </trkpt>
      <trkpt lat="40.75798" lon="-1.9420600000000001">
        <time>2021-06-19T11:57:09+0000</time>
      </trkpt>
      <trkpt lat="40.75809" lon="-1.9418400000000002">
        <time>2021-06-19T11:57:10+0000</time>
      </trkpt>
      <trkpt lat="40.758210000000005" lon="-1.94165">
        <time>2021-06-19T11:57:11+0000</time>
      </trkpt>
      <trkpt lat="40.758320000000005" lon="-1.9414500000000001">
        <time>2021-06-19T11:57:12+0000</time>
      </trkpt>
      <trkpt lat="40.758430000000004" lon="-1.9412500000000001">
        <time>2021-06-19T11:57:13+0000</time>
      </trkpt>
      <trkpt lat="40.75855000000001" lon="-1.9410600000000002">
        <time>2021-06-19T11:57:14+0000</time>
      </trkpt>
      <trkpt lat="40.75869" lon="-1.94087">
        <time>2021-06-19T11:57:15+0000</time>
      </trkpt>
      <trkpt lat="40.75882" lon="-1.9406700000000001">
        <time>2021-06-19T11:57:16+0000</time>
      </trkpt>
      <trkpt lat="40.758950000000006" lon="-1.94049">
        <time>2021-06-19T11:57:17+0000</time>
      </trkpt>
      <trkpt lat="40.759080000000004" lon="-1.9403100000000002">
        <time>2021-06-19T11:57:18+0000</time>
      </trkpt>
      <trkpt lat="40.759220000000006" lon="-1.9401300000000001">
        <time>2021-06-19T11:57:19+0000</time>
      </trkpt>
      <trkpt lat="40.75936" lon="-1.9399300000000002">
        <time>2021-06-19T11:57:20+0000</time>
      </trkpt>
      <trkpt lat="40.75949000000001" lon="-1.93972">
        <time>2021-06-19T11:57:21+0000</time>
      </trkpt>
      <trkpt lat="40.759640000000005" lon="-1.9395000000000002">
        <time>2021-06-19T11:57:22+0000</time>
      </trkpt>
      <trkpt lat="40.759780000000006" lon="-1.9392800000000001">
        <time>2021-06-19T11:57:23+0000</time>
      </trkpt>
      <trkpt lat="40.75995" lon="-1.9391000000000003">
        <time>2021-06-19T11:57:24+0000</time>
      </trkpt>
      <trkpt lat="40.760090000000005" lon="-1.9389300000000003">
        <time>2021-06-19T11:57:25+0000</time>
      </trkpt>
      <trkpt lat="40.76026" lon="-1.93877">
        <time>2021-06-19T11:57:26+0000</time>
      </trkpt>
      <trkpt lat="40.76044" lon="-1.9386200000000002">
        <time>2021-06-19T11:57:27+0000</time>
      </trkpt>
      <trkpt lat="40.760630000000006" lon="-1.9385000000000001">
        <time>2021-06-19T11:57:28+0000</time>
      </trkpt>
      <trkpt lat="40.76084" lon="-1.93839">
        <time>2021-06-19T11:57:29+0000</time>
      </trkpt>
      <trkpt lat="40.76104" lon="-1.9383200000000003">
        <time>2021-06-19T11:57:30+0000</time>
      </trkpt>
      <trkpt lat="40.76126" lon="-1.9382800000000002">
        <time>2021-06-19T11:57:31+0000</time>
      </trkpt>
      <trkpt lat="40.761480000000006" lon="-1.93826">
        <time>2021-06-19T11:57:32+0000</time>
      </trkpt>
      <trkpt lat="40.76171" lon="-1.9382700000000002">
        <time>2021-06-19T11:57:33+0000</time>
      </trkpt>
      <trkpt lat="40.76193000000001" lon="-1.9383100000000002">
        <time>2021-06-19T11:57:34+0000</time>
      </trkpt>
      <trkpt lat="40.76216" lon="-1.9383500000000002">
        <time>2021-06-19T11:57:35+0000</time>
      </trkpt>
      <trkpt lat="40.76240000000001" lon="-1.9384000000000001">
        <time>2021-06-19T11:57:36+0000</time>
      </trkpt>
      <trkpt lat="40.76263" lon="-1.9384400000000002">
        <time>2021-06-19T11:57:37+0000</time>
      </trkpt>
      <trkpt lat="40.76285" lon="-1.9384900000000003">
        <time>2021-06-19T11:57:38+0000</time>
      </trkpt>
      <trkpt lat="40.763070000000006" lon="-1.9385400000000002">
        <time>2021-06-19T11:57:39+0000</time>
      </trkpt>
      <trkpt lat="40.7633" lon="-1.9385800000000002">
        <time>2021-06-19T11:57:40+0000</time>
      </trkpt>
      <trkpt lat="40.76352000000001" lon="-1.93863">
        <time>2021-06-19T11:57:41+0000</time>
      </trkpt>
      <trkpt lat="40.763740000000006" lon="-1.9386700000000001">
        <time>2021-06-19T11:57:42+0000</time>
      </trkpt>
      <trkpt lat="40.763960000000004" lon="-1.93873">
        <time>2021-06-19T11:57:43+0000</time>
      </trkpt>
      <trkpt lat="40.76418" lon="-1.9387800000000002">
        <time>2021-06-19T11:57:44+0000</time>
      </trkpt>
      <trkpt lat="40.7644" lon="-1.9388600000000002">
        <time>2021-06-19T11:57:45+0000</time>
      </trkpt>
      <trkpt lat="40.764630000000004" lon="-1.9389500000000002">
        <time>2021-06-19T11:57:46+0000</time>
      </trkpt>
      <trkpt lat="40.76484000000001" lon="-1.93904">
        <time>2021-06-19T11:57:47+0000</time>
      </trkpt>
      <trkpt lat="40.765060000000005" lon="-1.93914">
        <time>2021-06-19T11:57:48+0000</time>
      </trkpt>
      <trkpt lat="40.765280000000004" lon="-1.93924">
        <time>2021-06-19T11:57:49+0000</time>
      </trkpt>
      <trkpt lat="40.76549000000001" lon="-1.93934">
        <time>2021-06-19T11:57:50+0000</time>
      </trkpt>
      <trkpt lat="40.765710000000006" lon="-1.9394300000000002">
        <time>2021-06-19T11:57:51+0000</time>
      </trkpt>
      <trkpt lat="40.765930000000004" lon="-1.9395300000000002">
        <time>2021-06-19T11:57:52+0000</time>
      </trkpt>
      <trkpt lat="40.766160000000006" lon="-1.9396200000000001">
        <time>2021-06-19T11:57:53+0000</time>
      </trkpt>
      <trkpt lat="40.76639" lon="-1.9397000000000002">
        <time>2021-06-19T11:57:54+0000</time>
      </trkpt>
      <trkpt lat="40.76662" lon="-1.9397700000000002">
        <time>2021-06-19T11:57:55+0000</time>
      </trkpt>
      <trkpt lat="40.766850000000005" lon="-1.9398400000000002">
        <time>2021-06-19T11:57:56+0000</time>
      </trkpt>
      <trkpt lat="40.76708" lon="-1.9399100000000002">
        <time>2021-06-19T11:57:57+0000</time>
      </trkpt>
      <trkpt lat="40.767320000000005" lon="-1.9399600000000001">
        <time>2021-06-19T11:57:58+0000</time>
      </trkpt>
      <trkpt lat="40.767570000000006" lon="-1.9400100000000002">
        <time>2021-06-19T11:57:59+0000</time>
      </trkpt>
      <trkpt lat="40.767830000000004" lon="-1.9400400000000002">
        <time>2021-06-19T11:58:00+0000</time>
      </trkpt>
      <trkpt lat="40.76809" lon="-1.9400700000000002">
        <time>2021-06-19T11:58:01+0000</time>
      </trkpt>
      <trkpt lat="40.768350000000005" lon="-1.94009">
        <time>2021-06-19T11:58:02+0000</time>
      </trkpt>
      <trkpt lat="40.76861" lon="-1.94009">
        <time>2021-06-19T11:58:03+0000</time>
      </trkpt>
      <trkpt lat="40.76887000000001" lon="-1.9401000000000002">
        <time>2021-06-19T11:58:04+0000</time>
      </trkpt>
      <trkpt lat="40.769130000000004" lon="-1.9401000000000002">
        <time>2021-06-19T11:58:05+0000</time>
      </trkpt>
      <trkpt lat="40.76939" lon="-1.94009">
        <time>2021-06-19T11:58:06+0000</time>
      </trkpt>
      <trkpt lat="40.769650000000006" lon="-1.94009">
        <time>2021-06-19T11:58:07+0000</time>
      </trkpt>
      <trkpt lat="40.7699" lon="-1.94009">
        <time>2021-06-19T11:58:08+0000</time>
      </trkpt>
      <trkpt lat="40.77015" lon="-1.94009">
        <time>2021-06-19T11:58:09+0000</time>
      </trkpt>
      <trkpt lat="40.7704" lon="-1.94009">
        <time>2021-06-19T11:58:10+0000</time>
      </trkpt>
      <trkpt lat="40.770630000000004" lon="-1.9401000000000002">
        <time>2021-06-19T11:58:11+0000</time>
      </trkpt>
      <trkpt lat="40.77085" lon="-1.94009">
        <time>2021-06-19T11:58:12+0000</time>
      </trkpt>
      <trkpt lat="40.77107" lon="-1.9400700000000002">
        <time>2021-06-19T11:58:13+0000</time>
      </trkpt>
      <trkpt lat="40.771280000000004" lon="-1.9400700000000002">
        <time>2021-06-19T11:58:14+0000</time>
      </trkpt>
      <trkpt lat="40.77149" lon="-1.9400600000000001">
        <time>2021-06-19T11:58:15+0000</time>
      </trkpt>
      <trkpt lat="40.77169000000001" lon="-1.9400700000000002">
        <time>2021-06-19T11:58:16+0000</time>
      </trkpt>
      <trkpt lat="40.771890000000006" lon="-1.9400700000000002">
        <time>2021-06-19T11:58:17+0000</time>
      </trkpt>
      <trkpt lat="40.77208" lon="-1.9400700000000002">
        <time>2021-06-19T11:58:18+0000</time>
      </trkpt>
      <trkpt lat="40.77228" lon="-1.9400700000000002">
        <time>2021-06-19T11:58:19+0000</time>
      </trkpt>
      <trkpt lat="40.772490000000005" lon="-1.9400800000000002">
        <time>2021-06-19T11:58:20+0000</time>
      </trkpt>
      <trkpt lat="40.772710000000004" lon="-1.9400800000000002">
        <time>2021-06-19T11:58:21+0000</time>
      </trkpt>
      <trkpt lat="40.772940000000006" lon="-1.9400800000000002">
        <time>2021-06-19T11:58:22+0000</time>
      </trkpt>
      <trkpt lat="40.77318" lon="-1.94009">
        <time>2021-06-19T11:58:23+0000</time>
      </trkpt>
      <trkpt lat="40.77342" lon="-1.9401000000000002">
        <time>2021-06-19T11:58:24+0000</time>
      </trkpt>
      <trkpt lat="40.77366000000001" lon="-1.9401300000000001">
        <time>2021-06-19T11:58:25+0000</time>
      </trkpt>
      <trkpt lat="40.773900000000005" lon="-1.9401700000000002">
        <time>2021-06-19T11:58:26+0000</time>
      </trkpt>
      <trkpt lat="40.77412" lon="-1.94022">
        <time>2021-06-19T11:58:27+0000</time>
      </trkpt>
      <trkpt lat="40.77434" lon="-1.9402800000000002">
        <time>2021-06-19T11:58:28+0000</time>
      </trkpt>
      <trkpt lat="40.774570000000004" lon="-1.9403200000000003">
        <time>2021-06-19T11:58:29+0000</time>
      </trkpt>
      <trkpt lat="40.77479" lon="-1.9403500000000002">
        <time>2021-06-19T11:58:30+0000</time>
      </trkpt>
      <trkpt lat="40.775020000000005" lon="-1.94036">
        <time>2021-06-19T11:58:31+0000</time>
      </trkpt>
      <trkpt lat="40.77525000000001" lon="-1.94036">
        <time>2021-06-19T11:58:32+0000</time>
      </trkpt>
      <trkpt lat="40.775490000000005" lon="-1.94033">
        <time>2021-06-19T11:58:33+0000</time>
      </trkpt>
      <trkpt lat="40.77573" lon="-1.9402800000000002">
        <time>2021-06-19T11:58:34+0000</time>
      </trkpt>
      <trkpt lat="40.775960000000005" lon="-1.94022">
        <time>2021-06-19T11:58:35+0000</time>
      </trkpt>
      <trkpt lat="40.7762" lon="-1.9401300000000001">
        <time>2021-06-19T11:58:36+0000</time>
      </trkpt>
      <trkpt lat="40.77644" lon="-1.9400600000000001">
        <time>2021-06-19T11:58:37+0000</time>
      </trkpt>
      <trkpt lat="40.77669" lon="-1.9400100000000002">
        <time>2021-06-19T11:58:38+0000</time>
      </trkpt>
      <trkpt lat="40.776920000000004" lon="-1.9399400000000002">
        <time>2021-06-19T11:58:39+0000</time>
      </trkpt>
      <trkpt lat="40.777150000000006" lon="-1.9398700000000002">
        <time>2021-06-19T11:58:40+0000</time>
      </trkpt>
      <trkpt lat="40.777370000000005" lon="-1.93978">
        <time>2021-06-19T11:58:41+0000</time>
      </trkpt>
      <trkpt lat="40.777590000000004" lon="-1.9397000000000002">
        <time>2021-06-19T11:58:42+0000</time>
      </trkpt>
      <trkpt lat="40.777800000000006" lon="-1.9396200000000001">
        <time>2021-06-19T11:58:43+0000</time>
      </trkpt>
      <trkpt lat="40.77801" lon="-1.93955">
        <time>2021-06-19T11:58:44+0000</time>
      </trkpt>
      <trkpt lat="40.778220000000005" lon="-1.9394500000000001">
        <time>2021-06-19T11:58:45+0000</time>
      </trkpt>
      <trkpt lat="40.778420000000004" lon="-1.93931">
        <time>2021-06-19T11:58:46+0000</time>
      </trkpt>
      <trkpt lat="40.77864" lon="-1.9391900000000002">
        <time>2021-06-19T11:58:47+0000</time>
      </trkpt>
      <trkpt lat="40.778850000000006" lon="-1.9390500000000002">
        <time>2021-06-19T11:58:48+0000</time>
      </trkpt>
      <trkpt lat="40.779070000000004" lon="-1.9389500000000002">
        <time>2021-06-19T11:58:49+0000</time>
      </trkpt>
      <trkpt lat="40.77928" lon="-1.9388200000000002">
        <time>2021-06-19T11:58:50+0000</time>
      </trkpt>
      <trkpt lat="40.77948000000001" lon="-1.9386900000000002">
        <time>2021-06-19T11:58:51+0000</time>
      </trkpt>
      <trkpt lat="40.77969" lon="-1.9385700000000001">
        <time>2021-06-19T11:58:52+0000</time>
      </trkpt>
      <trkpt lat="40.77989" lon="-1.93843">
        <time>2021-06-19T11:58:53+0000</time>
      </trkpt>
      <trkpt lat="40.78011" lon="-1.9383200000000003">
        <time>2021-06-19T11:58:54+0000</time>
      </trkpt>
      <trkpt lat="40.78032" lon="-1.9382000000000001">
        <time>2021-06-19T11:58:55+0000</time>
      </trkpt>
      <trkpt lat="40.780530000000006" lon="-1.9380800000000002">
        <time>2021-06-19T11:58:56+0000</time>
      </trkpt>
      <trkpt lat="40.78074" lon="-1.9379800000000003">
        <time>2021-06-19T11:58:57+0000</time>
      </trkpt>
      <trkpt lat="40.78097" lon="-1.9378900000000001">
        <time>2021-06-19T11:58:58+0000</time>
      </trkpt>
      <trkpt lat="40.781200000000005" lon="-1.9378100000000003">
        <time>2021-06-19T11:58:59+0000</time>
      </trkpt>
      <trkpt lat="40.78144" lon="-1.9377600000000001">
        <time>2021-06-19T11:59:00+0000</time>
      </trkpt>
      <trkpt lat="40.781670000000005" lon="-1.9377100000000003">
        <time>2021-06-19T11:59:01+0000</time>
      </trkpt>
      <trkpt lat="40.7819" lon="-1.9376600000000002">
        <time>2021-06-19T11:59:02+0000</time>
      </trkpt>
      <trkpt lat="40.78213" lon="-1.93761">
        <time>2021-06-19T11:59:03+0000</time>
      </trkpt>
      <trkpt lat="40.782340000000005" lon="-1.93755">
        <time>2021-06-19T11:59:04+0000</time>
      </trkpt>
      <trkpt lat="40.78255" lon="-1.9374700000000002">
        <time>2021-06-19T11:59:05+0000</time>
      </trkpt>
      <trkpt lat="40.78275" lon="-1.93738">
        <time>2021-06-19T11:59:06+0000</time>
      </trkpt>
      <trkpt lat="40.78295000000001" lon="-1.9372900000000002">
        <time>2021-06-19T11:59:07+0000</time>
      </trkpt>
      <trkpt lat="40.783150000000006" lon="-1.9372000000000003">
        <time>2021-06-19T11:59:08+0000</time>
      </trkpt>
      <trkpt lat="40.783350000000006" lon="-1.9371500000000001">
        <time>2021-06-19T11:59:09+0000</time>
      </trkpt>
      <trkpt lat="40.783550000000005" lon="-1.9371300000000002">
        <time>2021-06-19T11:59:10+0000</time>
      </trkpt>
      <trkpt lat="40.783750000000005" lon="-1.9371500000000001">
        <time>2021-06-19T11:59:11+0000</time>
      </trkpt>
      <trkpt lat="40.783950000000004" lon="-1.9372000000000003">
        <time>2021-06-19T11:59:12+0000</time>
      </trkpt>
      <trkpt lat="40.78412" lon="-1.9373000000000002">
        <time>2021-06-19T11:59:13+0000</time>
      </trkpt>
      <trkpt lat="40.7843" lon="-1.93744">
        <time>2021-06-19T11:59:14+0000</time>
      </trkpt>
      <trkpt lat="40.78448" lon="-1.9376000000000002">
        <time>2021-06-19T11:59:15+0000</time>
      </trkpt>
      <trkpt lat="40.784690000000005" lon="-1.9377300000000002">
        <time>2021-06-19T11:59:16+0000</time>
      </trkpt>
      <trkpt lat="40.784890000000004" lon="-1.9378300000000002">
        <time>2021-06-19T11:59:17+0000</time>
      </trkpt>
      <trkpt lat="40.7851" lon="-1.93792">
        <time>2021-06-19T11:59:18+0000</time>
      </trkpt>
      <trkpt lat="40.78530000000001" lon="-1.9380100000000002">
        <time>2021-06-19T11:59:19+0000</time>
      </trkpt>
      <trkpt lat="40.78549" lon="-1.93809">
        <time>2021-06-19T11:59:20+0000</time>
      </trkpt>
      <trkpt lat="40.78569" lon="-1.9381300000000001">
        <time>2021-06-19T11:59:21+0000</time>
      </trkpt>
      <trkpt lat="40.78589" lon="-1.93816">
        <time>2021-06-19T11:59:22+0000</time>
      </trkpt>
      <trkpt lat="40.786080000000005" lon="-1.9381800000000002">
        <time>2021-06-19T11:59:23+0000</time>
      </trkpt>
      <trkpt lat="40.786280000000005" lon="-1.9381800000000002">
        <time>2021-06-19T11:59:24+0000</time>
      </trkpt>
      <trkpt lat="40.78647" lon="-1.9382000000000001">
        <time>2021-06-19T11:59:25+0000</time>
      </trkpt>
      <trkpt lat="40.78665" lon="-1.9382700000000002">
        <time>2021-06-19T11:59:26+0000</time>
      </trkpt>
      <trkpt lat="40.786820000000006" lon="-1.9383700000000001">
        <time>2021-06-19T11:59:27+0000</time>
      </trkpt>
      <trkpt lat="40.78699" lon="-1.9384900000000003">
        <time>2021-06-19T11:59:28+0000</time>
      </trkpt>
      <trkpt lat="40.787150000000004" lon="-1.93863">
        <time>2021-06-19T11:59:29+0000</time>
      </trkpt>
      <trkpt lat="40.78732" lon="-1.9387600000000003">
        <time>2021-06-19T11:59:30+0000</time>
      </trkpt>
      <trkpt lat="40.787490000000005" lon="-1.9388400000000001">
        <time>2021-06-19T11:59:31+0000</time>
      </trkpt>
      <trkpt lat="40.787670000000006" lon="-1.9389">
        <time>2021-06-19T11:59:32+0000</time>
      </trkpt>
      <trkpt lat="40.787850000000006" lon="-1.9389300000000003">
        <time>2021-06-19T11:59:33+0000</time>
      </trkpt>
      <trkpt lat="40.78804" lon="-1.9389300000000003">
        <time>2021-06-19T11:59:34+0000</time>
      </trkpt>
      <trkpt lat="40.78822" lon="-1.93887">
        <time>2021-06-19T11:59:35+0000</time>
      </trkpt>
      <trkpt lat="40.788410000000006" lon="-1.93883">
        <time>2021-06-19T11:59:36+0000</time>
      </trkpt>
      <trkpt lat="40.78858" lon="-1.9387500000000002">
        <time>2021-06-19T11:59:37+0000</time>
      </trkpt>
      <trkpt lat="40.78875" lon="-1.9386700000000001">
        <time>2021-06-19T11:59:38+0000</time>
      </trkpt>
      <trkpt lat="40.788900000000005" lon="-1.9385900000000003">
        <time>2021-06-19T11:59:39+0000</time>
      </trkpt>
      <trkpt lat="40.789060000000006" lon="-1.9385200000000002">
        <time>2021-06-19T11:59:40+0000</time>
      </trkpt>
      <trkpt lat="40.789210000000004" lon="-1.9384700000000001">
        <time>2021-06-19T11:59:41+0000</time>
      </trkpt>
      <trkpt lat="40.78936" lon="-1.9384400000000002">
        <time>2021-06-19T11:59:42+0000</time>
      </trkpt>
      <trkpt lat="40.78951" lon="-1.93843">
        <time>2021-06-19T11:59:43+0000</time>
      </trkpt>
      <trkpt lat="40.78965" lon="-1.93843">
        <time>2021-06-19T11:59:44+0000</time>
      </trkpt>
      <trkpt lat="40.78978" lon="-1.9384200000000003">
        <time>2021-06-19T11:59:45+0000</time>
      </trkpt>
      <trkpt lat="40.78992" lon="-1.9384000000000001">
        <time>2021-06-19T11:59:46+0000</time>
      </trkpt>
      <trkpt lat="40.79005" lon="-1.93839">
        <time>2021-06-19T11:59:47+0000</time>
      </trkpt>
      <trkpt lat="40.79018000000001" lon="-1.9383800000000002">
        <time>2021-06-19T11:59:48+0000</time>
      </trkpt>
      <trkpt lat="40.790310000000005" lon="-1.9383700000000001">
        <time>2021-06-19T11:59:49+0000</time>
      </trkpt>
      <trkpt lat="40.79043" lon="-1.9383700000000001">
        <time>2021-06-19T11:59:50+0000</time>
      </trkpt>
      <trkpt lat="40.79055" lon="-1.93836">
        <time>2021-06-19T11:59:51+0000</time>
      </trkpt>
      <trkpt lat="40.790670000000006" lon="-1.9383500000000002">
        <time>2021-06-19T11:59:52+0000</time>
      </trkpt>
      <trkpt lat="40.790800000000004" lon="-1.93833">
        <time>2021-06-19T11:59:53+0000</time>
      </trkpt>
      <trkpt lat="40.790940000000006" lon="-1.9383100000000002">
        <time>2021-06-19T11:59:54+0000</time>
      </trkpt>
      <trkpt lat="40.79108" lon="-1.9382800000000002">
        <time>2021-06-19T11:59:55+0000</time>
      </trkpt>
      <trkpt lat="40.79122" lon="-1.93826">
        <time>2021-06-19T11:59:56+0000</time>
      </trkpt>
      <trkpt lat="40.79137" lon="-1.9382300000000001">
        <time>2021-06-19T11:59:57+0000</time>
      </trkpt>
      <trkpt lat="40.79151" lon="-1.9382100000000002">
        <time>2021-06-19T11:59:58+0000</time>
      </trkpt>
      <trkpt lat="40.79166" lon="-1.9381800000000002">
        <time>2021-06-19T11:59:59+0000</time>
      </trkpt>
      <trkpt lat="40.79182" lon="-1.93816">
        <time>2021-06-19T12:00:00+0000</time>
      </trkpt>
      <trkpt lat="40.79198" lon="-1.9381300000000001">
        <time>2021-06-19T12:00:01+0000</time>
      </trkpt>
      <trkpt lat="40.79214" lon="-1.9381100000000002">
        <time>2021-06-19T12:00:02+0000</time>
      </trkpt>
      <trkpt lat="40.792320000000004" lon="-1.9380800000000002">
        <time>2021-06-19T12:00:03+0000</time>
      </trkpt>
      <trkpt lat="40.79249" lon="-1.9380600000000001">
        <time>2021-06-19T12:00:04+0000</time>
      </trkpt>
      <trkpt lat="40.79267" lon="-1.93805">
        <time>2021-06-19T12:00:05+0000</time>
      </trkpt>
      <trkpt lat="40.792860000000005" lon="-1.9380400000000002">
        <time>2021-06-19T12:00:06+0000</time>
      </trkpt>
      <trkpt lat="40.79305" lon="-1.9380400000000002">
        <time>2021-06-19T12:00:07+0000</time>
      </trkpt>
      <trkpt lat="40.793240000000004" lon="-1.9380400000000002">
        <time>2021-06-19T12:00:08+0000</time>
      </trkpt>
      <trkpt lat="40.79343" lon="-1.9380300000000001">
        <time>2021-06-19T12:00:09+0000</time>
      </trkpt>
      <trkpt lat="40.793620000000004" lon="-1.9380300000000001">
        <time>2021-06-19T12:00:10+0000</time>
      </trkpt>
      <trkpt lat="40.793800000000005" lon="-1.93802">
        <time>2021-06-19T12:00:11+0000</time>
      </trkpt>
      <trkpt lat="40.79399" lon="-1.9380000000000002">
        <time>2021-06-19T12:00:12+0000</time>
      </trkpt>
      <trkpt lat="40.79417" lon="-1.9379600000000001">
        <time>2021-06-19T12:00:13+0000</time>
      </trkpt>
      <trkpt lat="40.79435" lon="-1.9379100000000002">
        <time>2021-06-19T12:00:14+0000</time>
      </trkpt>
      <trkpt lat="40.794520000000006" lon="-1.93785">
        <time>2021-06-19T12:00:15+0000</time>
      </trkpt>
      <trkpt lat="40.79469" lon="-1.9377600000000001">
        <time>2021-06-19T12:00:16+0000</time>
      </trkpt>
      <trkpt lat="40.79487" lon="-1.93765">
        <time>2021-06-19T12:00:17+0000</time>
      </trkpt>
      <trkpt lat="40.79505" lon="-1.93755">
        <time>2021-06-19T12:00:18+0000</time>
      </trkpt>
      <trkpt lat="40.79524000000001" lon="-1.9374300000000002">
        <time>2021-06-19T12:00:19+0000</time>
      </trkpt>
      <trkpt lat="40.795410000000004" lon="-1.93731">
        <time>2021-06-19T12:00:20+0000</time>
      </trkpt>
      <trkpt lat="40.795590000000004" lon="-1.9371800000000001">
        <time>2021-06-19T12:00:21+0000</time>
      </trkpt>
      <trkpt lat="40.79576" lon="-1.9370600000000002">
        <time>2021-06-19T12:00:22+0000</time>
      </trkpt>
      <trkpt lat="40.79594" lon="-1.93694">
        <time>2021-06-19T12:00:23+0000</time>
      </trkpt>
      <trkpt lat="40.7961" lon="-1.9368200000000002">
        <time>2021-06-19T12:00:24+0000</time>
      </trkpt>
      <trkpt lat="40.796260000000004" lon="-1.9366900000000002">
        <time>2021-06-19T12:00:25+0000</time>
      </trkpt>
      <trkpt lat="40.79643" lon="-1.93656">
        <time>2021-06-19T12:00:26+0000</time>
      </trkpt>
      <trkpt lat="40.796600000000005" lon="-1.93643">
        <time>2021-06-19T12:00:27+0000</time>
      </trkpt>
      <trkpt lat="40.79677" lon="-1.9363000000000001">
        <time>2021-06-19T12:00:28+0000</time>
      </trkpt>
      <trkpt lat="40.79693" lon="-1.93616">
        <time>2021-06-19T12:00:29+0000</time>
      </trkpt>
      <trkpt lat="40.797090000000004" lon="-1.9360400000000002">
        <time>2021-06-19T12:00:30+0000</time>
      </trkpt>
      <trkpt lat="40.797250000000005" lon="-1.9359000000000002">
        <time>2021-06-19T12:00:31+0000</time>
      </trkpt>
      <trkpt lat="40.79742" lon="-1.9357700000000002">
        <time>2021-06-19T12:00:32+0000</time>
      </trkpt>
      <trkpt lat="40.79757" lon="-1.9356400000000002">
        <time>2021-06-19T12:00:33+0000</time>
      </trkpt>
      <trkpt lat="40.79773" lon="-1.9355200000000001">
        <time>2021-06-19T12:00:34+0000</time>
      </trkpt>
      <trkpt lat="40.797880000000006" lon="-1.9353900000000002">
        <time>2021-06-19T12:00:35+0000</time>
      </trkpt>
      <trkpt lat="40.79804" lon="-1.9352700000000003">
        <time>2021-06-19T12:00:36+0000</time>
      </trkpt>
      <trkpt lat="40.798190000000005" lon="-1.9351200000000002">
        <time>2021-06-19T12:00:37+0000</time>
      </trkpt>
      <trkpt lat="40.79834" lon="-1.935">
        <time>2021-06-19T12:00:38+0000</time>
      </trkpt>
      <trkpt lat="40.798480000000005" lon="-1.9348800000000002">
        <time>2021-06-19T12:00:39+0000</time>
      </trkpt>
      <trkpt lat="40.79862000000001" lon="-1.9347600000000003">
        <time>2021-06-19T12:00:40+0000</time>
      </trkpt>
      <trkpt lat="40.798750000000005" lon="-1.9346600000000003">
        <time>2021-06-19T12:00:41+0000</time>
      </trkpt>
      <trkpt lat="40.798880000000004" lon="-1.9345500000000002">
        <time>2021-06-19T12:00:42+0000</time>
      </trkpt>
      <trkpt lat="40.79900000000001" lon="-1.93446">
        <time>2021-06-19T12:00:43+0000</time>
      </trkpt>
      <trkpt lat="40.799110000000006" lon="-1.93436">
        <time>2021-06-19T12:00:44+0000</time>
      </trkpt>
      <trkpt lat="40.799220000000005" lon="-1.9342700000000002">
        <time>2021-06-19T12:00:45+0000</time>
      </trkpt>
      <trkpt lat="40.799330000000005" lon="-1.93419">
        <time>2021-06-19T12:00:46+0000</time>
      </trkpt>
      <trkpt lat="40.799420000000005" lon="-1.9341000000000002">
        <time>2021-06-19T12:00:47+0000</time>
      </trkpt>
      <trkpt lat="40.799510000000005" lon="-1.9340100000000002">
        <time>2021-06-19T12:00:48+0000</time>
      </trkpt>
      <trkpt lat="40.79961" lon="-1.93392">
        <time>2021-06-19T12:00:49+0000</time>
      </trkpt>
      <trkpt lat="40.79972" lon="-1.9338300000000002">
        <time>2021-06-19T12:00:50+0000</time>
      </trkpt>
      <trkpt lat="40.79983" lon="-1.9337400000000002">
        <time>2021-06-19T12:00:51+0000</time>
      </trkpt>
      <trkpt lat="40.79995" lon="-1.9336300000000002">
        <time>2021-06-19T12:00:52+0000</time>
      </trkpt>
      <trkpt lat="40.800070000000005" lon="-1.9335300000000002">
        <time>2021-06-19T12:00:53+0000</time>
      </trkpt>
      <trkpt lat="40.800200000000004" lon="-1.9334200000000001">
        <time>2021-06-19T12:00:54+0000</time>
      </trkpt>
      <trkpt lat="40.80033" lon="-1.9333000000000002">
        <time>2021-06-19T12:00:55+0000</time>
      </trkpt>
      <trkpt lat="40.800450000000005" lon="-1.9331500000000001">
        <time>2021-06-19T12:00:56+0000</time>
      </trkpt>
      <trkpt lat="40.80057" lon="-1.9330100000000001">
        <time>2021-06-19T12:00:57+0000</time>
      </trkpt>
      <trkpt lat="40.80068" lon="-1.9328800000000002">
        <time>2021-06-19T12:00:58+0000</time>
      </trkpt>
      <trkpt lat="40.800790000000006" lon="-1.9327400000000001">
        <time>2021-06-19T12:00:59+0000</time>
      </trkpt>
      <trkpt lat="40.800900000000006" lon="-1.9326100000000002">
        <time>2021-06-19T12:01:00+0000</time>
      </trkpt>
      <trkpt lat="40.801010000000005" lon="-1.9324900000000003">
        <time>2021-06-19T12:01:01+0000</time>
      </trkpt>
      <trkpt lat="40.80111" lon="-1.9323700000000001">
        <time>2021-06-19T12:01:02+0000</time>
      </trkpt>
      <trkpt lat="40.80122" lon="-1.93226">
        <time>2021-06-19T12:01:03+0000</time>
      </trkpt>
      <trkpt lat="40.80134" lon="-1.93216">
        <time>2021-06-19T12:01:04+0000</time>
      </trkpt>
      <trkpt lat="40.80147" lon="-1.9320700000000002">
        <time>2021-06-19T12:01:05+0000</time>
      </trkpt>
      <trkpt lat="40.80163" lon="-1.93199">
        <time>2021-06-19T12:01:06+0000</time>
      </trkpt>
      <trkpt lat="40.80178" lon="-1.9319000000000002">
        <time>2021-06-19T12:01:07+0000</time>
      </trkpt>
      <trkpt lat="40.80194" lon="-1.93182">
        <time>2021-06-19T12:01:08+0000</time>
      </trkpt>
      <trkpt lat="40.8021" lon="-1.9317400000000002">
        <time>2021-06-19T12:01:09+0000</time>
      </trkpt>
      <trkpt lat="40.802260000000004" lon="-1.9316700000000002">
        <time>2021-06-19T12:01:10+0000</time>
      </trkpt>
      <trkpt lat="40.802400000000006" lon="-1.93161">
        <time>2021-06-19T12:01:11+0000</time>
      </trkpt>
      <trkpt lat="40.80254" lon="-1.9315600000000002">
        <time>2021-06-19T12:01:12+0000</time>
      </trkpt>
      <trkpt lat="40.80268" lon="-1.9315200000000001">
        <time>2021-06-19T12:01:13+0000</time>
      </trkpt>
      <trkpt lat="40.80281" lon="-1.9314900000000002">
        <time>2021-06-19T12:01:14+0000</time>
      </trkpt>
      <trkpt lat="40.80294000000001" lon="-1.9314600000000002">
        <time>2021-06-19T12:01:15+0000</time>
      </trkpt>
      <trkpt lat="40.80306" lon="-1.93141">
        <time>2021-06-19T12:01:16+0000</time>
      </trkpt>
      <trkpt lat="40.803160000000005" lon="-1.93138">
        <time>2021-06-19T12:01:17+0000</time>
      </trkpt>
      <trkpt lat="40.803250000000006" lon="-1.9313500000000001">
        <time>2021-06-19T12:01:18+0000</time>
      </trkpt>
      <trkpt lat="40.80333" lon="-1.9313300000000002">
        <time>2021-06-19T12:01:19+0000</time>
      </trkpt>
      <trkpt lat="40.80339" lon="-1.93131">
        <time>2021-06-19T12:01:20+0000</time>
      </trkpt>
      <trkpt lat="40.80344" lon="-1.9312900000000002">
        <time>2021-06-19T12:01:21+0000</time>
      </trkpt>
      <trkpt lat="40.803490000000004" lon="-1.9312700000000003">
        <time>2021-06-19T12:01:22+0000</time>
      </trkpt>
      <trkpt lat="40.803540000000005" lon="-1.9312500000000001">
        <time>2021-06-19T12:01:23+0000</time>
      </trkpt>
      <trkpt lat="40.80359" lon="-1.9312300000000002">
        <time>2021-06-19T12:01:24+0000</time>
      </trkpt>
      <trkpt lat="40.80364" lon="-1.93121">
        <time>2021-06-19T12:01:25+0000</time>
      </trkpt>
      <trkpt lat="40.80369" lon="-1.9311800000000001">
        <time>2021-06-19T12:01:26+0000</time>
      </trkpt>
      <trkpt lat="40.80375" lon="-1.93114">
        <time>2021-06-19T12:01:27+0000</time>
      </trkpt>
      <trkpt lat="40.803810000000006" lon="-1.9311000000000003">
        <time>2021-06-19T12:01:28+0000</time>
      </trkpt>
      <trkpt lat="40.80386" lon="-1.93104">
        <time>2021-06-19T12:01:29+0000</time>
      </trkpt>
      <trkpt lat="40.803920000000005" lon="-1.9309900000000002">
        <time>2021-06-19T12:01:30+0000</time>
      </trkpt>
      <trkpt lat="40.80397000000001" lon="-1.93094">
        <time>2021-06-19T12:01:31+0000</time>
      </trkpt>
      <trkpt lat="40.804010000000005" lon="-1.9309">
        <time>2021-06-19T12:01:32+0000</time>
      </trkpt>
      <trkpt lat="40.804050000000004" lon="-1.9308600000000002">
        <time>2021-06-19T12:01:33+0000</time>
      </trkpt>
      <trkpt lat="40.804080000000006" lon="-1.9308200000000002">
        <time>2021-06-19T12:01:34+0000</time>
      </trkpt>
      <trkpt lat="40.804120000000005" lon="-1.9307900000000002">
        <time>2021-06-19T12:01:35+0000</time>
      </trkpt>
      <trkpt lat="40.80415" lon="-1.9307600000000003">
        <time>2021-06-19T12:01:36+0000</time>
      </trkpt>
      <trkpt lat="40.80418" lon="-1.93073">
        <time>2021-06-19T12:01:37+0000</time>
      </trkpt>
      <trkpt lat="40.804210000000005" lon="-1.9306900000000002">
        <time>2021-06-19T12:01:38+0000</time>
      </trkpt>
      <trkpt lat="40.804230000000004" lon="-1.9306600000000003">
        <time>2021-06-19T12:01:39+0000</time>
      </trkpt>
      <trkpt lat="40.804260000000006" lon="-1.93063">
        <time>2021-06-19T12:01:40+0000</time>
      </trkpt>
      <trkpt lat="40.80429" lon="-1.9306">
        <time>2021-06-19T12:01:41+0000</time>
      </trkpt>
      <trkpt lat="40.804320000000004" lon="-1.9305700000000001">
        <time>2021-06-19T12:01:42+0000</time>
      </trkpt>
      <trkpt lat="40.80435000000001" lon="-1.9305400000000001">
        <time>2021-06-19T12:01:43+0000</time>
      </trkpt>
      <trkpt lat="40.804390000000005" lon="-1.9305">
        <time>2021-06-19T12:01:44+0000</time>
      </trkpt>
      <trkpt lat="40.80442" lon="-1.9304700000000001">
        <time>2021-06-19T12:01:45+0000</time>
      </trkpt>
      <trkpt lat="40.80445" lon="-1.93043">
        <time>2021-06-19T12:01:46+0000</time>
      </trkpt>
      <trkpt lat="40.804480000000005" lon="-1.93039">
        <time>2021-06-19T12:01:47+0000</time>
      </trkpt>
      <trkpt lat="40.80451" lon="-1.93036">
        <time>2021-06-19T12:01:48+0000</time>
      </trkpt>
      <trkpt lat="40.80454" lon="-1.9303200000000003">
        <time>2021-06-19T12:01:49+0000</time>
      </trkpt>
      <trkpt lat="40.80458" lon="-1.9302800000000002">
        <time>2021-06-19T12:01:50+0000</time>
      </trkpt>
      <trkpt lat="40.80462" lon="-1.9302400000000002">
        <time>2021-06-19T12:01:51+0000</time>
      </trkpt>
      <trkpt lat="40.804660000000005" lon="-1.9302000000000001">
        <time>2021-06-19T12:01:52+0000</time>
      </trkpt>
      <trkpt lat="40.80469" lon="-1.93016">
        <time>2021-06-19T12:01:53+0000</time>
      </trkpt>
      <trkpt lat="40.804730000000006" lon="-1.9301300000000001">
        <time>2021-06-19T12:01:54+0000</time>
      </trkpt>
      <trkpt lat="40.80476" lon="-1.9301100000000002">
        <time>2021-06-19T12:01:55+0000</time>
      </trkpt>
      <trkpt lat="40.8048" lon="-1.9301000000000001">
        <time>2021-06-19T12:01:56+0000</time>
      </trkpt>
      <trkpt lat="40.80481" lon="-1.9301000000000001">
        <time>2021-06-19T12:01:57+0000</time>
      </trkpt>
      <trkpt lat="40.804880000000004" lon="-1.9302200000000003">
        <time>2021-06-19T12:01:58+0000</time>
      </trkpt>
      <trkpt lat="40.80487" lon="-1.9303000000000001">
        <time>2021-06-19T12:01:59+0000</time>
      </trkpt>
      <trkpt lat="40.80485" lon="-1.9304000000000001">
        <time>2021-06-19T12:02:00+0000</time>
      </trkpt>
      <trkpt lat="40.80483" lon="-1.9305100000000002">
        <time>2021-06-19T12:02:01+0000</time>
      </trkpt>
      <trkpt lat="40.80482000000001" lon="-1.9306400000000001">
        <time>2021-06-19T12:02:02+0000</time>
      </trkpt>
      <trkpt lat="40.8048" lon="-1.9307600000000003">
        <time>2021-06-19T12:02:03+0000</time>
      </trkpt>
      <trkpt lat="40.804790000000004" lon="-1.93087">
        <time>2021-06-19T12:02:04+0000</time>
      </trkpt>
      <trkpt lat="40.804790000000004" lon="-1.9309500000000002">
        <time>2021-06-19T12:02:05+0000</time>
      </trkpt>
      <trkpt lat="40.80478" lon="-1.9310200000000002">
        <time>2021-06-19T12:02:06+0000</time>
      </trkpt>
      <trkpt lat="40.804770000000005" lon="-1.9310800000000001">
        <time>2021-06-19T12:02:07+0000</time>
      </trkpt>
      <trkpt lat="40.80476" lon="-1.9311500000000001">
        <time>2021-06-19T12:02:08+0000</time>
      </trkpt>
      <trkpt lat="40.804750000000006" lon="-1.9312200000000002">
        <time>2021-06-19T12:02:09+0000</time>
      </trkpt>
      <trkpt lat="40.80474" lon="-1.9312900000000002">
        <time>2021-06-19T12:02:10+0000</time>
      </trkpt>
      <trkpt lat="40.804730000000006" lon="-1.9313700000000003">
        <time>2021-06-19T12:02:11+0000</time>
      </trkpt>
      <trkpt lat="40.80471" lon="-1.9314500000000001">
        <time>2021-06-19T12:02:12+0000</time>
      </trkpt>
      <trkpt lat="40.804700000000004" lon="-1.9315400000000003">
        <time>2021-06-19T12:02:13+0000</time>
      </trkpt>
      <trkpt lat="40.80469" lon="-1.9316400000000002">
        <time>2021-06-19T12:02:14+0000</time>
      </trkpt>
      <trkpt lat="40.80467" lon="-1.9317400000000002">
        <time>2021-06-19T12:02:15+0000</time>
      </trkpt>
      <trkpt lat="40.804660000000005" lon="-1.93185">
        <time>2021-06-19T12:02:16+0000</time>
      </trkpt>
      <trkpt lat="40.804640000000006" lon="-1.9319700000000002">
        <time>2021-06-19T12:02:17+0000</time>
      </trkpt>
      <trkpt lat="40.80463" lon="-1.93209">
        <time>2021-06-19T12:02:18+0000</time>
      </trkpt>
      <trkpt lat="40.80462" lon="-1.9322000000000001">
        <time>2021-06-19T12:02:19+0000</time>
      </trkpt>
      <trkpt lat="40.804610000000004" lon="-1.9323200000000003">
        <time>2021-06-19T12:02:20+0000</time>
      </trkpt>
      <trkpt lat="40.8046" lon="-1.93243">
        <time>2021-06-19T12:02:21+0000</time>
      </trkpt>
      <trkpt lat="40.804590000000005" lon="-1.9325400000000001">
        <time>2021-06-19T12:02:22+0000</time>
      </trkpt>
      <trkpt lat="40.804590000000005" lon="-1.9326500000000002">
        <time>2021-06-19T12:02:23+0000</time>
      </trkpt>
      <trkpt lat="40.80458" lon="-1.9327400000000001">
        <time>2021-06-19T12:02:24+0000</time>
      </trkpt>
      <trkpt lat="40.804570000000005" lon="-1.9328400000000001">
        <time>2021-06-19T12:02:25+0000</time>
      </trkpt>
      <trkpt lat="40.804570000000005" lon="-1.9329300000000003">
        <time>2021-06-19T12:02:26+0000</time>
      </trkpt>
      <trkpt lat="40.80456" lon="-1.9330200000000002">
        <time>2021-06-19T12:02:27+0000</time>
      </trkpt>
      <trkpt lat="40.80456" lon="-1.93311">
        <time>2021-06-19T12:02:28+0000</time>
      </trkpt>
      <trkpt lat="40.804550000000006" lon="-1.9332200000000002">
        <time>2021-06-19T12:02:29+0000</time>
      </trkpt>
      <trkpt lat="40.80454" lon="-1.9333300000000002">
        <time>2021-06-19T12:02:30+0000</time>
      </trkpt>
      <trkpt lat="40.804520000000004" lon="-1.9334500000000001">
        <time>2021-06-19T12:02:31+0000</time>
      </trkpt>
      <trkpt lat="40.804480000000005" lon="-1.9335700000000002">
        <time>2021-06-19T12:02:32+0000</time>
      </trkpt>
      <trkpt lat="40.80444000000001" lon="-1.9337000000000002">
        <time>2021-06-19T12:02:33+0000</time>
      </trkpt>
      <trkpt lat="40.8044" lon="-1.9338300000000002">
        <time>2021-06-19T12:02:34+0000</time>
      </trkpt>
      <trkpt lat="40.80435000000001" lon="-1.9339700000000002">
        <time>2021-06-19T12:02:35+0000</time>
      </trkpt>
      <trkpt lat="40.804300000000005" lon="-1.9341100000000002">
        <time>2021-06-19T12:02:36+0000</time>
      </trkpt>
      <trkpt lat="40.80425" lon="-1.9342500000000002">
        <time>2021-06-19T12:02:37+0000</time>
      </trkpt>
      <trkpt lat="40.804190000000006" lon="-1.9344000000000001">
        <time>2021-06-19T12:02:38+0000</time>
      </trkpt>
      <trkpt lat="40.804140000000004" lon="-1.9345500000000002">
        <time>2021-06-19T12:02:39+0000</time>
      </trkpt>
      <trkpt lat="40.80407" lon="-1.9347100000000002">
        <time>2021-06-19T12:02:40+0000</time>
      </trkpt>
      <trkpt lat="40.804010000000005" lon="-1.9348800000000002">
        <time>2021-06-19T12:02:41+0000</time>
      </trkpt>
      <trkpt lat="40.803940000000004" lon="-1.93507">
        <time>2021-06-19T12:02:42+0000</time>
      </trkpt>
      <trkpt lat="40.803900000000006" lon="-1.9353000000000002">
        <time>2021-06-19T12:02:43+0000</time>
      </trkpt>
      <trkpt lat="40.80388000000001" lon="-1.9355600000000002">
        <time>2021-06-19T12:02:44+0000</time>
      </trkpt>
      <trkpt lat="40.80387" lon="-1.9358300000000002">
        <time>2021-06-19T12:02:45+0000</time>
      </trkpt>
      <trkpt lat="40.80387" lon="-1.93609">
        <time>2021-06-19T12:02:46+0000</time>
      </trkpt>
      <trkpt lat="40.80386" lon="-1.9363400000000002">
        <time>2021-06-19T12:02:47+0000</time>
      </trkpt>
      <trkpt lat="40.80387" lon="-1.9365700000000001">
        <time>2021-06-19T12:02:48+0000</time>
      </trkpt>
      <trkpt lat="40.80388000000001" lon="-1.9367900000000002">
        <time>2021-06-19T12:02:49+0000</time>
      </trkpt>
      <trkpt lat="40.80388000000001" lon="-1.9369900000000002">
        <time>2021-06-19T12:02:50+0000</time>
      </trkpt>
      <trkpt lat="40.80386" lon="-1.93717">
        <time>2021-06-19T12:02:51+0000</time>
      </trkpt>
      <trkpt lat="40.80382" lon="-1.93731">
        <time>2021-06-19T12:02:52+0000</time>
      </trkpt>
      <trkpt lat="40.803760000000004" lon="-1.93744">
        <time>2021-06-19T12:02:53+0000</time>
      </trkpt>
      <trkpt lat="40.80368" lon="-1.93758">
        <time>2021-06-19T12:02:54+0000</time>
      </trkpt>
      <trkpt lat="40.8036" lon="-1.93772">
        <time>2021-06-19T12:02:55+0000</time>
      </trkpt>
      <trkpt lat="40.803520000000006" lon="-1.9378600000000001">
        <time>2021-06-19T12:02:56+0000</time>
      </trkpt>
      <trkpt lat="40.803450000000005" lon="-1.93802">
        <time>2021-06-19T12:02:57+0000</time>
      </trkpt>
      <trkpt lat="40.80339" lon="-1.93819">
        <time>2021-06-19T12:02:58+0000</time>
      </trkpt>
      <trkpt lat="40.8034" lon="-1.9383800000000002">
        <time>2021-06-19T12:02:59+0000</time>
      </trkpt>
      <trkpt lat="40.803430000000006" lon="-1.9385800000000002">
        <time>2021-06-19T12:03:00+0000</time>
      </trkpt>
      <trkpt lat="40.80348" lon="-1.9388">
        <time>2021-06-19T12:03:01+0000</time>
      </trkpt>
      <trkpt lat="40.80351" lon="-1.939">
        <time>2021-06-19T12:03:02+0000</time>
      </trkpt>
      <trkpt lat="40.803520000000006" lon="-1.9391900000000002">
        <time>2021-06-19T12:03:03+0000</time>
      </trkpt>
      <trkpt lat="40.803520000000006" lon="-1.93938">
        <time>2021-06-19T12:03:04+0000</time>
      </trkpt>
      <trkpt lat="40.80353" lon="-1.9396000000000002">
        <time>2021-06-19T12:03:05+0000</time>
      </trkpt>
      <trkpt lat="40.803540000000005" lon="-1.93982">
        <time>2021-06-19T12:03:06+0000</time>
      </trkpt>
      <trkpt lat="40.80357" lon="-1.94005">
        <time>2021-06-19T12:03:07+0000</time>
      </trkpt>
      <trkpt lat="40.80362" lon="-1.94029">
        <time>2021-06-19T12:03:08+0000</time>
      </trkpt>
      <trkpt lat="40.803700000000006" lon="-1.9405100000000002">
        <time>2021-06-19T12:03:09+0000</time>
      </trkpt>
      <trkpt lat="40.803790000000006" lon="-1.9407200000000002">
        <time>2021-06-19T12:03:10+0000</time>
      </trkpt>
      <trkpt lat="40.80388000000001" lon="-1.94094">
        <time>2021-06-19T12:03:11+0000</time>
      </trkpt>
      <trkpt lat="40.80393" lon="-1.94114">
        <time>2021-06-19T12:03:12+0000</time>
      </trkpt>
      <trkpt lat="40.80395" lon="-1.9413500000000001">
        <time>2021-06-19T12:03:13+0000</time>
      </trkpt>
      <trkpt lat="40.80395" lon="-1.94155">
        <time>2021-06-19T12:03:14+0000</time>
      </trkpt>
      <trkpt lat="40.803940000000004" lon="-1.9417400000000002">
        <time>2021-06-19T12:03:15+0000</time>
      </trkpt>
      <trkpt lat="40.80393" lon="-1.9419000000000002">
        <time>2021-06-19T12:03:16+0000</time>
      </trkpt>
      <trkpt lat="40.803920000000005" lon="-1.9420600000000001">
        <time>2021-06-19T12:03:17+0000</time>
      </trkpt>
      <trkpt lat="40.803920000000005" lon="-1.9422000000000001">
        <time>2021-06-19T12:03:18+0000</time>
      </trkpt>
      <trkpt lat="40.803920000000005" lon="-1.9423400000000002">
        <time>2021-06-19T12:03:19+0000</time>
      </trkpt>
      <trkpt lat="40.80391" lon="-1.9424700000000001">
        <time>2021-06-19T12:03:20+0000</time>
      </trkpt>
      <trkpt lat="40.80391" lon="-1.9425900000000003">
        <time>2021-06-19T12:03:21+0000</time>
      </trkpt>
      <trkpt lat="40.80389" lon="-1.9427">
        <time>2021-06-19T12:03:22+0000</time>
      </trkpt>
      <trkpt lat="40.80387" lon="-1.9427900000000002">
        <time>2021-06-19T12:03:23+0000</time>
      </trkpt>
      <trkpt lat="40.803850000000004" lon="-1.94287">
        <time>2021-06-19T12:03:24+0000</time>
      </trkpt>
      <trkpt lat="40.803830000000005" lon="-1.9429500000000002">
        <time>2021-06-19T12:03:25+0000</time>
      </trkpt>
      <trkpt lat="40.803810000000006" lon="-1.9430300000000003">
        <time>2021-06-19T12:03:26+0000</time>
      </trkpt>
      <trkpt lat="40.8038" lon="-1.9431">
        <time>2021-06-19T12:03:27+0000</time>
      </trkpt>
      <trkpt lat="40.80378" lon="-1.9431600000000002">
        <time>2021-06-19T12:03:28+0000</time>
      </trkpt>
      <trkpt lat="40.80377" lon="-1.9432300000000002">
        <time>2021-06-19T12:03:29+0000</time>
      </trkpt>
      <trkpt lat="40.80375" lon="-1.9432900000000002">
        <time>2021-06-19T12:03:30+0000</time>
      </trkpt>
      <trkpt lat="40.803720000000006" lon="-1.9433500000000001">
        <time>2021-06-19T12:03:31+0000</time>
      </trkpt>
      <trkpt lat="40.80369" lon="-1.94341">
        <time>2021-06-19T12:03:32+0000</time>
      </trkpt>
      <trkpt lat="40.80366" lon="-1.94348">
        <time>2021-06-19T12:03:33+0000</time>
      </trkpt>
      <trkpt lat="40.80364" lon="-1.9435400000000003">
        <time>2021-06-19T12:03:34+0000</time>
      </trkpt>
      <trkpt lat="40.8036" lon="-1.9436200000000001">
        <time>2021-06-19T12:03:35+0000</time>
      </trkpt>
      <trkpt lat="40.80357" lon="-1.9436900000000001">
        <time>2021-06-19T12:03:36+0000</time>
      </trkpt>
      <trkpt lat="40.803540000000005" lon="-1.9437700000000002">
        <time>2021-06-19T12:03:37+0000</time>
      </trkpt>
      <trkpt lat="40.80351" lon="-1.9438600000000001">
        <time>2021-06-19T12:03:38+0000</time>
      </trkpt>
      <trkpt lat="40.803520000000006" lon="-1.94395">
        <time>2021-06-19T12:03:39+0000</time>
      </trkpt>
      <trkpt lat="40.80355" lon="-1.94405">
        <time>2021-06-19T12:03:40+0000</time>
      </trkpt>
      <trkpt lat="40.80362" lon="-1.9441400000000002">
        <time>2021-06-19T12:03:41+0000</time>
      </trkpt>
      <trkpt lat="40.803700000000006" lon="-1.9442500000000003">
        <time>2021-06-19T12:03:42+0000</time>
      </trkpt>
      <trkpt lat="40.803790000000006" lon="-1.94436">
        <time>2021-06-19T12:03:43+0000</time>
      </trkpt>
      <trkpt lat="40.80388000000001" lon="-1.94446">
        <time>2021-06-19T12:03:44+0000</time>
      </trkpt>
      <trkpt lat="40.80398" lon="-1.9445500000000002">
        <time>2021-06-19T12:03:45+0000</time>
      </trkpt>
      <trkpt lat="40.80407" lon="-1.9446500000000002">
        <time>2021-06-19T12:03:46+0000</time>
      </trkpt>
      <trkpt lat="40.804170000000006" lon="-1.9447400000000001">
        <time>2021-06-19T12:03:47+0000</time>
      </trkpt>
      <trkpt lat="40.80427" lon="-1.94483">
        <time>2021-06-19T12:03:48+0000</time>
      </trkpt>
      <trkpt lat="40.80435000000001" lon="-1.9449100000000001">
        <time>2021-06-19T12:03:49+0000</time>
      </trkpt>
      <trkpt lat="40.80444000000001" lon="-1.9449800000000002">
        <time>2021-06-19T12:03:50+0000</time>
      </trkpt>
      <trkpt lat="40.804520000000004" lon="-1.94504">
        <time>2021-06-19T12:03:51+0000</time>
      </trkpt>
      <trkpt lat="40.8046" lon="-1.9451">
        <time>2021-06-19T12:03:52+0000</time>
      </trkpt>
      <trkpt lat="40.80469" lon="-1.9451600000000002">
        <time>2021-06-19T12:03:53+0000</time>
      </trkpt>
      <trkpt lat="40.80478" lon="-1.9452300000000002">
        <time>2021-06-19T12:03:54+0000</time>
      </trkpt>
      <trkpt lat="40.804860000000005" lon="-1.9453200000000002">
        <time>2021-06-19T12:03:55+0000</time>
      </trkpt>
      <trkpt lat="40.804950000000005" lon="-1.9454000000000002">
        <time>2021-06-19T12:03:56+0000</time>
      </trkpt>
      <trkpt lat="40.80505" lon="-1.9455000000000002">
        <time>2021-06-19T12:03:57+0000</time>
      </trkpt>
      <trkpt lat="40.80514" lon="-1.94558">
        <time>2021-06-19T12:03:58+0000</time>
      </trkpt>
      <trkpt lat="40.80525" lon="-1.94565">
        <time>2021-06-19T12:03:59+0000</time>
      </trkpt>
      <trkpt lat="40.80536" lon="-1.9457200000000001">
        <time>2021-06-19T12:04:00+0000</time>
      </trkpt>
      <trkpt lat="40.80548" lon="-1.94578">
        <time>2021-06-19T12:04:01+0000</time>
      </trkpt>
      <trkpt lat="40.805620000000005" lon="-1.9458600000000001">
        <time>2021-06-19T12:04:02+0000</time>
      </trkpt>
      <trkpt lat="40.80575" lon="-1.9459400000000002">
        <time>2021-06-19T12:04:03+0000</time>
      </trkpt>
      <trkpt lat="40.80588" lon="-1.94602">
        <time>2021-06-19T12:04:04+0000</time>
      </trkpt>
      <trkpt lat="40.80601" lon="-1.9461000000000002">
        <time>2021-06-19T12:04:05+0000</time>
      </trkpt>
      <trkpt lat="40.806140000000006" lon="-1.94619">
        <time>2021-06-19T12:04:06+0000</time>
      </trkpt>
      <trkpt lat="40.80628" lon="-1.9462700000000002">
        <time>2021-06-19T12:04:07+0000</time>
      </trkpt>
      <trkpt lat="40.80642" lon="-1.9463700000000002">
        <time>2021-06-19T12:04:08+0000</time>
      </trkpt>
      <trkpt lat="40.806560000000005" lon="-1.94646">
        <time>2021-06-19T12:04:09+0000</time>
      </trkpt>
      <trkpt lat="40.806700000000006" lon="-1.9465500000000002">
        <time>2021-06-19T12:04:10+0000</time>
      </trkpt>
      <trkpt lat="40.80684" lon="-1.9466200000000002">
        <time>2021-06-19T12:04:11+0000</time>
      </trkpt>
      <trkpt lat="40.80698" lon="-1.9466100000000002">
        <time>2021-06-19T12:04:12+0000</time>
      </trkpt>
      <trkpt lat="40.80713" lon="-1.9465800000000002">
        <time>2021-06-19T12:04:13+0000</time>
      </trkpt>
      <trkpt lat="40.807300000000005" lon="-1.9465500000000002">
        <time>2021-06-19T12:04:14+0000</time>
      </trkpt>
      <trkpt lat="40.807480000000005" lon="-1.9465100000000002">
        <time>2021-06-19T12:04:15+0000</time>
      </trkpt>
      <trkpt lat="40.807680000000005" lon="-1.94649">
        <time>2021-06-19T12:04:16+0000</time>
      </trkpt>
      <trkpt lat="40.807880000000004" lon="-1.9465100000000002">
        <time>2021-06-19T12:04:17+0000</time>
      </trkpt>
      <trkpt lat="40.80809" lon="-1.9465700000000001">
        <time>2021-06-19T12:04:18+0000</time>
      </trkpt>
      <trkpt lat="40.80828" lon="-1.94663">
        <time>2021-06-19T12:04:19+0000</time>
      </trkpt>
      <trkpt lat="40.80847" lon="-1.9466900000000003">
        <time>2021-06-19T12:04:20+0000</time>
      </trkpt>
      <trkpt lat="40.80866" lon="-1.94673">
        <time>2021-06-19T12:04:21+0000</time>
      </trkpt>
      <trkpt lat="40.80885000000001" lon="-1.94673">
        <time>2021-06-19T12:04:22+0000</time>
      </trkpt>
      <trkpt lat="40.80904" lon="-1.9467400000000001">
        <time>2021-06-19T12:04:23+0000</time>
      </trkpt>
      <trkpt lat="40.80924" lon="-1.9467400000000001">
        <time>2021-06-19T12:04:24+0000</time>
      </trkpt>
      <trkpt lat="40.80944" lon="-1.9467400000000001">
        <time>2021-06-19T12:04:25+0000</time>
      </trkpt>
      <trkpt lat="40.80964" lon="-1.9467500000000002">
        <time>2021-06-19T12:04:26+0000</time>
      </trkpt>
      <trkpt lat="40.809830000000005" lon="-1.9467600000000003">
        <time>2021-06-19T12:04:27+0000</time>
      </trkpt>
      <trkpt lat="40.810010000000005" lon="-1.9467700000000001">
        <time>2021-06-19T12:04:28+0000</time>
      </trkpt>
      <trkpt lat="40.810190000000006" lon="-1.9468">
        <time>2021-06-19T12:04:29+0000</time>
      </trkpt>
      <trkpt lat="40.81036" lon="-1.9468400000000001">
        <time>2021-06-19T12:04:30+0000</time>
      </trkpt>
      <trkpt lat="40.81053" lon="-1.9468900000000002">
        <time>2021-06-19T12:04:31+0000</time>
      </trkpt>
      <trkpt lat="40.81069" lon="-1.94697">
        <time>2021-06-19T12:04:32+0000</time>
      </trkpt>
      <trkpt lat="40.810840000000006" lon="-1.94707">
        <time>2021-06-19T12:04:33+0000</time>
      </trkpt>
      <trkpt lat="40.810990000000004" lon="-1.94721">
        <time>2021-06-19T12:04:34+0000</time>
      </trkpt>
      <trkpt lat="40.811150000000005" lon="-1.9473500000000001">
        <time>2021-06-19T12:04:35+0000</time>
      </trkpt>
      <trkpt lat="40.811310000000006" lon="-1.9475000000000002">
        <time>2021-06-19T12:04:36+0000</time>
      </trkpt>
      <trkpt lat="40.81147" lon="-1.94765">
        <time>2021-06-19T12:04:37+0000</time>
      </trkpt>
      <trkpt lat="40.81163" lon="-1.9477900000000001">
        <time>2021-06-19T12:04:38+0000</time>
      </trkpt>
      <trkpt lat="40.81177" lon="-1.9479300000000002">
        <time>2021-06-19T12:04:39+0000</time>
      </trkpt>
      <trkpt lat="40.8119" lon="-1.9480600000000001">
        <time>2021-06-19T12:04:40+0000</time>
      </trkpt>
      <trkpt lat="40.812020000000004" lon="-1.94819">
        <time>2021-06-19T12:04:41+0000</time>
      </trkpt>
      <trkpt lat="40.81214000000001" lon="-1.94832">
        <time>2021-06-19T12:04:42+0000</time>
      </trkpt>
      <trkpt lat="40.812250000000006" lon="-1.9484400000000002">
        <time>2021-06-19T12:04:43+0000</time>
      </trkpt>
      <trkpt lat="40.812360000000005" lon="-1.94856">
        <time>2021-06-19T12:04:44+0000</time>
      </trkpt>
      <trkpt lat="40.81246" lon="-1.9486800000000002">
        <time>2021-06-19T12:04:45+0000</time>
      </trkpt>
      <trkpt lat="40.812560000000005" lon="-1.9488">
        <time>2021-06-19T12:04:46+0000</time>
      </trkpt>
      <trkpt lat="40.81266" lon="-1.9489">
        <time>2021-06-19T12:04:47+0000</time>
      </trkpt>
      <trkpt lat="40.81275" lon="-1.949">
        <time>2021-06-19T12:04:48+0000</time>
      </trkpt>
      <trkpt lat="40.81284" lon="-1.9491">
        <time>2021-06-19T12:04:49+0000</time>
      </trkpt>
      <trkpt lat="40.81293" lon="-1.9491900000000002">
        <time>2021-06-19T12:04:50+0000</time>
      </trkpt>
      <trkpt lat="40.813010000000006" lon="-1.9492800000000001">
        <time>2021-06-19T12:04:51+0000</time>
      </trkpt>
      <trkpt lat="40.81308000000001" lon="-1.9493600000000002">
        <time>2021-06-19T12:04:52+0000</time>
      </trkpt>
      <trkpt lat="40.81315" lon="-1.94944">
        <time>2021-06-19T12:04:53+0000</time>
      </trkpt>
      <trkpt lat="40.813230000000004" lon="-1.94948">
        <time>2021-06-19T12:04:54+0000</time>
      </trkpt>
      <trkpt lat="40.81331" lon="-1.94948">
        <time>2021-06-19T12:04:55+0000</time>
      </trkpt>
      <trkpt lat="40.81338" lon="-1.9494000000000002">
        <time>2021-06-19T12:04:56+0000</time>
      </trkpt>
      <trkpt lat="40.813460000000006" lon="-1.9493300000000002">
        <time>2021-06-19T12:04:57+0000</time>
      </trkpt>
      <trkpt lat="40.81356" lon="-1.94924">
        <time>2021-06-19T12:04:58+0000</time>
      </trkpt>
      <trkpt lat="40.81369" lon="-1.9491500000000002">
        <time>2021-06-19T12:04:59+0000</time>
      </trkpt>
      <trkpt lat="40.813840000000006" lon="-1.9490800000000001">
        <time>2021-06-19T12:05:00+0000</time>
      </trkpt>
      <trkpt lat="40.81401" lon="-1.9489800000000002">
        <time>2021-06-19T12:05:01+0000</time>
      </trkpt>
      <trkpt lat="40.81420000000001" lon="-1.9489200000000002">
        <time>2021-06-19T12:05:02+0000</time>
      </trkpt>
      <trkpt lat="40.814370000000004" lon="-1.9488400000000001">
        <time>2021-06-19T12:05:03+0000</time>
      </trkpt>
      <trkpt lat="40.814530000000005" lon="-1.9487900000000002">
        <time>2021-06-19T12:05:04+0000</time>
      </trkpt>
      <trkpt lat="40.81468" lon="-1.9487400000000001">
        <time>2021-06-19T12:05:05+0000</time>
      </trkpt>
      <trkpt lat="40.81481" lon="-1.9486900000000003">
        <time>2021-06-19T12:05:06+0000</time>
      </trkpt>
      <trkpt lat="40.81494" lon="-1.9486700000000001">
        <time>2021-06-19T12:05:07+0000</time>
      </trkpt>
      <trkpt lat="40.81504" lon="-1.9486700000000001">
        <time>2021-06-19T12:05:08+0000</time>
      </trkpt>
      <trkpt lat="40.81514000000001" lon="-1.94873">
        <time>2021-06-19T12:05:09+0000</time>
      </trkpt>
      <trkpt lat="40.81524" lon="-1.94883">
        <time>2021-06-19T12:05:10+0000</time>
      </trkpt>
      <trkpt lat="40.815340000000006" lon="-1.9489600000000002">
        <time>2021-06-19T12:05:11+0000</time>
      </trkpt>
      <trkpt lat="40.815470000000005" lon="-1.9491">
        <time>2021-06-19T12:05:12+0000</time>
      </trkpt>
      <trkpt lat="40.81561000000001" lon="-1.9492300000000002">
        <time>2021-06-19T12:05:13+0000</time>
      </trkpt>
      <trkpt lat="40.81577" lon="-1.9493300000000002">
        <time>2021-06-19T12:05:14+0000</time>
      </trkpt>
      <trkpt lat="40.815940000000005" lon="-1.9493900000000002">
        <time>2021-06-19T12:05:15+0000</time>
      </trkpt>
      <trkpt lat="40.81609" lon="-1.94944">
        <time>2021-06-19T12:05:16+0000</time>
      </trkpt>
      <trkpt lat="40.81624" lon="-1.94948">
        <time>2021-06-19T12:05:17+0000</time>
      </trkpt>
      <trkpt lat="40.816390000000006" lon="-1.9495300000000002">
        <time>2021-06-19T12:05:18+0000</time>
      </trkpt>
      <trkpt lat="40.81653" lon="-1.9495700000000002">
        <time>2021-06-19T12:05:19+0000</time>
      </trkpt>
      <trkpt lat="40.81667" lon="-1.9496300000000002">
        <time>2021-06-19T12:05:20+0000</time>
      </trkpt>
      <trkpt lat="40.8168" lon="-1.9497200000000001">
        <time>2021-06-19T12:05:21+0000</time>
      </trkpt>
      <trkpt lat="40.816930000000006" lon="-1.94985">
        <time>2021-06-19T12:05:22+0000</time>
      </trkpt>
      <trkpt lat="40.817060000000005" lon="-1.9499900000000001">
        <time>2021-06-19T12:05:23+0000</time>
      </trkpt>
      <trkpt lat="40.81721" lon="-1.9501000000000002">
        <time>2021-06-19T12:05:24+0000</time>
      </trkpt>
      <trkpt lat="40.81736" lon="-1.9502000000000002">
        <time>2021-06-19T12:05:25+0000</time>
      </trkpt>
      <trkpt lat="40.8175" lon="-1.9502700000000002">
        <time>2021-06-19T12:05:26+0000</time>
      </trkpt>
      <trkpt lat="40.81763" lon="-1.9503400000000002">
        <time>2021-06-19T12:05:27+0000</time>
      </trkpt>
      <trkpt lat="40.81774" lon="-1.9504100000000002">
        <time>2021-06-19T12:05:28+0000</time>
      </trkpt>
      <trkpt lat="40.817840000000004" lon="-1.9504700000000001">
        <time>2021-06-19T12:05:29+0000</time>
      </trkpt>
      <trkpt lat="40.81794" lon="-1.9505400000000002">
        <time>2021-06-19T12:05:30+0000</time>
      </trkpt>
      <trkpt lat="40.818020000000004" lon="-1.9506200000000002">
        <time>2021-06-19T12:05:31+0000</time>
      </trkpt>
      <trkpt lat="40.8181" lon="-1.9507200000000002">
        <time>2021-06-19T12:05:32+0000</time>
      </trkpt>
      <trkpt lat="40.81817" lon="-1.9508400000000001">
        <time>2021-06-19T12:05:33+0000</time>
      </trkpt>
      <trkpt lat="40.81823" lon="-1.95097">
        <time>2021-06-19T12:05:34+0000</time>
      </trkpt>
      <trkpt lat="40.8183" lon="-1.95114">
        <time>2021-06-19T12:05:35+0000</time>
      </trkpt>
      <trkpt lat="40.818360000000006" lon="-1.9513200000000002">
        <time>2021-06-19T12:05:36+0000</time>
      </trkpt>
      <trkpt lat="40.81842" lon="-1.9515000000000002">
        <time>2021-06-19T12:05:37+0000</time>
      </trkpt>
      <trkpt lat="40.818490000000004" lon="-1.9516700000000002">
        <time>2021-06-19T12:05:38+0000</time>
      </trkpt>
      <trkpt lat="40.818580000000004" lon="-1.9518100000000003">
        <time>2021-06-19T12:05:39+0000</time>
      </trkpt>
      <trkpt lat="40.81870000000001" lon="-1.9519300000000002">
        <time>2021-06-19T12:05:40+0000</time>
      </trkpt>
      <trkpt lat="40.81884" lon="-1.9520300000000002">
        <time>2021-06-19T12:05:41+0000</time>
      </trkpt>
      <trkpt lat="40.819" lon="-1.95209">
        <time>2021-06-19T12:05:42+0000</time>
      </trkpt>
      <trkpt lat="40.81915" lon="-1.9521600000000001">
        <time>2021-06-19T12:05:43+0000</time>
      </trkpt>
      <trkpt lat="40.81929" lon="-1.9522400000000002">
        <time>2021-06-19T12:05:44+0000</time>
      </trkpt>
      <trkpt lat="40.819410000000005" lon="-1.9523100000000002">
        <time>2021-06-19T12:05:45+0000</time>
      </trkpt>
      <trkpt lat="40.819520000000004" lon="-1.9524100000000002">
        <time>2021-06-19T12:05:46+0000</time>
      </trkpt>
      <trkpt lat="40.8196" lon="-1.9525500000000002">
        <time>2021-06-19T12:05:47+0000</time>
      </trkpt>
      <trkpt lat="40.819660000000006" lon="-1.9526900000000003">
        <time>2021-06-19T12:05:48+0000</time>
      </trkpt>
      <trkpt lat="40.819700000000005" lon="-1.9528400000000001">
        <time>2021-06-19T12:05:49+0000</time>
      </trkpt>
      <trkpt lat="40.819750000000006" lon="-1.9529900000000002">
        <time>2021-06-19T12:05:50+0000</time>
      </trkpt>
      <trkpt lat="40.8198" lon="-1.9531300000000003">
        <time>2021-06-19T12:05:51+0000</time>
      </trkpt>
      <trkpt lat="40.819840000000006" lon="-1.9532800000000001">
        <time>2021-06-19T12:05:52+0000</time>
      </trkpt>
      <trkpt lat="40.81989" lon="-1.9534300000000002">
        <time>2021-06-19T12:05:53+0000</time>
      </trkpt>
      <trkpt lat="40.81994" lon="-1.95358">
        <time>2021-06-19T12:05:54+0000</time>
      </trkpt>
      <trkpt lat="40.819990000000004" lon="-1.9537400000000003">
        <time>2021-06-19T12:05:55+0000</time>
      </trkpt>
      <trkpt lat="40.820040000000006" lon="-1.9539000000000002">
        <time>2021-06-19T12:05:56+0000</time>
      </trkpt>
      <trkpt lat="40.820100000000004" lon="-1.9540600000000001">
        <time>2021-06-19T12:05:57+0000</time>
      </trkpt>
      <trkpt lat="40.82016" lon="-1.95422">
        <time>2021-06-19T12:05:58+0000</time>
      </trkpt>
      <trkpt lat="40.82021" lon="-1.95436">
        <time>2021-06-19T12:05:59+0000</time>
      </trkpt>
      <trkpt lat="40.820260000000005" lon="-1.9544800000000002">
        <time>2021-06-19T12:06:00+0000</time>
      </trkpt>
      <trkpt lat="40.8203" lon="-1.9546000000000001">
        <time>2021-06-19T12:06:01+0000</time>
      </trkpt>
      <trkpt lat="40.820350000000005" lon="-1.9547200000000002">
        <time>2021-06-19T12:06:02+0000</time>
      </trkpt>
      <trkpt lat="40.82041" lon="-1.9548500000000002">
        <time>2021-06-19T12:06:03+0000</time>
      </trkpt>
      <trkpt lat="40.820460000000004" lon="-1.9549800000000002">
        <time>2021-06-19T12:06:04+0000</time>
      </trkpt>
      <trkpt lat="40.820530000000005" lon="-1.9551100000000001">
        <time>2021-06-19T12:06:05+0000</time>
      </trkpt>
      <trkpt lat="40.820600000000006" lon="-1.9552600000000002">
        <time>2021-06-19T12:06:06+0000</time>
      </trkpt>
      <trkpt lat="40.820660000000004" lon="-1.9554000000000002">
        <time>2021-06-19T12:06:07+0000</time>
      </trkpt>
      <trkpt lat="40.820730000000005" lon="-1.9555500000000001">
        <time>2021-06-19T12:06:08+0000</time>
      </trkpt>
      <trkpt lat="40.82081" lon="-1.95571">
        <time>2021-06-19T12:06:09+0000</time>
      </trkpt>
      <trkpt lat="40.82088" lon="-1.9558600000000002">
        <time>2021-06-19T12:06:10+0000</time>
      </trkpt>
      <trkpt lat="40.82095" lon="-1.9560300000000002">
        <time>2021-06-19T12:06:11+0000</time>
      </trkpt>
      <trkpt lat="40.82103" lon="-1.9562000000000002">
        <time>2021-06-19T12:06:12+0000</time>
      </trkpt>
      <trkpt lat="40.82112" lon="-1.95639">
        <time>2021-06-19T12:06:13+0000</time>
      </trkpt>
      <trkpt lat="40.82121" lon="-1.9565800000000002">
        <time>2021-06-19T12:06:14+0000</time>
      </trkpt>
      <trkpt lat="40.8213" lon="-1.9567800000000002">
        <time>2021-06-19T12:06:15+0000</time>
      </trkpt>
      <trkpt lat="40.82139" lon="-1.9569800000000002">
        <time>2021-06-19T12:06:16+0000</time>
      </trkpt>
      <trkpt lat="40.821490000000004" lon="-1.9571800000000001">
        <time>2021-06-19T12:06:17+0000</time>
      </trkpt>
      <trkpt lat="40.82157" lon="-1.95737">
        <time>2021-06-19T12:06:18+0000</time>
      </trkpt>
      <trkpt lat="40.82166" lon="-1.9575600000000002">
        <time>2021-06-19T12:06:19+0000</time>
      </trkpt>
      <trkpt lat="40.82175" lon="-1.95775">
        <time>2021-06-19T12:06:20+0000</time>
      </trkpt>
      <trkpt lat="40.82184" lon="-1.9579400000000002">
        <time>2021-06-19T12:06:21+0000</time>
      </trkpt>
      <trkpt lat="40.82193" lon="-1.9581300000000001">
        <time>2021-06-19T12:06:22+0000</time>
      </trkpt>
      <trkpt lat="40.822010000000006" lon="-1.9583100000000002">
        <time>2021-06-19T12:06:23+0000</time>
      </trkpt>
      <trkpt lat="40.822100000000006" lon="-1.95849">
        <time>2021-06-19T12:06:24+0000</time>
      </trkpt>
      <trkpt lat="40.82218" lon="-1.95866">
        <time>2021-06-19T12:06:25+0000</time>
      </trkpt>
      <trkpt lat="40.82226" lon="-1.95883">
        <time>2021-06-19T12:06:26+0000</time>
      </trkpt>
      <trkpt lat="40.82233" lon="-1.959">
        <time>2021-06-19T12:06:27+0000</time>
      </trkpt>
      <trkpt lat="40.822410000000005" lon="-1.95917">
        <time>2021-06-19T12:06:28+0000</time>
      </trkpt>
      <trkpt lat="40.82249" lon="-1.95934">
        <time>2021-06-19T12:06:29+0000</time>
      </trkpt>
      <trkpt lat="40.82258" lon="-1.9595200000000002">
        <time>2021-06-19T12:06:30+0000</time>
      </trkpt>
      <trkpt lat="40.82267" lon="-1.95971">
        <time>2021-06-19T12:06:31+0000</time>
      </trkpt>
      <trkpt lat="40.82276" lon="-1.9599100000000003">
        <time>2021-06-19T12:06:32+0000</time>
      </trkpt>
      <trkpt lat="40.822860000000006" lon="-1.96012">
        <time>2021-06-19T12:06:33+0000</time>
      </trkpt>
      <trkpt lat="40.82296" lon="-1.9603400000000002">
        <time>2021-06-19T12:06:34+0000</time>
      </trkpt>
      <trkpt lat="40.823060000000005" lon="-1.9605500000000002">
        <time>2021-06-19T12:06:35+0000</time>
      </trkpt>
      <trkpt lat="40.82316" lon="-1.9607700000000001">
        <time>2021-06-19T12:06:36+0000</time>
      </trkpt>
      <trkpt lat="40.82325" lon="-1.96097">
        <time>2021-06-19T12:06:37+0000</time>
      </trkpt>
      <trkpt lat="40.823330000000006" lon="-1.9611800000000001">
        <time>2021-06-19T12:06:38+0000</time>
      </trkpt>
      <trkpt lat="40.82340000000001" lon="-1.9614000000000003">
        <time>2021-06-19T12:06:39+0000</time>
      </trkpt>
      <trkpt lat="40.823440000000005" lon="-1.96161">
        <time>2021-06-19T12:06:40+0000</time>
      </trkpt>
      <trkpt lat="40.823460000000004" lon="-1.96181">
        <time>2021-06-19T12:06:41+0000</time>
      </trkpt>
      <trkpt lat="40.82347" lon="-1.9619900000000001">
        <time>2021-06-19T12:06:42+0000</time>
      </trkpt>
      <trkpt lat="40.82349000000001" lon="-1.9621700000000002">
        <time>2021-06-19T12:06:43+0000</time>
      </trkpt>
      <trkpt lat="40.8235" lon="-1.9623400000000002">
        <time>2021-06-19T12:06:44+0000</time>
      </trkpt>
      <trkpt lat="40.823510000000006" lon="-1.96249">
        <time>2021-06-19T12:06:45+0000</time>
      </trkpt>
      <trkpt lat="40.82352" lon="-1.96263">
        <time>2021-06-19T12:06:46+0000</time>
      </trkpt>
      <trkpt lat="40.823530000000005" lon="-1.96276">
        <time>2021-06-19T12:06:47+0000</time>
      </trkpt>
      <trkpt lat="40.82359" lon="-1.9628700000000001">
        <time>2021-06-19T12:06:48+0000</time>
      </trkpt>
      <trkpt lat="40.82368" lon="-1.96293">
        <time>2021-06-19T12:06:49+0000</time>
      </trkpt>
      <trkpt lat="40.82379" lon="-1.9629500000000002">
        <time>2021-06-19T12:06:50+0000</time>
      </trkpt>
      <trkpt lat="40.82392" lon="-1.9629500000000002">
        <time>2021-06-19T12:06:51+0000</time>
      </trkpt>
      <trkpt lat="40.824040000000004" lon="-1.9629500000000002">
        <time>2021-06-19T12:06:52+0000</time>
      </trkpt>
      <trkpt lat="40.824160000000006" lon="-1.9629800000000002">
        <time>2021-06-19T12:06:53+0000</time>
      </trkpt>
      <trkpt lat="40.82428" lon="-1.9630400000000001">
        <time>2021-06-19T12:06:54+0000</time>
      </trkpt>
      <trkpt lat="40.824380000000005" lon="-1.9631300000000003">
        <time>2021-06-19T12:06:55+0000</time>
      </trkpt>
      <trkpt lat="40.82446" lon="-1.9632500000000002">
        <time>2021-06-19T12:06:56+0000</time>
      </trkpt>
      <trkpt lat="40.82453" lon="-1.9633900000000002">
        <time>2021-06-19T12:06:57+0000</time>
      </trkpt>
      <trkpt lat="40.824600000000004" lon="-1.9635200000000002">
        <time>2021-06-19T12:06:58+0000</time>
      </trkpt>
      <trkpt lat="40.82466" lon="-1.9636500000000001">
        <time>2021-06-19T12:06:59+0000</time>
      </trkpt>
      <trkpt lat="40.82473" lon="-1.9637600000000002">
        <time>2021-06-19T12:07:00+0000</time>
      </trkpt>
      <trkpt lat="40.824780000000004" lon="-1.9638700000000002">
        <time>2021-06-19T12:07:01+0000</time>
      </trkpt>
      <trkpt lat="40.82482" lon="-1.96395">
        <time>2021-06-19T12:07:02+0000</time>
      </trkpt>
      <trkpt lat="40.82486" lon="-1.9640400000000002">
        <time>2021-06-19T12:07:03+0000</time>
      </trkpt>
      <trkpt lat="40.82489" lon="-1.9641000000000002">
        <time>2021-06-19T12:07:04+0000</time>
      </trkpt>
      <trkpt lat="40.82493" lon="-1.9641700000000002">
        <time>2021-06-19T12:07:05+0000</time>
      </trkpt>
      <trkpt lat="40.824940000000005" lon="-1.9642400000000002">
        <time>2021-06-19T12:07:06+0000</time>
      </trkpt>
      <trkpt lat="40.824960000000004" lon="-1.9643100000000002">
        <time>2021-06-19T12:07:07+0000</time>
      </trkpt>
      <trkpt lat="40.82497" lon="-1.96439">
        <time>2021-06-19T12:07:08+0000</time>
      </trkpt>
      <trkpt lat="40.82497" lon="-1.9644800000000002">
        <time>2021-06-19T12:07:09+0000</time>
      </trkpt>
      <trkpt lat="40.824940000000005" lon="-1.96456">
        <time>2021-06-19T12:07:10+0000</time>
      </trkpt>
      <trkpt lat="40.82490000000001" lon="-1.9646400000000002">
        <time>2021-06-19T12:07:11+0000</time>
      </trkpt>
      <trkpt lat="40.824850000000005" lon="-1.9647200000000002">
        <time>2021-06-19T12:07:12+0000</time>
      </trkpt>
      <trkpt lat="40.82479" lon="-1.9648100000000002">
        <time>2021-06-19T12:07:13+0000</time>
      </trkpt>
      <trkpt lat="40.82473" lon="-1.9648900000000002">
        <time>2021-06-19T12:07:14+0000</time>
      </trkpt>
      <trkpt lat="40.824670000000005" lon="-1.9649800000000002">
        <time>2021-06-19T12:07:15+0000</time>
      </trkpt>
      <trkpt lat="40.824600000000004" lon="-1.96507">
        <time>2021-06-19T12:07:16+0000</time>
      </trkpt>
      <trkpt lat="40.824540000000006" lon="-1.96517">
        <time>2021-06-19T12:07:17+0000</time>
      </trkpt>
      <trkpt lat="40.824510000000004" lon="-1.9652800000000001">
        <time>2021-06-19T12:07:18+0000</time>
      </trkpt>
      <trkpt lat="40.824510000000004" lon="-1.96541">
        <time>2021-06-19T12:07:19+0000</time>
      </trkpt>
      <trkpt lat="40.82452000000001" lon="-1.9655200000000002">
        <time>2021-06-19T12:07:20+0000</time>
      </trkpt>
      <trkpt lat="40.824540000000006" lon="-1.9656300000000002">
        <time>2021-06-19T12:07:21+0000</time>
      </trkpt>
      <trkpt lat="40.824580000000005" lon="-1.9657400000000003">
        <time>2021-06-19T12:07:22+0000</time>
      </trkpt>
      <trkpt lat="40.824630000000006" lon="-1.9658300000000002">
        <time>2021-06-19T12:07:23+0000</time>
      </trkpt>
      <trkpt lat="40.82468" lon="-1.9659000000000002">
        <time>2021-06-19T12:07:24+0000</time>
      </trkpt>
      <trkpt lat="40.82473" lon="-1.9659600000000002">
        <time>2021-06-19T12:07:25+0000</time>
      </trkpt>
      <trkpt lat="40.824780000000004" lon="-1.9660000000000002">
        <time>2021-06-19T12:07:26+0000</time>
      </trkpt>
      <trkpt lat="40.82481000000001" lon="-1.9660400000000002">
        <time>2021-06-19T12:07:27+0000</time>
      </trkpt>
      <trkpt lat="40.82484" lon="-1.9660700000000002">
        <time>2021-06-19T12:07:28+0000</time>
      </trkpt>
      <trkpt lat="40.82486" lon="-1.9660900000000001">
        <time>2021-06-19T12:07:29+0000</time>
      </trkpt>
      <trkpt lat="40.82489" lon="-1.9661100000000002">
        <time>2021-06-19T12:07:30+0000</time>
      </trkpt>
      <trkpt lat="40.82491" lon="-1.9661400000000002">
        <time>2021-06-19T12:07:31+0000</time>
      </trkpt>
      <trkpt lat="40.824940000000005" lon="-1.9661600000000001">
        <time>2021-06-19T12:07:32+0000</time>
      </trkpt>
      <trkpt lat="40.824960000000004" lon="-1.9661800000000003">
        <time>2021-06-19T12:07:33+0000</time>
      </trkpt>
      <trkpt lat="40.82499000000001" lon="-1.9662100000000002">
        <time>2021-06-19T12:07:34+0000</time>
      </trkpt>
      <trkpt lat="40.825030000000005" lon="-1.96625">
        <time>2021-06-19T12:07:35+0000</time>
      </trkpt>
      <trkpt lat="40.825050000000005" lon="-1.96629">
        <time>2021-06-19T12:07:36+0000</time>
      </trkpt>
      <trkpt lat="40.825070000000004" lon="-1.96632">
        <time>2021-06-19T12:07:37+0000</time>
      </trkpt>
      <trkpt lat="40.82509" lon="-1.9663500000000003">
        <time>2021-06-19T12:07:38+0000</time>
      </trkpt>
      <trkpt lat="40.82511" lon="-1.96639">
        <time>2021-06-19T12:07:39+0000</time>
      </trkpt>
      <trkpt lat="40.825120000000005" lon="-1.9664300000000001">
        <time>2021-06-19T12:07:40+0000</time>
      </trkpt>
      <trkpt lat="40.825140000000005" lon="-1.9664800000000002">
        <time>2021-06-19T12:07:41+0000</time>
      </trkpt>
      <trkpt lat="40.82515" lon="-1.9665200000000003">
        <time>2021-06-19T12:07:42+0000</time>
      </trkpt>
      <trkpt lat="40.825160000000004" lon="-1.9665800000000002">
        <time>2021-06-19T12:07:43+0000</time>
      </trkpt>
      <trkpt lat="40.82518" lon="-1.96663">
        <time>2021-06-19T12:07:44+0000</time>
      </trkpt>
      <trkpt lat="40.825190000000006" lon="-1.9667000000000001">
        <time>2021-06-19T12:07:45+0000</time>
      </trkpt>
      <trkpt lat="40.82522" lon="-1.9667500000000002">
        <time>2021-06-19T12:07:46+0000</time>
      </trkpt>
      <trkpt lat="40.825250000000004" lon="-1.9667900000000003">
        <time>2021-06-19T12:07:47+0000</time>
      </trkpt>
      <trkpt lat="40.82528000000001" lon="-1.9668400000000001">
        <time>2021-06-19T12:07:48+0000</time>
      </trkpt>
      <trkpt lat="40.825320000000005" lon="-1.9668800000000002">
        <time>2021-06-19T12:07:49+0000</time>
      </trkpt>
      <trkpt lat="40.82535" lon="-1.9669200000000002">
        <time>2021-06-19T12:07:50+0000</time>
      </trkpt>
      <trkpt lat="40.825390000000006" lon="-1.96697">
        <time>2021-06-19T12:07:51+0000</time>
      </trkpt>
      <trkpt lat="40.82542" lon="-1.9670100000000001">
        <time>2021-06-19T12:07:52+0000</time>
      </trkpt>
      <trkpt lat="40.82546000000001" lon="-1.9670500000000002">
        <time>2021-06-19T12:07:53+0000</time>
      </trkpt>
      <trkpt lat="40.82549" lon="-1.9670900000000002">
        <time>2021-06-19T12:07:54+0000</time>
      </trkpt>
      <trkpt lat="40.82553" lon="-1.9671300000000003">
        <time>2021-06-19T12:07:55+0000</time>
      </trkpt>
      <trkpt lat="40.825570000000006" lon="-1.9671800000000002">
        <time>2021-06-19T12:07:56+0000</time>
      </trkpt>
      <trkpt lat="40.825610000000005" lon="-1.9672200000000002">
        <time>2021-06-19T12:07:57+0000</time>
      </trkpt>
      <trkpt lat="40.82564" lon="-1.9672500000000002">
        <time>2021-06-19T12:07:58+0000</time>
      </trkpt>
      <trkpt lat="40.825660000000006" lon="-1.9672800000000001">
        <time>2021-06-19T12:07:59+0000</time>
      </trkpt>
      <trkpt lat="40.82569" lon="-1.9673100000000001">
        <time>2021-06-19T12:08:00+0000</time>
      </trkpt>
      <trkpt lat="40.82571" lon="-1.96734">
        <time>2021-06-19T12:08:01+0000</time>
      </trkpt>
      <trkpt lat="40.82574" lon="-1.9673800000000001">
        <time>2021-06-19T12:08:02+0000</time>
      </trkpt>
      <trkpt lat="40.825770000000006" lon="-1.9674200000000002">
        <time>2021-06-19T12:08:03+0000</time>
      </trkpt>
      <trkpt lat="40.825810000000004" lon="-1.9674600000000002">
        <time>2021-06-19T12:08:04+0000</time>
      </trkpt>
      <trkpt lat="40.82584000000001" lon="-1.9674900000000002">
        <time>2021-06-19T12:08:05+0000</time>
      </trkpt>
      <trkpt lat="40.82587" lon="-1.96754">
        <time>2021-06-19T12:08:06+0000</time>
      </trkpt>
      <trkpt lat="40.82591" lon="-1.96758">
        <time>2021-06-19T12:08:07+0000</time>
      </trkpt>
      <trkpt lat="40.82594" lon="-1.9676300000000002">
        <time>2021-06-19T12:08:08+0000</time>
      </trkpt>
      <trkpt lat="40.825970000000005" lon="-1.9676700000000003">
        <time>2021-06-19T12:08:09+0000</time>
      </trkpt>
      <trkpt lat="40.826" lon="-1.96771">
        <time>2021-06-19T12:08:10+0000</time>
      </trkpt>
      <trkpt lat="40.82603" lon="-1.9677400000000003">
        <time>2021-06-19T12:08:11+0000</time>
      </trkpt>
      <trkpt lat="40.826060000000005" lon="-1.9677700000000002">
        <time>2021-06-19T12:08:12+0000</time>
      </trkpt>
      <trkpt lat="40.826080000000005" lon="-1.9677900000000002">
        <time>2021-06-19T12:08:13+0000</time>
      </trkpt>
      <trkpt lat="40.82618" lon="-1.9676600000000002">
        <time>2021-06-19T12:08:14+0000</time>
      </trkpt>
      <trkpt lat="40.82625" lon="-1.9675900000000002">
        <time>2021-06-19T12:08:15+0000</time>
      </trkpt>
      <trkpt lat="40.826330000000006" lon="-1.9675200000000002">
        <time>2021-06-19T12:08:16+0000</time>
      </trkpt>
      <trkpt lat="40.826420000000006" lon="-1.96744">
        <time>2021-06-19T12:08:17+0000</time>
      </trkpt>
      <trkpt lat="40.82652" lon="-1.9673500000000002">
        <time>2021-06-19T12:08:18+0000</time>
      </trkpt>
      <trkpt lat="40.82663" lon="-1.9672600000000002">
        <time>2021-06-19T12:08:19+0000</time>
      </trkpt>
      <trkpt lat="40.82676" lon="-1.9671900000000002">
        <time>2021-06-19T12:08:20+0000</time>
      </trkpt>
      <trkpt lat="40.82688" lon="-1.9671300000000003">
        <time>2021-06-19T12:08:21+0000</time>
      </trkpt>
      <trkpt lat="40.826980000000006" lon="-1.9670800000000002">
        <time>2021-06-19T12:08:22+0000</time>
      </trkpt>
      <trkpt lat="40.82708" lon="-1.96703">
        <time>2021-06-19T12:08:23+0000</time>
      </trkpt>
      <trkpt lat="40.82717" lon="-1.9669800000000002">
        <time>2021-06-19T12:08:24+0000</time>
      </trkpt>
      <trkpt lat="40.82724" lon="-1.9669600000000003">
        <time>2021-06-19T12:08:25+0000</time>
      </trkpt>
      <trkpt lat="40.8273" lon="-1.9669600000000003">
        <time>2021-06-19T12:08:26+0000</time>
      </trkpt>
      <trkpt lat="40.82732" lon="-1.96693">
        <time>2021-06-19T12:08:27+0000</time>
      </trkpt>
      <trkpt lat="40.82737" lon="-1.9670600000000003">
        <time>2021-06-19T12:08:28+0000</time>
      </trkpt>
      <trkpt lat="40.82739" lon="-1.9671800000000002">
        <time>2021-06-19T12:08:29+0000</time>
      </trkpt>
      <trkpt lat="40.827420000000004" lon="-1.9673300000000002">
        <time>2021-06-19T12:08:30+0000</time>
      </trkpt>
      <trkpt lat="40.82744" lon="-1.96751">
        <time>2021-06-19T12:08:31+0000</time>
      </trkpt>
      <trkpt lat="40.82746" lon="-1.9677000000000002">
        <time>2021-06-19T12:08:32+0000</time>
      </trkpt>
      <trkpt lat="40.827470000000005" lon="-1.9679100000000003">
        <time>2021-06-19T12:08:33+0000</time>
      </trkpt>
      <trkpt lat="40.827470000000005" lon="-1.9681400000000002">
        <time>2021-06-19T12:08:34+0000</time>
      </trkpt>
      <trkpt lat="40.827450000000006" lon="-1.96836">
        <time>2021-06-19T12:08:35+0000</time>
      </trkpt>
      <trkpt lat="40.827400000000004" lon="-1.9686100000000002">
        <time>2021-06-19T12:08:36+0000</time>
      </trkpt>
      <trkpt lat="40.82735" lon="-1.9688500000000002">
        <time>2021-06-19T12:08:37+0000</time>
      </trkpt>
      <trkpt lat="40.827310000000004" lon="-1.96907">
        <time>2021-06-19T12:08:38+0000</time>
      </trkpt>
      <trkpt lat="40.82728" lon="-1.9693100000000001">
        <time>2021-06-19T12:08:39+0000</time>
      </trkpt>
      <trkpt lat="40.82728" lon="-1.9695500000000001">
        <time>2021-06-19T12:08:40+0000</time>
      </trkpt>
      <trkpt lat="40.827270000000006" lon="-1.9697900000000002">
        <time>2021-06-19T12:08:41+0000</time>
      </trkpt>
      <trkpt lat="40.827270000000006" lon="-1.9700300000000002">
        <time>2021-06-19T12:08:42+0000</time>
      </trkpt>
      <trkpt lat="40.827270000000006" lon="-1.97025">
        <time>2021-06-19T12:08:43+0000</time>
      </trkpt>
      <trkpt lat="40.827270000000006" lon="-1.97046">
        <time>2021-06-19T12:08:44+0000</time>
      </trkpt>
      <trkpt lat="40.827270000000006" lon="-1.97066">
        <time>2021-06-19T12:08:45+0000</time>
      </trkpt>
      <trkpt lat="40.827270000000006" lon="-1.9708500000000002">
        <time>2021-06-19T12:08:46+0000</time>
      </trkpt>
      <trkpt lat="40.82726" lon="-1.9710400000000001">
        <time>2021-06-19T12:08:47+0000</time>
      </trkpt>
      <trkpt lat="40.82725000000001" lon="-1.9712100000000001">
        <time>2021-06-19T12:08:48+0000</time>
      </trkpt>
      <trkpt lat="40.827220000000004" lon="-1.9713900000000002">
        <time>2021-06-19T12:08:49+0000</time>
      </trkpt>
      <trkpt lat="40.827180000000006" lon="-1.9715600000000002">
        <time>2021-06-19T12:08:50+0000</time>
      </trkpt>
      <trkpt lat="40.827130000000004" lon="-1.9717300000000002">
        <time>2021-06-19T12:08:51+0000</time>
      </trkpt>
      <trkpt lat="40.827090000000005" lon="-1.97188">
        <time>2021-06-19T12:08:52+0000</time>
      </trkpt>
      <trkpt lat="40.82705" lon="-1.9720400000000002">
        <time>2021-06-19T12:08:53+0000</time>
      </trkpt>
      <trkpt lat="40.82703" lon="-1.97219">
        <time>2021-06-19T12:08:54+0000</time>
      </trkpt>
      <trkpt lat="40.82699" lon="-1.9723400000000002">
        <time>2021-06-19T12:08:55+0000</time>
      </trkpt>
      <trkpt lat="40.82696000000001" lon="-1.97249">
        <time>2021-06-19T12:08:56+0000</time>
      </trkpt>
      <trkpt lat="40.82692" lon="-1.9726400000000002">
        <time>2021-06-19T12:08:57+0000</time>
      </trkpt>
      <trkpt lat="40.826890000000006" lon="-1.9727800000000002">
        <time>2021-06-19T12:08:58+0000</time>
      </trkpt>
      <trkpt lat="40.82687000000001" lon="-1.97293">
        <time>2021-06-19T12:08:59+0000</time>
      </trkpt>
      <trkpt lat="40.82688" lon="-1.97307">
        <time>2021-06-19T12:09:00+0000</time>
      </trkpt>
      <trkpt lat="40.8269" lon="-1.9732">
        <time>2021-06-19T12:09:01+0000</time>
      </trkpt>
      <trkpt lat="40.826950000000004" lon="-1.9733300000000003">
        <time>2021-06-19T12:09:02+0000</time>
      </trkpt>
      <trkpt lat="40.82701" lon="-1.9734600000000002">
        <time>2021-06-19T12:09:03+0000</time>
      </trkpt>
      <trkpt lat="40.82708" lon="-1.9735700000000003">
        <time>2021-06-19T12:09:04+0000</time>
      </trkpt>
      <trkpt lat="40.82717" lon="-1.97368">
        <time>2021-06-19T12:09:05+0000</time>
      </trkpt>
      <trkpt lat="40.82728" lon="-1.9737700000000002">
        <time>2021-06-19T12:09:06+0000</time>
      </trkpt>
      <trkpt lat="40.827380000000005" lon="-1.9738400000000003">
        <time>2021-06-19T12:09:07+0000</time>
      </trkpt>
      <trkpt lat="40.82748" lon="-1.9739000000000002">
        <time>2021-06-19T12:09:08+0000</time>
      </trkpt>
      <trkpt lat="40.82757" lon="-1.97395">
        <time>2021-06-19T12:09:09+0000</time>
      </trkpt>
      <trkpt lat="40.82766" lon="-1.9740000000000002">
        <time>2021-06-19T12:09:10+0000</time>
      </trkpt>
      <trkpt lat="40.82773" lon="-1.9740400000000002">
        <time>2021-06-19T12:09:11+0000</time>
      </trkpt>
      <trkpt lat="40.827760000000005" lon="-1.9741000000000002">
        <time>2021-06-19T12:09:12+0000</time>
      </trkpt>
      <trkpt lat="40.82791" lon="-1.9740100000000003">
        <time>2021-06-19T12:09:13+0000</time>
      </trkpt>
      <trkpt lat="40.82802" lon="-1.97395">
        <time>2021-06-19T12:09:14+0000</time>
      </trkpt>
      <trkpt lat="40.82813" lon="-1.9738700000000002">
        <time>2021-06-19T12:09:15+0000</time>
      </trkpt>
      <trkpt lat="40.82826" lon="-1.9738000000000002">
        <time>2021-06-19T12:09:16+0000</time>
      </trkpt>
      <trkpt lat="40.8284" lon="-1.9737200000000001">
        <time>2021-06-19T12:09:17+0000</time>
      </trkpt>
      <trkpt lat="40.828540000000004" lon="-1.9736000000000002">
        <time>2021-06-19T12:09:18+0000</time>
      </trkpt>
      <trkpt lat="40.82867" lon="-1.9734800000000001">
        <time>2021-06-19T12:09:19+0000</time>
      </trkpt>
      <trkpt lat="40.828770000000006" lon="-1.9733">
        <time>2021-06-19T12:09:20+0000</time>
      </trkpt>
      <trkpt lat="40.82887" lon="-1.9731100000000001">
        <time>2021-06-19T12:09:21+0000</time>
      </trkpt>
      <trkpt lat="40.82898" lon="-1.9729200000000002">
        <time>2021-06-19T12:09:22+0000</time>
      </trkpt>
      <trkpt lat="40.829100000000004" lon="-1.9727500000000002">
        <time>2021-06-19T12:09:23+0000</time>
      </trkpt>
      <trkpt lat="40.82923" lon="-1.9726200000000003">
        <time>2021-06-19T12:09:24+0000</time>
      </trkpt>
      <trkpt lat="40.829370000000004" lon="-1.97249">
        <time>2021-06-19T12:09:25+0000</time>
      </trkpt>
      <trkpt lat="40.8295" lon="-1.9723700000000002">
        <time>2021-06-19T12:09:26+0000</time>
      </trkpt>
      <trkpt lat="40.829620000000006" lon="-1.9722600000000001">
        <time>2021-06-19T12:09:27+0000</time>
      </trkpt>
      <trkpt lat="40.829730000000005" lon="-1.9721600000000001">
        <time>2021-06-19T12:09:28+0000</time>
      </trkpt>
      <trkpt lat="40.82985" lon="-1.9721000000000002">
        <time>2021-06-19T12:09:29+0000</time>
      </trkpt>
      <trkpt lat="40.82996" lon="-1.97205">
        <time>2021-06-19T12:09:30+0000</time>
      </trkpt>
      <trkpt lat="40.830070000000006" lon="-1.9720100000000003">
        <time>2021-06-19T12:09:31+0000</time>
      </trkpt>
      <trkpt lat="40.830200000000005" lon="-1.9720100000000003">
        <time>2021-06-19T12:09:32+0000</time>
      </trkpt>
      <trkpt lat="40.83032" lon="-1.97205">
        <time>2021-06-19T12:09:33+0000</time>
      </trkpt>
      <trkpt lat="40.83043000000001" lon="-1.9721400000000002">
        <time>2021-06-19T12:09:34+0000</time>
      </trkpt>
      <trkpt lat="40.83055" lon="-1.97225">
        <time>2021-06-19T12:09:35+0000</time>
      </trkpt>
      <trkpt lat="40.830670000000005" lon="-1.9723500000000003">
        <time>2021-06-19T12:09:36+0000</time>
      </trkpt>
      <trkpt lat="40.83079" lon="-1.9724500000000003">
        <time>2021-06-19T12:09:37+0000</time>
      </trkpt>
      <trkpt lat="40.83090000000001" lon="-1.9725500000000002">
        <time>2021-06-19T12:09:38+0000</time>
      </trkpt>
      <trkpt lat="40.831010000000006" lon="-1.9726500000000002">
        <time>2021-06-19T12:09:39+0000</time>
      </trkpt>
      <trkpt lat="40.83111" lon="-1.9727400000000002">
        <time>2021-06-19T12:09:40+0000</time>
      </trkpt>
      <trkpt lat="40.831210000000006" lon="-1.97283">
        <time>2021-06-19T12:09:41+0000</time>
      </trkpt>
      <trkpt lat="40.831320000000005" lon="-1.9729200000000002">
        <time>2021-06-19T12:09:42+0000</time>
      </trkpt>
      <trkpt lat="40.83142" lon="-1.9730200000000002">
        <time>2021-06-19T12:09:43+0000</time>
      </trkpt>
      <trkpt lat="40.831520000000005" lon="-1.9731200000000002">
        <time>2021-06-19T12:09:44+0000</time>
      </trkpt>
      <trkpt lat="40.831630000000004" lon="-1.9732200000000002">
        <time>2021-06-19T12:09:45+0000</time>
      </trkpt>
      <trkpt lat="40.83174" lon="-1.9733300000000003">
        <time>2021-06-19T12:09:46+0000</time>
      </trkpt>
      <trkpt lat="40.83187" lon="-1.9734200000000002">
        <time>2021-06-19T12:09:47+0000</time>
      </trkpt>
      <trkpt lat="40.83203" lon="-1.9734500000000001">
        <time>2021-06-19T12:09:48+0000</time>
      </trkpt>
      <trkpt lat="40.83218" lon="-1.9734200000000002">
        <time>2021-06-19T12:09:49+0000</time>
      </trkpt>
      <trkpt lat="40.832350000000005" lon="-1.97341">
        <time>2021-06-19T12:09:50+0000</time>
      </trkpt>
      <trkpt lat="40.83249" lon="-1.9733900000000002">
        <time>2021-06-19T12:09:51+0000</time>
      </trkpt>
      <trkpt lat="40.832620000000006" lon="-1.9734000000000003">
        <time>2021-06-19T12:09:52+0000</time>
      </trkpt>
      <trkpt lat="40.83274" lon="-1.9734500000000001">
        <time>2021-06-19T12:09:53+0000</time>
      </trkpt>
      <trkpt lat="40.832860000000004" lon="-1.97354">
        <time>2021-06-19T12:09:54+0000</time>
      </trkpt>
      <trkpt lat="40.832980000000006" lon="-1.97364">
        <time>2021-06-19T12:09:55+0000</time>
      </trkpt>
      <trkpt lat="40.8331" lon="-1.9737400000000003">
        <time>2021-06-19T12:09:56+0000</time>
      </trkpt>
      <trkpt lat="40.833220000000004" lon="-1.9738300000000002">
        <time>2021-06-19T12:09:57+0000</time>
      </trkpt>
      <trkpt lat="40.83334000000001" lon="-1.9739300000000002">
        <time>2021-06-19T12:09:58+0000</time>
      </trkpt>
      <trkpt lat="40.83346" lon="-1.9740300000000002">
        <time>2021-06-19T12:09:59+0000</time>
      </trkpt>
      <trkpt lat="40.833580000000005" lon="-1.9741400000000002">
        <time>2021-06-19T12:10:00+0000</time>
      </trkpt>
      <trkpt lat="40.83371" lon="-1.9742400000000002">
        <time>2021-06-19T12:10:01+0000</time>
      </trkpt>
      <trkpt lat="40.833850000000005" lon="-1.9743500000000003">
        <time>2021-06-19T12:10:02+0000</time>
      </trkpt>
      <trkpt lat="40.834" lon="-1.9744800000000002">
        <time>2021-06-19T12:10:03+0000</time>
      </trkpt>
      <trkpt lat="40.83415" lon="-1.9746000000000001">
        <time>2021-06-19T12:10:04+0000</time>
      </trkpt>
      <trkpt lat="40.834300000000006" lon="-1.97473">
        <time>2021-06-19T12:10:05+0000</time>
      </trkpt>
      <trkpt lat="40.83446" lon="-1.97486">
        <time>2021-06-19T12:10:06+0000</time>
      </trkpt>
      <trkpt lat="40.834610000000005" lon="-1.9749800000000002">
        <time>2021-06-19T12:10:07+0000</time>
      </trkpt>
      <trkpt lat="40.83475000000001" lon="-1.9751">
        <time>2021-06-19T12:10:08+0000</time>
      </trkpt>
      <trkpt lat="40.83489" lon="-1.9752100000000001">
        <time>2021-06-19T12:10:09+0000</time>
      </trkpt>
      <trkpt lat="40.83503" lon="-1.9753200000000002">
        <time>2021-06-19T12:10:10+0000</time>
      </trkpt>
      <trkpt lat="40.83518" lon="-1.9754300000000002">
        <time>2021-06-19T12:10:11+0000</time>
      </trkpt>
      <trkpt lat="40.83534" lon="-1.9755300000000002">
        <time>2021-06-19T12:10:12+0000</time>
      </trkpt>
      <trkpt lat="40.8355" lon="-1.9756200000000002">
        <time>2021-06-19T12:10:13+0000</time>
      </trkpt>
      <trkpt lat="40.835660000000004" lon="-1.9757000000000002">
        <time>2021-06-19T12:10:14+0000</time>
      </trkpt>
      <trkpt lat="40.83581" lon="-1.97578">
        <time>2021-06-19T12:10:15+0000</time>
      </trkpt>
      <trkpt lat="40.83594" lon="-1.9758400000000003">
        <time>2021-06-19T12:10:16+0000</time>
      </trkpt>
      <trkpt lat="40.83608" lon="-1.9759000000000002">
        <time>2021-06-19T12:10:17+0000</time>
      </trkpt>
      <trkpt lat="40.836200000000005" lon="-1.9759700000000002">
        <time>2021-06-19T12:10:18+0000</time>
      </trkpt>
      <trkpt lat="40.836310000000005" lon="-1.9760400000000002">
        <time>2021-06-19T12:10:19+0000</time>
      </trkpt>
      <trkpt lat="40.836420000000004" lon="-1.97612">
        <time>2021-06-19T12:10:20+0000</time>
      </trkpt>
      <trkpt lat="40.83653" lon="-1.9762100000000002">
        <time>2021-06-19T12:10:21+0000</time>
      </trkpt>
      <trkpt lat="40.83663000000001" lon="-1.9763100000000002">
        <time>2021-06-19T12:10:22+0000</time>
      </trkpt>
      <trkpt lat="40.83675" lon="-1.97642">
        <time>2021-06-19T12:10:23+0000</time>
      </trkpt>
      <trkpt lat="40.836870000000005" lon="-1.9765300000000001">
        <time>2021-06-19T12:10:24+0000</time>
      </trkpt>
      <trkpt lat="40.83699" lon="-1.9766500000000002">
        <time>2021-06-19T12:10:25+0000</time>
      </trkpt>
      <trkpt lat="40.83713" lon="-1.9767700000000001">
        <time>2021-06-19T12:10:26+0000</time>
      </trkpt>
      <trkpt lat="40.83728" lon="-1.9769">
        <time>2021-06-19T12:10:27+0000</time>
      </trkpt>
      <trkpt lat="40.83744" lon="-1.97703">
        <time>2021-06-19T12:10:28+0000</time>
      </trkpt>
      <trkpt lat="40.8376" lon="-1.97717">
        <time>2021-06-19T12:10:29+0000</time>
      </trkpt>
      <trkpt lat="40.83776" lon="-1.9773">
        <time>2021-06-19T12:10:30+0000</time>
      </trkpt>
      <trkpt lat="40.837920000000004" lon="-1.97744">
        <time>2021-06-19T12:10:31+0000</time>
      </trkpt>
      <trkpt lat="40.83807" lon="-1.9775700000000003">
        <time>2021-06-19T12:10:32+0000</time>
      </trkpt>
      <trkpt lat="40.838210000000004" lon="-1.9776900000000002">
        <time>2021-06-19T12:10:33+0000</time>
      </trkpt>
      <trkpt lat="40.83834" lon="-1.9778000000000002">
        <time>2021-06-19T12:10:34+0000</time>
      </trkpt>
      <trkpt lat="40.838480000000004" lon="-1.9778900000000001">
        <time>2021-06-19T12:10:35+0000</time>
      </trkpt>
      <trkpt lat="40.838620000000006" lon="-1.97798">
        <time>2021-06-19T12:10:36+0000</time>
      </trkpt>
      <trkpt lat="40.83878" lon="-1.9780600000000002">
        <time>2021-06-19T12:10:37+0000</time>
      </trkpt>
      <trkpt lat="40.838950000000004" lon="-1.97812">
        <time>2021-06-19T12:10:38+0000</time>
      </trkpt>
      <trkpt lat="40.83912" lon="-1.9781700000000002">
        <time>2021-06-19T12:10:39+0000</time>
      </trkpt>
      <trkpt lat="40.839290000000005" lon="-1.97822">
        <time>2021-06-19T12:10:40+0000</time>
      </trkpt>
      <trkpt lat="40.83945000000001" lon="-1.97825">
        <time>2021-06-19T12:10:41+0000</time>
      </trkpt>
      <trkpt lat="40.839580000000005" lon="-1.9782800000000003">
        <time>2021-06-19T12:10:42+0000</time>
      </trkpt>
      <trkpt lat="40.83968" lon="-1.9783100000000002">
        <time>2021-06-19T12:10:43+0000</time>
      </trkpt>
      <trkpt lat="40.83975" lon="-1.97832">
        <time>2021-06-19T12:10:44+0000</time>
      </trkpt>
      <trkpt lat="40.839800000000004" lon="-1.9783300000000001">
        <time>2021-06-19T12:10:45+0000</time>
      </trkpt>
      <trkpt lat="40.83984" lon="-1.9783400000000002">
        <time>2021-06-19T12:10:46+0000</time>
      </trkpt>
      <trkpt lat="40.839870000000005" lon="-1.97832">
        <time>2021-06-19T12:10:47+0000</time>
      </trkpt>
      <trkpt lat="40.839890000000004" lon="-1.97832">
        <time>2021-06-19T12:10:48+0000</time>
      </trkpt>
      <trkpt lat="40.839920000000006" lon="-1.97832">
        <time>2021-06-19T12:10:49+0000</time>
      </trkpt>
      <trkpt lat="40.83995" lon="-1.97832">
        <time>2021-06-19T12:10:50+0000</time>
      </trkpt>
      <trkpt lat="40.83999" lon="-1.97832">
        <time>2021-06-19T12:10:51+0000</time>
      </trkpt>
      <trkpt lat="40.840030000000006" lon="-1.97832">
        <time>2021-06-19T12:10:52+0000</time>
      </trkpt>
      <trkpt lat="40.840070000000004" lon="-1.97832">
        <time>2021-06-19T12:10:53+0000</time>
      </trkpt>
      <trkpt lat="40.84010000000001" lon="-1.97832">
        <time>2021-06-19T12:10:54+0000</time>
      </trkpt>
      <trkpt lat="40.840120000000006" lon="-1.97832">
        <time>2021-06-19T12:10:55+0000</time>
      </trkpt>
      <trkpt lat="40.84015" lon="-1.97832">
        <time>2021-06-19T12:10:56+0000</time>
      </trkpt>
      <trkpt lat="40.84019000000001" lon="-1.9783300000000001">
        <time>2021-06-19T12:10:57+0000</time>
      </trkpt>
      <trkpt lat="40.84022" lon="-1.9783400000000002">
        <time>2021-06-19T12:10:58+0000</time>
      </trkpt>
      <trkpt lat="40.84026" lon="-1.9783600000000001">
        <time>2021-06-19T12:10:59+0000</time>
      </trkpt>
      <trkpt lat="40.840300000000006" lon="-1.9783800000000002">
        <time>2021-06-19T12:11:00+0000</time>
      </trkpt>
      <trkpt lat="40.840340000000005" lon="-1.9784000000000002">
        <time>2021-06-19T12:11:01+0000</time>
      </trkpt>
      <trkpt lat="40.84038" lon="-1.97842">
        <time>2021-06-19T12:11:02+0000</time>
      </trkpt>
      <trkpt lat="40.840410000000006" lon="-1.9784500000000003">
        <time>2021-06-19T12:11:03+0000</time>
      </trkpt>
      <trkpt lat="40.840450000000004" lon="-1.9784800000000002">
        <time>2021-06-19T12:11:04+0000</time>
      </trkpt>
      <trkpt lat="40.84049" lon="-1.9785000000000001">
        <time>2021-06-19T12:11:05+0000</time>
      </trkpt>
      <trkpt lat="40.840520000000005" lon="-1.97852">
        <time>2021-06-19T12:11:06+0000</time>
      </trkpt>
      <trkpt lat="40.84056" lon="-1.9785400000000002">
        <time>2021-06-19T12:11:07+0000</time>
      </trkpt>
      <trkpt lat="40.8406" lon="-1.97856">
        <time>2021-06-19T12:11:08+0000</time>
      </trkpt>
      <trkpt lat="40.84064" lon="-1.9785800000000002">
        <time>2021-06-19T12:11:09+0000</time>
      </trkpt>
      <trkpt lat="40.840680000000006" lon="-1.9786000000000001">
        <time>2021-06-19T12:11:10+0000</time>
      </trkpt>
      <trkpt lat="40.840720000000005" lon="-1.97863">
        <time>2021-06-19T12:11:11+0000</time>
      </trkpt>
      <trkpt lat="40.84076" lon="-1.97866">
        <time>2021-06-19T12:11:12+0000</time>
      </trkpt>
      <trkpt lat="40.8408" lon="-1.9786800000000002">
        <time>2021-06-19T12:11:13+0000</time>
      </trkpt>
      <trkpt lat="40.84084" lon="-1.9787100000000002">
        <time>2021-06-19T12:11:14+0000</time>
      </trkpt>
      <trkpt lat="40.840880000000006" lon="-1.97873">
        <time>2021-06-19T12:11:15+0000</time>
      </trkpt>
      <trkpt lat="40.840920000000004" lon="-1.97876">
        <time>2021-06-19T12:11:16+0000</time>
      </trkpt>
      <trkpt lat="40.840970000000006" lon="-1.9787900000000003">
        <time>2021-06-19T12:11:17+0000</time>
      </trkpt>
      <trkpt lat="40.84102" lon="-1.9788000000000001">
        <time>2021-06-19T12:11:18+0000</time>
      </trkpt>
      <trkpt lat="40.841060000000006" lon="-1.9788200000000002">
        <time>2021-06-19T12:11:19+0000</time>
      </trkpt>
      <trkpt lat="40.84111" lon="-1.9788400000000002">
        <time>2021-06-19T12:11:20+0000</time>
      </trkpt>
      <trkpt lat="40.84116" lon="-1.97886">
        <time>2021-06-19T12:11:21+0000</time>
      </trkpt>
      <trkpt lat="40.8412" lon="-1.9788800000000002">
        <time>2021-06-19T12:11:22+0000</time>
      </trkpt>
      <trkpt lat="40.84125" lon="-1.9788900000000003">
        <time>2021-06-19T12:11:23+0000</time>
      </trkpt>
      <trkpt lat="40.841300000000004" lon="-1.9789100000000002">
        <time>2021-06-19T12:11:24+0000</time>
      </trkpt>
      <trkpt lat="40.841350000000006" lon="-1.97893">
        <time>2021-06-19T12:11:25+0000</time>
      </trkpt>
      <trkpt lat="40.84141" lon="-1.9789500000000002">
        <time>2021-06-19T12:11:26+0000</time>
      </trkpt>
      <trkpt lat="40.841460000000005" lon="-1.97896">
        <time>2021-06-19T12:11:27+0000</time>
      </trkpt>
      <trkpt lat="40.84152" lon="-1.9789800000000002">
        <time>2021-06-19T12:11:28+0000</time>
      </trkpt>
      <trkpt lat="40.84156" lon="-1.9789900000000002">
        <time>2021-06-19T12:11:29+0000</time>
      </trkpt>
      <trkpt lat="40.84161" lon="-1.979">
        <time>2021-06-19T12:11:30+0000</time>
      </trkpt>
      <trkpt lat="40.84165" lon="-1.9790200000000002">
        <time>2021-06-19T12:11:31+0000</time>
      </trkpt>
      <trkpt lat="40.84169" lon="-1.97903">
        <time>2021-06-19T12:11:32+0000</time>
      </trkpt>
      <trkpt lat="40.84174" lon="-1.9790400000000001">
        <time>2021-06-19T12:11:33+0000</time>
      </trkpt>
      <trkpt lat="40.84179" lon="-1.9790400000000001">
        <time>2021-06-19T12:11:34+0000</time>
      </trkpt>
      <trkpt lat="40.841840000000005" lon="-1.9790400000000001">
        <time>2021-06-19T12:11:35+0000</time>
      </trkpt>
      <trkpt lat="40.84189000000001" lon="-1.9790400000000001">
        <time>2021-06-19T12:11:36+0000</time>
      </trkpt>
      <trkpt lat="40.841930000000005" lon="-1.9790400000000001">
        <time>2021-06-19T12:11:37+0000</time>
      </trkpt>
      <trkpt lat="40.84196" lon="-1.97903">
        <time>2021-06-19T12:11:38+0000</time>
      </trkpt>
      <trkpt lat="40.84198000000001" lon="-1.9790100000000002">
        <time>2021-06-19T12:11:39+0000</time>
      </trkpt>
      <trkpt lat="40.842000000000006" lon="-1.97903">
        <time>2021-06-19T12:11:40+0000</time>
      </trkpt>
      <trkpt lat="40.84201" lon="-1.9789400000000001">
        <time>2021-06-19T12:11:41+0000</time>
      </trkpt>
      <trkpt lat="40.84203" lon="-1.9789100000000002">
        <time>2021-06-19T12:11:42+0000</time>
      </trkpt>
      <trkpt lat="40.84205" lon="-1.9788800000000002">
        <time>2021-06-19T12:11:43+0000</time>
      </trkpt>
      <trkpt lat="40.84208" lon="-1.9788500000000002">
        <time>2021-06-19T12:11:44+0000</time>
      </trkpt>
      <trkpt lat="40.8421" lon="-1.9788200000000002">
        <time>2021-06-19T12:11:45+0000</time>
      </trkpt>
      <trkpt lat="40.84212" lon="-1.9787900000000003">
        <time>2021-06-19T12:11:46+0000</time>
      </trkpt>
      <trkpt lat="40.84214" lon="-1.9787700000000001">
        <time>2021-06-19T12:11:47+0000</time>
      </trkpt>
      <trkpt lat="40.84216" lon="-1.9787400000000002">
        <time>2021-06-19T12:11:48+0000</time>
      </trkpt>
      <trkpt lat="40.84219" lon="-1.9787000000000001">
        <time>2021-06-19T12:11:49+0000</time>
      </trkpt>
      <trkpt lat="40.84221" lon="-1.97866">
        <time>2021-06-19T12:11:50+0000</time>
      </trkpt>
      <trkpt lat="40.842240000000004" lon="-1.97863">
        <time>2021-06-19T12:11:51+0000</time>
      </trkpt>
      <trkpt lat="40.84226" lon="-1.97859">
        <time>2021-06-19T12:11:52+0000</time>
      </trkpt>
      <trkpt lat="40.842290000000006" lon="-1.9785500000000003">
        <time>2021-06-19T12:11:53+0000</time>
      </trkpt>
      <trkpt lat="40.842330000000004" lon="-1.9785000000000001">
        <time>2021-06-19T12:11:54+0000</time>
      </trkpt>
      <trkpt lat="40.842360000000006" lon="-1.97846">
        <time>2021-06-19T12:11:55+0000</time>
      </trkpt>
      <trkpt lat="40.842400000000005" lon="-1.9784100000000002">
        <time>2021-06-19T12:11:56+0000</time>
      </trkpt>
      <trkpt lat="40.84243" lon="-1.9783600000000001">
        <time>2021-06-19T12:11:57+0000</time>
      </trkpt>
      <trkpt lat="40.842470000000006" lon="-1.9783100000000002">
        <time>2021-06-19T12:11:58+0000</time>
      </trkpt>
      <trkpt lat="40.842510000000004" lon="-1.9782600000000001">
        <time>2021-06-19T12:11:59+0000</time>
      </trkpt>
      <trkpt lat="40.84255" lon="-1.9782100000000002">
        <time>2021-06-19T12:12:00+0000</time>
      </trkpt>
      <trkpt lat="40.84257" lon="-1.9781700000000002">
        <time>2021-06-19T12:12:01+0000</time>
      </trkpt>
      <trkpt lat="40.84261" lon="-1.97812">
        <time>2021-06-19T12:12:02+0000</time>
      </trkpt>
      <trkpt lat="40.842650000000006" lon="-1.9780600000000002">
        <time>2021-06-19T12:12:03+0000</time>
      </trkpt>
      <trkpt lat="40.84268" lon="-1.9780000000000002">
        <time>2021-06-19T12:12:04+0000</time>
      </trkpt>
      <trkpt lat="40.84272" lon="-1.9779400000000003">
        <time>2021-06-19T12:12:05+0000</time>
      </trkpt>
      <trkpt lat="40.84275" lon="-1.9778900000000001">
        <time>2021-06-19T12:12:06+0000</time>
      </trkpt>
      <trkpt lat="40.84279" lon="-1.9778400000000003">
        <time>2021-06-19T12:12:07+0000</time>
      </trkpt>
      <trkpt lat="40.84282" lon="-1.9778000000000002">
        <time>2021-06-19T12:12:08+0000</time>
      </trkpt>
      <trkpt lat="40.84284" lon="-1.9777600000000002">
        <time>2021-06-19T12:12:09+0000</time>
      </trkpt>
      <trkpt lat="40.842870000000005" lon="-1.97771">
        <time>2021-06-19T12:12:10+0000</time>
      </trkpt>
      <trkpt lat="40.842890000000004" lon="-1.9776600000000002">
        <time>2021-06-19T12:12:11+0000</time>
      </trkpt>
      <trkpt lat="40.84291" lon="-1.97761">
        <time>2021-06-19T12:12:12+0000</time>
      </trkpt>
      <trkpt lat="40.84293" lon="-1.9775300000000002">
        <time>2021-06-19T12:12:13+0000</time>
      </trkpt>
      <trkpt lat="40.84295" lon="-1.97744">
        <time>2021-06-19T12:12:14+0000</time>
      </trkpt>
      <trkpt lat="40.842960000000005" lon="-1.9773600000000002">
        <time>2021-06-19T12:12:15+0000</time>
      </trkpt>
      <trkpt lat="40.84297" lon="-1.97727">
        <time>2021-06-19T12:12:16+0000</time>
      </trkpt>
      <trkpt lat="40.84297" lon="-1.97717">
        <time>2021-06-19T12:12:17+0000</time>
      </trkpt>
      <trkpt lat="40.84297" lon="-1.9770500000000002">
        <time>2021-06-19T12:12:18+0000</time>
      </trkpt>
      <trkpt lat="40.84297" lon="-1.9769400000000001">
        <time>2021-06-19T12:12:19+0000</time>
      </trkpt>
      <trkpt lat="40.84297" lon="-1.9768200000000002">
        <time>2021-06-19T12:12:20+0000</time>
      </trkpt>
      <trkpt lat="40.84297" lon="-1.9766800000000002">
        <time>2021-06-19T12:12:21+0000</time>
      </trkpt>
      <trkpt lat="40.842980000000004" lon="-1.97652">
        <time>2021-06-19T12:12:22+0000</time>
      </trkpt>
      <trkpt lat="40.842980000000004" lon="-1.97635">
        <time>2021-06-19T12:12:23+0000</time>
      </trkpt>
      <trkpt lat="40.842980000000004" lon="-1.9761800000000003">
        <time>2021-06-19T12:12:24+0000</time>
      </trkpt>
      <trkpt lat="40.842980000000004" lon="-1.9760300000000002">
        <time>2021-06-19T12:12:25+0000</time>
      </trkpt>
      <trkpt lat="40.842960000000005" lon="-1.9758700000000002">
        <time>2021-06-19T12:12:26+0000</time>
      </trkpt>
      <trkpt lat="40.842960000000005" lon="-1.97571">
        <time>2021-06-19T12:12:27+0000</time>
      </trkpt>
      <trkpt lat="40.84292000000001" lon="-1.9755500000000001">
        <time>2021-06-19T12:12:28+0000</time>
      </trkpt>
      <trkpt lat="40.84288" lon="-1.9753900000000002">
        <time>2021-06-19T12:12:29+0000</time>
      </trkpt>
      <trkpt lat="40.842830000000006" lon="-1.9752200000000002">
        <time>2021-06-19T12:12:30+0000</time>
      </trkpt>
      <trkpt lat="40.84277" lon="-1.9750600000000003">
        <time>2021-06-19T12:12:31+0000</time>
      </trkpt>
      <trkpt lat="40.84272" lon="-1.9749200000000002">
        <time>2021-06-19T12:12:32+0000</time>
      </trkpt>
      <trkpt lat="40.842670000000005" lon="-1.9747800000000002">
        <time>2021-06-19T12:12:33+0000</time>
      </trkpt>
      <trkpt lat="40.84261" lon="-1.9746500000000002">
        <time>2021-06-19T12:12:34+0000</time>
      </trkpt>
      <trkpt lat="40.842510000000004" lon="-1.9745400000000002">
        <time>2021-06-19T12:12:35+0000</time>
      </trkpt>
      <trkpt lat="40.84239" lon="-1.9744400000000002">
        <time>2021-06-19T12:12:36+0000</time>
      </trkpt>
      <trkpt lat="40.84226" lon="-1.9743500000000003">
        <time>2021-06-19T12:12:37+0000</time>
      </trkpt>
      <trkpt lat="40.84214" lon="-1.97425">
        <time>2021-06-19T12:12:38+0000</time>
      </trkpt>
      <trkpt lat="40.84203" lon="-1.9741100000000003">
        <time>2021-06-19T12:12:39+0000</time>
      </trkpt>
      <trkpt lat="40.84194" lon="-1.9739300000000002">
        <time>2021-06-19T12:12:40+0000</time>
      </trkpt>
      <trkpt lat="40.84185" lon="-1.9737400000000003">
        <time>2021-06-19T12:12:41+0000</time>
      </trkpt>
      <trkpt lat="40.841770000000004" lon="-1.9735700000000003">
        <time>2021-06-19T12:12:42+0000</time>
      </trkpt>
      <trkpt lat="40.84167" lon="-1.97341">
        <time>2021-06-19T12:12:43+0000</time>
      </trkpt>
      <trkpt lat="40.84158" lon="-1.9732500000000002">
        <time>2021-06-19T12:12:44+0000</time>
      </trkpt>
      <trkpt lat="40.84149" lon="-1.9730900000000002">
        <time>2021-06-19T12:12:45+0000</time>
      </trkpt>
      <trkpt lat="40.84141" lon="-1.97293">
        <time>2021-06-19T12:12:46+0000</time>
      </trkpt>
      <trkpt lat="40.841330000000006" lon="-1.9727700000000001">
        <time>2021-06-19T12:12:47+0000</time>
      </trkpt>
      <trkpt lat="40.841260000000005" lon="-1.9726000000000001">
        <time>2021-06-19T12:12:48+0000</time>
      </trkpt>
      <trkpt lat="40.84118" lon="-1.9724300000000001">
        <time>2021-06-19T12:12:49+0000</time>
      </trkpt>
      <trkpt lat="40.841120000000004" lon="-1.9722300000000001">
        <time>2021-06-19T12:12:50+0000</time>
      </trkpt>
      <trkpt lat="40.841080000000005" lon="-1.97202">
        <time>2021-06-19T12:12:51+0000</time>
      </trkpt>
      <trkpt lat="40.841060000000006" lon="-1.9718000000000002">
        <time>2021-06-19T12:12:52+0000</time>
      </trkpt>
      <trkpt lat="40.84104000000001" lon="-1.97158">
        <time>2021-06-19T12:12:53+0000</time>
      </trkpt>
      <trkpt lat="40.84103" lon="-1.9713500000000002">
        <time>2021-06-19T12:12:54+0000</time>
      </trkpt>
      <trkpt lat="40.84102" lon="-1.9711200000000002">
        <time>2021-06-19T12:12:55+0000</time>
      </trkpt>
      <trkpt lat="40.84102" lon="-1.9708800000000002">
        <time>2021-06-19T12:12:56+0000</time>
      </trkpt>
      <trkpt lat="40.84103" lon="-1.97063">
        <time>2021-06-19T12:12:57+0000</time>
      </trkpt>
      <trkpt lat="40.84104000000001" lon="-1.9703700000000002">
        <time>2021-06-19T12:12:58+0000</time>
      </trkpt>
      <trkpt lat="40.841060000000006" lon="-1.97012">
        <time>2021-06-19T12:12:59+0000</time>
      </trkpt>
      <trkpt lat="40.84107" lon="-1.9698600000000002">
        <time>2021-06-19T12:13:00+0000</time>
      </trkpt>
      <trkpt lat="40.841080000000005" lon="-1.9696200000000001">
        <time>2021-06-19T12:13:01+0000</time>
      </trkpt>
      <trkpt lat="40.84109" lon="-1.9693900000000002">
        <time>2021-06-19T12:13:02+0000</time>
      </trkpt>
      <trkpt lat="40.84111" lon="-1.9691800000000002">
        <time>2021-06-19T12:13:03+0000</time>
      </trkpt>
      <trkpt lat="40.84114" lon="-1.96897">
        <time>2021-06-19T12:13:04+0000</time>
      </trkpt>
      <trkpt lat="40.8412" lon="-1.96876">
        <time>2021-06-19T12:13:05+0000</time>
      </trkpt>
      <trkpt lat="40.84127" lon="-1.9685400000000002">
        <time>2021-06-19T12:13:06+0000</time>
      </trkpt>
      <trkpt lat="40.84134" lon="-1.9683300000000001">
        <time>2021-06-19T12:13:07+0000</time>
      </trkpt>
      <trkpt lat="40.84141" lon="-1.9681300000000002">
        <time>2021-06-19T12:13:08+0000</time>
      </trkpt>
      <trkpt lat="40.84147" lon="-1.9679400000000002">
        <time>2021-06-19T12:13:09+0000</time>
      </trkpt>
      <trkpt lat="40.8415" lon="-1.9677300000000002">
        <time>2021-06-19T12:13:10+0000</time>
      </trkpt>
      <trkpt lat="40.84152" lon="-1.9675300000000002">
        <time>2021-06-19T12:13:11+0000</time>
      </trkpt>
      <trkpt lat="40.84154" lon="-1.9673500000000002">
        <time>2021-06-19T12:13:12+0000</time>
      </trkpt>
      <trkpt lat="40.84156" lon="-1.9671800000000002">
        <time>2021-06-19T12:13:13+0000</time>
      </trkpt>
      <trkpt lat="40.84158" lon="-1.9670200000000002">
        <time>2021-06-19T12:13:14+0000</time>
      </trkpt>
      <trkpt lat="40.84161" lon="-1.9668800000000002">
        <time>2021-06-19T12:13:15+0000</time>
      </trkpt>
      <trkpt lat="40.84165" lon="-1.9667500000000002">
        <time>2021-06-19T12:13:16+0000</time>
      </trkpt>
      <trkpt lat="40.841730000000005" lon="-1.9666200000000003">
        <time>2021-06-19T12:13:17+0000</time>
      </trkpt>
      <trkpt lat="40.84183" lon="-1.9665100000000002">
        <time>2021-06-19T12:13:18+0000</time>
      </trkpt>
      <trkpt lat="40.84194" lon="-1.9664100000000002">
        <time>2021-06-19T12:13:19+0000</time>
      </trkpt>
      <trkpt lat="40.842040000000004" lon="-1.9663300000000001">
        <time>2021-06-19T12:13:20+0000</time>
      </trkpt>
      <trkpt lat="40.842130000000004" lon="-1.9662300000000001">
        <time>2021-06-19T12:13:21+0000</time>
      </trkpt>
      <trkpt lat="40.842200000000005" lon="-1.9661300000000002">
        <time>2021-06-19T12:13:22+0000</time>
      </trkpt>
      <trkpt lat="40.84228" lon="-1.9660400000000002">
        <time>2021-06-19T12:13:23+0000</time>
      </trkpt>
      <trkpt lat="40.842330000000004" lon="-1.9659400000000002">
        <time>2021-06-19T12:13:24+0000</time>
      </trkpt>
      <trkpt lat="40.84239" lon="-1.9658400000000003">
        <time>2021-06-19T12:13:25+0000</time>
      </trkpt>
      <trkpt lat="40.84245000000001" lon="-1.96575">
        <time>2021-06-19T12:13:26+0000</time>
      </trkpt>
      <trkpt lat="40.842510000000004" lon="-1.96564">
        <time>2021-06-19T12:13:27+0000</time>
      </trkpt>
      <trkpt lat="40.842580000000005" lon="-1.96554">
        <time>2021-06-19T12:13:28+0000</time>
      </trkpt>
      <trkpt lat="40.84264" lon="-1.96544">
        <time>2021-06-19T12:13:29+0000</time>
      </trkpt>
      <trkpt lat="40.842690000000005" lon="-1.9653500000000002">
        <time>2021-06-19T12:13:30+0000</time>
      </trkpt>
      <trkpt lat="40.84273" lon="-1.9652600000000002">
        <time>2021-06-19T12:13:31+0000</time>
      </trkpt>
      <trkpt lat="40.84275" lon="-1.9651500000000002">
        <time>2021-06-19T12:13:32+0000</time>
      </trkpt>
      <trkpt lat="40.842740000000006" lon="-1.96503">
        <time>2021-06-19T12:13:33+0000</time>
      </trkpt>
      <trkpt lat="40.842740000000006" lon="-1.9648900000000002">
        <time>2021-06-19T12:13:34+0000</time>
      </trkpt>
      <trkpt lat="40.84273" lon="-1.9647400000000002">
        <time>2021-06-19T12:13:35+0000</time>
      </trkpt>
      <trkpt lat="40.842710000000004" lon="-1.96459">
        <time>2021-06-19T12:13:36+0000</time>
      </trkpt>
      <trkpt lat="40.8427" lon="-1.9644300000000001">
        <time>2021-06-19T12:13:37+0000</time>
      </trkpt>
      <trkpt lat="40.842690000000005" lon="-1.9642600000000001">
        <time>2021-06-19T12:13:38+0000</time>
      </trkpt>
      <trkpt lat="40.84268" lon="-1.9640700000000002">
        <time>2021-06-19T12:13:39+0000</time>
      </trkpt>
      <trkpt lat="40.842670000000005" lon="-1.9638700000000002">
        <time>2021-06-19T12:13:40+0000</time>
      </trkpt>
      <trkpt lat="40.842650000000006" lon="-1.9636900000000002">
        <time>2021-06-19T12:13:41+0000</time>
      </trkpt>
      <trkpt lat="40.842620000000004" lon="-1.9635200000000002">
        <time>2021-06-19T12:13:42+0000</time>
      </trkpt>
      <trkpt lat="40.842600000000004" lon="-1.9633500000000002">
        <time>2021-06-19T12:13:43+0000</time>
      </trkpt>
      <trkpt lat="40.842600000000004" lon="-1.9632">
        <time>2021-06-19T12:13:44+0000</time>
      </trkpt>
      <trkpt lat="40.84263000000001" lon="-1.9630500000000002">
        <time>2021-06-19T12:13:45+0000</time>
      </trkpt>
      <trkpt lat="40.842690000000005" lon="-1.96293">
        <time>2021-06-19T12:13:46+0000</time>
      </trkpt>
      <trkpt lat="40.842780000000005" lon="-1.9628500000000002">
        <time>2021-06-19T12:13:47+0000</time>
      </trkpt>
      <trkpt lat="40.842890000000004" lon="-1.9627800000000002">
        <time>2021-06-19T12:13:48+0000</time>
      </trkpt>
      <trkpt lat="40.84301000000001" lon="-1.9627100000000002">
        <time>2021-06-19T12:13:49+0000</time>
      </trkpt>
      <trkpt lat="40.84313" lon="-1.9626000000000001">
        <time>2021-06-19T12:13:50+0000</time>
      </trkpt>
      <trkpt lat="40.843230000000005" lon="-1.96246">
        <time>2021-06-19T12:13:51+0000</time>
      </trkpt>
      <trkpt lat="40.843320000000006" lon="-1.9622800000000002">
        <time>2021-06-19T12:13:52+0000</time>
      </trkpt>
      <trkpt lat="40.84339000000001" lon="-1.9620800000000003">
        <time>2021-06-19T12:13:53+0000</time>
      </trkpt>
      <trkpt lat="40.843450000000004" lon="-1.96188">
        <time>2021-06-19T12:13:54+0000</time>
      </trkpt>
      <trkpt lat="40.84353" lon="-1.9616900000000002">
        <time>2021-06-19T12:13:55+0000</time>
      </trkpt>
      <trkpt lat="40.843630000000005" lon="-1.9615000000000002">
        <time>2021-06-19T12:13:56+0000</time>
      </trkpt>
      <trkpt lat="40.843740000000004" lon="-1.9613300000000002">
        <time>2021-06-19T12:13:57+0000</time>
      </trkpt>
      <trkpt lat="40.84387" lon="-1.96117">
        <time>2021-06-19T12:13:58+0000</time>
      </trkpt>
      <trkpt lat="40.84396" lon="-1.9609800000000002">
        <time>2021-06-19T12:13:59+0000</time>
      </trkpt>
      <trkpt lat="40.843990000000005" lon="-1.9607500000000002">
        <time>2021-06-19T12:14:00+0000</time>
      </trkpt>
      <trkpt lat="40.843990000000005" lon="-1.9605000000000001">
        <time>2021-06-19T12:14:01+0000</time>
      </trkpt>
      <trkpt lat="40.843990000000005" lon="-1.9602600000000001">
        <time>2021-06-19T12:14:02+0000</time>
      </trkpt>
      <trkpt lat="40.844010000000004" lon="-1.9600100000000003">
        <time>2021-06-19T12:14:03+0000</time>
      </trkpt>
      <trkpt lat="40.844060000000006" lon="-1.9597600000000002">
        <time>2021-06-19T12:14:04+0000</time>
      </trkpt>
      <trkpt lat="40.844120000000004" lon="-1.9595000000000002">
        <time>2021-06-19T12:14:05+0000</time>
      </trkpt>
      <trkpt lat="40.84418" lon="-1.9592600000000002">
        <time>2021-06-19T12:14:06+0000</time>
      </trkpt>
      <trkpt lat="40.844240000000006" lon="-1.9590200000000002">
        <time>2021-06-19T12:14:07+0000</time>
      </trkpt>
      <trkpt lat="40.84429" lon="-1.9587800000000002">
        <time>2021-06-19T12:14:08+0000</time>
      </trkpt>
      <trkpt lat="40.844370000000005" lon="-1.9585500000000002">
        <time>2021-06-19T12:14:09+0000</time>
      </trkpt>
      <trkpt lat="40.84443" lon="-1.9583000000000002">
        <time>2021-06-19T12:14:10+0000</time>
      </trkpt>
      <trkpt lat="40.84449" lon="-1.9580400000000002">
        <time>2021-06-19T12:14:11+0000</time>
      </trkpt>
      <trkpt lat="40.84452" lon="-1.9577700000000002">
        <time>2021-06-19T12:14:12+0000</time>
      </trkpt>
      <trkpt lat="40.84454" lon="-1.9574900000000002">
        <time>2021-06-19T12:14:13+0000</time>
      </trkpt>
      <trkpt lat="40.84454" lon="-1.9571900000000002">
        <time>2021-06-19T12:14:14+0000</time>
      </trkpt>
      <trkpt lat="40.844550000000005" lon="-1.9569">
        <time>2021-06-19T12:14:15+0000</time>
      </trkpt>
      <trkpt lat="40.844550000000005" lon="-1.9566100000000002">
        <time>2021-06-19T12:14:16+0000</time>
      </trkpt>
      <trkpt lat="40.84456" lon="-1.9563400000000002">
        <time>2021-06-19T12:14:17+0000</time>
      </trkpt>
      <trkpt lat="40.84456" lon="-1.9560700000000002">
        <time>2021-06-19T12:14:18+0000</time>
      </trkpt>
      <trkpt lat="40.844550000000005" lon="-1.9558100000000003">
        <time>2021-06-19T12:14:19+0000</time>
      </trkpt>
      <trkpt lat="40.84454" lon="-1.9555600000000002">
        <time>2021-06-19T12:14:20+0000</time>
      </trkpt>
      <trkpt lat="40.844530000000006" lon="-1.9553000000000003">
        <time>2021-06-19T12:14:21+0000</time>
      </trkpt>
      <trkpt lat="40.844530000000006" lon="-1.9550600000000002">
        <time>2021-06-19T12:14:22+0000</time>
      </trkpt>
      <trkpt lat="40.844530000000006" lon="-1.9548100000000002">
        <time>2021-06-19T12:14:23+0000</time>
      </trkpt>
      <trkpt lat="40.84458" lon="-1.9545800000000002">
        <time>2021-06-19T12:14:24+0000</time>
      </trkpt>
      <trkpt lat="40.84463" lon="-1.95436">
        <time>2021-06-19T12:14:25+0000</time>
      </trkpt>
      <trkpt lat="40.84469" lon="-1.9541400000000002">
        <time>2021-06-19T12:14:26+0000</time>
      </trkpt>
      <trkpt lat="40.844750000000005" lon="-1.95392">
        <time>2021-06-19T12:14:27+0000</time>
      </trkpt>
      <trkpt lat="40.84483" lon="-1.9537200000000001">
        <time>2021-06-19T12:14:28+0000</time>
      </trkpt>
      <trkpt lat="40.8449" lon="-1.9535200000000001">
        <time>2021-06-19T12:14:29+0000</time>
      </trkpt>
      <trkpt lat="40.845000000000006" lon="-1.95334">
        <time>2021-06-19T12:14:30+0000</time>
      </trkpt>
      <trkpt lat="40.84512" lon="-1.9531600000000002">
        <time>2021-06-19T12:14:31+0000</time>
      </trkpt>
      <trkpt lat="40.84525" lon="-1.953">
        <time>2021-06-19T12:14:32+0000</time>
      </trkpt>
      <trkpt lat="40.84541" lon="-1.9528400000000001">
        <time>2021-06-19T12:14:33+0000</time>
      </trkpt>
      <trkpt lat="40.845580000000005" lon="-1.9527">
        <time>2021-06-19T12:14:34+0000</time>
      </trkpt>
      <trkpt lat="40.84575" lon="-1.95256">
        <time>2021-06-19T12:14:35+0000</time>
      </trkpt>
      <trkpt lat="40.84592000000001" lon="-1.9524000000000001">
        <time>2021-06-19T12:14:36+0000</time>
      </trkpt>
      <trkpt lat="40.846070000000005" lon="-1.9522300000000001">
        <time>2021-06-19T12:14:37+0000</time>
      </trkpt>
      <trkpt lat="40.8462" lon="-1.95202">
        <time>2021-06-19T12:14:38+0000</time>
      </trkpt>
      <trkpt lat="40.84631" lon="-1.95178">
        <time>2021-06-19T12:14:39+0000</time>
      </trkpt>
      <trkpt lat="40.8464" lon="-1.9515300000000002">
        <time>2021-06-19T12:14:40+0000</time>
      </trkpt>
      <trkpt lat="40.84648000000001" lon="-1.95127">
        <time>2021-06-19T12:14:41+0000</time>
      </trkpt>
      <trkpt lat="40.84657" lon="-1.9510100000000001">
        <time>2021-06-19T12:14:42+0000</time>
      </trkpt>
      <trkpt lat="40.846650000000004" lon="-1.95076">
        <time>2021-06-19T12:14:43+0000</time>
      </trkpt>
      <trkpt lat="40.846740000000004" lon="-1.9505200000000003">
        <time>2021-06-19T12:14:44+0000</time>
      </trkpt>
      <trkpt lat="40.846810000000005" lon="-1.9502700000000002">
        <time>2021-06-19T12:14:45+0000</time>
      </trkpt>
      <trkpt lat="40.84689" lon="-1.95002">
        <time>2021-06-19T12:14:46+0000</time>
      </trkpt>
      <trkpt lat="40.846970000000006" lon="-1.9497700000000002">
        <time>2021-06-19T12:14:47+0000</time>
      </trkpt>
      <trkpt lat="40.847060000000006" lon="-1.94951">
        <time>2021-06-19T12:14:48+0000</time>
      </trkpt>
      <trkpt lat="40.847150000000006" lon="-1.9492600000000002">
        <time>2021-06-19T12:14:49+0000</time>
      </trkpt>
      <trkpt lat="40.84723" lon="-1.9490100000000001">
        <time>2021-06-19T12:14:50+0000</time>
      </trkpt>
      <trkpt lat="40.84732" lon="-1.9487600000000003">
        <time>2021-06-19T12:14:51+0000</time>
      </trkpt>
      <trkpt lat="40.84741" lon="-1.9485100000000002">
        <time>2021-06-19T12:14:52+0000</time>
      </trkpt>
      <trkpt lat="40.84749" lon="-1.9482800000000002">
        <time>2021-06-19T12:14:53+0000</time>
      </trkpt>
      <trkpt lat="40.84756" lon="-1.9480400000000002">
        <time>2021-06-19T12:14:54+0000</time>
      </trkpt>
      <trkpt lat="40.847640000000006" lon="-1.9478100000000003">
        <time>2021-06-19T12:14:55+0000</time>
      </trkpt>
      <trkpt lat="40.847710000000006" lon="-1.94758">
        <time>2021-06-19T12:14:56+0000</time>
      </trkpt>
      <trkpt lat="40.84778" lon="-1.94734">
        <time>2021-06-19T12:14:57+0000</time>
      </trkpt>
      <trkpt lat="40.847840000000005" lon="-1.9471">
        <time>2021-06-19T12:14:58+0000</time>
      </trkpt>
      <trkpt lat="40.8479" lon="-1.9468400000000001">
        <time>2021-06-19T12:14:59+0000</time>
      </trkpt>
      <trkpt lat="40.847970000000004" lon="-1.9465800000000002">
        <time>2021-06-19T12:15:00+0000</time>
      </trkpt>
      <trkpt lat="40.84807" lon="-1.9463100000000002">
        <time>2021-06-19T12:15:01+0000</time>
      </trkpt>
      <trkpt lat="40.84817" lon="-1.9460400000000002">
        <time>2021-06-19T12:15:02+0000</time>
      </trkpt>
      <trkpt lat="40.84828" lon="-1.9457600000000002">
        <time>2021-06-19T12:15:03+0000</time>
      </trkpt>
      <trkpt lat="40.84839" lon="-1.9454700000000003">
        <time>2021-06-19T12:15:04+0000</time>
      </trkpt>
      <trkpt lat="40.8485" lon="-1.9451800000000001">
        <time>2021-06-19T12:15:05+0000</time>
      </trkpt>
      <trkpt lat="40.84863" lon="-1.9448900000000002">
        <time>2021-06-19T12:15:06+0000</time>
      </trkpt>
      <trkpt lat="40.84879" lon="-1.9446200000000002">
        <time>2021-06-19T12:15:07+0000</time>
      </trkpt>
      <trkpt lat="40.848960000000005" lon="-1.94436">
        <time>2021-06-19T12:15:08+0000</time>
      </trkpt>
      <trkpt lat="40.8491" lon="-1.9440700000000002">
        <time>2021-06-19T12:15:09+0000</time>
      </trkpt>
      <trkpt lat="40.84922" lon="-1.9437400000000002">
        <time>2021-06-19T12:15:10+0000</time>
      </trkpt>
      <trkpt lat="40.849340000000005" lon="-1.9434200000000001">
        <time>2021-06-19T12:15:11+0000</time>
      </trkpt>
      <trkpt lat="40.84946" lon="-1.9431100000000001">
        <time>2021-06-19T12:15:12+0000</time>
      </trkpt>
      <trkpt lat="40.84957" lon="-1.9428100000000001">
        <time>2021-06-19T12:15:13+0000</time>
      </trkpt>
      <trkpt lat="40.849680000000006" lon="-1.94253">
        <time>2021-06-19T12:15:14+0000</time>
      </trkpt>
      <trkpt lat="40.8498" lon="-1.94226">
        <time>2021-06-19T12:15:15+0000</time>
      </trkpt>
      <trkpt lat="40.84991" lon="-1.9420100000000002">
        <time>2021-06-19T12:15:16+0000</time>
      </trkpt>
      <trkpt lat="40.850030000000004" lon="-1.9417600000000002">
        <time>2021-06-19T12:15:17+0000</time>
      </trkpt>
      <trkpt lat="40.850170000000006" lon="-1.9415300000000002">
        <time>2021-06-19T12:15:18+0000</time>
      </trkpt>
      <trkpt lat="40.85033000000001" lon="-1.94131">
        <time>2021-06-19T12:15:19+0000</time>
      </trkpt>
      <trkpt lat="40.850500000000004" lon="-1.9410800000000001">
        <time>2021-06-19T12:15:20+0000</time>
      </trkpt>
      <trkpt lat="40.850680000000004" lon="-1.9408500000000002">
        <time>2021-06-19T12:15:21+0000</time>
      </trkpt>
      <trkpt lat="40.85085" lon="-1.9406200000000002">
        <time>2021-06-19T12:15:22+0000</time>
      </trkpt>
      <trkpt lat="40.851020000000005" lon="-1.9404000000000001">
        <time>2021-06-19T12:15:23+0000</time>
      </trkpt>
      <trkpt lat="40.85119" lon="-1.9401800000000002">
        <time>2021-06-19T12:15:24+0000</time>
      </trkpt>
      <trkpt lat="40.851350000000004" lon="-1.9399700000000002">
        <time>2021-06-19T12:15:25+0000</time>
      </trkpt>
      <trkpt lat="40.8515" lon="-1.9397600000000002">
        <time>2021-06-19T12:15:26+0000</time>
      </trkpt>
      <trkpt lat="40.85166" lon="-1.9395600000000002">
        <time>2021-06-19T12:15:27+0000</time>
      </trkpt>
      <trkpt lat="40.851820000000004" lon="-1.9393500000000001">
        <time>2021-06-19T12:15:28+0000</time>
      </trkpt>
      <trkpt lat="40.851980000000005" lon="-1.9391300000000002">
        <time>2021-06-19T12:15:29+0000</time>
      </trkpt>
      <trkpt lat="40.85215" lon="-1.9389100000000001">
        <time>2021-06-19T12:15:30+0000</time>
      </trkpt>
      <trkpt lat="40.85231" lon="-1.9387">
        <time>2021-06-19T12:15:31+0000</time>
      </trkpt>
      <trkpt lat="40.85248" lon="-1.9384800000000002">
        <time>2021-06-19T12:15:32+0000</time>
      </trkpt>
      <trkpt lat="40.852650000000004" lon="-1.93826">
        <time>2021-06-19T12:15:33+0000</time>
      </trkpt>
      <trkpt lat="40.852810000000005" lon="-1.9380400000000002">
        <time>2021-06-19T12:15:34+0000</time>
      </trkpt>
      <trkpt lat="40.85298" lon="-1.93782">
        <time>2021-06-19T12:15:35+0000</time>
      </trkpt>
      <trkpt lat="40.85314" lon="-1.93761">
        <time>2021-06-19T12:15:36+0000</time>
      </trkpt>
      <trkpt lat="40.853260000000006" lon="-1.9373500000000001">
        <time>2021-06-19T12:15:37+0000</time>
      </trkpt>
      <trkpt lat="40.85338" lon="-1.9371000000000003">
        <time>2021-06-19T12:15:38+0000</time>
      </trkpt>
      <trkpt lat="40.853500000000004" lon="-1.9368400000000001">
        <time>2021-06-19T12:15:39+0000</time>
      </trkpt>
      <trkpt lat="40.85361" lon="-1.9365700000000001">
        <time>2021-06-19T12:15:40+0000</time>
      </trkpt>
      <trkpt lat="40.853730000000006" lon="-1.9363000000000001">
        <time>2021-06-19T12:15:41+0000</time>
      </trkpt>
      <trkpt lat="40.85385" lon="-1.93602">
        <time>2021-06-19T12:15:42+0000</time>
      </trkpt>
      <trkpt lat="40.85398" lon="-1.93572">
        <time>2021-06-19T12:15:43+0000</time>
      </trkpt>
      <trkpt lat="40.854110000000006" lon="-1.93544">
        <time>2021-06-19T12:15:44+0000</time>
      </trkpt>
      <trkpt lat="40.854240000000004" lon="-1.9351500000000001">
        <time>2021-06-19T12:15:45+0000</time>
      </trkpt>
      <trkpt lat="40.85436000000001" lon="-1.9348600000000002">
        <time>2021-06-19T12:15:46+0000</time>
      </trkpt>
      <trkpt lat="40.85448" lon="-1.9345900000000003">
        <time>2021-06-19T12:15:47+0000</time>
      </trkpt>
      <trkpt lat="40.854620000000004" lon="-1.9343400000000002">
        <time>2021-06-19T12:15:48+0000</time>
      </trkpt>
      <trkpt lat="40.85473" lon="-1.9340800000000002">
        <time>2021-06-19T12:15:49+0000</time>
      </trkpt>
      <trkpt lat="40.85483000000001" lon="-1.9338300000000002">
        <time>2021-06-19T12:15:50+0000</time>
      </trkpt>
      <trkpt lat="40.85493" lon="-1.9335700000000002">
        <time>2021-06-19T12:15:51+0000</time>
      </trkpt>
      <trkpt lat="40.854980000000005" lon="-1.9332700000000003">
        <time>2021-06-19T12:15:52+0000</time>
      </trkpt>
      <trkpt lat="40.85506" lon="-1.9329900000000002">
        <time>2021-06-19T12:15:53+0000</time>
      </trkpt>
      <trkpt lat="40.855140000000006" lon="-1.9326900000000002">
        <time>2021-06-19T12:15:54+0000</time>
      </trkpt>
      <trkpt lat="40.855230000000006" lon="-1.9324000000000001">
        <time>2021-06-19T12:15:55+0000</time>
      </trkpt>
      <trkpt lat="40.85531" lon="-1.9321100000000002">
        <time>2021-06-19T12:15:56+0000</time>
      </trkpt>
      <trkpt lat="40.85539" lon="-1.9318400000000002">
        <time>2021-06-19T12:15:57+0000</time>
      </trkpt>
      <trkpt lat="40.855470000000004" lon="-1.9315700000000002">
        <time>2021-06-19T12:15:58+0000</time>
      </trkpt>
      <trkpt lat="40.855540000000005" lon="-1.9313200000000001">
        <time>2021-06-19T12:15:59+0000</time>
      </trkpt>
      <trkpt lat="40.855610000000006" lon="-1.9310900000000002">
        <time>2021-06-19T12:16:00+0000</time>
      </trkpt>
      <trkpt lat="40.85567" lon="-1.93087">
        <time>2021-06-19T12:16:01+0000</time>
      </trkpt>
      <trkpt lat="40.85573" lon="-1.9306600000000003">
        <time>2021-06-19T12:16:02+0000</time>
      </trkpt>
      <trkpt lat="40.85578" lon="-1.9304700000000001">
        <time>2021-06-19T12:16:03+0000</time>
      </trkpt>
      <trkpt lat="40.85584" lon="-1.9302700000000002">
        <time>2021-06-19T12:16:04+0000</time>
      </trkpt>
      <trkpt lat="40.855900000000005" lon="-1.9300800000000002">
        <time>2021-06-19T12:16:05+0000</time>
      </trkpt>
      <trkpt lat="40.85595" lon="-1.9298700000000002">
        <time>2021-06-19T12:16:06+0000</time>
      </trkpt>
      <trkpt lat="40.85602" lon="-1.9296700000000002">
        <time>2021-06-19T12:16:07+0000</time>
      </trkpt>
      <trkpt lat="40.856100000000005" lon="-1.92945">
        <time>2021-06-19T12:16:08+0000</time>
      </trkpt>
      <trkpt lat="40.856210000000004" lon="-1.9292500000000001">
        <time>2021-06-19T12:16:09+0000</time>
      </trkpt>
      <trkpt lat="40.856350000000006" lon="-1.9291000000000003">
        <time>2021-06-19T12:16:10+0000</time>
      </trkpt>
      <trkpt lat="40.85647" lon="-1.92894">
        <time>2021-06-19T12:16:11+0000</time>
      </trkpt>
      <trkpt lat="40.85658" lon="-1.9288200000000002">
        <time>2021-06-19T12:16:12+0000</time>
      </trkpt>
      <trkpt lat="40.85665" lon="-1.9287">
        <time>2021-06-19T12:16:13+0000</time>
      </trkpt>
      <trkpt lat="40.85672" lon="-1.9286100000000002">
        <time>2021-06-19T12:16:14+0000</time>
      </trkpt>
      <trkpt lat="40.85676" lon="-1.9285500000000002">
        <time>2021-06-19T12:16:15+0000</time>
      </trkpt>
      <trkpt lat="40.85680000000001" lon="-1.9284900000000003">
        <time>2021-06-19T12:16:16+0000</time>
      </trkpt>
      <trkpt lat="40.85683" lon="-1.92843">
        <time>2021-06-19T12:16:17+0000</time>
      </trkpt>
      <trkpt lat="40.85687" lon="-1.9283800000000002">
        <time>2021-06-19T12:16:18+0000</time>
      </trkpt>
      <trkpt lat="40.856910000000006" lon="-1.92833">
        <time>2021-06-19T12:16:19+0000</time>
      </trkpt>
      <trkpt lat="40.85694" lon="-1.92829">
        <time>2021-06-19T12:16:20+0000</time>
      </trkpt>
      <trkpt lat="40.856970000000004" lon="-1.9282500000000002">
        <time>2021-06-19T12:16:21+0000</time>
      </trkpt>
      <trkpt lat="40.857000000000006" lon="-1.9282200000000003">
        <time>2021-06-19T12:16:22+0000</time>
      </trkpt>
      <trkpt lat="40.857020000000006" lon="-1.92819">
        <time>2021-06-19T12:16:23+0000</time>
      </trkpt>
      <trkpt lat="40.857040000000005" lon="-1.92816">
        <time>2021-06-19T12:16:24+0000</time>
      </trkpt>
      <trkpt lat="40.857060000000004" lon="-1.9281300000000001">
        <time>2021-06-19T12:16:25+0000</time>
      </trkpt>
      <trkpt lat="40.85708" lon="-1.9281100000000002">
        <time>2021-06-19T12:16:26+0000</time>
      </trkpt>
      <trkpt lat="40.8571" lon="-1.92809">
        <time>2021-06-19T12:16:27+0000</time>
      </trkpt>
      <trkpt lat="40.85712" lon="-1.92806">
        <time>2021-06-19T12:16:28+0000</time>
      </trkpt>
      <trkpt lat="40.857150000000004" lon="-1.9280300000000001">
        <time>2021-06-19T12:16:29+0000</time>
      </trkpt>
      <trkpt lat="40.85717" lon="-1.92799">
        <time>2021-06-19T12:16:30+0000</time>
      </trkpt>
      <trkpt lat="40.857200000000006" lon="-1.9279600000000001">
        <time>2021-06-19T12:16:31+0000</time>
      </trkpt>
      <trkpt lat="40.857240000000004" lon="-1.9279100000000002">
        <time>2021-06-19T12:16:32+0000</time>
      </trkpt>
      <trkpt lat="40.85728" lon="-1.9278600000000001">
        <time>2021-06-19T12:16:33+0000</time>
      </trkpt>
      <trkpt lat="40.85732" lon="-1.9278100000000002">
        <time>2021-06-19T12:16:34+0000</time>
      </trkpt>
      <trkpt lat="40.85737" lon="-1.9277400000000002">
        <time>2021-06-19T12:16:35+0000</time>
      </trkpt>
      <trkpt lat="40.85743" lon="-1.9276700000000002">
        <time>2021-06-19T12:16:36+0000</time>
      </trkpt>
      <trkpt lat="40.85748" lon="-1.9276100000000003">
        <time>2021-06-19T12:16:37+0000</time>
      </trkpt>
      <trkpt lat="40.857530000000004" lon="-1.9275400000000003">
        <time>2021-06-19T12:16:38+0000</time>
      </trkpt>
      <trkpt lat="40.857580000000006" lon="-1.92748">
        <time>2021-06-19T12:16:39+0000</time>
      </trkpt>
      <trkpt lat="40.85764" lon="-1.9274000000000002">
        <time>2021-06-19T12:16:40+0000</time>
      </trkpt>
      <trkpt lat="40.8577" lon="-1.9273200000000001">
        <time>2021-06-19T12:16:41+0000</time>
      </trkpt>
      <trkpt lat="40.85777" lon="-1.92724">
        <time>2021-06-19T12:16:42+0000</time>
      </trkpt>
      <trkpt lat="40.85784" lon="-1.9271500000000001">
        <time>2021-06-19T12:16:43+0000</time>
      </trkpt>
      <trkpt lat="40.85792" lon="-1.9270500000000002">
        <time>2021-06-19T12:16:44+0000</time>
      </trkpt>
      <trkpt lat="40.858000000000004" lon="-1.9269500000000002">
        <time>2021-06-19T12:16:45+0000</time>
      </trkpt>
      <trkpt lat="40.85808" lon="-1.9268500000000002">
        <time>2021-06-19T12:16:46+0000</time>
      </trkpt>
      <trkpt lat="40.858160000000005" lon="-1.9267500000000002">
        <time>2021-06-19T12:16:47+0000</time>
      </trkpt>
      <trkpt lat="40.85824" lon="-1.9266600000000003">
        <time>2021-06-19T12:16:48+0000</time>
      </trkpt>
      <trkpt lat="40.85831" lon="-1.9265700000000001">
        <time>2021-06-19T12:16:49+0000</time>
      </trkpt>
      <trkpt lat="40.85837" lon="-1.9264900000000003">
        <time>2021-06-19T12:16:50+0000</time>
      </trkpt>
      <trkpt lat="40.85844" lon="-1.9264000000000001">
        <time>2021-06-19T12:16:51+0000</time>
      </trkpt>
      <trkpt lat="40.85850000000001" lon="-1.9263200000000003">
        <time>2021-06-19T12:16:52+0000</time>
      </trkpt>
      <trkpt lat="40.85857" lon="-1.9262400000000002">
        <time>2021-06-19T12:16:53+0000</time>
      </trkpt>
      <trkpt lat="40.85864" lon="-1.9261400000000002">
        <time>2021-06-19T12:16:54+0000</time>
      </trkpt>
      <trkpt lat="40.858720000000005" lon="-1.9260400000000002">
        <time>2021-06-19T12:16:55+0000</time>
      </trkpt>
      <trkpt lat="40.8588" lon="-1.9259400000000002">
        <time>2021-06-19T12:16:56+0000</time>
      </trkpt>
      <trkpt lat="40.85887" lon="-1.92585">
        <time>2021-06-19T12:16:57+0000</time>
      </trkpt>
      <trkpt lat="40.858940000000004" lon="-1.9257700000000002">
        <time>2021-06-19T12:16:58+0000</time>
      </trkpt>
      <trkpt lat="40.859" lon="-1.9256900000000001">
        <time>2021-06-19T12:16:59+0000</time>
      </trkpt>
      <trkpt lat="40.85905" lon="-1.9256300000000002">
        <time>2021-06-19T12:17:00+0000</time>
      </trkpt>
      <trkpt lat="40.859100000000005" lon="-1.9255700000000002">
        <time>2021-06-19T12:17:01+0000</time>
      </trkpt>
      <trkpt lat="40.859140000000004" lon="-1.92551">
        <time>2021-06-19T12:17:02+0000</time>
      </trkpt>
      <trkpt lat="40.859190000000005" lon="-1.92545">
        <time>2021-06-19T12:17:03+0000</time>
      </trkpt>
      <trkpt lat="40.85924000000001" lon="-1.9253900000000002">
        <time>2021-06-19T12:17:04+0000</time>
      </trkpt>
      <trkpt lat="40.859280000000005" lon="-1.92531">
        <time>2021-06-19T12:17:05+0000</time>
      </trkpt>
      <trkpt lat="40.85931" lon="-1.9252500000000001">
        <time>2021-06-19T12:17:06+0000</time>
      </trkpt>
      <trkpt lat="40.85929" lon="-1.9251300000000002">
        <time>2021-06-19T12:17:07+0000</time>
      </trkpt>
      <trkpt lat="40.85925" lon="-1.9250500000000001">
        <time>2021-06-19T12:17:08+0000</time>
      </trkpt>
      <trkpt lat="40.859190000000005" lon="-1.9249600000000002">
        <time>2021-06-19T12:17:09+0000</time>
      </trkpt>
      <trkpt lat="40.85911" lon="-1.92484">
        <time>2021-06-19T12:17:10+0000</time>
      </trkpt>
      <trkpt lat="40.859030000000004" lon="-1.9246900000000002">
        <time>2021-06-19T12:17:11+0000</time>
      </trkpt>
      <trkpt lat="40.85896" lon="-1.92453">
        <time>2021-06-19T12:17:12+0000</time>
      </trkpt>
      <trkpt lat="40.85889" lon="-1.92436">
        <time>2021-06-19T12:17:13+0000</time>
      </trkpt>
      <trkpt lat="40.858810000000005" lon="-1.92416">
        <time>2021-06-19T12:17:14+0000</time>
      </trkpt>
      <trkpt lat="40.858740000000004" lon="-1.9239300000000001">
        <time>2021-06-19T12:17:15+0000</time>
      </trkpt>
      <trkpt lat="40.858670000000004" lon="-1.9237000000000002">
        <time>2021-06-19T12:17:16+0000</time>
      </trkpt>
      <trkpt lat="40.858610000000006" lon="-1.92345">
        <time>2021-06-19T12:17:17+0000</time>
      </trkpt>
      <trkpt lat="40.858540000000005" lon="-1.9231800000000001">
        <time>2021-06-19T12:17:18+0000</time>
      </trkpt>
      <trkpt lat="40.85848" lon="-1.9229200000000002">
        <time>2021-06-19T12:17:19+0000</time>
      </trkpt>
      <trkpt lat="40.858410000000006" lon="-1.9226500000000002">
        <time>2021-06-19T12:17:20+0000</time>
      </trkpt>
      <trkpt lat="40.85835" lon="-1.9223900000000003">
        <time>2021-06-19T12:17:21+0000</time>
      </trkpt>
      <trkpt lat="40.858290000000004" lon="-1.92212">
        <time>2021-06-19T12:17:22+0000</time>
      </trkpt>
      <trkpt lat="40.858230000000006" lon="-1.92185">
        <time>2021-06-19T12:17:23+0000</time>
      </trkpt>
      <trkpt lat="40.85817" lon="-1.92158">
        <time>2021-06-19T12:17:24+0000</time>
      </trkpt>
      <trkpt lat="40.8581" lon="-1.92131">
        <time>2021-06-19T12:17:25+0000</time>
      </trkpt>
      <trkpt lat="40.85804" lon="-1.9210300000000002">
        <time>2021-06-19T12:17:26+0000</time>
      </trkpt>
      <trkpt lat="40.857980000000005" lon="-1.9207600000000002">
        <time>2021-06-19T12:17:27+0000</time>
      </trkpt>
      <trkpt lat="40.85792" lon="-1.9204700000000001">
        <time>2021-06-19T12:17:28+0000</time>
      </trkpt>
      <trkpt lat="40.85786" lon="-1.9202000000000001">
        <time>2021-06-19T12:17:29+0000</time>
      </trkpt>
      <trkpt lat="40.857780000000005" lon="-1.9199400000000002">
        <time>2021-06-19T12:17:30+0000</time>
      </trkpt>
      <trkpt lat="40.857730000000004" lon="-1.9196900000000001">
        <time>2021-06-19T12:17:31+0000</time>
      </trkpt>
      <trkpt lat="40.857670000000006" lon="-1.9194300000000002">
        <time>2021-06-19T12:17:32+0000</time>
      </trkpt>
      <trkpt lat="40.857600000000005" lon="-1.9191700000000003">
        <time>2021-06-19T12:17:33+0000</time>
      </trkpt>
      <trkpt lat="40.857530000000004" lon="-1.9189100000000001">
        <time>2021-06-19T12:17:34+0000</time>
      </trkpt>
      <trkpt lat="40.857470000000006" lon="-1.9186500000000002">
        <time>2021-06-19T12:17:35+0000</time>
      </trkpt>
      <trkpt lat="40.85741" lon="-1.9183800000000002">
        <time>2021-06-19T12:17:36+0000</time>
      </trkpt>
      <trkpt lat="40.85736" lon="-1.91812">
        <time>2021-06-19T12:17:37+0000</time>
      </trkpt>
      <trkpt lat="40.8573" lon="-1.9178700000000002">
        <time>2021-06-19T12:17:38+0000</time>
      </trkpt>
      <trkpt lat="40.85725" lon="-1.91762">
        <time>2021-06-19T12:17:39+0000</time>
      </trkpt>
      <trkpt lat="40.85719" lon="-1.91738">
        <time>2021-06-19T12:17:40+0000</time>
      </trkpt>
      <trkpt lat="40.85714" lon="-1.91714">
        <time>2021-06-19T12:17:41+0000</time>
      </trkpt>
      <trkpt lat="40.85709000000001" lon="-1.9169">
        <time>2021-06-19T12:17:42+0000</time>
      </trkpt>
      <trkpt lat="40.857040000000005" lon="-1.9166600000000003">
        <time>2021-06-19T12:17:43+0000</time>
      </trkpt>
      <trkpt lat="40.85699" lon="-1.9164200000000002">
        <time>2021-06-19T12:17:44+0000</time>
      </trkpt>
      <trkpt lat="40.85694" lon="-1.9161800000000002">
        <time>2021-06-19T12:17:45+0000</time>
      </trkpt>
      <trkpt lat="40.85689" lon="-1.9159500000000003">
        <time>2021-06-19T12:17:46+0000</time>
      </trkpt>
      <trkpt lat="40.856840000000005" lon="-1.9157300000000002">
        <time>2021-06-19T12:17:47+0000</time>
      </trkpt>
      <trkpt lat="40.856790000000004" lon="-1.9155000000000002">
        <time>2021-06-19T12:17:48+0000</time>
      </trkpt>
      <trkpt lat="40.85674" lon="-1.9152700000000003">
        <time>2021-06-19T12:17:49+0000</time>
      </trkpt>
      <trkpt lat="40.85669" lon="-1.9150300000000002">
        <time>2021-06-19T12:17:50+0000</time>
      </trkpt>
      <trkpt lat="40.85662000000001" lon="-1.9148">
        <time>2021-06-19T12:17:51+0000</time>
      </trkpt>
      <trkpt lat="40.856550000000006" lon="-1.9145600000000003">
        <time>2021-06-19T12:17:52+0000</time>
      </trkpt>
      <trkpt lat="40.85649" lon="-1.9143000000000001">
        <time>2021-06-19T12:17:53+0000</time>
      </trkpt>
      <trkpt lat="40.85643" lon="-1.9140400000000002">
        <time>2021-06-19T12:17:54+0000</time>
      </trkpt>
      <trkpt lat="40.85636" lon="-1.9137800000000003">
        <time>2021-06-19T12:17:55+0000</time>
      </trkpt>
      <trkpt lat="40.856300000000005" lon="-1.91352">
        <time>2021-06-19T12:17:56+0000</time>
      </trkpt>
      <trkpt lat="40.85624000000001" lon="-1.9132700000000002">
        <time>2021-06-19T12:17:57+0000</time>
      </trkpt>
      <trkpt lat="40.85618" lon="-1.9130200000000002">
        <time>2021-06-19T12:17:58+0000</time>
      </trkpt>
      <trkpt lat="40.856120000000004" lon="-1.91277">
        <time>2021-06-19T12:17:59+0000</time>
      </trkpt>
      <trkpt lat="40.85607" lon="-1.9125100000000002">
        <time>2021-06-19T12:18:00+0000</time>
      </trkpt>
      <trkpt lat="40.856" lon="-1.9122500000000002">
        <time>2021-06-19T12:18:01+0000</time>
      </trkpt>
      <trkpt lat="40.855940000000004" lon="-1.91199">
        <time>2021-06-19T12:18:02+0000</time>
      </trkpt>
      <trkpt lat="40.85589" lon="-1.9117300000000002">
        <time>2021-06-19T12:18:03+0000</time>
      </trkpt>
      <trkpt lat="40.85584" lon="-1.91148">
        <time>2021-06-19T12:18:04+0000</time>
      </trkpt>
      <trkpt lat="40.855790000000006" lon="-1.91124">
        <time>2021-06-19T12:18:05+0000</time>
      </trkpt>
      <trkpt lat="40.85573" lon="-1.9109800000000001">
        <time>2021-06-19T12:18:06+0000</time>
      </trkpt>
      <trkpt lat="40.85568000000001" lon="-1.9107200000000002">
        <time>2021-06-19T12:18:07+0000</time>
      </trkpt>
      <trkpt lat="40.855630000000005" lon="-1.9104400000000001">
        <time>2021-06-19T12:18:08+0000</time>
      </trkpt>
      <trkpt lat="40.85558" lon="-1.9101500000000002">
        <time>2021-06-19T12:18:09+0000</time>
      </trkpt>
      <trkpt lat="40.855520000000006" lon="-1.9098600000000001">
        <time>2021-06-19T12:18:10+0000</time>
      </trkpt>
      <trkpt lat="40.85546" lon="-1.9095700000000002">
        <time>2021-06-19T12:18:11+0000</time>
      </trkpt>
      <trkpt lat="40.85539" lon="-1.90928">
        <time>2021-06-19T12:18:12+0000</time>
      </trkpt>
      <trkpt lat="40.85533" lon="-1.9089800000000001">
        <time>2021-06-19T12:18:13+0000</time>
      </trkpt>
      <trkpt lat="40.85526" lon="-1.90867">
        <time>2021-06-19T12:18:14+0000</time>
      </trkpt>
      <trkpt lat="40.855180000000004" lon="-1.9083800000000002">
        <time>2021-06-19T12:18:15+0000</time>
      </trkpt>
      <trkpt lat="40.85511" lon="-1.9080800000000002">
        <time>2021-06-19T12:18:16+0000</time>
      </trkpt>
      <trkpt lat="40.855050000000006" lon="-1.90779">
        <time>2021-06-19T12:18:17+0000</time>
      </trkpt>
      <trkpt lat="40.85499" lon="-1.90752">
        <time>2021-06-19T12:18:18+0000</time>
      </trkpt>
      <trkpt lat="40.85493" lon="-1.9072500000000001">
        <time>2021-06-19T12:18:19+0000</time>
      </trkpt>
      <trkpt lat="40.854870000000005" lon="-1.9069900000000002">
        <time>2021-06-19T12:18:20+0000</time>
      </trkpt>
      <trkpt lat="40.85481" lon="-1.9067300000000003">
        <time>2021-06-19T12:18:21+0000</time>
      </trkpt>
      <trkpt lat="40.85475" lon="-1.90647">
        <time>2021-06-19T12:18:22+0000</time>
      </trkpt>
      <trkpt lat="40.8547" lon="-1.9062000000000001">
        <time>2021-06-19T12:18:23+0000</time>
      </trkpt>
      <trkpt lat="40.85463" lon="-1.9059400000000002">
        <time>2021-06-19T12:18:24+0000</time>
      </trkpt>
      <trkpt lat="40.85457" lon="-1.9056700000000002">
        <time>2021-06-19T12:18:25+0000</time>
      </trkpt>
      <trkpt lat="40.854510000000005" lon="-1.90541">
        <time>2021-06-19T12:18:26+0000</time>
      </trkpt>
      <trkpt lat="40.85445" lon="-1.9051500000000001">
        <time>2021-06-19T12:18:27+0000</time>
      </trkpt>
      <trkpt lat="40.854400000000005" lon="-1.9048800000000001">
        <time>2021-06-19T12:18:28+0000</time>
      </trkpt>
      <trkpt lat="40.85432" lon="-1.9046200000000002">
        <time>2021-06-19T12:18:29+0000</time>
      </trkpt>
      <trkpt lat="40.854260000000004" lon="-1.9043700000000001">
        <time>2021-06-19T12:18:30+0000</time>
      </trkpt>
      <trkpt lat="40.854200000000006" lon="-1.90413">
        <time>2021-06-19T12:18:31+0000</time>
      </trkpt>
      <trkpt lat="40.854150000000004" lon="-1.9039100000000002">
        <time>2021-06-19T12:18:32+0000</time>
      </trkpt>
      <trkpt lat="40.8541" lon="-1.90369">
        <time>2021-06-19T12:18:33+0000</time>
      </trkpt>
      <trkpt lat="40.85405" lon="-1.90348">
        <time>2021-06-19T12:18:34+0000</time>
      </trkpt>
      <trkpt lat="40.854000000000006" lon="-1.9032700000000002">
        <time>2021-06-19T12:18:35+0000</time>
      </trkpt>
      <trkpt lat="40.85396" lon="-1.9030600000000002">
        <time>2021-06-19T12:18:36+0000</time>
      </trkpt>
      <trkpt lat="40.853910000000006" lon="-1.90284">
        <time>2021-06-19T12:18:37+0000</time>
      </trkpt>
      <trkpt lat="40.853860000000005" lon="-1.9026200000000002">
        <time>2021-06-19T12:18:38+0000</time>
      </trkpt>
      <trkpt lat="40.85381" lon="-1.9024">
        <time>2021-06-19T12:18:39+0000</time>
      </trkpt>
      <trkpt lat="40.85376" lon="-1.9021800000000002">
        <time>2021-06-19T12:18:40+0000</time>
      </trkpt>
      <trkpt lat="40.85371000000001" lon="-1.90196">
        <time>2021-06-19T12:18:41+0000</time>
      </trkpt>
      <trkpt lat="40.853640000000006" lon="-1.90175">
        <time>2021-06-19T12:18:42+0000</time>
      </trkpt>
      <trkpt lat="40.85358" lon="-1.9015400000000002">
        <time>2021-06-19T12:18:43+0000</time>
      </trkpt>
      <trkpt lat="40.85351" lon="-1.9013300000000002">
        <time>2021-06-19T12:18:44+0000</time>
      </trkpt>
      <trkpt lat="40.85343" lon="-1.90114">
        <time>2021-06-19T12:18:45+0000</time>
      </trkpt>
      <trkpt lat="40.85334" lon="-1.9009600000000002">
        <time>2021-06-19T12:18:46+0000</time>
      </trkpt>
      <trkpt lat="40.85324000000001" lon="-1.9007800000000001">
        <time>2021-06-19T12:18:47+0000</time>
      </trkpt>
      <trkpt lat="40.85314" lon="-1.9006">
        <time>2021-06-19T12:18:48+0000</time>
      </trkpt>
      <trkpt lat="40.85302" lon="-1.9004200000000002">
        <time>2021-06-19T12:18:49+0000</time>
      </trkpt>
      <trkpt lat="40.852900000000005" lon="-1.9002400000000002">
        <time>2021-06-19T12:18:50+0000</time>
      </trkpt>
      <trkpt lat="40.85277000000001" lon="-1.90006">
        <time>2021-06-19T12:18:51+0000</time>
      </trkpt>
      <trkpt lat="40.85264" lon="-1.8998700000000002">
        <time>2021-06-19T12:18:52+0000</time>
      </trkpt>
      <trkpt lat="40.852500000000006" lon="-1.8996800000000003">
        <time>2021-06-19T12:18:53+0000</time>
      </trkpt>
      <trkpt lat="40.85235" lon="-1.89948">
        <time>2021-06-19T12:18:54+0000</time>
      </trkpt>
      <trkpt lat="40.85221000000001" lon="-1.89928">
        <time>2021-06-19T12:18:55+0000</time>
      </trkpt>
      <trkpt lat="40.85206" lon="-1.89908">
        <time>2021-06-19T12:18:56+0000</time>
      </trkpt>
      <trkpt lat="40.85192000000001" lon="-1.8988800000000001">
        <time>2021-06-19T12:18:57+0000</time>
      </trkpt>
      <trkpt lat="40.851780000000005" lon="-1.8986900000000002">
        <time>2021-06-19T12:18:58+0000</time>
      </trkpt>
      <trkpt lat="40.85166" lon="-1.8985100000000001">
        <time>2021-06-19T12:18:59+0000</time>
      </trkpt>
      <trkpt lat="40.85154" lon="-1.8983500000000002">
        <time>2021-06-19T12:19:00+0000</time>
      </trkpt>
      <trkpt lat="40.851420000000005" lon="-1.8981800000000002">
        <time>2021-06-19T12:19:01+0000</time>
      </trkpt>
      <trkpt lat="40.8513" lon="-1.8980200000000003">
        <time>2021-06-19T12:19:02+0000</time>
      </trkpt>
      <trkpt lat="40.851200000000006" lon="-1.8978700000000002">
        <time>2021-06-19T12:19:03+0000</time>
      </trkpt>
      <trkpt lat="40.85108" lon="-1.8977400000000002">
        <time>2021-06-19T12:19:04+0000</time>
      </trkpt>
      <trkpt lat="40.85098" lon="-1.8976000000000002">
        <time>2021-06-19T12:19:05+0000</time>
      </trkpt>
      <trkpt lat="40.85087" lon="-1.8974600000000001">
        <time>2021-06-19T12:19:06+0000</time>
      </trkpt>
      <trkpt lat="40.85078" lon="-1.8973300000000002">
        <time>2021-06-19T12:19:07+0000</time>
      </trkpt>
      <trkpt lat="40.85069" lon="-1.89721">
        <time>2021-06-19T12:19:08+0000</time>
      </trkpt>
      <trkpt lat="40.8506" lon="-1.8970900000000002">
        <time>2021-06-19T12:19:09+0000</time>
      </trkpt>
      <trkpt lat="40.85051" lon="-1.8969600000000002">
        <time>2021-06-19T12:19:10+0000</time>
      </trkpt>
      <trkpt lat="40.850410000000004" lon="-1.8968300000000002">
        <time>2021-06-19T12:19:11+0000</time>
      </trkpt>
      <trkpt lat="40.85032" lon="-1.8967">
        <time>2021-06-19T12:19:12+0000</time>
      </trkpt>
      <trkpt lat="40.85022" lon="-1.8965600000000002">
        <time>2021-06-19T12:19:13+0000</time>
      </trkpt>
      <trkpt lat="40.85011" lon="-1.89643">
        <time>2021-06-19T12:19:14+0000</time>
      </trkpt>
      <trkpt lat="40.850010000000005" lon="-1.8962900000000003">
        <time>2021-06-19T12:19:15+0000</time>
      </trkpt>
      <trkpt lat="40.84991" lon="-1.8961500000000002">
        <time>2021-06-19T12:19:16+0000</time>
      </trkpt>
      <trkpt lat="40.849810000000005" lon="-1.8960200000000003">
        <time>2021-06-19T12:19:17+0000</time>
      </trkpt>
      <trkpt lat="40.849700000000006" lon="-1.89589">
        <time>2021-06-19T12:19:18+0000</time>
      </trkpt>
      <trkpt lat="40.8496" lon="-1.8957600000000001">
        <time>2021-06-19T12:19:19+0000</time>
      </trkpt>
      <trkpt lat="40.849500000000006" lon="-1.8956400000000002">
        <time>2021-06-19T12:19:20+0000</time>
      </trkpt>
      <trkpt lat="40.8494" lon="-1.89552">
        <time>2021-06-19T12:19:21+0000</time>
      </trkpt>
      <trkpt lat="40.84930000000001" lon="-1.8953900000000001">
        <time>2021-06-19T12:19:22+0000</time>
      </trkpt>
      <trkpt lat="40.84921000000001" lon="-1.8952700000000002">
        <time>2021-06-19T12:19:23+0000</time>
      </trkpt>
      <trkpt lat="40.84913" lon="-1.8951300000000002">
        <time>2021-06-19T12:19:24+0000</time>
      </trkpt>
      <trkpt lat="40.849050000000005" lon="-1.8949700000000003">
        <time>2021-06-19T12:19:25+0000</time>
      </trkpt>
      <trkpt lat="40.84899" lon="-1.89481">
        <time>2021-06-19T12:19:26+0000</time>
      </trkpt>
      <trkpt lat="40.84892000000001" lon="-1.89464">
        <time>2021-06-19T12:19:27+0000</time>
      </trkpt>
      <trkpt lat="40.848870000000005" lon="-1.8944600000000003">
        <time>2021-06-19T12:19:28+0000</time>
      </trkpt>
      <trkpt lat="40.84882" lon="-1.8942900000000003">
        <time>2021-06-19T12:19:29+0000</time>
      </trkpt>
      <trkpt lat="40.848780000000005" lon="-1.8941200000000002">
        <time>2021-06-19T12:19:30+0000</time>
      </trkpt>
      <trkpt lat="40.84874000000001" lon="-1.89396">
        <time>2021-06-19T12:19:31+0000</time>
      </trkpt>
      <trkpt lat="40.848710000000004" lon="-1.8938000000000001">
        <time>2021-06-19T12:19:32+0000</time>
      </trkpt>
      <trkpt lat="40.848690000000005" lon="-1.8936400000000002">
        <time>2021-06-19T12:19:33+0000</time>
      </trkpt>
      <trkpt lat="40.848670000000006" lon="-1.8934900000000001">
        <time>2021-06-19T12:19:34+0000</time>
      </trkpt>
      <trkpt lat="40.848650000000006" lon="-1.89335">
        <time>2021-06-19T12:19:35+0000</time>
      </trkpt>
      <trkpt lat="40.84864" lon="-1.89321">
        <time>2021-06-19T12:19:36+0000</time>
      </trkpt>
      <trkpt lat="40.848620000000004" lon="-1.89308">
        <time>2021-06-19T12:19:37+0000</time>
      </trkpt>
      <trkpt lat="40.848600000000005" lon="-1.8929600000000002">
        <time>2021-06-19T12:19:38+0000</time>
      </trkpt>
      <trkpt lat="40.848580000000005" lon="-1.89284">
        <time>2021-06-19T12:19:39+0000</time>
      </trkpt>
      <trkpt lat="40.848560000000006" lon="-1.8927300000000002">
        <time>2021-06-19T12:19:40+0000</time>
      </trkpt>
      <trkpt lat="40.84854" lon="-1.8926200000000002">
        <time>2021-06-19T12:19:41+0000</time>
      </trkpt>
      <trkpt lat="40.848510000000005" lon="-1.8925">
        <time>2021-06-19T12:19:42+0000</time>
      </trkpt>
      <trkpt lat="40.84848" lon="-1.8923900000000002">
        <time>2021-06-19T12:19:43+0000</time>
      </trkpt>
      <trkpt lat="40.84845000000001" lon="-1.8922900000000002">
        <time>2021-06-19T12:19:44+0000</time>
      </trkpt>
      <trkpt lat="40.84841" lon="-1.8921900000000003">
        <time>2021-06-19T12:19:45+0000</time>
      </trkpt>
      <trkpt lat="40.848380000000006" lon="-1.89209">
        <time>2021-06-19T12:19:46+0000</time>
      </trkpt>
      <trkpt lat="40.84834" lon="-1.8920000000000001">
        <time>2021-06-19T12:19:47+0000</time>
      </trkpt>
      <trkpt lat="40.848310000000005" lon="-1.8919000000000001">
        <time>2021-06-19T12:19:48+0000</time>
      </trkpt>
      <trkpt lat="40.84825" lon="-1.8918100000000002">
        <time>2021-06-19T12:19:49+0000</time>
      </trkpt>
      <trkpt lat="40.848200000000006" lon="-1.8917000000000002">
        <time>2021-06-19T12:19:50+0000</time>
      </trkpt>
      <trkpt lat="40.848150000000004" lon="-1.8916000000000002">
        <time>2021-06-19T12:19:51+0000</time>
      </trkpt>
      <trkpt lat="40.848110000000005" lon="-1.8914900000000001">
        <time>2021-06-19T12:19:52+0000</time>
      </trkpt>
      <trkpt lat="40.84807" lon="-1.8914000000000002">
        <time>2021-06-19T12:19:53+0000</time>
      </trkpt>
      <trkpt lat="40.848040000000005" lon="-1.89131">
        <time>2021-06-19T12:19:54+0000</time>
      </trkpt>
      <trkpt lat="40.848000000000006" lon="-1.8912300000000002">
        <time>2021-06-19T12:19:55+0000</time>
      </trkpt>
      <trkpt lat="40.847970000000004" lon="-1.8911600000000002">
        <time>2021-06-19T12:19:56+0000</time>
      </trkpt>
      <trkpt lat="40.84794" lon="-1.89108">
        <time>2021-06-19T12:19:57+0000</time>
      </trkpt>
      <trkpt lat="40.847910000000006" lon="-1.8909900000000002">
        <time>2021-06-19T12:19:58+0000</time>
      </trkpt>
      <trkpt lat="40.84787" lon="-1.8908900000000002">
        <time>2021-06-19T12:19:59+0000</time>
      </trkpt>
      <trkpt lat="40.847840000000005" lon="-1.8907800000000001">
        <time>2021-06-19T12:20:00+0000</time>
      </trkpt>
      <trkpt lat="40.84780000000001" lon="-1.89067">
        <time>2021-06-19T12:20:01+0000</time>
      </trkpt>
      <trkpt lat="40.847750000000005" lon="-1.8905600000000002">
        <time>2021-06-19T12:20:02+0000</time>
      </trkpt>
      <trkpt lat="40.8477" lon="-1.8904500000000002">
        <time>2021-06-19T12:20:03+0000</time>
      </trkpt>
      <trkpt lat="40.84765" lon="-1.8903200000000002">
        <time>2021-06-19T12:20:04+0000</time>
      </trkpt>
      <trkpt lat="40.847590000000004" lon="-1.8901800000000002">
        <time>2021-06-19T12:20:05+0000</time>
      </trkpt>
      <trkpt lat="40.847530000000006" lon="-1.8900500000000002">
        <time>2021-06-19T12:20:06+0000</time>
      </trkpt>
      <trkpt lat="40.847460000000005" lon="-1.8899100000000002">
        <time>2021-06-19T12:20:07+0000</time>
      </trkpt>
      <trkpt lat="40.84736" lon="-1.8898000000000001">
        <time>2021-06-19T12:20:08+0000</time>
      </trkpt>
      <trkpt lat="40.847260000000006" lon="-1.8897100000000002">
        <time>2021-06-19T12:20:09+0000</time>
      </trkpt>
      <trkpt lat="40.84713" lon="-1.8896700000000002">
        <time>2021-06-19T12:20:10+0000</time>
      </trkpt>
      <trkpt lat="40.846990000000005" lon="-1.8896600000000001">
        <time>2021-06-19T12:20:11+0000</time>
      </trkpt>
      <trkpt lat="40.84685" lon="-1.8897300000000001">
        <time>2021-06-19T12:20:12+0000</time>
      </trkpt>
      <trkpt lat="40.84671" lon="-1.8898100000000002">
        <time>2021-06-19T12:20:13+0000</time>
      </trkpt>
      <trkpt lat="40.84658" lon="-1.8899100000000002">
        <time>2021-06-19T12:20:14+0000</time>
      </trkpt>
      <trkpt lat="40.846450000000004" lon="-1.8900400000000002">
        <time>2021-06-19T12:20:15+0000</time>
      </trkpt>
      <trkpt lat="40.84633" lon="-1.89016">
        <time>2021-06-19T12:20:16+0000</time>
      </trkpt>
      <trkpt lat="40.846230000000006" lon="-1.8902800000000002">
        <time>2021-06-19T12:20:17+0000</time>
      </trkpt>
      <trkpt lat="40.84613" lon="-1.8903900000000002">
        <time>2021-06-19T12:20:18+0000</time>
      </trkpt>
      <trkpt lat="40.846030000000006" lon="-1.8904900000000002">
        <time>2021-06-19T12:20:19+0000</time>
      </trkpt>
      <trkpt lat="40.84593" lon="-1.8905900000000002">
        <time>2021-06-19T12:20:20+0000</time>
      </trkpt>
      <trkpt lat="40.84581" lon="-1.89067">
        <time>2021-06-19T12:20:21+0000</time>
      </trkpt>
      <trkpt lat="40.84568" lon="-1.8907200000000002">
        <time>2021-06-19T12:20:22+0000</time>
      </trkpt>
      <trkpt lat="40.84555" lon="-1.89074">
        <time>2021-06-19T12:20:23+0000</time>
      </trkpt>
      <trkpt lat="40.84541" lon="-1.89074">
        <time>2021-06-19T12:20:24+0000</time>
      </trkpt>
      <trkpt lat="40.845290000000006" lon="-1.8907100000000001">
        <time>2021-06-19T12:20:25+0000</time>
      </trkpt>
      <trkpt lat="40.845180000000006" lon="-1.89067">
        <time>2021-06-19T12:20:26+0000</time>
      </trkpt>
      <trkpt lat="40.84508" lon="-1.89064">
        <time>2021-06-19T12:20:27+0000</time>
      </trkpt>
      <trkpt lat="40.845000000000006" lon="-1.8906100000000001">
        <time>2021-06-19T12:20:28+0000</time>
      </trkpt>
      <trkpt lat="40.84492" lon="-1.8905800000000001">
        <time>2021-06-19T12:20:29+0000</time>
      </trkpt>
      <trkpt lat="40.84483" lon="-1.89054">
        <time>2021-06-19T12:20:30+0000</time>
      </trkpt>
      <trkpt lat="40.84474" lon="-1.8904900000000002">
        <time>2021-06-19T12:20:31+0000</time>
      </trkpt>
      <trkpt lat="40.844660000000005" lon="-1.8904100000000001">
        <time>2021-06-19T12:20:32+0000</time>
      </trkpt>
      <trkpt lat="40.84458" lon="-1.8903">
        <time>2021-06-19T12:20:33+0000</time>
      </trkpt>
      <trkpt lat="40.844530000000006" lon="-1.8901700000000001">
        <time>2021-06-19T12:20:34+0000</time>
      </trkpt>
      <trkpt lat="40.84452" lon="-1.8900200000000003">
        <time>2021-06-19T12:20:35+0000</time>
      </trkpt>
      <trkpt lat="40.84449" lon="-1.88989">
        <time>2021-06-19T12:20:36+0000</time>
      </trkpt>
      <trkpt lat="40.844480000000004" lon="-1.8897700000000002">
        <time>2021-06-19T12:20:37+0000</time>
      </trkpt>
      <trkpt lat="40.84447" lon="-1.8896600000000001">
        <time>2021-06-19T12:20:38+0000</time>
      </trkpt>
      <trkpt lat="40.84447" lon="-1.8895400000000002">
        <time>2021-06-19T12:20:39+0000</time>
      </trkpt>
      <trkpt lat="40.84449" lon="-1.88942">
        <time>2021-06-19T12:20:40+0000</time>
      </trkpt>
      <trkpt lat="40.84452" lon="-1.88932">
        <time>2021-06-19T12:20:41+0000</time>
      </trkpt>
      <trkpt lat="40.84454" lon="-1.8892000000000002">
        <time>2021-06-19T12:20:42+0000</time>
      </trkpt>
      <trkpt lat="40.844570000000004" lon="-1.88908">
        <time>2021-06-19T12:20:43+0000</time>
      </trkpt>
      <trkpt lat="40.844590000000004" lon="-1.8889700000000003">
        <time>2021-06-19T12:20:44+0000</time>
      </trkpt>
      <trkpt lat="40.84463" lon="-1.8888600000000002">
        <time>2021-06-19T12:20:45+0000</time>
      </trkpt>
      <trkpt lat="40.84467" lon="-1.88874">
        <time>2021-06-19T12:20:46+0000</time>
      </trkpt>
      <trkpt lat="40.84472" lon="-1.8886100000000001">
        <time>2021-06-19T12:20:47+0000</time>
      </trkpt>
      <trkpt lat="40.844770000000004" lon="-1.8884800000000002">
        <time>2021-06-19T12:20:48+0000</time>
      </trkpt>
      <trkpt lat="40.844820000000006" lon="-1.8883400000000001">
        <time>2021-06-19T12:20:49+0000</time>
      </trkpt>
      <trkpt lat="40.84487" lon="-1.8881800000000002">
        <time>2021-06-19T12:20:50+0000</time>
      </trkpt>
      <trkpt lat="40.844910000000006" lon="-1.8880100000000002">
        <time>2021-06-19T12:20:51+0000</time>
      </trkpt>
      <trkpt lat="40.8449" lon="-1.8878300000000001">
        <time>2021-06-19T12:20:52+0000</time>
      </trkpt>
      <trkpt lat="40.84487" lon="-1.8876300000000001">
        <time>2021-06-19T12:20:53+0000</time>
      </trkpt>
      <trkpt lat="40.844840000000005" lon="-1.88742">
        <time>2021-06-19T12:20:54+0000</time>
      </trkpt>
      <trkpt lat="40.84481" lon="-1.88721">
        <time>2021-06-19T12:20:55+0000</time>
      </trkpt>
      <trkpt lat="40.844770000000004" lon="-1.8869900000000002">
        <time>2021-06-19T12:20:56+0000</time>
      </trkpt>
      <trkpt lat="40.84474" lon="-1.8867800000000001">
        <time>2021-06-19T12:20:57+0000</time>
      </trkpt>
      <trkpt lat="40.8447" lon="-1.8865900000000002">
        <time>2021-06-19T12:20:58+0000</time>
      </trkpt>
      <trkpt lat="40.844640000000005" lon="-1.8864200000000002">
        <time>2021-06-19T12:20:59+0000</time>
      </trkpt>
      <trkpt lat="40.844570000000004" lon="-1.8862700000000001">
        <time>2021-06-19T12:21:00+0000</time>
      </trkpt>
      <trkpt lat="40.84451000000001" lon="-1.8861200000000002">
        <time>2021-06-19T12:21:01+0000</time>
      </trkpt>
      <trkpt lat="40.84447" lon="-1.8859800000000002">
        <time>2021-06-19T12:21:02+0000</time>
      </trkpt>
      <trkpt lat="40.844440000000006" lon="-1.8858300000000001">
        <time>2021-06-19T12:21:03+0000</time>
      </trkpt>
      <trkpt lat="40.84445" lon="-1.88569">
        <time>2021-06-19T12:21:04+0000</time>
      </trkpt>
      <trkpt lat="40.844440000000006" lon="-1.8855600000000001">
        <time>2021-06-19T12:21:05+0000</time>
      </trkpt>
      <trkpt lat="40.844460000000005" lon="-1.8854300000000002">
        <time>2021-06-19T12:21:06+0000</time>
      </trkpt>
      <trkpt lat="40.844500000000004" lon="-1.8853600000000001">
        <time>2021-06-19T12:21:07+0000</time>
      </trkpt>
      <trkpt lat="40.844550000000005" lon="-1.8852900000000001">
        <time>2021-06-19T12:21:08+0000</time>
      </trkpt>
      <trkpt lat="40.84458" lon="-1.8852400000000002">
        <time>2021-06-19T12:21:09+0000</time>
      </trkpt>
      <trkpt lat="40.8446" lon="-1.8852200000000001">
        <time>2021-06-19T12:21:10+0000</time>
      </trkpt>
      <trkpt lat="40.84463" lon="-1.8851900000000001">
        <time>2021-06-19T12:21:11+0000</time>
      </trkpt>
      <trkpt lat="40.84465" lon="-1.88515">
        <time>2021-06-19T12:21:12+0000</time>
      </trkpt>
      <trkpt lat="40.844680000000004" lon="-1.8851200000000001">
        <time>2021-06-19T12:21:13+0000</time>
      </trkpt>
      <trkpt lat="40.844710000000006" lon="-1.8850900000000002">
        <time>2021-06-19T12:21:14+0000</time>
      </trkpt>
      <trkpt lat="40.84472" lon="-1.88504">
        <time>2021-06-19T12:21:15+0000</time>
      </trkpt>
      <trkpt lat="40.844750000000005" lon="-1.88501">
        <time>2021-06-19T12:21:16+0000</time>
      </trkpt>
      <trkpt lat="40.84479" lon="-1.8849900000000002">
        <time>2021-06-19T12:21:17+0000</time>
      </trkpt>
      <trkpt lat="40.844820000000006" lon="-1.8849500000000001">
        <time>2021-06-19T12:21:18+0000</time>
      </trkpt>
      <trkpt lat="40.844860000000004" lon="-1.88491">
        <time>2021-06-19T12:21:19+0000</time>
      </trkpt>
      <trkpt lat="40.84489000000001" lon="-1.8848500000000001">
        <time>2021-06-19T12:21:20+0000</time>
      </trkpt>
      <trkpt lat="40.844930000000005" lon="-1.8847800000000001">
        <time>2021-06-19T12:21:21+0000</time>
      </trkpt>
      <trkpt lat="40.844950000000004" lon="-1.8846900000000002">
        <time>2021-06-19T12:21:22+0000</time>
      </trkpt>
      <trkpt lat="40.84497" lon="-1.8845900000000002">
        <time>2021-06-19T12:21:23+0000</time>
      </trkpt>
      <trkpt lat="40.84496" lon="-1.88447">
        <time>2021-06-19T12:21:24+0000</time>
      </trkpt>
      <trkpt lat="40.844930000000005" lon="-1.8843500000000002">
        <time>2021-06-19T12:21:25+0000</time>
      </trkpt>
      <trkpt lat="40.84489000000001" lon="-1.8842400000000001">
        <time>2021-06-19T12:21:26+0000</time>
      </trkpt>
      <trkpt lat="40.84485" lon="-1.8841100000000002">
        <time>2021-06-19T12:21:27+0000</time>
      </trkpt>
      <trkpt lat="40.84481" lon="-1.88399">
        <time>2021-06-19T12:21:28+0000</time>
      </trkpt>
      <trkpt lat="40.844770000000004" lon="-1.88386">
        <time>2021-06-19T12:21:29+0000</time>
      </trkpt>
      <trkpt lat="40.844770000000004" lon="-1.8837400000000002">
        <time>2021-06-19T12:21:30+0000</time>
      </trkpt>
      <trkpt lat="40.844750000000005" lon="-1.88362">
        <time>2021-06-19T12:21:31+0000</time>
      </trkpt>
      <trkpt lat="40.844730000000006" lon="-1.8835100000000002">
        <time>2021-06-19T12:21:32+0000</time>
      </trkpt>
      <trkpt lat="40.844710000000006" lon="-1.8834000000000002">
        <time>2021-06-19T12:21:33+0000</time>
      </trkpt>
      <trkpt lat="40.84469" lon="-1.8833000000000002">
        <time>2021-06-19T12:21:34+0000</time>
      </trkpt>
      <trkpt lat="40.84467" lon="-1.88318">
        <time>2021-06-19T12:21:35+0000</time>
      </trkpt>
      <trkpt lat="40.8446" lon="-1.88308">
        <time>2021-06-19T12:21:36+0000</time>
      </trkpt>
      <trkpt lat="40.844570000000004" lon="-1.8829700000000003">
        <time>2021-06-19T12:21:37+0000</time>
      </trkpt>
      <trkpt lat="40.84452" lon="-1.88288">
        <time>2021-06-19T12:21:38+0000</time>
      </trkpt>
      <trkpt lat="40.844460000000005" lon="-1.8827800000000001">
        <time>2021-06-19T12:21:39+0000</time>
      </trkpt>
      <trkpt lat="40.844390000000004" lon="-1.8826900000000002">
        <time>2021-06-19T12:21:40+0000</time>
      </trkpt>
      <trkpt lat="40.84431" lon="-1.8826100000000001">
        <time>2021-06-19T12:21:41+0000</time>
      </trkpt>
      <trkpt lat="40.84425" lon="-1.8825800000000001">
        <time>2021-06-19T12:21:42+0000</time>
      </trkpt>
      <trkpt lat="40.8442" lon="-1.8825300000000003">
        <time>2021-06-19T12:21:43+0000</time>
      </trkpt>
      <trkpt lat="40.844150000000006" lon="-1.8825200000000002">
        <time>2021-06-19T12:21:44+0000</time>
      </trkpt>
      <trkpt lat="40.84411" lon="-1.8825100000000001">
        <time>2021-06-19T12:21:45+0000</time>
      </trkpt>
      <trkpt lat="40.84407" lon="-1.8824900000000002">
        <time>2021-06-19T12:21:46+0000</time>
      </trkpt>
      <trkpt lat="40.84402" lon="-1.88247">
        <time>2021-06-19T12:21:47+0000</time>
      </trkpt>
      <trkpt lat="40.84398" lon="-1.8824600000000002">
        <time>2021-06-19T12:21:48+0000</time>
      </trkpt>
      <trkpt lat="40.84393" lon="-1.8824400000000001">
        <time>2021-06-19T12:21:49+0000</time>
      </trkpt>
      <trkpt lat="40.843880000000006" lon="-1.8824200000000002">
        <time>2021-06-19T12:21:50+0000</time>
      </trkpt>
      <trkpt lat="40.84382" lon="-1.8823900000000002">
        <time>2021-06-19T12:21:51+0000</time>
      </trkpt>
      <trkpt lat="40.84376" lon="-1.88237">
        <time>2021-06-19T12:21:52+0000</time>
      </trkpt>
      <trkpt lat="40.843700000000005" lon="-1.8823400000000001">
        <time>2021-06-19T12:21:53+0000</time>
      </trkpt>
      <trkpt lat="40.843630000000005" lon="-1.8823200000000002">
        <time>2021-06-19T12:21:54+0000</time>
      </trkpt>
      <trkpt lat="40.843560000000004" lon="-1.8822800000000002">
        <time>2021-06-19T12:21:55+0000</time>
      </trkpt>
      <trkpt lat="40.84349" lon="-1.8822500000000002">
        <time>2021-06-19T12:21:56+0000</time>
      </trkpt>
      <trkpt lat="40.84342" lon="-1.8822">
        <time>2021-06-19T12:21:57+0000</time>
      </trkpt>
      <trkpt lat="40.84335" lon="-1.88216">
        <time>2021-06-19T12:21:58+0000</time>
      </trkpt>
      <trkpt lat="40.84328" lon="-1.8821100000000002">
        <time>2021-06-19T12:21:59+0000</time>
      </trkpt>
      <trkpt lat="40.843210000000006" lon="-1.88206">
        <time>2021-06-19T12:22:00+0000</time>
      </trkpt>
      <trkpt lat="40.843140000000005" lon="-1.88199">
        <time>2021-06-19T12:22:01+0000</time>
      </trkpt>
      <trkpt lat="40.843050000000005" lon="-1.8819000000000001">
        <time>2021-06-19T12:22:02+0000</time>
      </trkpt>
      <trkpt lat="40.842960000000005" lon="-1.8818100000000002">
        <time>2021-06-19T12:22:03+0000</time>
      </trkpt>
      <trkpt lat="40.842890000000004" lon="-1.88172">
        <time>2021-06-19T12:22:04+0000</time>
      </trkpt>
      <trkpt lat="40.84282" lon="-1.88162">
        <time>2021-06-19T12:22:05+0000</time>
      </trkpt>
      <trkpt lat="40.84275" lon="-1.8815100000000002">
        <time>2021-06-19T12:22:06+0000</time>
      </trkpt>
      <trkpt lat="40.842670000000005" lon="-1.8813900000000001">
        <time>2021-06-19T12:22:07+0000</time>
      </trkpt>
      <trkpt lat="40.842600000000004" lon="-1.8812600000000002">
        <time>2021-06-19T12:22:08+0000</time>
      </trkpt>
      <trkpt lat="40.84252" lon="-1.88111">
        <time>2021-06-19T12:22:09+0000</time>
      </trkpt>
      <trkpt lat="40.84246" lon="-1.8809700000000003">
        <time>2021-06-19T12:22:10+0000</time>
      </trkpt>
      <trkpt lat="40.842400000000005" lon="-1.88081">
        <time>2021-06-19T12:22:11+0000</time>
      </trkpt>
      <trkpt lat="40.842360000000006" lon="-1.88067">
        <time>2021-06-19T12:22:12+0000</time>
      </trkpt>
      <trkpt lat="40.84232" lon="-1.8805200000000002">
        <time>2021-06-19T12:22:13+0000</time>
      </trkpt>
      <trkpt lat="40.8423" lon="-1.8803900000000002">
        <time>2021-06-19T12:22:14+0000</time>
      </trkpt>
      <trkpt lat="40.842270000000006" lon="-1.8802600000000003">
        <time>2021-06-19T12:22:15+0000</time>
      </trkpt>
      <trkpt lat="40.84225" lon="-1.8801500000000002">
        <time>2021-06-19T12:22:16+0000</time>
      </trkpt>
      <trkpt lat="40.84223" lon="-1.88003">
        <time>2021-06-19T12:22:17+0000</time>
      </trkpt>
      <trkpt lat="40.84221" lon="-1.8799200000000003">
        <time>2021-06-19T12:22:18+0000</time>
      </trkpt>
      <trkpt lat="40.842200000000005" lon="-1.8798100000000002">
        <time>2021-06-19T12:22:19+0000</time>
      </trkpt>
      <trkpt lat="40.84217" lon="-1.8797100000000002">
        <time>2021-06-19T12:22:20+0000</time>
      </trkpt>
      <trkpt lat="40.842150000000004" lon="-1.8796100000000002">
        <time>2021-06-19T12:22:21+0000</time>
      </trkpt>
      <trkpt lat="40.84214" lon="-1.87952">
        <time>2021-06-19T12:22:22+0000</time>
      </trkpt>
      <trkpt lat="40.84212" lon="-1.8794400000000002">
        <time>2021-06-19T12:22:23+0000</time>
      </trkpt>
      <trkpt lat="40.842110000000005" lon="-1.8793600000000001">
        <time>2021-06-19T12:22:24+0000</time>
      </trkpt>
      <trkpt lat="40.8421" lon="-1.87928">
        <time>2021-06-19T12:22:25+0000</time>
      </trkpt>
      <trkpt lat="40.84208" lon="-1.87921">
        <time>2021-06-19T12:22:26+0000</time>
      </trkpt>
      <trkpt lat="40.84207000000001" lon="-1.8791200000000001">
        <time>2021-06-19T12:22:27+0000</time>
      </trkpt>
      <trkpt lat="40.842060000000004" lon="-1.87904">
        <time>2021-06-19T12:22:28+0000</time>
      </trkpt>
      <trkpt lat="40.842040000000004" lon="-1.8789500000000001">
        <time>2021-06-19T12:22:29+0000</time>
      </trkpt>
      <trkpt lat="40.84203" lon="-1.8788600000000002">
        <time>2021-06-19T12:22:30+0000</time>
      </trkpt>
      <trkpt lat="40.84201" lon="-1.8787800000000001">
        <time>2021-06-19T12:22:31+0000</time>
      </trkpt>
      <trkpt lat="40.842000000000006" lon="-1.87871">
        <time>2021-06-19T12:22:32+0000</time>
      </trkpt>
      <trkpt lat="40.84199" lon="-1.87864">
        <time>2021-06-19T12:22:33+0000</time>
      </trkpt>
      <trkpt lat="40.84198000000001" lon="-1.8785800000000001">
        <time>2021-06-19T12:22:34+0000</time>
      </trkpt>
      <trkpt lat="40.84198000000001" lon="-1.8785300000000003">
        <time>2021-06-19T12:22:35+0000</time>
      </trkpt>
      <trkpt lat="40.841930000000005" lon="-1.8785200000000002">
        <time>2021-06-19T12:22:36+0000</time>
      </trkpt>
      <trkpt lat="40.841860000000004" lon="-1.8785200000000002">
        <time>2021-06-19T12:22:37+0000</time>
      </trkpt>
      <trkpt lat="40.84183" lon="-1.8785800000000001">
        <time>2021-06-19T12:22:38+0000</time>
      </trkpt>
      <trkpt lat="40.84178" lon="-1.8786300000000002">
        <time>2021-06-19T12:22:39+0000</time>
      </trkpt>
      <trkpt lat="40.84174" lon="-1.87867">
        <time>2021-06-19T12:22:40+0000</time>
      </trkpt>
      <trkpt lat="40.841710000000006" lon="-1.8787000000000003">
        <time>2021-06-19T12:22:41+0000</time>
      </trkpt>
      <trkpt lat="40.8417" lon="-1.8787200000000002">
        <time>2021-06-19T12:22:42+0000</time>
      </trkpt>
      <trkpt lat="40.84169" lon="-1.8787500000000001">
        <time>2021-06-19T12:22:43+0000</time>
      </trkpt>
      <trkpt lat="40.84167" lon="-1.87877">
        <time>2021-06-19T12:22:44+0000</time>
      </trkpt>
      <trkpt lat="40.841660000000005" lon="-1.8788000000000002">
        <time>2021-06-19T12:22:45+0000</time>
      </trkpt>
      <trkpt lat="40.84165" lon="-1.8788200000000002">
        <time>2021-06-19T12:22:46+0000</time>
      </trkpt>
      <trkpt lat="40.84163" lon="-1.87884">
        <time>2021-06-19T12:22:47+0000</time>
      </trkpt>
      <trkpt lat="40.841620000000006" lon="-1.8788600000000002">
        <time>2021-06-19T12:22:48+0000</time>
      </trkpt>
      <trkpt lat="40.84161" lon="-1.8788900000000002">
        <time>2021-06-19T12:22:49+0000</time>
      </trkpt>
      <trkpt lat="40.841590000000004" lon="-1.87891">
        <time>2021-06-19T12:22:50+0000</time>
      </trkpt>
      <trkpt lat="40.84158" lon="-1.8789300000000002">
        <time>2021-06-19T12:22:51+0000</time>
      </trkpt>
      <trkpt lat="40.84156" lon="-1.8789500000000001">
        <time>2021-06-19T12:22:52+0000</time>
      </trkpt>
      <trkpt lat="40.841550000000005" lon="-1.8789700000000003">
        <time>2021-06-19T12:22:53+0000</time>
      </trkpt>
      <trkpt lat="40.84154" lon="-1.8789900000000002">
        <time>2021-06-19T12:22:54+0000</time>
      </trkpt>
      <trkpt lat="40.841530000000006" lon="-1.87901">
        <time>2021-06-19T12:22:55+0000</time>
      </trkpt>
      <trkpt lat="40.84152" lon="-1.8790300000000002">
        <time>2021-06-19T12:22:56+0000</time>
      </trkpt>
      <trkpt lat="40.84151000000001" lon="-1.87905">
        <time>2021-06-19T12:22:57+0000</time>
      </trkpt>
      <trkpt lat="40.8415" lon="-1.8790600000000002">
        <time>2021-06-19T12:22:58+0000</time>
      </trkpt>
      <trkpt lat="40.8415" lon="-1.8790700000000002">
        <time>2021-06-19T12:22:59+0000</time>
      </trkpt>
      <trkpt lat="40.841480000000004" lon="-1.8790900000000001">
        <time>2021-06-19T12:23:03+0000</time>
      </trkpt>
      <trkpt lat="40.841460000000005" lon="-1.87911">
        <time>2021-06-19T12:23:04+0000</time>
      </trkpt>
      <trkpt lat="40.84143" lon="-1.87915">
        <time>2021-06-19T12:23:05+0000</time>
      </trkpt>
      <trkpt lat="40.8414" lon="-1.8791900000000001">
        <time>2021-06-19T12:23:06+0000</time>
      </trkpt>
      <trkpt lat="40.841370000000005" lon="-1.87925">
        <time>2021-06-19T12:23:07+0000</time>
      </trkpt>
      <trkpt lat="40.841350000000006" lon="-1.8792900000000001">
        <time>2021-06-19T12:23:08+0000</time>
      </trkpt>
      <trkpt lat="40.841330000000006" lon="-1.87932">
        <time>2021-06-19T12:23:09+0000</time>
      </trkpt>
      <trkpt lat="40.84131" lon="-1.87935">
        <time>2021-06-19T12:23:10+0000</time>
      </trkpt>
      <trkpt lat="40.84129" lon="-1.8793700000000002">
        <time>2021-06-19T12:23:11+0000</time>
      </trkpt>
      <trkpt lat="40.841280000000005" lon="-1.8794000000000002">
        <time>2021-06-19T12:23:12+0000</time>
      </trkpt>
      <trkpt lat="40.841260000000005" lon="-1.87942">
        <time>2021-06-19T12:23:13+0000</time>
      </trkpt>
      <trkpt lat="40.84125" lon="-1.8794400000000002">
        <time>2021-06-19T12:23:14+0000</time>
      </trkpt>
      <trkpt lat="40.841240000000006" lon="-1.8794700000000002">
        <time>2021-06-19T12:23:15+0000</time>
      </trkpt>
      <trkpt lat="40.84123" lon="-1.8794800000000003">
        <time>2021-06-19T12:23:16+0000</time>
      </trkpt>
      <trkpt lat="40.84122" lon="-1.8795100000000002">
        <time>2021-06-19T12:23:24+0000</time>
      </trkpt>
      <trkpt lat="40.8412" lon="-1.8795400000000002">
        <time>2021-06-19T12:23:25+0000</time>
      </trkpt>
      <trkpt lat="40.841170000000005" lon="-1.87959">
        <time>2021-06-19T12:23:26+0000</time>
      </trkpt>
      <trkpt lat="40.84114" lon="-1.8796300000000001">
        <time>2021-06-19T12:23:27+0000</time>
      </trkpt>
      <trkpt lat="40.84111" lon="-1.8796700000000002">
        <time>2021-06-19T12:23:28+0000</time>
      </trkpt>
      <trkpt lat="40.84109" lon="-1.8797000000000001">
        <time>2021-06-19T12:23:29+0000</time>
      </trkpt>
      <trkpt lat="40.841080000000005" lon="-1.87972">
        <time>2021-06-19T12:23:30+0000</time>
      </trkpt>
      <trkpt lat="40.841060000000006" lon="-1.8797400000000002">
        <time>2021-06-19T12:23:31+0000</time>
      </trkpt>
      <trkpt lat="40.84105" lon="-1.87976">
        <time>2021-06-19T12:23:32+0000</time>
      </trkpt>
      <trkpt lat="40.84103" lon="-1.8797800000000002">
        <time>2021-06-19T12:23:33+0000</time>
      </trkpt>
      <trkpt lat="40.84102" lon="-1.8798000000000001">
        <time>2021-06-19T12:23:34+0000</time>
      </trkpt>
      <trkpt lat="40.841010000000004" lon="-1.87982">
        <time>2021-06-19T12:23:35+0000</time>
      </trkpt>
      <trkpt lat="40.840990000000005" lon="-1.8798500000000002">
        <time>2021-06-19T12:23:36+0000</time>
      </trkpt>
      <trkpt lat="40.84098" lon="-1.8798700000000002">
        <time>2021-06-19T12:23:37+0000</time>
      </trkpt>
      <trkpt lat="40.840970000000006" lon="-1.87989">
        <time>2021-06-19T12:23:38+0000</time>
      </trkpt>
      <trkpt lat="40.84096" lon="-1.8799000000000001">
        <time>2021-06-19T12:23:39+0000</time>
      </trkpt>
      <trkpt lat="40.84095000000001" lon="-1.8799100000000002">
        <time>2021-06-19T12:23:40+0000</time>
      </trkpt>
      <trkpt lat="40.84093" lon="-1.87993">
        <time>2021-06-19T12:23:41+0000</time>
      </trkpt>
      <trkpt lat="40.840920000000004" lon="-1.8799500000000002">
        <time>2021-06-19T12:23:42+0000</time>
      </trkpt>
      <trkpt lat="40.840920000000004" lon="-1.8799700000000001">
        <time>2021-06-19T12:23:43+0000</time>
      </trkpt>
      <trkpt lat="40.840920000000004" lon="-1.87999">
        <time>2021-06-19T12:23:44+0000</time>
      </trkpt>
      <trkpt lat="40.840920000000004" lon="-1.8800100000000002">
        <time>2021-06-19T12:23:45+0000</time>
      </trkpt>
      <trkpt lat="40.840920000000004" lon="-1.88003">
        <time>2021-06-19T12:23:46+0000</time>
      </trkpt>
      <trkpt lat="40.840900000000005" lon="-1.8800400000000002">
        <time>2021-06-19T12:23:47+0000</time>
      </trkpt>
      <trkpt lat="40.84113000000001" lon="-1.88016">
        <time>2021-06-19T14:11:53+0000</time>
      </trkpt>
      <trkpt lat="40.841150000000006" lon="-1.8801700000000001">
        <time>2021-06-19T14:11:54+0000</time>
      </trkpt>
      <trkpt lat="40.841170000000005" lon="-1.8801700000000001">
        <time>2021-06-19T14:11:55+0000</time>
      </trkpt>
      <trkpt lat="40.84118" lon="-1.8801500000000002">
        <time>2021-06-19T14:11:56+0000</time>
      </trkpt>
      <trkpt lat="40.84118" lon="-1.88013">
        <time>2021-06-19T14:11:57+0000</time>
      </trkpt>
      <trkpt lat="40.841170000000005" lon="-1.8801100000000002">
        <time>2021-06-19T14:11:58+0000</time>
      </trkpt>
      <trkpt lat="40.84113000000001" lon="-1.8800400000000002">
        <time>2021-06-19T14:12:26+0000</time>
      </trkpt>
      <trkpt lat="40.84109" lon="-1.8800400000000002">
        <time>2021-06-19T14:12:29+0000</time>
      </trkpt>
      <trkpt lat="40.841060000000006" lon="-1.8800400000000002">
        <time>2021-06-19T14:12:30+0000</time>
      </trkpt>
      <trkpt lat="40.84103" lon="-1.8800400000000002">
        <time>2021-06-19T14:12:31+0000</time>
      </trkpt>
      <trkpt lat="40.841" lon="-1.8800400000000002">
        <time>2021-06-19T14:12:32+0000</time>
      </trkpt>
      <trkpt lat="40.84098" lon="-1.8800500000000002">
        <time>2021-06-19T14:12:33+0000</time>
      </trkpt>
      <trkpt lat="40.84096" lon="-1.88006">
        <time>2021-06-19T14:12:40+0000</time>
      </trkpt>
      <trkpt lat="40.84094" lon="-1.8800400000000002">
        <time>2021-06-19T14:12:41+0000</time>
      </trkpt>
      <trkpt lat="40.84093" lon="-1.8800200000000002">
        <time>2021-06-19T14:12:42+0000</time>
      </trkpt>
      <trkpt lat="40.840920000000004" lon="-1.8799700000000001">
        <time>2021-06-19T14:12:43+0000</time>
      </trkpt>
      <trkpt lat="40.84093" lon="-1.8799000000000001">
        <time>2021-06-19T14:12:44+0000</time>
      </trkpt>
      <trkpt lat="40.840970000000006" lon="-1.8798300000000001">
        <time>2021-06-19T14:12:45+0000</time>
      </trkpt>
      <trkpt lat="40.84102" lon="-1.8797700000000002">
        <time>2021-06-19T14:12:46+0000</time>
      </trkpt>
      <trkpt lat="40.841060000000006" lon="-1.8797100000000002">
        <time>2021-06-19T14:12:47+0000</time>
      </trkpt>
      <trkpt lat="40.84109" lon="-1.87966">
        <time>2021-06-19T14:12:48+0000</time>
      </trkpt>
      <trkpt lat="40.841120000000004" lon="-1.8796000000000002">
        <time>2021-06-19T14:12:49+0000</time>
      </trkpt>
      <trkpt lat="40.84116" lon="-1.8795400000000002">
        <time>2021-06-19T14:12:50+0000</time>
      </trkpt>
      <trkpt lat="40.84118" lon="-1.8794700000000002">
        <time>2021-06-19T14:12:51+0000</time>
      </trkpt>
      <trkpt lat="40.84123" lon="-1.87942">
        <time>2021-06-19T14:12:52+0000</time>
      </trkpt>
      <trkpt lat="40.84127" lon="-1.8793400000000002">
        <time>2021-06-19T14:12:53+0000</time>
      </trkpt>
      <trkpt lat="40.841330000000006" lon="-1.87925">
        <time>2021-06-19T14:12:54+0000</time>
      </trkpt>
      <trkpt lat="40.84138" lon="-1.8791600000000002">
        <time>2021-06-19T14:12:55+0000</time>
      </trkpt>
      <trkpt lat="40.84143" lon="-1.8790700000000002">
        <time>2021-06-19T14:12:56+0000</time>
      </trkpt>
      <trkpt lat="40.841480000000004" lon="-1.8789900000000002">
        <time>2021-06-19T14:12:57+0000</time>
      </trkpt>
      <trkpt lat="40.84152" lon="-1.87891">
        <time>2021-06-19T14:12:58+0000</time>
      </trkpt>
      <trkpt lat="40.841570000000004" lon="-1.87884">
        <time>2021-06-19T14:12:59+0000</time>
      </trkpt>
      <trkpt lat="40.84161" lon="-1.87877">
        <time>2021-06-19T14:13:00+0000</time>
      </trkpt>
      <trkpt lat="40.841660000000005" lon="-1.87871">
        <time>2021-06-19T14:13:01+0000</time>
      </trkpt>
      <trkpt lat="40.841710000000006" lon="-1.8786600000000002">
        <time>2021-06-19T14:13:02+0000</time>
      </trkpt>
      <trkpt lat="40.841750000000005" lon="-1.8786">
        <time>2021-06-19T14:13:03+0000</time>
      </trkpt>
      <trkpt lat="40.84179" lon="-1.8785500000000002">
        <time>2021-06-19T14:13:04+0000</time>
      </trkpt>
      <trkpt lat="40.84181" lon="-1.8784900000000002">
        <time>2021-06-19T14:13:05+0000</time>
      </trkpt>
      <trkpt lat="40.841860000000004" lon="-1.87847">
        <time>2021-06-19T14:13:06+0000</time>
      </trkpt>
      <trkpt lat="40.84189000000001" lon="-1.87844">
        <time>2021-06-19T14:13:07+0000</time>
      </trkpt>
      <trkpt lat="40.841910000000006" lon="-1.8784100000000001">
        <time>2021-06-19T14:13:08+0000</time>
      </trkpt>
      <trkpt lat="40.841930000000005" lon="-1.8784">
        <time>2021-06-19T14:13:09+0000</time>
      </trkpt>
      <trkpt lat="40.841930000000005" lon="-1.8784">
        <time>2021-06-19T14:13:13+0000</time>
      </trkpt>
      <trkpt lat="40.841950000000004" lon="-1.8784">
        <time>2021-06-19T14:13:14+0000</time>
      </trkpt>
      <trkpt lat="40.84196" lon="-1.87837">
        <time>2021-06-19T14:13:15+0000</time>
      </trkpt>
      <trkpt lat="40.84197" lon="-1.87837">
        <time>2021-06-19T14:13:16+0000</time>
      </trkpt>
      <trkpt lat="40.842040000000004" lon="-1.87854">
        <time>2021-06-19T14:13:17+0000</time>
      </trkpt>
      <trkpt lat="40.842060000000004" lon="-1.8786600000000002">
        <time>2021-06-19T14:13:18+0000</time>
      </trkpt>
      <trkpt lat="40.84207000000001" lon="-1.87877">
        <time>2021-06-19T14:13:19+0000</time>
      </trkpt>
      <trkpt lat="40.84208" lon="-1.8788700000000003">
        <time>2021-06-19T14:13:20+0000</time>
      </trkpt>
      <trkpt lat="40.842090000000006" lon="-1.8789600000000002">
        <time>2021-06-19T14:13:21+0000</time>
      </trkpt>
      <trkpt lat="40.842110000000005" lon="-1.8790600000000002">
        <time>2021-06-19T14:13:22+0000</time>
      </trkpt>
      <trkpt lat="40.842130000000004" lon="-1.8791700000000002">
        <time>2021-06-19T14:13:23+0000</time>
      </trkpt>
      <trkpt lat="40.842150000000004" lon="-1.87928">
        <time>2021-06-19T14:13:24+0000</time>
      </trkpt>
      <trkpt lat="40.84217" lon="-1.8794100000000002">
        <time>2021-06-19T14:13:25+0000</time>
      </trkpt>
      <trkpt lat="40.842200000000005" lon="-1.87955">
        <time>2021-06-19T14:13:26+0000</time>
      </trkpt>
      <trkpt lat="40.842220000000005" lon="-1.8797000000000001">
        <time>2021-06-19T14:13:27+0000</time>
      </trkpt>
      <trkpt lat="40.842240000000004" lon="-1.8798300000000001">
        <time>2021-06-19T14:13:28+0000</time>
      </trkpt>
      <trkpt lat="40.84226" lon="-1.87996">
        <time>2021-06-19T14:13:29+0000</time>
      </trkpt>
      <trkpt lat="40.84228" lon="-1.8800900000000003">
        <time>2021-06-19T14:13:30+0000</time>
      </trkpt>
      <trkpt lat="40.842310000000005" lon="-1.88023">
        <time>2021-06-19T14:13:31+0000</time>
      </trkpt>
      <trkpt lat="40.84234" lon="-1.88037">
        <time>2021-06-19T14:13:32+0000</time>
      </trkpt>
      <trkpt lat="40.84237" lon="-1.8805100000000001">
        <time>2021-06-19T14:13:33+0000</time>
      </trkpt>
      <trkpt lat="40.84241" lon="-1.88064">
        <time>2021-06-19T14:13:34+0000</time>
      </trkpt>
      <trkpt lat="40.84246" lon="-1.88077">
        <time>2021-06-19T14:13:35+0000</time>
      </trkpt>
      <trkpt lat="40.842510000000004" lon="-1.88088">
        <time>2021-06-19T14:13:36+0000</time>
      </trkpt>
      <trkpt lat="40.842560000000006" lon="-1.8809900000000002">
        <time>2021-06-19T14:13:37+0000</time>
      </trkpt>
      <trkpt lat="40.84261" lon="-1.8811000000000002">
        <time>2021-06-19T14:13:38+0000</time>
      </trkpt>
      <trkpt lat="40.84266" lon="-1.88121">
        <time>2021-06-19T14:13:39+0000</time>
      </trkpt>
      <trkpt lat="40.84272" lon="-1.8813100000000003">
        <time>2021-06-19T14:13:40+0000</time>
      </trkpt>
      <trkpt lat="40.842780000000005" lon="-1.88142">
        <time>2021-06-19T14:13:41+0000</time>
      </trkpt>
      <trkpt lat="40.842850000000006" lon="-1.88152">
        <time>2021-06-19T14:13:42+0000</time>
      </trkpt>
      <trkpt lat="40.84292000000001" lon="-1.88162">
        <time>2021-06-19T14:13:43+0000</time>
      </trkpt>
      <trkpt lat="40.843" lon="-1.88172">
        <time>2021-06-19T14:13:44+0000</time>
      </trkpt>
      <trkpt lat="40.84308" lon="-1.8818100000000002">
        <time>2021-06-19T14:13:45+0000</time>
      </trkpt>
      <trkpt lat="40.84317" lon="-1.8819000000000001">
        <time>2021-06-19T14:13:46+0000</time>
      </trkpt>
      <trkpt lat="40.843250000000005" lon="-1.8819800000000002">
        <time>2021-06-19T14:13:47+0000</time>
      </trkpt>
      <trkpt lat="40.84335" lon="-1.8820500000000002">
        <time>2021-06-19T14:13:48+0000</time>
      </trkpt>
      <trkpt lat="40.84344" lon="-1.8821200000000002">
        <time>2021-06-19T14:13:49+0000</time>
      </trkpt>
      <trkpt lat="40.84353" lon="-1.8821800000000002">
        <time>2021-06-19T14:13:50+0000</time>
      </trkpt>
      <trkpt lat="40.843610000000005" lon="-1.88223">
        <time>2021-06-19T14:13:51+0000</time>
      </trkpt>
      <trkpt lat="40.84369" lon="-1.88227">
        <time>2021-06-19T14:13:52+0000</time>
      </trkpt>
      <trkpt lat="40.84378" lon="-1.8822900000000002">
        <time>2021-06-19T14:13:53+0000</time>
      </trkpt>
      <trkpt lat="40.84386000000001" lon="-1.88233">
        <time>2021-06-19T14:13:54+0000</time>
      </trkpt>
      <trkpt lat="40.84393" lon="-1.8823600000000003">
        <time>2021-06-19T14:13:55+0000</time>
      </trkpt>
      <trkpt lat="40.844010000000004" lon="-1.8824">
        <time>2021-06-19T14:13:56+0000</time>
      </trkpt>
      <trkpt lat="40.844080000000005" lon="-1.88243">
        <time>2021-06-19T14:13:57+0000</time>
      </trkpt>
      <trkpt lat="40.844150000000006" lon="-1.88247">
        <time>2021-06-19T14:13:58+0000</time>
      </trkpt>
      <trkpt lat="40.844210000000004" lon="-1.8825100000000001">
        <time>2021-06-19T14:13:59+0000</time>
      </trkpt>
      <trkpt lat="40.84427" lon="-1.8825300000000003">
        <time>2021-06-19T14:14:00+0000</time>
      </trkpt>
      <trkpt lat="40.84431" lon="-1.8825500000000002">
        <time>2021-06-19T14:14:01+0000</time>
      </trkpt>
      <trkpt lat="40.84434" lon="-1.88257">
        <time>2021-06-19T14:14:02+0000</time>
      </trkpt>
      <trkpt lat="40.844370000000005" lon="-1.8825900000000002">
        <time>2021-06-19T14:14:03+0000</time>
      </trkpt>
      <trkpt lat="40.8444" lon="-1.8826">
        <time>2021-06-19T14:14:04+0000</time>
      </trkpt>
      <trkpt lat="40.84442000000001" lon="-1.8826100000000001">
        <time>2021-06-19T14:14:05+0000</time>
      </trkpt>
      <trkpt lat="40.844440000000006" lon="-1.8826200000000002">
        <time>2021-06-19T14:14:06+0000</time>
      </trkpt>
      <trkpt lat="40.84445" lon="-1.8826300000000002">
        <time>2021-06-19T14:14:07+0000</time>
      </trkpt>
      <trkpt lat="40.844460000000005" lon="-1.88264">
        <time>2021-06-19T14:14:08+0000</time>
      </trkpt>
      <trkpt lat="40.844460000000005" lon="-1.8826800000000001">
        <time>2021-06-19T14:14:22+0000</time>
      </trkpt>
      <trkpt lat="40.84447" lon="-1.88271">
        <time>2021-06-19T14:14:23+0000</time>
      </trkpt>
      <trkpt lat="40.844500000000004" lon="-1.8827600000000002">
        <time>2021-06-19T14:14:24+0000</time>
      </trkpt>
      <trkpt lat="40.844530000000006" lon="-1.8828200000000002">
        <time>2021-06-19T14:14:25+0000</time>
      </trkpt>
      <trkpt lat="40.844570000000004" lon="-1.88288">
        <time>2021-06-19T14:14:26+0000</time>
      </trkpt>
      <trkpt lat="40.84461" lon="-1.8829500000000001">
        <time>2021-06-19T14:14:27+0000</time>
      </trkpt>
      <trkpt lat="40.844640000000005" lon="-1.88304">
        <time>2021-06-19T14:14:28+0000</time>
      </trkpt>
      <trkpt lat="40.84467" lon="-1.8831300000000002">
        <time>2021-06-19T14:14:29+0000</time>
      </trkpt>
      <trkpt lat="40.8447" lon="-1.88321">
        <time>2021-06-19T14:14:30+0000</time>
      </trkpt>
      <trkpt lat="40.84472" lon="-1.8833000000000002">
        <time>2021-06-19T14:14:31+0000</time>
      </trkpt>
      <trkpt lat="40.844730000000006" lon="-1.8833900000000001">
        <time>2021-06-19T14:14:32+0000</time>
      </trkpt>
      <trkpt lat="40.84474" lon="-1.88348">
        <time>2021-06-19T14:14:33+0000</time>
      </trkpt>
      <trkpt lat="40.84476" lon="-1.8835800000000003">
        <time>2021-06-19T14:14:34+0000</time>
      </trkpt>
      <trkpt lat="40.84479" lon="-1.88369">
        <time>2021-06-19T14:14:35+0000</time>
      </trkpt>
      <trkpt lat="40.84481" lon="-1.88379">
        <time>2021-06-19T14:14:36+0000</time>
      </trkpt>
      <trkpt lat="40.844840000000005" lon="-1.8839000000000001">
        <time>2021-06-19T14:14:37+0000</time>
      </trkpt>
      <trkpt lat="40.84488" lon="-1.8840200000000003">
        <time>2021-06-19T14:14:38+0000</time>
      </trkpt>
      <trkpt lat="40.84492" lon="-1.8841400000000001">
        <time>2021-06-19T14:14:39+0000</time>
      </trkpt>
      <trkpt lat="40.84496" lon="-1.8842700000000001">
        <time>2021-06-19T14:14:40+0000</time>
      </trkpt>
      <trkpt lat="40.84499" lon="-1.8843900000000002">
        <time>2021-06-19T14:14:41+0000</time>
      </trkpt>
      <trkpt lat="40.84501" lon="-1.8845100000000001">
        <time>2021-06-19T14:14:42+0000</time>
      </trkpt>
      <trkpt lat="40.845000000000006" lon="-1.88464">
        <time>2021-06-19T14:14:43+0000</time>
      </trkpt>
      <trkpt lat="40.84496" lon="-1.88477">
        <time>2021-06-19T14:14:44+0000</time>
      </trkpt>
      <trkpt lat="40.8449" lon="-1.8848900000000002">
        <time>2021-06-19T14:14:45+0000</time>
      </trkpt>
      <trkpt lat="40.84481" lon="-1.8849900000000002">
        <time>2021-06-19T14:14:46+0000</time>
      </trkpt>
      <trkpt lat="40.84472" lon="-1.8850900000000002">
        <time>2021-06-19T14:14:47+0000</time>
      </trkpt>
      <trkpt lat="40.84463" lon="-1.8852000000000002">
        <time>2021-06-19T14:14:48+0000</time>
      </trkpt>
      <trkpt lat="40.84456" lon="-1.8853300000000002">
        <time>2021-06-19T14:14:49+0000</time>
      </trkpt>
      <trkpt lat="40.84449" lon="-1.88548">
        <time>2021-06-19T14:14:50+0000</time>
      </trkpt>
      <trkpt lat="40.844460000000005" lon="-1.8856400000000002">
        <time>2021-06-19T14:14:51+0000</time>
      </trkpt>
      <trkpt lat="40.844480000000004" lon="-1.8858100000000002">
        <time>2021-06-19T14:14:52+0000</time>
      </trkpt>
      <trkpt lat="40.84451000000001" lon="-1.8859700000000001">
        <time>2021-06-19T14:14:53+0000</time>
      </trkpt>
      <trkpt lat="40.84456" lon="-1.88613">
        <time>2021-06-19T14:14:54+0000</time>
      </trkpt>
      <trkpt lat="40.844620000000006" lon="-1.8862800000000002">
        <time>2021-06-19T14:14:55+0000</time>
      </trkpt>
      <trkpt lat="40.84469" lon="-1.88643">
        <time>2021-06-19T14:14:56+0000</time>
      </trkpt>
      <trkpt lat="40.844750000000005" lon="-1.8865800000000001">
        <time>2021-06-19T14:14:57+0000</time>
      </trkpt>
      <trkpt lat="40.84479" lon="-1.8867500000000001">
        <time>2021-06-19T14:14:58+0000</time>
      </trkpt>
      <trkpt lat="40.844820000000006" lon="-1.8869200000000002">
        <time>2021-06-19T14:14:59+0000</time>
      </trkpt>
      <trkpt lat="40.844840000000005" lon="-1.88708">
        <time>2021-06-19T14:15:00+0000</time>
      </trkpt>
      <trkpt lat="40.84487" lon="-1.8872400000000003">
        <time>2021-06-19T14:15:01+0000</time>
      </trkpt>
      <trkpt lat="40.8449" lon="-1.8874100000000003">
        <time>2021-06-19T14:15:02+0000</time>
      </trkpt>
      <trkpt lat="40.844930000000005" lon="-1.8875700000000002">
        <time>2021-06-19T14:15:03+0000</time>
      </trkpt>
      <trkpt lat="40.844950000000004" lon="-1.8877500000000003">
        <time>2021-06-19T14:15:04+0000</time>
      </trkpt>
      <trkpt lat="40.84498000000001" lon="-1.88793">
        <time>2021-06-19T14:15:05+0000</time>
      </trkpt>
      <trkpt lat="40.845000000000006" lon="-1.8881200000000002">
        <time>2021-06-19T14:15:06+0000</time>
      </trkpt>
      <trkpt lat="40.84492" lon="-1.8883200000000002">
        <time>2021-06-19T14:15:07+0000</time>
      </trkpt>
      <trkpt lat="40.84485" lon="-1.8885300000000003">
        <time>2021-06-19T14:15:08+0000</time>
      </trkpt>
      <trkpt lat="40.84478" lon="-1.88871">
        <time>2021-06-19T14:15:09+0000</time>
      </trkpt>
      <trkpt lat="40.844730000000006" lon="-1.8888600000000002">
        <time>2021-06-19T14:15:10+0000</time>
      </trkpt>
      <trkpt lat="40.844680000000004" lon="-1.88901">
        <time>2021-06-19T14:15:11+0000</time>
      </trkpt>
      <trkpt lat="40.844640000000005" lon="-1.8891600000000002">
        <time>2021-06-19T14:15:12+0000</time>
      </trkpt>
      <trkpt lat="40.844590000000004" lon="-1.8893000000000002">
        <time>2021-06-19T14:15:13+0000</time>
      </trkpt>
      <trkpt lat="40.84454" lon="-1.8894300000000002">
        <time>2021-06-19T14:15:14+0000</time>
      </trkpt>
      <trkpt lat="40.84451000000001" lon="-1.8895600000000001">
        <time>2021-06-19T14:15:15+0000</time>
      </trkpt>
      <trkpt lat="40.844500000000004" lon="-1.88969">
        <time>2021-06-19T14:15:16+0000</time>
      </trkpt>
      <trkpt lat="40.84451000000001" lon="-1.8898400000000002">
        <time>2021-06-19T14:15:17+0000</time>
      </trkpt>
      <trkpt lat="40.844530000000006" lon="-1.8900000000000001">
        <time>2021-06-19T14:15:18+0000</time>
      </trkpt>
      <trkpt lat="40.84456" lon="-1.89016">
        <time>2021-06-19T14:15:19+0000</time>
      </trkpt>
      <trkpt lat="40.8446" lon="-1.8903100000000002">
        <time>2021-06-19T14:15:20+0000</time>
      </trkpt>
      <trkpt lat="40.84469" lon="-1.8904200000000002">
        <time>2021-06-19T14:15:21+0000</time>
      </trkpt>
      <trkpt lat="40.844800000000006" lon="-1.8904900000000002">
        <time>2021-06-19T14:15:22+0000</time>
      </trkpt>
      <trkpt lat="40.844910000000006" lon="-1.8905500000000002">
        <time>2021-06-19T14:15:23+0000</time>
      </trkpt>
      <trkpt lat="40.845040000000004" lon="-1.8905900000000002">
        <time>2021-06-19T14:15:24+0000</time>
      </trkpt>
      <trkpt lat="40.84517" lon="-1.89064">
        <time>2021-06-19T14:15:25+0000</time>
      </trkpt>
      <trkpt lat="40.8453" lon="-1.8906800000000001">
        <time>2021-06-19T14:15:26+0000</time>
      </trkpt>
      <trkpt lat="40.84544" lon="-1.8907">
        <time>2021-06-19T14:15:27+0000</time>
      </trkpt>
      <trkpt lat="40.84557" lon="-1.8907100000000001">
        <time>2021-06-19T14:15:28+0000</time>
      </trkpt>
      <trkpt lat="40.8457" lon="-1.89067">
        <time>2021-06-19T14:15:29+0000</time>
      </trkpt>
      <trkpt lat="40.84582" lon="-1.8906100000000001">
        <time>2021-06-19T14:15:30+0000</time>
      </trkpt>
      <trkpt lat="40.845940000000006" lon="-1.89053">
        <time>2021-06-19T14:15:31+0000</time>
      </trkpt>
      <trkpt lat="40.846050000000005" lon="-1.8904100000000001">
        <time>2021-06-19T14:15:32+0000</time>
      </trkpt>
      <trkpt lat="40.846160000000005" lon="-1.8902900000000002">
        <time>2021-06-19T14:15:33+0000</time>
      </trkpt>
      <trkpt lat="40.84631" lon="-1.8901400000000002">
        <time>2021-06-19T14:15:34+0000</time>
      </trkpt>
      <trkpt lat="40.846430000000005" lon="-1.8900100000000002">
        <time>2021-06-19T14:15:35+0000</time>
      </trkpt>
      <trkpt lat="40.84655" lon="-1.8899000000000001">
        <time>2021-06-19T14:15:36+0000</time>
      </trkpt>
      <trkpt lat="40.84667" lon="-1.88979">
        <time>2021-06-19T14:15:37+0000</time>
      </trkpt>
      <trkpt lat="40.8468" lon="-1.88972">
        <time>2021-06-19T14:15:38+0000</time>
      </trkpt>
      <trkpt lat="40.846920000000004" lon="-1.8896600000000001">
        <time>2021-06-19T14:15:39+0000</time>
      </trkpt>
      <trkpt lat="40.84705" lon="-1.88962">
        <time>2021-06-19T14:15:40+0000</time>
      </trkpt>
      <trkpt lat="40.84718" lon="-1.8896300000000001">
        <time>2021-06-19T14:15:41+0000</time>
      </trkpt>
      <trkpt lat="40.84731" lon="-1.88969">
        <time>2021-06-19T14:15:42+0000</time>
      </trkpt>
      <trkpt lat="40.847440000000006" lon="-1.88979">
        <time>2021-06-19T14:15:43+0000</time>
      </trkpt>
      <trkpt lat="40.847550000000005" lon="-1.8899500000000002">
        <time>2021-06-19T14:15:44+0000</time>
      </trkpt>
      <trkpt lat="40.84765" lon="-1.8901200000000002">
        <time>2021-06-19T14:15:45+0000</time>
      </trkpt>
      <trkpt lat="40.84772" lon="-1.8903">
        <time>2021-06-19T14:15:46+0000</time>
      </trkpt>
      <trkpt lat="40.84780000000001" lon="-1.8905">
        <time>2021-06-19T14:15:47+0000</time>
      </trkpt>
      <trkpt lat="40.84787" lon="-1.8906900000000002">
        <time>2021-06-19T14:15:48+0000</time>
      </trkpt>
      <trkpt lat="40.84794" lon="-1.89087">
        <time>2021-06-19T14:15:49+0000</time>
      </trkpt>
      <trkpt lat="40.848000000000006" lon="-1.8910200000000001">
        <time>2021-06-19T14:15:50+0000</time>
      </trkpt>
      <trkpt lat="40.84807" lon="-1.89118">
        <time>2021-06-19T14:15:51+0000</time>
      </trkpt>
      <trkpt lat="40.848130000000005" lon="-1.8913300000000002">
        <time>2021-06-19T14:15:52+0000</time>
      </trkpt>
      <trkpt lat="40.84819" lon="-1.89148">
        <time>2021-06-19T14:15:53+0000</time>
      </trkpt>
      <trkpt lat="40.84826" lon="-1.89165">
        <time>2021-06-19T14:15:54+0000</time>
      </trkpt>
      <trkpt lat="40.848330000000004" lon="-1.89182">
        <time>2021-06-19T14:15:55+0000</time>
      </trkpt>
      <trkpt lat="40.84841" lon="-1.8920000000000001">
        <time>2021-06-19T14:15:56+0000</time>
      </trkpt>
      <trkpt lat="40.848470000000006" lon="-1.8921900000000003">
        <time>2021-06-19T14:15:57+0000</time>
      </trkpt>
      <trkpt lat="40.848530000000004" lon="-1.8923800000000002">
        <time>2021-06-19T14:15:58+0000</time>
      </trkpt>
      <trkpt lat="40.848580000000005" lon="-1.89257">
        <time>2021-06-19T14:15:59+0000</time>
      </trkpt>
      <trkpt lat="40.84863" lon="-1.89277">
        <time>2021-06-19T14:16:00+0000</time>
      </trkpt>
      <trkpt lat="40.84868" lon="-1.8929900000000002">
        <time>2021-06-19T14:16:01+0000</time>
      </trkpt>
      <trkpt lat="40.848710000000004" lon="-1.89321">
        <time>2021-06-19T14:16:02+0000</time>
      </trkpt>
      <trkpt lat="40.84873" lon="-1.8934400000000002">
        <time>2021-06-19T14:16:03+0000</time>
      </trkpt>
      <trkpt lat="40.848760000000006" lon="-1.8936800000000003">
        <time>2021-06-19T14:16:04+0000</time>
      </trkpt>
      <trkpt lat="40.848800000000004" lon="-1.8939100000000002">
        <time>2021-06-19T14:16:05+0000</time>
      </trkpt>
      <trkpt lat="40.84884" lon="-1.8941400000000002">
        <time>2021-06-19T14:16:06+0000</time>
      </trkpt>
      <trkpt lat="40.848890000000004" lon="-1.8943800000000002">
        <time>2021-06-19T14:16:07+0000</time>
      </trkpt>
      <trkpt lat="40.84897" lon="-1.8946200000000002">
        <time>2021-06-19T14:16:08+0000</time>
      </trkpt>
      <trkpt lat="40.84906" lon="-1.8948600000000002">
        <time>2021-06-19T14:16:09+0000</time>
      </trkpt>
      <trkpt lat="40.849180000000004" lon="-1.8951000000000002">
        <time>2021-06-19T14:16:10+0000</time>
      </trkpt>
      <trkpt lat="40.84931" lon="-1.8953200000000001">
        <time>2021-06-19T14:16:11+0000</time>
      </trkpt>
      <trkpt lat="40.849470000000004" lon="-1.89552">
        <time>2021-06-19T14:16:12+0000</time>
      </trkpt>
      <trkpt lat="40.849630000000005" lon="-1.8957100000000002">
        <time>2021-06-19T14:16:13+0000</time>
      </trkpt>
      <trkpt lat="40.849790000000006" lon="-1.89589">
        <time>2021-06-19T14:16:14+0000</time>
      </trkpt>
      <trkpt lat="40.84996" lon="-1.8960800000000002">
        <time>2021-06-19T14:16:15+0000</time>
      </trkpt>
      <trkpt lat="40.85011" lon="-1.8962900000000003">
        <time>2021-06-19T14:16:16+0000</time>
      </trkpt>
      <trkpt lat="40.850260000000006" lon="-1.8965">
        <time>2021-06-19T14:16:17+0000</time>
      </trkpt>
      <trkpt lat="40.850410000000004" lon="-1.8967">
        <time>2021-06-19T14:16:18+0000</time>
      </trkpt>
      <trkpt lat="40.850550000000005" lon="-1.89691">
        <time>2021-06-19T14:16:19+0000</time>
      </trkpt>
      <trkpt lat="40.85071000000001" lon="-1.8971200000000001">
        <time>2021-06-19T14:16:20+0000</time>
      </trkpt>
      <trkpt lat="40.85085" lon="-1.8973200000000001">
        <time>2021-06-19T14:16:21+0000</time>
      </trkpt>
      <trkpt lat="40.85101" lon="-1.8975300000000002">
        <time>2021-06-19T14:16:22+0000</time>
      </trkpt>
      <trkpt lat="40.85116" lon="-1.8977400000000002">
        <time>2021-06-19T14:16:23+0000</time>
      </trkpt>
      <trkpt lat="40.851310000000005" lon="-1.8979500000000002">
        <time>2021-06-19T14:16:24+0000</time>
      </trkpt>
      <trkpt lat="40.85146" lon="-1.89816">
        <time>2021-06-19T14:16:25+0000</time>
      </trkpt>
      <trkpt lat="40.85161" lon="-1.8983800000000002">
        <time>2021-06-19T14:16:26+0000</time>
      </trkpt>
      <trkpt lat="40.851760000000006" lon="-1.8985900000000002">
        <time>2021-06-19T14:16:27+0000</time>
      </trkpt>
      <trkpt lat="40.85193" lon="-1.89881">
        <time>2021-06-19T14:16:28+0000</time>
      </trkpt>
      <trkpt lat="40.852090000000004" lon="-1.8990300000000002">
        <time>2021-06-19T14:16:29+0000</time>
      </trkpt>
      <trkpt lat="40.852250000000005" lon="-1.89925">
        <time>2021-06-19T14:16:30+0000</time>
      </trkpt>
      <trkpt lat="40.852410000000006" lon="-1.8994700000000002">
        <time>2021-06-19T14:16:31+0000</time>
      </trkpt>
      <trkpt lat="40.85257" lon="-1.89969">
        <time>2021-06-19T14:16:32+0000</time>
      </trkpt>
      <trkpt lat="40.85273" lon="-1.8999100000000002">
        <time>2021-06-19T14:16:33+0000</time>
      </trkpt>
      <trkpt lat="40.852880000000006" lon="-1.9001200000000003">
        <time>2021-06-19T14:16:34+0000</time>
      </trkpt>
      <trkpt lat="40.85302" lon="-1.9003200000000002">
        <time>2021-06-19T14:16:35+0000</time>
      </trkpt>
      <trkpt lat="40.85316" lon="-1.90053">
        <time>2021-06-19T14:16:36+0000</time>
      </trkpt>
      <trkpt lat="40.853300000000004" lon="-1.90074">
        <time>2021-06-19T14:16:37+0000</time>
      </trkpt>
      <trkpt lat="40.85343" lon="-1.9009800000000001">
        <time>2021-06-19T14:16:38+0000</time>
      </trkpt>
      <trkpt lat="40.85356" lon="-1.90125">
        <time>2021-06-19T14:16:39+0000</time>
      </trkpt>
      <trkpt lat="40.85367" lon="-1.9015400000000002">
        <time>2021-06-19T14:16:40+0000</time>
      </trkpt>
      <trkpt lat="40.85376" lon="-1.9018400000000002">
        <time>2021-06-19T14:16:41+0000</time>
      </trkpt>
      <trkpt lat="40.853840000000005" lon="-1.9021500000000002">
        <time>2021-06-19T14:16:42+0000</time>
      </trkpt>
      <trkpt lat="40.853910000000006" lon="-1.9024500000000002">
        <time>2021-06-19T14:16:43+0000</time>
      </trkpt>
      <trkpt lat="40.85398" lon="-1.9027600000000002">
        <time>2021-06-19T14:16:44+0000</time>
      </trkpt>
      <trkpt lat="40.854040000000005" lon="-1.9030700000000003">
        <time>2021-06-19T14:16:45+0000</time>
      </trkpt>
      <trkpt lat="40.854110000000006" lon="-1.90338">
        <time>2021-06-19T14:16:46+0000</time>
      </trkpt>
      <trkpt lat="40.85418000000001" lon="-1.90369">
        <time>2021-06-19T14:16:47+0000</time>
      </trkpt>
      <trkpt lat="40.85425" lon="-1.9040000000000001">
        <time>2021-06-19T14:16:48+0000</time>
      </trkpt>
      <trkpt lat="40.85432" lon="-1.9043100000000002">
        <time>2021-06-19T14:16:49+0000</time>
      </trkpt>
      <trkpt lat="40.854400000000005" lon="-1.9046200000000002">
        <time>2021-06-19T14:16:50+0000</time>
      </trkpt>
      <trkpt lat="40.85446" lon="-1.9049300000000002">
        <time>2021-06-19T14:16:51+0000</time>
      </trkpt>
      <trkpt lat="40.854530000000004" lon="-1.9052300000000002">
        <time>2021-06-19T14:16:52+0000</time>
      </trkpt>
      <trkpt lat="40.854600000000005" lon="-1.9055400000000002">
        <time>2021-06-19T14:16:53+0000</time>
      </trkpt>
      <trkpt lat="40.854670000000006" lon="-1.9058500000000003">
        <time>2021-06-19T14:16:54+0000</time>
      </trkpt>
      <trkpt lat="40.85474000000001" lon="-1.9061500000000002">
        <time>2021-06-19T14:16:55+0000</time>
      </trkpt>
      <trkpt lat="40.85481" lon="-1.9064600000000003">
        <time>2021-06-19T14:16:56+0000</time>
      </trkpt>
      <trkpt lat="40.85488" lon="-1.90677">
        <time>2021-06-19T14:16:57+0000</time>
      </trkpt>
      <trkpt lat="40.85495" lon="-1.90708">
        <time>2021-06-19T14:16:58+0000</time>
      </trkpt>
      <trkpt lat="40.85501" lon="-1.90738">
        <time>2021-06-19T14:16:59+0000</time>
      </trkpt>
      <trkpt lat="40.85508" lon="-1.9076800000000003">
        <time>2021-06-19T14:17:00+0000</time>
      </trkpt>
      <trkpt lat="40.85515" lon="-1.9079800000000002">
        <time>2021-06-19T14:17:01+0000</time>
      </trkpt>
      <trkpt lat="40.85521000000001" lon="-1.9082700000000001">
        <time>2021-06-19T14:17:02+0000</time>
      </trkpt>
      <trkpt lat="40.855270000000004" lon="-1.9085500000000002">
        <time>2021-06-19T14:17:03+0000</time>
      </trkpt>
      <trkpt lat="40.855340000000005" lon="-1.9088300000000002">
        <time>2021-06-19T14:17:04+0000</time>
      </trkpt>
      <trkpt lat="40.8554" lon="-1.9091000000000002">
        <time>2021-06-19T14:17:05+0000</time>
      </trkpt>
      <trkpt lat="40.85546" lon="-1.90935">
        <time>2021-06-19T14:17:06+0000</time>
      </trkpt>
      <trkpt lat="40.85551" lon="-1.9096000000000002">
        <time>2021-06-19T14:17:07+0000</time>
      </trkpt>
      <trkpt lat="40.85557" lon="-1.9098400000000002">
        <time>2021-06-19T14:17:08+0000</time>
      </trkpt>
      <trkpt lat="40.855610000000006" lon="-1.91006">
        <time>2021-06-19T14:17:09+0000</time>
      </trkpt>
      <trkpt lat="40.855650000000004" lon="-1.9102700000000001">
        <time>2021-06-19T14:17:10+0000</time>
      </trkpt>
      <trkpt lat="40.855700000000006" lon="-1.9104800000000002">
        <time>2021-06-19T14:17:11+0000</time>
      </trkpt>
      <trkpt lat="40.85573" lon="-1.9106600000000002">
        <time>2021-06-19T14:17:12+0000</time>
      </trkpt>
      <trkpt lat="40.85577000000001" lon="-1.91084">
        <time>2021-06-19T14:17:13+0000</time>
      </trkpt>
      <trkpt lat="40.8558" lon="-1.91101">
        <time>2021-06-19T14:17:14+0000</time>
      </trkpt>
      <trkpt lat="40.85584" lon="-1.9111600000000002">
        <time>2021-06-19T14:17:15+0000</time>
      </trkpt>
      <trkpt lat="40.85587" lon="-1.91131">
        <time>2021-06-19T14:17:16+0000</time>
      </trkpt>
      <trkpt lat="40.85589" lon="-1.9114400000000002">
        <time>2021-06-19T14:17:17+0000</time>
      </trkpt>
      <trkpt lat="40.855920000000005" lon="-1.9115600000000001">
        <time>2021-06-19T14:17:18+0000</time>
      </trkpt>
      <trkpt lat="40.855940000000004" lon="-1.9116600000000001">
        <time>2021-06-19T14:17:19+0000</time>
      </trkpt>
      <trkpt lat="40.85595" lon="-1.9117300000000002">
        <time>2021-06-19T14:17:20+0000</time>
      </trkpt>
      <trkpt lat="40.855970000000006" lon="-1.91179">
        <time>2021-06-19T14:17:21+0000</time>
      </trkpt>
      <trkpt lat="40.85598" lon="-1.91185">
        <time>2021-06-19T14:17:22+0000</time>
      </trkpt>
      <trkpt lat="40.856" lon="-1.9119000000000002">
        <time>2021-06-19T14:17:23+0000</time>
      </trkpt>
      <trkpt lat="40.856" lon="-1.9119300000000001">
        <time>2021-06-19T14:17:24+0000</time>
      </trkpt>
      <trkpt lat="40.85589" lon="-1.91199">
        <time>2021-06-19T14:17:25+0000</time>
      </trkpt>
      <trkpt lat="40.855830000000005" lon="-1.91202">
        <time>2021-06-19T14:17:26+0000</time>
      </trkpt>
      <trkpt lat="40.855760000000004" lon="-1.9120500000000002">
        <time>2021-06-19T14:17:27+0000</time>
      </trkpt>
      <trkpt lat="40.85569" lon="-1.91206">
        <time>2021-06-19T14:17:28+0000</time>
      </trkpt>
      <trkpt lat="40.855630000000005" lon="-1.9120800000000002">
        <time>2021-06-19T14:17:29+0000</time>
      </trkpt>
      <trkpt lat="40.8556" lon="-1.91209">
        <time>2021-06-19T14:17:30+0000</time>
      </trkpt>
      <trkpt lat="40.85558" lon="-1.9121000000000001">
        <time>2021-06-19T14:17:31+0000</time>
      </trkpt>
      <trkpt lat="40.855560000000004" lon="-1.9121100000000002">
        <time>2021-06-19T14:17:32+0000</time>
      </trkpt>
      <trkpt lat="40.855560000000004" lon="-1.9121700000000001">
        <time>2021-06-19T14:17:33+0000</time>
      </trkpt>
      <trkpt lat="40.85555" lon="-1.9121700000000001">
        <time>2021-06-19T14:17:34+0000</time>
      </trkpt>
      <trkpt lat="40.855540000000005" lon="-1.9121800000000002">
        <time>2021-06-19T14:17:35+0000</time>
      </trkpt>
      <trkpt lat="40.855560000000004" lon="-1.9119100000000002">
        <time>2021-06-19T14:27:48+0000</time>
      </trkpt>
      <trkpt lat="40.85557" lon="-1.91192">
        <time>2021-06-19T14:27:49+0000</time>
      </trkpt>
      <trkpt lat="40.85562" lon="-1.91199">
        <time>2021-06-19T14:27:50+0000</time>
      </trkpt>
      <trkpt lat="40.85567" lon="-1.9119700000000002">
        <time>2021-06-19T14:27:51+0000</time>
      </trkpt>
      <trkpt lat="40.855700000000006" lon="-1.91196">
        <time>2021-06-19T14:27:52+0000</time>
      </trkpt>
      <trkpt lat="40.85573" lon="-1.9119400000000002">
        <time>2021-06-19T14:27:53+0000</time>
      </trkpt>
      <trkpt lat="40.855760000000004" lon="-1.9119400000000002">
        <time>2021-06-19T14:27:54+0000</time>
      </trkpt>
      <trkpt lat="40.855790000000006" lon="-1.9119300000000001">
        <time>2021-06-19T14:27:55+0000</time>
      </trkpt>
      <trkpt lat="40.855810000000005" lon="-1.9119300000000001">
        <time>2021-06-19T14:27:56+0000</time>
      </trkpt>
      <trkpt lat="40.855850000000004" lon="-1.91192">
        <time>2021-06-19T14:28:02+0000</time>
      </trkpt>
      <trkpt lat="40.85587" lon="-1.9119100000000002">
        <time>2021-06-19T14:28:03+0000</time>
      </trkpt>
      <trkpt lat="40.855880000000006" lon="-1.9119000000000002">
        <time>2021-06-19T14:28:04+0000</time>
      </trkpt>
      <trkpt lat="40.855900000000005" lon="-1.9119000000000002">
        <time>2021-06-19T14:28:05+0000</time>
      </trkpt>
      <trkpt lat="40.855920000000005" lon="-1.9119000000000002">
        <time>2021-06-19T14:28:06+0000</time>
      </trkpt>
      <trkpt lat="40.855940000000004" lon="-1.91189">
        <time>2021-06-19T14:28:07+0000</time>
      </trkpt>
      <trkpt lat="40.855970000000006" lon="-1.9118800000000002">
        <time>2021-06-19T14:28:08+0000</time>
      </trkpt>
      <trkpt lat="40.856030000000004" lon="-1.9120000000000001">
        <time>2021-06-19T14:28:09+0000</time>
      </trkpt>
      <trkpt lat="40.85607" lon="-1.91213">
        <time>2021-06-19T14:28:10+0000</time>
      </trkpt>
      <trkpt lat="40.85609" lon="-1.91226">
        <time>2021-06-19T14:28:11+0000</time>
      </trkpt>
      <trkpt lat="40.856120000000004" lon="-1.9124100000000002">
        <time>2021-06-19T14:28:12+0000</time>
      </trkpt>
      <trkpt lat="40.85616" lon="-1.9125800000000002">
        <time>2021-06-19T14:28:13+0000</time>
      </trkpt>
      <trkpt lat="40.856210000000004" lon="-1.9127600000000002">
        <time>2021-06-19T14:28:14+0000</time>
      </trkpt>
      <trkpt lat="40.85625" lon="-1.9129500000000002">
        <time>2021-06-19T14:28:15+0000</time>
      </trkpt>
      <trkpt lat="40.856300000000005" lon="-1.91314">
        <time>2021-06-19T14:28:16+0000</time>
      </trkpt>
      <trkpt lat="40.85636" lon="-1.9133600000000002">
        <time>2021-06-19T14:28:17+0000</time>
      </trkpt>
      <trkpt lat="40.856410000000004" lon="-1.91358">
        <time>2021-06-19T14:28:18+0000</time>
      </trkpt>
      <trkpt lat="40.856460000000006" lon="-1.9138000000000002">
        <time>2021-06-19T14:28:19+0000</time>
      </trkpt>
      <trkpt lat="40.856500000000004" lon="-1.9140100000000002">
        <time>2021-06-19T14:28:20+0000</time>
      </trkpt>
      <trkpt lat="40.856550000000006" lon="-1.9142100000000002">
        <time>2021-06-19T14:28:21+0000</time>
      </trkpt>
      <trkpt lat="40.856590000000004" lon="-1.9144100000000002">
        <time>2021-06-19T14:28:22+0000</time>
      </trkpt>
      <trkpt lat="40.856640000000006" lon="-1.9146200000000002">
        <time>2021-06-19T14:28:23+0000</time>
      </trkpt>
      <trkpt lat="40.85669" lon="-1.9148500000000002">
        <time>2021-06-19T14:28:24+0000</time>
      </trkpt>
      <trkpt lat="40.85674" lon="-1.9150800000000001">
        <time>2021-06-19T14:28:25+0000</time>
      </trkpt>
      <trkpt lat="40.85680000000001" lon="-1.9153300000000002">
        <time>2021-06-19T14:28:26+0000</time>
      </trkpt>
      <trkpt lat="40.856860000000005" lon="-1.91558">
        <time>2021-06-19T14:28:27+0000</time>
      </trkpt>
      <trkpt lat="40.85692" lon="-1.9158400000000002">
        <time>2021-06-19T14:28:28+0000</time>
      </trkpt>
      <trkpt lat="40.85698" lon="-1.9161100000000002">
        <time>2021-06-19T14:28:29+0000</time>
      </trkpt>
      <trkpt lat="40.857040000000005" lon="-1.9163800000000002">
        <time>2021-06-19T14:28:30+0000</time>
      </trkpt>
      <trkpt lat="40.8571" lon="-1.9166600000000003">
        <time>2021-06-19T14:28:31+0000</time>
      </trkpt>
      <trkpt lat="40.85716" lon="-1.91694">
        <time>2021-06-19T14:28:32+0000</time>
      </trkpt>
      <trkpt lat="40.857220000000005" lon="-1.9172200000000001">
        <time>2021-06-19T14:28:33+0000</time>
      </trkpt>
      <trkpt lat="40.85728" lon="-1.9174900000000001">
        <time>2021-06-19T14:28:34+0000</time>
      </trkpt>
      <trkpt lat="40.857350000000004" lon="-1.9177700000000002">
        <time>2021-06-19T14:28:35+0000</time>
      </trkpt>
      <trkpt lat="40.85741" lon="-1.9180500000000003">
        <time>2021-06-19T14:28:36+0000</time>
      </trkpt>
      <trkpt lat="40.857470000000006" lon="-1.9183200000000002">
        <time>2021-06-19T14:28:37+0000</time>
      </trkpt>
      <trkpt lat="40.857530000000004" lon="-1.9186">
        <time>2021-06-19T14:28:38+0000</time>
      </trkpt>
      <trkpt lat="40.857600000000005" lon="-1.9188800000000001">
        <time>2021-06-19T14:28:39+0000</time>
      </trkpt>
      <trkpt lat="40.857670000000006" lon="-1.9191600000000002">
        <time>2021-06-19T14:28:40+0000</time>
      </trkpt>
      <trkpt lat="40.85774000000001" lon="-1.9194400000000003">
        <time>2021-06-19T14:28:41+0000</time>
      </trkpt>
      <trkpt lat="40.857800000000005" lon="-1.91972">
        <time>2021-06-19T14:28:42+0000</time>
      </trkpt>
      <trkpt lat="40.857870000000005" lon="-1.9200100000000002">
        <time>2021-06-19T14:28:43+0000</time>
      </trkpt>
      <trkpt lat="40.857940000000006" lon="-1.9203000000000001">
        <time>2021-06-19T14:28:44+0000</time>
      </trkpt>
      <trkpt lat="40.858000000000004" lon="-1.9205900000000002">
        <time>2021-06-19T14:28:45+0000</time>
      </trkpt>
      <trkpt lat="40.85806" lon="-1.92087">
        <time>2021-06-19T14:28:46+0000</time>
      </trkpt>
      <trkpt lat="40.85813" lon="-1.9211700000000003">
        <time>2021-06-19T14:28:47+0000</time>
      </trkpt>
      <trkpt lat="40.858200000000004" lon="-1.9214700000000002">
        <time>2021-06-19T14:28:48+0000</time>
      </trkpt>
      <trkpt lat="40.858270000000005" lon="-1.9217600000000001">
        <time>2021-06-19T14:28:49+0000</time>
      </trkpt>
      <trkpt lat="40.85833" lon="-1.92206">
        <time>2021-06-19T14:28:50+0000</time>
      </trkpt>
      <trkpt lat="40.8584" lon="-1.92236">
        <time>2021-06-19T14:28:51+0000</time>
      </trkpt>
      <trkpt lat="40.858470000000004" lon="-1.9226600000000003">
        <time>2021-06-19T14:28:52+0000</time>
      </trkpt>
      <trkpt lat="40.85855" lon="-1.9229600000000002">
        <time>2021-06-19T14:28:53+0000</time>
      </trkpt>
      <trkpt lat="40.85862" lon="-1.9232500000000001">
        <time>2021-06-19T14:28:54+0000</time>
      </trkpt>
      <trkpt lat="40.858700000000006" lon="-1.9235400000000002">
        <time>2021-06-19T14:28:55+0000</time>
      </trkpt>
      <trkpt lat="40.85877" lon="-1.92382">
        <time>2021-06-19T14:28:56+0000</time>
      </trkpt>
      <trkpt lat="40.85886" lon="-1.92409">
        <time>2021-06-19T14:28:57+0000</time>
      </trkpt>
      <trkpt lat="40.858940000000004" lon="-1.9243400000000002">
        <time>2021-06-19T14:28:58+0000</time>
      </trkpt>
      <trkpt lat="40.85904" lon="-1.9245900000000002">
        <time>2021-06-19T14:28:59+0000</time>
      </trkpt>
      <trkpt lat="40.85916" lon="-1.9248200000000002">
        <time>2021-06-19T14:29:00+0000</time>
      </trkpt>
      <trkpt lat="40.85931" lon="-1.92504">
        <time>2021-06-19T14:29:01+0000</time>
      </trkpt>
      <trkpt lat="40.85947" lon="-1.9252600000000002">
        <time>2021-06-19T14:29:02+0000</time>
      </trkpt>
      <trkpt lat="40.859640000000006" lon="-1.9254700000000002">
        <time>2021-06-19T14:29:03+0000</time>
      </trkpt>
      <trkpt lat="40.85981" lon="-1.92568">
        <time>2021-06-19T14:29:04+0000</time>
      </trkpt>
      <trkpt lat="40.85999" lon="-1.92589">
        <time>2021-06-19T14:29:05+0000</time>
      </trkpt>
      <trkpt lat="40.860170000000004" lon="-1.9261000000000001">
        <time>2021-06-19T14:29:06+0000</time>
      </trkpt>
      <trkpt lat="40.86036" lon="-1.9263100000000002">
        <time>2021-06-19T14:29:07+0000</time>
      </trkpt>
      <trkpt lat="40.86054" lon="-1.9265200000000002">
        <time>2021-06-19T14:29:08+0000</time>
      </trkpt>
      <trkpt lat="40.86072" lon="-1.92673">
        <time>2021-06-19T14:29:09+0000</time>
      </trkpt>
      <trkpt lat="40.860910000000004" lon="-1.92694">
        <time>2021-06-19T14:29:10+0000</time>
      </trkpt>
      <trkpt lat="40.861090000000004" lon="-1.9271600000000002">
        <time>2021-06-19T14:29:11+0000</time>
      </trkpt>
      <trkpt lat="40.86128" lon="-1.92738">
        <time>2021-06-19T14:29:12+0000</time>
      </trkpt>
      <trkpt lat="40.861470000000004" lon="-1.9275900000000001">
        <time>2021-06-19T14:29:13+0000</time>
      </trkpt>
      <trkpt lat="40.86166" lon="-1.9278100000000002">
        <time>2021-06-19T14:29:14+0000</time>
      </trkpt>
      <trkpt lat="40.861850000000004" lon="-1.9280300000000001">
        <time>2021-06-19T14:29:15+0000</time>
      </trkpt>
      <trkpt lat="40.862030000000004" lon="-1.92826">
        <time>2021-06-19T14:29:16+0000</time>
      </trkpt>
      <trkpt lat="40.862210000000005" lon="-1.9285">
        <time>2021-06-19T14:29:17+0000</time>
      </trkpt>
      <trkpt lat="40.862370000000006" lon="-1.9287600000000003">
        <time>2021-06-19T14:29:18+0000</time>
      </trkpt>
      <trkpt lat="40.86251" lon="-1.92904">
        <time>2021-06-19T14:29:19+0000</time>
      </trkpt>
      <trkpt lat="40.86263" lon="-1.92934">
        <time>2021-06-19T14:29:20+0000</time>
      </trkpt>
      <trkpt lat="40.86274" lon="-1.9296600000000002">
        <time>2021-06-19T14:29:21+0000</time>
      </trkpt>
      <trkpt lat="40.86285" lon="-1.9299800000000003">
        <time>2021-06-19T14:29:22+0000</time>
      </trkpt>
      <trkpt lat="40.862950000000005" lon="-1.9303000000000001">
        <time>2021-06-19T14:29:23+0000</time>
      </trkpt>
      <trkpt lat="40.863060000000004" lon="-1.93063">
        <time>2021-06-19T14:29:24+0000</time>
      </trkpt>
      <trkpt lat="40.863170000000004" lon="-1.93094">
        <time>2021-06-19T14:29:25+0000</time>
      </trkpt>
      <trkpt lat="40.86327" lon="-1.9312300000000002">
        <time>2021-06-19T14:29:26+0000</time>
      </trkpt>
      <trkpt lat="40.86338000000001" lon="-1.9315200000000001">
        <time>2021-06-19T14:29:27+0000</time>
      </trkpt>
      <trkpt lat="40.86347000000001" lon="-1.9317900000000001">
        <time>2021-06-19T14:29:28+0000</time>
      </trkpt>
      <trkpt lat="40.86357" lon="-1.9320700000000002">
        <time>2021-06-19T14:29:29+0000</time>
      </trkpt>
      <trkpt lat="40.86365" lon="-1.93233">
        <time>2021-06-19T14:29:30+0000</time>
      </trkpt>
      <trkpt lat="40.86374" lon="-1.9325900000000003">
        <time>2021-06-19T14:29:31+0000</time>
      </trkpt>
      <trkpt lat="40.86383" lon="-1.9328400000000001">
        <time>2021-06-19T14:29:32+0000</time>
      </trkpt>
      <trkpt lat="40.863910000000004" lon="-1.93307">
        <time>2021-06-19T14:29:33+0000</time>
      </trkpt>
      <trkpt lat="40.86399" lon="-1.9333000000000002">
        <time>2021-06-19T14:29:34+0000</time>
      </trkpt>
      <trkpt lat="40.864070000000005" lon="-1.9335200000000001">
        <time>2021-06-19T14:29:35+0000</time>
      </trkpt>
      <trkpt lat="40.86415" lon="-1.9337400000000002">
        <time>2021-06-19T14:29:36+0000</time>
      </trkpt>
      <trkpt lat="40.864230000000006" lon="-1.9339600000000001">
        <time>2021-06-19T14:29:37+0000</time>
      </trkpt>
      <trkpt lat="40.8643" lon="-1.9341800000000002">
        <time>2021-06-19T14:29:38+0000</time>
      </trkpt>
      <trkpt lat="40.864380000000004" lon="-1.9344000000000001">
        <time>2021-06-19T14:29:39+0000</time>
      </trkpt>
      <trkpt lat="40.86446" lon="-1.93463">
        <time>2021-06-19T14:29:40+0000</time>
      </trkpt>
      <trkpt lat="40.864540000000005" lon="-1.9348500000000002">
        <time>2021-06-19T14:29:41+0000</time>
      </trkpt>
      <trkpt lat="40.86462" lon="-1.93507">
        <time>2021-06-19T14:29:42+0000</time>
      </trkpt>
      <trkpt lat="40.86471" lon="-1.9352800000000001">
        <time>2021-06-19T14:29:43+0000</time>
      </trkpt>
      <trkpt lat="40.864790000000006" lon="-1.9355000000000002">
        <time>2021-06-19T14:29:44+0000</time>
      </trkpt>
      <trkpt lat="40.86486" lon="-1.9357100000000003">
        <time>2021-06-19T14:29:45+0000</time>
      </trkpt>
      <trkpt lat="40.86493" lon="-1.9359300000000002">
        <time>2021-06-19T14:29:46+0000</time>
      </trkpt>
      <trkpt lat="40.865" lon="-1.9361400000000002">
        <time>2021-06-19T14:29:47+0000</time>
      </trkpt>
      <trkpt lat="40.86507" lon="-1.9363500000000002">
        <time>2021-06-19T14:29:48+0000</time>
      </trkpt>
      <trkpt lat="40.865140000000004" lon="-1.93656">
        <time>2021-06-19T14:29:49+0000</time>
      </trkpt>
      <trkpt lat="40.865210000000005" lon="-1.9367600000000003">
        <time>2021-06-19T14:29:50+0000</time>
      </trkpt>
      <trkpt lat="40.865280000000006" lon="-1.9369600000000002">
        <time>2021-06-19T14:29:51+0000</time>
      </trkpt>
      <trkpt lat="40.86534" lon="-1.9371500000000001">
        <time>2021-06-19T14:29:52+0000</time>
      </trkpt>
      <trkpt lat="40.865410000000004" lon="-1.9373200000000002">
        <time>2021-06-19T14:29:53+0000</time>
      </trkpt>
      <trkpt lat="40.86547" lon="-1.9375000000000002">
        <time>2021-06-19T14:29:54+0000</time>
      </trkpt>
      <trkpt lat="40.86554" lon="-1.9376700000000002">
        <time>2021-06-19T14:29:55+0000</time>
      </trkpt>
      <trkpt lat="40.8656" lon="-1.93785">
        <time>2021-06-19T14:29:56+0000</time>
      </trkpt>
      <trkpt lat="40.86567" lon="-1.9380300000000001">
        <time>2021-06-19T14:29:57+0000</time>
      </trkpt>
      <trkpt lat="40.865750000000006" lon="-1.9382100000000002">
        <time>2021-06-19T14:29:58+0000</time>
      </trkpt>
      <trkpt lat="40.865860000000005" lon="-1.9383700000000001">
        <time>2021-06-19T14:29:59+0000</time>
      </trkpt>
      <trkpt lat="40.86600000000001" lon="-1.9384900000000003">
        <time>2021-06-19T14:30:00+0000</time>
      </trkpt>
      <trkpt lat="40.86614" lon="-1.9386100000000002">
        <time>2021-06-19T14:30:01+0000</time>
      </trkpt>
      <trkpt lat="40.8663" lon="-1.93873">
        <time>2021-06-19T14:30:02+0000</time>
      </trkpt>
      <trkpt lat="40.86645" lon="-1.9388500000000002">
        <time>2021-06-19T14:30:03+0000</time>
      </trkpt>
      <trkpt lat="40.866600000000005" lon="-1.93897">
        <time>2021-06-19T14:30:04+0000</time>
      </trkpt>
      <trkpt lat="40.86675" lon="-1.9390800000000001">
        <time>2021-06-19T14:30:05+0000</time>
      </trkpt>
      <trkpt lat="40.8669" lon="-1.9392000000000003">
        <time>2021-06-19T14:30:06+0000</time>
      </trkpt>
      <trkpt lat="40.86706" lon="-1.9393300000000002">
        <time>2021-06-19T14:30:07+0000</time>
      </trkpt>
      <trkpt lat="40.86722" lon="-1.9394600000000002">
        <time>2021-06-19T14:30:08+0000</time>
      </trkpt>
      <trkpt lat="40.86739" lon="-1.9395900000000001">
        <time>2021-06-19T14:30:09+0000</time>
      </trkpt>
      <trkpt lat="40.867560000000005" lon="-1.9397300000000002">
        <time>2021-06-19T14:30:10+0000</time>
      </trkpt>
      <trkpt lat="40.867740000000005" lon="-1.93988">
        <time>2021-06-19T14:30:11+0000</time>
      </trkpt>
      <trkpt lat="40.86793" lon="-1.9400300000000001">
        <time>2021-06-19T14:30:12+0000</time>
      </trkpt>
      <trkpt lat="40.86811" lon="-1.9401800000000002">
        <time>2021-06-19T14:30:13+0000</time>
      </trkpt>
      <trkpt lat="40.86831" lon="-1.94033">
        <time>2021-06-19T14:30:14+0000</time>
      </trkpt>
      <trkpt lat="40.868500000000004" lon="-1.9404800000000002">
        <time>2021-06-19T14:30:15+0000</time>
      </trkpt>
      <trkpt lat="40.868700000000004" lon="-1.94063">
        <time>2021-06-19T14:30:16+0000</time>
      </trkpt>
      <trkpt lat="40.868900000000004" lon="-1.9407900000000002">
        <time>2021-06-19T14:30:17+0000</time>
      </trkpt>
      <trkpt lat="40.86912" lon="-1.9409500000000002">
        <time>2021-06-19T14:30:18+0000</time>
      </trkpt>
      <trkpt lat="40.86934" lon="-1.9411100000000001">
        <time>2021-06-19T14:30:19+0000</time>
      </trkpt>
      <trkpt lat="40.869580000000006" lon="-1.94127">
        <time>2021-06-19T14:30:20+0000</time>
      </trkpt>
      <trkpt lat="40.86981" lon="-1.9414300000000002">
        <time>2021-06-19T14:30:21+0000</time>
      </trkpt>
      <trkpt lat="40.870050000000006" lon="-1.9415900000000001">
        <time>2021-06-19T14:30:22+0000</time>
      </trkpt>
      <trkpt lat="40.8703" lon="-1.9417400000000002">
        <time>2021-06-19T14:30:23+0000</time>
      </trkpt>
      <trkpt lat="40.87055" lon="-1.9419000000000002">
        <time>2021-06-19T14:30:24+0000</time>
      </trkpt>
      <trkpt lat="40.870810000000006" lon="-1.9420600000000001">
        <time>2021-06-19T14:30:25+0000</time>
      </trkpt>
      <trkpt lat="40.87106" lon="-1.94222">
        <time>2021-06-19T14:30:26+0000</time>
      </trkpt>
      <trkpt lat="40.87131" lon="-1.9423800000000002">
        <time>2021-06-19T14:30:27+0000</time>
      </trkpt>
      <trkpt lat="40.87156" lon="-1.9425400000000002">
        <time>2021-06-19T14:30:28+0000</time>
      </trkpt>
      <trkpt lat="40.87181" lon="-1.9427">
        <time>2021-06-19T14:30:29+0000</time>
      </trkpt>
      <trkpt lat="40.872060000000005" lon="-1.9428500000000002">
        <time>2021-06-19T14:30:30+0000</time>
      </trkpt>
      <trkpt lat="40.872310000000006" lon="-1.943">
        <time>2021-06-19T14:30:31+0000</time>
      </trkpt>
      <trkpt lat="40.872550000000004" lon="-1.9431500000000002">
        <time>2021-06-19T14:30:32+0000</time>
      </trkpt>
      <trkpt lat="40.87279" lon="-1.94331">
        <time>2021-06-19T14:30:33+0000</time>
      </trkpt>
      <trkpt lat="40.87303" lon="-1.9434600000000002">
        <time>2021-06-19T14:30:34+0000</time>
      </trkpt>
      <trkpt lat="40.873270000000005" lon="-1.94361">
        <time>2021-06-19T14:30:35+0000</time>
      </trkpt>
      <trkpt lat="40.8735" lon="-1.9437600000000002">
        <time>2021-06-19T14:30:36+0000</time>
      </trkpt>
      <trkpt lat="40.873740000000005" lon="-1.9439100000000002">
        <time>2021-06-19T14:30:37+0000</time>
      </trkpt>
      <trkpt lat="40.87397" lon="-1.9440600000000001">
        <time>2021-06-19T14:30:38+0000</time>
      </trkpt>
      <trkpt lat="40.874210000000005" lon="-1.9442100000000002">
        <time>2021-06-19T14:30:39+0000</time>
      </trkpt>
      <trkpt lat="40.87445" lon="-1.9443700000000002">
        <time>2021-06-19T14:30:40+0000</time>
      </trkpt>
      <trkpt lat="40.87469" lon="-1.9445200000000002">
        <time>2021-06-19T14:30:41+0000</time>
      </trkpt>
      <trkpt lat="40.87494" lon="-1.9446700000000001">
        <time>2021-06-19T14:30:42+0000</time>
      </trkpt>
      <trkpt lat="40.87518" lon="-1.94483">
        <time>2021-06-19T14:30:43+0000</time>
      </trkpt>
      <trkpt lat="40.875420000000005" lon="-1.9449800000000002">
        <time>2021-06-19T14:30:44+0000</time>
      </trkpt>
      <trkpt lat="40.87567000000001" lon="-1.9451300000000002">
        <time>2021-06-19T14:30:45+0000</time>
      </trkpt>
      <trkpt lat="40.87592" lon="-1.9452900000000002">
        <time>2021-06-19T14:30:46+0000</time>
      </trkpt>
      <trkpt lat="40.87617" lon="-1.9454600000000002">
        <time>2021-06-19T14:30:47+0000</time>
      </trkpt>
      <trkpt lat="40.876430000000006" lon="-1.9456200000000001">
        <time>2021-06-19T14:30:48+0000</time>
      </trkpt>
      <trkpt lat="40.87668" lon="-1.94578">
        <time>2021-06-19T14:30:49+0000</time>
      </trkpt>
      <trkpt lat="40.876940000000005" lon="-1.9459400000000002">
        <time>2021-06-19T14:30:50+0000</time>
      </trkpt>
      <trkpt lat="40.877190000000006" lon="-1.9461000000000002">
        <time>2021-06-19T14:30:51+0000</time>
      </trkpt>
      <trkpt lat="40.87744" lon="-1.94626">
        <time>2021-06-19T14:30:52+0000</time>
      </trkpt>
      <trkpt lat="40.87769" lon="-1.9464200000000003">
        <time>2021-06-19T14:30:53+0000</time>
      </trkpt>
      <trkpt lat="40.87794" lon="-1.9465900000000003">
        <time>2021-06-19T14:30:54+0000</time>
      </trkpt>
      <trkpt lat="40.878190000000004" lon="-1.9467400000000001">
        <time>2021-06-19T14:30:55+0000</time>
      </trkpt>
      <trkpt lat="40.878440000000005" lon="-1.9469">
        <time>2021-06-19T14:30:56+0000</time>
      </trkpt>
      <trkpt lat="40.878690000000006" lon="-1.9470600000000002">
        <time>2021-06-19T14:30:57+0000</time>
      </trkpt>
      <trkpt lat="40.87894" lon="-1.9472200000000002">
        <time>2021-06-19T14:30:58+0000</time>
      </trkpt>
      <trkpt lat="40.87919" lon="-1.94738">
        <time>2021-06-19T14:30:59+0000</time>
      </trkpt>
      <trkpt lat="40.87944" lon="-1.94754">
        <time>2021-06-19T14:31:00+0000</time>
      </trkpt>
      <trkpt lat="40.879690000000004" lon="-1.9477200000000001">
        <time>2021-06-19T14:31:01+0000</time>
      </trkpt>
      <trkpt lat="40.879920000000006" lon="-1.94792">
        <time>2021-06-19T14:31:02+0000</time>
      </trkpt>
      <trkpt lat="40.880140000000004" lon="-1.9481500000000003">
        <time>2021-06-19T14:31:03+0000</time>
      </trkpt>
      <trkpt lat="40.88036" lon="-1.94839">
        <time>2021-06-19T14:31:04+0000</time>
      </trkpt>
      <trkpt lat="40.88058" lon="-1.94863">
        <time>2021-06-19T14:31:05+0000</time>
      </trkpt>
      <trkpt lat="40.8808" lon="-1.94887">
        <time>2021-06-19T14:31:06+0000</time>
      </trkpt>
      <trkpt lat="40.88103" lon="-1.9491100000000001">
        <time>2021-06-19T14:31:07+0000</time>
      </trkpt>
      <trkpt lat="40.88125" lon="-1.94934">
        <time>2021-06-19T14:31:08+0000</time>
      </trkpt>
      <trkpt lat="40.88147" lon="-1.9495700000000002">
        <time>2021-06-19T14:31:09+0000</time>
      </trkpt>
      <trkpt lat="40.88167000000001" lon="-1.9497900000000001">
        <time>2021-06-19T14:31:10+0000</time>
      </trkpt>
      <trkpt lat="40.88186" lon="-1.9500000000000002">
        <time>2021-06-19T14:31:11+0000</time>
      </trkpt>
      <trkpt lat="40.88205000000001" lon="-1.9502000000000002">
        <time>2021-06-19T14:31:12+0000</time>
      </trkpt>
      <trkpt lat="40.882250000000006" lon="-1.9504000000000001">
        <time>2021-06-19T14:31:13+0000</time>
      </trkpt>
      <trkpt lat="40.882450000000006" lon="-1.9506000000000001">
        <time>2021-06-19T14:31:14+0000</time>
      </trkpt>
      <trkpt lat="40.882650000000005" lon="-1.9508">
        <time>2021-06-19T14:31:15+0000</time>
      </trkpt>
      <trkpt lat="40.88286" lon="-1.951">
        <time>2021-06-19T14:31:16+0000</time>
      </trkpt>
      <trkpt lat="40.883070000000004" lon="-1.9512000000000003">
        <time>2021-06-19T14:31:17+0000</time>
      </trkpt>
      <trkpt lat="40.88329" lon="-1.9514000000000002">
        <time>2021-06-19T14:31:18+0000</time>
      </trkpt>
      <trkpt lat="40.883500000000005" lon="-1.9516000000000002">
        <time>2021-06-19T14:31:19+0000</time>
      </trkpt>
      <trkpt lat="40.88371" lon="-1.9518000000000002">
        <time>2021-06-19T14:31:20+0000</time>
      </trkpt>
      <trkpt lat="40.88392" lon="-1.9520000000000002">
        <time>2021-06-19T14:31:21+0000</time>
      </trkpt>
      <trkpt lat="40.88414" lon="-1.95219">
        <time>2021-06-19T14:31:22+0000</time>
      </trkpt>
      <trkpt lat="40.884350000000005" lon="-1.95239">
        <time>2021-06-19T14:31:23+0000</time>
      </trkpt>
      <trkpt lat="40.884550000000004" lon="-1.9525800000000002">
        <time>2021-06-19T14:31:24+0000</time>
      </trkpt>
      <trkpt lat="40.884750000000004" lon="-1.9527800000000002">
        <time>2021-06-19T14:31:25+0000</time>
      </trkpt>
      <trkpt lat="40.884930000000004" lon="-1.953">
        <time>2021-06-19T14:31:26+0000</time>
      </trkpt>
      <trkpt lat="40.885090000000005" lon="-1.9532200000000002">
        <time>2021-06-19T14:31:27+0000</time>
      </trkpt>
      <trkpt lat="40.88524" lon="-1.95344">
        <time>2021-06-19T14:31:28+0000</time>
      </trkpt>
      <trkpt lat="40.88537" lon="-1.95368">
        <time>2021-06-19T14:31:29+0000</time>
      </trkpt>
      <trkpt lat="40.885470000000005" lon="-1.9539400000000002">
        <time>2021-06-19T14:31:30+0000</time>
      </trkpt>
      <trkpt lat="40.885560000000005" lon="-1.9542100000000002">
        <time>2021-06-19T14:31:31+0000</time>
      </trkpt>
      <trkpt lat="40.88564" lon="-1.95449">
        <time>2021-06-19T14:31:32+0000</time>
      </trkpt>
      <trkpt lat="40.885720000000006" lon="-1.95476">
        <time>2021-06-19T14:31:33+0000</time>
      </trkpt>
      <trkpt lat="40.8858" lon="-1.9550400000000001">
        <time>2021-06-19T14:31:34+0000</time>
      </trkpt>
      <trkpt lat="40.885870000000004" lon="-1.95531">
        <time>2021-06-19T14:31:35+0000</time>
      </trkpt>
      <trkpt lat="40.88593" lon="-1.9555700000000003">
        <time>2021-06-19T14:31:36+0000</time>
      </trkpt>
      <trkpt lat="40.886" lon="-1.9558200000000001">
        <time>2021-06-19T14:31:37+0000</time>
      </trkpt>
      <trkpt lat="40.88606" lon="-1.9560700000000002">
        <time>2021-06-19T14:31:38+0000</time>
      </trkpt>
      <trkpt lat="40.886120000000005" lon="-1.9563100000000002">
        <time>2021-06-19T14:31:39+0000</time>
      </trkpt>
      <trkpt lat="40.88618" lon="-1.95653">
        <time>2021-06-19T14:31:40+0000</time>
      </trkpt>
      <trkpt lat="40.886230000000005" lon="-1.9567400000000001">
        <time>2021-06-19T14:31:41+0000</time>
      </trkpt>
      <trkpt lat="40.88629" lon="-1.9569500000000002">
        <time>2021-06-19T14:31:42+0000</time>
      </trkpt>
      <trkpt lat="40.886340000000004" lon="-1.95714">
        <time>2021-06-19T14:31:43+0000</time>
      </trkpt>
      <trkpt lat="40.886390000000006" lon="-1.9573300000000002">
        <time>2021-06-19T14:31:44+0000</time>
      </trkpt>
      <trkpt lat="40.886430000000004" lon="-1.9575000000000002">
        <time>2021-06-19T14:31:45+0000</time>
      </trkpt>
      <trkpt lat="40.88647" lon="-1.9576700000000002">
        <time>2021-06-19T14:31:46+0000</time>
      </trkpt>
      <trkpt lat="40.88651" lon="-1.9578200000000001">
        <time>2021-06-19T14:31:47+0000</time>
      </trkpt>
      <trkpt lat="40.886540000000004" lon="-1.9579600000000001">
        <time>2021-06-19T14:31:48+0000</time>
      </trkpt>
      <trkpt lat="40.88658" lon="-1.9581000000000002">
        <time>2021-06-19T14:31:49+0000</time>
      </trkpt>
      <trkpt lat="40.886610000000005" lon="-1.9582500000000003">
        <time>2021-06-19T14:31:50+0000</time>
      </trkpt>
      <trkpt lat="40.88665" lon="-1.9584000000000001">
        <time>2021-06-19T14:31:51+0000</time>
      </trkpt>
      <trkpt lat="40.88669" lon="-1.95856">
        <time>2021-06-19T14:31:52+0000</time>
      </trkpt>
      <trkpt lat="40.88673" lon="-1.9587200000000002">
        <time>2021-06-19T14:31:53+0000</time>
      </trkpt>
      <trkpt lat="40.886770000000006" lon="-1.9588800000000002">
        <time>2021-06-19T14:31:54+0000</time>
      </trkpt>
      <trkpt lat="40.886810000000004" lon="-1.9590300000000003">
        <time>2021-06-19T14:31:55+0000</time>
      </trkpt>
      <trkpt lat="40.88685" lon="-1.9591900000000002">
        <time>2021-06-19T14:31:56+0000</time>
      </trkpt>
      <trkpt lat="40.88689" lon="-1.95934">
        <time>2021-06-19T14:31:57+0000</time>
      </trkpt>
      <trkpt lat="40.88693000000001" lon="-1.9594900000000002">
        <time>2021-06-19T14:31:58+0000</time>
      </trkpt>
      <trkpt lat="40.88698" lon="-1.9596500000000001">
        <time>2021-06-19T14:31:59+0000</time>
      </trkpt>
      <trkpt lat="40.88703" lon="-1.9597900000000001">
        <time>2021-06-19T14:32:00+0000</time>
      </trkpt>
      <trkpt lat="40.887100000000004" lon="-1.9599300000000002">
        <time>2021-06-19T14:32:01+0000</time>
      </trkpt>
      <trkpt lat="40.88716" lon="-1.9600700000000002">
        <time>2021-06-19T14:32:02+0000</time>
      </trkpt>
      <trkpt lat="40.887220000000006" lon="-1.9602000000000002">
        <time>2021-06-19T14:32:03+0000</time>
      </trkpt>
      <trkpt lat="40.88729" lon="-1.9603300000000001">
        <time>2021-06-19T14:32:04+0000</time>
      </trkpt>
      <trkpt lat="40.88736" lon="-1.96046">
        <time>2021-06-19T14:32:05+0000</time>
      </trkpt>
      <trkpt lat="40.88743" lon="-1.9605800000000002">
        <time>2021-06-19T14:32:06+0000</time>
      </trkpt>
      <trkpt lat="40.8875" lon="-1.9607100000000002">
        <time>2021-06-19T14:32:07+0000</time>
      </trkpt>
      <trkpt lat="40.88756" lon="-1.9608400000000001">
        <time>2021-06-19T14:32:08+0000</time>
      </trkpt>
      <trkpt lat="40.88763" lon="-1.9609500000000002">
        <time>2021-06-19T14:32:09+0000</time>
      </trkpt>
      <trkpt lat="40.887690000000006" lon="-1.9610600000000002">
        <time>2021-06-19T14:32:10+0000</time>
      </trkpt>
      <trkpt lat="40.88774" lon="-1.9611800000000001">
        <time>2021-06-19T14:32:11+0000</time>
      </trkpt>
      <trkpt lat="40.88781" lon="-1.9613000000000003">
        <time>2021-06-19T14:32:12+0000</time>
      </trkpt>
      <trkpt lat="40.88788" lon="-1.9614300000000002">
        <time>2021-06-19T14:32:13+0000</time>
      </trkpt>
      <trkpt lat="40.887950000000004" lon="-1.9615600000000002">
        <time>2021-06-19T14:32:14+0000</time>
      </trkpt>
      <trkpt lat="40.888040000000004" lon="-1.9616900000000002">
        <time>2021-06-19T14:32:15+0000</time>
      </trkpt>
      <trkpt lat="40.88812" lon="-1.9618300000000002">
        <time>2021-06-19T14:32:16+0000</time>
      </trkpt>
      <trkpt lat="40.888200000000005" lon="-1.9620000000000002">
        <time>2021-06-19T14:32:17+0000</time>
      </trkpt>
      <trkpt lat="40.888290000000005" lon="-1.9621700000000002">
        <time>2021-06-19T14:32:18+0000</time>
      </trkpt>
      <trkpt lat="40.88839" lon="-1.96236">
        <time>2021-06-19T14:32:19+0000</time>
      </trkpt>
      <trkpt lat="40.8885" lon="-1.96256">
        <time>2021-06-19T14:32:20+0000</time>
      </trkpt>
      <trkpt lat="40.88861" lon="-1.96276">
        <time>2021-06-19T14:32:21+0000</time>
      </trkpt>
      <trkpt lat="40.888720000000006" lon="-1.96297">
        <time>2021-06-19T14:32:22+0000</time>
      </trkpt>
      <trkpt lat="40.888830000000006" lon="-1.9631900000000002">
        <time>2021-06-19T14:32:23+0000</time>
      </trkpt>
      <trkpt lat="40.88895" lon="-1.9634000000000003">
        <time>2021-06-19T14:32:24+0000</time>
      </trkpt>
      <trkpt lat="40.88906" lon="-1.96361">
        <time>2021-06-19T14:32:25+0000</time>
      </trkpt>
      <trkpt lat="40.88918" lon="-1.9638200000000001">
        <time>2021-06-19T14:32:26+0000</time>
      </trkpt>
      <trkpt lat="40.889300000000006" lon="-1.9640400000000002">
        <time>2021-06-19T14:32:27+0000</time>
      </trkpt>
      <trkpt lat="40.889430000000004" lon="-1.9642600000000001">
        <time>2021-06-19T14:32:28+0000</time>
      </trkpt>
      <trkpt lat="40.88955" lon="-1.96449">
        <time>2021-06-19T14:32:29+0000</time>
      </trkpt>
      <trkpt lat="40.88967" lon="-1.9647200000000002">
        <time>2021-06-19T14:32:30+0000</time>
      </trkpt>
      <trkpt lat="40.8898" lon="-1.9649500000000002">
        <time>2021-06-19T14:32:31+0000</time>
      </trkpt>
      <trkpt lat="40.88993000000001" lon="-1.9651900000000002">
        <time>2021-06-19T14:32:32+0000</time>
      </trkpt>
      <trkpt lat="40.890060000000005" lon="-1.9654500000000001">
        <time>2021-06-19T14:32:33+0000</time>
      </trkpt>
      <trkpt lat="40.89021" lon="-1.9657200000000001">
        <time>2021-06-19T14:32:34+0000</time>
      </trkpt>
      <trkpt lat="40.89036" lon="-1.9659900000000001">
        <time>2021-06-19T14:32:35+0000</time>
      </trkpt>
      <trkpt lat="40.8905" lon="-1.96625">
        <time>2021-06-19T14:32:36+0000</time>
      </trkpt>
      <trkpt lat="40.89065" lon="-1.9665300000000001">
        <time>2021-06-19T14:32:37+0000</time>
      </trkpt>
      <trkpt lat="40.890800000000006" lon="-1.9668">
        <time>2021-06-19T14:32:38+0000</time>
      </trkpt>
      <trkpt lat="40.89096000000001" lon="-1.9670900000000002">
        <time>2021-06-19T14:32:39+0000</time>
      </trkpt>
      <trkpt lat="40.891130000000004" lon="-1.9673600000000002">
        <time>2021-06-19T14:32:40+0000</time>
      </trkpt>
      <trkpt lat="40.891310000000004" lon="-1.96764">
        <time>2021-06-19T14:32:41+0000</time>
      </trkpt>
      <trkpt lat="40.891490000000005" lon="-1.9679000000000002">
        <time>2021-06-19T14:32:42+0000</time>
      </trkpt>
      <trkpt lat="40.8917" lon="-1.96815">
        <time>2021-06-19T14:32:43+0000</time>
      </trkpt>
      <trkpt lat="40.89191" lon="-1.96839">
        <time>2021-06-19T14:32:44+0000</time>
      </trkpt>
      <trkpt lat="40.892120000000006" lon="-1.9686200000000003">
        <time>2021-06-19T14:32:45+0000</time>
      </trkpt>
      <trkpt lat="40.89233" lon="-1.9688500000000002">
        <time>2021-06-19T14:32:46+0000</time>
      </trkpt>
      <trkpt lat="40.89253" lon="-1.96907">
        <time>2021-06-19T14:32:47+0000</time>
      </trkpt>
      <trkpt lat="40.89271" lon="-1.9692800000000001">
        <time>2021-06-19T14:32:48+0000</time>
      </trkpt>
      <trkpt lat="40.89289" lon="-1.9694800000000001">
        <time>2021-06-19T14:32:49+0000</time>
      </trkpt>
      <trkpt lat="40.89307" lon="-1.9696700000000003">
        <time>2021-06-19T14:32:50+0000</time>
      </trkpt>
      <trkpt lat="40.893240000000006" lon="-1.9698700000000002">
        <time>2021-06-19T14:32:51+0000</time>
      </trkpt>
      <trkpt lat="40.893420000000006" lon="-1.97008">
        <time>2021-06-19T14:32:52+0000</time>
      </trkpt>
      <trkpt lat="40.893600000000006" lon="-1.9702800000000003">
        <time>2021-06-19T14:32:53+0000</time>
      </trkpt>
      <trkpt lat="40.89379" lon="-1.97049">
        <time>2021-06-19T14:32:54+0000</time>
      </trkpt>
      <trkpt lat="40.893980000000006" lon="-1.9707000000000001">
        <time>2021-06-19T14:32:55+0000</time>
      </trkpt>
      <trkpt lat="40.89417" lon="-1.9709200000000002">
        <time>2021-06-19T14:32:56+0000</time>
      </trkpt>
      <trkpt lat="40.894360000000006" lon="-1.9711300000000003">
        <time>2021-06-19T14:32:57+0000</time>
      </trkpt>
      <trkpt lat="40.894560000000006" lon="-1.9713500000000002">
        <time>2021-06-19T14:32:58+0000</time>
      </trkpt>
      <trkpt lat="40.89475" lon="-1.9715700000000003">
        <time>2021-06-19T14:32:59+0000</time>
      </trkpt>
      <trkpt lat="40.894940000000005" lon="-1.9717900000000002">
        <time>2021-06-19T14:33:00+0000</time>
      </trkpt>
      <trkpt lat="40.895140000000005" lon="-1.9720100000000003">
        <time>2021-06-19T14:33:01+0000</time>
      </trkpt>
      <trkpt lat="40.895340000000004" lon="-1.9722300000000001">
        <time>2021-06-19T14:33:02+0000</time>
      </trkpt>
      <trkpt lat="40.89553" lon="-1.9724500000000003">
        <time>2021-06-19T14:33:03+0000</time>
      </trkpt>
      <trkpt lat="40.895720000000004" lon="-1.9726700000000001">
        <time>2021-06-19T14:33:04+0000</time>
      </trkpt>
      <trkpt lat="40.895920000000004" lon="-1.9728900000000003">
        <time>2021-06-19T14:33:05+0000</time>
      </trkpt>
      <trkpt lat="40.89611" lon="-1.9731100000000001">
        <time>2021-06-19T14:33:06+0000</time>
      </trkpt>
      <trkpt lat="40.896300000000004" lon="-1.9733300000000003">
        <time>2021-06-19T14:33:07+0000</time>
      </trkpt>
      <trkpt lat="40.8965" lon="-1.9735600000000002">
        <time>2021-06-19T14:33:08+0000</time>
      </trkpt>
      <trkpt lat="40.896710000000006" lon="-1.97378">
        <time>2021-06-19T14:33:09+0000</time>
      </trkpt>
      <trkpt lat="40.89692" lon="-1.97402">
        <time>2021-06-19T14:33:10+0000</time>
      </trkpt>
      <trkpt lat="40.897130000000004" lon="-1.9742600000000001">
        <time>2021-06-19T14:33:11+0000</time>
      </trkpt>
      <trkpt lat="40.89735" lon="-1.9745000000000001">
        <time>2021-06-19T14:33:12+0000</time>
      </trkpt>
      <trkpt lat="40.89755" lon="-1.97473">
        <time>2021-06-19T14:33:13+0000</time>
      </trkpt>
      <trkpt lat="40.89775" lon="-1.9749600000000003">
        <time>2021-06-19T14:33:14+0000</time>
      </trkpt>
      <trkpt lat="40.89795" lon="-1.9751900000000002">
        <time>2021-06-19T14:33:15+0000</time>
      </trkpt>
      <trkpt lat="40.898140000000005" lon="-1.97541">
        <time>2021-06-19T14:33:16+0000</time>
      </trkpt>
      <trkpt lat="40.898340000000005" lon="-1.9756300000000002">
        <time>2021-06-19T14:33:17+0000</time>
      </trkpt>
      <trkpt lat="40.89853" lon="-1.9758400000000003">
        <time>2021-06-19T14:33:18+0000</time>
      </trkpt>
      <trkpt lat="40.89871" lon="-1.9760700000000002">
        <time>2021-06-19T14:33:19+0000</time>
      </trkpt>
      <trkpt lat="40.89889" lon="-1.9763000000000002">
        <time>2021-06-19T14:33:20+0000</time>
      </trkpt>
      <trkpt lat="40.899060000000006" lon="-1.9765400000000002">
        <time>2021-06-19T14:33:21+0000</time>
      </trkpt>
      <trkpt lat="40.89922000000001" lon="-1.9768000000000001">
        <time>2021-06-19T14:33:22+0000</time>
      </trkpt>
      <trkpt lat="40.899370000000005" lon="-1.9770600000000003">
        <time>2021-06-19T14:33:23+0000</time>
      </trkpt>
      <trkpt lat="40.899530000000006" lon="-1.9773100000000001">
        <time>2021-06-19T14:33:24+0000</time>
      </trkpt>
      <trkpt lat="40.899680000000004" lon="-1.9775600000000002">
        <time>2021-06-19T14:33:25+0000</time>
      </trkpt>
      <trkpt lat="40.89983" lon="-1.97781">
        <time>2021-06-19T14:33:26+0000</time>
      </trkpt>
      <trkpt lat="40.899980000000006" lon="-1.9780600000000002">
        <time>2021-06-19T14:33:27+0000</time>
      </trkpt>
      <trkpt lat="40.900130000000004" lon="-1.9783000000000002">
        <time>2021-06-19T14:33:28+0000</time>
      </trkpt>
      <trkpt lat="40.900270000000006" lon="-1.9785400000000002">
        <time>2021-06-19T14:33:29+0000</time>
      </trkpt>
      <trkpt lat="40.900420000000004" lon="-1.9787800000000002">
        <time>2021-06-19T14:33:30+0000</time>
      </trkpt>
      <trkpt lat="40.900560000000006" lon="-1.9790200000000002">
        <time>2021-06-19T14:33:31+0000</time>
      </trkpt>
      <trkpt lat="40.900710000000004" lon="-1.9792500000000002">
        <time>2021-06-19T14:33:32+0000</time>
      </trkpt>
      <trkpt lat="40.900850000000005" lon="-1.97947">
        <time>2021-06-19T14:33:33+0000</time>
      </trkpt>
      <trkpt lat="40.90099" lon="-1.9797000000000002">
        <time>2021-06-19T14:33:34+0000</time>
      </trkpt>
      <trkpt lat="40.90113" lon="-1.9799200000000001">
        <time>2021-06-19T14:33:35+0000</time>
      </trkpt>
      <trkpt lat="40.901270000000004" lon="-1.98015">
        <time>2021-06-19T14:33:36+0000</time>
      </trkpt>
      <trkpt lat="40.9014" lon="-1.9803700000000002">
        <time>2021-06-19T14:33:37+0000</time>
      </trkpt>
      <trkpt lat="40.90153" lon="-1.98059">
        <time>2021-06-19T14:33:38+0000</time>
      </trkpt>
      <trkpt lat="40.90166000000001" lon="-1.98083">
        <time>2021-06-19T14:33:39+0000</time>
      </trkpt>
      <trkpt lat="40.90178" lon="-1.9810600000000003">
        <time>2021-06-19T14:33:40+0000</time>
      </trkpt>
      <trkpt lat="40.90189" lon="-1.9813100000000001">
        <time>2021-06-19T14:33:41+0000</time>
      </trkpt>
      <trkpt lat="40.902" lon="-1.9815600000000002">
        <time>2021-06-19T14:33:42+0000</time>
      </trkpt>
      <trkpt lat="40.902100000000004" lon="-1.98181">
        <time>2021-06-19T14:33:43+0000</time>
      </trkpt>
      <trkpt lat="40.9022" lon="-1.98208">
        <time>2021-06-19T14:33:44+0000</time>
      </trkpt>
      <trkpt lat="40.902300000000004" lon="-1.98235">
        <time>2021-06-19T14:33:45+0000</time>
      </trkpt>
      <trkpt lat="40.90241" lon="-1.9826200000000003">
        <time>2021-06-19T14:33:46+0000</time>
      </trkpt>
      <trkpt lat="40.90252" lon="-1.9829100000000002">
        <time>2021-06-19T14:33:47+0000</time>
      </trkpt>
      <trkpt lat="40.90263" lon="-1.9832">
        <time>2021-06-19T14:33:48+0000</time>
      </trkpt>
      <trkpt lat="40.90274" lon="-1.9834900000000002">
        <time>2021-06-19T14:33:49+0000</time>
      </trkpt>
      <trkpt lat="40.902860000000004" lon="-1.9837900000000002">
        <time>2021-06-19T14:33:50+0000</time>
      </trkpt>
      <trkpt lat="40.90297" lon="-1.9840900000000001">
        <time>2021-06-19T14:33:51+0000</time>
      </trkpt>
      <trkpt lat="40.90308" lon="-1.9843800000000003">
        <time>2021-06-19T14:33:52+0000</time>
      </trkpt>
      <trkpt lat="40.903200000000005" lon="-1.9846800000000002">
        <time>2021-06-19T14:33:53+0000</time>
      </trkpt>
      <trkpt lat="40.903310000000005" lon="-1.9849800000000002">
        <time>2021-06-19T14:33:54+0000</time>
      </trkpt>
      <trkpt lat="40.90344" lon="-1.98527">
        <time>2021-06-19T14:33:55+0000</time>
      </trkpt>
      <trkpt lat="40.90357" lon="-1.9855600000000002">
        <time>2021-06-19T14:33:56+0000</time>
      </trkpt>
      <trkpt lat="40.903710000000004" lon="-1.9858400000000003">
        <time>2021-06-19T14:33:57+0000</time>
      </trkpt>
      <trkpt lat="40.90386" lon="-1.9861100000000003">
        <time>2021-06-19T14:33:58+0000</time>
      </trkpt>
      <trkpt lat="40.90401000000001" lon="-1.9863800000000003">
        <time>2021-06-19T14:33:59+0000</time>
      </trkpt>
      <trkpt lat="40.90417" lon="-1.9866500000000002">
        <time>2021-06-19T14:34:00+0000</time>
      </trkpt>
      <trkpt lat="40.90433" lon="-1.9869200000000002">
        <time>2021-06-19T14:34:01+0000</time>
      </trkpt>
      <trkpt lat="40.90449" lon="-1.9871900000000002">
        <time>2021-06-19T14:34:02+0000</time>
      </trkpt>
      <trkpt lat="40.904650000000004" lon="-1.98747">
        <time>2021-06-19T14:34:03+0000</time>
      </trkpt>
      <trkpt lat="40.90482" lon="-1.98774">
        <time>2021-06-19T14:34:04+0000</time>
      </trkpt>
      <trkpt lat="40.90498" lon="-1.98801">
        <time>2021-06-19T14:34:05+0000</time>
      </trkpt>
      <trkpt lat="40.90514" lon="-1.9882800000000003">
        <time>2021-06-19T14:34:06+0000</time>
      </trkpt>
      <trkpt lat="40.905300000000004" lon="-1.9885500000000003">
        <time>2021-06-19T14:34:07+0000</time>
      </trkpt>
      <trkpt lat="40.905460000000005" lon="-1.9888200000000003">
        <time>2021-06-19T14:34:08+0000</time>
      </trkpt>
      <trkpt lat="40.90561" lon="-1.9890800000000002">
        <time>2021-06-19T14:34:09+0000</time>
      </trkpt>
      <trkpt lat="40.905770000000004" lon="-1.98934">
        <time>2021-06-19T14:34:10+0000</time>
      </trkpt>
      <trkpt lat="40.90592" lon="-1.9896000000000003">
        <time>2021-06-19T14:34:11+0000</time>
      </trkpt>
      <trkpt lat="40.90607000000001" lon="-1.9898500000000001">
        <time>2021-06-19T14:34:12+0000</time>
      </trkpt>
      <trkpt lat="40.906220000000005" lon="-1.9901000000000002">
        <time>2021-06-19T14:34:13+0000</time>
      </trkpt>
      <trkpt lat="40.90636000000001" lon="-1.9903400000000002">
        <time>2021-06-19T14:34:14+0000</time>
      </trkpt>
      <trkpt lat="40.9065" lon="-1.9905800000000002">
        <time>2021-06-19T14:34:15+0000</time>
      </trkpt>
      <trkpt lat="40.90664" lon="-1.9908100000000002">
        <time>2021-06-19T14:34:16+0000</time>
      </trkpt>
      <trkpt lat="40.90677" lon="-1.9910400000000001">
        <time>2021-06-19T14:34:17+0000</time>
      </trkpt>
      <trkpt lat="40.90691" lon="-1.99127">
        <time>2021-06-19T14:34:18+0000</time>
      </trkpt>
      <trkpt lat="40.90704" lon="-1.9915000000000003">
        <time>2021-06-19T14:34:19+0000</time>
      </trkpt>
      <trkpt lat="40.907180000000004" lon="-1.99174">
        <time>2021-06-19T14:34:20+0000</time>
      </trkpt>
      <trkpt lat="40.90733" lon="-1.9919700000000002">
        <time>2021-06-19T14:34:21+0000</time>
      </trkpt>
      <trkpt lat="40.90748000000001" lon="-1.99222">
        <time>2021-06-19T14:34:22+0000</time>
      </trkpt>
      <trkpt lat="40.907630000000005" lon="-1.9924600000000001">
        <time>2021-06-19T14:34:23+0000</time>
      </trkpt>
      <trkpt lat="40.90778" lon="-1.9927100000000002">
        <time>2021-06-19T14:34:24+0000</time>
      </trkpt>
      <trkpt lat="40.90794" lon="-1.9929500000000002">
        <time>2021-06-19T14:34:25+0000</time>
      </trkpt>
      <trkpt lat="40.90811" lon="-1.9931900000000002">
        <time>2021-06-19T14:34:26+0000</time>
      </trkpt>
      <trkpt lat="40.908280000000005" lon="-1.9934300000000003">
        <time>2021-06-19T14:34:27+0000</time>
      </trkpt>
      <trkpt lat="40.908460000000005" lon="-1.9936600000000002">
        <time>2021-06-19T14:34:28+0000</time>
      </trkpt>
      <trkpt lat="40.908640000000005" lon="-1.9938900000000002">
        <time>2021-06-19T14:34:29+0000</time>
      </trkpt>
      <trkpt lat="40.908820000000006" lon="-1.9941200000000001">
        <time>2021-06-19T14:34:30+0000</time>
      </trkpt>
      <trkpt lat="40.909000000000006" lon="-1.9943600000000001">
        <time>2021-06-19T14:34:31+0000</time>
      </trkpt>
      <trkpt lat="40.909180000000006" lon="-1.99459">
        <time>2021-06-19T14:34:32+0000</time>
      </trkpt>
      <trkpt lat="40.90936000000001" lon="-1.99483">
        <time>2021-06-19T14:34:33+0000</time>
      </trkpt>
      <trkpt lat="40.90954000000001" lon="-1.9950800000000002">
        <time>2021-06-19T14:34:34+0000</time>
      </trkpt>
      <trkpt lat="40.909710000000004" lon="-1.9953200000000002">
        <time>2021-06-19T14:34:35+0000</time>
      </trkpt>
      <trkpt lat="40.909890000000004" lon="-1.9955600000000002">
        <time>2021-06-19T14:34:36+0000</time>
      </trkpt>
      <trkpt lat="40.910050000000005" lon="-1.9958200000000001">
        <time>2021-06-19T14:34:37+0000</time>
      </trkpt>
      <trkpt lat="40.910210000000006" lon="-1.9960700000000002">
        <time>2021-06-19T14:34:38+0000</time>
      </trkpt>
      <trkpt lat="40.91035" lon="-1.9963400000000002">
        <time>2021-06-19T14:34:39+0000</time>
      </trkpt>
      <trkpt lat="40.91049" lon="-1.9966100000000002">
        <time>2021-06-19T14:34:40+0000</time>
      </trkpt>
      <trkpt lat="40.910630000000005" lon="-1.99689">
        <time>2021-06-19T14:34:41+0000</time>
      </trkpt>
      <trkpt lat="40.91076" lon="-1.9971600000000003">
        <time>2021-06-19T14:34:42+0000</time>
      </trkpt>
      <trkpt lat="40.910900000000005" lon="-1.99744">
        <time>2021-06-19T14:34:43+0000</time>
      </trkpt>
      <trkpt lat="40.911030000000004" lon="-1.99771">
        <time>2021-06-19T14:34:44+0000</time>
      </trkpt>
      <trkpt lat="40.911170000000006" lon="-1.9979900000000002">
        <time>2021-06-19T14:34:45+0000</time>
      </trkpt>
      <trkpt lat="40.91131" lon="-1.9982600000000001">
        <time>2021-06-19T14:34:46+0000</time>
      </trkpt>
      <trkpt lat="40.911440000000006" lon="-1.9985400000000002">
        <time>2021-06-19T14:34:47+0000</time>
      </trkpt>
      <trkpt lat="40.91158" lon="-1.9988100000000002">
        <time>2021-06-19T14:34:48+0000</time>
      </trkpt>
      <trkpt lat="40.91172" lon="-1.9990700000000001">
        <time>2021-06-19T14:34:49+0000</time>
      </trkpt>
      <trkpt lat="40.911860000000004" lon="-1.9993400000000001">
        <time>2021-06-19T14:34:50+0000</time>
      </trkpt>
      <trkpt lat="40.91199" lon="-1.99961">
        <time>2021-06-19T14:34:51+0000</time>
      </trkpt>
      <trkpt lat="40.912110000000006" lon="-1.99988">
        <time>2021-06-19T14:34:52+0000</time>
      </trkpt>
      <trkpt lat="40.912240000000004" lon="-2.00015">
        <time>2021-06-19T14:34:53+0000</time>
      </trkpt>
      <trkpt lat="40.91237" lon="-2.0004">
        <time>2021-06-19T14:34:54+0000</time>
      </trkpt>
      <trkpt lat="40.9125" lon="-2.0006600000000003">
        <time>2021-06-19T14:34:55+0000</time>
      </trkpt>
      <trkpt lat="40.912620000000004" lon="-2.00091">
        <time>2021-06-19T14:34:56+0000</time>
      </trkpt>
      <trkpt lat="40.91275" lon="-2.00115">
        <time>2021-06-19T14:34:57+0000</time>
      </trkpt>
      <trkpt lat="40.912890000000004" lon="-2.0013900000000002">
        <time>2021-06-19T14:34:58+0000</time>
      </trkpt>
      <trkpt lat="40.91304" lon="-2.0016100000000003">
        <time>2021-06-19T14:34:59+0000</time>
      </trkpt>
      <trkpt lat="40.91319" lon="-2.00183">
        <time>2021-06-19T14:35:00+0000</time>
      </trkpt>
      <trkpt lat="40.913340000000005" lon="-2.00204">
        <time>2021-06-19T14:35:01+0000</time>
      </trkpt>
      <trkpt lat="40.913500000000006" lon="-2.00226">
        <time>2021-06-19T14:35:02+0000</time>
      </trkpt>
      <trkpt lat="40.91364" lon="-2.00247">
        <time>2021-06-19T14:35:03+0000</time>
      </trkpt>
      <trkpt lat="40.913790000000006" lon="-2.0026900000000003">
        <time>2021-06-19T14:35:04+0000</time>
      </trkpt>
      <trkpt lat="40.913920000000005" lon="-2.00291">
        <time>2021-06-19T14:35:05+0000</time>
      </trkpt>
      <trkpt lat="40.914060000000006" lon="-2.00314">
        <time>2021-06-19T14:35:06+0000</time>
      </trkpt>
      <trkpt lat="40.91418" lon="-2.0033800000000004">
        <time>2021-06-19T14:35:07+0000</time>
      </trkpt>
      <trkpt lat="40.91429" lon="-2.0036400000000003">
        <time>2021-06-19T14:35:08+0000</time>
      </trkpt>
      <trkpt lat="40.91438" lon="-2.0039200000000004">
        <time>2021-06-19T14:35:09+0000</time>
      </trkpt>
      <trkpt lat="40.91447" lon="-2.00421">
        <time>2021-06-19T14:35:10+0000</time>
      </trkpt>
      <trkpt lat="40.914570000000005" lon="-2.0045200000000003">
        <time>2021-06-19T14:35:11+0000</time>
      </trkpt>
      <trkpt lat="40.914660000000005" lon="-2.00482">
        <time>2021-06-19T14:35:12+0000</time>
      </trkpt>
      <trkpt lat="40.91474" lon="-2.0051300000000003">
        <time>2021-06-19T14:35:13+0000</time>
      </trkpt>
      <trkpt lat="40.91483" lon="-2.00543">
        <time>2021-06-19T14:35:14+0000</time>
      </trkpt>
      <trkpt lat="40.914910000000006" lon="-2.0057300000000002">
        <time>2021-06-19T14:35:15+0000</time>
      </trkpt>
      <trkpt lat="40.915000000000006" lon="-2.00603">
        <time>2021-06-19T14:35:16+0000</time>
      </trkpt>
      <trkpt lat="40.915090000000006" lon="-2.00632">
        <time>2021-06-19T14:35:17+0000</time>
      </trkpt>
      <trkpt lat="40.91517" lon="-2.0066100000000002">
        <time>2021-06-19T14:35:18+0000</time>
      </trkpt>
      <trkpt lat="40.91526" lon="-2.0069000000000004">
        <time>2021-06-19T14:35:19+0000</time>
      </trkpt>
      <trkpt lat="40.915350000000004" lon="-2.00719">
        <time>2021-06-19T14:35:20+0000</time>
      </trkpt>
      <trkpt lat="40.91543" lon="-2.00747">
        <time>2021-06-19T14:35:21+0000</time>
      </trkpt>
      <trkpt lat="40.91552" lon="-2.00776">
        <time>2021-06-19T14:35:22+0000</time>
      </trkpt>
      <trkpt lat="40.915620000000004" lon="-2.0080400000000003">
        <time>2021-06-19T14:35:23+0000</time>
      </trkpt>
      <trkpt lat="40.915710000000004" lon="-2.0083200000000003">
        <time>2021-06-19T14:35:24+0000</time>
      </trkpt>
      <trkpt lat="40.915800000000004" lon="-2.0086000000000004">
        <time>2021-06-19T14:35:25+0000</time>
      </trkpt>
      <trkpt lat="40.9159" lon="-2.00888">
        <time>2021-06-19T14:35:26+0000</time>
      </trkpt>
      <trkpt lat="40.91599" lon="-2.00917">
        <time>2021-06-19T14:35:27+0000</time>
      </trkpt>
      <trkpt lat="40.916090000000004" lon="-2.00945">
        <time>2021-06-19T14:35:28+0000</time>
      </trkpt>
      <trkpt lat="40.916180000000004" lon="-2.0097300000000002">
        <time>2021-06-19T14:35:29+0000</time>
      </trkpt>
      <trkpt lat="40.916270000000004" lon="-2.0100000000000002">
        <time>2021-06-19T14:35:30+0000</time>
      </trkpt>
      <trkpt lat="40.916360000000005" lon="-2.01025">
        <time>2021-06-19T14:35:31+0000</time>
      </trkpt>
      <trkpt lat="40.91644" lon="-2.0105">
        <time>2021-06-19T14:35:32+0000</time>
      </trkpt>
      <trkpt lat="40.916520000000006" lon="-2.01074">
        <time>2021-06-19T14:35:33+0000</time>
      </trkpt>
      <trkpt lat="40.916610000000006" lon="-2.01099">
        <time>2021-06-19T14:35:34+0000</time>
      </trkpt>
      <trkpt lat="40.91669" lon="-2.0112400000000004">
        <time>2021-06-19T14:35:35+0000</time>
      </trkpt>
      <trkpt lat="40.91678" lon="-2.0114900000000002">
        <time>2021-06-19T14:35:36+0000</time>
      </trkpt>
      <trkpt lat="40.91686000000001" lon="-2.01175">
        <time>2021-06-19T14:35:37+0000</time>
      </trkpt>
      <trkpt lat="40.916940000000004" lon="-2.01202">
        <time>2021-06-19T14:35:38+0000</time>
      </trkpt>
      <trkpt lat="40.91702" lon="-2.01228">
        <time>2021-06-19T14:35:39+0000</time>
      </trkpt>
      <trkpt lat="40.917100000000005" lon="-2.01254">
        <time>2021-06-19T14:35:40+0000</time>
      </trkpt>
      <trkpt lat="40.917190000000005" lon="-2.0128000000000004">
        <time>2021-06-19T14:35:41+0000</time>
      </trkpt>
      <trkpt lat="40.917280000000005" lon="-2.0130600000000003">
        <time>2021-06-19T14:35:42+0000</time>
      </trkpt>
      <trkpt lat="40.917370000000005" lon="-2.01332">
        <time>2021-06-19T14:35:43+0000</time>
      </trkpt>
      <trkpt lat="40.91747" lon="-2.01359">
        <time>2021-06-19T14:35:44+0000</time>
      </trkpt>
      <trkpt lat="40.91756" lon="-2.01386">
        <time>2021-06-19T14:35:45+0000</time>
      </trkpt>
      <trkpt lat="40.917660000000005" lon="-2.0141400000000003">
        <time>2021-06-19T14:35:46+0000</time>
      </trkpt>
      <trkpt lat="40.91776" lon="-2.01443">
        <time>2021-06-19T14:35:47+0000</time>
      </trkpt>
      <trkpt lat="40.91787" lon="-2.01473">
        <time>2021-06-19T14:35:48+0000</time>
      </trkpt>
      <trkpt lat="40.91798" lon="-2.0150400000000004">
        <time>2021-06-19T14:35:49+0000</time>
      </trkpt>
      <trkpt lat="40.91808" lon="-2.01534">
        <time>2021-06-19T14:35:50+0000</time>
      </trkpt>
      <trkpt lat="40.91819" lon="-2.0156500000000004">
        <time>2021-06-19T14:35:51+0000</time>
      </trkpt>
      <trkpt lat="40.9183" lon="-2.01595">
        <time>2021-06-19T14:35:52+0000</time>
      </trkpt>
      <trkpt lat="40.918400000000005" lon="-2.0162500000000003">
        <time>2021-06-19T14:35:53+0000</time>
      </trkpt>
      <trkpt lat="40.918510000000005" lon="-2.01656">
        <time>2021-06-19T14:35:54+0000</time>
      </trkpt>
      <trkpt lat="40.91861" lon="-2.0168600000000003">
        <time>2021-06-19T14:35:55+0000</time>
      </trkpt>
      <trkpt lat="40.91872" lon="-2.01716">
        <time>2021-06-19T14:35:56+0000</time>
      </trkpt>
      <trkpt lat="40.918820000000004" lon="-2.01745">
        <time>2021-06-19T14:35:57+0000</time>
      </trkpt>
      <trkpt lat="40.91892" lon="-2.0177400000000003">
        <time>2021-06-19T14:35:58+0000</time>
      </trkpt>
      <trkpt lat="40.91901" lon="-2.0180200000000004">
        <time>2021-06-19T14:35:59+0000</time>
      </trkpt>
      <trkpt lat="40.91911" lon="-2.01831">
        <time>2021-06-19T14:36:00+0000</time>
      </trkpt>
      <trkpt lat="40.91921000000001" lon="-2.01858">
        <time>2021-06-19T14:36:01+0000</time>
      </trkpt>
      <trkpt lat="40.91931" lon="-2.01886">
        <time>2021-06-19T14:36:02+0000</time>
      </trkpt>
      <trkpt lat="40.9194" lon="-2.01914">
        <time>2021-06-19T14:36:03+0000</time>
      </trkpt>
      <trkpt lat="40.919500000000006" lon="-2.01942">
        <time>2021-06-19T14:36:04+0000</time>
      </trkpt>
      <trkpt lat="40.9196" lon="-2.01969">
        <time>2021-06-19T14:36:05+0000</time>
      </trkpt>
      <trkpt lat="40.919700000000006" lon="-2.0199800000000003">
        <time>2021-06-19T14:36:06+0000</time>
      </trkpt>
      <trkpt lat="40.9198" lon="-2.02027">
        <time>2021-06-19T14:36:07+0000</time>
      </trkpt>
      <trkpt lat="40.919900000000005" lon="-2.02056">
        <time>2021-06-19T14:36:08+0000</time>
      </trkpt>
      <trkpt lat="40.92" lon="-2.0208600000000003">
        <time>2021-06-19T14:36:09+0000</time>
      </trkpt>
      <trkpt lat="40.92011" lon="-2.02116">
        <time>2021-06-19T14:36:10+0000</time>
      </trkpt>
      <trkpt lat="40.920210000000004" lon="-2.02145">
        <time>2021-06-19T14:36:11+0000</time>
      </trkpt>
      <trkpt lat="40.92031" lon="-2.0217400000000003">
        <time>2021-06-19T14:36:12+0000</time>
      </trkpt>
      <trkpt lat="40.920410000000004" lon="-2.02203">
        <time>2021-06-19T14:36:13+0000</time>
      </trkpt>
      <trkpt lat="40.92051" lon="-2.02231">
        <time>2021-06-19T14:36:14+0000</time>
      </trkpt>
      <trkpt lat="40.92062000000001" lon="-2.02259">
        <time>2021-06-19T14:36:15+0000</time>
      </trkpt>
      <trkpt lat="40.92072" lon="-2.0228800000000002">
        <time>2021-06-19T14:36:16+0000</time>
      </trkpt>
      <trkpt lat="40.92081" lon="-2.0231600000000003">
        <time>2021-06-19T14:36:17+0000</time>
      </trkpt>
      <trkpt lat="40.920910000000006" lon="-2.0234400000000003">
        <time>2021-06-19T14:36:18+0000</time>
      </trkpt>
      <trkpt lat="40.92101" lon="-2.02372">
        <time>2021-06-19T14:36:19+0000</time>
      </trkpt>
      <trkpt lat="40.92112" lon="-2.02401">
        <time>2021-06-19T14:36:20+0000</time>
      </trkpt>
      <trkpt lat="40.921220000000005" lon="-2.02429">
        <time>2021-06-19T14:36:21+0000</time>
      </trkpt>
      <trkpt lat="40.92132" lon="-2.0245800000000003">
        <time>2021-06-19T14:36:22+0000</time>
      </trkpt>
      <trkpt lat="40.921420000000005" lon="-2.02487">
        <time>2021-06-19T14:36:23+0000</time>
      </trkpt>
      <trkpt lat="40.921510000000005" lon="-2.02515">
        <time>2021-06-19T14:36:24+0000</time>
      </trkpt>
      <trkpt lat="40.92161" lon="-2.02544">
        <time>2021-06-19T14:36:25+0000</time>
      </trkpt>
      <trkpt lat="40.92172" lon="-2.0257300000000003">
        <time>2021-06-19T14:36:26+0000</time>
      </trkpt>
      <trkpt lat="40.921820000000004" lon="-2.0260100000000003">
        <time>2021-06-19T14:36:27+0000</time>
      </trkpt>
      <trkpt lat="40.92193" lon="-2.0263">
        <time>2021-06-19T14:36:28+0000</time>
      </trkpt>
      <trkpt lat="40.92203000000001" lon="-2.0266">
        <time>2021-06-19T14:36:29+0000</time>
      </trkpt>
      <trkpt lat="40.92213" lon="-2.0268900000000003">
        <time>2021-06-19T14:36:30+0000</time>
      </trkpt>
      <trkpt lat="40.922230000000006" lon="-2.02719">
        <time>2021-06-19T14:36:31+0000</time>
      </trkpt>
      <trkpt lat="40.922340000000005" lon="-2.0274900000000002">
        <time>2021-06-19T14:36:32+0000</time>
      </trkpt>
      <trkpt lat="40.92244" lon="-2.02779">
        <time>2021-06-19T14:36:33+0000</time>
      </trkpt>
      <trkpt lat="40.92255" lon="-2.0281000000000002">
        <time>2021-06-19T14:36:34+0000</time>
      </trkpt>
      <trkpt lat="40.92266" lon="-2.02841">
        <time>2021-06-19T14:36:35+0000</time>
      </trkpt>
      <trkpt lat="40.92277" lon="-2.0287200000000003">
        <time>2021-06-19T14:36:36+0000</time>
      </trkpt>
      <trkpt lat="40.92287" lon="-2.02903">
        <time>2021-06-19T14:36:37+0000</time>
      </trkpt>
      <trkpt lat="40.92296" lon="-2.02935">
        <time>2021-06-19T14:36:38+0000</time>
      </trkpt>
      <trkpt lat="40.92305" lon="-2.0296700000000003">
        <time>2021-06-19T14:36:39+0000</time>
      </trkpt>
      <trkpt lat="40.923140000000004" lon="-2.0300000000000002">
        <time>2021-06-19T14:36:40+0000</time>
      </trkpt>
      <trkpt lat="40.92322" lon="-2.03033">
        <time>2021-06-19T14:36:41+0000</time>
      </trkpt>
      <trkpt lat="40.923300000000005" lon="-2.03066">
        <time>2021-06-19T14:36:42+0000</time>
      </trkpt>
      <trkpt lat="40.923370000000006" lon="-2.03099">
        <time>2021-06-19T14:36:43+0000</time>
      </trkpt>
      <trkpt lat="40.92344000000001" lon="-2.03131">
        <time>2021-06-19T14:36:44+0000</time>
      </trkpt>
      <trkpt lat="40.923500000000004" lon="-2.0316300000000003">
        <time>2021-06-19T14:36:45+0000</time>
      </trkpt>
      <trkpt lat="40.923570000000005" lon="-2.03194">
        <time>2021-06-19T14:36:46+0000</time>
      </trkpt>
      <trkpt lat="40.92362000000001" lon="-2.0322400000000003">
        <time>2021-06-19T14:36:47+0000</time>
      </trkpt>
      <trkpt lat="40.923680000000004" lon="-2.03253">
        <time>2021-06-19T14:36:48+0000</time>
      </trkpt>
      <trkpt lat="40.92374" lon="-2.03282">
        <time>2021-06-19T14:36:49+0000</time>
      </trkpt>
      <trkpt lat="40.923790000000004" lon="-2.03311">
        <time>2021-06-19T14:36:50+0000</time>
      </trkpt>
      <trkpt lat="40.923840000000006" lon="-2.03338">
        <time>2021-06-19T14:36:51+0000</time>
      </trkpt>
      <trkpt lat="40.92389" lon="-2.0336600000000002">
        <time>2021-06-19T14:36:52+0000</time>
      </trkpt>
      <trkpt lat="40.923930000000006" lon="-2.0339300000000002">
        <time>2021-06-19T14:36:53+0000</time>
      </trkpt>
      <trkpt lat="40.923970000000004" lon="-2.0342100000000003">
        <time>2021-06-19T14:36:54+0000</time>
      </trkpt>
      <trkpt lat="40.92399" lon="-2.0345">
        <time>2021-06-19T14:36:55+0000</time>
      </trkpt>
      <trkpt lat="40.92401" lon="-2.03479">
        <time>2021-06-19T14:36:56+0000</time>
      </trkpt>
      <trkpt lat="40.92403" lon="-2.0350900000000003">
        <time>2021-06-19T14:36:57+0000</time>
      </trkpt>
      <trkpt lat="40.924040000000005" lon="-2.03539">
        <time>2021-06-19T14:36:58+0000</time>
      </trkpt>
      <trkpt lat="40.924060000000004" lon="-2.0357000000000003">
        <time>2021-06-19T14:36:59+0000</time>
      </trkpt>
      <trkpt lat="40.924080000000004" lon="-2.03601">
        <time>2021-06-19T14:37:00+0000</time>
      </trkpt>
      <trkpt lat="40.924110000000006" lon="-2.03633">
        <time>2021-06-19T14:37:01+0000</time>
      </trkpt>
      <trkpt lat="40.924150000000004" lon="-2.0366500000000003">
        <time>2021-06-19T14:37:02+0000</time>
      </trkpt>
      <trkpt lat="40.924200000000006" lon="-2.03696">
        <time>2021-06-19T14:37:03+0000</time>
      </trkpt>
      <trkpt lat="40.92427" lon="-2.03728">
        <time>2021-06-19T14:37:04+0000</time>
      </trkpt>
      <trkpt lat="40.924350000000004" lon="-2.0376000000000003">
        <time>2021-06-19T14:37:05+0000</time>
      </trkpt>
      <trkpt lat="40.92443" lon="-2.03791">
        <time>2021-06-19T14:37:06+0000</time>
      </trkpt>
      <trkpt lat="40.92452" lon="-2.0382200000000004">
        <time>2021-06-19T14:37:07+0000</time>
      </trkpt>
      <trkpt lat="40.924600000000005" lon="-2.03852">
        <time>2021-06-19T14:37:08+0000</time>
      </trkpt>
      <trkpt lat="40.924690000000005" lon="-2.0388200000000003">
        <time>2021-06-19T14:37:09+0000</time>
      </trkpt>
      <trkpt lat="40.924780000000005" lon="-2.03911">
        <time>2021-06-19T14:37:10+0000</time>
      </trkpt>
      <trkpt lat="40.924870000000006" lon="-2.0394">
        <time>2021-06-19T14:37:11+0000</time>
      </trkpt>
      <trkpt lat="40.92497" lon="-2.0396900000000002">
        <time>2021-06-19T14:37:12+0000</time>
      </trkpt>
      <trkpt lat="40.925070000000005" lon="-2.0399700000000003">
        <time>2021-06-19T14:37:13+0000</time>
      </trkpt>
      <trkpt lat="40.925180000000005" lon="-2.0402500000000003">
        <time>2021-06-19T14:37:14+0000</time>
      </trkpt>
      <trkpt lat="40.925290000000004" lon="-2.04053">
        <time>2021-06-19T14:37:15+0000</time>
      </trkpt>
      <trkpt lat="40.92541000000001" lon="-2.0408">
        <time>2021-06-19T14:37:16+0000</time>
      </trkpt>
      <trkpt lat="40.92553" lon="-2.04108">
        <time>2021-06-19T14:37:17+0000</time>
      </trkpt>
      <trkpt lat="40.92566" lon="-2.0413400000000004">
        <time>2021-06-19T14:37:18+0000</time>
      </trkpt>
      <trkpt lat="40.92578" lon="-2.0416000000000003">
        <time>2021-06-19T14:37:19+0000</time>
      </trkpt>
      <trkpt lat="40.92591" lon="-2.0418600000000002">
        <time>2021-06-19T14:37:20+0000</time>
      </trkpt>
      <trkpt lat="40.926030000000004" lon="-2.0421">
        <time>2021-06-19T14:37:21+0000</time>
      </trkpt>
      <trkpt lat="40.926140000000004" lon="-2.04233">
        <time>2021-06-19T14:37:22+0000</time>
      </trkpt>
      <trkpt lat="40.92624" lon="-2.0425500000000003">
        <time>2021-06-19T14:37:23+0000</time>
      </trkpt>
      <trkpt lat="40.92634" lon="-2.0427600000000004">
        <time>2021-06-19T14:37:24+0000</time>
      </trkpt>
      <trkpt lat="40.92643" lon="-2.0429600000000003">
        <time>2021-06-19T14:37:25+0000</time>
      </trkpt>
      <trkpt lat="40.926520000000004" lon="-2.0431700000000004">
        <time>2021-06-19T14:37:26+0000</time>
      </trkpt>
      <trkpt lat="40.9266" lon="-2.0434">
        <time>2021-06-19T14:37:27+0000</time>
      </trkpt>
      <trkpt lat="40.926680000000005" lon="-2.0436300000000003">
        <time>2021-06-19T14:37:28+0000</time>
      </trkpt>
      <trkpt lat="40.92676" lon="-2.04386">
        <time>2021-06-19T14:37:29+0000</time>
      </trkpt>
      <trkpt lat="40.926840000000006" lon="-2.0441100000000003">
        <time>2021-06-19T14:37:30+0000</time>
      </trkpt>
      <trkpt lat="40.92692" lon="-2.04435">
        <time>2021-06-19T14:37:31+0000</time>
      </trkpt>
      <trkpt lat="40.92700000000001" lon="-2.0446">
        <time>2021-06-19T14:37:32+0000</time>
      </trkpt>
      <trkpt lat="40.92709000000001" lon="-2.0448500000000003">
        <time>2021-06-19T14:37:33+0000</time>
      </trkpt>
      <trkpt lat="40.927170000000004" lon="-2.04511">
        <time>2021-06-19T14:37:34+0000</time>
      </trkpt>
      <trkpt lat="40.92725" lon="-2.04537">
        <time>2021-06-19T14:37:35+0000</time>
      </trkpt>
      <trkpt lat="40.92734" lon="-2.04564">
        <time>2021-06-19T14:37:36+0000</time>
      </trkpt>
      <trkpt lat="40.92743" lon="-2.04591">
        <time>2021-06-19T14:37:37+0000</time>
      </trkpt>
      <trkpt lat="40.927530000000004" lon="-2.04618">
        <time>2021-06-19T14:37:38+0000</time>
      </trkpt>
      <trkpt lat="40.927620000000005" lon="-2.04646">
        <time>2021-06-19T14:37:39+0000</time>
      </trkpt>
      <trkpt lat="40.927710000000005" lon="-2.0467400000000002">
        <time>2021-06-19T14:37:40+0000</time>
      </trkpt>
      <trkpt lat="40.927800000000005" lon="-2.0470300000000003">
        <time>2021-06-19T14:37:41+0000</time>
      </trkpt>
      <trkpt lat="40.9279" lon="-2.04731">
        <time>2021-06-19T14:37:42+0000</time>
      </trkpt>
      <trkpt lat="40.92799" lon="-2.04761">
        <time>2021-06-19T14:37:43+0000</time>
      </trkpt>
      <trkpt lat="40.928090000000005" lon="-2.0479000000000003">
        <time>2021-06-19T14:37:44+0000</time>
      </trkpt>
      <trkpt lat="40.928180000000005" lon="-2.0482">
        <time>2021-06-19T14:37:45+0000</time>
      </trkpt>
      <trkpt lat="40.92828" lon="-2.0485">
        <time>2021-06-19T14:37:46+0000</time>
      </trkpt>
      <trkpt lat="40.928380000000004" lon="-2.0487900000000003">
        <time>2021-06-19T14:37:47+0000</time>
      </trkpt>
      <trkpt lat="40.928470000000004" lon="-2.04909">
        <time>2021-06-19T14:37:48+0000</time>
      </trkpt>
      <trkpt lat="40.92857" lon="-2.0493900000000003">
        <time>2021-06-19T14:37:49+0000</time>
      </trkpt>
      <trkpt lat="40.928670000000004" lon="-2.04969">
        <time>2021-06-19T14:37:50+0000</time>
      </trkpt>
      <trkpt lat="40.92877" lon="-2.04999">
        <time>2021-06-19T14:37:51+0000</time>
      </trkpt>
      <trkpt lat="40.92887" lon="-2.05029">
        <time>2021-06-19T14:37:52+0000</time>
      </trkpt>
      <trkpt lat="40.92897000000001" lon="-2.05058">
        <time>2021-06-19T14:37:53+0000</time>
      </trkpt>
      <trkpt lat="40.92907" lon="-2.0508800000000003">
        <time>2021-06-19T14:37:54+0000</time>
      </trkpt>
      <trkpt lat="40.92916" lon="-2.05118">
        <time>2021-06-19T14:37:55+0000</time>
      </trkpt>
      <trkpt lat="40.929260000000006" lon="-2.05147">
        <time>2021-06-19T14:37:56+0000</time>
      </trkpt>
      <trkpt lat="40.92936" lon="-2.0517700000000003">
        <time>2021-06-19T14:37:57+0000</time>
      </trkpt>
      <trkpt lat="40.929460000000006" lon="-2.05207">
        <time>2021-06-19T14:37:58+0000</time>
      </trkpt>
      <trkpt lat="40.92956" lon="-2.05236">
        <time>2021-06-19T14:37:59+0000</time>
      </trkpt>
      <trkpt lat="40.92965" lon="-2.0526500000000003">
        <time>2021-06-19T14:38:00+0000</time>
      </trkpt>
      <trkpt lat="40.92974" lon="-2.0529300000000004">
        <time>2021-06-19T14:38:01+0000</time>
      </trkpt>
      <trkpt lat="40.929840000000006" lon="-2.05322">
        <time>2021-06-19T14:38:02+0000</time>
      </trkpt>
      <trkpt lat="40.929930000000006" lon="-2.0535">
        <time>2021-06-19T14:38:03+0000</time>
      </trkpt>
      <trkpt lat="40.93003" lon="-2.05378">
        <time>2021-06-19T14:38:04+0000</time>
      </trkpt>
      <trkpt lat="40.930130000000005" lon="-2.0540700000000003">
        <time>2021-06-19T14:38:05+0000</time>
      </trkpt>
      <trkpt lat="40.93023" lon="-2.0543500000000003">
        <time>2021-06-19T14:38:06+0000</time>
      </trkpt>
      <trkpt lat="40.93034" lon="-2.05463">
        <time>2021-06-19T14:38:07+0000</time>
      </trkpt>
      <trkpt lat="40.930440000000004" lon="-2.05492">
        <time>2021-06-19T14:38:08+0000</time>
      </trkpt>
      <trkpt lat="40.93054" lon="-2.0552200000000003">
        <time>2021-06-19T14:38:09+0000</time>
      </trkpt>
      <trkpt lat="40.93065" lon="-2.05551">
        <time>2021-06-19T14:38:10+0000</time>
      </trkpt>
      <trkpt lat="40.93076000000001" lon="-2.05581">
        <time>2021-06-19T14:38:11+0000</time>
      </trkpt>
      <trkpt lat="40.93086" lon="-2.0561000000000003">
        <time>2021-06-19T14:38:12+0000</time>
      </trkpt>
      <trkpt lat="40.93097" lon="-2.0563900000000004">
        <time>2021-06-19T14:38:13+0000</time>
      </trkpt>
      <trkpt lat="40.931070000000005" lon="-2.05668">
        <time>2021-06-19T14:38:14+0000</time>
      </trkpt>
      <trkpt lat="40.93117" lon="-2.05694">
        <time>2021-06-19T14:38:15+0000</time>
      </trkpt>
      <trkpt lat="40.93126" lon="-2.0571800000000002">
        <time>2021-06-19T14:38:16+0000</time>
      </trkpt>
      <trkpt lat="40.931340000000006" lon="-2.0574000000000003">
        <time>2021-06-19T14:38:17+0000</time>
      </trkpt>
      <trkpt lat="40.93141000000001" lon="-2.0576100000000004">
        <time>2021-06-19T14:38:18+0000</time>
      </trkpt>
      <trkpt lat="40.93148" lon="-2.0578100000000004">
        <time>2021-06-19T14:38:19+0000</time>
      </trkpt>
      <trkpt lat="40.93155" lon="-2.0580000000000003">
        <time>2021-06-19T14:38:20+0000</time>
      </trkpt>
      <trkpt lat="40.93162" lon="-2.05819">
        <time>2021-06-19T14:38:21+0000</time>
      </trkpt>
      <trkpt lat="40.93169" lon="-2.05839">
        <time>2021-06-19T14:38:22+0000</time>
      </trkpt>
      <trkpt lat="40.931760000000004" lon="-2.0586">
        <time>2021-06-19T14:38:23+0000</time>
      </trkpt>
      <trkpt lat="40.93184" lon="-2.0588200000000003">
        <time>2021-06-19T14:38:24+0000</time>
      </trkpt>
      <trkpt lat="40.931920000000005" lon="-2.05905">
        <time>2021-06-19T14:38:25+0000</time>
      </trkpt>
      <trkpt lat="40.932010000000005" lon="-2.05928">
        <time>2021-06-19T14:38:26+0000</time>
      </trkpt>
      <trkpt lat="40.932100000000005" lon="-2.05953">
        <time>2021-06-19T14:38:27+0000</time>
      </trkpt>
      <trkpt lat="40.93218" lon="-2.0597800000000004">
        <time>2021-06-19T14:38:28+0000</time>
      </trkpt>
      <trkpt lat="40.932280000000006" lon="-2.0600300000000002">
        <time>2021-06-19T14:38:29+0000</time>
      </trkpt>
      <trkpt lat="40.932370000000006" lon="-2.0603000000000002">
        <time>2021-06-19T14:38:30+0000</time>
      </trkpt>
      <trkpt lat="40.93247" lon="-2.0605700000000002">
        <time>2021-06-19T14:38:31+0000</time>
      </trkpt>
      <trkpt lat="40.932570000000005" lon="-2.0608500000000003">
        <time>2021-06-19T14:38:32+0000</time>
      </trkpt>
      <trkpt lat="40.93267" lon="-2.06114">
        <time>2021-06-19T14:38:33+0000</time>
      </trkpt>
      <trkpt lat="40.93278" lon="-2.06144">
        <time>2021-06-19T14:38:34+0000</time>
      </trkpt>
      <trkpt lat="40.932900000000004" lon="-2.0617400000000004">
        <time>2021-06-19T14:38:35+0000</time>
      </trkpt>
      <trkpt lat="40.93301" lon="-2.0620600000000002">
        <time>2021-06-19T14:38:36+0000</time>
      </trkpt>
      <trkpt lat="40.933130000000006" lon="-2.06237">
        <time>2021-06-19T14:38:37+0000</time>
      </trkpt>
      <trkpt lat="40.933240000000005" lon="-2.0626900000000004">
        <time>2021-06-19T14:38:38+0000</time>
      </trkpt>
      <trkpt lat="40.93336" lon="-2.0630100000000002">
        <time>2021-06-19T14:38:39+0000</time>
      </trkpt>
      <trkpt lat="40.93347" lon="-2.06333">
        <time>2021-06-19T14:38:40+0000</time>
      </trkpt>
      <trkpt lat="40.93359" lon="-2.06365">
        <time>2021-06-19T14:38:41+0000</time>
      </trkpt>
      <trkpt lat="40.9337" lon="-2.0639700000000003">
        <time>2021-06-19T14:38:42+0000</time>
      </trkpt>
      <trkpt lat="40.933820000000004" lon="-2.06429">
        <time>2021-06-19T14:38:43+0000</time>
      </trkpt>
      <trkpt lat="40.93394000000001" lon="-2.06462">
        <time>2021-06-19T14:38:44+0000</time>
      </trkpt>
      <trkpt lat="40.934050000000006" lon="-2.06494">
        <time>2021-06-19T14:38:45+0000</time>
      </trkpt>
      <trkpt lat="40.93417" lon="-2.0652600000000003">
        <time>2021-06-19T14:38:46+0000</time>
      </trkpt>
      <trkpt lat="40.93428" lon="-2.06557">
        <time>2021-06-19T14:38:47+0000</time>
      </trkpt>
      <trkpt lat="40.934400000000004" lon="-2.0658600000000003">
        <time>2021-06-19T14:38:48+0000</time>
      </trkpt>
      <trkpt lat="40.93451" lon="-2.0661500000000004">
        <time>2021-06-19T14:38:49+0000</time>
      </trkpt>
      <trkpt lat="40.93464" lon="-2.06644">
        <time>2021-06-19T14:38:50+0000</time>
      </trkpt>
      <trkpt lat="40.93477" lon="-2.06672">
        <time>2021-06-19T14:38:51+0000</time>
      </trkpt>
      <trkpt lat="40.934900000000006" lon="-2.067">
        <time>2021-06-19T14:38:52+0000</time>
      </trkpt>
      <trkpt lat="40.935050000000004" lon="-2.0672800000000002">
        <time>2021-06-19T14:38:53+0000</time>
      </trkpt>
      <trkpt lat="40.935190000000006" lon="-2.0675600000000003">
        <time>2021-06-19T14:38:54+0000</time>
      </trkpt>
      <trkpt lat="40.935340000000004" lon="-2.0678400000000003">
        <time>2021-06-19T14:38:55+0000</time>
      </trkpt>
      <trkpt lat="40.93549" lon="-2.06812">
        <time>2021-06-19T14:38:56+0000</time>
      </trkpt>
      <trkpt lat="40.93563" lon="-2.06841">
        <time>2021-06-19T14:38:57+0000</time>
      </trkpt>
      <trkpt lat="40.93578" lon="-2.0687">
        <time>2021-06-19T14:38:58+0000</time>
      </trkpt>
      <trkpt lat="40.93592" lon="-2.0689900000000003">
        <time>2021-06-19T14:38:59+0000</time>
      </trkpt>
      <trkpt lat="40.936060000000005" lon="-2.06928">
        <time>2021-06-19T14:39:00+0000</time>
      </trkpt>
      <trkpt lat="40.93621" lon="-2.06957">
        <time>2021-06-19T14:39:01+0000</time>
      </trkpt>
      <trkpt lat="40.936350000000004" lon="-2.0698600000000003">
        <time>2021-06-19T14:39:02+0000</time>
      </trkpt>
      <trkpt lat="40.9365" lon="-2.0701400000000003">
        <time>2021-06-19T14:39:03+0000</time>
      </trkpt>
      <trkpt lat="40.936640000000004" lon="-2.0704200000000004">
        <time>2021-06-19T14:39:04+0000</time>
      </trkpt>
      <trkpt lat="40.936780000000006" lon="-2.0707">
        <time>2021-06-19T14:39:05+0000</time>
      </trkpt>
      <trkpt lat="40.93692" lon="-2.07097">
        <time>2021-06-19T14:39:06+0000</time>
      </trkpt>
      <trkpt lat="40.93706" lon="-2.07124">
        <time>2021-06-19T14:39:07+0000</time>
      </trkpt>
      <trkpt lat="40.93719" lon="-2.07151">
        <time>2021-06-19T14:39:08+0000</time>
      </trkpt>
      <trkpt lat="40.93732000000001" lon="-2.0717700000000003">
        <time>2021-06-19T14:39:09+0000</time>
      </trkpt>
      <trkpt lat="40.93746" lon="-2.07202">
        <time>2021-06-19T14:39:10+0000</time>
      </trkpt>
      <trkpt lat="40.93759" lon="-2.07226">
        <time>2021-06-19T14:39:11+0000</time>
      </trkpt>
      <trkpt lat="40.937740000000005" lon="-2.0725000000000002">
        <time>2021-06-19T14:39:12+0000</time>
      </trkpt>
      <trkpt lat="40.93789" lon="-2.07273">
        <time>2021-06-19T14:39:13+0000</time>
      </trkpt>
      <trkpt lat="40.938050000000004" lon="-2.07297">
        <time>2021-06-19T14:39:14+0000</time>
      </trkpt>
      <trkpt lat="40.938230000000004" lon="-2.0731900000000003">
        <time>2021-06-19T14:39:15+0000</time>
      </trkpt>
      <trkpt lat="40.9384" lon="-2.07342">
        <time>2021-06-19T14:39:16+0000</time>
      </trkpt>
      <trkpt lat="40.93858" lon="-2.0736600000000003">
        <time>2021-06-19T14:39:17+0000</time>
      </trkpt>
      <trkpt lat="40.93876" lon="-2.07389">
        <time>2021-06-19T14:39:18+0000</time>
      </trkpt>
      <trkpt lat="40.938930000000006" lon="-2.07411">
        <time>2021-06-19T14:39:19+0000</time>
      </trkpt>
      <trkpt lat="40.9391" lon="-2.0743400000000003">
        <time>2021-06-19T14:39:20+0000</time>
      </trkpt>
      <trkpt lat="40.939260000000004" lon="-2.07456">
        <time>2021-06-19T14:39:21+0000</time>
      </trkpt>
      <trkpt lat="40.93943" lon="-2.07477">
        <time>2021-06-19T14:39:22+0000</time>
      </trkpt>
      <trkpt lat="40.93959" lon="-2.07499">
        <time>2021-06-19T14:39:23+0000</time>
      </trkpt>
      <trkpt lat="40.93976000000001" lon="-2.0752200000000003">
        <time>2021-06-19T14:39:24+0000</time>
      </trkpt>
      <trkpt lat="40.939930000000004" lon="-2.07544">
        <time>2021-06-19T14:39:25+0000</time>
      </trkpt>
      <trkpt lat="40.9401" lon="-2.07567">
        <time>2021-06-19T14:39:26+0000</time>
      </trkpt>
      <trkpt lat="40.940270000000005" lon="-2.0758900000000002">
        <time>2021-06-19T14:39:27+0000</time>
      </trkpt>
      <trkpt lat="40.940430000000006" lon="-2.0761100000000003">
        <time>2021-06-19T14:39:28+0000</time>
      </trkpt>
      <trkpt lat="40.9406" lon="-2.07633">
        <time>2021-06-19T14:39:29+0000</time>
      </trkpt>
      <trkpt lat="40.940760000000004" lon="-2.07655">
        <time>2021-06-19T14:39:30+0000</time>
      </trkpt>
      <trkpt lat="40.94093" lon="-2.0767800000000003">
        <time>2021-06-19T14:39:31+0000</time>
      </trkpt>
      <trkpt lat="40.941100000000006" lon="-2.077">
        <time>2021-06-19T14:39:32+0000</time>
      </trkpt>
      <trkpt lat="40.94126000000001" lon="-2.07722">
        <time>2021-06-19T14:39:33+0000</time>
      </trkpt>
      <trkpt lat="40.94142" lon="-2.07743">
        <time>2021-06-19T14:39:34+0000</time>
      </trkpt>
      <trkpt lat="40.94158" lon="-2.07764">
        <time>2021-06-19T14:39:35+0000</time>
      </trkpt>
      <trkpt lat="40.94173000000001" lon="-2.07784">
        <time>2021-06-19T14:39:36+0000</time>
      </trkpt>
      <trkpt lat="40.94187" lon="-2.07802">
        <time>2021-06-19T14:39:37+0000</time>
      </trkpt>
      <trkpt lat="40.942" lon="-2.0782000000000003">
        <time>2021-06-19T14:39:38+0000</time>
      </trkpt>
      <trkpt lat="40.942130000000006" lon="-2.07838">
        <time>2021-06-19T14:39:39+0000</time>
      </trkpt>
      <trkpt lat="40.942260000000005" lon="-2.07856">
        <time>2021-06-19T14:39:40+0000</time>
      </trkpt>
      <trkpt lat="40.942400000000006" lon="-2.0787400000000003">
        <time>2021-06-19T14:39:41+0000</time>
      </trkpt>
      <trkpt lat="40.94254" lon="-2.07892">
        <time>2021-06-19T14:39:42+0000</time>
      </trkpt>
      <trkpt lat="40.94267000000001" lon="-2.0791">
        <time>2021-06-19T14:39:43+0000</time>
      </trkpt>
      <trkpt lat="40.94281" lon="-2.0792800000000002">
        <time>2021-06-19T14:39:44+0000</time>
      </trkpt>
      <trkpt lat="40.94295" lon="-2.07946">
        <time>2021-06-19T14:39:45+0000</time>
      </trkpt>
      <trkpt lat="40.943090000000005" lon="-2.07965">
        <time>2021-06-19T14:39:46+0000</time>
      </trkpt>
      <trkpt lat="40.94324" lon="-2.0798400000000004">
        <time>2021-06-19T14:39:47+0000</time>
      </trkpt>
      <trkpt lat="40.943380000000005" lon="-2.0800400000000003">
        <time>2021-06-19T14:39:48+0000</time>
      </trkpt>
      <trkpt lat="40.943540000000006" lon="-2.08026">
        <time>2021-06-19T14:39:49+0000</time>
      </trkpt>
      <trkpt lat="40.943690000000004" lon="-2.08048">
        <time>2021-06-19T14:39:50+0000</time>
      </trkpt>
      <trkpt lat="40.94384" lon="-2.0807100000000003">
        <time>2021-06-19T14:39:51+0000</time>
      </trkpt>
      <trkpt lat="40.944" lon="-2.08095">
        <time>2021-06-19T14:39:52+0000</time>
      </trkpt>
      <trkpt lat="40.94417000000001" lon="-2.0812000000000004">
        <time>2021-06-19T14:39:53+0000</time>
      </trkpt>
      <trkpt lat="40.944340000000004" lon="-2.0814600000000003">
        <time>2021-06-19T14:39:54+0000</time>
      </trkpt>
      <trkpt lat="40.94451" lon="-2.0817200000000002">
        <time>2021-06-19T14:39:55+0000</time>
      </trkpt>
      <trkpt lat="40.944680000000005" lon="-2.08198">
        <time>2021-06-19T14:39:56+0000</time>
      </trkpt>
      <trkpt lat="40.94485" lon="-2.08225">
        <time>2021-06-19T14:39:57+0000</time>
      </trkpt>
      <trkpt lat="40.94502000000001" lon="-2.08251">
        <time>2021-06-19T14:39:58+0000</time>
      </trkpt>
      <trkpt lat="40.945190000000004" lon="-2.08278">
        <time>2021-06-19T14:39:59+0000</time>
      </trkpt>
      <trkpt lat="40.94536" lon="-2.08305">
        <time>2021-06-19T14:40:00+0000</time>
      </trkpt>
      <trkpt lat="40.94554" lon="-2.08332">
        <time>2021-06-19T14:40:01+0000</time>
      </trkpt>
      <trkpt lat="40.94572" lon="-2.08359">
        <time>2021-06-19T14:40:02+0000</time>
      </trkpt>
      <trkpt lat="40.9459" lon="-2.08386">
        <time>2021-06-19T14:40:03+0000</time>
      </trkpt>
      <trkpt lat="40.946070000000006" lon="-2.08413">
        <time>2021-06-19T14:40:04+0000</time>
      </trkpt>
      <trkpt lat="40.946250000000006" lon="-2.08441">
        <time>2021-06-19T14:40:05+0000</time>
      </trkpt>
      <trkpt lat="40.94643000000001" lon="-2.08468">
        <time>2021-06-19T14:40:06+0000</time>
      </trkpt>
      <trkpt lat="40.94661000000001" lon="-2.08495">
        <time>2021-06-19T14:40:07+0000</time>
      </trkpt>
      <trkpt lat="40.946780000000004" lon="-2.08522">
        <time>2021-06-19T14:40:08+0000</time>
      </trkpt>
      <trkpt lat="40.94695" lon="-2.08548">
        <time>2021-06-19T14:40:09+0000</time>
      </trkpt>
      <trkpt lat="40.94711" lon="-2.0857400000000004">
        <time>2021-06-19T14:40:10+0000</time>
      </trkpt>
      <trkpt lat="40.94726" lon="-2.0859900000000002">
        <time>2021-06-19T14:40:11+0000</time>
      </trkpt>
      <trkpt lat="40.947390000000006" lon="-2.08625">
        <time>2021-06-19T14:40:12+0000</time>
      </trkpt>
      <trkpt lat="40.94751" lon="-2.08652">
        <time>2021-06-19T14:40:13+0000</time>
      </trkpt>
      <trkpt lat="40.947610000000005" lon="-2.08679">
        <time>2021-06-19T14:40:14+0000</time>
      </trkpt>
      <trkpt lat="40.94773" lon="-2.08706">
        <time>2021-06-19T14:40:15+0000</time>
      </trkpt>
      <trkpt lat="40.94784000000001" lon="-2.08734">
        <time>2021-06-19T14:40:16+0000</time>
      </trkpt>
      <trkpt lat="40.94796" lon="-2.0876300000000003">
        <time>2021-06-19T14:40:17+0000</time>
      </trkpt>
      <trkpt lat="40.948080000000004" lon="-2.0879100000000004">
        <time>2021-06-19T14:40:18+0000</time>
      </trkpt>
      <trkpt lat="40.9482" lon="-2.0882">
        <time>2021-06-19T14:40:19+0000</time>
      </trkpt>
      <trkpt lat="40.94832" lon="-2.08848">
        <time>2021-06-19T14:40:20+0000</time>
      </trkpt>
      <trkpt lat="40.948440000000005" lon="-2.08875">
        <time>2021-06-19T14:40:21+0000</time>
      </trkpt>
      <trkpt lat="40.948570000000004" lon="-2.08901">
        <time>2021-06-19T14:40:22+0000</time>
      </trkpt>
      <trkpt lat="40.948710000000005" lon="-2.0892500000000003">
        <time>2021-06-19T14:40:23+0000</time>
      </trkpt>
      <trkpt lat="40.94887000000001" lon="-2.0894700000000004">
        <time>2021-06-19T14:40:24+0000</time>
      </trkpt>
      <trkpt lat="40.94903" lon="-2.08968">
        <time>2021-06-19T14:40:25+0000</time>
      </trkpt>
      <trkpt lat="40.94919" lon="-2.08991">
        <time>2021-06-19T14:40:26+0000</time>
      </trkpt>
      <trkpt lat="40.949360000000006" lon="-2.0901400000000003">
        <time>2021-06-19T14:40:27+0000</time>
      </trkpt>
      <trkpt lat="40.94953" lon="-2.09037">
        <time>2021-06-19T14:40:28+0000</time>
      </trkpt>
      <trkpt lat="40.9497" lon="-2.0906100000000003">
        <time>2021-06-19T14:40:29+0000</time>
      </trkpt>
      <trkpt lat="40.949870000000004" lon="-2.09085">
        <time>2021-06-19T14:40:30+0000</time>
      </trkpt>
      <trkpt lat="40.950050000000005" lon="-2.09111">
        <time>2021-06-19T14:40:31+0000</time>
      </trkpt>
      <trkpt lat="40.95024" lon="-2.09137">
        <time>2021-06-19T14:40:32+0000</time>
      </trkpt>
      <trkpt lat="40.95042" lon="-2.0916400000000004">
        <time>2021-06-19T14:40:33+0000</time>
      </trkpt>
      <trkpt lat="40.950610000000005" lon="-2.0919000000000003">
        <time>2021-06-19T14:40:34+0000</time>
      </trkpt>
      <trkpt lat="40.950810000000004" lon="-2.0921600000000002">
        <time>2021-06-19T14:40:35+0000</time>
      </trkpt>
      <trkpt lat="40.951" lon="-2.0924300000000002">
        <time>2021-06-19T14:40:36+0000</time>
      </trkpt>
      <trkpt lat="40.9512" lon="-2.0927000000000002">
        <time>2021-06-19T14:40:37+0000</time>
      </trkpt>
      <trkpt lat="40.95139" lon="-2.0929800000000003">
        <time>2021-06-19T14:40:38+0000</time>
      </trkpt>
      <trkpt lat="40.95159" lon="-2.0932500000000003">
        <time>2021-06-19T14:40:39+0000</time>
      </trkpt>
      <trkpt lat="40.95179" lon="-2.0935200000000003">
        <time>2021-06-19T14:40:40+0000</time>
      </trkpt>
      <trkpt lat="40.95199" lon="-2.0937900000000003">
        <time>2021-06-19T14:40:41+0000</time>
      </trkpt>
      <trkpt lat="40.95219" lon="-2.0940700000000003">
        <time>2021-06-19T14:40:42+0000</time>
      </trkpt>
      <trkpt lat="40.95239" lon="-2.09436">
        <time>2021-06-19T14:40:43+0000</time>
      </trkpt>
      <trkpt lat="40.95259" lon="-2.09464">
        <time>2021-06-19T14:40:44+0000</time>
      </trkpt>
      <trkpt lat="40.95279" lon="-2.09493">
        <time>2021-06-19T14:40:45+0000</time>
      </trkpt>
      <trkpt lat="40.953" lon="-2.0952100000000002">
        <time>2021-06-19T14:40:46+0000</time>
      </trkpt>
      <trkpt lat="40.9532" lon="-2.0955000000000004">
        <time>2021-06-19T14:40:47+0000</time>
      </trkpt>
      <trkpt lat="40.9534" lon="-2.09578">
        <time>2021-06-19T14:40:48+0000</time>
      </trkpt>
      <trkpt lat="40.95358" lon="-2.0960400000000003">
        <time>2021-06-19T14:40:49+0000</time>
      </trkpt>
      <trkpt lat="40.95376" lon="-2.09629">
        <time>2021-06-19T14:40:50+0000</time>
      </trkpt>
      <trkpt lat="40.95393000000001" lon="-2.09654">
        <time>2021-06-19T14:40:51+0000</time>
      </trkpt>
      <trkpt lat="40.95409" lon="-2.0967800000000003">
        <time>2021-06-19T14:40:52+0000</time>
      </trkpt>
      <trkpt lat="40.95423" lon="-2.09702">
        <time>2021-06-19T14:40:53+0000</time>
      </trkpt>
      <trkpt lat="40.95438" lon="-2.0972500000000003">
        <time>2021-06-19T14:40:54+0000</time>
      </trkpt>
      <trkpt lat="40.954510000000006" lon="-2.09749">
        <time>2021-06-19T14:40:55+0000</time>
      </trkpt>
      <trkpt lat="40.954660000000004" lon="-2.0977200000000003">
        <time>2021-06-19T14:40:56+0000</time>
      </trkpt>
      <trkpt lat="40.95481" lon="-2.09796">
        <time>2021-06-19T14:40:57+0000</time>
      </trkpt>
      <trkpt lat="40.95496" lon="-2.0982000000000003">
        <time>2021-06-19T14:40:58+0000</time>
      </trkpt>
      <trkpt lat="40.9551" lon="-2.09844">
        <time>2021-06-19T14:40:59+0000</time>
      </trkpt>
      <trkpt lat="40.95525000000001" lon="-2.0986800000000003">
        <time>2021-06-19T14:41:00+0000</time>
      </trkpt>
      <trkpt lat="40.955400000000004" lon="-2.09893">
        <time>2021-06-19T14:41:01+0000</time>
      </trkpt>
      <trkpt lat="40.95555" lon="-2.09917">
        <time>2021-06-19T14:41:02+0000</time>
      </trkpt>
      <trkpt lat="40.9557" lon="-2.0994200000000003">
        <time>2021-06-19T14:41:03+0000</time>
      </trkpt>
      <trkpt lat="40.95586" lon="-2.09968">
        <time>2021-06-19T14:41:04+0000</time>
      </trkpt>
      <trkpt lat="40.956010000000006" lon="-2.09993">
        <time>2021-06-19T14:41:05+0000</time>
      </trkpt>
      <trkpt lat="40.95617" lon="-2.1001800000000004">
        <time>2021-06-19T14:41:06+0000</time>
      </trkpt>
      <trkpt lat="40.95633" lon="-2.1004300000000002">
        <time>2021-06-19T14:41:07+0000</time>
      </trkpt>
      <trkpt lat="40.95649" lon="-2.10068">
        <time>2021-06-19T14:41:08+0000</time>
      </trkpt>
      <trkpt lat="40.95664" lon="-2.10094">
        <time>2021-06-19T14:41:09+0000</time>
      </trkpt>
      <trkpt lat="40.956790000000005" lon="-2.1011900000000003">
        <time>2021-06-19T14:41:10+0000</time>
      </trkpt>
      <trkpt lat="40.95694" lon="-2.10144">
        <time>2021-06-19T14:41:11+0000</time>
      </trkpt>
      <trkpt lat="40.95709" lon="-2.1017">
        <time>2021-06-19T14:41:12+0000</time>
      </trkpt>
      <trkpt lat="40.957240000000006" lon="-2.10195">
        <time>2021-06-19T14:41:13+0000</time>
      </trkpt>
      <trkpt lat="40.957390000000004" lon="-2.1021900000000002">
        <time>2021-06-19T14:41:14+0000</time>
      </trkpt>
      <trkpt lat="40.957530000000006" lon="-2.10242">
        <time>2021-06-19T14:41:15+0000</time>
      </trkpt>
      <trkpt lat="40.95767" lon="-2.10265">
        <time>2021-06-19T14:41:16+0000</time>
      </trkpt>
      <trkpt lat="40.957800000000006" lon="-2.1028700000000002">
        <time>2021-06-19T14:41:17+0000</time>
      </trkpt>
      <trkpt lat="40.957930000000005" lon="-2.1030800000000003">
        <time>2021-06-19T14:41:18+0000</time>
      </trkpt>
      <trkpt lat="40.95806" lon="-2.1032900000000003">
        <time>2021-06-19T14:41:19+0000</time>
      </trkpt>
      <trkpt lat="40.95819" lon="-2.1035000000000004">
        <time>2021-06-19T14:41:20+0000</time>
      </trkpt>
      <trkpt lat="40.958310000000004" lon="-2.10371">
        <time>2021-06-19T14:41:21+0000</time>
      </trkpt>
      <trkpt lat="40.95844" lon="-2.10393">
        <time>2021-06-19T14:41:22+0000</time>
      </trkpt>
      <trkpt lat="40.95857" lon="-2.10415">
        <time>2021-06-19T14:41:23+0000</time>
      </trkpt>
      <trkpt lat="40.95871" lon="-2.1043700000000003">
        <time>2021-06-19T14:41:24+0000</time>
      </trkpt>
      <trkpt lat="40.958850000000005" lon="-2.1046">
        <time>2021-06-19T14:41:25+0000</time>
      </trkpt>
      <trkpt lat="40.959" lon="-2.1048500000000003">
        <time>2021-06-19T14:41:26+0000</time>
      </trkpt>
      <trkpt lat="40.959160000000004" lon="-2.1051100000000003">
        <time>2021-06-19T14:41:27+0000</time>
      </trkpt>
      <trkpt lat="40.95933" lon="-2.1053900000000003">
        <time>2021-06-19T14:41:28+0000</time>
      </trkpt>
      <trkpt lat="40.959500000000006" lon="-2.1056700000000004">
        <time>2021-06-19T14:41:29+0000</time>
      </trkpt>
      <trkpt lat="40.959680000000006" lon="-2.10597">
        <time>2021-06-19T14:41:30+0000</time>
      </trkpt>
      <trkpt lat="40.95985" lon="-2.1062700000000003">
        <time>2021-06-19T14:41:31+0000</time>
      </trkpt>
      <trkpt lat="40.960010000000004" lon="-2.10658">
        <time>2021-06-19T14:41:32+0000</time>
      </trkpt>
      <trkpt lat="40.96016" lon="-2.10691">
        <time>2021-06-19T14:41:33+0000</time>
      </trkpt>
      <trkpt lat="40.960300000000004" lon="-2.10724">
        <time>2021-06-19T14:41:34+0000</time>
      </trkpt>
      <trkpt lat="40.96043" lon="-2.10758">
        <time>2021-06-19T14:41:35+0000</time>
      </trkpt>
      <trkpt lat="40.960550000000005" lon="-2.1079000000000003">
        <time>2021-06-19T14:41:36+0000</time>
      </trkpt>
      <trkpt lat="40.96065" lon="-2.10822">
        <time>2021-06-19T14:41:37+0000</time>
      </trkpt>
      <trkpt lat="40.960750000000004" lon="-2.1085200000000004">
        <time>2021-06-19T14:41:38+0000</time>
      </trkpt>
      <trkpt lat="40.960840000000005" lon="-2.10881">
        <time>2021-06-19T14:41:39+0000</time>
      </trkpt>
      <trkpt lat="40.960930000000005" lon="-2.10909">
        <time>2021-06-19T14:41:40+0000</time>
      </trkpt>
      <trkpt lat="40.961020000000005" lon="-2.10936">
        <time>2021-06-19T14:41:41+0000</time>
      </trkpt>
      <trkpt lat="40.9611" lon="-2.10964">
        <time>2021-06-19T14:41:42+0000</time>
      </trkpt>
      <trkpt lat="40.96119" lon="-2.10991">
        <time>2021-06-19T14:41:43+0000</time>
      </trkpt>
      <trkpt lat="40.961290000000005" lon="-2.1102000000000003">
        <time>2021-06-19T14:41:44+0000</time>
      </trkpt>
      <trkpt lat="40.96139" lon="-2.11049">
        <time>2021-06-19T14:41:45+0000</time>
      </trkpt>
      <trkpt lat="40.9615" lon="-2.1107500000000003">
        <time>2021-06-19T14:41:46+0000</time>
      </trkpt>
      <trkpt lat="40.96161" lon="-2.1110100000000003">
        <time>2021-06-19T14:41:47+0000</time>
      </trkpt>
      <trkpt lat="40.96172000000001" lon="-2.1112800000000003">
        <time>2021-06-19T14:41:48+0000</time>
      </trkpt>
      <trkpt lat="40.96184" lon="-2.11154">
        <time>2021-06-19T14:41:49+0000</time>
      </trkpt>
      <trkpt lat="40.961940000000006" lon="-2.1118">
        <time>2021-06-19T14:41:50+0000</time>
      </trkpt>
      <trkpt lat="40.96206" lon="-2.11206">
        <time>2021-06-19T14:41:51+0000</time>
      </trkpt>
      <trkpt lat="40.96217" lon="-2.11232">
        <time>2021-06-19T14:41:52+0000</time>
      </trkpt>
      <trkpt lat="40.96229" lon="-2.1125800000000003">
        <time>2021-06-19T14:41:53+0000</time>
      </trkpt>
      <trkpt lat="40.962410000000006" lon="-2.1128500000000003">
        <time>2021-06-19T14:41:54+0000</time>
      </trkpt>
      <trkpt lat="40.962520000000005" lon="-2.11313">
        <time>2021-06-19T14:41:55+0000</time>
      </trkpt>
      <trkpt lat="40.962650000000004" lon="-2.1134000000000004">
        <time>2021-06-19T14:41:56+0000</time>
      </trkpt>
      <trkpt lat="40.962770000000006" lon="-2.11368">
        <time>2021-06-19T14:41:57+0000</time>
      </trkpt>
      <trkpt lat="40.962900000000005" lon="-2.11398">
        <time>2021-06-19T14:41:58+0000</time>
      </trkpt>
      <trkpt lat="40.96303" lon="-2.1143">
        <time>2021-06-19T14:41:59+0000</time>
      </trkpt>
      <trkpt lat="40.963170000000005" lon="-2.11464">
        <time>2021-06-19T14:42:00+0000</time>
      </trkpt>
      <trkpt lat="40.963330000000006" lon="-2.11499">
        <time>2021-06-19T14:42:01+0000</time>
      </trkpt>
      <trkpt lat="40.96349" lon="-2.11534">
        <time>2021-06-19T14:42:02+0000</time>
      </trkpt>
      <trkpt lat="40.963660000000004" lon="-2.11571">
        <time>2021-06-19T14:42:03+0000</time>
      </trkpt>
      <trkpt lat="40.96383" lon="-2.1160900000000002">
        <time>2021-06-19T14:42:04+0000</time>
      </trkpt>
      <trkpt lat="40.96401" lon="-2.11649">
        <time>2021-06-19T14:42:05+0000</time>
      </trkpt>
      <trkpt lat="40.96419" lon="-2.1169000000000002">
        <time>2021-06-19T14:42:06+0000</time>
      </trkpt>
      <trkpt lat="40.96437" lon="-2.1173100000000002">
        <time>2021-06-19T14:42:07+0000</time>
      </trkpt>
      <trkpt lat="40.96455" lon="-2.1177200000000003">
        <time>2021-06-19T14:42:08+0000</time>
      </trkpt>
      <trkpt lat="40.96473" lon="-2.1181300000000003">
        <time>2021-06-19T14:42:09+0000</time>
      </trkpt>
      <trkpt lat="40.9649" lon="-2.11851">
        <time>2021-06-19T14:42:10+0000</time>
      </trkpt>
      <trkpt lat="40.96506" lon="-2.1188700000000003">
        <time>2021-06-19T14:42:11+0000</time>
      </trkpt>
      <trkpt lat="40.965210000000006" lon="-2.1192200000000003">
        <time>2021-06-19T14:42:12+0000</time>
      </trkpt>
      <trkpt lat="40.96535" lon="-2.1195500000000003">
        <time>2021-06-19T14:42:13+0000</time>
      </trkpt>
      <trkpt lat="40.96548000000001" lon="-2.11987">
        <time>2021-06-19T14:42:14+0000</time>
      </trkpt>
      <trkpt lat="40.96562" lon="-2.12018">
        <time>2021-06-19T14:42:15+0000</time>
      </trkpt>
      <trkpt lat="40.96576" lon="-2.1205000000000003">
        <time>2021-06-19T14:42:16+0000</time>
      </trkpt>
      <trkpt lat="40.965900000000005" lon="-2.12082">
        <time>2021-06-19T14:42:17+0000</time>
      </trkpt>
      <trkpt lat="40.96604000000001" lon="-2.12114">
        <time>2021-06-19T14:42:18+0000</time>
      </trkpt>
      <trkpt lat="40.96618" lon="-2.1214500000000003">
        <time>2021-06-19T14:42:19+0000</time>
      </trkpt>
      <trkpt lat="40.96631" lon="-2.12175">
        <time>2021-06-19T14:42:20+0000</time>
      </trkpt>
      <trkpt lat="40.966440000000006" lon="-2.12205">
        <time>2021-06-19T14:42:21+0000</time>
      </trkpt>
      <trkpt lat="40.966570000000004" lon="-2.12235">
        <time>2021-06-19T14:42:22+0000</time>
      </trkpt>
      <trkpt lat="40.9667" lon="-2.12265">
        <time>2021-06-19T14:42:23+0000</time>
      </trkpt>
      <trkpt lat="40.96683" lon="-2.1229500000000003">
        <time>2021-06-19T14:42:24+0000</time>
      </trkpt>
      <trkpt lat="40.96696" lon="-2.12325">
        <time>2021-06-19T14:42:25+0000</time>
      </trkpt>
      <trkpt lat="40.9671" lon="-2.1235500000000003">
        <time>2021-06-19T14:42:26+0000</time>
      </trkpt>
      <trkpt lat="40.96723" lon="-2.12385">
        <time>2021-06-19T14:42:27+0000</time>
      </trkpt>
      <trkpt lat="40.967360000000006" lon="-2.1241600000000003">
        <time>2021-06-19T14:42:28+0000</time>
      </trkpt>
      <trkpt lat="40.967490000000005" lon="-2.12446">
        <time>2021-06-19T14:42:29+0000</time>
      </trkpt>
      <trkpt lat="40.967620000000004" lon="-2.1247700000000003">
        <time>2021-06-19T14:42:30+0000</time>
      </trkpt>
      <trkpt lat="40.967760000000006" lon="-2.12507">
        <time>2021-06-19T14:42:31+0000</time>
      </trkpt>
      <trkpt lat="40.967890000000004" lon="-2.12536">
        <time>2021-06-19T14:42:32+0000</time>
      </trkpt>
      <trkpt lat="40.96801000000001" lon="-2.12562">
        <time>2021-06-19T14:42:33+0000</time>
      </trkpt>
      <trkpt lat="40.968120000000006" lon="-2.1258700000000004">
        <time>2021-06-19T14:42:34+0000</time>
      </trkpt>
      <trkpt lat="40.96822" lon="-2.12609">
        <time>2021-06-19T14:42:35+0000</time>
      </trkpt>
      <trkpt lat="40.96831" lon="-2.12629">
        <time>2021-06-19T14:42:36+0000</time>
      </trkpt>
      <trkpt lat="40.96839000000001" lon="-2.12649">
        <time>2021-06-19T14:42:37+0000</time>
      </trkpt>
      <trkpt lat="40.96847" lon="-2.1266700000000003">
        <time>2021-06-19T14:42:38+0000</time>
      </trkpt>
      <trkpt lat="40.96855" lon="-2.12684">
        <time>2021-06-19T14:42:39+0000</time>
      </trkpt>
      <trkpt lat="40.96862" lon="-2.1270000000000002">
        <time>2021-06-19T14:42:40+0000</time>
      </trkpt>
      <trkpt lat="40.96869" lon="-2.1271600000000004">
        <time>2021-06-19T14:42:41+0000</time>
      </trkpt>
      <trkpt lat="40.96875" lon="-2.12731">
        <time>2021-06-19T14:42:42+0000</time>
      </trkpt>
      <trkpt lat="40.96882" lon="-2.1274800000000003">
        <time>2021-06-19T14:42:43+0000</time>
      </trkpt>
      <trkpt lat="40.96889" lon="-2.12765">
        <time>2021-06-19T14:42:44+0000</time>
      </trkpt>
      <trkpt lat="40.968970000000006" lon="-2.1278300000000003">
        <time>2021-06-19T14:42:45+0000</time>
      </trkpt>
      <trkpt lat="40.96904000000001" lon="-2.1280200000000002">
        <time>2021-06-19T14:42:46+0000</time>
      </trkpt>
      <trkpt lat="40.96911" lon="-2.1282">
        <time>2021-06-19T14:42:47+0000</time>
      </trkpt>
      <trkpt lat="40.96918" lon="-2.1283800000000004">
        <time>2021-06-19T14:42:48+0000</time>
      </trkpt>
      <trkpt lat="40.96925" lon="-2.1285700000000003">
        <time>2021-06-19T14:42:49+0000</time>
      </trkpt>
      <trkpt lat="40.96932" lon="-2.12875">
        <time>2021-06-19T14:42:50+0000</time>
      </trkpt>
      <trkpt lat="40.969390000000004" lon="-2.12893">
        <time>2021-06-19T14:42:51+0000</time>
      </trkpt>
      <trkpt lat="40.96945" lon="-2.1291100000000003">
        <time>2021-06-19T14:42:52+0000</time>
      </trkpt>
      <trkpt lat="40.96951000000001" lon="-2.1293">
        <time>2021-06-19T14:42:53+0000</time>
      </trkpt>
      <trkpt lat="40.96958" lon="-2.12948">
        <time>2021-06-19T14:42:54+0000</time>
      </trkpt>
      <trkpt lat="40.969640000000005" lon="-2.1296700000000004">
        <time>2021-06-19T14:42:55+0000</time>
      </trkpt>
      <trkpt lat="40.969710000000006" lon="-2.1298600000000003">
        <time>2021-06-19T14:42:56+0000</time>
      </trkpt>
      <trkpt lat="40.96978" lon="-2.13004">
        <time>2021-06-19T14:42:57+0000</time>
      </trkpt>
      <trkpt lat="40.969840000000005" lon="-2.13023">
        <time>2021-06-19T14:42:58+0000</time>
      </trkpt>
      <trkpt lat="40.969910000000006" lon="-2.13042">
        <time>2021-06-19T14:42:59+0000</time>
      </trkpt>
      <trkpt lat="40.96998000000001" lon="-2.1306000000000003">
        <time>2021-06-19T14:43:00+0000</time>
      </trkpt>
      <trkpt lat="40.970060000000004" lon="-2.13078">
        <time>2021-06-19T14:43:01+0000</time>
      </trkpt>
      <trkpt lat="40.97014" lon="-2.13097">
        <time>2021-06-19T14:43:02+0000</time>
      </trkpt>
      <trkpt lat="40.970240000000004" lon="-2.1311500000000003">
        <time>2021-06-19T14:43:03+0000</time>
      </trkpt>
      <trkpt lat="40.97034" lon="-2.13133">
        <time>2021-06-19T14:43:04+0000</time>
      </trkpt>
      <trkpt lat="40.97045000000001" lon="-2.1314900000000003">
        <time>2021-06-19T14:43:05+0000</time>
      </trkpt>
      <trkpt lat="40.97057" lon="-2.13166">
        <time>2021-06-19T14:43:06+0000</time>
      </trkpt>
      <trkpt lat="40.97068" lon="-2.1318200000000003">
        <time>2021-06-19T14:43:07+0000</time>
      </trkpt>
      <trkpt lat="40.970800000000004" lon="-2.13199">
        <time>2021-06-19T14:43:08+0000</time>
      </trkpt>
      <trkpt lat="40.97092000000001" lon="-2.13215">
        <time>2021-06-19T14:43:09+0000</time>
      </trkpt>
      <trkpt lat="40.971050000000005" lon="-2.13232">
        <time>2021-06-19T14:43:10+0000</time>
      </trkpt>
      <trkpt lat="40.97119" lon="-2.13248">
        <time>2021-06-19T14:43:11+0000</time>
      </trkpt>
      <trkpt lat="40.971340000000005" lon="-2.1326400000000003">
        <time>2021-06-19T14:43:12+0000</time>
      </trkpt>
      <trkpt lat="40.971500000000006" lon="-2.1327700000000003">
        <time>2021-06-19T14:43:13+0000</time>
      </trkpt>
      <trkpt lat="40.97167" lon="-2.13289">
        <time>2021-06-19T14:43:14+0000</time>
      </trkpt>
      <trkpt lat="40.97185" lon="-2.1329800000000003">
        <time>2021-06-19T14:43:15+0000</time>
      </trkpt>
      <trkpt lat="40.97204000000001" lon="-2.1330500000000003">
        <time>2021-06-19T14:43:16+0000</time>
      </trkpt>
      <trkpt lat="40.97225" lon="-2.1331200000000003">
        <time>2021-06-19T14:43:17+0000</time>
      </trkpt>
      <trkpt lat="40.972480000000004" lon="-2.13314">
        <time>2021-06-19T14:43:18+0000</time>
      </trkpt>
      <trkpt lat="40.972710000000006" lon="-2.13315">
        <time>2021-06-19T14:43:19+0000</time>
      </trkpt>
      <trkpt lat="40.97294" lon="-2.13313">
        <time>2021-06-19T14:43:20+0000</time>
      </trkpt>
      <trkpt lat="40.97316" lon="-2.13307">
        <time>2021-06-19T14:43:21+0000</time>
      </trkpt>
      <trkpt lat="40.973380000000006" lon="-2.1329800000000003">
        <time>2021-06-19T14:43:22+0000</time>
      </trkpt>
      <trkpt lat="40.973600000000005" lon="-2.13287">
        <time>2021-06-19T14:43:23+0000</time>
      </trkpt>
      <trkpt lat="40.97381" lon="-2.1327200000000004">
        <time>2021-06-19T14:43:24+0000</time>
      </trkpt>
      <trkpt lat="40.974000000000004" lon="-2.13252">
        <time>2021-06-19T14:43:25+0000</time>
      </trkpt>
      <trkpt lat="40.97421000000001" lon="-2.13228">
        <time>2021-06-19T14:43:26+0000</time>
      </trkpt>
      <trkpt lat="40.974430000000005" lon="-2.1320200000000002">
        <time>2021-06-19T14:43:27+0000</time>
      </trkpt>
      <trkpt lat="40.97467" lon="-2.1317600000000003">
        <time>2021-06-19T14:43:28+0000</time>
      </trkpt>
      <trkpt lat="40.97489" lon="-2.13151">
        <time>2021-06-19T14:43:29+0000</time>
      </trkpt>
      <trkpt lat="40.97511" lon="-2.1312900000000004">
        <time>2021-06-19T14:43:30+0000</time>
      </trkpt>
      <trkpt lat="40.97531" lon="-2.1310700000000002">
        <time>2021-06-19T14:43:31+0000</time>
      </trkpt>
      <trkpt lat="40.97554" lon="-2.1308900000000004">
        <time>2021-06-19T14:43:32+0000</time>
      </trkpt>
      <trkpt lat="40.975770000000004" lon="-2.1307">
        <time>2021-06-19T14:43:33+0000</time>
      </trkpt>
      <trkpt lat="40.976020000000005" lon="-2.1305300000000003">
        <time>2021-06-19T14:43:34+0000</time>
      </trkpt>
      <trkpt lat="40.97627000000001" lon="-2.13037">
        <time>2021-06-19T14:43:35+0000</time>
      </trkpt>
      <trkpt lat="40.97654" lon="-2.13022">
        <time>2021-06-19T14:43:36+0000</time>
      </trkpt>
      <trkpt lat="40.97681" lon="-2.13008">
        <time>2021-06-19T14:43:37+0000</time>
      </trkpt>
      <trkpt lat="40.97706" lon="-2.12995">
        <time>2021-06-19T14:43:38+0000</time>
      </trkpt>
      <trkpt lat="40.97730000000001" lon="-2.12984">
        <time>2021-06-19T14:43:39+0000</time>
      </trkpt>
      <trkpt lat="40.97751" lon="-2.12975">
        <time>2021-06-19T14:43:40+0000</time>
      </trkpt>
      <trkpt lat="40.97771" lon="-2.12968">
        <time>2021-06-19T14:43:41+0000</time>
      </trkpt>
      <trkpt lat="40.977900000000005" lon="-2.12964">
        <time>2021-06-19T14:43:42+0000</time>
      </trkpt>
      <trkpt lat="40.978100000000005" lon="-2.12963">
        <time>2021-06-19T14:43:43+0000</time>
      </trkpt>
      <trkpt lat="40.978320000000004" lon="-2.1296500000000003">
        <time>2021-06-19T14:43:44+0000</time>
      </trkpt>
      <trkpt lat="40.978570000000005" lon="-2.1297">
        <time>2021-06-19T14:43:45+0000</time>
      </trkpt>
      <trkpt lat="40.97881" lon="-2.1297800000000002">
        <time>2021-06-19T14:43:46+0000</time>
      </trkpt>
      <trkpt lat="40.979060000000004" lon="-2.1298600000000003">
        <time>2021-06-19T14:43:47+0000</time>
      </trkpt>
      <trkpt lat="40.979310000000005" lon="-2.12995">
        <time>2021-06-19T14:43:48+0000</time>
      </trkpt>
      <trkpt lat="40.97955" lon="-2.13002">
        <time>2021-06-19T14:43:49+0000</time>
      </trkpt>
      <trkpt lat="40.979780000000005" lon="-2.1301">
        <time>2021-06-19T14:43:50+0000</time>
      </trkpt>
      <trkpt lat="40.980000000000004" lon="-2.13017">
        <time>2021-06-19T14:43:51+0000</time>
      </trkpt>
      <trkpt lat="40.9802" lon="-2.13023">
        <time>2021-06-19T14:43:52+0000</time>
      </trkpt>
      <trkpt lat="40.980380000000004" lon="-2.1303">
        <time>2021-06-19T14:43:53+0000</time>
      </trkpt>
      <trkpt lat="40.980560000000004" lon="-2.13038">
        <time>2021-06-19T14:43:54+0000</time>
      </trkpt>
      <trkpt lat="40.98073" lon="-2.1304800000000004">
        <time>2021-06-19T14:43:55+0000</time>
      </trkpt>
      <trkpt lat="40.980900000000005" lon="-2.1306100000000003">
        <time>2021-06-19T14:43:56+0000</time>
      </trkpt>
      <trkpt lat="40.98107" lon="-2.13078">
        <time>2021-06-19T14:43:57+0000</time>
      </trkpt>
      <trkpt lat="40.98124000000001" lon="-2.13097">
        <time>2021-06-19T14:43:58+0000</time>
      </trkpt>
      <trkpt lat="40.981390000000005" lon="-2.1312">
        <time>2021-06-19T14:43:59+0000</time>
      </trkpt>
      <trkpt lat="40.98153000000001" lon="-2.13147">
        <time>2021-06-19T14:44:00+0000</time>
      </trkpt>
      <trkpt lat="40.981660000000005" lon="-2.1317500000000003">
        <time>2021-06-19T14:44:01+0000</time>
      </trkpt>
      <trkpt lat="40.981790000000004" lon="-2.1320300000000003">
        <time>2021-06-19T14:44:02+0000</time>
      </trkpt>
      <trkpt lat="40.98194" lon="-2.1323100000000004">
        <time>2021-06-19T14:44:03+0000</time>
      </trkpt>
      <trkpt lat="40.982110000000006" lon="-2.13259">
        <time>2021-06-19T14:44:04+0000</time>
      </trkpt>
      <trkpt lat="40.9823" lon="-2.13286">
        <time>2021-06-19T14:44:05+0000</time>
      </trkpt>
      <trkpt lat="40.982510000000005" lon="-2.13313">
        <time>2021-06-19T14:44:06+0000</time>
      </trkpt>
      <trkpt lat="40.98272" lon="-2.1333900000000003">
        <time>2021-06-19T14:44:07+0000</time>
      </trkpt>
      <trkpt lat="40.982940000000006" lon="-2.1336500000000003">
        <time>2021-06-19T14:44:08+0000</time>
      </trkpt>
      <trkpt lat="40.983140000000006" lon="-2.13391">
        <time>2021-06-19T14:44:09+0000</time>
      </trkpt>
      <trkpt lat="40.98335" lon="-2.13417">
        <time>2021-06-19T14:44:10+0000</time>
      </trkpt>
      <trkpt lat="40.983560000000004" lon="-2.13443">
        <time>2021-06-19T14:44:11+0000</time>
      </trkpt>
      <trkpt lat="40.98377" lon="-2.13469">
        <time>2021-06-19T14:44:12+0000</time>
      </trkpt>
      <trkpt lat="40.98397000000001" lon="-2.1349400000000003">
        <time>2021-06-19T14:44:13+0000</time>
      </trkpt>
      <trkpt lat="40.984170000000006" lon="-2.13519">
        <time>2021-06-19T14:44:14+0000</time>
      </trkpt>
      <trkpt lat="40.984370000000006" lon="-2.13544">
        <time>2021-06-19T14:44:15+0000</time>
      </trkpt>
      <trkpt lat="40.984570000000005" lon="-2.1356800000000002">
        <time>2021-06-19T14:44:16+0000</time>
      </trkpt>
      <trkpt lat="40.98476" lon="-2.13592">
        <time>2021-06-19T14:44:17+0000</time>
      </trkpt>
      <trkpt lat="40.984950000000005" lon="-2.1361600000000003">
        <time>2021-06-19T14:44:18+0000</time>
      </trkpt>
      <trkpt lat="40.98514" lon="-2.13639">
        <time>2021-06-19T14:44:19+0000</time>
      </trkpt>
      <trkpt lat="40.98532" lon="-2.13661">
        <time>2021-06-19T14:44:20+0000</time>
      </trkpt>
      <trkpt lat="40.9855" lon="-2.1368500000000004">
        <time>2021-06-19T14:44:21+0000</time>
      </trkpt>
      <trkpt lat="40.985690000000005" lon="-2.13709">
        <time>2021-06-19T14:44:22+0000</time>
      </trkpt>
      <trkpt lat="40.98588" lon="-2.13734">
        <time>2021-06-19T14:44:23+0000</time>
      </trkpt>
      <trkpt lat="40.98606" lon="-2.1376000000000004">
        <time>2021-06-19T14:44:24+0000</time>
      </trkpt>
      <trkpt lat="40.98624" lon="-2.1378700000000004">
        <time>2021-06-19T14:44:25+0000</time>
      </trkpt>
      <trkpt lat="40.9864" lon="-2.1381300000000003">
        <time>2021-06-19T14:44:26+0000</time>
      </trkpt>
      <trkpt lat="40.986560000000004" lon="-2.1384000000000003">
        <time>2021-06-19T14:44:27+0000</time>
      </trkpt>
      <trkpt lat="40.98671" lon="-2.13869">
        <time>2021-06-19T14:44:28+0000</time>
      </trkpt>
      <trkpt lat="40.986850000000004" lon="-2.13898">
        <time>2021-06-19T14:44:29+0000</time>
      </trkpt>
      <trkpt lat="40.986990000000006" lon="-2.1392900000000004">
        <time>2021-06-19T14:44:30+0000</time>
      </trkpt>
      <trkpt lat="40.98713" lon="-2.13959">
        <time>2021-06-19T14:44:31+0000</time>
      </trkpt>
      <trkpt lat="40.987260000000006" lon="-2.1398800000000002">
        <time>2021-06-19T14:44:32+0000</time>
      </trkpt>
      <trkpt lat="40.987390000000005" lon="-2.1401700000000003">
        <time>2021-06-19T14:44:33+0000</time>
      </trkpt>
      <trkpt lat="40.98752" lon="-2.14045">
        <time>2021-06-19T14:44:34+0000</time>
      </trkpt>
      <trkpt lat="40.98765" lon="-2.14073">
        <time>2021-06-19T14:44:35+0000</time>
      </trkpt>
      <trkpt lat="40.98778" lon="-2.14102">
        <time>2021-06-19T14:44:36+0000</time>
      </trkpt>
      <trkpt lat="40.987930000000006" lon="-2.1413">
        <time>2021-06-19T14:44:37+0000</time>
      </trkpt>
      <trkpt lat="40.98807" lon="-2.14157">
        <time>2021-06-19T14:44:38+0000</time>
      </trkpt>
      <trkpt lat="40.98823" lon="-2.1418500000000003">
        <time>2021-06-19T14:44:39+0000</time>
      </trkpt>
      <trkpt lat="40.98839" lon="-2.14211">
        <time>2021-06-19T14:44:40+0000</time>
      </trkpt>
      <trkpt lat="40.988550000000004" lon="-2.14236">
        <time>2021-06-19T14:44:41+0000</time>
      </trkpt>
      <trkpt lat="40.98872" lon="-2.14259">
        <time>2021-06-19T14:44:42+0000</time>
      </trkpt>
      <trkpt lat="40.988890000000005" lon="-2.1428200000000004">
        <time>2021-06-19T14:44:43+0000</time>
      </trkpt>
      <trkpt lat="40.98906" lon="-2.14304">
        <time>2021-06-19T14:44:44+0000</time>
      </trkpt>
      <trkpt lat="40.98924" lon="-2.14325">
        <time>2021-06-19T14:44:45+0000</time>
      </trkpt>
      <trkpt lat="40.98942" lon="-2.14346">
        <time>2021-06-19T14:44:46+0000</time>
      </trkpt>
      <trkpt lat="40.98959000000001" lon="-2.14367">
        <time>2021-06-19T14:44:47+0000</time>
      </trkpt>
      <trkpt lat="40.98977" lon="-2.14387">
        <time>2021-06-19T14:44:48+0000</time>
      </trkpt>
      <trkpt lat="40.98996" lon="-2.14408">
        <time>2021-06-19T14:44:49+0000</time>
      </trkpt>
      <trkpt lat="40.99015" lon="-2.1443000000000003">
        <time>2021-06-19T14:44:50+0000</time>
      </trkpt>
      <trkpt lat="40.99035000000001" lon="-2.14452">
        <time>2021-06-19T14:44:51+0000</time>
      </trkpt>
      <trkpt lat="40.99054" lon="-2.14475">
        <time>2021-06-19T14:44:52+0000</time>
      </trkpt>
      <trkpt lat="40.99074" lon="-2.1449700000000003">
        <time>2021-06-19T14:44:53+0000</time>
      </trkpt>
      <trkpt lat="40.990930000000006" lon="-2.1451800000000003">
        <time>2021-06-19T14:44:54+0000</time>
      </trkpt>
      <trkpt lat="40.991110000000006" lon="-2.1453900000000004">
        <time>2021-06-19T14:44:55+0000</time>
      </trkpt>
      <trkpt lat="40.991290000000006" lon="-2.1456000000000004">
        <time>2021-06-19T14:44:56+0000</time>
      </trkpt>
      <trkpt lat="40.991460000000004" lon="-2.1458000000000004">
        <time>2021-06-19T14:44:57+0000</time>
      </trkpt>
      <trkpt lat="40.99163" lon="-2.1460000000000004">
        <time>2021-06-19T14:44:58+0000</time>
      </trkpt>
      <trkpt lat="40.991800000000005" lon="-2.1462000000000003">
        <time>2021-06-19T14:44:59+0000</time>
      </trkpt>
      <trkpt lat="40.99197" lon="-2.1464000000000003">
        <time>2021-06-19T14:45:00+0000</time>
      </trkpt>
      <trkpt lat="40.99215" lon="-2.1466100000000004">
        <time>2021-06-19T14:45:01+0000</time>
      </trkpt>
      <trkpt lat="40.99233" lon="-2.1468200000000004">
        <time>2021-06-19T14:45:02+0000</time>
      </trkpt>
      <trkpt lat="40.99250000000001" lon="-2.1470200000000004">
        <time>2021-06-19T14:45:03+0000</time>
      </trkpt>
      <trkpt lat="40.992670000000004" lon="-2.14723">
        <time>2021-06-19T14:45:04+0000</time>
      </trkpt>
      <trkpt lat="40.992830000000005" lon="-2.14744">
        <time>2021-06-19T14:45:05+0000</time>
      </trkpt>
      <trkpt lat="40.992990000000006" lon="-2.14765">
        <time>2021-06-19T14:45:06+0000</time>
      </trkpt>
      <trkpt lat="40.99315" lon="-2.1478800000000002">
        <time>2021-06-19T14:45:07+0000</time>
      </trkpt>
      <trkpt lat="40.993320000000004" lon="-2.14812">
        <time>2021-06-19T14:45:08+0000</time>
      </trkpt>
      <trkpt lat="40.99349" lon="-2.1483700000000003">
        <time>2021-06-19T14:45:09+0000</time>
      </trkpt>
      <trkpt lat="40.993660000000006" lon="-2.1486500000000004">
        <time>2021-06-19T14:45:10+0000</time>
      </trkpt>
      <trkpt lat="40.993840000000006" lon="-2.14893">
        <time>2021-06-19T14:45:11+0000</time>
      </trkpt>
      <trkpt lat="40.99401" lon="-2.1492">
        <time>2021-06-19T14:45:12+0000</time>
      </trkpt>
      <trkpt lat="40.994170000000004" lon="-2.14947">
        <time>2021-06-19T14:45:13+0000</time>
      </trkpt>
      <trkpt lat="40.994310000000006" lon="-2.14974">
        <time>2021-06-19T14:45:14+0000</time>
      </trkpt>
      <trkpt lat="40.99445" lon="-2.1500000000000004">
        <time>2021-06-19T14:45:15+0000</time>
      </trkpt>
      <trkpt lat="40.99459" lon="-2.15025">
        <time>2021-06-19T14:45:16+0000</time>
      </trkpt>
      <trkpt lat="40.994710000000005" lon="-2.1505">
        <time>2021-06-19T14:45:17+0000</time>
      </trkpt>
      <trkpt lat="40.994820000000004" lon="-2.15072">
        <time>2021-06-19T14:45:18+0000</time>
      </trkpt>
      <trkpt lat="40.99492" lon="-2.1509300000000002">
        <time>2021-06-19T14:45:19+0000</time>
      </trkpt>
      <trkpt lat="40.99501" lon="-2.15112">
        <time>2021-06-19T14:45:20+0000</time>
      </trkpt>
      <trkpt lat="40.99508" lon="-2.1513">
        <time>2021-06-19T14:45:21+0000</time>
      </trkpt>
      <trkpt lat="40.995160000000006" lon="-2.15146">
        <time>2021-06-19T14:45:22+0000</time>
      </trkpt>
      <trkpt lat="40.99523000000001" lon="-2.1516200000000003">
        <time>2021-06-19T14:45:23+0000</time>
      </trkpt>
      <trkpt lat="40.995290000000004" lon="-2.1517600000000003">
        <time>2021-06-19T14:45:24+0000</time>
      </trkpt>
      <trkpt lat="40.995360000000005" lon="-2.1518900000000003">
        <time>2021-06-19T14:45:25+0000</time>
      </trkpt>
      <trkpt lat="40.99541000000001" lon="-2.152">
        <time>2021-06-19T14:45:26+0000</time>
      </trkpt>
      <trkpt lat="40.99546" lon="-2.1520900000000003">
        <time>2021-06-19T14:45:27+0000</time>
      </trkpt>
      <trkpt lat="40.99551" lon="-2.15218">
        <time>2021-06-19T14:45:28+0000</time>
      </trkpt>
      <trkpt lat="40.99555" lon="-2.15226">
        <time>2021-06-19T14:45:29+0000</time>
      </trkpt>
      <trkpt lat="40.995580000000004" lon="-2.15233">
        <time>2021-06-19T14:45:30+0000</time>
      </trkpt>
      <trkpt lat="40.995610000000006" lon="-2.15239">
        <time>2021-06-19T14:45:31+0000</time>
      </trkpt>
      <trkpt lat="40.995630000000006" lon="-2.15245">
        <time>2021-06-19T14:45:32+0000</time>
      </trkpt>
      <trkpt lat="40.995560000000005" lon="-2.15253">
        <time>2021-06-19T14:45:33+0000</time>
      </trkpt>
      <trkpt lat="40.99555" lon="-2.15261">
        <time>2021-06-19T14:45:34+0000</time>
      </trkpt>
      <trkpt lat="40.99553" lon="-2.1527100000000003">
        <time>2021-06-19T14:45:35+0000</time>
      </trkpt>
      <trkpt lat="40.99555" lon="-2.15282">
        <time>2021-06-19T14:45:36+0000</time>
      </trkpt>
      <trkpt lat="40.995610000000006" lon="-2.1529200000000004">
        <time>2021-06-19T14:45:37+0000</time>
      </trkpt>
      <trkpt lat="40.99569" lon="-2.15299">
        <time>2021-06-19T14:45:38+0000</time>
      </trkpt>
      <trkpt lat="40.99578" lon="-2.15309">
        <time>2021-06-19T14:45:39+0000</time>
      </trkpt>
      <trkpt lat="40.995870000000004" lon="-2.1532">
        <time>2021-06-19T14:45:40+0000</time>
      </trkpt>
      <trkpt lat="40.995940000000004" lon="-2.1533100000000003">
        <time>2021-06-19T14:45:41+0000</time>
      </trkpt>
      <trkpt lat="40.996010000000005" lon="-2.15342">
        <time>2021-06-19T14:45:42+0000</time>
      </trkpt>
      <trkpt lat="40.99607" lon="-2.1535300000000004">
        <time>2021-06-19T14:45:43+0000</time>
      </trkpt>
      <trkpt lat="40.99613" lon="-2.15364">
        <time>2021-06-19T14:45:44+0000</time>
      </trkpt>
      <trkpt lat="40.996210000000005" lon="-2.15375">
        <time>2021-06-19T14:45:45+0000</time>
      </trkpt>
      <trkpt lat="40.99629" lon="-2.1538700000000004">
        <time>2021-06-19T14:45:46+0000</time>
      </trkpt>
      <trkpt lat="40.996370000000006" lon="-2.1540000000000004">
        <time>2021-06-19T14:45:47+0000</time>
      </trkpt>
      <trkpt lat="40.99647" lon="-2.15415">
        <time>2021-06-19T14:45:48+0000</time>
      </trkpt>
      <trkpt lat="40.996570000000006" lon="-2.15431">
        <time>2021-06-19T14:45:49+0000</time>
      </trkpt>
      <trkpt lat="40.99667" lon="-2.1544600000000003">
        <time>2021-06-19T14:45:50+0000</time>
      </trkpt>
      <trkpt lat="40.996770000000005" lon="-2.1546000000000003">
        <time>2021-06-19T14:45:51+0000</time>
      </trkpt>
      <trkpt lat="40.99687" lon="-2.15476">
        <time>2021-06-19T14:45:52+0000</time>
      </trkpt>
      <trkpt lat="40.996990000000004" lon="-2.1549400000000003">
        <time>2021-06-19T14:45:53+0000</time>
      </trkpt>
      <trkpt lat="40.997130000000006" lon="-2.15512">
        <time>2021-06-19T14:45:54+0000</time>
      </trkpt>
      <trkpt lat="40.99728" lon="-2.15531">
        <time>2021-06-19T14:45:55+0000</time>
      </trkpt>
      <trkpt lat="40.997420000000005" lon="-2.1554900000000004">
        <time>2021-06-19T14:45:56+0000</time>
      </trkpt>
      <trkpt lat="40.99756" lon="-2.15566">
        <time>2021-06-19T14:45:57+0000</time>
      </trkpt>
      <trkpt lat="40.9977" lon="-2.1558200000000003">
        <time>2021-06-19T14:45:58+0000</time>
      </trkpt>
      <trkpt lat="40.99783" lon="-2.1559600000000003">
        <time>2021-06-19T14:45:59+0000</time>
      </trkpt>
      <trkpt lat="40.99795" lon="-2.1561000000000003">
        <time>2021-06-19T14:46:00+0000</time>
      </trkpt>
      <trkpt lat="40.99806" lon="-2.1562400000000004">
        <time>2021-06-19T14:46:01+0000</time>
      </trkpt>
      <trkpt lat="40.998180000000005" lon="-2.15638">
        <time>2021-06-19T14:46:02+0000</time>
      </trkpt>
      <trkpt lat="40.99828" lon="-2.15653">
        <time>2021-06-19T14:46:03+0000</time>
      </trkpt>
      <trkpt lat="40.99839" lon="-2.15669">
        <time>2021-06-19T14:46:04+0000</time>
      </trkpt>
      <trkpt lat="40.99851" lon="-2.1568500000000004">
        <time>2021-06-19T14:46:05+0000</time>
      </trkpt>
      <trkpt lat="40.998630000000006" lon="-2.1570300000000002">
        <time>2021-06-19T14:46:06+0000</time>
      </trkpt>
      <trkpt lat="40.998760000000004" lon="-2.15723">
        <time>2021-06-19T14:46:07+0000</time>
      </trkpt>
      <trkpt lat="40.99889" lon="-2.15741">
        <time>2021-06-19T14:46:08+0000</time>
      </trkpt>
      <trkpt lat="40.999010000000006" lon="-2.1575800000000003">
        <time>2021-06-19T14:46:09+0000</time>
      </trkpt>
      <trkpt lat="40.999120000000005" lon="-2.15774">
        <time>2021-06-19T14:46:10+0000</time>
      </trkpt>
      <trkpt lat="40.99922" lon="-2.1578600000000003">
        <time>2021-06-19T14:46:11+0000</time>
      </trkpt>
      <trkpt lat="40.99931" lon="-2.15796">
        <time>2021-06-19T14:46:12+0000</time>
      </trkpt>
      <trkpt lat="40.999390000000005" lon="-2.1580600000000003">
        <time>2021-06-19T14:46:13+0000</time>
      </trkpt>
      <trkpt lat="40.999480000000005" lon="-2.15815">
        <time>2021-06-19T14:46:14+0000</time>
      </trkpt>
      <trkpt lat="40.999550000000006" lon="-2.1582500000000002">
        <time>2021-06-19T14:46:15+0000</time>
      </trkpt>
      <trkpt lat="40.99962" lon="-2.15836">
        <time>2021-06-19T14:46:16+0000</time>
      </trkpt>
      <trkpt lat="40.99969" lon="-2.1584600000000003">
        <time>2021-06-19T14:46:17+0000</time>
      </trkpt>
      <trkpt lat="40.999770000000005" lon="-2.15857">
        <time>2021-06-19T14:46:18+0000</time>
      </trkpt>
      <trkpt lat="40.999840000000006" lon="-2.1586700000000003">
        <time>2021-06-19T14:46:19+0000</time>
      </trkpt>
      <trkpt lat="40.99992" lon="-2.15878">
        <time>2021-06-19T14:46:20+0000</time>
      </trkpt>
      <trkpt lat="40.999990000000004" lon="-2.15889">
        <time>2021-06-19T14:46:21+0000</time>
      </trkpt>
      <trkpt lat="41.000060000000005" lon="-2.1590100000000003">
        <time>2021-06-19T14:46:22+0000</time>
      </trkpt>
      <trkpt lat="41.000130000000006" lon="-2.15912">
        <time>2021-06-19T14:46:23+0000</time>
      </trkpt>
      <trkpt lat="41.00020000000001" lon="-2.15924">
        <time>2021-06-19T14:46:24+0000</time>
      </trkpt>
      <trkpt lat="41.00027" lon="-2.1593600000000004">
        <time>2021-06-19T14:46:25+0000</time>
      </trkpt>
      <trkpt lat="41.00034" lon="-2.1594700000000002">
        <time>2021-06-19T14:46:26+0000</time>
      </trkpt>
      <trkpt lat="41.00041" lon="-2.15958">
        <time>2021-06-19T14:46:27+0000</time>
      </trkpt>
      <trkpt lat="41.000490000000006" lon="-2.1596900000000003">
        <time>2021-06-19T14:46:28+0000</time>
      </trkpt>
      <trkpt lat="41.000550000000004" lon="-2.15978">
        <time>2021-06-19T14:46:29+0000</time>
      </trkpt>
      <trkpt lat="41.000600000000006" lon="-2.1598800000000002">
        <time>2021-06-19T14:46:30+0000</time>
      </trkpt>
      <trkpt lat="41.000640000000004" lon="-2.15999">
        <time>2021-06-19T14:46:31+0000</time>
      </trkpt>
      <trkpt lat="41.00065" lon="-2.16013">
        <time>2021-06-19T14:46:32+0000</time>
      </trkpt>
      <trkpt lat="41.00068" lon="-2.1602900000000003">
        <time>2021-06-19T14:46:33+0000</time>
      </trkpt>
      <trkpt lat="41.00072" lon="-2.1604300000000003">
        <time>2021-06-19T14:46:34+0000</time>
      </trkpt>
      <trkpt lat="41.00074" lon="-2.1605800000000004">
        <time>2021-06-19T14:46:35+0000</time>
      </trkpt>
      <trkpt lat="41.00076000000001" lon="-2.1607100000000004">
        <time>2021-06-19T14:46:36+0000</time>
      </trkpt>
      <trkpt lat="41.00074" lon="-2.1608300000000003">
        <time>2021-06-19T14:46:37+0000</time>
      </trkpt>
      <trkpt lat="41.0007" lon="-2.1609200000000004">
        <time>2021-06-19T14:46:38+0000</time>
      </trkpt>
      <trkpt lat="41.00063" lon="-2.16099">
        <time>2021-06-19T14:46:39+0000</time>
      </trkpt>
      <trkpt lat="41.00054" lon="-2.16106">
        <time>2021-06-19T14:46:40+0000</time>
      </trkpt>
      <trkpt lat="41.00045" lon="-2.16114">
        <time>2021-06-19T14:46:41+0000</time>
      </trkpt>
      <trkpt lat="41.00034" lon="-2.16122">
        <time>2021-06-19T14:46:42+0000</time>
      </trkpt>
      <trkpt lat="41.00025" lon="-2.1613100000000003">
        <time>2021-06-19T14:46:43+0000</time>
      </trkpt>
      <trkpt lat="41.00018" lon="-2.16141">
        <time>2021-06-19T14:46:44+0000</time>
      </trkpt>
      <trkpt lat="41.0001" lon="-2.1615200000000003">
        <time>2021-06-19T14:46:45+0000</time>
      </trkpt>
      <trkpt lat="41.000040000000006" lon="-2.16169">
        <time>2021-06-19T14:46:46+0000</time>
      </trkpt>
      <trkpt lat="41.0" lon="-2.1619">
        <time>2021-06-19T14:46:47+0000</time>
      </trkpt>
      <trkpt lat="40.99994" lon="-2.1621200000000003">
        <time>2021-06-19T14:46:48+0000</time>
      </trkpt>
      <trkpt lat="40.99992" lon="-2.1623400000000004">
        <time>2021-06-19T14:46:49+0000</time>
      </trkpt>
      <trkpt lat="40.99991" lon="-2.16257">
        <time>2021-06-19T14:46:50+0000</time>
      </trkpt>
      <trkpt lat="40.99989" lon="-2.16277">
        <time>2021-06-19T14:46:51+0000</time>
      </trkpt>
      <trkpt lat="40.999860000000005" lon="-2.1629500000000004">
        <time>2021-06-19T14:46:52+0000</time>
      </trkpt>
      <trkpt lat="40.9998" lon="-2.1631">
        <time>2021-06-19T14:46:53+0000</time>
      </trkpt>
      <trkpt lat="40.99971" lon="-2.16324">
        <time>2021-06-19T14:46:54+0000</time>
      </trkpt>
      <trkpt lat="40.99958" lon="-2.1633600000000004">
        <time>2021-06-19T14:46:55+0000</time>
      </trkpt>
      <trkpt lat="40.99944" lon="-2.1634900000000004">
        <time>2021-06-19T14:46:56+0000</time>
      </trkpt>
      <trkpt lat="40.999300000000005" lon="-2.1636200000000003">
        <time>2021-06-19T14:46:57+0000</time>
      </trkpt>
      <trkpt lat="40.99916" lon="-2.16378">
        <time>2021-06-19T14:46:58+0000</time>
      </trkpt>
      <trkpt lat="40.999010000000006" lon="-2.16394">
        <time>2021-06-19T14:46:59+0000</time>
      </trkpt>
      <trkpt lat="40.99886" lon="-2.1641000000000004">
        <time>2021-06-19T14:47:00+0000</time>
      </trkpt>
      <trkpt lat="40.998720000000006" lon="-2.16432">
        <time>2021-06-19T14:47:01+0000</time>
      </trkpt>
      <trkpt lat="40.99857" lon="-2.1645600000000003">
        <time>2021-06-19T14:47:02+0000</time>
      </trkpt>
      <trkpt lat="40.998450000000005" lon="-2.1648300000000003">
        <time>2021-06-19T14:47:03+0000</time>
      </trkpt>
      <trkpt lat="40.998340000000006" lon="-2.1651100000000003">
        <time>2021-06-19T14:47:04+0000</time>
      </trkpt>
      <trkpt lat="40.99824" lon="-2.1654">
        <time>2021-06-19T14:47:05+0000</time>
      </trkpt>
      <trkpt lat="40.99817" lon="-2.1657300000000004">
        <time>2021-06-19T14:47:06+0000</time>
      </trkpt>
      <trkpt lat="40.998110000000004" lon="-2.1660700000000004">
        <time>2021-06-19T14:47:07+0000</time>
      </trkpt>
      <trkpt lat="40.998070000000006" lon="-2.16642">
        <time>2021-06-19T14:47:08+0000</time>
      </trkpt>
      <trkpt lat="40.99804" lon="-2.16677">
        <time>2021-06-19T14:47:09+0000</time>
      </trkpt>
      <trkpt lat="40.99801" lon="-2.1670800000000003">
        <time>2021-06-19T14:47:10+0000</time>
      </trkpt>
      <trkpt lat="40.997980000000005" lon="-2.16739">
        <time>2021-06-19T14:47:11+0000</time>
      </trkpt>
      <trkpt lat="40.997930000000004" lon="-2.16771">
        <time>2021-06-19T14:47:12+0000</time>
      </trkpt>
      <trkpt lat="40.997870000000006" lon="-2.1680200000000003">
        <time>2021-06-19T14:47:13+0000</time>
      </trkpt>
      <trkpt lat="40.99779" lon="-2.16833">
        <time>2021-06-19T14:47:14+0000</time>
      </trkpt>
      <trkpt lat="40.9977" lon="-2.1686400000000003">
        <time>2021-06-19T14:47:15+0000</time>
      </trkpt>
      <trkpt lat="40.99759" lon="-2.16896">
        <time>2021-06-19T14:47:16+0000</time>
      </trkpt>
      <trkpt lat="40.997460000000004" lon="-2.16927">
        <time>2021-06-19T14:47:17+0000</time>
      </trkpt>
      <trkpt lat="40.997310000000006" lon="-2.1695800000000003">
        <time>2021-06-19T14:47:18+0000</time>
      </trkpt>
      <trkpt lat="40.99714" lon="-2.16988">
        <time>2021-06-19T14:47:19+0000</time>
      </trkpt>
      <trkpt lat="40.996950000000005" lon="-2.17016">
        <time>2021-06-19T14:47:20+0000</time>
      </trkpt>
      <trkpt lat="40.996750000000006" lon="-2.17042">
        <time>2021-06-19T14:47:21+0000</time>
      </trkpt>
      <trkpt lat="40.99654" lon="-2.1706600000000003">
        <time>2021-06-19T14:47:22+0000</time>
      </trkpt>
      <trkpt lat="40.996320000000004" lon="-2.1708700000000003">
        <time>2021-06-19T14:47:23+0000</time>
      </trkpt>
      <trkpt lat="40.996100000000006" lon="-2.17106">
        <time>2021-06-19T14:47:24+0000</time>
      </trkpt>
      <trkpt lat="40.99588000000001" lon="-2.17123">
        <time>2021-06-19T14:47:25+0000</time>
      </trkpt>
      <trkpt lat="40.995670000000004" lon="-2.1714">
        <time>2021-06-19T14:47:26+0000</time>
      </trkpt>
      <trkpt lat="40.995450000000005" lon="-2.17152">
        <time>2021-06-19T14:47:27+0000</time>
      </trkpt>
      <trkpt lat="40.99524" lon="-2.1716">
        <time>2021-06-19T14:47:28+0000</time>
      </trkpt>
      <trkpt lat="40.99504" lon="-2.1717">
        <time>2021-06-19T14:47:29+0000</time>
      </trkpt>
      <trkpt lat="40.99485000000001" lon="-2.17179">
        <time>2021-06-19T14:47:30+0000</time>
      </trkpt>
      <trkpt lat="40.99468" lon="-2.17193">
        <time>2021-06-19T14:47:31+0000</time>
      </trkpt>
      <trkpt lat="40.99452" lon="-2.17207">
        <time>2021-06-19T14:47:32+0000</time>
      </trkpt>
      <trkpt lat="40.99437" lon="-2.17225">
        <time>2021-06-19T14:47:33+0000</time>
      </trkpt>
      <trkpt lat="40.994240000000005" lon="-2.17247">
        <time>2021-06-19T14:47:34+0000</time>
      </trkpt>
      <trkpt lat="40.994130000000006" lon="-2.17272">
        <time>2021-06-19T14:47:35+0000</time>
      </trkpt>
      <trkpt lat="40.99405" lon="-2.17301">
        <time>2021-06-19T14:47:36+0000</time>
      </trkpt>
      <trkpt lat="40.993970000000004" lon="-2.1733100000000003">
        <time>2021-06-19T14:47:37+0000</time>
      </trkpt>
      <trkpt lat="40.993900000000004" lon="-2.1736">
        <time>2021-06-19T14:47:38+0000</time>
      </trkpt>
      <trkpt lat="40.99381" lon="-2.17388">
        <time>2021-06-19T14:47:39+0000</time>
      </trkpt>
      <trkpt lat="40.993700000000004" lon="-2.17414">
        <time>2021-06-19T14:47:40+0000</time>
      </trkpt>
      <trkpt lat="40.993570000000005" lon="-2.1744000000000003">
        <time>2021-06-19T14:47:41+0000</time>
      </trkpt>
      <trkpt lat="40.993430000000004" lon="-2.17465">
        <time>2021-06-19T14:47:42+0000</time>
      </trkpt>
      <trkpt lat="40.99326000000001" lon="-2.17489">
        <time>2021-06-19T14:47:43+0000</time>
      </trkpt>
      <trkpt lat="40.993080000000006" lon="-2.17512">
        <time>2021-06-19T14:47:44+0000</time>
      </trkpt>
      <trkpt lat="40.992900000000006" lon="-2.1753400000000003">
        <time>2021-06-19T14:47:45+0000</time>
      </trkpt>
      <trkpt lat="40.992720000000006" lon="-2.17557">
        <time>2021-06-19T14:47:46+0000</time>
      </trkpt>
      <trkpt lat="40.9926" lon="-2.17585">
        <time>2021-06-19T14:47:47+0000</time>
      </trkpt>
      <trkpt lat="40.992470000000004" lon="-2.17611">
        <time>2021-06-19T14:47:48+0000</time>
      </trkpt>
      <trkpt lat="40.992360000000005" lon="-2.1763600000000003">
        <time>2021-06-19T14:47:49+0000</time>
      </trkpt>
      <trkpt lat="40.992250000000006" lon="-2.1766">
        <time>2021-06-19T14:47:50+0000</time>
      </trkpt>
      <trkpt lat="40.99213" lon="-2.1768300000000003">
        <time>2021-06-19T14:47:51+0000</time>
      </trkpt>
      <trkpt lat="40.991980000000005" lon="-2.1770300000000002">
        <time>2021-06-19T14:47:52+0000</time>
      </trkpt>
      <trkpt lat="40.99181" lon="-2.1772">
        <time>2021-06-19T14:47:53+0000</time>
      </trkpt>
      <trkpt lat="40.991600000000005" lon="-2.17734">
        <time>2021-06-19T14:47:54+0000</time>
      </trkpt>
      <trkpt lat="40.99139" lon="-2.1774500000000003">
        <time>2021-06-19T14:47:55+0000</time>
      </trkpt>
      <trkpt lat="40.991170000000004" lon="-2.1775100000000003">
        <time>2021-06-19T14:47:56+0000</time>
      </trkpt>
      <trkpt lat="40.990950000000005" lon="-2.1775900000000004">
        <time>2021-06-19T14:47:57+0000</time>
      </trkpt>
      <trkpt lat="40.990730000000006" lon="-2.1777">
        <time>2021-06-19T14:47:58+0000</time>
      </trkpt>
      <trkpt lat="40.99053000000001" lon="-2.1778">
        <time>2021-06-19T14:47:59+0000</time>
      </trkpt>
      <trkpt lat="40.99033" lon="-2.1779">
        <time>2021-06-19T14:48:00+0000</time>
      </trkpt>
      <trkpt lat="40.990140000000004" lon="-2.1780500000000003">
        <time>2021-06-19T14:48:01+0000</time>
      </trkpt>
      <trkpt lat="40.98995" lon="-2.17822">
        <time>2021-06-19T14:48:02+0000</time>
      </trkpt>
      <trkpt lat="40.98977" lon="-2.1784000000000003">
        <time>2021-06-19T14:48:03+0000</time>
      </trkpt>
      <trkpt lat="40.98959000000001" lon="-2.1786100000000004">
        <time>2021-06-19T14:48:04+0000</time>
      </trkpt>
      <trkpt lat="40.98944" lon="-2.1788600000000002">
        <time>2021-06-19T14:48:05+0000</time>
      </trkpt>
      <trkpt lat="40.98928" lon="-2.17912">
        <time>2021-06-19T14:48:06+0000</time>
      </trkpt>
      <trkpt lat="40.98913" lon="-2.1794000000000002">
        <time>2021-06-19T14:48:07+0000</time>
      </trkpt>
      <trkpt lat="40.98899" lon="-2.1797">
        <time>2021-06-19T14:48:08+0000</time>
      </trkpt>
      <trkpt lat="40.98883" lon="-2.18">
        <time>2021-06-19T14:48:09+0000</time>
      </trkpt>
      <trkpt lat="40.988690000000005" lon="-2.1803000000000003">
        <time>2021-06-19T14:48:10+0000</time>
      </trkpt>
      <trkpt lat="40.988550000000004" lon="-2.18061">
        <time>2021-06-19T14:48:11+0000</time>
      </trkpt>
      <trkpt lat="40.98841" lon="-2.1809100000000003">
        <time>2021-06-19T14:48:12+0000</time>
      </trkpt>
      <trkpt lat="40.98828" lon="-2.18121">
        <time>2021-06-19T14:48:13+0000</time>
      </trkpt>
      <trkpt lat="40.988150000000005" lon="-2.1815">
        <time>2021-06-19T14:48:14+0000</time>
      </trkpt>
      <trkpt lat="40.98803" lon="-2.1817800000000003">
        <time>2021-06-19T14:48:15+0000</time>
      </trkpt>
      <trkpt lat="40.98789" lon="-2.1820500000000003">
        <time>2021-06-19T14:48:16+0000</time>
      </trkpt>
      <trkpt lat="40.987750000000005" lon="-2.1823">
        <time>2021-06-19T14:48:17+0000</time>
      </trkpt>
      <trkpt lat="40.987590000000004" lon="-2.1825300000000003">
        <time>2021-06-19T14:48:18+0000</time>
      </trkpt>
      <trkpt lat="40.987410000000004" lon="-2.18276">
        <time>2021-06-19T14:48:19+0000</time>
      </trkpt>
      <trkpt lat="40.987230000000004" lon="-2.18297">
        <time>2021-06-19T14:48:20+0000</time>
      </trkpt>
      <trkpt lat="40.987030000000004" lon="-2.18318">
        <time>2021-06-19T14:48:21+0000</time>
      </trkpt>
      <trkpt lat="40.986810000000006" lon="-2.1833500000000003">
        <time>2021-06-19T14:48:22+0000</time>
      </trkpt>
      <trkpt lat="40.9866" lon="-2.18352">
        <time>2021-06-19T14:48:23+0000</time>
      </trkpt>
      <trkpt lat="40.98637" lon="-2.18366">
        <time>2021-06-19T14:48:24+0000</time>
      </trkpt>
      <trkpt lat="40.98613" lon="-2.18378">
        <time>2021-06-19T14:48:25+0000</time>
      </trkpt>
      <trkpt lat="40.98588" lon="-2.1838800000000003">
        <time>2021-06-19T14:48:26+0000</time>
      </trkpt>
      <trkpt lat="40.98563" lon="-2.1839500000000003">
        <time>2021-06-19T14:48:27+0000</time>
      </trkpt>
      <trkpt lat="40.985380000000006" lon="-2.1840100000000002">
        <time>2021-06-19T14:48:28+0000</time>
      </trkpt>
      <trkpt lat="40.98512" lon="-2.18404">
        <time>2021-06-19T14:48:29+0000</time>
      </trkpt>
      <trkpt lat="40.984880000000004" lon="-2.18406">
        <time>2021-06-19T14:48:30+0000</time>
      </trkpt>
      <trkpt lat="40.98465" lon="-2.1841000000000004">
        <time>2021-06-19T14:48:31+0000</time>
      </trkpt>
      <trkpt lat="40.98443" lon="-2.1841700000000004">
        <time>2021-06-19T14:48:32+0000</time>
      </trkpt>
      <trkpt lat="40.98422" lon="-2.18428">
        <time>2021-06-19T14:48:33+0000</time>
      </trkpt>
      <trkpt lat="40.984030000000004" lon="-2.18445">
        <time>2021-06-19T14:48:34+0000</time>
      </trkpt>
      <trkpt lat="40.98386" lon="-2.18466">
        <time>2021-06-19T14:48:35+0000</time>
      </trkpt>
      <trkpt lat="40.983720000000005" lon="-2.1849000000000003">
        <time>2021-06-19T14:48:36+0000</time>
      </trkpt>
      <trkpt lat="40.98362" lon="-2.18516">
        <time>2021-06-19T14:48:37+0000</time>
      </trkpt>
      <trkpt lat="40.983560000000004" lon="-2.18542">
        <time>2021-06-19T14:48:38+0000</time>
      </trkpt>
      <trkpt lat="40.983520000000006" lon="-2.1857">
        <time>2021-06-19T14:48:39+0000</time>
      </trkpt>
      <trkpt lat="40.98351" lon="-2.1859800000000003">
        <time>2021-06-19T14:48:40+0000</time>
      </trkpt>
      <trkpt lat="40.983540000000005" lon="-2.1862700000000004">
        <time>2021-06-19T14:48:41+0000</time>
      </trkpt>
      <trkpt lat="40.98357" lon="-2.18656">
        <time>2021-06-19T14:48:42+0000</time>
      </trkpt>
      <trkpt lat="40.98359000000001" lon="-2.1868800000000004">
        <time>2021-06-19T14:48:43+0000</time>
      </trkpt>
      <trkpt lat="40.9836" lon="-2.1872000000000003">
        <time>2021-06-19T14:48:44+0000</time>
      </trkpt>
      <trkpt lat="40.98359000000001" lon="-2.18753">
        <time>2021-06-19T14:48:45+0000</time>
      </trkpt>
      <trkpt lat="40.98355" lon="-2.1878900000000003">
        <time>2021-06-19T14:48:46+0000</time>
      </trkpt>
      <trkpt lat="40.98349" lon="-2.18824">
        <time>2021-06-19T14:48:47+0000</time>
      </trkpt>
      <trkpt lat="40.983410000000006" lon="-2.18859">
        <time>2021-06-19T14:48:48+0000</time>
      </trkpt>
      <trkpt lat="40.98331" lon="-2.18893">
        <time>2021-06-19T14:48:49+0000</time>
      </trkpt>
      <trkpt lat="40.98319" lon="-2.1892500000000004">
        <time>2021-06-19T14:48:50+0000</time>
      </trkpt>
      <trkpt lat="40.98304" lon="-2.18955">
        <time>2021-06-19T14:48:51+0000</time>
      </trkpt>
      <trkpt lat="40.98288" lon="-2.1898400000000002">
        <time>2021-06-19T14:48:52+0000</time>
      </trkpt>
      <trkpt lat="40.9827" lon="-2.1901">
        <time>2021-06-19T14:48:53+0000</time>
      </trkpt>
      <trkpt lat="40.982530000000004" lon="-2.1903300000000003">
        <time>2021-06-19T14:48:54+0000</time>
      </trkpt>
      <trkpt lat="40.982330000000005" lon="-2.1905400000000004">
        <time>2021-06-19T14:48:55+0000</time>
      </trkpt>
      <trkpt lat="40.98212" lon="-2.1907400000000004">
        <time>2021-06-19T14:48:56+0000</time>
      </trkpt>
      <trkpt lat="40.981880000000004" lon="-2.19092">
        <time>2021-06-19T14:48:57+0000</time>
      </trkpt>
      <trkpt lat="40.981640000000006" lon="-2.1911">
        <time>2021-06-19T14:48:58+0000</time>
      </trkpt>
      <trkpt lat="40.981390000000005" lon="-2.1912700000000003">
        <time>2021-06-19T14:48:59+0000</time>
      </trkpt>
      <trkpt lat="40.98114" lon="-2.19146">
        <time>2021-06-19T14:49:00+0000</time>
      </trkpt>
      <trkpt lat="40.98089" lon="-2.1916700000000002">
        <time>2021-06-19T14:49:01+0000</time>
      </trkpt>
      <trkpt lat="40.98064" lon="-2.19187">
        <time>2021-06-19T14:49:02+0000</time>
      </trkpt>
      <trkpt lat="40.9804" lon="-2.1920800000000003">
        <time>2021-06-19T14:49:03+0000</time>
      </trkpt>
      <trkpt lat="40.98017" lon="-2.1922800000000002">
        <time>2021-06-19T14:49:04+0000</time>
      </trkpt>
      <trkpt lat="40.979940000000006" lon="-2.19248">
        <time>2021-06-19T14:49:05+0000</time>
      </trkpt>
      <trkpt lat="40.97973" lon="-2.19268">
        <time>2021-06-19T14:49:06+0000</time>
      </trkpt>
      <trkpt lat="40.97952" lon="-2.19288">
        <time>2021-06-19T14:49:07+0000</time>
      </trkpt>
      <trkpt lat="40.9793" lon="-2.19308">
        <time>2021-06-19T14:49:08+0000</time>
      </trkpt>
      <trkpt lat="40.97908" lon="-2.19328">
        <time>2021-06-19T14:49:09+0000</time>
      </trkpt>
      <trkpt lat="40.978860000000005" lon="-2.19349">
        <time>2021-06-19T14:49:10+0000</time>
      </trkpt>
      <trkpt lat="40.97863" lon="-2.1937100000000003">
        <time>2021-06-19T14:49:11+0000</time>
      </trkpt>
      <trkpt lat="40.978390000000005" lon="-2.1939100000000002">
        <time>2021-06-19T14:49:12+0000</time>
      </trkpt>
      <trkpt lat="40.97815000000001" lon="-2.19407">
        <time>2021-06-19T14:49:13+0000</time>
      </trkpt>
      <trkpt lat="40.977900000000005" lon="-2.19421">
        <time>2021-06-19T14:49:14+0000</time>
      </trkpt>
      <trkpt lat="40.97764" lon="-2.1943">
        <time>2021-06-19T14:49:15+0000</time>
      </trkpt>
      <trkpt lat="40.97737" lon="-2.19436">
        <time>2021-06-19T14:49:16+0000</time>
      </trkpt>
      <trkpt lat="40.9771" lon="-2.1943900000000003">
        <time>2021-06-19T14:49:17+0000</time>
      </trkpt>
      <trkpt lat="40.97683000000001" lon="-2.1943900000000003">
        <time>2021-06-19T14:49:18+0000</time>
      </trkpt>
      <trkpt lat="40.97655" lon="-2.19436">
        <time>2021-06-19T14:49:19+0000</time>
      </trkpt>
      <trkpt lat="40.97627000000001" lon="-2.1943200000000003">
        <time>2021-06-19T14:49:20+0000</time>
      </trkpt>
      <trkpt lat="40.97598" lon="-2.19428">
        <time>2021-06-19T14:49:21+0000</time>
      </trkpt>
      <trkpt lat="40.97569" lon="-2.1942500000000003">
        <time>2021-06-19T14:49:22+0000</time>
      </trkpt>
      <trkpt lat="40.975390000000004" lon="-2.19421">
        <time>2021-06-19T14:49:23+0000</time>
      </trkpt>
      <trkpt lat="40.975080000000005" lon="-2.19417">
        <time>2021-06-19T14:49:24+0000</time>
      </trkpt>
      <trkpt lat="40.97477000000001" lon="-2.1941300000000004">
        <time>2021-06-19T14:49:25+0000</time>
      </trkpt>
      <trkpt lat="40.974450000000004" lon="-2.1941100000000002">
        <time>2021-06-19T14:49:26+0000</time>
      </trkpt>
      <trkpt lat="40.974140000000006" lon="-2.19407">
        <time>2021-06-19T14:49:27+0000</time>
      </trkpt>
      <trkpt lat="40.97383000000001" lon="-2.19403">
        <time>2021-06-19T14:49:28+0000</time>
      </trkpt>
      <trkpt lat="40.97352" lon="-2.1940000000000004">
        <time>2021-06-19T14:49:29+0000</time>
      </trkpt>
      <trkpt lat="40.973200000000006" lon="-2.19396">
        <time>2021-06-19T14:49:30+0000</time>
      </trkpt>
      <trkpt lat="40.97289000000001" lon="-2.1939200000000003">
        <time>2021-06-19T14:49:31+0000</time>
      </trkpt>
      <trkpt lat="40.972570000000005" lon="-2.19388">
        <time>2021-06-19T14:49:32+0000</time>
      </trkpt>
      <trkpt lat="40.972260000000006" lon="-2.19382">
        <time>2021-06-19T14:49:33+0000</time>
      </trkpt>
      <trkpt lat="40.971940000000004" lon="-2.1937900000000004">
        <time>2021-06-19T14:49:34+0000</time>
      </trkpt>
      <trkpt lat="40.971630000000005" lon="-2.19376">
        <time>2021-06-19T14:49:35+0000</time>
      </trkpt>
      <trkpt lat="40.97133" lon="-2.1937200000000003">
        <time>2021-06-19T14:49:36+0000</time>
      </trkpt>
      <trkpt lat="40.97104" lon="-2.19369">
        <time>2021-06-19T14:49:37+0000</time>
      </trkpt>
      <trkpt lat="40.97075" lon="-2.1936500000000003">
        <time>2021-06-19T14:49:38+0000</time>
      </trkpt>
      <trkpt lat="40.97048" lon="-2.19362">
        <time>2021-06-19T14:49:39+0000</time>
      </trkpt>
      <trkpt lat="40.970220000000005" lon="-2.1935900000000004">
        <time>2021-06-19T14:49:40+0000</time>
      </trkpt>
      <trkpt lat="40.96996" lon="-2.19356">
        <time>2021-06-19T14:49:41+0000</time>
      </trkpt>
      <trkpt lat="40.96972" lon="-2.19353">
        <time>2021-06-19T14:49:42+0000</time>
      </trkpt>
      <trkpt lat="40.96949" lon="-2.1935000000000002">
        <time>2021-06-19T14:49:43+0000</time>
      </trkpt>
      <trkpt lat="40.969260000000006" lon="-2.19347">
        <time>2021-06-19T14:49:44+0000</time>
      </trkpt>
      <trkpt lat="40.96904000000001" lon="-2.1934500000000003">
        <time>2021-06-19T14:49:45+0000</time>
      </trkpt>
      <trkpt lat="40.96882" lon="-2.19342">
        <time>2021-06-19T14:49:46+0000</time>
      </trkpt>
      <trkpt lat="40.968610000000005" lon="-2.1934">
        <time>2021-06-19T14:49:47+0000</time>
      </trkpt>
      <trkpt lat="40.96839000000001" lon="-2.1933700000000003">
        <time>2021-06-19T14:49:48+0000</time>
      </trkpt>
      <trkpt lat="40.96817" lon="-2.19334">
        <time>2021-06-19T14:49:49+0000</time>
      </trkpt>
      <trkpt lat="40.96793" lon="-2.1933100000000003">
        <time>2021-06-19T14:49:50+0000</time>
      </trkpt>
      <trkpt lat="40.9677" lon="-2.1932500000000004">
        <time>2021-06-19T14:49:51+0000</time>
      </trkpt>
      <trkpt lat="40.96746" lon="-2.19316">
        <time>2021-06-19T14:49:52+0000</time>
      </trkpt>
      <trkpt lat="40.96723" lon="-2.1930400000000003">
        <time>2021-06-19T14:49:53+0000</time>
      </trkpt>
      <trkpt lat="40.967000000000006" lon="-2.19288">
        <time>2021-06-19T14:49:54+0000</time>
      </trkpt>
      <trkpt lat="40.96676" lon="-2.19268">
        <time>2021-06-19T14:49:55+0000</time>
      </trkpt>
      <trkpt lat="40.966530000000006" lon="-2.19245">
        <time>2021-06-19T14:49:56+0000</time>
      </trkpt>
      <trkpt lat="40.966300000000004" lon="-2.19221">
        <time>2021-06-19T14:49:57+0000</time>
      </trkpt>
      <trkpt lat="40.966080000000005" lon="-2.19197">
        <time>2021-06-19T14:49:58+0000</time>
      </trkpt>
      <trkpt lat="40.965860000000006" lon="-2.1917400000000002">
        <time>2021-06-19T14:49:59+0000</time>
      </trkpt>
      <trkpt lat="40.96564" lon="-2.19152">
        <time>2021-06-19T14:50:00+0000</time>
      </trkpt>
      <trkpt lat="40.96544" lon="-2.1913">
        <time>2021-06-19T14:50:01+0000</time>
      </trkpt>
      <trkpt lat="40.96524" lon="-2.1911">
        <time>2021-06-19T14:50:02+0000</time>
      </trkpt>
      <trkpt lat="40.965050000000005" lon="-2.19089">
        <time>2021-06-19T14:50:03+0000</time>
      </trkpt>
      <trkpt lat="40.96486" lon="-2.19069">
        <time>2021-06-19T14:50:04+0000</time>
      </trkpt>
      <trkpt lat="40.964670000000005" lon="-2.1905">
        <time>2021-06-19T14:50:05+0000</time>
      </trkpt>
      <trkpt lat="40.9645" lon="-2.19028">
        <time>2021-06-19T14:50:06+0000</time>
      </trkpt>
      <trkpt lat="40.96434" lon="-2.19004">
        <time>2021-06-19T14:50:07+0000</time>
      </trkpt>
      <trkpt lat="40.96419" lon="-2.1897800000000003">
        <time>2021-06-19T14:50:08+0000</time>
      </trkpt>
      <trkpt lat="40.96405" lon="-2.18953">
        <time>2021-06-19T14:50:09+0000</time>
      </trkpt>
      <trkpt lat="40.9639" lon="-2.18928">
        <time>2021-06-19T14:50:10+0000</time>
      </trkpt>
      <trkpt lat="40.96379" lon="-2.189">
        <time>2021-06-19T14:50:11+0000</time>
      </trkpt>
      <trkpt lat="40.96363" lon="-2.1887700000000003">
        <time>2021-06-19T14:50:12+0000</time>
      </trkpt>
      <trkpt lat="40.963440000000006" lon="-2.1885700000000003">
        <time>2021-06-19T14:50:13+0000</time>
      </trkpt>
      <trkpt lat="40.96323" lon="-2.18839">
        <time>2021-06-19T14:50:14+0000</time>
      </trkpt>
      <trkpt lat="40.962990000000005" lon="-2.18827">
        <time>2021-06-19T14:50:15+0000</time>
      </trkpt>
      <trkpt lat="40.96275000000001" lon="-2.1881500000000003">
        <time>2021-06-19T14:50:16+0000</time>
      </trkpt>
      <trkpt lat="40.962480000000006" lon="-2.18805">
        <time>2021-06-19T14:50:17+0000</time>
      </trkpt>
      <trkpt lat="40.9622" lon="-2.18798">
        <time>2021-06-19T14:50:18+0000</time>
      </trkpt>
      <trkpt lat="40.961920000000006" lon="-2.18791">
        <time>2021-06-19T14:50:19+0000</time>
      </trkpt>
      <trkpt lat="40.96164" lon="-2.18784">
        <time>2021-06-19T14:50:20+0000</time>
      </trkpt>
      <trkpt lat="40.961380000000005" lon="-2.18777">
        <time>2021-06-19T14:50:21+0000</time>
      </trkpt>
      <trkpt lat="40.961130000000004" lon="-2.18771">
        <time>2021-06-19T14:50:22+0000</time>
      </trkpt>
      <trkpt lat="40.9609" lon="-2.18766">
        <time>2021-06-19T14:50:23+0000</time>
      </trkpt>
      <trkpt lat="40.96067" lon="-2.1876">
        <time>2021-06-19T14:50:24+0000</time>
      </trkpt>
      <trkpt lat="40.96045" lon="-2.1875500000000003">
        <time>2021-06-19T14:50:25+0000</time>
      </trkpt>
      <trkpt lat="40.96025" lon="-2.1875">
        <time>2021-06-19T14:50:26+0000</time>
      </trkpt>
      <trkpt lat="40.960060000000006" lon="-2.18744">
        <time>2021-06-19T14:50:27+0000</time>
      </trkpt>
      <trkpt lat="40.95987" lon="-2.18738">
        <time>2021-06-19T14:50:28+0000</time>
      </trkpt>
      <trkpt lat="40.95969" lon="-2.1872900000000004">
        <time>2021-06-19T14:50:29+0000</time>
      </trkpt>
      <trkpt lat="40.95951" lon="-2.18716">
        <time>2021-06-19T14:50:30+0000</time>
      </trkpt>
      <trkpt lat="40.959340000000005" lon="-2.1870000000000003">
        <time>2021-06-19T14:50:31+0000</time>
      </trkpt>
      <trkpt lat="40.9592" lon="-2.18678">
        <time>2021-06-19T14:50:32+0000</time>
      </trkpt>
      <trkpt lat="40.959070000000004" lon="-2.18656">
        <time>2021-06-19T14:50:33+0000</time>
      </trkpt>
      <trkpt lat="40.958980000000004" lon="-2.1863200000000003">
        <time>2021-06-19T14:50:34+0000</time>
      </trkpt>
      <trkpt lat="40.958940000000005" lon="-2.1860500000000003">
        <time>2021-06-19T14:50:35+0000</time>
      </trkpt>
      <trkpt lat="40.9589" lon="-2.18577">
        <time>2021-06-19T14:50:36+0000</time>
      </trkpt>
      <trkpt lat="40.95886" lon="-2.18549">
        <time>2021-06-19T14:50:37+0000</time>
      </trkpt>
      <trkpt lat="40.95882" lon="-2.18522">
        <time>2021-06-19T14:50:38+0000</time>
      </trkpt>
      <trkpt lat="40.95879" lon="-2.18494">
        <time>2021-06-19T14:50:39+0000</time>
      </trkpt>
      <trkpt lat="40.958740000000006" lon="-2.18465">
        <time>2021-06-19T14:50:40+0000</time>
      </trkpt>
      <trkpt lat="40.95868" lon="-2.1843700000000004">
        <time>2021-06-19T14:50:41+0000</time>
      </trkpt>
      <trkpt lat="40.95861" lon="-2.1840800000000002">
        <time>2021-06-19T14:50:42+0000</time>
      </trkpt>
      <trkpt lat="40.958510000000004" lon="-2.18379">
        <time>2021-06-19T14:50:43+0000</time>
      </trkpt>
      <trkpt lat="40.958400000000005" lon="-2.1835">
        <time>2021-06-19T14:50:44+0000</time>
      </trkpt>
      <trkpt lat="40.958270000000006" lon="-2.1832100000000003">
        <time>2021-06-19T14:50:45+0000</time>
      </trkpt>
      <trkpt lat="40.95812" lon="-2.1829300000000003">
        <time>2021-06-19T14:50:46+0000</time>
      </trkpt>
      <trkpt lat="40.957950000000004" lon="-2.1826700000000003">
        <time>2021-06-19T14:50:47+0000</time>
      </trkpt>
      <trkpt lat="40.95778000000001" lon="-2.18241">
        <time>2021-06-19T14:50:48+0000</time>
      </trkpt>
      <trkpt lat="40.95759" lon="-2.18217">
        <time>2021-06-19T14:50:49+0000</time>
      </trkpt>
      <trkpt lat="40.957390000000004" lon="-2.18197">
        <time>2021-06-19T14:50:50+0000</time>
      </trkpt>
      <trkpt lat="40.957170000000005" lon="-2.1817900000000003">
        <time>2021-06-19T14:50:51+0000</time>
      </trkpt>
      <trkpt lat="40.956950000000006" lon="-2.18161">
        <time>2021-06-19T14:50:52+0000</time>
      </trkpt>
      <trkpt lat="40.956720000000004" lon="-2.1814600000000004">
        <time>2021-06-19T14:50:53+0000</time>
      </trkpt>
      <trkpt lat="40.95647" lon="-2.1813200000000004">
        <time>2021-06-19T14:50:54+0000</time>
      </trkpt>
      <trkpt lat="40.9562" lon="-2.18122">
        <time>2021-06-19T14:50:55+0000</time>
      </trkpt>
      <trkpt lat="40.95591" lon="-2.1811100000000003">
        <time>2021-06-19T14:50:56+0000</time>
      </trkpt>
      <trkpt lat="40.955630000000006" lon="-2.181">
        <time>2021-06-19T14:50:57+0000</time>
      </trkpt>
      <trkpt lat="40.95534000000001" lon="-2.18087">
        <time>2021-06-19T14:50:58+0000</time>
      </trkpt>
      <trkpt lat="40.95505" lon="-2.1807600000000003">
        <time>2021-06-19T14:50:59+0000</time>
      </trkpt>
      <trkpt lat="40.95477" lon="-2.18066">
        <time>2021-06-19T14:51:00+0000</time>
      </trkpt>
      <trkpt lat="40.954480000000004" lon="-2.1805600000000003">
        <time>2021-06-19T14:51:01+0000</time>
      </trkpt>
      <trkpt lat="40.9542" lon="-2.18045">
        <time>2021-06-19T14:51:02+0000</time>
      </trkpt>
      <trkpt lat="40.953920000000004" lon="-2.1803500000000002">
        <time>2021-06-19T14:51:03+0000</time>
      </trkpt>
      <trkpt lat="40.953660000000006" lon="-2.1802400000000004">
        <time>2021-06-19T14:51:04+0000</time>
      </trkpt>
      <trkpt lat="40.9534" lon="-2.1801500000000003">
        <time>2021-06-19T14:51:05+0000</time>
      </trkpt>
      <trkpt lat="40.953140000000005" lon="-2.18006">
        <time>2021-06-19T14:51:06+0000</time>
      </trkpt>
      <trkpt lat="40.95288" lon="-2.1799600000000003">
        <time>2021-06-19T14:51:07+0000</time>
      </trkpt>
      <trkpt lat="40.95262" lon="-2.17985">
        <time>2021-06-19T14:51:08+0000</time>
      </trkpt>
      <trkpt lat="40.95237" lon="-2.17973">
        <time>2021-06-19T14:51:09+0000</time>
      </trkpt>
      <trkpt lat="40.952130000000004" lon="-2.17958">
        <time>2021-06-19T14:51:10+0000</time>
      </trkpt>
      <trkpt lat="40.9519" lon="-2.17938">
        <time>2021-06-19T14:51:11+0000</time>
      </trkpt>
      <trkpt lat="40.95168" lon="-2.1791400000000003">
        <time>2021-06-19T14:51:12+0000</time>
      </trkpt>
      <trkpt lat="40.951460000000004" lon="-2.17892">
        <time>2021-06-19T14:51:13+0000</time>
      </trkpt>
      <trkpt lat="40.951260000000005" lon="-2.1787">
        <time>2021-06-19T14:51:14+0000</time>
      </trkpt>
      <trkpt lat="40.951060000000005" lon="-2.1785200000000002">
        <time>2021-06-19T14:51:15+0000</time>
      </trkpt>
      <trkpt lat="40.95084000000001" lon="-2.17836">
        <time>2021-06-19T14:51:16+0000</time>
      </trkpt>
      <trkpt lat="40.95062" lon="-2.17824">
        <time>2021-06-19T14:51:17+0000</time>
      </trkpt>
      <trkpt lat="40.95037000000001" lon="-2.1781200000000003">
        <time>2021-06-19T14:51:18+0000</time>
      </trkpt>
      <trkpt lat="40.95013" lon="-2.1780000000000004">
        <time>2021-06-19T14:51:19+0000</time>
      </trkpt>
      <trkpt lat="40.949870000000004" lon="-2.17787">
        <time>2021-06-19T14:51:20+0000</time>
      </trkpt>
      <trkpt lat="40.94962" lon="-2.17775">
        <time>2021-06-19T14:51:21+0000</time>
      </trkpt>
      <trkpt lat="40.949360000000006" lon="-2.17762">
        <time>2021-06-19T14:51:22+0000</time>
      </trkpt>
      <trkpt lat="40.949090000000005" lon="-2.17749">
        <time>2021-06-19T14:51:23+0000</time>
      </trkpt>
      <trkpt lat="40.94883" lon="-2.17736">
        <time>2021-06-19T14:51:24+0000</time>
      </trkpt>
      <trkpt lat="40.94856" lon="-2.17723">
        <time>2021-06-19T14:51:25+0000</time>
      </trkpt>
      <trkpt lat="40.94829" lon="-2.1771000000000003">
        <time>2021-06-19T14:51:26+0000</time>
      </trkpt>
      <trkpt lat="40.94802000000001" lon="-2.1769700000000003">
        <time>2021-06-19T14:51:27+0000</time>
      </trkpt>
      <trkpt lat="40.94774" lon="-2.1768400000000003">
        <time>2021-06-19T14:51:28+0000</time>
      </trkpt>
      <trkpt lat="40.94746000000001" lon="-2.1767000000000003">
        <time>2021-06-19T14:51:29+0000</time>
      </trkpt>
      <trkpt lat="40.947190000000006" lon="-2.17653">
        <time>2021-06-19T14:51:30+0000</time>
      </trkpt>
      <trkpt lat="40.94690000000001" lon="-2.17639">
        <time>2021-06-19T14:51:31+0000</time>
      </trkpt>
      <trkpt lat="40.94662" lon="-2.17625">
        <time>2021-06-19T14:51:32+0000</time>
      </trkpt>
      <trkpt lat="40.946340000000006" lon="-2.17612">
        <time>2021-06-19T14:51:33+0000</time>
      </trkpt>
      <trkpt lat="40.94606" lon="-2.1760300000000004">
        <time>2021-06-19T14:51:34+0000</time>
      </trkpt>
      <trkpt lat="40.945800000000006" lon="-2.1759000000000004">
        <time>2021-06-19T14:51:35+0000</time>
      </trkpt>
      <trkpt lat="40.94554" lon="-2.17577">
        <time>2021-06-19T14:51:36+0000</time>
      </trkpt>
      <trkpt lat="40.94527" lon="-2.17564">
        <time>2021-06-19T14:51:37+0000</time>
      </trkpt>
      <trkpt lat="40.94501" lon="-2.17551">
        <time>2021-06-19T14:51:38+0000</time>
      </trkpt>
      <trkpt lat="40.94474" lon="-2.17538">
        <time>2021-06-19T14:51:39+0000</time>
      </trkpt>
      <trkpt lat="40.94447" lon="-2.17525">
        <time>2021-06-19T14:51:40+0000</time>
      </trkpt>
      <trkpt lat="40.9442" lon="-2.17511">
        <time>2021-06-19T14:51:41+0000</time>
      </trkpt>
      <trkpt lat="40.943940000000005" lon="-2.17496">
        <time>2021-06-19T14:51:42+0000</time>
      </trkpt>
      <trkpt lat="40.943690000000004" lon="-2.17483">
        <time>2021-06-19T14:51:43+0000</time>
      </trkpt>
      <trkpt lat="40.94344" lon="-2.1747">
        <time>2021-06-19T14:51:44+0000</time>
      </trkpt>
      <trkpt lat="40.94319" lon="-2.17457">
        <time>2021-06-19T14:51:45+0000</time>
      </trkpt>
      <trkpt lat="40.94295" lon="-2.17444">
        <time>2021-06-19T14:51:46+0000</time>
      </trkpt>
      <trkpt lat="40.942710000000005" lon="-2.1743300000000003">
        <time>2021-06-19T14:51:47+0000</time>
      </trkpt>
      <trkpt lat="40.94247" lon="-2.1741900000000003">
        <time>2021-06-19T14:51:48+0000</time>
      </trkpt>
      <trkpt lat="40.94223" lon="-2.17404">
        <time>2021-06-19T14:51:49+0000</time>
      </trkpt>
      <trkpt lat="40.941970000000005" lon="-2.17387">
        <time>2021-06-19T14:51:50+0000</time>
      </trkpt>
      <trkpt lat="40.941700000000004" lon="-2.1737">
        <time>2021-06-19T14:51:51+0000</time>
      </trkpt>
      <trkpt lat="40.94142" lon="-2.1735100000000003">
        <time>2021-06-19T14:51:52+0000</time>
      </trkpt>
      <trkpt lat="40.94115" lon="-2.1733100000000003">
        <time>2021-06-19T14:51:53+0000</time>
      </trkpt>
      <trkpt lat="40.94089" lon="-2.17308">
        <time>2021-06-19T14:51:54+0000</time>
      </trkpt>
      <trkpt lat="40.94062" lon="-2.17288">
        <time>2021-06-19T14:51:55+0000</time>
      </trkpt>
      <trkpt lat="40.940360000000005" lon="-2.17266">
        <time>2021-06-19T14:51:56+0000</time>
      </trkpt>
      <trkpt lat="40.940110000000004" lon="-2.1724300000000003">
        <time>2021-06-19T14:51:57+0000</time>
      </trkpt>
      <trkpt lat="40.939840000000004" lon="-2.1722200000000003">
        <time>2021-06-19T14:51:58+0000</time>
      </trkpt>
      <trkpt lat="40.93958000000001" lon="-2.172">
        <time>2021-06-19T14:51:59+0000</time>
      </trkpt>
      <trkpt lat="40.939350000000005" lon="-2.17179">
        <time>2021-06-19T14:52:00+0000</time>
      </trkpt>
      <trkpt lat="40.939130000000006" lon="-2.17158">
        <time>2021-06-19T14:52:01+0000</time>
      </trkpt>
      <trkpt lat="40.93892" lon="-2.17138">
        <time>2021-06-19T14:52:02+0000</time>
      </trkpt>
      <trkpt lat="40.93871" lon="-2.17118">
        <time>2021-06-19T14:52:03+0000</time>
      </trkpt>
      <trkpt lat="40.938500000000005" lon="-2.17099">
        <time>2021-06-19T14:52:04+0000</time>
      </trkpt>
      <trkpt lat="40.938300000000005" lon="-2.1708000000000003">
        <time>2021-06-19T14:52:05+0000</time>
      </trkpt>
      <trkpt lat="40.93808000000001" lon="-2.1706000000000003">
        <time>2021-06-19T14:52:06+0000</time>
      </trkpt>
      <trkpt lat="40.93786" lon="-2.1704000000000003">
        <time>2021-06-19T14:52:07+0000</time>
      </trkpt>
      <trkpt lat="40.93764" lon="-2.1701900000000003">
        <time>2021-06-19T14:52:08+0000</time>
      </trkpt>
      <trkpt lat="40.93742" lon="-2.1699900000000003">
        <time>2021-06-19T14:52:09+0000</time>
      </trkpt>
      <trkpt lat="40.937200000000004" lon="-2.1697800000000003">
        <time>2021-06-19T14:52:10+0000</time>
      </trkpt>
      <trkpt lat="40.93697" lon="-2.16957">
        <time>2021-06-19T14:52:11+0000</time>
      </trkpt>
      <trkpt lat="40.93675" lon="-2.16936">
        <time>2021-06-19T14:52:12+0000</time>
      </trkpt>
      <trkpt lat="40.93652" lon="-2.16915">
        <time>2021-06-19T14:52:13+0000</time>
      </trkpt>
      <trkpt lat="40.9363" lon="-2.16894">
        <time>2021-06-19T14:52:14+0000</time>
      </trkpt>
      <trkpt lat="40.93607" lon="-2.16873">
        <time>2021-06-19T14:52:15+0000</time>
      </trkpt>
      <trkpt lat="40.93583" lon="-2.1685000000000003">
        <time>2021-06-19T14:52:16+0000</time>
      </trkpt>
      <trkpt lat="40.935590000000005" lon="-2.16826">
        <time>2021-06-19T14:52:17+0000</time>
      </trkpt>
      <trkpt lat="40.93535000000001" lon="-2.1680200000000003">
        <time>2021-06-19T14:52:18+0000</time>
      </trkpt>
      <trkpt lat="40.93511" lon="-2.16778">
        <time>2021-06-19T14:52:19+0000</time>
      </trkpt>
      <trkpt lat="40.93488000000001" lon="-2.16753">
        <time>2021-06-19T14:52:20+0000</time>
      </trkpt>
      <trkpt lat="40.934650000000005" lon="-2.1672900000000004">
        <time>2021-06-19T14:52:21+0000</time>
      </trkpt>
      <trkpt lat="40.934430000000006" lon="-2.16703">
        <time>2021-06-19T14:52:22+0000</time>
      </trkpt>
      <trkpt lat="40.93421" lon="-2.16678">
        <time>2021-06-19T14:52:23+0000</time>
      </trkpt>
      <trkpt lat="40.93401" lon="-2.1665">
        <time>2021-06-19T14:52:24+0000</time>
      </trkpt>
      <trkpt lat="40.933780000000006" lon="-2.16624">
        <time>2021-06-19T14:52:25+0000</time>
      </trkpt>
      <trkpt lat="40.93357" lon="-2.16597">
        <time>2021-06-19T14:52:26+0000</time>
      </trkpt>
      <trkpt lat="40.93334" lon="-2.1657200000000003">
        <time>2021-06-19T14:52:27+0000</time>
      </trkpt>
      <trkpt lat="40.933150000000005" lon="-2.1654600000000004">
        <time>2021-06-19T14:52:28+0000</time>
      </trkpt>
      <trkpt lat="40.93296" lon="-2.16522">
        <time>2021-06-19T14:52:29+0000</time>
      </trkpt>
      <trkpt lat="40.932770000000005" lon="-2.16499">
        <time>2021-06-19T14:52:30+0000</time>
      </trkpt>
      <trkpt lat="40.9326" lon="-2.16472">
        <time>2021-06-19T14:52:31+0000</time>
      </trkpt>
      <trkpt lat="40.932390000000005" lon="-2.1645000000000003">
        <time>2021-06-19T14:52:32+0000</time>
      </trkpt>
      <trkpt lat="40.93216" lon="-2.1642900000000003">
        <time>2021-06-19T14:52:33+0000</time>
      </trkpt>
      <trkpt lat="40.93193" lon="-2.1640900000000003">
        <time>2021-06-19T14:52:34+0000</time>
      </trkpt>
      <trkpt lat="40.93168" lon="-2.16393">
        <time>2021-06-19T14:52:35+0000</time>
      </trkpt>
      <trkpt lat="40.93144" lon="-2.16378">
        <time>2021-06-19T14:52:36+0000</time>
      </trkpt>
      <trkpt lat="40.93119" lon="-2.16364">
        <time>2021-06-19T14:52:37+0000</time>
      </trkpt>
      <trkpt lat="40.93094000000001" lon="-2.16352">
        <time>2021-06-19T14:52:38+0000</time>
      </trkpt>
      <trkpt lat="40.930690000000006" lon="-2.1634200000000003">
        <time>2021-06-19T14:52:39+0000</time>
      </trkpt>
      <trkpt lat="40.930440000000004" lon="-2.1633400000000003">
        <time>2021-06-19T14:52:40+0000</time>
      </trkpt>
      <trkpt lat="40.93018" lon="-2.1632800000000003">
        <time>2021-06-19T14:52:41+0000</time>
      </trkpt>
      <trkpt lat="40.92992" lon="-2.16323">
        <time>2021-06-19T14:52:42+0000</time>
      </trkpt>
      <trkpt lat="40.92965" lon="-2.16319">
        <time>2021-06-19T14:52:43+0000</time>
      </trkpt>
      <trkpt lat="40.929370000000006" lon="-2.16319">
        <time>2021-06-19T14:52:44+0000</time>
      </trkpt>
      <trkpt lat="40.92909" lon="-2.16319">
        <time>2021-06-19T14:52:45+0000</time>
      </trkpt>
      <trkpt lat="40.92882" lon="-2.1632000000000002">
        <time>2021-06-19T14:52:46+0000</time>
      </trkpt>
      <trkpt lat="40.928560000000004" lon="-2.16325">
        <time>2021-06-19T14:52:47+0000</time>
      </trkpt>
      <trkpt lat="40.92832000000001" lon="-2.16331">
        <time>2021-06-19T14:52:48+0000</time>
      </trkpt>
      <trkpt lat="40.92808" lon="-2.16339">
        <time>2021-06-19T14:52:49+0000</time>
      </trkpt>
      <trkpt lat="40.92785000000001" lon="-2.1634900000000004">
        <time>2021-06-19T14:52:50+0000</time>
      </trkpt>
      <trkpt lat="40.92761" lon="-2.1636">
        <time>2021-06-19T14:52:51+0000</time>
      </trkpt>
      <trkpt lat="40.92737" lon="-2.16373">
        <time>2021-06-19T14:52:52+0000</time>
      </trkpt>
      <trkpt lat="40.927130000000005" lon="-2.1638800000000002">
        <time>2021-06-19T14:52:53+0000</time>
      </trkpt>
      <trkpt lat="40.9269" lon="-2.16404">
        <time>2021-06-19T14:52:54+0000</time>
      </trkpt>
      <trkpt lat="40.926680000000005" lon="-2.1642">
        <time>2021-06-19T14:52:55+0000</time>
      </trkpt>
      <trkpt lat="40.92647" lon="-2.1643600000000003">
        <time>2021-06-19T14:52:56+0000</time>
      </trkpt>
      <trkpt lat="40.926260000000006" lon="-2.16452">
        <time>2021-06-19T14:52:57+0000</time>
      </trkpt>
      <trkpt lat="40.926030000000004" lon="-2.16467">
        <time>2021-06-19T14:52:58+0000</time>
      </trkpt>
      <trkpt lat="40.925790000000006" lon="-2.16482">
        <time>2021-06-19T14:52:59+0000</time>
      </trkpt>
      <trkpt lat="40.92553" lon="-2.16495">
        <time>2021-06-19T14:53:00+0000</time>
      </trkpt>
      <trkpt lat="40.92526" lon="-2.16507">
        <time>2021-06-19T14:53:01+0000</time>
      </trkpt>
      <trkpt lat="40.92497" lon="-2.1651700000000003">
        <time>2021-06-19T14:53:02+0000</time>
      </trkpt>
      <trkpt lat="40.92468" lon="-2.1652500000000003">
        <time>2021-06-19T14:53:03+0000</time>
      </trkpt>
      <trkpt lat="40.924380000000006" lon="-2.1653000000000002">
        <time>2021-06-19T14:53:04+0000</time>
      </trkpt>
      <trkpt lat="40.92407" lon="-2.16533">
        <time>2021-06-19T14:53:05+0000</time>
      </trkpt>
      <trkpt lat="40.92376" lon="-2.16533">
        <time>2021-06-19T14:53:06+0000</time>
      </trkpt>
      <trkpt lat="40.92345" lon="-2.16533">
        <time>2021-06-19T14:53:07+0000</time>
      </trkpt>
      <trkpt lat="40.92315000000001" lon="-2.16529">
        <time>2021-06-19T14:53:08+0000</time>
      </trkpt>
      <trkpt lat="40.922850000000004" lon="-2.16521">
        <time>2021-06-19T14:53:09+0000</time>
      </trkpt>
      <trkpt lat="40.92255" lon="-2.1651200000000004">
        <time>2021-06-19T14:53:10+0000</time>
      </trkpt>
      <trkpt lat="40.92226" lon="-2.16501">
        <time>2021-06-19T14:53:11+0000</time>
      </trkpt>
      <trkpt lat="40.921980000000005" lon="-2.16487">
        <time>2021-06-19T14:53:12+0000</time>
      </trkpt>
      <trkpt lat="40.9217" lon="-2.1647100000000004">
        <time>2021-06-19T14:53:13+0000</time>
      </trkpt>
      <trkpt lat="40.92143" lon="-2.16453">
        <time>2021-06-19T14:53:14+0000</time>
      </trkpt>
      <trkpt lat="40.92119" lon="-2.16434">
        <time>2021-06-19T14:53:15+0000</time>
      </trkpt>
      <trkpt lat="40.92096" lon="-2.16414">
        <time>2021-06-19T14:53:16+0000</time>
      </trkpt>
      <trkpt lat="40.920750000000005" lon="-2.16393">
        <time>2021-06-19T14:53:17+0000</time>
      </trkpt>
      <trkpt lat="40.920550000000006" lon="-2.16373">
        <time>2021-06-19T14:53:18+0000</time>
      </trkpt>
      <trkpt lat="40.920350000000006" lon="-2.1635400000000002">
        <time>2021-06-19T14:53:19+0000</time>
      </trkpt>
      <trkpt lat="40.92016" lon="-2.1633600000000004">
        <time>2021-06-19T14:53:20+0000</time>
      </trkpt>
      <trkpt lat="40.91995" lon="-2.16319">
        <time>2021-06-19T14:53:21+0000</time>
      </trkpt>
      <trkpt lat="40.919720000000005" lon="-2.16305">
        <time>2021-06-19T14:53:22+0000</time>
      </trkpt>
      <trkpt lat="40.919470000000004" lon="-2.1629300000000002">
        <time>2021-06-19T14:53:23+0000</time>
      </trkpt>
      <trkpt lat="40.91921000000001" lon="-2.1628100000000003">
        <time>2021-06-19T14:53:24+0000</time>
      </trkpt>
      <trkpt lat="40.918940000000006" lon="-2.1626800000000004">
        <time>2021-06-19T14:53:25+0000</time>
      </trkpt>
      <trkpt lat="40.918670000000006" lon="-2.1625300000000003">
        <time>2021-06-19T14:53:26+0000</time>
      </trkpt>
      <trkpt lat="40.918400000000005" lon="-2.16237">
        <time>2021-06-19T14:53:27+0000</time>
      </trkpt>
      <trkpt lat="40.91814" lon="-2.1621900000000003">
        <time>2021-06-19T14:53:28+0000</time>
      </trkpt>
      <trkpt lat="40.9179" lon="-2.1619900000000003">
        <time>2021-06-19T14:53:29+0000</time>
      </trkpt>
      <trkpt lat="40.917660000000005" lon="-2.16177">
        <time>2021-06-19T14:53:30+0000</time>
      </trkpt>
      <trkpt lat="40.91743" lon="-2.1615300000000004">
        <time>2021-06-19T14:53:31+0000</time>
      </trkpt>
      <trkpt lat="40.91722" lon="-2.16128">
        <time>2021-06-19T14:53:32+0000</time>
      </trkpt>
      <trkpt lat="40.917030000000004" lon="-2.16099">
        <time>2021-06-19T14:53:33+0000</time>
      </trkpt>
      <trkpt lat="40.91684" lon="-2.16072">
        <time>2021-06-19T14:53:34+0000</time>
      </trkpt>
      <trkpt lat="40.91666" lon="-2.16046">
        <time>2021-06-19T14:53:35+0000</time>
      </trkpt>
      <trkpt lat="40.91649" lon="-2.1602">
        <time>2021-06-19T14:53:36+0000</time>
      </trkpt>
      <trkpt lat="40.916340000000005" lon="-2.1599500000000003">
        <time>2021-06-19T14:53:37+0000</time>
      </trkpt>
      <trkpt lat="40.916180000000004" lon="-2.15971">
        <time>2021-06-19T14:53:38+0000</time>
      </trkpt>
      <trkpt lat="40.91599" lon="-2.1595">
        <time>2021-06-19T14:53:39+0000</time>
      </trkpt>
      <trkpt lat="40.915780000000005" lon="-2.15931">
        <time>2021-06-19T14:53:40+0000</time>
      </trkpt>
      <trkpt lat="40.91555" lon="-2.1591400000000003">
        <time>2021-06-19T14:53:41+0000</time>
      </trkpt>
      <trkpt lat="40.915310000000005" lon="-2.15898">
        <time>2021-06-19T14:53:42+0000</time>
      </trkpt>
      <trkpt lat="40.91507" lon="-2.1588100000000003">
        <time>2021-06-19T14:53:43+0000</time>
      </trkpt>
      <trkpt lat="40.914840000000005" lon="-2.15863">
        <time>2021-06-19T14:53:44+0000</time>
      </trkpt>
      <trkpt lat="40.914620000000006" lon="-2.15843">
        <time>2021-06-19T14:53:45+0000</time>
      </trkpt>
      <trkpt lat="40.9144" lon="-2.1582000000000003">
        <time>2021-06-19T14:53:46+0000</time>
      </trkpt>
      <trkpt lat="40.914190000000005" lon="-2.15795">
        <time>2021-06-19T14:53:47+0000</time>
      </trkpt>
      <trkpt lat="40.914" lon="-2.1577">
        <time>2021-06-19T14:53:48+0000</time>
      </trkpt>
      <trkpt lat="40.91382" lon="-2.15743">
        <time>2021-06-19T14:53:49+0000</time>
      </trkpt>
      <trkpt lat="40.913630000000005" lon="-2.15721">
        <time>2021-06-19T14:53:50+0000</time>
      </trkpt>
      <trkpt lat="40.913430000000005" lon="-2.15702">
        <time>2021-06-19T14:53:51+0000</time>
      </trkpt>
      <trkpt lat="40.9132" lon="-2.1568500000000004">
        <time>2021-06-19T14:53:52+0000</time>
      </trkpt>
      <trkpt lat="40.91295" lon="-2.15672">
        <time>2021-06-19T14:53:53+0000</time>
      </trkpt>
      <trkpt lat="40.912690000000005" lon="-2.1565700000000003">
        <time>2021-06-19T14:53:54+0000</time>
      </trkpt>
      <trkpt lat="40.91243" lon="-2.15641">
        <time>2021-06-19T14:53:55+0000</time>
      </trkpt>
      <trkpt lat="40.91216" lon="-2.15625">
        <time>2021-06-19T14:53:56+0000</time>
      </trkpt>
      <trkpt lat="40.9119" lon="-2.15608">
        <time>2021-06-19T14:53:57+0000</time>
      </trkpt>
      <trkpt lat="40.911640000000006" lon="-2.15593">
        <time>2021-06-19T14:53:58+0000</time>
      </trkpt>
      <trkpt lat="40.911390000000004" lon="-2.15578">
        <time>2021-06-19T14:53:59+0000</time>
      </trkpt>
      <trkpt lat="40.911150000000006" lon="-2.1556300000000004">
        <time>2021-06-19T14:54:00+0000</time>
      </trkpt>
      <trkpt lat="40.910920000000004" lon="-2.1555">
        <time>2021-06-19T14:54:01+0000</time>
      </trkpt>
      <trkpt lat="40.910700000000006" lon="-2.1553600000000004">
        <time>2021-06-19T14:54:02+0000</time>
      </trkpt>
      <trkpt lat="40.91049" lon="-2.15524">
        <time>2021-06-19T14:54:03+0000</time>
      </trkpt>
      <trkpt lat="40.91028" lon="-2.15512">
        <time>2021-06-19T14:54:04+0000</time>
      </trkpt>
      <trkpt lat="40.910070000000005" lon="-2.1550200000000004">
        <time>2021-06-19T14:54:05+0000</time>
      </trkpt>
      <trkpt lat="40.909850000000006" lon="-2.1549500000000004">
        <time>2021-06-19T14:54:06+0000</time>
      </trkpt>
      <trkpt lat="40.909620000000004" lon="-2.1549300000000002">
        <time>2021-06-19T14:54:07+0000</time>
      </trkpt>
      <trkpt lat="40.90937" lon="-2.15492">
        <time>2021-06-19T14:54:08+0000</time>
      </trkpt>
      <trkpt lat="40.909130000000005" lon="-2.1549300000000002">
        <time>2021-06-19T14:54:09+0000</time>
      </trkpt>
      <trkpt lat="40.9089" lon="-2.1549300000000002">
        <time>2021-06-19T14:54:10+0000</time>
      </trkpt>
      <trkpt lat="40.908680000000004" lon="-2.1549300000000002">
        <time>2021-06-19T14:54:11+0000</time>
      </trkpt>
      <trkpt lat="40.908460000000005" lon="-2.15489">
        <time>2021-06-19T14:54:12+0000</time>
      </trkpt>
      <trkpt lat="40.90825" lon="-2.15483">
        <time>2021-06-19T14:54:13+0000</time>
      </trkpt>
      <trkpt lat="40.908030000000004" lon="-2.1547300000000003">
        <time>2021-06-19T14:54:14+0000</time>
      </trkpt>
      <trkpt lat="40.907810000000005" lon="-2.1546000000000003">
        <time>2021-06-19T14:54:15+0000</time>
      </trkpt>
      <trkpt lat="40.9076" lon="-2.15443">
        <time>2021-06-19T14:54:16+0000</time>
      </trkpt>
      <trkpt lat="40.907410000000006" lon="-2.15424">
        <time>2021-06-19T14:54:17+0000</time>
      </trkpt>
      <trkpt lat="40.90724" lon="-2.15402">
        <time>2021-06-19T14:54:18+0000</time>
      </trkpt>
      <trkpt lat="40.90708" lon="-2.1537800000000002">
        <time>2021-06-19T14:54:19+0000</time>
      </trkpt>
      <trkpt lat="40.906940000000006" lon="-2.1535200000000003">
        <time>2021-06-19T14:54:20+0000</time>
      </trkpt>
      <trkpt lat="40.90682" lon="-2.1532400000000003">
        <time>2021-06-19T14:54:21+0000</time>
      </trkpt>
      <trkpt lat="40.90673" lon="-2.15293">
        <time>2021-06-19T14:54:22+0000</time>
      </trkpt>
      <trkpt lat="40.90664" lon="-2.1526300000000003">
        <time>2021-06-19T14:54:23+0000</time>
      </trkpt>
      <trkpt lat="40.90654000000001" lon="-2.15234">
        <time>2021-06-19T14:54:24+0000</time>
      </trkpt>
      <trkpt lat="40.906420000000004" lon="-2.15208">
        <time>2021-06-19T14:54:25+0000</time>
      </trkpt>
      <trkpt lat="40.9063" lon="-2.1518300000000004">
        <time>2021-06-19T14:54:26+0000</time>
      </trkpt>
      <trkpt lat="40.90616" lon="-2.15159">
        <time>2021-06-19T14:54:27+0000</time>
      </trkpt>
      <trkpt lat="40.90599" lon="-2.15138">
        <time>2021-06-19T14:54:28+0000</time>
      </trkpt>
      <trkpt lat="40.905800000000006" lon="-2.15118">
        <time>2021-06-19T14:54:29+0000</time>
      </trkpt>
      <trkpt lat="40.905590000000004" lon="-2.15099">
        <time>2021-06-19T14:54:30+0000</time>
      </trkpt>
      <trkpt lat="40.905370000000005" lon="-2.1508100000000003">
        <time>2021-06-19T14:54:31+0000</time>
      </trkpt>
      <trkpt lat="40.905150000000006" lon="-2.15065">
        <time>2021-06-19T14:54:32+0000</time>
      </trkpt>
      <trkpt lat="40.90495000000001" lon="-2.15052">
        <time>2021-06-19T14:54:33+0000</time>
      </trkpt>
      <trkpt lat="40.90473" lon="-2.1504100000000004">
        <time>2021-06-19T14:54:34+0000</time>
      </trkpt>
      <trkpt lat="40.90449" lon="-2.1503400000000004">
        <time>2021-06-19T14:54:35+0000</time>
      </trkpt>
      <trkpt lat="40.904250000000005" lon="-2.1503">
        <time>2021-06-19T14:54:36+0000</time>
      </trkpt>
      <trkpt lat="40.904" lon="-2.15029">
        <time>2021-06-19T14:54:37+0000</time>
      </trkpt>
      <trkpt lat="40.90375" lon="-2.15031">
        <time>2021-06-19T14:54:38+0000</time>
      </trkpt>
      <trkpt lat="40.90348" lon="-2.1503200000000002">
        <time>2021-06-19T14:54:39+0000</time>
      </trkpt>
      <trkpt lat="40.90323" lon="-2.15036">
        <time>2021-06-19T14:54:40+0000</time>
      </trkpt>
      <trkpt lat="40.90299" lon="-2.15036">
        <time>2021-06-19T14:54:41+0000</time>
      </trkpt>
      <trkpt lat="40.902750000000005" lon="-2.1503200000000002">
        <time>2021-06-19T14:54:42+0000</time>
      </trkpt>
      <trkpt lat="40.9025" lon="-2.15028">
        <time>2021-06-19T14:54:43+0000</time>
      </trkpt>
      <trkpt lat="40.90225" lon="-2.15016">
        <time>2021-06-19T14:54:44+0000</time>
      </trkpt>
      <trkpt lat="40.901990000000005" lon="-2.1500500000000002">
        <time>2021-06-19T14:54:45+0000</time>
      </trkpt>
      <trkpt lat="40.90173" lon="-2.1499200000000003">
        <time>2021-06-19T14:54:46+0000</time>
      </trkpt>
      <trkpt lat="40.90146" lon="-2.14977">
        <time>2021-06-19T14:54:47+0000</time>
      </trkpt>
      <trkpt lat="40.90119000000001" lon="-2.14963">
        <time>2021-06-19T14:54:48+0000</time>
      </trkpt>
      <trkpt lat="40.90091" lon="-2.14948">
        <time>2021-06-19T14:54:49+0000</time>
      </trkpt>
      <trkpt lat="40.90063000000001" lon="-2.14933">
        <time>2021-06-19T14:54:50+0000</time>
      </trkpt>
      <trkpt lat="40.90035" lon="-2.1491800000000003">
        <time>2021-06-19T14:54:51+0000</time>
      </trkpt>
      <trkpt lat="40.90007000000001" lon="-2.14903">
        <time>2021-06-19T14:54:52+0000</time>
      </trkpt>
      <trkpt lat="40.899800000000006" lon="-2.14888">
        <time>2021-06-19T14:54:53+0000</time>
      </trkpt>
      <trkpt lat="40.89954" lon="-2.14874">
        <time>2021-06-19T14:54:54+0000</time>
      </trkpt>
      <trkpt lat="40.89929" lon="-2.14861">
        <time>2021-06-19T14:54:55+0000</time>
      </trkpt>
      <trkpt lat="40.89905" lon="-2.14848">
        <time>2021-06-19T14:54:56+0000</time>
      </trkpt>
      <trkpt lat="40.89882" lon="-2.1483600000000003">
        <time>2021-06-19T14:54:57+0000</time>
      </trkpt>
      <trkpt lat="40.8986" lon="-2.1482400000000004">
        <time>2021-06-19T14:54:58+0000</time>
      </trkpt>
      <trkpt lat="40.89838" lon="-2.14811">
        <time>2021-06-19T14:54:59+0000</time>
      </trkpt>
      <trkpt lat="40.898160000000004" lon="-2.1479600000000003">
        <time>2021-06-19T14:55:00+0000</time>
      </trkpt>
      <trkpt lat="40.89793" lon="-2.14779">
        <time>2021-06-19T14:55:01+0000</time>
      </trkpt>
      <trkpt lat="40.8977" lon="-2.14759">
        <time>2021-06-19T14:55:02+0000</time>
      </trkpt>
      <trkpt lat="40.89748" lon="-2.14737">
        <time>2021-06-19T14:55:03+0000</time>
      </trkpt>
      <trkpt lat="40.89725000000001" lon="-2.14717">
        <time>2021-06-19T14:55:04+0000</time>
      </trkpt>
      <trkpt lat="40.897020000000005" lon="-2.14696">
        <time>2021-06-19T14:55:05+0000</time>
      </trkpt>
      <trkpt lat="40.89679" lon="-2.1467500000000004">
        <time>2021-06-19T14:55:06+0000</time>
      </trkpt>
      <trkpt lat="40.896550000000005" lon="-2.14655">
        <time>2021-06-19T14:55:07+0000</time>
      </trkpt>
      <trkpt lat="40.896300000000004" lon="-2.14636">
        <time>2021-06-19T14:55:08+0000</time>
      </trkpt>
      <trkpt lat="40.89607" lon="-2.14615">
        <time>2021-06-19T14:55:09+0000</time>
      </trkpt>
      <trkpt lat="40.895830000000004" lon="-2.14594">
        <time>2021-06-19T14:55:10+0000</time>
      </trkpt>
      <trkpt lat="40.895590000000006" lon="-2.1457200000000003">
        <time>2021-06-19T14:55:11+0000</time>
      </trkpt>
      <trkpt lat="40.895340000000004" lon="-2.1455">
        <time>2021-06-19T14:55:12+0000</time>
      </trkpt>
      <trkpt lat="40.89509" lon="-2.14528">
        <time>2021-06-19T14:55:13+0000</time>
      </trkpt>
      <trkpt lat="40.89484" lon="-2.14506">
        <time>2021-06-19T14:55:14+0000</time>
      </trkpt>
      <trkpt lat="40.894580000000005" lon="-2.1448400000000003">
        <time>2021-06-19T14:55:15+0000</time>
      </trkpt>
      <trkpt lat="40.8943" lon="-2.1446300000000003">
        <time>2021-06-19T14:55:16+0000</time>
      </trkpt>
      <trkpt lat="40.89403" lon="-2.1444400000000003">
        <time>2021-06-19T14:55:17+0000</time>
      </trkpt>
      <trkpt lat="40.89374" lon="-2.14425">
        <time>2021-06-19T14:55:18+0000</time>
      </trkpt>
      <trkpt lat="40.893440000000005" lon="-2.14407">
        <time>2021-06-19T14:55:19+0000</time>
      </trkpt>
      <trkpt lat="40.89316" lon="-2.1438900000000003">
        <time>2021-06-19T14:55:20+0000</time>
      </trkpt>
      <trkpt lat="40.892880000000005" lon="-2.14371">
        <time>2021-06-19T14:55:21+0000</time>
      </trkpt>
      <trkpt lat="40.892610000000005" lon="-2.14353">
        <time>2021-06-19T14:55:22+0000</time>
      </trkpt>
      <trkpt lat="40.89235" lon="-2.14333">
        <time>2021-06-19T14:55:23+0000</time>
      </trkpt>
      <trkpt lat="40.892100000000006" lon="-2.1431400000000003">
        <time>2021-06-19T14:55:24+0000</time>
      </trkpt>
      <trkpt lat="40.891870000000004" lon="-2.1429500000000004">
        <time>2021-06-19T14:55:25+0000</time>
      </trkpt>
      <trkpt lat="40.89164" lon="-2.14277">
        <time>2021-06-19T14:55:26+0000</time>
      </trkpt>
      <trkpt lat="40.89143000000001" lon="-2.14259">
        <time>2021-06-19T14:55:27+0000</time>
      </trkpt>
      <trkpt lat="40.891220000000004" lon="-2.14242">
        <time>2021-06-19T14:55:28+0000</time>
      </trkpt>
      <trkpt lat="40.89101" lon="-2.1422600000000003">
        <time>2021-06-19T14:55:29+0000</time>
      </trkpt>
      <trkpt lat="40.89079" lon="-2.14209">
        <time>2021-06-19T14:55:30+0000</time>
      </trkpt>
      <trkpt lat="40.89056" lon="-2.1419200000000003">
        <time>2021-06-19T14:55:31+0000</time>
      </trkpt>
      <trkpt lat="40.89031000000001" lon="-2.14177">
        <time>2021-06-19T14:55:32+0000</time>
      </trkpt>
      <trkpt lat="40.89005" lon="-2.14162">
        <time>2021-06-19T14:55:33+0000</time>
      </trkpt>
      <trkpt lat="40.889770000000006" lon="-2.1415">
        <time>2021-06-19T14:55:34+0000</time>
      </trkpt>
      <trkpt lat="40.88947" lon="-2.1414">
        <time>2021-06-19T14:55:35+0000</time>
      </trkpt>
      <trkpt lat="40.889160000000004" lon="-2.1413200000000003">
        <time>2021-06-19T14:55:36+0000</time>
      </trkpt>
      <trkpt lat="40.88886" lon="-2.14127">
        <time>2021-06-19T14:55:37+0000</time>
      </trkpt>
      <trkpt lat="40.888560000000005" lon="-2.1412400000000003">
        <time>2021-06-19T14:55:38+0000</time>
      </trkpt>
      <trkpt lat="40.888250000000006" lon="-2.1411900000000004">
        <time>2021-06-19T14:55:39+0000</time>
      </trkpt>
      <trkpt lat="40.887950000000004" lon="-2.14116">
        <time>2021-06-19T14:55:40+0000</time>
      </trkpt>
      <trkpt lat="40.88763" lon="-2.14113">
        <time>2021-06-19T14:55:41+0000</time>
      </trkpt>
      <trkpt lat="40.88731000000001" lon="-2.14107">
        <time>2021-06-19T14:55:42+0000</time>
      </trkpt>
      <trkpt lat="40.886990000000004" lon="-2.141">
        <time>2021-06-19T14:55:43+0000</time>
      </trkpt>
      <trkpt lat="40.886660000000006" lon="-2.1409100000000003">
        <time>2021-06-19T14:55:44+0000</time>
      </trkpt>
      <trkpt lat="40.88633" lon="-2.1408400000000003">
        <time>2021-06-19T14:55:45+0000</time>
      </trkpt>
      <trkpt lat="40.886" lon="-2.14075">
        <time>2021-06-19T14:55:46+0000</time>
      </trkpt>
      <trkpt lat="40.885690000000004" lon="-2.14068">
        <time>2021-06-19T14:55:47+0000</time>
      </trkpt>
      <trkpt lat="40.88539" lon="-2.14061">
        <time>2021-06-19T14:55:48+0000</time>
      </trkpt>
      <trkpt lat="40.8851" lon="-2.14054">
        <time>2021-06-19T14:55:49+0000</time>
      </trkpt>
      <trkpt lat="40.88481" lon="-2.14048">
        <time>2021-06-19T14:55:50+0000</time>
      </trkpt>
      <trkpt lat="40.88452" lon="-2.1404300000000003">
        <time>2021-06-19T14:55:51+0000</time>
      </trkpt>
      <trkpt lat="40.884220000000006" lon="-2.1403800000000004">
        <time>2021-06-19T14:55:52+0000</time>
      </trkpt>
      <trkpt lat="40.88393000000001" lon="-2.14033">
        <time>2021-06-19T14:55:53+0000</time>
      </trkpt>
      <trkpt lat="40.88364000000001" lon="-2.1402900000000002">
        <time>2021-06-19T14:55:54+0000</time>
      </trkpt>
      <trkpt lat="40.88335" lon="-2.14025">
        <time>2021-06-19T14:55:55+0000</time>
      </trkpt>
      <trkpt lat="40.883050000000004" lon="-2.1402200000000002">
        <time>2021-06-19T14:55:56+0000</time>
      </trkpt>
      <trkpt lat="40.88277" lon="-2.14018">
        <time>2021-06-19T14:55:57+0000</time>
      </trkpt>
      <trkpt lat="40.8825" lon="-2.14015">
        <time>2021-06-19T14:55:58+0000</time>
      </trkpt>
      <trkpt lat="40.882250000000006" lon="-2.14011">
        <time>2021-06-19T14:55:59+0000</time>
      </trkpt>
      <trkpt lat="40.882000000000005" lon="-2.14008">
        <time>2021-06-19T14:56:00+0000</time>
      </trkpt>
      <trkpt lat="40.88176" lon="-2.14005">
        <time>2021-06-19T14:56:01+0000</time>
      </trkpt>
      <trkpt lat="40.881530000000005" lon="-2.1400200000000003">
        <time>2021-06-19T14:56:02+0000</time>
      </trkpt>
      <trkpt lat="40.88129" lon="-2.13999">
        <time>2021-06-19T14:56:03+0000</time>
      </trkpt>
      <trkpt lat="40.881060000000005" lon="-2.1399700000000004">
        <time>2021-06-19T14:56:04+0000</time>
      </trkpt>
      <trkpt lat="40.88085" lon="-2.1399000000000004">
        <time>2021-06-19T14:56:05+0000</time>
      </trkpt>
      <trkpt lat="40.88064000000001" lon="-2.1399000000000004">
        <time>2021-06-19T14:56:06+0000</time>
      </trkpt>
      <trkpt lat="40.88044" lon="-2.13993">
        <time>2021-06-19T14:56:07+0000</time>
      </trkpt>
      <trkpt lat="40.880250000000004" lon="-2.14001">
        <time>2021-06-19T14:56:08+0000</time>
      </trkpt>
      <trkpt lat="40.88007" lon="-2.14014">
        <time>2021-06-19T14:56:09+0000</time>
      </trkpt>
      <trkpt lat="40.879900000000006" lon="-2.1403000000000003">
        <time>2021-06-19T14:56:10+0000</time>
      </trkpt>
      <trkpt lat="40.87975" lon="-2.1404900000000002">
        <time>2021-06-19T14:56:11+0000</time>
      </trkpt>
      <trkpt lat="40.879630000000006" lon="-2.1407100000000003">
        <time>2021-06-19T14:56:12+0000</time>
      </trkpt>
      <trkpt lat="40.87953" lon="-2.14095">
        <time>2021-06-19T14:56:13+0000</time>
      </trkpt>
      <trkpt lat="40.87946" lon="-2.1412">
        <time>2021-06-19T14:56:14+0000</time>
      </trkpt>
      <trkpt lat="40.879400000000004" lon="-2.14148">
        <time>2021-06-19T14:56:15+0000</time>
      </trkpt>
      <trkpt lat="40.87939" lon="-2.14177">
        <time>2021-06-19T14:56:16+0000</time>
      </trkpt>
      <trkpt lat="40.87939" lon="-2.1420600000000003">
        <time>2021-06-19T14:56:17+0000</time>
      </trkpt>
      <trkpt lat="40.879400000000004" lon="-2.14235">
        <time>2021-06-19T14:56:18+0000</time>
      </trkpt>
      <trkpt lat="40.879400000000004" lon="-2.14262">
        <time>2021-06-19T14:56:19+0000</time>
      </trkpt>
      <trkpt lat="40.879400000000004" lon="-2.1428700000000003">
        <time>2021-06-19T14:56:20+0000</time>
      </trkpt>
      <trkpt lat="40.87941" lon="-2.1431">
        <time>2021-06-19T14:56:21+0000</time>
      </trkpt>
      <trkpt lat="40.87942" lon="-2.14332">
        <time>2021-06-19T14:56:22+0000</time>
      </trkpt>
      <trkpt lat="40.87942" lon="-2.14351">
        <time>2021-06-19T14:56:23+0000</time>
      </trkpt>
      <trkpt lat="40.87942" lon="-2.1436800000000003">
        <time>2021-06-19T14:56:24+0000</time>
      </trkpt>
      <trkpt lat="40.87942" lon="-2.1438300000000003">
        <time>2021-06-19T14:56:25+0000</time>
      </trkpt>
      <trkpt lat="40.87942" lon="-2.14398">
        <time>2021-06-19T14:56:26+0000</time>
      </trkpt>
      <trkpt lat="40.87942" lon="-2.14411">
        <time>2021-06-19T14:56:27+0000</time>
      </trkpt>
      <trkpt lat="40.87942" lon="-2.1442400000000004">
        <time>2021-06-19T14:56:28+0000</time>
      </trkpt>
      <trkpt lat="40.879430000000006" lon="-2.1443600000000003">
        <time>2021-06-19T14:56:29+0000</time>
      </trkpt>
      <trkpt lat="40.879430000000006" lon="-2.14448">
        <time>2021-06-19T14:56:30+0000</time>
      </trkpt>
      <trkpt lat="40.87944" lon="-2.1446">
        <time>2021-06-19T14:56:31+0000</time>
      </trkpt>
      <trkpt lat="40.87944" lon="-2.1447100000000003">
        <time>2021-06-19T14:56:32+0000</time>
      </trkpt>
      <trkpt lat="40.87944" lon="-2.14479">
        <time>2021-06-19T14:56:33+0000</time>
      </trkpt>
      <trkpt lat="40.87944" lon="-2.14486">
        <time>2021-06-19T14:56:34+0000</time>
      </trkpt>
      <trkpt lat="40.87944" lon="-2.14493">
        <time>2021-06-19T14:56:35+0000</time>
      </trkpt>
      <trkpt lat="40.87944" lon="-2.1449700000000003">
        <time>2021-06-19T14:56:36+0000</time>
      </trkpt>
      <trkpt lat="40.87944" lon="-2.14501">
        <time>2021-06-19T14:56:37+0000</time>
      </trkpt>
      <trkpt lat="40.87944" lon="-2.14503">
        <time>2021-06-19T14:56:38+0000</time>
      </trkpt>
      <trkpt lat="40.87944" lon="-2.1451100000000003">
        <time>2021-06-19T14:58:09+0000</time>
      </trkpt>
      <trkpt lat="40.87944" lon="-2.1451700000000002">
        <time>2021-06-19T14:58:10+0000</time>
      </trkpt>
      <trkpt lat="40.87944" lon="-2.14523">
        <time>2021-06-19T14:58:11+0000</time>
      </trkpt>
      <trkpt lat="40.87944" lon="-2.14529">
        <time>2021-06-19T14:58:12+0000</time>
      </trkpt>
      <trkpt lat="40.879450000000006" lon="-2.14535">
        <time>2021-06-19T14:58:13+0000</time>
      </trkpt>
      <trkpt lat="40.879450000000006" lon="-2.14541">
        <time>2021-06-19T14:58:14+0000</time>
      </trkpt>
      <trkpt lat="40.879450000000006" lon="-2.14547">
        <time>2021-06-19T14:58:15+0000</time>
      </trkpt>
      <trkpt lat="40.879450000000006" lon="-2.14554">
        <time>2021-06-19T14:58:16+0000</time>
      </trkpt>
      <trkpt lat="40.87946" lon="-2.14561">
        <time>2021-06-19T14:58:17+0000</time>
      </trkpt>
      <trkpt lat="40.87946" lon="-2.14569">
        <time>2021-06-19T14:58:18+0000</time>
      </trkpt>
      <trkpt lat="40.879470000000005" lon="-2.14577">
        <time>2021-06-19T14:58:19+0000</time>
      </trkpt>
      <trkpt lat="40.87948" lon="-2.1458500000000003">
        <time>2021-06-19T14:58:20+0000</time>
      </trkpt>
      <trkpt lat="40.87951" lon="-2.1459300000000003">
        <time>2021-06-19T14:58:21+0000</time>
      </trkpt>
      <trkpt lat="40.879540000000006" lon="-2.14602">
        <time>2021-06-19T14:58:22+0000</time>
      </trkpt>
      <trkpt lat="40.87957" lon="-2.14611">
        <time>2021-06-19T14:58:23+0000</time>
      </trkpt>
      <trkpt lat="40.8796" lon="-2.1462100000000004">
        <time>2021-06-19T14:58:24+0000</time>
      </trkpt>
      <trkpt lat="40.87962" lon="-2.1463">
        <time>2021-06-19T14:58:25+0000</time>
      </trkpt>
      <trkpt lat="40.879650000000005" lon="-2.1463900000000002">
        <time>2021-06-19T14:58:26+0000</time>
      </trkpt>
      <trkpt lat="40.87968" lon="-2.14649">
        <time>2021-06-19T14:58:27+0000</time>
      </trkpt>
      <trkpt lat="40.87970000000001" lon="-2.14659">
        <time>2021-06-19T14:58:28+0000</time>
      </trkpt>
      <trkpt lat="40.87973" lon="-2.1467">
        <time>2021-06-19T14:58:29+0000</time>
      </trkpt>
      <trkpt lat="40.87975" lon="-2.1468000000000003">
        <time>2021-06-19T14:58:30+0000</time>
      </trkpt>
      <trkpt lat="40.879760000000005" lon="-2.14691">
        <time>2021-06-19T14:58:31+0000</time>
      </trkpt>
      <trkpt lat="40.87977" lon="-2.14704">
        <time>2021-06-19T14:58:32+0000</time>
      </trkpt>
      <trkpt lat="40.879760000000005" lon="-2.14718">
        <time>2021-06-19T14:58:33+0000</time>
      </trkpt>
      <trkpt lat="40.879740000000005" lon="-2.14732">
        <time>2021-06-19T14:58:34+0000</time>
      </trkpt>
      <trkpt lat="40.87973" lon="-2.14746">
        <time>2021-06-19T14:58:35+0000</time>
      </trkpt>
      <trkpt lat="40.87971" lon="-2.1476">
        <time>2021-06-19T14:58:36+0000</time>
      </trkpt>
      <trkpt lat="40.879690000000004" lon="-2.14774">
        <time>2021-06-19T14:58:37+0000</time>
      </trkpt>
      <trkpt lat="40.87968" lon="-2.14787">
        <time>2021-06-19T14:58:38+0000</time>
      </trkpt>
      <trkpt lat="40.879670000000004" lon="-2.148">
        <time>2021-06-19T14:58:39+0000</time>
      </trkpt>
      <trkpt lat="40.87966" lon="-2.14813">
        <time>2021-06-19T14:58:40+0000</time>
      </trkpt>
      <trkpt lat="40.879650000000005" lon="-2.14826">
        <time>2021-06-19T14:58:41+0000</time>
      </trkpt>
      <trkpt lat="40.87964" lon="-2.14839">
        <time>2021-06-19T14:58:42+0000</time>
      </trkpt>
      <trkpt lat="40.87964" lon="-2.14853">
        <time>2021-06-19T14:58:43+0000</time>
      </trkpt>
      <trkpt lat="40.879630000000006" lon="-2.14866">
        <time>2021-06-19T14:58:44+0000</time>
      </trkpt>
      <trkpt lat="40.87964" lon="-2.1488">
        <time>2021-06-19T14:58:45+0000</time>
      </trkpt>
      <trkpt lat="40.87964" lon="-2.14893">
        <time>2021-06-19T14:58:46+0000</time>
      </trkpt>
      <trkpt lat="40.87964" lon="-2.14907">
        <time>2021-06-19T14:58:47+0000</time>
      </trkpt>
      <trkpt lat="40.87964" lon="-2.1492">
        <time>2021-06-19T14:58:48+0000</time>
      </trkpt>
      <trkpt lat="40.87964" lon="-2.14933">
        <time>2021-06-19T14:58:49+0000</time>
      </trkpt>
      <trkpt lat="40.879650000000005" lon="-2.14947">
        <time>2021-06-19T14:58:50+0000</time>
      </trkpt>
      <trkpt lat="40.879650000000005" lon="-2.1496">
        <time>2021-06-19T14:58:51+0000</time>
      </trkpt>
      <trkpt lat="40.879650000000005" lon="-2.1497300000000004">
        <time>2021-06-19T14:58:52+0000</time>
      </trkpt>
      <trkpt lat="40.879650000000005" lon="-2.1498500000000003">
        <time>2021-06-19T14:58:53+0000</time>
      </trkpt>
      <trkpt lat="40.879650000000005" lon="-2.1499800000000002">
        <time>2021-06-19T14:58:54+0000</time>
      </trkpt>
      <trkpt lat="40.879650000000005" lon="-2.1501200000000003">
        <time>2021-06-19T14:58:55+0000</time>
      </trkpt>
      <trkpt lat="40.87964" lon="-2.1502600000000003">
        <time>2021-06-19T14:58:56+0000</time>
      </trkpt>
      <trkpt lat="40.879630000000006" lon="-2.1504000000000003">
        <time>2021-06-19T14:58:57+0000</time>
      </trkpt>
      <trkpt lat="40.87962" lon="-2.1505300000000003">
        <time>2021-06-19T14:58:58+0000</time>
      </trkpt>
      <trkpt lat="40.87959" lon="-2.1506800000000004">
        <time>2021-06-19T14:58:59+0000</time>
      </trkpt>
      <trkpt lat="40.87957" lon="-2.1508100000000003">
        <time>2021-06-19T14:59:00+0000</time>
      </trkpt>
      <trkpt lat="40.879540000000006" lon="-2.1509400000000003">
        <time>2021-06-19T14:59:01+0000</time>
      </trkpt>
      <trkpt lat="40.87952000000001" lon="-2.1510800000000003">
        <time>2021-06-19T14:59:02+0000</time>
      </trkpt>
      <trkpt lat="40.879490000000004" lon="-2.1512100000000003">
        <time>2021-06-19T14:59:03+0000</time>
      </trkpt>
      <trkpt lat="40.87946" lon="-2.1513500000000003">
        <time>2021-06-19T14:59:04+0000</time>
      </trkpt>
      <trkpt lat="40.879430000000006" lon="-2.1514800000000003">
        <time>2021-06-19T14:59:05+0000</time>
      </trkpt>
      <trkpt lat="40.879400000000004" lon="-2.1516100000000002">
        <time>2021-06-19T14:59:06+0000</time>
      </trkpt>
      <trkpt lat="40.879380000000005" lon="-2.1517500000000003">
        <time>2021-06-19T14:59:07+0000</time>
      </trkpt>
      <trkpt lat="40.879360000000005" lon="-2.1518900000000003">
        <time>2021-06-19T14:59:08+0000</time>
      </trkpt>
      <trkpt lat="40.87933" lon="-2.1520200000000003">
        <time>2021-06-19T14:59:09+0000</time>
      </trkpt>
      <trkpt lat="40.879310000000004" lon="-2.1521500000000002">
        <time>2021-06-19T14:59:10+0000</time>
      </trkpt>
      <trkpt lat="40.87928" lon="-2.15228">
        <time>2021-06-19T14:59:11+0000</time>
      </trkpt>
      <trkpt lat="40.879250000000006" lon="-2.15241">
        <time>2021-06-19T14:59:12+0000</time>
      </trkpt>
      <trkpt lat="40.87923000000001" lon="-2.15254">
        <time>2021-06-19T14:59:13+0000</time>
      </trkpt>
      <trkpt lat="40.879200000000004" lon="-2.15266">
        <time>2021-06-19T14:59:14+0000</time>
      </trkpt>
      <trkpt lat="40.87917" lon="-2.15279">
        <time>2021-06-19T14:59:15+0000</time>
      </trkpt>
      <trkpt lat="40.87914000000001" lon="-2.1529100000000003">
        <time>2021-06-19T14:59:16+0000</time>
      </trkpt>
      <trkpt lat="40.87912" lon="-2.15302">
        <time>2021-06-19T14:59:17+0000</time>
      </trkpt>
      <trkpt lat="40.879090000000005" lon="-2.15313">
        <time>2021-06-19T14:59:18+0000</time>
      </trkpt>
      <trkpt lat="40.879070000000006" lon="-2.15323">
        <time>2021-06-19T14:59:19+0000</time>
      </trkpt>
      <trkpt lat="40.87901" lon="-2.1533200000000003">
        <time>2021-06-19T14:59:20+0000</time>
      </trkpt>
      <trkpt lat="40.87897" lon="-2.15342">
        <time>2021-06-19T14:59:21+0000</time>
      </trkpt>
      <trkpt lat="40.87892" lon="-2.1535200000000003">
        <time>2021-06-19T14:59:22+0000</time>
      </trkpt>
      <trkpt lat="40.878870000000006" lon="-2.15362">
        <time>2021-06-19T14:59:23+0000</time>
      </trkpt>
      <trkpt lat="40.878820000000005" lon="-2.1537200000000003">
        <time>2021-06-19T14:59:24+0000</time>
      </trkpt>
      <trkpt lat="40.87877" lon="-2.15382">
        <time>2021-06-19T14:59:25+0000</time>
      </trkpt>
      <trkpt lat="40.878710000000005" lon="-2.1539200000000003">
        <time>2021-06-19T14:59:26+0000</time>
      </trkpt>
      <trkpt lat="40.87865" lon="-2.15401">
        <time>2021-06-19T14:59:27+0000</time>
      </trkpt>
      <trkpt lat="40.878600000000006" lon="-2.1541">
        <time>2021-06-19T14:59:28+0000</time>
      </trkpt>
      <trkpt lat="40.87854" lon="-2.15421">
        <time>2021-06-19T14:59:29+0000</time>
      </trkpt>
      <trkpt lat="40.87848" lon="-2.15431">
        <time>2021-06-19T14:59:30+0000</time>
      </trkpt>
      <trkpt lat="40.87843" lon="-2.1544100000000004">
        <time>2021-06-19T14:59:31+0000</time>
      </trkpt>
      <trkpt lat="40.87836" lon="-2.1545">
        <time>2021-06-19T14:59:32+0000</time>
      </trkpt>
      <trkpt lat="40.8783" lon="-2.1546000000000003">
        <time>2021-06-19T14:59:33+0000</time>
      </trkpt>
      <trkpt lat="40.878240000000005" lon="-2.15469">
        <time>2021-06-19T14:59:34+0000</time>
      </trkpt>
      <trkpt lat="40.87818" lon="-2.15478">
        <time>2021-06-19T14:59:35+0000</time>
      </trkpt>
      <trkpt lat="40.87812" lon="-2.1548800000000004">
        <time>2021-06-19T14:59:36+0000</time>
      </trkpt>
      <trkpt lat="40.878060000000005" lon="-2.15498">
        <time>2021-06-19T14:59:37+0000</time>
      </trkpt>
      <trkpt lat="40.878" lon="-2.1550900000000004">
        <time>2021-06-19T14:59:38+0000</time>
      </trkpt>
      <trkpt lat="40.877950000000006" lon="-2.15519">
        <time>2021-06-19T14:59:39+0000</time>
      </trkpt>
      <trkpt lat="40.877900000000004" lon="-2.1553">
        <time>2021-06-19T14:59:40+0000</time>
      </trkpt>
      <trkpt lat="40.87785" lon="-2.1554">
        <time>2021-06-19T14:59:41+0000</time>
      </trkpt>
      <trkpt lat="40.877810000000004" lon="-2.15551">
        <time>2021-06-19T14:59:42+0000</time>
      </trkpt>
      <trkpt lat="40.87776" lon="-2.1556100000000002">
        <time>2021-06-19T14:59:43+0000</time>
      </trkpt>
      <trkpt lat="40.87771" lon="-2.15572">
        <time>2021-06-19T14:59:44+0000</time>
      </trkpt>
      <trkpt lat="40.877660000000006" lon="-2.1558200000000003">
        <time>2021-06-19T14:59:45+0000</time>
      </trkpt>
      <trkpt lat="40.877610000000004" lon="-2.15592">
        <time>2021-06-19T14:59:46+0000</time>
      </trkpt>
      <trkpt lat="40.87756" lon="-2.1560200000000003">
        <time>2021-06-19T14:59:47+0000</time>
      </trkpt>
      <trkpt lat="40.87751" lon="-2.15612">
        <time>2021-06-19T14:59:48+0000</time>
      </trkpt>
      <trkpt lat="40.87747" lon="-2.1562200000000002">
        <time>2021-06-19T14:59:49+0000</time>
      </trkpt>
      <trkpt lat="40.87747" lon="-2.15634">
        <time>2021-06-19T14:59:50+0000</time>
      </trkpt>
      <trkpt lat="40.87747" lon="-2.15646">
        <time>2021-06-19T14:59:51+0000</time>
      </trkpt>
      <trkpt lat="40.877500000000005" lon="-2.1565800000000004">
        <time>2021-06-19T14:59:52+0000</time>
      </trkpt>
      <trkpt lat="40.87754" lon="-2.15669">
        <time>2021-06-19T14:59:53+0000</time>
      </trkpt>
      <trkpt lat="40.877590000000005" lon="-2.1568300000000002">
        <time>2021-06-19T14:59:54+0000</time>
      </trkpt>
      <trkpt lat="40.87764000000001" lon="-2.1569800000000003">
        <time>2021-06-19T14:59:55+0000</time>
      </trkpt>
      <trkpt lat="40.87767" lon="-2.15713">
        <time>2021-06-19T14:59:56+0000</time>
      </trkpt>
      <trkpt lat="40.87769" lon="-2.15728">
        <time>2021-06-19T14:59:57+0000</time>
      </trkpt>
      <trkpt lat="40.87767" lon="-2.1574400000000002">
        <time>2021-06-19T14:59:58+0000</time>
      </trkpt>
      <trkpt lat="40.87764000000001" lon="-2.1575900000000003">
        <time>2021-06-19T14:59:59+0000</time>
      </trkpt>
      <trkpt lat="40.877590000000005" lon="-2.15775">
        <time>2021-06-19T15:00:00+0000</time>
      </trkpt>
      <trkpt lat="40.87754" lon="-2.1579">
        <time>2021-06-19T15:00:01+0000</time>
      </trkpt>
      <trkpt lat="40.87747" lon="-2.15804">
        <time>2021-06-19T15:00:02+0000</time>
      </trkpt>
      <trkpt lat="40.87738" lon="-2.15816">
        <time>2021-06-19T15:00:03+0000</time>
      </trkpt>
      <trkpt lat="40.877280000000006" lon="-2.1582600000000003">
        <time>2021-06-19T15:00:04+0000</time>
      </trkpt>
      <trkpt lat="40.87718" lon="-2.15836">
        <time>2021-06-19T15:00:05+0000</time>
      </trkpt>
      <trkpt lat="40.87709" lon="-2.15849">
        <time>2021-06-19T15:00:06+0000</time>
      </trkpt>
      <trkpt lat="40.87702" lon="-2.15863">
        <time>2021-06-19T15:00:07+0000</time>
      </trkpt>
      <trkpt lat="40.876960000000004" lon="-2.15878">
        <time>2021-06-19T15:00:08+0000</time>
      </trkpt>
      <trkpt lat="40.876920000000005" lon="-2.1589500000000004">
        <time>2021-06-19T15:00:09+0000</time>
      </trkpt>
      <trkpt lat="40.87689" lon="-2.15913">
        <time>2021-06-19T15:00:10+0000</time>
      </trkpt>
      <trkpt lat="40.87686" lon="-2.15931">
        <time>2021-06-19T15:00:11+0000</time>
      </trkpt>
      <trkpt lat="40.876810000000006" lon="-2.1595">
        <time>2021-06-19T15:00:12+0000</time>
      </trkpt>
      <trkpt lat="40.87677" lon="-2.1596800000000003">
        <time>2021-06-19T15:00:13+0000</time>
      </trkpt>
      <trkpt lat="40.876720000000006" lon="-2.15986">
        <time>2021-06-19T15:00:14+0000</time>
      </trkpt>
      <trkpt lat="40.87668" lon="-2.16004">
        <time>2021-06-19T15:00:15+0000</time>
      </trkpt>
      <trkpt lat="40.87664" lon="-2.16021">
        <time>2021-06-19T15:00:16+0000</time>
      </trkpt>
      <trkpt lat="40.87659" lon="-2.1603700000000003">
        <time>2021-06-19T15:00:17+0000</time>
      </trkpt>
      <trkpt lat="40.876540000000006" lon="-2.16052">
        <time>2021-06-19T15:00:18+0000</time>
      </trkpt>
      <trkpt lat="40.876490000000004" lon="-2.16066">
        <time>2021-06-19T15:00:19+0000</time>
      </trkpt>
      <trkpt lat="40.876430000000006" lon="-2.16079">
        <time>2021-06-19T15:00:20+0000</time>
      </trkpt>
      <trkpt lat="40.87635" lon="-2.1609100000000003">
        <time>2021-06-19T15:00:21+0000</time>
      </trkpt>
      <trkpt lat="40.876250000000006" lon="-2.16102">
        <time>2021-06-19T15:00:22+0000</time>
      </trkpt>
      <trkpt lat="40.87613" lon="-2.16113">
        <time>2021-06-19T15:00:23+0000</time>
      </trkpt>
      <trkpt lat="40.87601" lon="-2.16126">
        <time>2021-06-19T15:00:24+0000</time>
      </trkpt>
      <trkpt lat="40.87588" lon="-2.1613900000000004">
        <time>2021-06-19T15:00:25+0000</time>
      </trkpt>
      <trkpt lat="40.875750000000004" lon="-2.1615">
        <time>2021-06-19T15:00:26+0000</time>
      </trkpt>
      <trkpt lat="40.875640000000004" lon="-2.16162">
        <time>2021-06-19T15:00:27+0000</time>
      </trkpt>
      <trkpt lat="40.87552" lon="-2.1617300000000004">
        <time>2021-06-19T15:00:28+0000</time>
      </trkpt>
      <trkpt lat="40.87541" lon="-2.16184">
        <time>2021-06-19T15:00:29+0000</time>
      </trkpt>
      <trkpt lat="40.8753" lon="-2.16195">
        <time>2021-06-19T15:00:30+0000</time>
      </trkpt>
      <trkpt lat="40.87521" lon="-2.1620600000000003">
        <time>2021-06-19T15:00:31+0000</time>
      </trkpt>
      <trkpt lat="40.87514" lon="-2.16218">
        <time>2021-06-19T15:00:32+0000</time>
      </trkpt>
      <trkpt lat="40.875080000000004" lon="-2.1623">
        <time>2021-06-19T15:00:33+0000</time>
      </trkpt>
      <trkpt lat="40.87503" lon="-2.16244">
        <time>2021-06-19T15:00:34+0000</time>
      </trkpt>
      <trkpt lat="40.874990000000004" lon="-2.16258">
        <time>2021-06-19T15:00:35+0000</time>
      </trkpt>
      <trkpt lat="40.87496" lon="-2.1627">
        <time>2021-06-19T15:00:36+0000</time>
      </trkpt>
      <trkpt lat="40.87492" lon="-2.1628100000000003">
        <time>2021-06-19T15:00:37+0000</time>
      </trkpt>
      <trkpt lat="40.874880000000005" lon="-2.1629400000000003">
        <time>2021-06-19T15:00:38+0000</time>
      </trkpt>
      <trkpt lat="40.874840000000006" lon="-2.1630800000000003">
        <time>2021-06-19T15:00:39+0000</time>
      </trkpt>
      <trkpt lat="40.874790000000004" lon="-2.16323">
        <time>2021-06-19T15:00:40+0000</time>
      </trkpt>
      <trkpt lat="40.87473000000001" lon="-2.16337">
        <time>2021-06-19T15:00:41+0000</time>
      </trkpt>
      <trkpt lat="40.87464000000001" lon="-2.1634800000000003">
        <time>2021-06-19T15:00:42+0000</time>
      </trkpt>
      <trkpt lat="40.874550000000006" lon="-2.16358">
        <time>2021-06-19T15:00:43+0000</time>
      </trkpt>
      <trkpt lat="40.87444" lon="-2.1636800000000003">
        <time>2021-06-19T15:00:44+0000</time>
      </trkpt>
      <trkpt lat="40.87433" lon="-2.1637500000000003">
        <time>2021-06-19T15:00:45+0000</time>
      </trkpt>
      <trkpt lat="40.874210000000005" lon="-2.16379">
        <time>2021-06-19T15:00:46+0000</time>
      </trkpt>
      <trkpt lat="40.874080000000006" lon="-2.1638">
        <time>2021-06-19T15:00:47+0000</time>
      </trkpt>
      <trkpt lat="40.873960000000004" lon="-2.1638200000000003">
        <time>2021-06-19T15:00:48+0000</time>
      </trkpt>
      <trkpt lat="40.87384" lon="-2.16386">
        <time>2021-06-19T15:00:49+0000</time>
      </trkpt>
      <trkpt lat="40.873720000000006" lon="-2.16391">
        <time>2021-06-19T15:00:50+0000</time>
      </trkpt>
      <trkpt lat="40.873630000000006" lon="-2.1639700000000004">
        <time>2021-06-19T15:00:51+0000</time>
      </trkpt>
      <trkpt lat="40.87355" lon="-2.1640300000000003">
        <time>2021-06-19T15:00:52+0000</time>
      </trkpt>
      <trkpt lat="40.87348" lon="-2.16412">
        <time>2021-06-19T15:00:53+0000</time>
      </trkpt>
      <trkpt lat="40.873430000000006" lon="-2.1642200000000003">
        <time>2021-06-19T15:00:54+0000</time>
      </trkpt>
      <trkpt lat="40.873400000000004" lon="-2.16433">
        <time>2021-06-19T15:00:55+0000</time>
      </trkpt>
      <trkpt lat="40.87337" lon="-2.16447">
        <time>2021-06-19T15:00:56+0000</time>
      </trkpt>
      <trkpt lat="40.87332000000001" lon="-2.16461">
        <time>2021-06-19T15:00:57+0000</time>
      </trkpt>
      <trkpt lat="40.87326" lon="-2.16474">
        <time>2021-06-19T15:00:58+0000</time>
      </trkpt>
      <trkpt lat="40.873180000000005" lon="-2.16486">
        <time>2021-06-19T15:00:59+0000</time>
      </trkpt>
      <trkpt lat="40.8731" lon="-2.1649700000000003">
        <time>2021-06-19T15:01:00+0000</time>
      </trkpt>
      <trkpt lat="40.873020000000004" lon="-2.16507">
        <time>2021-06-19T15:01:01+0000</time>
      </trkpt>
      <trkpt lat="40.87294" lon="-2.16516">
        <time>2021-06-19T15:01:02+0000</time>
      </trkpt>
      <trkpt lat="40.87285000000001" lon="-2.16522">
        <time>2021-06-19T15:01:03+0000</time>
      </trkpt>
      <trkpt lat="40.87276000000001" lon="-2.1652400000000003">
        <time>2021-06-19T15:01:04+0000</time>
      </trkpt>
      <trkpt lat="40.87265" lon="-2.1652400000000003">
        <time>2021-06-19T15:01:05+0000</time>
      </trkpt>
      <trkpt lat="40.872530000000005" lon="-2.16526">
        <time>2021-06-19T15:01:06+0000</time>
      </trkpt>
      <trkpt lat="40.87241" lon="-2.1652400000000003">
        <time>2021-06-19T15:01:07+0000</time>
      </trkpt>
      <trkpt lat="40.87229000000001" lon="-2.16526">
        <time>2021-06-19T15:01:08+0000</time>
      </trkpt>
      <trkpt lat="40.87218" lon="-2.16528">
        <time>2021-06-19T15:01:09+0000</time>
      </trkpt>
      <trkpt lat="40.87209" lon="-2.16534">
        <time>2021-06-19T15:01:10+0000</time>
      </trkpt>
      <trkpt lat="40.87201" lon="-2.16541">
        <time>2021-06-19T15:01:11+0000</time>
      </trkpt>
      <trkpt lat="40.87192" lon="-2.16547">
        <time>2021-06-19T15:01:12+0000</time>
      </trkpt>
      <trkpt lat="40.871860000000005" lon="-2.16557">
        <time>2021-06-19T15:01:13+0000</time>
      </trkpt>
      <trkpt lat="40.871790000000004" lon="-2.16567">
        <time>2021-06-19T15:01:14+0000</time>
      </trkpt>
      <trkpt lat="40.87172" lon="-2.1657800000000003">
        <time>2021-06-19T15:01:15+0000</time>
      </trkpt>
      <trkpt lat="40.87165" lon="-2.16588">
        <time>2021-06-19T15:01:16+0000</time>
      </trkpt>
      <trkpt lat="40.87158" lon="-2.16602">
        <time>2021-06-19T15:01:17+0000</time>
      </trkpt>
      <trkpt lat="40.871520000000004" lon="-2.16616">
        <time>2021-06-19T15:01:18+0000</time>
      </trkpt>
      <trkpt lat="40.87147" lon="-2.16631">
        <time>2021-06-19T15:01:19+0000</time>
      </trkpt>
      <trkpt lat="40.87142" lon="-2.1664600000000003">
        <time>2021-06-19T15:01:20+0000</time>
      </trkpt>
      <trkpt lat="40.87136" lon="-2.1666100000000004">
        <time>2021-06-19T15:01:21+0000</time>
      </trkpt>
      <trkpt lat="40.87131" lon="-2.16676">
        <time>2021-06-19T15:01:22+0000</time>
      </trkpt>
      <trkpt lat="40.87125" lon="-2.1669">
        <time>2021-06-19T15:01:23+0000</time>
      </trkpt>
      <trkpt lat="40.8712" lon="-2.16704">
        <time>2021-06-19T15:01:24+0000</time>
      </trkpt>
      <trkpt lat="40.871140000000004" lon="-2.16717">
        <time>2021-06-19T15:01:25+0000</time>
      </trkpt>
      <trkpt lat="40.87109" lon="-2.16731">
        <time>2021-06-19T15:01:26+0000</time>
      </trkpt>
      <trkpt lat="40.87104" lon="-2.16745">
        <time>2021-06-19T15:01:27+0000</time>
      </trkpt>
      <trkpt lat="40.870990000000006" lon="-2.16759">
        <time>2021-06-19T15:01:28+0000</time>
      </trkpt>
      <trkpt lat="40.870940000000004" lon="-2.16772">
        <time>2021-06-19T15:01:29+0000</time>
      </trkpt>
      <trkpt lat="40.870900000000006" lon="-2.16785">
        <time>2021-06-19T15:01:30+0000</time>
      </trkpt>
      <trkpt lat="40.870850000000004" lon="-2.1679700000000004">
        <time>2021-06-19T15:01:31+0000</time>
      </trkpt>
      <trkpt lat="40.87082" lon="-2.1681000000000004">
        <time>2021-06-19T15:01:32+0000</time>
      </trkpt>
      <trkpt lat="40.8708" lon="-2.1682300000000003">
        <time>2021-06-19T15:01:33+0000</time>
      </trkpt>
      <trkpt lat="40.870810000000006" lon="-2.1683600000000003">
        <time>2021-06-19T15:01:34+0000</time>
      </trkpt>
      <trkpt lat="40.870830000000005" lon="-2.16848">
        <time>2021-06-19T15:01:35+0000</time>
      </trkpt>
      <trkpt lat="40.87086" lon="-2.1686">
        <time>2021-06-19T15:01:36+0000</time>
      </trkpt>
      <trkpt lat="40.87089" lon="-2.16872">
        <time>2021-06-19T15:01:37+0000</time>
      </trkpt>
      <trkpt lat="40.87093" lon="-2.1688300000000003">
        <time>2021-06-19T15:01:38+0000</time>
      </trkpt>
      <trkpt lat="40.87097" lon="-2.16895">
        <time>2021-06-19T15:01:39+0000</time>
      </trkpt>
      <trkpt lat="40.871" lon="-2.16908">
        <time>2021-06-19T15:01:40+0000</time>
      </trkpt>
      <trkpt lat="40.87104" lon="-2.16922">
        <time>2021-06-19T15:01:41+0000</time>
      </trkpt>
      <trkpt lat="40.871080000000006" lon="-2.16934">
        <time>2021-06-19T15:01:42+0000</time>
      </trkpt>
      <trkpt lat="40.871140000000004" lon="-2.16948">
        <time>2021-06-19T15:01:43+0000</time>
      </trkpt>
      <trkpt lat="40.8712" lon="-2.16961">
        <time>2021-06-19T15:01:44+0000</time>
      </trkpt>
      <trkpt lat="40.87127" lon="-2.16975">
        <time>2021-06-19T15:01:45+0000</time>
      </trkpt>
      <trkpt lat="40.871340000000004" lon="-2.16988">
        <time>2021-06-19T15:01:46+0000</time>
      </trkpt>
      <trkpt lat="40.871410000000004" lon="-2.17002">
        <time>2021-06-19T15:01:47+0000</time>
      </trkpt>
      <trkpt lat="40.87147" lon="-2.17017">
        <time>2021-06-19T15:01:48+0000</time>
      </trkpt>
      <trkpt lat="40.87153" lon="-2.17031">
        <time>2021-06-19T15:01:49+0000</time>
      </trkpt>
      <trkpt lat="40.871590000000005" lon="-2.17045">
        <time>2021-06-19T15:01:50+0000</time>
      </trkpt>
      <trkpt lat="40.871640000000006" lon="-2.1705900000000002">
        <time>2021-06-19T15:01:51+0000</time>
      </trkpt>
      <trkpt lat="40.87171" lon="-2.17072">
        <time>2021-06-19T15:01:52+0000</time>
      </trkpt>
      <trkpt lat="40.87176" lon="-2.1708600000000002">
        <time>2021-06-19T15:01:53+0000</time>
      </trkpt>
      <trkpt lat="40.87181" lon="-2.1710000000000003">
        <time>2021-06-19T15:01:54+0000</time>
      </trkpt>
      <trkpt lat="40.87183" lon="-2.17116">
        <time>2021-06-19T15:01:55+0000</time>
      </trkpt>
      <trkpt lat="40.871860000000005" lon="-2.17132">
        <time>2021-06-19T15:01:56+0000</time>
      </trkpt>
      <trkpt lat="40.871880000000004" lon="-2.1714900000000004">
        <time>2021-06-19T15:01:57+0000</time>
      </trkpt>
      <trkpt lat="40.871880000000004" lon="-2.17165">
        <time>2021-06-19T15:01:58+0000</time>
      </trkpt>
      <trkpt lat="40.871880000000004" lon="-2.1718">
        <time>2021-06-19T15:01:59+0000</time>
      </trkpt>
      <trkpt lat="40.871880000000004" lon="-2.1719500000000003">
        <time>2021-06-19T15:02:00+0000</time>
      </trkpt>
      <trkpt lat="40.87187" lon="-2.1720800000000002">
        <time>2021-06-19T15:02:01+0000</time>
      </trkpt>
      <trkpt lat="40.871880000000004" lon="-2.1722">
        <time>2021-06-19T15:02:02+0000</time>
      </trkpt>
      <trkpt lat="40.87191000000001" lon="-2.17231">
        <time>2021-06-19T15:02:03+0000</time>
      </trkpt>
      <trkpt lat="40.871950000000005" lon="-2.17239">
        <time>2021-06-19T15:02:04+0000</time>
      </trkpt>
      <trkpt lat="40.872" lon="-2.17247">
        <time>2021-06-19T15:02:05+0000</time>
      </trkpt>
      <trkpt lat="40.872060000000005" lon="-2.17255">
        <time>2021-06-19T15:02:06+0000</time>
      </trkpt>
      <trkpt lat="40.87212" lon="-2.17265">
        <time>2021-06-19T15:02:07+0000</time>
      </trkpt>
      <trkpt lat="40.87218" lon="-2.17275">
        <time>2021-06-19T15:02:08+0000</time>
      </trkpt>
      <trkpt lat="40.872240000000005" lon="-2.17286">
        <time>2021-06-19T15:02:09+0000</time>
      </trkpt>
      <trkpt lat="40.872310000000006" lon="-2.1729600000000002">
        <time>2021-06-19T15:02:10+0000</time>
      </trkpt>
      <trkpt lat="40.872370000000004" lon="-2.17309">
        <time>2021-06-19T15:02:11+0000</time>
      </trkpt>
      <trkpt lat="40.87243" lon="-2.17321">
        <time>2021-06-19T15:02:12+0000</time>
      </trkpt>
      <trkpt lat="40.87248" lon="-2.17335">
        <time>2021-06-19T15:02:13+0000</time>
      </trkpt>
      <trkpt lat="40.87254" lon="-2.17348">
        <time>2021-06-19T15:02:14+0000</time>
      </trkpt>
      <trkpt lat="40.87261" lon="-2.17361">
        <time>2021-06-19T15:02:15+0000</time>
      </trkpt>
      <trkpt lat="40.872690000000006" lon="-2.1737300000000004">
        <time>2021-06-19T15:02:16+0000</time>
      </trkpt>
      <trkpt lat="40.87277" lon="-2.17384">
        <time>2021-06-19T15:02:17+0000</time>
      </trkpt>
      <trkpt lat="40.872840000000004" lon="-2.17397">
        <time>2021-06-19T15:02:18+0000</time>
      </trkpt>
      <trkpt lat="40.8729" lon="-2.17409">
        <time>2021-06-19T15:02:19+0000</time>
      </trkpt>
      <trkpt lat="40.87295" lon="-2.17422">
        <time>2021-06-19T15:02:20+0000</time>
      </trkpt>
      <trkpt lat="40.873000000000005" lon="-2.17435">
        <time>2021-06-19T15:02:21+0000</time>
      </trkpt>
      <trkpt lat="40.873050000000006" lon="-2.17448">
        <time>2021-06-19T15:02:22+0000</time>
      </trkpt>
      <trkpt lat="40.8731" lon="-2.17462">
        <time>2021-06-19T15:02:23+0000</time>
      </trkpt>
      <trkpt lat="40.87314000000001" lon="-2.17477">
        <time>2021-06-19T15:02:24+0000</time>
      </trkpt>
      <trkpt lat="40.87319" lon="-2.17491">
        <time>2021-06-19T15:02:25+0000</time>
      </trkpt>
      <trkpt lat="40.87321" lon="-2.1750700000000003">
        <time>2021-06-19T15:02:26+0000</time>
      </trkpt>
      <trkpt lat="40.87322" lon="-2.17523">
        <time>2021-06-19T15:02:27+0000</time>
      </trkpt>
      <trkpt lat="40.87324" lon="-2.17539">
        <time>2021-06-19T15:02:28+0000</time>
      </trkpt>
      <trkpt lat="40.873250000000006" lon="-2.1755600000000004">
        <time>2021-06-19T15:02:29+0000</time>
      </trkpt>
      <trkpt lat="40.87326" lon="-2.17573">
        <time>2021-06-19T15:02:30+0000</time>
      </trkpt>
      <trkpt lat="40.873270000000005" lon="-2.17592">
        <time>2021-06-19T15:02:31+0000</time>
      </trkpt>
      <trkpt lat="40.873290000000004" lon="-2.1761000000000004">
        <time>2021-06-19T15:02:32+0000</time>
      </trkpt>
      <trkpt lat="40.873310000000004" lon="-2.17628">
        <time>2021-06-19T15:02:33+0000</time>
      </trkpt>
      <trkpt lat="40.87332000000001" lon="-2.17647">
        <time>2021-06-19T15:02:34+0000</time>
      </trkpt>
      <trkpt lat="40.873340000000006" lon="-2.17666">
        <time>2021-06-19T15:02:35+0000</time>
      </trkpt>
      <trkpt lat="40.87335" lon="-2.1768500000000004">
        <time>2021-06-19T15:02:36+0000</time>
      </trkpt>
      <trkpt lat="40.87337" lon="-2.1770400000000003">
        <time>2021-06-19T15:02:37+0000</time>
      </trkpt>
      <trkpt lat="40.87339" lon="-2.17723">
        <time>2021-06-19T15:02:38+0000</time>
      </trkpt>
      <trkpt lat="40.873400000000004" lon="-2.17742">
        <time>2021-06-19T15:02:39+0000</time>
      </trkpt>
      <trkpt lat="40.87342" lon="-2.17761">
        <time>2021-06-19T15:02:40+0000</time>
      </trkpt>
      <trkpt lat="40.87344" lon="-2.1778">
        <time>2021-06-19T15:02:41+0000</time>
      </trkpt>
      <trkpt lat="40.873450000000005" lon="-2.1779900000000003">
        <time>2021-06-19T15:02:42+0000</time>
      </trkpt>
      <trkpt lat="40.873470000000005" lon="-2.1781900000000003">
        <time>2021-06-19T15:02:43+0000</time>
      </trkpt>
      <trkpt lat="40.873490000000004" lon="-2.17838">
        <time>2021-06-19T15:02:44+0000</time>
      </trkpt>
      <trkpt lat="40.8735" lon="-2.17857">
        <time>2021-06-19T15:02:45+0000</time>
      </trkpt>
      <trkpt lat="40.873520000000006" lon="-2.17875">
        <time>2021-06-19T15:02:46+0000</time>
      </trkpt>
      <trkpt lat="40.87353" lon="-2.17892">
        <time>2021-06-19T15:02:47+0000</time>
      </trkpt>
      <trkpt lat="40.873540000000006" lon="-2.1790800000000004">
        <time>2021-06-19T15:02:48+0000</time>
      </trkpt>
      <trkpt lat="40.87355" lon="-2.17924">
        <time>2021-06-19T15:02:49+0000</time>
      </trkpt>
      <trkpt lat="40.873560000000005" lon="-2.17939">
        <time>2021-06-19T15:02:50+0000</time>
      </trkpt>
      <trkpt lat="40.87357" lon="-2.1795500000000003">
        <time>2021-06-19T15:02:51+0000</time>
      </trkpt>
      <trkpt lat="40.87355" lon="-2.1797">
        <time>2021-06-19T15:02:52+0000</time>
      </trkpt>
      <trkpt lat="40.873490000000004" lon="-2.17984">
        <time>2021-06-19T15:02:53+0000</time>
      </trkpt>
      <trkpt lat="40.87344" lon="-2.17998">
        <time>2021-06-19T15:02:54+0000</time>
      </trkpt>
      <trkpt lat="40.873400000000004" lon="-2.18013">
        <time>2021-06-19T15:02:55+0000</time>
      </trkpt>
      <trkpt lat="40.87339" lon="-2.18028">
        <time>2021-06-19T15:02:56+0000</time>
      </trkpt>
      <trkpt lat="40.87339" lon="-2.1804400000000004">
        <time>2021-06-19T15:02:57+0000</time>
      </trkpt>
      <trkpt lat="40.87337" lon="-2.1806">
        <time>2021-06-19T15:02:58+0000</time>
      </trkpt>
      <trkpt lat="40.873340000000006" lon="-2.1807700000000003">
        <time>2021-06-19T15:02:59+0000</time>
      </trkpt>
      <trkpt lat="40.873290000000004" lon="-2.18093">
        <time>2021-06-19T15:03:00+0000</time>
      </trkpt>
      <trkpt lat="40.873250000000006" lon="-2.18108">
        <time>2021-06-19T15:03:01+0000</time>
      </trkpt>
      <trkpt lat="40.87319" lon="-2.18121">
        <time>2021-06-19T15:03:02+0000</time>
      </trkpt>
      <trkpt lat="40.87312" lon="-2.18134">
        <time>2021-06-19T15:03:03+0000</time>
      </trkpt>
      <trkpt lat="40.87304" lon="-2.1814600000000004">
        <time>2021-06-19T15:03:04+0000</time>
      </trkpt>
      <trkpt lat="40.87294" lon="-2.1815900000000004">
        <time>2021-06-19T15:03:05+0000</time>
      </trkpt>
      <trkpt lat="40.87285000000001" lon="-2.1817100000000003">
        <time>2021-06-19T15:03:06+0000</time>
      </trkpt>
      <trkpt lat="40.87275" lon="-2.18183">
        <time>2021-06-19T15:03:07+0000</time>
      </trkpt>
      <trkpt lat="40.87267000000001" lon="-2.1819300000000004">
        <time>2021-06-19T15:03:08+0000</time>
      </trkpt>
      <trkpt lat="40.872580000000006" lon="-2.18201">
        <time>2021-06-19T15:03:09+0000</time>
      </trkpt>
      <trkpt lat="40.87248" lon="-2.1820700000000004">
        <time>2021-06-19T15:03:10+0000</time>
      </trkpt>
      <trkpt lat="40.87236" lon="-2.18211">
        <time>2021-06-19T15:03:11+0000</time>
      </trkpt>
      <trkpt lat="40.87223" lon="-2.18214">
        <time>2021-06-19T15:03:12+0000</time>
      </trkpt>
      <trkpt lat="40.8721" lon="-2.18216">
        <time>2021-06-19T15:03:13+0000</time>
      </trkpt>
      <trkpt lat="40.87196" lon="-2.1822000000000004">
        <time>2021-06-19T15:03:14+0000</time>
      </trkpt>
      <trkpt lat="40.87182000000001" lon="-2.18221">
        <time>2021-06-19T15:03:15+0000</time>
      </trkpt>
      <trkpt lat="40.871680000000005" lon="-2.1822000000000004">
        <time>2021-06-19T15:03:16+0000</time>
      </trkpt>
      <trkpt lat="40.87154" lon="-2.1822000000000004">
        <time>2021-06-19T15:03:17+0000</time>
      </trkpt>
      <trkpt lat="40.8714" lon="-2.1822000000000004">
        <time>2021-06-19T15:03:18+0000</time>
      </trkpt>
      <trkpt lat="40.87127" lon="-2.18221">
        <time>2021-06-19T15:03:19+0000</time>
      </trkpt>
      <trkpt lat="40.871140000000004" lon="-2.18222">
        <time>2021-06-19T15:03:20+0000</time>
      </trkpt>
      <trkpt lat="40.87102" lon="-2.18222">
        <time>2021-06-19T15:03:21+0000</time>
      </trkpt>
      <trkpt lat="40.870900000000006" lon="-2.18222">
        <time>2021-06-19T15:03:22+0000</time>
      </trkpt>
      <trkpt lat="40.87078" lon="-2.18221">
        <time>2021-06-19T15:03:23+0000</time>
      </trkpt>
      <trkpt lat="40.87066" lon="-2.1822000000000004">
        <time>2021-06-19T15:03:24+0000</time>
      </trkpt>
      <trkpt lat="40.87053" lon="-2.1821800000000002">
        <time>2021-06-19T15:03:25+0000</time>
      </trkpt>
      <trkpt lat="40.870400000000004" lon="-2.1822000000000004">
        <time>2021-06-19T15:03:26+0000</time>
      </trkpt>
      <trkpt lat="40.870270000000005" lon="-2.18223">
        <time>2021-06-19T15:03:27+0000</time>
      </trkpt>
      <trkpt lat="40.870140000000006" lon="-2.18228">
        <time>2021-06-19T15:03:28+0000</time>
      </trkpt>
      <trkpt lat="40.870000000000005" lon="-2.1823300000000003">
        <time>2021-06-19T15:03:29+0000</time>
      </trkpt>
      <trkpt lat="40.86985000000001" lon="-2.18236">
        <time>2021-06-19T15:03:30+0000</time>
      </trkpt>
      <trkpt lat="40.869690000000006" lon="-2.18237">
        <time>2021-06-19T15:03:31+0000</time>
      </trkpt>
      <trkpt lat="40.86954" lon="-2.1823900000000003">
        <time>2021-06-19T15:03:32+0000</time>
      </trkpt>
      <trkpt lat="40.86939" lon="-2.1823900000000003">
        <time>2021-06-19T15:03:33+0000</time>
      </trkpt>
      <trkpt lat="40.869240000000005" lon="-2.18237">
        <time>2021-06-19T15:03:34+0000</time>
      </trkpt>
      <trkpt lat="40.8691" lon="-2.1823400000000004">
        <time>2021-06-19T15:03:35+0000</time>
      </trkpt>
      <trkpt lat="40.86896" lon="-2.18229">
        <time>2021-06-19T15:03:36+0000</time>
      </trkpt>
      <trkpt lat="40.86882000000001" lon="-2.18224">
        <time>2021-06-19T15:03:37+0000</time>
      </trkpt>
      <trkpt lat="40.86869" lon="-2.1821900000000003">
        <time>2021-06-19T15:03:38+0000</time>
      </trkpt>
      <trkpt lat="40.868570000000005" lon="-2.1821300000000003">
        <time>2021-06-19T15:03:39+0000</time>
      </trkpt>
      <trkpt lat="40.86845" lon="-2.18208">
        <time>2021-06-19T15:03:40+0000</time>
      </trkpt>
      <trkpt lat="40.86833" lon="-2.1820600000000003">
        <time>2021-06-19T15:03:41+0000</time>
      </trkpt>
      <trkpt lat="40.868210000000005" lon="-2.1820600000000003">
        <time>2021-06-19T15:03:42+0000</time>
      </trkpt>
      <trkpt lat="40.868080000000006" lon="-2.1820700000000004">
        <time>2021-06-19T15:03:43+0000</time>
      </trkpt>
      <trkpt lat="40.86795" lon="-2.18208">
        <time>2021-06-19T15:03:44+0000</time>
      </trkpt>
      <trkpt lat="40.86784" lon="-2.1821">
        <time>2021-06-19T15:03:45+0000</time>
      </trkpt>
      <trkpt lat="40.86773" lon="-2.1821">
        <time>2021-06-19T15:03:46+0000</time>
      </trkpt>
      <trkpt lat="40.86762" lon="-2.18209">
        <time>2021-06-19T15:03:47+0000</time>
      </trkpt>
      <trkpt lat="40.867520000000006" lon="-2.18208">
        <time>2021-06-19T15:03:48+0000</time>
      </trkpt>
      <trkpt lat="40.867430000000006" lon="-2.1820600000000003">
        <time>2021-06-19T15:03:49+0000</time>
      </trkpt>
      <trkpt lat="40.86735" lon="-2.18203">
        <time>2021-06-19T15:03:50+0000</time>
      </trkpt>
      <trkpt lat="40.867270000000005" lon="-2.18201">
        <time>2021-06-19T15:03:51+0000</time>
      </trkpt>
      <trkpt lat="40.867200000000004" lon="-2.18201">
        <time>2021-06-19T15:03:52+0000</time>
      </trkpt>
      <trkpt lat="40.86715" lon="-2.1820600000000003">
        <time>2021-06-19T15:03:53+0000</time>
      </trkpt>
      <trkpt lat="40.867110000000004" lon="-2.1821300000000003">
        <time>2021-06-19T15:03:54+0000</time>
      </trkpt>
      <trkpt lat="40.8671" lon="-2.18222">
        <time>2021-06-19T15:03:55+0000</time>
      </trkpt>
      <trkpt lat="40.8671" lon="-2.1823200000000003">
        <time>2021-06-19T15:03:56+0000</time>
      </trkpt>
      <trkpt lat="40.8671" lon="-2.18242">
        <time>2021-06-19T15:03:57+0000</time>
      </trkpt>
      <trkpt lat="40.867110000000004" lon="-2.1825200000000002">
        <time>2021-06-19T15:03:58+0000</time>
      </trkpt>
      <trkpt lat="40.867110000000004" lon="-2.1826100000000004">
        <time>2021-06-19T15:03:59+0000</time>
      </trkpt>
      <trkpt lat="40.867110000000004" lon="-2.1827">
        <time>2021-06-19T15:04:00+0000</time>
      </trkpt>
      <trkpt lat="40.8671" lon="-2.1827900000000002">
        <time>2021-06-19T15:04:01+0000</time>
      </trkpt>
      <trkpt lat="40.86708" lon="-2.1828600000000002">
        <time>2021-06-19T15:04:02+0000</time>
      </trkpt>
      <trkpt lat="40.867070000000005" lon="-2.18292">
        <time>2021-06-19T15:04:03+0000</time>
      </trkpt>
      <trkpt lat="40.86706" lon="-2.18297">
        <time>2021-06-19T15:04:04+0000</time>
      </trkpt>
      <trkpt lat="40.867050000000006" lon="-2.1830100000000003">
        <time>2021-06-19T15:04:05+0000</time>
      </trkpt>
      <trkpt lat="40.86704" lon="-2.18305">
        <time>2021-06-19T15:04:06+0000</time>
      </trkpt>
      <trkpt lat="40.86703000000001" lon="-2.1831">
        <time>2021-06-19T15:04:07+0000</time>
      </trkpt>
      <trkpt lat="40.867020000000004" lon="-2.1831300000000002">
        <time>2021-06-19T15:04:08+0000</time>
      </trkpt>
      <trkpt lat="40.86701" lon="-2.1831500000000004">
        <time>2021-06-19T15:04:09+0000</time>
      </trkpt>
      <trkpt lat="40.86697" lon="-2.18318">
        <time>2021-06-19T15:07:27+0000</time>
      </trkpt>
      <trkpt lat="40.866980000000005" lon="-2.1832100000000003">
        <time>2021-06-19T15:07:28+0000</time>
      </trkpt>
      <trkpt lat="40.86697" lon="-2.1832200000000004">
        <time>2021-06-19T15:07:29+0000</time>
      </trkpt>
      <trkpt lat="40.86688" lon="-2.18317">
        <time>2021-06-19T15:07:30+0000</time>
      </trkpt>
      <trkpt lat="40.86684" lon="-2.18312">
        <time>2021-06-19T15:07:31+0000</time>
      </trkpt>
      <trkpt lat="40.86679" lon="-2.18305">
        <time>2021-06-19T15:07:32+0000</time>
      </trkpt>
      <trkpt lat="40.86672" lon="-2.1830000000000003">
        <time>2021-06-19T15:07:33+0000</time>
      </trkpt>
      <trkpt lat="40.86665" lon="-2.1829300000000003">
        <time>2021-06-19T15:07:34+0000</time>
      </trkpt>
      <trkpt lat="40.86657" lon="-2.18285">
        <time>2021-06-19T15:07:35+0000</time>
      </trkpt>
      <trkpt lat="40.8665" lon="-2.18277">
        <time>2021-06-19T15:07:36+0000</time>
      </trkpt>
      <trkpt lat="40.866440000000004" lon="-2.18271">
        <time>2021-06-19T15:07:37+0000</time>
      </trkpt>
      <trkpt lat="40.86638000000001" lon="-2.18265">
        <time>2021-06-19T15:07:38+0000</time>
      </trkpt>
      <trkpt lat="40.86632" lon="-2.1825900000000003">
        <time>2021-06-19T15:07:39+0000</time>
      </trkpt>
      <trkpt lat="40.86625" lon="-2.1825200000000002">
        <time>2021-06-19T15:07:40+0000</time>
      </trkpt>
      <trkpt lat="40.866170000000004" lon="-2.18244">
        <time>2021-06-19T15:07:41+0000</time>
      </trkpt>
      <trkpt lat="40.86609" lon="-2.18235">
        <time>2021-06-19T15:07:42+0000</time>
      </trkpt>
      <trkpt lat="40.86600000000001" lon="-2.1822600000000003">
        <time>2021-06-19T15:07:43+0000</time>
      </trkpt>
      <trkpt lat="40.8659" lon="-2.1822000000000004">
        <time>2021-06-19T15:07:44+0000</time>
      </trkpt>
      <trkpt lat="40.865790000000004" lon="-2.18217">
        <time>2021-06-19T15:07:45+0000</time>
      </trkpt>
      <trkpt lat="40.86567" lon="-2.18215">
        <time>2021-06-19T15:07:46+0000</time>
      </trkpt>
      <trkpt lat="40.865550000000006" lon="-2.1821300000000003">
        <time>2021-06-19T15:07:47+0000</time>
      </trkpt>
      <trkpt lat="40.86544000000001" lon="-2.1821200000000003">
        <time>2021-06-19T15:07:48+0000</time>
      </trkpt>
      <trkpt lat="40.86534" lon="-2.1821200000000003">
        <time>2021-06-19T15:07:49+0000</time>
      </trkpt>
      <trkpt lat="40.86525" lon="-2.18211">
        <time>2021-06-19T15:07:50+0000</time>
      </trkpt>
      <trkpt lat="40.86516" lon="-2.1821200000000003">
        <time>2021-06-19T15:07:51+0000</time>
      </trkpt>
      <trkpt lat="40.86509" lon="-2.18211">
        <time>2021-06-19T15:07:52+0000</time>
      </trkpt>
      <trkpt lat="40.86502" lon="-2.18211">
        <time>2021-06-19T15:07:53+0000</time>
      </trkpt>
      <trkpt lat="40.86496" lon="-2.1821">
        <time>2021-06-19T15:07:54+0000</time>
      </trkpt>
      <trkpt lat="40.864900000000006" lon="-2.1821">
        <time>2021-06-19T15:07:55+0000</time>
      </trkpt>
      <trkpt lat="40.864830000000005" lon="-2.18209">
        <time>2021-06-19T15:07:56+0000</time>
      </trkpt>
      <trkpt lat="40.864760000000004" lon="-2.18209">
        <time>2021-06-19T15:07:57+0000</time>
      </trkpt>
      <trkpt lat="40.86469" lon="-2.18208">
        <time>2021-06-19T15:07:58+0000</time>
      </trkpt>
      <trkpt lat="40.864610000000006" lon="-2.18208">
        <time>2021-06-19T15:07:59+0000</time>
      </trkpt>
      <trkpt lat="40.864540000000005" lon="-2.1820700000000004">
        <time>2021-06-19T15:08:00+0000</time>
      </trkpt>
      <trkpt lat="40.86446" lon="-2.1820600000000003">
        <time>2021-06-19T15:08:01+0000</time>
      </trkpt>
      <trkpt lat="40.86437" lon="-2.1820600000000003">
        <time>2021-06-19T15:08:02+0000</time>
      </trkpt>
      <trkpt lat="40.86428" lon="-2.1820500000000003">
        <time>2021-06-19T15:08:03+0000</time>
      </trkpt>
      <trkpt lat="40.864200000000004" lon="-2.1820500000000003">
        <time>2021-06-19T15:08:04+0000</time>
      </trkpt>
      <trkpt lat="40.864110000000004" lon="-2.18204">
        <time>2021-06-19T15:08:05+0000</time>
      </trkpt>
      <trkpt lat="40.86403000000001" lon="-2.18203">
        <time>2021-06-19T15:08:06+0000</time>
      </trkpt>
      <trkpt lat="40.86394000000001" lon="-2.18203">
        <time>2021-06-19T15:08:07+0000</time>
      </trkpt>
      <trkpt lat="40.86384" lon="-2.18202">
        <time>2021-06-19T15:08:08+0000</time>
      </trkpt>
      <trkpt lat="40.863760000000006" lon="-2.18202">
        <time>2021-06-19T15:08:09+0000</time>
      </trkpt>
      <trkpt lat="40.863670000000006" lon="-2.18201">
        <time>2021-06-19T15:08:10+0000</time>
      </trkpt>
      <trkpt lat="40.86359" lon="-2.18201">
        <time>2021-06-19T15:08:11+0000</time>
      </trkpt>
      <trkpt lat="40.86352" lon="-2.1820000000000004">
        <time>2021-06-19T15:08:12+0000</time>
      </trkpt>
      <trkpt lat="40.863440000000004" lon="-2.1820000000000004">
        <time>2021-06-19T15:08:13+0000</time>
      </trkpt>
      <trkpt lat="40.86336" lon="-2.18202">
        <time>2021-06-19T15:08:14+0000</time>
      </trkpt>
      <trkpt lat="40.86328" lon="-2.18204">
        <time>2021-06-19T15:08:15+0000</time>
      </trkpt>
      <trkpt lat="40.86319" lon="-2.1820700000000004">
        <time>2021-06-19T15:08:16+0000</time>
      </trkpt>
      <trkpt lat="40.863110000000006" lon="-2.1821300000000003">
        <time>2021-06-19T15:08:17+0000</time>
      </trkpt>
      <trkpt lat="40.86303" lon="-2.1821800000000002">
        <time>2021-06-19T15:08:18+0000</time>
      </trkpt>
      <trkpt lat="40.86294" lon="-2.18222">
        <time>2021-06-19T15:08:19+0000</time>
      </trkpt>
      <trkpt lat="40.86285" lon="-2.18229">
        <time>2021-06-19T15:08:20+0000</time>
      </trkpt>
      <trkpt lat="40.86278" lon="-2.18237">
        <time>2021-06-19T15:08:21+0000</time>
      </trkpt>
      <trkpt lat="40.86271" lon="-2.18249">
        <time>2021-06-19T15:08:22+0000</time>
      </trkpt>
      <trkpt lat="40.862660000000005" lon="-2.1826100000000004">
        <time>2021-06-19T15:08:23+0000</time>
      </trkpt>
      <trkpt lat="40.86262000000001" lon="-2.18275">
        <time>2021-06-19T15:08:24+0000</time>
      </trkpt>
      <trkpt lat="40.86258" lon="-2.1829">
        <time>2021-06-19T15:08:25+0000</time>
      </trkpt>
      <trkpt lat="40.86254" lon="-2.18303">
        <time>2021-06-19T15:08:26+0000</time>
      </trkpt>
      <trkpt lat="40.862500000000004" lon="-2.18316">
        <time>2021-06-19T15:08:27+0000</time>
      </trkpt>
      <trkpt lat="40.862480000000005" lon="-2.1832900000000004">
        <time>2021-06-19T15:08:28+0000</time>
      </trkpt>
      <trkpt lat="40.862460000000006" lon="-2.1834000000000002">
        <time>2021-06-19T15:08:29+0000</time>
      </trkpt>
      <trkpt lat="40.86245" lon="-2.1835">
        <time>2021-06-19T15:08:30+0000</time>
      </trkpt>
      <trkpt lat="40.86244000000001" lon="-2.18358">
        <time>2021-06-19T15:08:31+0000</time>
      </trkpt>
      <trkpt lat="40.86244000000001" lon="-2.18364">
        <time>2021-06-19T15:08:32+0000</time>
      </trkpt>
      <trkpt lat="40.86244000000001" lon="-2.1836800000000003">
        <time>2021-06-19T15:08:33+0000</time>
      </trkpt>
      <trkpt lat="40.86243" lon="-2.18372">
        <time>2021-06-19T15:08:34+0000</time>
      </trkpt>
      <trkpt lat="40.86243" lon="-2.1837600000000004">
        <time>2021-06-19T15:08:35+0000</time>
      </trkpt>
      <trkpt lat="40.86242" lon="-2.18379">
        <time>2021-06-19T15:08:36+0000</time>
      </trkpt>
      <trkpt lat="40.8624" lon="-2.18384">
        <time>2021-06-19T15:08:58+0000</time>
      </trkpt>
      <trkpt lat="40.86238" lon="-2.1838800000000003">
        <time>2021-06-19T15:08:59+0000</time>
      </trkpt>
      <trkpt lat="40.862350000000006" lon="-2.18394">
        <time>2021-06-19T15:09:00+0000</time>
      </trkpt>
      <trkpt lat="40.862300000000005" lon="-2.18399">
        <time>2021-06-19T15:09:01+0000</time>
      </trkpt>
      <trkpt lat="40.86224" lon="-2.18407">
        <time>2021-06-19T15:09:02+0000</time>
      </trkpt>
      <trkpt lat="40.86215000000001" lon="-2.18411">
        <time>2021-06-19T15:09:03+0000</time>
      </trkpt>
      <trkpt lat="40.86205" lon="-2.18413">
        <time>2021-06-19T15:09:04+0000</time>
      </trkpt>
      <trkpt lat="40.861940000000004" lon="-2.18412">
        <time>2021-06-19T15:09:05+0000</time>
      </trkpt>
      <trkpt lat="40.86182" lon="-2.1841000000000004">
        <time>2021-06-19T15:09:06+0000</time>
      </trkpt>
      <trkpt lat="40.861700000000006" lon="-2.1840800000000002">
        <time>2021-06-19T15:09:07+0000</time>
      </trkpt>
      <trkpt lat="40.86157" lon="-2.18407">
        <time>2021-06-19T15:09:08+0000</time>
      </trkpt>
      <trkpt lat="40.861450000000005" lon="-2.18406">
        <time>2021-06-19T15:09:09+0000</time>
      </trkpt>
      <trkpt lat="40.861340000000006" lon="-2.18404">
        <time>2021-06-19T15:09:10+0000</time>
      </trkpt>
      <trkpt lat="40.86121" lon="-2.1840200000000003">
        <time>2021-06-19T15:09:11+0000</time>
      </trkpt>
      <trkpt lat="40.861090000000004" lon="-2.1840100000000002">
        <time>2021-06-19T15:09:12+0000</time>
      </trkpt>
      <trkpt lat="40.86097" lon="-2.184">
        <time>2021-06-19T15:09:13+0000</time>
      </trkpt>
      <trkpt lat="40.86084" lon="-2.18399">
        <time>2021-06-19T15:09:14+0000</time>
      </trkpt>
      <trkpt lat="40.86072" lon="-2.18399">
        <time>2021-06-19T15:09:15+0000</time>
      </trkpt>
      <trkpt lat="40.86059" lon="-2.184">
        <time>2021-06-19T15:09:16+0000</time>
      </trkpt>
      <trkpt lat="40.86045" lon="-2.1840300000000004">
        <time>2021-06-19T15:09:17+0000</time>
      </trkpt>
      <trkpt lat="40.860310000000005" lon="-2.18405">
        <time>2021-06-19T15:09:18+0000</time>
      </trkpt>
      <trkpt lat="40.860170000000004" lon="-2.1840800000000002">
        <time>2021-06-19T15:09:19+0000</time>
      </trkpt>
      <trkpt lat="40.860040000000005" lon="-2.18411">
        <time>2021-06-19T15:09:20+0000</time>
      </trkpt>
      <trkpt lat="40.85989" lon="-2.18414">
        <time>2021-06-19T15:09:21+0000</time>
      </trkpt>
      <trkpt lat="40.85976" lon="-2.18418">
        <time>2021-06-19T15:09:22+0000</time>
      </trkpt>
      <trkpt lat="40.85965" lon="-2.1842300000000003">
        <time>2021-06-19T15:09:23+0000</time>
      </trkpt>
      <trkpt lat="40.85956" lon="-2.1843000000000004">
        <time>2021-06-19T15:09:24+0000</time>
      </trkpt>
      <trkpt lat="40.859500000000004" lon="-2.1844">
        <time>2021-06-19T15:09:25+0000</time>
      </trkpt>
      <trkpt lat="40.85945" lon="-2.18452">
        <time>2021-06-19T15:09:26+0000</time>
      </trkpt>
      <trkpt lat="40.859410000000004" lon="-2.18465">
        <time>2021-06-19T15:09:27+0000</time>
      </trkpt>
      <trkpt lat="40.859370000000006" lon="-2.1847800000000004">
        <time>2021-06-19T15:09:28+0000</time>
      </trkpt>
      <trkpt lat="40.85933" lon="-2.18487">
        <time>2021-06-19T15:09:29+0000</time>
      </trkpt>
      <trkpt lat="40.859280000000005" lon="-2.18494">
        <time>2021-06-19T15:09:30+0000</time>
      </trkpt>
      <trkpt lat="40.85922" lon="-2.1849700000000003">
        <time>2021-06-19T15:09:31+0000</time>
      </trkpt>
      <trkpt lat="40.859140000000004" lon="-2.18499">
        <time>2021-06-19T15:09:32+0000</time>
      </trkpt>
      <trkpt lat="40.859080000000006" lon="-2.18499">
        <time>2021-06-19T15:09:33+0000</time>
      </trkpt>
      <trkpt lat="40.859030000000004" lon="-2.185">
        <time>2021-06-19T15:09:34+0000</time>
      </trkpt>
      <trkpt lat="40.858990000000006" lon="-2.185">
        <time>2021-06-19T15:09:35+0000</time>
      </trkpt>
      <trkpt lat="40.85896" lon="-2.18499">
        <time>2021-06-19T15:09:36+0000</time>
      </trkpt>
      <trkpt lat="40.85893" lon="-2.185">
        <time>2021-06-19T15:09:37+0000</time>
      </trkpt>
      <trkpt lat="40.858920000000005" lon="-2.18499">
        <time>2021-06-19T15:09:38+0000</time>
      </trkpt>
      <trkpt lat="40.85889" lon="-2.1848400000000003">
        <time>2021-06-19T15:09:39+0000</time>
      </trkpt>
      <trkpt lat="40.85889" lon="-2.1847800000000004">
        <time>2021-06-19T15:09:40+0000</time>
      </trkpt>
      <trkpt lat="40.85889" lon="-2.1847100000000004">
        <time>2021-06-19T15:09:41+0000</time>
      </trkpt>
      <trkpt lat="40.85889" lon="-2.1846400000000004">
        <time>2021-06-19T15:09:42+0000</time>
      </trkpt>
      <trkpt lat="40.858900000000006" lon="-2.1845700000000003">
        <time>2021-06-19T15:09:43+0000</time>
      </trkpt>
      <trkpt lat="40.858900000000006" lon="-2.1844900000000003">
        <time>2021-06-19T15:09:44+0000</time>
      </trkpt>
      <trkpt lat="40.858900000000006" lon="-2.1844200000000003">
        <time>2021-06-19T15:09:45+0000</time>
      </trkpt>
      <trkpt lat="40.858940000000004" lon="-2.18434">
        <time>2021-06-19T15:09:46+0000</time>
      </trkpt>
      <trkpt lat="40.85898" lon="-2.18428">
        <time>2021-06-19T15:09:47+0000</time>
      </trkpt>
      <trkpt lat="40.859" lon="-2.1842">
        <time>2021-06-19T15:09:48+0000</time>
      </trkpt>
      <trkpt lat="40.859010000000005" lon="-2.18414">
        <time>2021-06-19T15:09:49+0000</time>
      </trkpt>
      <trkpt lat="40.859030000000004" lon="-2.18407">
        <time>2021-06-19T15:09:50+0000</time>
      </trkpt>
      <trkpt lat="40.85902" lon="-2.18398">
        <time>2021-06-19T15:09:51+0000</time>
      </trkpt>
      <trkpt lat="40.85904" lon="-2.1839000000000004">
        <time>2021-06-19T15:09:52+0000</time>
      </trkpt>
      <trkpt lat="40.85906000000001" lon="-2.1838300000000004">
        <time>2021-06-19T15:09:53+0000</time>
      </trkpt>
      <trkpt lat="40.859080000000006" lon="-2.1837500000000003">
        <time>2021-06-19T15:09:54+0000</time>
      </trkpt>
      <trkpt lat="40.859100000000005" lon="-2.18367">
        <time>2021-06-19T15:09:55+0000</time>
      </trkpt>
      <trkpt lat="40.859120000000004" lon="-2.18359">
        <time>2021-06-19T15:09:56+0000</time>
      </trkpt>
      <trkpt lat="40.85916" lon="-2.18353">
        <time>2021-06-19T15:09:57+0000</time>
      </trkpt>
      <trkpt lat="40.85918" lon="-2.18345">
        <time>2021-06-19T15:09:58+0000</time>
      </trkpt>
      <trkpt lat="40.8592" lon="-2.18338">
        <time>2021-06-19T15:09:59+0000</time>
      </trkpt>
      <trkpt lat="40.85922" lon="-2.18331">
        <time>2021-06-19T15:10:00+0000</time>
      </trkpt>
      <trkpt lat="40.859170000000006" lon="-2.18325">
        <time>2021-06-19T15:10:01+0000</time>
      </trkpt>
      <trkpt lat="40.859170000000006" lon="-2.18319">
        <time>2021-06-19T15:10:02+0000</time>
      </trkpt>
      <trkpt lat="40.85918" lon="-2.18312">
        <time>2021-06-19T15:10:03+0000</time>
      </trkpt>
      <trkpt lat="40.859210000000004" lon="-2.18305">
        <time>2021-06-19T15:10:04+0000</time>
      </trkpt>
      <trkpt lat="40.85924000000001" lon="-2.18299">
        <time>2021-06-19T15:10:05+0000</time>
      </trkpt>
      <trkpt lat="40.85925" lon="-2.1829300000000003">
        <time>2021-06-19T15:10:06+0000</time>
      </trkpt>
      <trkpt lat="40.859260000000006" lon="-2.18289">
        <time>2021-06-19T15:10:07+0000</time>
      </trkpt>
      <trkpt lat="40.85927" lon="-2.18285">
        <time>2021-06-19T15:10:08+0000</time>
      </trkpt>
      <trkpt lat="40.859280000000005" lon="-2.18285">
        <time>2021-06-19T15:10:09+0000</time>
      </trkpt>
      <trkpt lat="40.85943" lon="-2.1829300000000003">
        <time>2021-06-19T15:10:10+0000</time>
      </trkpt>
      <trkpt lat="40.859460000000006" lon="-2.18296">
        <time>2021-06-19T15:10:11+0000</time>
      </trkpt>
      <trkpt lat="40.859500000000004" lon="-2.18296">
        <time>2021-06-19T15:10:12+0000</time>
      </trkpt>
      <trkpt lat="40.85953000000001" lon="-2.18297">
        <time>2021-06-19T15:10:13+0000</time>
      </trkpt>
      <trkpt lat="40.85954" lon="-2.1830000000000003">
        <time>2021-06-19T15:10:14+0000</time>
      </trkpt>
      <trkpt lat="40.85956" lon="-2.18299">
        <time>2021-06-19T15:10:15+0000</time>
      </trkpt>
      <trkpt lat="40.85943" lon="-2.1832700000000003">
        <time>2021-06-19T15:14:30+0000</time>
      </trkpt>
      <trkpt lat="40.859410000000004" lon="-2.18332">
        <time>2021-06-19T15:14:31+0000</time>
      </trkpt>
      <trkpt lat="40.859390000000005" lon="-2.18338">
        <time>2021-06-19T15:14:32+0000</time>
      </trkpt>
      <trkpt lat="40.85936" lon="-2.18343">
        <time>2021-06-19T15:14:33+0000</time>
      </trkpt>
      <trkpt lat="40.85933" lon="-2.1834800000000003">
        <time>2021-06-19T15:14:34+0000</time>
      </trkpt>
      <trkpt lat="40.859320000000004" lon="-2.1835400000000003">
        <time>2021-06-19T15:14:35+0000</time>
      </trkpt>
      <trkpt lat="40.859280000000005" lon="-2.18359">
        <time>2021-06-19T15:14:36+0000</time>
      </trkpt>
      <trkpt lat="40.85925" lon="-2.18365">
        <time>2021-06-19T15:14:37+0000</time>
      </trkpt>
      <trkpt lat="40.8592" lon="-2.1837">
        <time>2021-06-19T15:14:38+0000</time>
      </trkpt>
      <trkpt lat="40.85916" lon="-2.1837600000000004">
        <time>2021-06-19T15:14:39+0000</time>
      </trkpt>
      <trkpt lat="40.859120000000004" lon="-2.1838">
        <time>2021-06-19T15:14:40+0000</time>
      </trkpt>
      <trkpt lat="40.85909" lon="-2.18385">
        <time>2021-06-19T15:14:41+0000</time>
      </trkpt>
      <trkpt lat="40.85907" lon="-2.18391">
        <time>2021-06-19T15:14:42+0000</time>
      </trkpt>
      <trkpt lat="40.85904" lon="-2.18399">
        <time>2021-06-19T15:14:43+0000</time>
      </trkpt>
      <trkpt lat="40.85902" lon="-2.18407">
        <time>2021-06-19T15:14:44+0000</time>
      </trkpt>
      <trkpt lat="40.859" lon="-2.18414">
        <time>2021-06-19T15:14:45+0000</time>
      </trkpt>
      <trkpt lat="40.859" lon="-2.1842200000000003">
        <time>2021-06-19T15:14:46+0000</time>
      </trkpt>
      <trkpt lat="40.85898" lon="-2.1843000000000004">
        <time>2021-06-19T15:14:47+0000</time>
      </trkpt>
      <trkpt lat="40.85897000000001" lon="-2.1843700000000004">
        <time>2021-06-19T15:14:48+0000</time>
      </trkpt>
      <trkpt lat="40.858940000000004" lon="-2.1844400000000004">
        <time>2021-06-19T15:14:49+0000</time>
      </trkpt>
      <trkpt lat="40.85893" lon="-2.18452">
        <time>2021-06-19T15:14:50+0000</time>
      </trkpt>
      <trkpt lat="40.858920000000005" lon="-2.18459">
        <time>2021-06-19T15:14:51+0000</time>
      </trkpt>
      <trkpt lat="40.858920000000005" lon="-2.18466">
        <time>2021-06-19T15:14:52+0000</time>
      </trkpt>
      <trkpt lat="40.858920000000005" lon="-2.18473">
        <time>2021-06-19T15:14:53+0000</time>
      </trkpt>
      <trkpt lat="40.85893" lon="-2.1848">
        <time>2021-06-19T15:14:54+0000</time>
      </trkpt>
      <trkpt lat="40.858940000000004" lon="-2.18485">
        <time>2021-06-19T15:14:55+0000</time>
      </trkpt>
      <trkpt lat="40.85896" lon="-2.18489">
        <time>2021-06-19T15:14:56+0000</time>
      </trkpt>
      <trkpt lat="40.85895" lon="-2.18492">
        <time>2021-06-19T15:14:57+0000</time>
      </trkpt>
      <trkpt lat="40.85896" lon="-2.18495">
        <time>2021-06-19T15:14:58+0000</time>
      </trkpt>
      <trkpt lat="40.85909" lon="-2.18495">
        <time>2021-06-19T15:14:59+0000</time>
      </trkpt>
      <trkpt lat="40.859170000000006" lon="-2.18493">
        <time>2021-06-19T15:15:00+0000</time>
      </trkpt>
      <trkpt lat="40.859230000000004" lon="-2.1849000000000003">
        <time>2021-06-19T15:15:01+0000</time>
      </trkpt>
      <trkpt lat="40.85929" lon="-2.1848300000000003">
        <time>2021-06-19T15:15:02+0000</time>
      </trkpt>
      <trkpt lat="40.859350000000006" lon="-2.18473">
        <time>2021-06-19T15:15:03+0000</time>
      </trkpt>
      <trkpt lat="40.859390000000005" lon="-2.18459">
        <time>2021-06-19T15:15:04+0000</time>
      </trkpt>
      <trkpt lat="40.85943" lon="-2.18446">
        <time>2021-06-19T15:15:05+0000</time>
      </trkpt>
      <trkpt lat="40.85947" lon="-2.18434">
        <time>2021-06-19T15:15:06+0000</time>
      </trkpt>
      <trkpt lat="40.85953000000001" lon="-2.1842300000000003">
        <time>2021-06-19T15:15:07+0000</time>
      </trkpt>
      <trkpt lat="40.85961" lon="-2.1841500000000003">
        <time>2021-06-19T15:15:08+0000</time>
      </trkpt>
      <trkpt lat="40.85971000000001" lon="-2.18411">
        <time>2021-06-19T15:15:09+0000</time>
      </trkpt>
      <trkpt lat="40.85983" lon="-2.1840800000000002">
        <time>2021-06-19T15:15:10+0000</time>
      </trkpt>
      <trkpt lat="40.859950000000005" lon="-2.18406">
        <time>2021-06-19T15:15:11+0000</time>
      </trkpt>
      <trkpt lat="40.86008" lon="-2.18404">
        <time>2021-06-19T15:15:12+0000</time>
      </trkpt>
      <trkpt lat="40.86023" lon="-2.1840100000000002">
        <time>2021-06-19T15:15:13+0000</time>
      </trkpt>
      <trkpt lat="40.86037" lon="-2.18398">
        <time>2021-06-19T15:15:14+0000</time>
      </trkpt>
      <trkpt lat="40.86052" lon="-2.1839500000000003">
        <time>2021-06-19T15:15:15+0000</time>
      </trkpt>
      <trkpt lat="40.86068" lon="-2.18392">
        <time>2021-06-19T15:15:16+0000</time>
      </trkpt>
      <trkpt lat="40.86083" lon="-2.18391">
        <time>2021-06-19T15:15:17+0000</time>
      </trkpt>
      <trkpt lat="40.861000000000004" lon="-2.18392">
        <time>2021-06-19T15:15:18+0000</time>
      </trkpt>
      <trkpt lat="40.86117" lon="-2.18394">
        <time>2021-06-19T15:15:19+0000</time>
      </trkpt>
      <trkpt lat="40.86135" lon="-2.18397">
        <time>2021-06-19T15:15:20+0000</time>
      </trkpt>
      <trkpt lat="40.861520000000006" lon="-2.184">
        <time>2021-06-19T15:15:21+0000</time>
      </trkpt>
      <trkpt lat="40.86168000000001" lon="-2.1840300000000004">
        <time>2021-06-19T15:15:22+0000</time>
      </trkpt>
      <trkpt lat="40.861850000000004" lon="-2.18406">
        <time>2021-06-19T15:15:23+0000</time>
      </trkpt>
      <trkpt lat="40.86198" lon="-2.1840800000000002">
        <time>2021-06-19T15:15:24+0000</time>
      </trkpt>
      <trkpt lat="40.86209" lon="-2.1840800000000002">
        <time>2021-06-19T15:15:25+0000</time>
      </trkpt>
      <trkpt lat="40.8622" lon="-2.18404">
        <time>2021-06-19T15:15:26+0000</time>
      </trkpt>
      <trkpt lat="40.86229" lon="-2.18398">
        <time>2021-06-19T15:15:27+0000</time>
      </trkpt>
      <trkpt lat="40.862370000000006" lon="-2.18387">
        <time>2021-06-19T15:15:28+0000</time>
      </trkpt>
      <trkpt lat="40.862390000000005" lon="-2.18371">
        <time>2021-06-19T15:15:29+0000</time>
      </trkpt>
      <trkpt lat="40.8624" lon="-2.1835400000000003">
        <time>2021-06-19T15:15:30+0000</time>
      </trkpt>
      <trkpt lat="40.86243" lon="-2.18333">
        <time>2021-06-19T15:15:31+0000</time>
      </trkpt>
      <trkpt lat="40.862480000000005" lon="-2.1831">
        <time>2021-06-19T15:15:32+0000</time>
      </trkpt>
      <trkpt lat="40.86256" lon="-2.1828700000000003">
        <time>2021-06-19T15:15:33+0000</time>
      </trkpt>
      <trkpt lat="40.86262000000001" lon="-2.1826700000000003">
        <time>2021-06-19T15:15:34+0000</time>
      </trkpt>
      <trkpt lat="40.86269" lon="-2.1825">
        <time>2021-06-19T15:15:35+0000</time>
      </trkpt>
      <trkpt lat="40.86276" lon="-2.18235">
        <time>2021-06-19T15:15:36+0000</time>
      </trkpt>
      <trkpt lat="40.86287" lon="-2.18222">
        <time>2021-06-19T15:15:37+0000</time>
      </trkpt>
      <trkpt lat="40.863020000000006" lon="-2.1821200000000003">
        <time>2021-06-19T15:15:38+0000</time>
      </trkpt>
      <trkpt lat="40.86316" lon="-2.1820500000000003">
        <time>2021-06-19T15:15:39+0000</time>
      </trkpt>
      <trkpt lat="40.863290000000006" lon="-2.1819900000000003">
        <time>2021-06-19T15:15:40+0000</time>
      </trkpt>
      <trkpt lat="40.86341" lon="-2.18196">
        <time>2021-06-19T15:15:41+0000</time>
      </trkpt>
      <trkpt lat="40.863530000000004" lon="-2.18194">
        <time>2021-06-19T15:15:42+0000</time>
      </trkpt>
      <trkpt lat="40.863670000000006" lon="-2.18194">
        <time>2021-06-19T15:15:43+0000</time>
      </trkpt>
      <trkpt lat="40.86381" lon="-2.18195">
        <time>2021-06-19T15:15:44+0000</time>
      </trkpt>
      <trkpt lat="40.86397" lon="-2.18196">
        <time>2021-06-19T15:15:45+0000</time>
      </trkpt>
      <trkpt lat="40.86412000000001" lon="-2.18197">
        <time>2021-06-19T15:15:46+0000</time>
      </trkpt>
      <trkpt lat="40.864290000000004" lon="-2.1819800000000003">
        <time>2021-06-19T15:15:47+0000</time>
      </trkpt>
      <trkpt lat="40.86446" lon="-2.1820000000000004">
        <time>2021-06-19T15:15:48+0000</time>
      </trkpt>
      <trkpt lat="40.864650000000005" lon="-2.18201">
        <time>2021-06-19T15:15:49+0000</time>
      </trkpt>
      <trkpt lat="40.864830000000005" lon="-2.18203">
        <time>2021-06-19T15:15:50+0000</time>
      </trkpt>
      <trkpt lat="40.865010000000005" lon="-2.18204">
        <time>2021-06-19T15:15:51+0000</time>
      </trkpt>
      <trkpt lat="40.865170000000006" lon="-2.1820600000000003">
        <time>2021-06-19T15:15:52+0000</time>
      </trkpt>
      <trkpt lat="40.86533" lon="-2.18208">
        <time>2021-06-19T15:15:53+0000</time>
      </trkpt>
      <trkpt lat="40.865480000000005" lon="-2.18209">
        <time>2021-06-19T15:15:54+0000</time>
      </trkpt>
      <trkpt lat="40.86563" lon="-2.18209">
        <time>2021-06-19T15:15:55+0000</time>
      </trkpt>
      <trkpt lat="40.86576" lon="-2.1821">
        <time>2021-06-19T15:15:56+0000</time>
      </trkpt>
      <trkpt lat="40.8659" lon="-2.1821200000000003">
        <time>2021-06-19T15:15:57+0000</time>
      </trkpt>
      <trkpt lat="40.866020000000006" lon="-2.1821800000000002">
        <time>2021-06-19T15:15:58+0000</time>
      </trkpt>
      <trkpt lat="40.86614" lon="-2.18229">
        <time>2021-06-19T15:15:59+0000</time>
      </trkpt>
      <trkpt lat="40.86625" lon="-2.18242">
        <time>2021-06-19T15:16:00+0000</time>
      </trkpt>
      <trkpt lat="40.86637" lon="-2.1825400000000004">
        <time>2021-06-19T15:16:01+0000</time>
      </trkpt>
      <trkpt lat="40.86648" lon="-2.1826600000000003">
        <time>2021-06-19T15:16:02+0000</time>
      </trkpt>
      <trkpt lat="40.86657" lon="-2.18276">
        <time>2021-06-19T15:16:03+0000</time>
      </trkpt>
      <trkpt lat="40.86666" lon="-2.1828600000000002">
        <time>2021-06-19T15:16:04+0000</time>
      </trkpt>
      <trkpt lat="40.866730000000004" lon="-2.1829400000000003">
        <time>2021-06-19T15:16:05+0000</time>
      </trkpt>
      <trkpt lat="40.86679" lon="-2.1830100000000003">
        <time>2021-06-19T15:16:06+0000</time>
      </trkpt>
      <trkpt lat="40.86685000000001" lon="-2.1830700000000003">
        <time>2021-06-19T15:16:07+0000</time>
      </trkpt>
      <trkpt lat="40.8669" lon="-2.18312">
        <time>2021-06-19T15:16:08+0000</time>
      </trkpt>
      <trkpt lat="40.86693" lon="-2.1831500000000004">
        <time>2021-06-19T15:16:09+0000</time>
      </trkpt>
      <trkpt lat="40.86695" lon="-2.18317">
        <time>2021-06-19T15:16:10+0000</time>
      </trkpt>
      <trkpt lat="40.86697" lon="-2.18318">
        <time>2021-06-19T15:16:11+0000</time>
      </trkpt>
      <trkpt lat="40.86699" lon="-2.18319">
        <time>2021-06-19T15:16:12+0000</time>
      </trkpt>
      <trkpt lat="40.866960000000006" lon="-2.1832900000000004">
        <time>2021-06-19T15:16:13+0000</time>
      </trkpt>
      <trkpt lat="40.86694000000001" lon="-2.1833500000000003">
        <time>2021-06-19T15:16:14+0000</time>
      </trkpt>
      <trkpt lat="40.86692" lon="-2.1834200000000004">
        <time>2021-06-19T15:16:15+0000</time>
      </trkpt>
      <trkpt lat="40.866890000000005" lon="-2.1835">
        <time>2021-06-19T15:16:16+0000</time>
      </trkpt>
      <trkpt lat="40.86686" lon="-2.1836">
        <time>2021-06-19T15:16:17+0000</time>
      </trkpt>
      <trkpt lat="40.86683" lon="-2.1837">
        <time>2021-06-19T15:16:18+0000</time>
      </trkpt>
      <trkpt lat="40.866800000000005" lon="-2.1838">
        <time>2021-06-19T15:16:19+0000</time>
      </trkpt>
      <trkpt lat="40.86677" lon="-2.18391">
        <time>2021-06-19T15:16:20+0000</time>
      </trkpt>
      <trkpt lat="40.866730000000004" lon="-2.1840300000000004">
        <time>2021-06-19T15:16:21+0000</time>
      </trkpt>
      <trkpt lat="40.866690000000006" lon="-2.1841500000000003">
        <time>2021-06-19T15:16:22+0000</time>
      </trkpt>
      <trkpt lat="40.86666" lon="-2.18428">
        <time>2021-06-19T15:16:23+0000</time>
      </trkpt>
      <trkpt lat="40.86666" lon="-2.1844200000000003">
        <time>2021-06-19T15:16:24+0000</time>
      </trkpt>
      <trkpt lat="40.866670000000006" lon="-2.1845600000000003">
        <time>2021-06-19T15:16:25+0000</time>
      </trkpt>
      <trkpt lat="40.8667" lon="-2.1847000000000003">
        <time>2021-06-19T15:16:26+0000</time>
      </trkpt>
      <trkpt lat="40.86675" lon="-2.18485">
        <time>2021-06-19T15:16:27+0000</time>
      </trkpt>
      <trkpt lat="40.866800000000005" lon="-2.185">
        <time>2021-06-19T15:16:28+0000</time>
      </trkpt>
      <trkpt lat="40.86684" lon="-2.1851700000000003">
        <time>2021-06-19T15:16:29+0000</time>
      </trkpt>
      <trkpt lat="40.866870000000006" lon="-2.18535">
        <time>2021-06-19T15:16:30+0000</time>
      </trkpt>
      <trkpt lat="40.866890000000005" lon="-2.1855200000000004">
        <time>2021-06-19T15:16:31+0000</time>
      </trkpt>
      <trkpt lat="40.866910000000004" lon="-2.18568">
        <time>2021-06-19T15:16:32+0000</time>
      </trkpt>
      <trkpt lat="40.86694000000001" lon="-2.18583">
        <time>2021-06-19T15:16:33+0000</time>
      </trkpt>
      <trkpt lat="40.86699" lon="-2.1859800000000003">
        <time>2021-06-19T15:16:34+0000</time>
      </trkpt>
      <trkpt lat="40.86706" lon="-2.1861200000000003">
        <time>2021-06-19T15:16:35+0000</time>
      </trkpt>
      <trkpt lat="40.867140000000006" lon="-2.1862600000000003">
        <time>2021-06-19T15:16:36+0000</time>
      </trkpt>
      <trkpt lat="40.86721" lon="-2.18642">
        <time>2021-06-19T15:16:37+0000</time>
      </trkpt>
      <trkpt lat="40.86726" lon="-2.18658">
        <time>2021-06-19T15:16:38+0000</time>
      </trkpt>
      <trkpt lat="40.86728" lon="-2.18676">
        <time>2021-06-19T15:16:39+0000</time>
      </trkpt>
      <trkpt lat="40.867290000000004" lon="-2.18692">
        <time>2021-06-19T15:16:40+0000</time>
      </trkpt>
      <trkpt lat="40.8673" lon="-2.1870700000000003">
        <time>2021-06-19T15:16:41+0000</time>
      </trkpt>
      <trkpt lat="40.86728" lon="-2.1872100000000003">
        <time>2021-06-19T15:16:42+0000</time>
      </trkpt>
      <trkpt lat="40.86724" lon="-2.1873500000000003">
        <time>2021-06-19T15:16:43+0000</time>
      </trkpt>
      <trkpt lat="40.867180000000005" lon="-2.18746">
        <time>2021-06-19T15:16:44+0000</time>
      </trkpt>
      <trkpt lat="40.867090000000005" lon="-2.1875500000000003">
        <time>2021-06-19T15:16:45+0000</time>
      </trkpt>
      <trkpt lat="40.866980000000005" lon="-2.1876200000000003">
        <time>2021-06-19T15:16:46+0000</time>
      </trkpt>
      <trkpt lat="40.86686" lon="-2.18765">
        <time>2021-06-19T15:16:47+0000</time>
      </trkpt>
      <trkpt lat="40.86672" lon="-2.1876800000000003">
        <time>2021-06-19T15:16:48+0000</time>
      </trkpt>
      <trkpt lat="40.86659" lon="-2.18772">
        <time>2021-06-19T15:16:49+0000</time>
      </trkpt>
      <trkpt lat="40.86645" lon="-2.1877400000000002">
        <time>2021-06-19T15:16:50+0000</time>
      </trkpt>
      <trkpt lat="40.866330000000005" lon="-2.1877600000000004">
        <time>2021-06-19T15:16:51+0000</time>
      </trkpt>
      <trkpt lat="40.866220000000006" lon="-2.18777">
        <time>2021-06-19T15:16:52+0000</time>
      </trkpt>
      <trkpt lat="40.866130000000005" lon="-2.1878200000000003">
        <time>2021-06-19T15:16:53+0000</time>
      </trkpt>
      <trkpt lat="40.86605" lon="-2.1879000000000004">
        <time>2021-06-19T15:16:54+0000</time>
      </trkpt>
      <trkpt lat="40.865990000000004" lon="-2.1880200000000003">
        <time>2021-06-19T15:16:55+0000</time>
      </trkpt>
      <trkpt lat="40.865930000000006" lon="-2.1881600000000003">
        <time>2021-06-19T15:16:56+0000</time>
      </trkpt>
      <trkpt lat="40.865880000000004" lon="-2.18832">
        <time>2021-06-19T15:16:57+0000</time>
      </trkpt>
      <trkpt lat="40.86583" lon="-2.18847">
        <time>2021-06-19T15:16:58+0000</time>
      </trkpt>
      <trkpt lat="40.86578" lon="-2.1886">
        <time>2021-06-19T15:16:59+0000</time>
      </trkpt>
      <trkpt lat="40.86572" lon="-2.1886900000000002">
        <time>2021-06-19T15:17:00+0000</time>
      </trkpt>
      <trkpt lat="40.86565" lon="-2.1887600000000003">
        <time>2021-06-19T15:17:01+0000</time>
      </trkpt>
      <trkpt lat="40.86556" lon="-2.1888300000000003">
        <time>2021-06-19T15:17:02+0000</time>
      </trkpt>
      <trkpt lat="40.865460000000006" lon="-2.1889000000000003">
        <time>2021-06-19T15:17:03+0000</time>
      </trkpt>
      <trkpt lat="40.86535000000001" lon="-2.1889700000000003">
        <time>2021-06-19T15:17:04+0000</time>
      </trkpt>
      <trkpt lat="40.865230000000004" lon="-2.1890400000000003">
        <time>2021-06-19T15:17:05+0000</time>
      </trkpt>
      <trkpt lat="40.865100000000005" lon="-2.1891100000000003">
        <time>2021-06-19T15:17:06+0000</time>
      </trkpt>
      <trkpt lat="40.864990000000006" lon="-2.1891700000000003">
        <time>2021-06-19T15:17:07+0000</time>
      </trkpt>
      <trkpt lat="40.86488000000001" lon="-2.1892300000000002">
        <time>2021-06-19T15:17:08+0000</time>
      </trkpt>
      <trkpt lat="40.86478" lon="-2.1893200000000004">
        <time>2021-06-19T15:17:09+0000</time>
      </trkpt>
      <trkpt lat="40.864700000000006" lon="-2.18942">
        <time>2021-06-19T15:17:10+0000</time>
      </trkpt>
      <trkpt lat="40.864630000000005" lon="-2.18955">
        <time>2021-06-19T15:17:11+0000</time>
      </trkpt>
      <trkpt lat="40.864580000000004" lon="-2.18968">
        <time>2021-06-19T15:17:12+0000</time>
      </trkpt>
      <trkpt lat="40.86455" lon="-2.1898400000000002">
        <time>2021-06-19T15:17:13+0000</time>
      </trkpt>
      <trkpt lat="40.864540000000005" lon="-2.19001">
        <time>2021-06-19T15:17:14+0000</time>
      </trkpt>
      <trkpt lat="40.86453" lon="-2.1902000000000004">
        <time>2021-06-19T15:17:15+0000</time>
      </trkpt>
      <trkpt lat="40.86453" lon="-2.1904000000000003">
        <time>2021-06-19T15:17:16+0000</time>
      </trkpt>
      <trkpt lat="40.86451" lon="-2.1906000000000003">
        <time>2021-06-19T15:17:17+0000</time>
      </trkpt>
      <trkpt lat="40.86449" lon="-2.1908100000000004">
        <time>2021-06-19T15:17:18+0000</time>
      </trkpt>
      <trkpt lat="40.86446" lon="-2.19103">
        <time>2021-06-19T15:17:19+0000</time>
      </trkpt>
      <trkpt lat="40.86442" lon="-2.19125">
        <time>2021-06-19T15:17:20+0000</time>
      </trkpt>
      <trkpt lat="40.86439" lon="-2.1914900000000004">
        <time>2021-06-19T15:17:21+0000</time>
      </trkpt>
      <trkpt lat="40.864380000000004" lon="-2.19172">
        <time>2021-06-19T15:17:22+0000</time>
      </trkpt>
      <trkpt lat="40.86437" lon="-2.1919500000000003">
        <time>2021-06-19T15:17:23+0000</time>
      </trkpt>
      <trkpt lat="40.864360000000005" lon="-2.1921500000000003">
        <time>2021-06-19T15:17:24+0000</time>
      </trkpt>
      <trkpt lat="40.86435" lon="-2.19234">
        <time>2021-06-19T15:17:25+0000</time>
      </trkpt>
      <trkpt lat="40.864340000000006" lon="-2.1925000000000003">
        <time>2021-06-19T15:17:26+0000</time>
      </trkpt>
      <trkpt lat="40.86431" lon="-2.1926300000000003">
        <time>2021-06-19T15:17:27+0000</time>
      </trkpt>
      <trkpt lat="40.864270000000005" lon="-2.19275">
        <time>2021-06-19T15:17:28+0000</time>
      </trkpt>
      <trkpt lat="40.86421" lon="-2.19285">
        <time>2021-06-19T15:17:29+0000</time>
      </trkpt>
      <trkpt lat="40.86413" lon="-2.1929600000000002">
        <time>2021-06-19T15:17:30+0000</time>
      </trkpt>
      <trkpt lat="40.864050000000006" lon="-2.19308">
        <time>2021-06-19T15:17:31+0000</time>
      </trkpt>
      <trkpt lat="40.86395" lon="-2.1932">
        <time>2021-06-19T15:17:32+0000</time>
      </trkpt>
      <trkpt lat="40.86384" lon="-2.1933000000000002">
        <time>2021-06-19T15:17:33+0000</time>
      </trkpt>
      <trkpt lat="40.863730000000004" lon="-2.1933800000000003">
        <time>2021-06-19T15:17:34+0000</time>
      </trkpt>
      <trkpt lat="40.863620000000004" lon="-2.19343">
        <time>2021-06-19T15:17:35+0000</time>
      </trkpt>
      <trkpt lat="40.863510000000005" lon="-2.19346">
        <time>2021-06-19T15:17:36+0000</time>
      </trkpt>
      <trkpt lat="40.86339" lon="-2.1935000000000002">
        <time>2021-06-19T15:17:37+0000</time>
      </trkpt>
      <trkpt lat="40.86327" lon="-2.19348">
        <time>2021-06-19T15:17:38+0000</time>
      </trkpt>
      <trkpt lat="40.86316" lon="-2.19347">
        <time>2021-06-19T15:17:39+0000</time>
      </trkpt>
      <trkpt lat="40.86307" lon="-2.19347">
        <time>2021-06-19T15:17:40+0000</time>
      </trkpt>
      <trkpt lat="40.86299" lon="-2.19348">
        <time>2021-06-19T15:17:41+0000</time>
      </trkpt>
      <trkpt lat="40.862930000000006" lon="-2.19349">
        <time>2021-06-19T15:17:42+0000</time>
      </trkpt>
      <trkpt lat="40.86289" lon="-2.19356">
        <time>2021-06-19T15:17:43+0000</time>
      </trkpt>
      <trkpt lat="40.86287" lon="-2.19363">
        <time>2021-06-19T15:17:44+0000</time>
      </trkpt>
      <trkpt lat="40.86285" lon="-2.1937200000000003">
        <time>2021-06-19T15:17:45+0000</time>
      </trkpt>
      <trkpt lat="40.86283" lon="-2.1938400000000002">
        <time>2021-06-19T15:17:46+0000</time>
      </trkpt>
      <trkpt lat="40.862820000000006" lon="-2.1939800000000003">
        <time>2021-06-19T15:17:47+0000</time>
      </trkpt>
      <trkpt lat="40.862820000000006" lon="-2.19415">
        <time>2021-06-19T15:17:48+0000</time>
      </trkpt>
      <trkpt lat="40.86283" lon="-2.1943300000000003">
        <time>2021-06-19T15:17:49+0000</time>
      </trkpt>
      <trkpt lat="40.86283" lon="-2.19451">
        <time>2021-06-19T15:17:50+0000</time>
      </trkpt>
      <trkpt lat="40.862840000000006" lon="-2.19469">
        <time>2021-06-19T15:17:51+0000</time>
      </trkpt>
      <trkpt lat="40.862840000000006" lon="-2.1948700000000003">
        <time>2021-06-19T15:17:52+0000</time>
      </trkpt>
      <trkpt lat="40.86281" lon="-2.1950700000000003">
        <time>2021-06-19T15:17:53+0000</time>
      </trkpt>
      <trkpt lat="40.862770000000005" lon="-2.1952700000000003">
        <time>2021-06-19T15:17:54+0000</time>
      </trkpt>
      <trkpt lat="40.86272" lon="-2.1955">
        <time>2021-06-19T15:17:55+0000</time>
      </trkpt>
      <trkpt lat="40.862660000000005" lon="-2.1957">
        <time>2021-06-19T15:17:56+0000</time>
      </trkpt>
      <trkpt lat="40.8626" lon="-2.1959">
        <time>2021-06-19T15:17:57+0000</time>
      </trkpt>
      <trkpt lat="40.86254" lon="-2.1960800000000003">
        <time>2021-06-19T15:17:58+0000</time>
      </trkpt>
      <trkpt lat="40.862480000000005" lon="-2.19624">
        <time>2021-06-19T15:17:59+0000</time>
      </trkpt>
      <trkpt lat="40.86244000000001" lon="-2.19641">
        <time>2021-06-19T15:18:00+0000</time>
      </trkpt>
      <trkpt lat="40.8624" lon="-2.1965700000000004">
        <time>2021-06-19T15:18:01+0000</time>
      </trkpt>
      <trkpt lat="40.862370000000006" lon="-2.19673">
        <time>2021-06-19T15:18:02+0000</time>
      </trkpt>
      <trkpt lat="40.862350000000006" lon="-2.1968900000000002">
        <time>2021-06-19T15:18:03+0000</time>
      </trkpt>
      <trkpt lat="40.86233" lon="-2.1970400000000003">
        <time>2021-06-19T15:18:04+0000</time>
      </trkpt>
      <trkpt lat="40.86233" lon="-2.19719">
        <time>2021-06-19T15:18:05+0000</time>
      </trkpt>
      <trkpt lat="40.86234" lon="-2.19735">
        <time>2021-06-19T15:18:06+0000</time>
      </trkpt>
      <trkpt lat="40.862350000000006" lon="-2.1975100000000003">
        <time>2021-06-19T15:18:07+0000</time>
      </trkpt>
      <trkpt lat="40.86236" lon="-2.19769">
        <time>2021-06-19T15:18:08+0000</time>
      </trkpt>
      <trkpt lat="40.862370000000006" lon="-2.19788">
        <time>2021-06-19T15:18:09+0000</time>
      </trkpt>
      <trkpt lat="40.862370000000006" lon="-2.1981100000000002">
        <time>2021-06-19T15:18:10+0000</time>
      </trkpt>
      <trkpt lat="40.862370000000006" lon="-2.19837">
        <time>2021-06-19T15:18:11+0000</time>
      </trkpt>
      <trkpt lat="40.86236" lon="-2.19863">
        <time>2021-06-19T15:18:12+0000</time>
      </trkpt>
      <trkpt lat="40.86236" lon="-2.19889">
        <time>2021-06-19T15:18:13+0000</time>
      </trkpt>
      <trkpt lat="40.86236" lon="-2.1991400000000003">
        <time>2021-06-19T15:18:14+0000</time>
      </trkpt>
      <trkpt lat="40.862350000000006" lon="-2.19937">
        <time>2021-06-19T15:18:15+0000</time>
      </trkpt>
      <trkpt lat="40.862350000000006" lon="-2.19958">
        <time>2021-06-19T15:18:16+0000</time>
      </trkpt>
      <trkpt lat="40.86234" lon="-2.1997600000000004">
        <time>2021-06-19T15:18:17+0000</time>
      </trkpt>
      <trkpt lat="40.86233" lon="-2.19992">
        <time>2021-06-19T15:18:18+0000</time>
      </trkpt>
      <trkpt lat="40.862320000000004" lon="-2.20005">
        <time>2021-06-19T15:18:19+0000</time>
      </trkpt>
      <trkpt lat="40.86229" lon="-2.20017">
        <time>2021-06-19T15:18:20+0000</time>
      </trkpt>
      <trkpt lat="40.86225" lon="-2.20027">
        <time>2021-06-19T15:18:21+0000</time>
      </trkpt>
      <trkpt lat="40.86218" lon="-2.2003700000000004">
        <time>2021-06-19T15:18:22+0000</time>
      </trkpt>
      <trkpt lat="40.86209" lon="-2.20047">
        <time>2021-06-19T15:18:23+0000</time>
      </trkpt>
      <trkpt lat="40.86198" lon="-2.2005500000000002">
        <time>2021-06-19T15:18:24+0000</time>
      </trkpt>
      <trkpt lat="40.861880000000006" lon="-2.20065">
        <time>2021-06-19T15:18:25+0000</time>
      </trkpt>
      <trkpt lat="40.86178" lon="-2.20073">
        <time>2021-06-19T15:18:26+0000</time>
      </trkpt>
      <trkpt lat="40.86169" lon="-2.2008">
        <time>2021-06-19T15:18:27+0000</time>
      </trkpt>
      <trkpt lat="40.8616" lon="-2.20087">
        <time>2021-06-19T15:18:28+0000</time>
      </trkpt>
      <trkpt lat="40.86150000000001" lon="-2.20093">
        <time>2021-06-19T15:18:29+0000</time>
      </trkpt>
      <trkpt lat="40.86141000000001" lon="-2.201">
        <time>2021-06-19T15:18:30+0000</time>
      </trkpt>
      <trkpt lat="40.8613" lon="-2.20108">
        <time>2021-06-19T15:18:31+0000</time>
      </trkpt>
      <trkpt lat="40.861200000000004" lon="-2.2011600000000002">
        <time>2021-06-19T15:18:32+0000</time>
      </trkpt>
      <trkpt lat="40.861090000000004" lon="-2.2012500000000004">
        <time>2021-06-19T15:18:33+0000</time>
      </trkpt>
      <trkpt lat="40.86097" lon="-2.20134">
        <time>2021-06-19T15:18:34+0000</time>
      </trkpt>
      <trkpt lat="40.860870000000006" lon="-2.20142">
        <time>2021-06-19T15:18:35+0000</time>
      </trkpt>
      <trkpt lat="40.86077" lon="-2.20149">
        <time>2021-06-19T15:18:36+0000</time>
      </trkpt>
      <trkpt lat="40.86068" lon="-2.20156">
        <time>2021-06-19T15:18:37+0000</time>
      </trkpt>
      <trkpt lat="40.86059" lon="-2.20163">
        <time>2021-06-19T15:18:38+0000</time>
      </trkpt>
      <trkpt lat="40.8605" lon="-2.2017">
        <time>2021-06-19T15:18:39+0000</time>
      </trkpt>
      <trkpt lat="40.86041" lon="-2.2017700000000002">
        <time>2021-06-19T15:18:40+0000</time>
      </trkpt>
      <trkpt lat="40.860330000000005" lon="-2.2018600000000004">
        <time>2021-06-19T15:18:41+0000</time>
      </trkpt>
      <trkpt lat="40.860260000000004" lon="-2.2019800000000003">
        <time>2021-06-19T15:18:42+0000</time>
      </trkpt>
      <trkpt lat="40.860200000000006" lon="-2.2021100000000002">
        <time>2021-06-19T15:18:43+0000</time>
      </trkpt>
      <trkpt lat="40.860150000000004" lon="-2.20224">
        <time>2021-06-19T15:18:44+0000</time>
      </trkpt>
      <trkpt lat="40.86012" lon="-2.20237">
        <time>2021-06-19T15:18:45+0000</time>
      </trkpt>
      <trkpt lat="40.860110000000006" lon="-2.2025">
        <time>2021-06-19T15:18:46+0000</time>
      </trkpt>
      <trkpt lat="40.860110000000006" lon="-2.20262">
        <time>2021-06-19T15:18:47+0000</time>
      </trkpt>
      <trkpt lat="40.86012" lon="-2.2027400000000004">
        <time>2021-06-19T15:18:48+0000</time>
      </trkpt>
      <trkpt lat="40.860130000000005" lon="-2.2028600000000003">
        <time>2021-06-19T15:18:49+0000</time>
      </trkpt>
      <trkpt lat="40.860130000000005" lon="-2.20298">
        <time>2021-06-19T15:18:50+0000</time>
      </trkpt>
      <trkpt lat="40.860110000000006" lon="-2.20311">
        <time>2021-06-19T15:18:51+0000</time>
      </trkpt>
      <trkpt lat="40.86008" lon="-2.20323">
        <time>2021-06-19T15:18:52+0000</time>
      </trkpt>
      <trkpt lat="40.86005" lon="-2.20337">
        <time>2021-06-19T15:18:53+0000</time>
      </trkpt>
      <trkpt lat="40.86001" lon="-2.20352">
        <time>2021-06-19T15:18:54+0000</time>
      </trkpt>
      <trkpt lat="40.859970000000004" lon="-2.2036800000000003">
        <time>2021-06-19T15:18:55+0000</time>
      </trkpt>
      <trkpt lat="40.859930000000006" lon="-2.20385">
        <time>2021-06-19T15:18:56+0000</time>
      </trkpt>
      <trkpt lat="40.859880000000004" lon="-2.2040300000000004">
        <time>2021-06-19T15:18:57+0000</time>
      </trkpt>
      <trkpt lat="40.85983" lon="-2.2042">
        <time>2021-06-19T15:18:58+0000</time>
      </trkpt>
      <trkpt lat="40.859790000000004" lon="-2.20438">
        <time>2021-06-19T15:18:59+0000</time>
      </trkpt>
      <trkpt lat="40.85978" lon="-2.2045500000000002">
        <time>2021-06-19T15:19:00+0000</time>
      </trkpt>
      <trkpt lat="40.85978" lon="-2.20472">
        <time>2021-06-19T15:19:01+0000</time>
      </trkpt>
      <trkpt lat="40.8598" lon="-2.20488">
        <time>2021-06-19T15:19:02+0000</time>
      </trkpt>
      <trkpt lat="40.859840000000005" lon="-2.2050500000000004">
        <time>2021-06-19T15:19:03+0000</time>
      </trkpt>
      <trkpt lat="40.85992" lon="-2.20522">
        <time>2021-06-19T15:19:04+0000</time>
      </trkpt>
      <trkpt lat="40.85999" lon="-2.20541">
        <time>2021-06-19T15:19:05+0000</time>
      </trkpt>
      <trkpt lat="40.860040000000005" lon="-2.2055800000000003">
        <time>2021-06-19T15:19:06+0000</time>
      </trkpt>
      <trkpt lat="40.8601" lon="-2.20573">
        <time>2021-06-19T15:19:07+0000</time>
      </trkpt>
      <trkpt lat="40.86014" lon="-2.20588">
        <time>2021-06-19T15:19:08+0000</time>
      </trkpt>
      <trkpt lat="40.86016" lon="-2.20603">
        <time>2021-06-19T15:19:09+0000</time>
      </trkpt>
      <trkpt lat="40.86016" lon="-2.2061900000000003">
        <time>2021-06-19T15:19:10+0000</time>
      </trkpt>
      <trkpt lat="40.860150000000004" lon="-2.20636">
        <time>2021-06-19T15:19:11+0000</time>
      </trkpt>
      <trkpt lat="40.860150000000004" lon="-2.20655">
        <time>2021-06-19T15:19:12+0000</time>
      </trkpt>
      <trkpt lat="40.86014" lon="-2.2067300000000003">
        <time>2021-06-19T15:19:13+0000</time>
      </trkpt>
      <trkpt lat="40.860130000000005" lon="-2.20691">
        <time>2021-06-19T15:19:14+0000</time>
      </trkpt>
      <trkpt lat="40.86012" lon="-2.20709">
        <time>2021-06-19T15:19:15+0000</time>
      </trkpt>
      <trkpt lat="40.8601" lon="-2.2072700000000003">
        <time>2021-06-19T15:19:16+0000</time>
      </trkpt>
      <trkpt lat="40.86008" lon="-2.20744">
        <time>2021-06-19T15:19:17+0000</time>
      </trkpt>
      <trkpt lat="40.860060000000004" lon="-2.20763">
        <time>2021-06-19T15:19:18+0000</time>
      </trkpt>
      <trkpt lat="40.86003" lon="-2.2078100000000003">
        <time>2021-06-19T15:19:19+0000</time>
      </trkpt>
      <trkpt lat="40.85999" lon="-2.20798">
        <time>2021-06-19T15:19:20+0000</time>
      </trkpt>
      <trkpt lat="40.85994" lon="-2.2081500000000003">
        <time>2021-06-19T15:19:21+0000</time>
      </trkpt>
      <trkpt lat="40.85989" lon="-2.20833">
        <time>2021-06-19T15:19:22+0000</time>
      </trkpt>
      <trkpt lat="40.85983" lon="-2.20851">
        <time>2021-06-19T15:19:23+0000</time>
      </trkpt>
      <trkpt lat="40.85978" lon="-2.20868">
        <time>2021-06-19T15:19:24+0000</time>
      </trkpt>
      <trkpt lat="40.85972" lon="-2.20885">
        <time>2021-06-19T15:19:25+0000</time>
      </trkpt>
      <trkpt lat="40.859660000000005" lon="-2.20901">
        <time>2021-06-19T15:19:26+0000</time>
      </trkpt>
      <trkpt lat="40.85962000000001" lon="-2.2091600000000002">
        <time>2021-06-19T15:19:27+0000</time>
      </trkpt>
      <trkpt lat="40.85958" lon="-2.2093000000000003">
        <time>2021-06-19T15:19:28+0000</time>
      </trkpt>
      <trkpt lat="40.85954" lon="-2.2094300000000002">
        <time>2021-06-19T15:19:29+0000</time>
      </trkpt>
      <trkpt lat="40.85951" lon="-2.20954">
        <time>2021-06-19T15:19:30+0000</time>
      </trkpt>
      <trkpt lat="40.85947" lon="-2.2096400000000003">
        <time>2021-06-19T15:19:31+0000</time>
      </trkpt>
      <trkpt lat="40.85942" lon="-2.20973">
        <time>2021-06-19T15:19:32+0000</time>
      </trkpt>
      <trkpt lat="40.85936" lon="-2.2097900000000004">
        <time>2021-06-19T15:19:33+0000</time>
      </trkpt>
      <trkpt lat="40.859300000000005" lon="-2.2098500000000003">
        <time>2021-06-19T15:19:34+0000</time>
      </trkpt>
      <trkpt lat="40.8592" lon="-2.20989">
        <time>2021-06-19T15:19:35+0000</time>
      </trkpt>
      <trkpt lat="40.85909" lon="-2.2099100000000003">
        <time>2021-06-19T15:19:36+0000</time>
      </trkpt>
      <trkpt lat="40.85896" lon="-2.2099200000000003">
        <time>2021-06-19T15:19:37+0000</time>
      </trkpt>
      <trkpt lat="40.858830000000005" lon="-2.20994">
        <time>2021-06-19T15:19:38+0000</time>
      </trkpt>
      <trkpt lat="40.85869" lon="-2.20995">
        <time>2021-06-19T15:19:39+0000</time>
      </trkpt>
      <trkpt lat="40.85855" lon="-2.20997">
        <time>2021-06-19T15:19:40+0000</time>
      </trkpt>
      <trkpt lat="40.858410000000006" lon="-2.2099900000000003">
        <time>2021-06-19T15:19:41+0000</time>
      </trkpt>
      <trkpt lat="40.85828" lon="-2.2100600000000004">
        <time>2021-06-19T15:19:42+0000</time>
      </trkpt>
      <trkpt lat="40.85815" lon="-2.2101200000000003">
        <time>2021-06-19T15:19:43+0000</time>
      </trkpt>
      <trkpt lat="40.85802" lon="-2.2101900000000003">
        <time>2021-06-19T15:19:44+0000</time>
      </trkpt>
      <trkpt lat="40.857890000000005" lon="-2.2102500000000003">
        <time>2021-06-19T15:19:45+0000</time>
      </trkpt>
      <trkpt lat="40.857760000000006" lon="-2.2103">
        <time>2021-06-19T15:19:46+0000</time>
      </trkpt>
      <trkpt lat="40.85764" lon="-2.21034">
        <time>2021-06-19T15:19:47+0000</time>
      </trkpt>
      <trkpt lat="40.857530000000004" lon="-2.2103800000000002">
        <time>2021-06-19T15:19:48+0000</time>
      </trkpt>
      <trkpt lat="40.857420000000005" lon="-2.21041">
        <time>2021-06-19T15:19:49+0000</time>
      </trkpt>
      <trkpt lat="40.857330000000005" lon="-2.2104500000000002">
        <time>2021-06-19T15:19:50+0000</time>
      </trkpt>
      <trkpt lat="40.857240000000004" lon="-2.21049">
        <time>2021-06-19T15:19:51+0000</time>
      </trkpt>
      <trkpt lat="40.85717" lon="-2.2105300000000003">
        <time>2021-06-19T15:19:52+0000</time>
      </trkpt>
      <trkpt lat="40.8571" lon="-2.21057">
        <time>2021-06-19T15:19:53+0000</time>
      </trkpt>
      <trkpt lat="40.85705" lon="-2.21062">
        <time>2021-06-19T15:19:54+0000</time>
      </trkpt>
      <trkpt lat="40.85701" lon="-2.21068">
        <time>2021-06-19T15:19:55+0000</time>
      </trkpt>
      <trkpt lat="40.85698" lon="-2.21075">
        <time>2021-06-19T15:19:56+0000</time>
      </trkpt>
      <trkpt lat="40.85698" lon="-2.21082">
        <time>2021-06-19T15:19:57+0000</time>
      </trkpt>
      <trkpt lat="40.857000000000006" lon="-2.2109">
        <time>2021-06-19T15:19:58+0000</time>
      </trkpt>
      <trkpt lat="40.857060000000004" lon="-2.21096">
        <time>2021-06-19T15:19:59+0000</time>
      </trkpt>
      <trkpt lat="40.85708" lon="-2.2110600000000002">
        <time>2021-06-19T15:20:00+0000</time>
      </trkpt>
      <trkpt lat="40.85708" lon="-2.21116">
        <time>2021-06-19T15:20:01+0000</time>
      </trkpt>
      <trkpt lat="40.85707" lon="-2.21125">
        <time>2021-06-19T15:20:02+0000</time>
      </trkpt>
      <trkpt lat="40.857020000000006" lon="-2.21136">
        <time>2021-06-19T15:20:03+0000</time>
      </trkpt>
      <trkpt lat="40.85694" lon="-2.2114900000000004">
        <time>2021-06-19T15:20:04+0000</time>
      </trkpt>
      <trkpt lat="40.856860000000005" lon="-2.2116200000000004">
        <time>2021-06-19T15:20:05+0000</time>
      </trkpt>
      <trkpt lat="40.85678" lon="-2.2117500000000003">
        <time>2021-06-19T15:20:06+0000</time>
      </trkpt>
      <trkpt lat="40.856700000000004" lon="-2.2118700000000002">
        <time>2021-06-19T15:20:07+0000</time>
      </trkpt>
      <trkpt lat="40.85661" lon="-2.21198">
        <time>2021-06-19T15:20:08+0000</time>
      </trkpt>
      <trkpt lat="40.85651" lon="-2.21207">
        <time>2021-06-19T15:20:09+0000</time>
      </trkpt>
      <trkpt lat="40.856390000000005" lon="-2.2121600000000003">
        <time>2021-06-19T15:20:10+0000</time>
      </trkpt>
      <trkpt lat="40.856260000000006" lon="-2.21226">
        <time>2021-06-19T15:20:11+0000</time>
      </trkpt>
      <trkpt lat="40.85614" lon="-2.2123500000000003">
        <time>2021-06-19T15:20:12+0000</time>
      </trkpt>
      <trkpt lat="40.856" lon="-2.21245">
        <time>2021-06-19T15:20:13+0000</time>
      </trkpt>
      <trkpt lat="40.855850000000004" lon="-2.2125500000000002">
        <time>2021-06-19T15:20:14+0000</time>
      </trkpt>
      <trkpt lat="40.855700000000006" lon="-2.21267">
        <time>2021-06-19T15:20:15+0000</time>
      </trkpt>
      <trkpt lat="40.855540000000005" lon="-2.21279">
        <time>2021-06-19T15:20:16+0000</time>
      </trkpt>
      <trkpt lat="40.85539" lon="-2.2129000000000003">
        <time>2021-06-19T15:20:17+0000</time>
      </trkpt>
      <trkpt lat="40.855230000000006" lon="-2.21301">
        <time>2021-06-19T15:20:18+0000</time>
      </trkpt>
      <trkpt lat="40.85508" lon="-2.2131100000000004">
        <time>2021-06-19T15:20:19+0000</time>
      </trkpt>
      <trkpt lat="40.85493" lon="-2.2132">
        <time>2021-06-19T15:20:20+0000</time>
      </trkpt>
      <trkpt lat="40.85479" lon="-2.21328">
        <time>2021-06-19T15:20:21+0000</time>
      </trkpt>
      <trkpt lat="40.85464" lon="-2.21336">
        <time>2021-06-19T15:20:22+0000</time>
      </trkpt>
      <trkpt lat="40.8545" lon="-2.2134300000000002">
        <time>2021-06-19T15:20:23+0000</time>
      </trkpt>
      <trkpt lat="40.85436000000001" lon="-2.2135000000000002">
        <time>2021-06-19T15:20:24+0000</time>
      </trkpt>
      <trkpt lat="40.854220000000005" lon="-2.21354">
        <time>2021-06-19T15:20:25+0000</time>
      </trkpt>
      <trkpt lat="40.85407" lon="-2.2135800000000003">
        <time>2021-06-19T15:20:26+0000</time>
      </trkpt>
      <trkpt lat="40.85394" lon="-2.21361">
        <time>2021-06-19T15:20:27+0000</time>
      </trkpt>
      <trkpt lat="40.85380000000001" lon="-2.21363">
        <time>2021-06-19T15:20:28+0000</time>
      </trkpt>
      <trkpt lat="40.85365" lon="-2.2136500000000003">
        <time>2021-06-19T15:20:29+0000</time>
      </trkpt>
      <trkpt lat="40.853500000000004" lon="-2.2136500000000003">
        <time>2021-06-19T15:20:30+0000</time>
      </trkpt>
      <trkpt lat="40.85334" lon="-2.2136400000000003">
        <time>2021-06-19T15:20:31+0000</time>
      </trkpt>
      <trkpt lat="40.853170000000006" lon="-2.2136400000000003">
        <time>2021-06-19T15:20:32+0000</time>
      </trkpt>
      <trkpt lat="40.853" lon="-2.21363">
        <time>2021-06-19T15:20:33+0000</time>
      </trkpt>
      <trkpt lat="40.85282" lon="-2.21363">
        <time>2021-06-19T15:20:34+0000</time>
      </trkpt>
      <trkpt lat="40.85266" lon="-2.21363">
        <time>2021-06-19T15:20:35+0000</time>
      </trkpt>
      <trkpt lat="40.85249" lon="-2.2136400000000003">
        <time>2021-06-19T15:20:36+0000</time>
      </trkpt>
      <trkpt lat="40.852320000000006" lon="-2.2136500000000003">
        <time>2021-06-19T15:20:37+0000</time>
      </trkpt>
      <trkpt lat="40.85215" lon="-2.2136500000000003">
        <time>2021-06-19T15:20:38+0000</time>
      </trkpt>
      <trkpt lat="40.85199" lon="-2.21366">
        <time>2021-06-19T15:20:39+0000</time>
      </trkpt>
      <trkpt lat="40.851820000000004" lon="-2.21366">
        <time>2021-06-19T15:20:40+0000</time>
      </trkpt>
      <trkpt lat="40.85165000000001" lon="-2.21367">
        <time>2021-06-19T15:20:41+0000</time>
      </trkpt>
      <trkpt lat="40.85148" lon="-2.21366">
        <time>2021-06-19T15:20:42+0000</time>
      </trkpt>
      <trkpt lat="40.851310000000005" lon="-2.2136500000000003">
        <time>2021-06-19T15:20:43+0000</time>
      </trkpt>
      <trkpt lat="40.851130000000005" lon="-2.2136400000000003">
        <time>2021-06-19T15:20:44+0000</time>
      </trkpt>
      <trkpt lat="40.850950000000005" lon="-2.21361">
        <time>2021-06-19T15:20:45+0000</time>
      </trkpt>
      <trkpt lat="40.85078" lon="-2.2135900000000004">
        <time>2021-06-19T15:20:46+0000</time>
      </trkpt>
      <trkpt lat="40.8506" lon="-2.21356">
        <time>2021-06-19T15:20:47+0000</time>
      </trkpt>
      <trkpt lat="40.85042000000001" lon="-2.21354">
        <time>2021-06-19T15:20:48+0000</time>
      </trkpt>
      <trkpt lat="40.85024000000001" lon="-2.2135100000000003">
        <time>2021-06-19T15:20:49+0000</time>
      </trkpt>
      <trkpt lat="40.850060000000006" lon="-2.21347">
        <time>2021-06-19T15:20:50+0000</time>
      </trkpt>
      <trkpt lat="40.84989" lon="-2.2134400000000003">
        <time>2021-06-19T15:20:51+0000</time>
      </trkpt>
      <trkpt lat="40.849720000000005" lon="-2.21341">
        <time>2021-06-19T15:20:52+0000</time>
      </trkpt>
      <trkpt lat="40.84955" lon="-2.2133700000000003">
        <time>2021-06-19T15:20:53+0000</time>
      </trkpt>
      <trkpt lat="40.849380000000004" lon="-2.21334">
        <time>2021-06-19T15:20:54+0000</time>
      </trkpt>
      <trkpt lat="40.84922" lon="-2.2133000000000003">
        <time>2021-06-19T15:20:55+0000</time>
      </trkpt>
      <trkpt lat="40.849050000000005" lon="-2.21327">
        <time>2021-06-19T15:20:56+0000</time>
      </trkpt>
      <trkpt lat="40.848890000000004" lon="-2.2132400000000003">
        <time>2021-06-19T15:20:57+0000</time>
      </trkpt>
      <trkpt lat="40.84873" lon="-2.21321">
        <time>2021-06-19T15:20:58+0000</time>
      </trkpt>
      <trkpt lat="40.848560000000006" lon="-2.2131700000000003">
        <time>2021-06-19T15:20:59+0000</time>
      </trkpt>
      <trkpt lat="40.848400000000005" lon="-2.21314">
        <time>2021-06-19T15:21:00+0000</time>
      </trkpt>
      <trkpt lat="40.848240000000004" lon="-2.2131100000000004">
        <time>2021-06-19T15:21:01+0000</time>
      </trkpt>
      <trkpt lat="40.84808" lon="-2.2130900000000002">
        <time>2021-06-19T15:21:02+0000</time>
      </trkpt>
      <trkpt lat="40.84792" lon="-2.21307">
        <time>2021-06-19T15:21:03+0000</time>
      </trkpt>
      <trkpt lat="40.847750000000005" lon="-2.21305">
        <time>2021-06-19T15:21:04+0000</time>
      </trkpt>
      <trkpt lat="40.84758" lon="-2.2130300000000003">
        <time>2021-06-19T15:21:05+0000</time>
      </trkpt>
      <trkpt lat="40.84743" lon="-2.21302">
        <time>2021-06-19T15:21:06+0000</time>
      </trkpt>
      <trkpt lat="40.84729" lon="-2.213">
        <time>2021-06-19T15:21:07+0000</time>
      </trkpt>
      <trkpt lat="40.84716" lon="-2.2129800000000004">
        <time>2021-06-19T15:21:08+0000</time>
      </trkpt>
      <trkpt lat="40.84704" lon="-2.2129700000000003">
        <time>2021-06-19T15:21:09+0000</time>
      </trkpt>
      <trkpt lat="40.846920000000004" lon="-2.21295">
        <time>2021-06-19T15:21:10+0000</time>
      </trkpt>
      <trkpt lat="40.846810000000005" lon="-2.21294">
        <time>2021-06-19T15:21:11+0000</time>
      </trkpt>
      <trkpt lat="40.846700000000006" lon="-2.2129700000000003">
        <time>2021-06-19T15:21:12+0000</time>
      </trkpt>
      <trkpt lat="40.8466" lon="-2.21301">
        <time>2021-06-19T15:21:13+0000</time>
      </trkpt>
      <trkpt lat="40.84648000000001" lon="-2.21308">
        <time>2021-06-19T15:21:14+0000</time>
      </trkpt>
      <trkpt lat="40.846360000000004" lon="-2.21315">
        <time>2021-06-19T15:21:15+0000</time>
      </trkpt>
      <trkpt lat="40.846250000000005" lon="-2.2132400000000003">
        <time>2021-06-19T15:21:16+0000</time>
      </trkpt>
      <trkpt lat="40.84613" lon="-2.21334">
        <time>2021-06-19T15:21:17+0000</time>
      </trkpt>
      <trkpt lat="40.84602" lon="-2.2134500000000004">
        <time>2021-06-19T15:21:18+0000</time>
      </trkpt>
      <trkpt lat="40.84591" lon="-2.21355">
        <time>2021-06-19T15:21:19+0000</time>
      </trkpt>
      <trkpt lat="40.84579" lon="-2.21366">
        <time>2021-06-19T15:21:20+0000</time>
      </trkpt>
      <trkpt lat="40.845670000000005" lon="-2.21376">
        <time>2021-06-19T15:21:21+0000</time>
      </trkpt>
      <trkpt lat="40.84555" lon="-2.2138400000000003">
        <time>2021-06-19T15:21:22+0000</time>
      </trkpt>
      <trkpt lat="40.84543" lon="-2.2139">
        <time>2021-06-19T15:21:23+0000</time>
      </trkpt>
      <trkpt lat="40.845290000000006" lon="-2.21396">
        <time>2021-06-19T15:21:24+0000</time>
      </trkpt>
      <trkpt lat="40.84516" lon="-2.214">
        <time>2021-06-19T15:21:25+0000</time>
      </trkpt>
      <trkpt lat="40.84501" lon="-2.21403">
        <time>2021-06-19T15:21:26+0000</time>
      </trkpt>
      <trkpt lat="40.84487" lon="-2.2140600000000004">
        <time>2021-06-19T15:21:27+0000</time>
      </trkpt>
      <trkpt lat="40.84474" lon="-2.21408">
        <time>2021-06-19T15:21:28+0000</time>
      </trkpt>
      <trkpt lat="40.84461" lon="-2.21408">
        <time>2021-06-19T15:21:29+0000</time>
      </trkpt>
      <trkpt lat="40.844480000000004" lon="-2.2140400000000002">
        <time>2021-06-19T15:21:30+0000</time>
      </trkpt>
      <trkpt lat="40.84436" lon="-2.21397">
        <time>2021-06-19T15:21:31+0000</time>
      </trkpt>
      <trkpt lat="40.84425" lon="-2.21388">
        <time>2021-06-19T15:21:32+0000</time>
      </trkpt>
      <trkpt lat="40.844150000000006" lon="-2.2137700000000002">
        <time>2021-06-19T15:21:33+0000</time>
      </trkpt>
      <trkpt lat="40.84405" lon="-2.21368">
        <time>2021-06-19T15:21:34+0000</time>
      </trkpt>
      <trkpt lat="40.84396" lon="-2.21361">
        <time>2021-06-19T15:21:35+0000</time>
      </trkpt>
      <trkpt lat="40.84385" lon="-2.21356">
        <time>2021-06-19T15:21:36+0000</time>
      </trkpt>
      <trkpt lat="40.843740000000004" lon="-2.21353">
        <time>2021-06-19T15:21:37+0000</time>
      </trkpt>
      <trkpt lat="40.843630000000005" lon="-2.2135200000000004">
        <time>2021-06-19T15:21:38+0000</time>
      </trkpt>
      <trkpt lat="40.84355" lon="-2.21356">
        <time>2021-06-19T15:21:39+0000</time>
      </trkpt>
      <trkpt lat="40.84349" lon="-2.21362">
        <time>2021-06-19T15:21:40+0000</time>
      </trkpt>
      <trkpt lat="40.84346" lon="-2.2137000000000002">
        <time>2021-06-19T15:21:41+0000</time>
      </trkpt>
      <trkpt lat="40.843450000000004" lon="-2.2138">
        <time>2021-06-19T15:21:42+0000</time>
      </trkpt>
      <trkpt lat="40.84348000000001" lon="-2.2139">
        <time>2021-06-19T15:21:43+0000</time>
      </trkpt>
      <trkpt lat="40.84353" lon="-2.21402">
        <time>2021-06-19T15:21:44+0000</time>
      </trkpt>
      <trkpt lat="40.84362" lon="-2.21415">
        <time>2021-06-19T15:21:45+0000</time>
      </trkpt>
      <trkpt lat="40.843700000000005" lon="-2.2143">
        <time>2021-06-19T15:21:46+0000</time>
      </trkpt>
      <trkpt lat="40.84378" lon="-2.2144600000000003">
        <time>2021-06-19T15:21:47+0000</time>
      </trkpt>
      <trkpt lat="40.84387" lon="-2.21463">
        <time>2021-06-19T15:21:48+0000</time>
      </trkpt>
      <trkpt lat="40.84394" lon="-2.2147900000000003">
        <time>2021-06-19T15:21:49+0000</time>
      </trkpt>
      <trkpt lat="40.844" lon="-2.21495">
        <time>2021-06-19T15:21:50+0000</time>
      </trkpt>
      <trkpt lat="40.844060000000006" lon="-2.21511">
        <time>2021-06-19T15:21:51+0000</time>
      </trkpt>
      <trkpt lat="40.844100000000005" lon="-2.2152700000000003">
        <time>2021-06-19T15:21:52+0000</time>
      </trkpt>
      <trkpt lat="40.84413" lon="-2.21543">
        <time>2021-06-19T15:21:53+0000</time>
      </trkpt>
      <trkpt lat="40.844150000000006" lon="-2.2156100000000003">
        <time>2021-06-19T15:21:54+0000</time>
      </trkpt>
      <trkpt lat="40.84418" lon="-2.21577">
        <time>2021-06-19T15:21:55+0000</time>
      </trkpt>
      <trkpt lat="40.844210000000004" lon="-2.2159400000000002">
        <time>2021-06-19T15:21:56+0000</time>
      </trkpt>
      <trkpt lat="40.844240000000006" lon="-2.2160900000000003">
        <time>2021-06-19T15:21:57+0000</time>
      </trkpt>
      <trkpt lat="40.844300000000004" lon="-2.2162300000000004">
        <time>2021-06-19T15:21:58+0000</time>
      </trkpt>
      <trkpt lat="40.844350000000006" lon="-2.2163600000000003">
        <time>2021-06-19T15:21:59+0000</time>
      </trkpt>
      <trkpt lat="40.84441" lon="-2.2164800000000002">
        <time>2021-06-19T15:22:00+0000</time>
      </trkpt>
      <trkpt lat="40.844460000000005" lon="-2.21658">
        <time>2021-06-19T15:22:01+0000</time>
      </trkpt>
      <trkpt lat="40.844500000000004" lon="-2.21668">
        <time>2021-06-19T15:22:02+0000</time>
      </trkpt>
      <trkpt lat="40.844550000000005" lon="-2.2167700000000004">
        <time>2021-06-19T15:22:03+0000</time>
      </trkpt>
      <trkpt lat="40.84458" lon="-2.21686">
        <time>2021-06-19T15:22:04+0000</time>
      </trkpt>
      <trkpt lat="40.84461" lon="-2.21695">
        <time>2021-06-19T15:22:05+0000</time>
      </trkpt>
      <trkpt lat="40.844620000000006" lon="-2.2170400000000003">
        <time>2021-06-19T15:22:06+0000</time>
      </trkpt>
      <trkpt lat="40.84461" lon="-2.21714">
        <time>2021-06-19T15:22:07+0000</time>
      </trkpt>
      <trkpt lat="40.84458" lon="-2.2172400000000003">
        <time>2021-06-19T15:22:08+0000</time>
      </trkpt>
      <trkpt lat="40.84454" lon="-2.21735">
        <time>2021-06-19T15:22:09+0000</time>
      </trkpt>
      <trkpt lat="40.844480000000004" lon="-2.21746">
        <time>2021-06-19T15:22:10+0000</time>
      </trkpt>
      <trkpt lat="40.84441" lon="-2.21755">
        <time>2021-06-19T15:22:11+0000</time>
      </trkpt>
      <trkpt lat="40.84433000000001" lon="-2.21761">
        <time>2021-06-19T15:22:12+0000</time>
      </trkpt>
      <trkpt lat="40.84425" lon="-2.21766">
        <time>2021-06-19T15:22:13+0000</time>
      </trkpt>
      <trkpt lat="40.844150000000006" lon="-2.2176500000000003">
        <time>2021-06-19T15:22:14+0000</time>
      </trkpt>
      <trkpt lat="40.84404000000001" lon="-2.2175900000000004">
        <time>2021-06-19T15:22:15+0000</time>
      </trkpt>
      <trkpt lat="40.84394" lon="-2.21753">
        <time>2021-06-19T15:22:16+0000</time>
      </trkpt>
      <trkpt lat="40.843830000000004" lon="-2.21749">
        <time>2021-06-19T15:22:17+0000</time>
      </trkpt>
      <trkpt lat="40.843740000000004" lon="-2.21747">
        <time>2021-06-19T15:22:18+0000</time>
      </trkpt>
      <trkpt lat="40.84364" lon="-2.2174500000000004">
        <time>2021-06-19T15:22:19+0000</time>
      </trkpt>
      <trkpt lat="40.843540000000004" lon="-2.2175000000000002">
        <time>2021-06-19T15:22:20+0000</time>
      </trkpt>
      <trkpt lat="40.843430000000005" lon="-2.2175900000000004">
        <time>2021-06-19T15:22:21+0000</time>
      </trkpt>
      <trkpt lat="40.843320000000006" lon="-2.21767">
        <time>2021-06-19T15:22:22+0000</time>
      </trkpt>
      <trkpt lat="40.84319" lon="-2.21774">
        <time>2021-06-19T15:22:23+0000</time>
      </trkpt>
      <trkpt lat="40.84304" lon="-2.2177900000000004">
        <time>2021-06-19T15:22:24+0000</time>
      </trkpt>
      <trkpt lat="40.84288" lon="-2.2177800000000003">
        <time>2021-06-19T15:22:25+0000</time>
      </trkpt>
      <trkpt lat="40.8427" lon="-2.21775">
        <time>2021-06-19T15:22:26+0000</time>
      </trkpt>
      <trkpt lat="40.84252" lon="-2.21769">
        <time>2021-06-19T15:22:27+0000</time>
      </trkpt>
      <trkpt lat="40.84232" lon="-2.21766">
        <time>2021-06-19T15:22:28+0000</time>
      </trkpt>
      <trkpt lat="40.84212" lon="-2.2176">
        <time>2021-06-19T15:22:29+0000</time>
      </trkpt>
      <trkpt lat="40.841930000000005" lon="-2.21754">
        <time>2021-06-19T15:22:30+0000</time>
      </trkpt>
      <trkpt lat="40.84176" lon="-2.21747">
        <time>2021-06-19T15:22:31+0000</time>
      </trkpt>
      <trkpt lat="40.84160000000001" lon="-2.21742">
        <time>2021-06-19T15:22:32+0000</time>
      </trkpt>
      <trkpt lat="40.84147" lon="-2.2173800000000004">
        <time>2021-06-19T15:22:33+0000</time>
      </trkpt>
      <trkpt lat="40.84134" lon="-2.21735">
        <time>2021-06-19T15:22:34+0000</time>
      </trkpt>
      <trkpt lat="40.8412" lon="-2.21736">
        <time>2021-06-19T15:22:35+0000</time>
      </trkpt>
      <trkpt lat="40.841060000000006" lon="-2.21741">
        <time>2021-06-19T15:22:36+0000</time>
      </trkpt>
      <trkpt lat="40.840900000000005" lon="-2.21746">
        <time>2021-06-19T15:22:37+0000</time>
      </trkpt>
      <trkpt lat="40.84075" lon="-2.21747">
        <time>2021-06-19T15:22:38+0000</time>
      </trkpt>
      <trkpt lat="40.84058" lon="-2.21742">
        <time>2021-06-19T15:22:39+0000</time>
      </trkpt>
      <trkpt lat="40.84042" lon="-2.21733">
        <time>2021-06-19T15:22:40+0000</time>
      </trkpt>
      <trkpt lat="40.840250000000005" lon="-2.21728">
        <time>2021-06-19T15:22:41+0000</time>
      </trkpt>
      <trkpt lat="40.840090000000004" lon="-2.2172400000000003">
        <time>2021-06-19T15:22:42+0000</time>
      </trkpt>
      <trkpt lat="40.839920000000006" lon="-2.21721">
        <time>2021-06-19T15:22:43+0000</time>
      </trkpt>
      <trkpt lat="40.839760000000005" lon="-2.21719">
        <time>2021-06-19T15:22:44+0000</time>
      </trkpt>
      <trkpt lat="40.839600000000004" lon="-2.2171600000000002">
        <time>2021-06-19T15:22:45+0000</time>
      </trkpt>
      <trkpt lat="40.83943" lon="-2.21715">
        <time>2021-06-19T15:22:46+0000</time>
      </trkpt>
      <trkpt lat="40.839270000000006" lon="-2.21713">
        <time>2021-06-19T15:22:47+0000</time>
      </trkpt>
      <trkpt lat="40.83912" lon="-2.2171100000000004">
        <time>2021-06-19T15:22:48+0000</time>
      </trkpt>
      <trkpt lat="40.83899" lon="-2.2171000000000003">
        <time>2021-06-19T15:22:49+0000</time>
      </trkpt>
      <trkpt lat="40.83887" lon="-2.2170900000000002">
        <time>2021-06-19T15:22:50+0000</time>
      </trkpt>
      <trkpt lat="40.838750000000005" lon="-2.21708">
        <time>2021-06-19T15:22:51+0000</time>
      </trkpt>
      <trkpt lat="40.838620000000006" lon="-2.2171600000000002">
        <time>2021-06-19T15:22:52+0000</time>
      </trkpt>
      <trkpt lat="40.838480000000004" lon="-2.21721">
        <time>2021-06-19T15:22:53+0000</time>
      </trkpt>
      <trkpt lat="40.83832" lon="-2.21727">
        <time>2021-06-19T15:22:54+0000</time>
      </trkpt>
      <trkpt lat="40.83816" lon="-2.2173100000000003">
        <time>2021-06-19T15:22:55+0000</time>
      </trkpt>
      <trkpt lat="40.838010000000004" lon="-2.21734">
        <time>2021-06-19T15:22:56+0000</time>
      </trkpt>
      <trkpt lat="40.83785" lon="-2.21735">
        <time>2021-06-19T15:22:57+0000</time>
      </trkpt>
      <trkpt lat="40.83769" lon="-2.21739">
        <time>2021-06-19T15:22:58+0000</time>
      </trkpt>
      <trkpt lat="40.837520000000005" lon="-2.21741">
        <time>2021-06-19T15:22:59+0000</time>
      </trkpt>
      <trkpt lat="40.83735" lon="-2.21742">
        <time>2021-06-19T15:23:00+0000</time>
      </trkpt>
      <trkpt lat="40.83719000000001" lon="-2.2174300000000002">
        <time>2021-06-19T15:23:01+0000</time>
      </trkpt>
      <trkpt lat="40.83704" lon="-2.2174300000000002">
        <time>2021-06-19T15:23:02+0000</time>
      </trkpt>
      <trkpt lat="40.836890000000004" lon="-2.2174400000000003">
        <time>2021-06-19T15:23:03+0000</time>
      </trkpt>
      <trkpt lat="40.83673" lon="-2.21746">
        <time>2021-06-19T15:23:04+0000</time>
      </trkpt>
      <trkpt lat="40.836580000000005" lon="-2.21749">
        <time>2021-06-19T15:23:05+0000</time>
      </trkpt>
      <trkpt lat="40.836420000000004" lon="-2.2175000000000002">
        <time>2021-06-19T15:23:06+0000</time>
      </trkpt>
      <trkpt lat="40.83626" lon="-2.2175200000000004">
        <time>2021-06-19T15:23:07+0000</time>
      </trkpt>
      <trkpt lat="40.83608" lon="-2.21749">
        <time>2021-06-19T15:23:08+0000</time>
      </trkpt>
      <trkpt lat="40.835890000000006" lon="-2.21742">
        <time>2021-06-19T15:23:09+0000</time>
      </trkpt>
      <trkpt lat="40.83569000000001" lon="-2.21734">
        <time>2021-06-19T15:23:10+0000</time>
      </trkpt>
      <trkpt lat="40.8355" lon="-2.21727">
        <time>2021-06-19T15:23:11+0000</time>
      </trkpt>
      <trkpt lat="40.83531000000001" lon="-2.2172">
        <time>2021-06-19T15:23:12+0000</time>
      </trkpt>
      <trkpt lat="40.83513000000001" lon="-2.21713">
        <time>2021-06-19T15:23:13+0000</time>
      </trkpt>
      <trkpt lat="40.83496" lon="-2.21707">
        <time>2021-06-19T15:23:14+0000</time>
      </trkpt>
      <trkpt lat="40.834790000000005" lon="-2.217">
        <time>2021-06-19T15:23:15+0000</time>
      </trkpt>
      <trkpt lat="40.834630000000004" lon="-2.21693">
        <time>2021-06-19T15:23:16+0000</time>
      </trkpt>
      <trkpt lat="40.834480000000006" lon="-2.21685">
        <time>2021-06-19T15:23:17+0000</time>
      </trkpt>
      <trkpt lat="40.83433" lon="-2.21678">
        <time>2021-06-19T15:23:18+0000</time>
      </trkpt>
      <trkpt lat="40.83418" lon="-2.21672">
        <time>2021-06-19T15:23:19+0000</time>
      </trkpt>
      <trkpt lat="40.834" lon="-2.2167000000000003">
        <time>2021-06-19T15:23:20+0000</time>
      </trkpt>
      <trkpt lat="40.833800000000004" lon="-2.21668">
        <time>2021-06-19T15:23:21+0000</time>
      </trkpt>
      <trkpt lat="40.833600000000004" lon="-2.21665">
        <time>2021-06-19T15:23:22+0000</time>
      </trkpt>
      <trkpt lat="40.83341" lon="-2.21661">
        <time>2021-06-19T15:23:23+0000</time>
      </trkpt>
      <trkpt lat="40.83321" lon="-2.2165600000000003">
        <time>2021-06-19T15:23:24+0000</time>
      </trkpt>
      <trkpt lat="40.83303" lon="-2.21651">
        <time>2021-06-19T15:23:25+0000</time>
      </trkpt>
      <trkpt lat="40.832860000000004" lon="-2.21644">
        <time>2021-06-19T15:23:26+0000</time>
      </trkpt>
      <trkpt lat="40.8327" lon="-2.2163700000000004">
        <time>2021-06-19T15:23:27+0000</time>
      </trkpt>
      <trkpt lat="40.83256" lon="-2.21631">
        <time>2021-06-19T15:23:28+0000</time>
      </trkpt>
      <trkpt lat="40.83243" lon="-2.21627">
        <time>2021-06-19T15:23:29+0000</time>
      </trkpt>
      <trkpt lat="40.832300000000004" lon="-2.2162800000000002">
        <time>2021-06-19T15:23:30+0000</time>
      </trkpt>
      <trkpt lat="40.83218" lon="-2.21631">
        <time>2021-06-19T15:23:31+0000</time>
      </trkpt>
      <trkpt lat="40.83205" lon="-2.2163500000000003">
        <time>2021-06-19T15:23:32+0000</time>
      </trkpt>
      <trkpt lat="40.83193" lon="-2.2163700000000004">
        <time>2021-06-19T15:23:33+0000</time>
      </trkpt>
      <trkpt lat="40.83182" lon="-2.2163600000000003">
        <time>2021-06-19T15:23:34+0000</time>
      </trkpt>
      <trkpt lat="40.831700000000005" lon="-2.21626">
        <time>2021-06-19T15:23:35+0000</time>
      </trkpt>
      <trkpt lat="40.8316" lon="-2.21617">
        <time>2021-06-19T15:23:36+0000</time>
      </trkpt>
      <trkpt lat="40.831480000000006" lon="-2.21606">
        <time>2021-06-19T15:23:37+0000</time>
      </trkpt>
      <trkpt lat="40.831340000000004" lon="-2.21597">
        <time>2021-06-19T15:23:38+0000</time>
      </trkpt>
      <trkpt lat="40.8312" lon="-2.2158700000000002">
        <time>2021-06-19T15:23:39+0000</time>
      </trkpt>
      <trkpt lat="40.83108" lon="-2.2157600000000004">
        <time>2021-06-19T15:23:40+0000</time>
      </trkpt>
      <trkpt lat="40.830960000000005" lon="-2.21565">
        <time>2021-06-19T15:23:41+0000</time>
      </trkpt>
      <trkpt lat="40.830850000000005" lon="-2.2155500000000004">
        <time>2021-06-19T15:23:42+0000</time>
      </trkpt>
      <trkpt lat="40.83073" lon="-2.2154800000000003">
        <time>2021-06-19T15:23:43+0000</time>
      </trkpt>
      <trkpt lat="40.830600000000004" lon="-2.21543">
        <time>2021-06-19T15:23:44+0000</time>
      </trkpt>
      <trkpt lat="40.830490000000005" lon="-2.2153500000000004">
        <time>2021-06-19T15:23:45+0000</time>
      </trkpt>
      <trkpt lat="40.830380000000005" lon="-2.2152600000000002">
        <time>2021-06-19T15:23:46+0000</time>
      </trkpt>
      <trkpt lat="40.830310000000004" lon="-2.2151300000000003">
        <time>2021-06-19T15:23:47+0000</time>
      </trkpt>
      <trkpt lat="40.83024" lon="-2.21503">
        <time>2021-06-19T15:23:48+0000</time>
      </trkpt>
      <trkpt lat="40.83016000000001" lon="-2.21496">
        <time>2021-06-19T15:23:49+0000</time>
      </trkpt>
      <trkpt lat="40.83008" lon="-2.2149300000000003">
        <time>2021-06-19T15:23:50+0000</time>
      </trkpt>
      <trkpt lat="40.82999" lon="-2.21497">
        <time>2021-06-19T15:23:51+0000</time>
      </trkpt>
      <trkpt lat="40.82988" lon="-2.2150100000000004">
        <time>2021-06-19T15:23:52+0000</time>
      </trkpt>
      <trkpt lat="40.82974" lon="-2.21503">
        <time>2021-06-19T15:23:53+0000</time>
      </trkpt>
      <trkpt lat="40.829600000000006" lon="-2.2150700000000003">
        <time>2021-06-19T15:23:54+0000</time>
      </trkpt>
      <trkpt lat="40.82947" lon="-2.2150800000000004">
        <time>2021-06-19T15:23:55+0000</time>
      </trkpt>
      <trkpt lat="40.82934" lon="-2.2150600000000003">
        <time>2021-06-19T15:23:56+0000</time>
      </trkpt>
      <trkpt lat="40.8292" lon="-2.2150100000000004">
        <time>2021-06-19T15:23:57+0000</time>
      </trkpt>
      <trkpt lat="40.82905" lon="-2.2149400000000004">
        <time>2021-06-19T15:23:58+0000</time>
      </trkpt>
      <trkpt lat="40.828920000000004" lon="-2.21488">
        <time>2021-06-19T15:23:59+0000</time>
      </trkpt>
      <trkpt lat="40.828790000000005" lon="-2.2148100000000004">
        <time>2021-06-19T15:24:00+0000</time>
      </trkpt>
      <trkpt lat="40.82867" lon="-2.2147300000000003">
        <time>2021-06-19T15:24:01+0000</time>
      </trkpt>
      <trkpt lat="40.828570000000006" lon="-2.21463">
        <time>2021-06-19T15:24:02+0000</time>
      </trkpt>
      <trkpt lat="40.82849" lon="-2.21451">
        <time>2021-06-19T15:24:03+0000</time>
      </trkpt>
      <trkpt lat="40.8284" lon="-2.21441">
        <time>2021-06-19T15:24:04+0000</time>
      </trkpt>
      <trkpt lat="40.828320000000005" lon="-2.2143100000000002">
        <time>2021-06-19T15:24:05+0000</time>
      </trkpt>
      <trkpt lat="40.82822" lon="-2.2142600000000003">
        <time>2021-06-19T15:24:06+0000</time>
      </trkpt>
      <trkpt lat="40.82813" lon="-2.21422">
        <time>2021-06-19T15:24:07+0000</time>
      </trkpt>
      <trkpt lat="40.828030000000005" lon="-2.2141800000000003">
        <time>2021-06-19T15:24:08+0000</time>
      </trkpt>
      <trkpt lat="40.82793" lon="-2.21416">
        <time>2021-06-19T15:24:09+0000</time>
      </trkpt>
      <trkpt lat="40.827830000000006" lon="-2.2141300000000004">
        <time>2021-06-19T15:24:10+0000</time>
      </trkpt>
      <trkpt lat="40.827740000000006" lon="-2.2141100000000002">
        <time>2021-06-19T15:24:11+0000</time>
      </trkpt>
      <trkpt lat="40.82766" lon="-2.21409">
        <time>2021-06-19T15:24:12+0000</time>
      </trkpt>
      <trkpt lat="40.827580000000005" lon="-2.21407">
        <time>2021-06-19T15:24:13+0000</time>
      </trkpt>
      <trkpt lat="40.8275" lon="-2.2140600000000004">
        <time>2021-06-19T15:24:14+0000</time>
      </trkpt>
      <trkpt lat="40.827420000000004" lon="-2.21407">
        <time>2021-06-19T15:24:15+0000</time>
      </trkpt>
      <trkpt lat="40.82734000000001" lon="-2.2141">
        <time>2021-06-19T15:24:16+0000</time>
      </trkpt>
      <trkpt lat="40.82726" lon="-2.21414">
        <time>2021-06-19T15:24:17+0000</time>
      </trkpt>
      <trkpt lat="40.82717" lon="-2.2141800000000003">
        <time>2021-06-19T15:24:18+0000</time>
      </trkpt>
      <trkpt lat="40.827090000000005" lon="-2.21422">
        <time>2021-06-19T15:24:19+0000</time>
      </trkpt>
      <trkpt lat="40.82701" lon="-2.2142500000000003">
        <time>2021-06-19T15:24:20+0000</time>
      </trkpt>
      <trkpt lat="40.82694" lon="-2.21429">
        <time>2021-06-19T15:24:21+0000</time>
      </trkpt>
      <trkpt lat="40.82686" lon="-2.2143300000000004">
        <time>2021-06-19T15:24:22+0000</time>
      </trkpt>
      <trkpt lat="40.82678000000001" lon="-2.2143800000000002">
        <time>2021-06-19T15:24:23+0000</time>
      </trkpt>
      <trkpt lat="40.82674" lon="-2.21448">
        <time>2021-06-19T15:24:24+0000</time>
      </trkpt>
      <trkpt lat="40.82672" lon="-2.2146000000000003">
        <time>2021-06-19T15:24:25+0000</time>
      </trkpt>
      <trkpt lat="40.82672" lon="-2.2147400000000004">
        <time>2021-06-19T15:24:26+0000</time>
      </trkpt>
      <trkpt lat="40.826730000000005" lon="-2.21488">
        <time>2021-06-19T15:24:27+0000</time>
      </trkpt>
      <trkpt lat="40.826730000000005" lon="-2.21504">
        <time>2021-06-19T15:24:28+0000</time>
      </trkpt>
      <trkpt lat="40.826750000000004" lon="-2.2152100000000003">
        <time>2021-06-19T15:24:29+0000</time>
      </trkpt>
      <trkpt lat="40.82677" lon="-2.21537">
        <time>2021-06-19T15:24:30+0000</time>
      </trkpt>
      <trkpt lat="40.82681" lon="-2.2155400000000003">
        <time>2021-06-19T15:24:31+0000</time>
      </trkpt>
      <trkpt lat="40.82687000000001" lon="-2.21571">
        <time>2021-06-19T15:24:32+0000</time>
      </trkpt>
      <trkpt lat="40.82694" lon="-2.2158800000000003">
        <time>2021-06-19T15:24:33+0000</time>
      </trkpt>
      <trkpt lat="40.827020000000005" lon="-2.21604">
        <time>2021-06-19T15:24:34+0000</time>
      </trkpt>
      <trkpt lat="40.827090000000005" lon="-2.2162">
        <time>2021-06-19T15:24:35+0000</time>
      </trkpt>
      <trkpt lat="40.82717" lon="-2.21634">
        <time>2021-06-19T15:24:36+0000</time>
      </trkpt>
      <trkpt lat="40.82725000000001" lon="-2.2164800000000002">
        <time>2021-06-19T15:24:37+0000</time>
      </trkpt>
      <trkpt lat="40.82735" lon="-2.2166300000000003">
        <time>2021-06-19T15:24:38+0000</time>
      </trkpt>
      <trkpt lat="40.82743000000001" lon="-2.2167700000000004">
        <time>2021-06-19T15:24:39+0000</time>
      </trkpt>
      <trkpt lat="40.82748" lon="-2.21693">
        <time>2021-06-19T15:24:40+0000</time>
      </trkpt>
      <trkpt lat="40.82753" lon="-2.2171100000000004">
        <time>2021-06-19T15:24:41+0000</time>
      </trkpt>
      <trkpt lat="40.82757" lon="-2.2173000000000003">
        <time>2021-06-19T15:24:42+0000</time>
      </trkpt>
      <trkpt lat="40.827630000000006" lon="-2.21749">
        <time>2021-06-19T15:24:43+0000</time>
      </trkpt>
      <trkpt lat="40.8277" lon="-2.21768">
        <time>2021-06-19T15:24:44+0000</time>
      </trkpt>
      <trkpt lat="40.82779" lon="-2.2178400000000003">
        <time>2021-06-19T15:24:45+0000</time>
      </trkpt>
      <trkpt lat="40.82786" lon="-2.218">
        <time>2021-06-19T15:24:46+0000</time>
      </trkpt>
      <trkpt lat="40.82793" lon="-2.21815">
        <time>2021-06-19T15:24:47+0000</time>
      </trkpt>
      <trkpt lat="40.82797" lon="-2.21829">
        <time>2021-06-19T15:24:48+0000</time>
      </trkpt>
      <trkpt lat="40.827980000000004" lon="-2.21844">
        <time>2021-06-19T15:24:49+0000</time>
      </trkpt>
      <trkpt lat="40.82795" lon="-2.21861">
        <time>2021-06-19T15:24:50+0000</time>
      </trkpt>
      <trkpt lat="40.82790000000001" lon="-2.21878">
        <time>2021-06-19T15:24:51+0000</time>
      </trkpt>
      <trkpt lat="40.82781000000001" lon="-2.2189400000000004">
        <time>2021-06-19T15:24:52+0000</time>
      </trkpt>
      <trkpt lat="40.827670000000005" lon="-2.21911">
        <time>2021-06-19T15:24:53+0000</time>
      </trkpt>
      <trkpt lat="40.82752" lon="-2.2192600000000002">
        <time>2021-06-19T15:24:54+0000</time>
      </trkpt>
      <trkpt lat="40.82737" lon="-2.21939">
        <time>2021-06-19T15:24:55+0000</time>
      </trkpt>
      <trkpt lat="40.82723" lon="-2.2195">
        <time>2021-06-19T15:24:56+0000</time>
      </trkpt>
      <trkpt lat="40.827130000000004" lon="-2.21963">
        <time>2021-06-19T15:24:57+0000</time>
      </trkpt>
      <trkpt lat="40.82705" lon="-2.2198200000000003">
        <time>2021-06-19T15:24:58+0000</time>
      </trkpt>
      <trkpt lat="40.82696000000001" lon="-2.22004">
        <time>2021-06-19T15:24:59+0000</time>
      </trkpt>
      <trkpt lat="40.82685" lon="-2.22027">
        <time>2021-06-19T15:25:00+0000</time>
      </trkpt>
      <trkpt lat="40.826750000000004" lon="-2.2204900000000003">
        <time>2021-06-19T15:25:01+0000</time>
      </trkpt>
      <trkpt lat="40.826640000000005" lon="-2.22072">
        <time>2021-06-19T15:25:02+0000</time>
      </trkpt>
      <trkpt lat="40.826530000000005" lon="-2.22093">
        <time>2021-06-19T15:25:03+0000</time>
      </trkpt>
      <trkpt lat="40.826440000000005" lon="-2.22112">
        <time>2021-06-19T15:25:04+0000</time>
      </trkpt>
      <trkpt lat="40.82636" lon="-2.2213000000000003">
        <time>2021-06-19T15:25:05+0000</time>
      </trkpt>
      <trkpt lat="40.826280000000004" lon="-2.22149">
        <time>2021-06-19T15:25:06+0000</time>
      </trkpt>
      <trkpt lat="40.82621" lon="-2.2217100000000003">
        <time>2021-06-19T15:25:07+0000</time>
      </trkpt>
      <trkpt lat="40.82616" lon="-2.22193">
        <time>2021-06-19T15:25:08+0000</time>
      </trkpt>
      <trkpt lat="40.82611" lon="-2.22215">
        <time>2021-06-19T15:25:09+0000</time>
      </trkpt>
      <trkpt lat="40.826060000000005" lon="-2.22235">
        <time>2021-06-19T15:25:10+0000</time>
      </trkpt>
      <trkpt lat="40.826010000000004" lon="-2.22254">
        <time>2021-06-19T15:25:11+0000</time>
      </trkpt>
      <trkpt lat="40.825970000000005" lon="-2.2227400000000004">
        <time>2021-06-19T15:25:12+0000</time>
      </trkpt>
      <trkpt lat="40.82593000000001" lon="-2.22296">
        <time>2021-06-19T15:25:13+0000</time>
      </trkpt>
      <trkpt lat="40.82591" lon="-2.22319">
        <time>2021-06-19T15:25:14+0000</time>
      </trkpt>
      <trkpt lat="40.825900000000004" lon="-2.22344">
        <time>2021-06-19T15:25:15+0000</time>
      </trkpt>
      <trkpt lat="40.82591" lon="-2.2237">
        <time>2021-06-19T15:25:16+0000</time>
      </trkpt>
      <trkpt lat="40.82593000000001" lon="-2.2239600000000004">
        <time>2021-06-19T15:25:17+0000</time>
      </trkpt>
      <trkpt lat="40.82594" lon="-2.2242200000000003">
        <time>2021-06-19T15:25:18+0000</time>
      </trkpt>
      <trkpt lat="40.825950000000006" lon="-2.22447">
        <time>2021-06-19T15:25:19+0000</time>
      </trkpt>
      <trkpt lat="40.825950000000006" lon="-2.22473">
        <time>2021-06-19T15:25:20+0000</time>
      </trkpt>
      <trkpt lat="40.82594" lon="-2.225">
        <time>2021-06-19T15:25:21+0000</time>
      </trkpt>
      <trkpt lat="40.82592" lon="-2.22528">
        <time>2021-06-19T15:25:22+0000</time>
      </trkpt>
      <trkpt lat="40.825900000000004" lon="-2.22556">
        <time>2021-06-19T15:25:23+0000</time>
      </trkpt>
      <trkpt lat="40.825880000000005" lon="-2.2258400000000003">
        <time>2021-06-19T15:25:24+0000</time>
      </trkpt>
      <trkpt lat="40.825860000000006" lon="-2.2261200000000003">
        <time>2021-06-19T15:25:25+0000</time>
      </trkpt>
      <trkpt lat="40.82584000000001" lon="-2.2264000000000004">
        <time>2021-06-19T15:25:26+0000</time>
      </trkpt>
      <trkpt lat="40.82583" lon="-2.22668">
        <time>2021-06-19T15:25:27+0000</time>
      </trkpt>
      <trkpt lat="40.825810000000004" lon="-2.2269400000000004">
        <time>2021-06-19T15:25:28+0000</time>
      </trkpt>
      <trkpt lat="40.8258" lon="-2.2272100000000004">
        <time>2021-06-19T15:25:29+0000</time>
      </trkpt>
      <trkpt lat="40.825770000000006" lon="-2.22749">
        <time>2021-06-19T15:25:30+0000</time>
      </trkpt>
      <trkpt lat="40.82574" lon="-2.22777">
        <time>2021-06-19T15:25:31+0000</time>
      </trkpt>
      <trkpt lat="40.82571" lon="-2.22806">
        <time>2021-06-19T15:25:32+0000</time>
      </trkpt>
      <trkpt lat="40.82567" lon="-2.2283500000000003">
        <time>2021-06-19T15:25:33+0000</time>
      </trkpt>
      <trkpt lat="40.82562" lon="-2.22865">
        <time>2021-06-19T15:25:34+0000</time>
      </trkpt>
      <trkpt lat="40.825590000000005" lon="-2.22894">
        <time>2021-06-19T15:25:35+0000</time>
      </trkpt>
      <trkpt lat="40.825540000000004" lon="-2.2292400000000003">
        <time>2021-06-19T15:25:36+0000</time>
      </trkpt>
      <trkpt lat="40.825500000000005" lon="-2.22954">
        <time>2021-06-19T15:25:37+0000</time>
      </trkpt>
      <trkpt lat="40.82546000000001" lon="-2.22983">
        <time>2021-06-19T15:25:38+0000</time>
      </trkpt>
      <trkpt lat="40.82542" lon="-2.2301200000000003">
        <time>2021-06-19T15:25:39+0000</time>
      </trkpt>
      <trkpt lat="40.825390000000006" lon="-2.2303900000000003">
        <time>2021-06-19T15:25:40+0000</time>
      </trkpt>
      <trkpt lat="40.82535" lon="-2.23064">
        <time>2021-06-19T15:25:41+0000</time>
      </trkpt>
      <trkpt lat="40.825320000000005" lon="-2.23088">
        <time>2021-06-19T15:25:42+0000</time>
      </trkpt>
      <trkpt lat="40.82528000000001" lon="-2.23111">
        <time>2021-06-19T15:25:43+0000</time>
      </trkpt>
      <trkpt lat="40.825250000000004" lon="-2.2313500000000004">
        <time>2021-06-19T15:25:44+0000</time>
      </trkpt>
      <trkpt lat="40.825210000000006" lon="-2.2316200000000004">
        <time>2021-06-19T15:25:45+0000</time>
      </trkpt>
      <trkpt lat="40.82518" lon="-2.2318900000000004">
        <time>2021-06-19T15:25:46+0000</time>
      </trkpt>
      <trkpt lat="40.825160000000004" lon="-2.23217">
        <time>2021-06-19T15:25:47+0000</time>
      </trkpt>
      <trkpt lat="40.82513" lon="-2.23246">
        <time>2021-06-19T15:25:48+0000</time>
      </trkpt>
      <trkpt lat="40.82511" lon="-2.23274">
        <time>2021-06-19T15:25:49+0000</time>
      </trkpt>
      <trkpt lat="40.82509" lon="-2.23301">
        <time>2021-06-19T15:25:50+0000</time>
      </trkpt>
      <trkpt lat="40.825070000000004" lon="-2.23327">
        <time>2021-06-19T15:25:51+0000</time>
      </trkpt>
      <trkpt lat="40.82506" lon="-2.2335100000000003">
        <time>2021-06-19T15:25:52+0000</time>
      </trkpt>
      <trkpt lat="40.825050000000005" lon="-2.23375">
        <time>2021-06-19T15:25:53+0000</time>
      </trkpt>
      <trkpt lat="40.82504" lon="-2.2339800000000003">
        <time>2021-06-19T15:25:54+0000</time>
      </trkpt>
      <trkpt lat="40.82502" lon="-2.2341900000000003">
        <time>2021-06-19T15:25:55+0000</time>
      </trkpt>
      <trkpt lat="40.825" lon="-2.23442">
        <time>2021-06-19T15:25:56+0000</time>
      </trkpt>
      <trkpt lat="40.824960000000004" lon="-2.2346500000000002">
        <time>2021-06-19T15:25:57+0000</time>
      </trkpt>
      <trkpt lat="40.82490000000001" lon="-2.23488">
        <time>2021-06-19T15:25:58+0000</time>
      </trkpt>
      <trkpt lat="40.82479" lon="-2.2351">
        <time>2021-06-19T15:25:59+0000</time>
      </trkpt>
      <trkpt lat="40.82466" lon="-2.2353300000000003">
        <time>2021-06-19T15:26:00+0000</time>
      </trkpt>
      <trkpt lat="40.82453" lon="-2.2355500000000004">
        <time>2021-06-19T15:26:01+0000</time>
      </trkpt>
      <trkpt lat="40.82442" lon="-2.23576">
        <time>2021-06-19T15:26:02+0000</time>
      </trkpt>
      <trkpt lat="40.8243" lon="-2.23597">
        <time>2021-06-19T15:26:03+0000</time>
      </trkpt>
      <trkpt lat="40.824180000000005" lon="-2.23618">
        <time>2021-06-19T15:26:04+0000</time>
      </trkpt>
      <trkpt lat="40.824090000000005" lon="-2.23639">
        <time>2021-06-19T15:26:05+0000</time>
      </trkpt>
      <trkpt lat="40.823980000000006" lon="-2.23659">
        <time>2021-06-19T15:26:06+0000</time>
      </trkpt>
      <trkpt lat="40.82386" lon="-2.2368">
        <time>2021-06-19T15:26:07+0000</time>
      </trkpt>
      <trkpt lat="40.823750000000004" lon="-2.2370200000000002">
        <time>2021-06-19T15:26:08+0000</time>
      </trkpt>
      <trkpt lat="40.82365" lon="-2.23728">
        <time>2021-06-19T15:26:09+0000</time>
      </trkpt>
      <trkpt lat="40.82356" lon="-2.23755">
        <time>2021-06-19T15:26:10+0000</time>
      </trkpt>
      <trkpt lat="40.82348" lon="-2.23781">
        <time>2021-06-19T15:26:11+0000</time>
      </trkpt>
      <trkpt lat="40.82340000000001" lon="-2.23808">
        <time>2021-06-19T15:26:12+0000</time>
      </trkpt>
      <trkpt lat="40.82332" lon="-2.2383300000000004">
        <time>2021-06-19T15:26:13+0000</time>
      </trkpt>
      <trkpt lat="40.823240000000006" lon="-2.23857">
        <time>2021-06-19T15:26:14+0000</time>
      </trkpt>
      <trkpt lat="40.823170000000005" lon="-2.2388000000000003">
        <time>2021-06-19T15:26:15+0000</time>
      </trkpt>
      <trkpt lat="40.82309" lon="-2.23903">
        <time>2021-06-19T15:26:16+0000</time>
      </trkpt>
      <trkpt lat="40.823010000000004" lon="-2.23925">
        <time>2021-06-19T15:26:17+0000</time>
      </trkpt>
      <trkpt lat="40.82294" lon="-2.2394700000000003">
        <time>2021-06-19T15:26:18+0000</time>
      </trkpt>
      <trkpt lat="40.822880000000005" lon="-2.2396700000000003">
        <time>2021-06-19T15:26:19+0000</time>
      </trkpt>
      <trkpt lat="40.82282" lon="-2.23986">
        <time>2021-06-19T15:26:20+0000</time>
      </trkpt>
      <trkpt lat="40.82276" lon="-2.24004">
        <time>2021-06-19T15:26:21+0000</time>
      </trkpt>
      <trkpt lat="40.82269" lon="-2.2402200000000003">
        <time>2021-06-19T15:26:22+0000</time>
      </trkpt>
      <trkpt lat="40.822610000000005" lon="-2.24037">
        <time>2021-06-19T15:26:23+0000</time>
      </trkpt>
      <trkpt lat="40.82251" lon="-2.24053">
        <time>2021-06-19T15:26:24+0000</time>
      </trkpt>
      <trkpt lat="40.82236" lon="-2.24064">
        <time>2021-06-19T15:26:25+0000</time>
      </trkpt>
      <trkpt lat="40.8222" lon="-2.24073">
        <time>2021-06-19T15:26:26+0000</time>
      </trkpt>
      <trkpt lat="40.82204" lon="-2.2408300000000003">
        <time>2021-06-19T15:26:27+0000</time>
      </trkpt>
      <trkpt lat="40.82190000000001" lon="-2.24094">
        <time>2021-06-19T15:26:28+0000</time>
      </trkpt>
      <trkpt lat="40.821760000000005" lon="-2.2410300000000003">
        <time>2021-06-19T15:26:29+0000</time>
      </trkpt>
      <trkpt lat="40.821630000000006" lon="-2.2411100000000004">
        <time>2021-06-19T15:26:30+0000</time>
      </trkpt>
      <trkpt lat="40.821490000000004" lon="-2.2411700000000003">
        <time>2021-06-19T15:26:31+0000</time>
      </trkpt>
      <trkpt lat="40.821360000000006" lon="-2.2412300000000003">
        <time>2021-06-19T15:26:32+0000</time>
      </trkpt>
      <trkpt lat="40.821250000000006" lon="-2.2412900000000002">
        <time>2021-06-19T15:26:33+0000</time>
      </trkpt>
      <trkpt lat="40.821160000000006" lon="-2.24139">
        <time>2021-06-19T15:26:34+0000</time>
      </trkpt>
      <trkpt lat="40.821090000000005" lon="-2.24153">
        <time>2021-06-19T15:26:35+0000</time>
      </trkpt>
      <trkpt lat="40.82103" lon="-2.24168">
        <time>2021-06-19T15:26:36+0000</time>
      </trkpt>
      <trkpt lat="40.820980000000006" lon="-2.24182">
        <time>2021-06-19T15:26:37+0000</time>
      </trkpt>
      <trkpt lat="40.82095" lon="-2.24195">
        <time>2021-06-19T15:26:38+0000</time>
      </trkpt>
      <trkpt lat="40.82097" lon="-2.24209">
        <time>2021-06-19T15:26:39+0000</time>
      </trkpt>
      <trkpt lat="40.82104" lon="-2.2422400000000002">
        <time>2021-06-19T15:26:40+0000</time>
      </trkpt>
      <trkpt lat="40.82115" lon="-2.24241">
        <time>2021-06-19T15:26:41+0000</time>
      </trkpt>
      <trkpt lat="40.821270000000005" lon="-2.2426000000000004">
        <time>2021-06-19T15:26:42+0000</time>
      </trkpt>
      <trkpt lat="40.82139" lon="-2.2427900000000003">
        <time>2021-06-19T15:26:43+0000</time>
      </trkpt>
      <trkpt lat="40.821490000000004" lon="-2.24296">
        <time>2021-06-19T15:26:44+0000</time>
      </trkpt>
      <trkpt lat="40.821580000000004" lon="-2.2431300000000003">
        <time>2021-06-19T15:26:45+0000</time>
      </trkpt>
      <trkpt lat="40.82166" lon="-2.2432600000000003">
        <time>2021-06-19T15:26:46+0000</time>
      </trkpt>
      <trkpt lat="40.82171" lon="-2.24338">
        <time>2021-06-19T15:26:47+0000</time>
      </trkpt>
      <trkpt lat="40.82175" lon="-2.2435">
        <time>2021-06-19T15:26:48+0000</time>
      </trkpt>
      <trkpt lat="40.82175" lon="-2.2436200000000004">
        <time>2021-06-19T15:26:49+0000</time>
      </trkpt>
      <trkpt lat="40.82171" lon="-2.24376">
        <time>2021-06-19T15:26:50+0000</time>
      </trkpt>
      <trkpt lat="40.821630000000006" lon="-2.2439">
        <time>2021-06-19T15:26:51+0000</time>
      </trkpt>
      <trkpt lat="40.821540000000006" lon="-2.24404">
        <time>2021-06-19T15:26:52+0000</time>
      </trkpt>
      <trkpt lat="40.82148" lon="-2.24418">
        <time>2021-06-19T15:26:53+0000</time>
      </trkpt>
      <trkpt lat="40.82142" lon="-2.24432">
        <time>2021-06-19T15:26:54+0000</time>
      </trkpt>
      <trkpt lat="40.821360000000006" lon="-2.2444300000000004">
        <time>2021-06-19T15:26:55+0000</time>
      </trkpt>
      <trkpt lat="40.82132" lon="-2.2445700000000004">
        <time>2021-06-19T15:26:56+0000</time>
      </trkpt>
      <trkpt lat="40.821310000000004" lon="-2.24472">
        <time>2021-06-19T15:26:57+0000</time>
      </trkpt>
      <trkpt lat="40.821340000000006" lon="-2.24488">
        <time>2021-06-19T15:26:58+0000</time>
      </trkpt>
      <trkpt lat="40.821400000000004" lon="-2.24501">
        <time>2021-06-19T15:26:59+0000</time>
      </trkpt>
      <trkpt lat="40.821490000000004" lon="-2.2450900000000003">
        <time>2021-06-19T15:27:00+0000</time>
      </trkpt>
      <trkpt lat="40.821630000000006" lon="-2.24515">
        <time>2021-06-19T15:27:01+0000</time>
      </trkpt>
      <trkpt lat="40.82179" lon="-2.2452">
        <time>2021-06-19T15:27:02+0000</time>
      </trkpt>
      <trkpt lat="40.821940000000005" lon="-2.24526">
        <time>2021-06-19T15:27:03+0000</time>
      </trkpt>
      <trkpt lat="40.822070000000004" lon="-2.24533">
        <time>2021-06-19T15:27:04+0000</time>
      </trkpt>
      <trkpt lat="40.82217" lon="-2.24539">
        <time>2021-06-19T15:27:05+0000</time>
      </trkpt>
      <trkpt lat="40.82226" lon="-2.24548">
        <time>2021-06-19T15:27:06+0000</time>
      </trkpt>
      <trkpt lat="40.82233" lon="-2.24559">
        <time>2021-06-19T15:27:07+0000</time>
      </trkpt>
      <trkpt lat="40.822390000000006" lon="-2.24573">
        <time>2021-06-19T15:27:08+0000</time>
      </trkpt>
      <trkpt lat="40.82242" lon="-2.24589">
        <time>2021-06-19T15:27:09+0000</time>
      </trkpt>
      <trkpt lat="40.822430000000004" lon="-2.2460400000000003">
        <time>2021-06-19T15:27:10+0000</time>
      </trkpt>
      <trkpt lat="40.8224" lon="-2.24622">
        <time>2021-06-19T15:27:11+0000</time>
      </trkpt>
      <trkpt lat="40.82236" lon="-2.24642">
        <time>2021-06-19T15:27:12+0000</time>
      </trkpt>
      <trkpt lat="40.82231" lon="-2.2466500000000003">
        <time>2021-06-19T15:27:13+0000</time>
      </trkpt>
      <trkpt lat="40.82227" lon="-2.2468600000000003">
        <time>2021-06-19T15:27:14+0000</time>
      </trkpt>
      <trkpt lat="40.822210000000005" lon="-2.24709">
        <time>2021-06-19T15:27:15+0000</time>
      </trkpt>
      <trkpt lat="40.822160000000004" lon="-2.24732">
        <time>2021-06-19T15:27:16+0000</time>
      </trkpt>
      <trkpt lat="40.822100000000006" lon="-2.2475500000000004">
        <time>2021-06-19T15:27:17+0000</time>
      </trkpt>
      <trkpt lat="40.82204" lon="-2.24776">
        <time>2021-06-19T15:27:18+0000</time>
      </trkpt>
      <trkpt lat="40.82197" lon="-2.2479600000000004">
        <time>2021-06-19T15:27:19+0000</time>
      </trkpt>
      <trkpt lat="40.82191" lon="-2.2481600000000004">
        <time>2021-06-19T15:27:20+0000</time>
      </trkpt>
      <trkpt lat="40.821830000000006" lon="-2.24838">
        <time>2021-06-19T15:27:21+0000</time>
      </trkpt>
      <trkpt lat="40.821760000000005" lon="-2.24861">
        <time>2021-06-19T15:27:22+0000</time>
      </trkpt>
      <trkpt lat="40.82171" lon="-2.24886">
        <time>2021-06-19T15:27:23+0000</time>
      </trkpt>
      <trkpt lat="40.82168" lon="-2.2491600000000003">
        <time>2021-06-19T15:27:24+0000</time>
      </trkpt>
      <trkpt lat="40.821650000000005" lon="-2.24948">
        <time>2021-06-19T15:27:25+0000</time>
      </trkpt>
      <trkpt lat="40.82164" lon="-2.2497900000000004">
        <time>2021-06-19T15:27:26+0000</time>
      </trkpt>
      <trkpt lat="40.821630000000006" lon="-2.25009">
        <time>2021-06-19T15:27:27+0000</time>
      </trkpt>
      <trkpt lat="40.82164" lon="-2.2503900000000003">
        <time>2021-06-19T15:27:28+0000</time>
      </trkpt>
      <trkpt lat="40.82164" lon="-2.25069">
        <time>2021-06-19T15:27:29+0000</time>
      </trkpt>
      <trkpt lat="40.821650000000005" lon="-2.2509900000000003">
        <time>2021-06-19T15:27:30+0000</time>
      </trkpt>
      <trkpt lat="40.821650000000005" lon="-2.2512800000000004">
        <time>2021-06-19T15:27:31+0000</time>
      </trkpt>
      <trkpt lat="40.821650000000005" lon="-2.25156">
        <time>2021-06-19T15:27:32+0000</time>
      </trkpt>
      <trkpt lat="40.821650000000005" lon="-2.25185">
        <time>2021-06-19T15:27:33+0000</time>
      </trkpt>
      <trkpt lat="40.82166" lon="-2.25212">
        <time>2021-06-19T15:27:34+0000</time>
      </trkpt>
      <trkpt lat="40.82166" lon="-2.25238">
        <time>2021-06-19T15:27:35+0000</time>
      </trkpt>
      <trkpt lat="40.821670000000005" lon="-2.25266">
        <time>2021-06-19T15:27:36+0000</time>
      </trkpt>
      <trkpt lat="40.821670000000005" lon="-2.25294">
        <time>2021-06-19T15:27:37+0000</time>
      </trkpt>
      <trkpt lat="40.821670000000005" lon="-2.2532400000000004">
        <time>2021-06-19T15:27:38+0000</time>
      </trkpt>
      <trkpt lat="40.82166" lon="-2.25353">
        <time>2021-06-19T15:27:39+0000</time>
      </trkpt>
      <trkpt lat="40.821650000000005" lon="-2.2538300000000002">
        <time>2021-06-19T15:27:40+0000</time>
      </trkpt>
      <trkpt lat="40.821630000000006" lon="-2.25413">
        <time>2021-06-19T15:27:41+0000</time>
      </trkpt>
      <trkpt lat="40.821600000000004" lon="-2.25443">
        <time>2021-06-19T15:27:42+0000</time>
      </trkpt>
      <trkpt lat="40.821580000000004" lon="-2.2547200000000003">
        <time>2021-06-19T15:27:43+0000</time>
      </trkpt>
      <trkpt lat="40.821560000000005" lon="-2.2550100000000004">
        <time>2021-06-19T15:27:44+0000</time>
      </trkpt>
      <trkpt lat="40.82155" lon="-2.2552800000000004">
        <time>2021-06-19T15:27:45+0000</time>
      </trkpt>
      <trkpt lat="40.82153" lon="-2.25552">
        <time>2021-06-19T15:27:46+0000</time>
      </trkpt>
      <trkpt lat="40.82152000000001" lon="-2.25576">
        <time>2021-06-19T15:27:47+0000</time>
      </trkpt>
      <trkpt lat="40.8215" lon="-2.25599">
        <time>2021-06-19T15:27:48+0000</time>
      </trkpt>
      <trkpt lat="40.821490000000004" lon="-2.2562100000000003">
        <time>2021-06-19T15:27:49+0000</time>
      </trkpt>
      <trkpt lat="40.82148" lon="-2.2564300000000004">
        <time>2021-06-19T15:27:50+0000</time>
      </trkpt>
      <trkpt lat="40.82146" lon="-2.2566300000000004">
        <time>2021-06-19T15:27:51+0000</time>
      </trkpt>
      <trkpt lat="40.82144" lon="-2.2568400000000004">
        <time>2021-06-19T15:27:52+0000</time>
      </trkpt>
      <trkpt lat="40.82139" lon="-2.2570300000000003">
        <time>2021-06-19T15:27:53+0000</time>
      </trkpt>
      <trkpt lat="40.8213" lon="-2.2572300000000003">
        <time>2021-06-19T15:27:54+0000</time>
      </trkpt>
      <trkpt lat="40.821180000000005" lon="-2.2574300000000003">
        <time>2021-06-19T15:27:55+0000</time>
      </trkpt>
      <trkpt lat="40.82104" lon="-2.2576300000000002">
        <time>2021-06-19T15:27:56+0000</time>
      </trkpt>
      <trkpt lat="40.820890000000006" lon="-2.2578400000000003">
        <time>2021-06-19T15:27:57+0000</time>
      </trkpt>
      <trkpt lat="40.820750000000004" lon="-2.2580600000000004">
        <time>2021-06-19T15:27:58+0000</time>
      </trkpt>
      <trkpt lat="40.820620000000005" lon="-2.25829">
        <time>2021-06-19T15:27:59+0000</time>
      </trkpt>
      <trkpt lat="40.820510000000006" lon="-2.2585200000000003">
        <time>2021-06-19T15:28:00+0000</time>
      </trkpt>
      <trkpt lat="40.82041" lon="-2.25874">
        <time>2021-06-19T15:28:01+0000</time>
      </trkpt>
      <trkpt lat="40.820310000000006" lon="-2.25895">
        <time>2021-06-19T15:28:02+0000</time>
      </trkpt>
      <trkpt lat="40.820220000000006" lon="-2.25916">
        <time>2021-06-19T15:28:03+0000</time>
      </trkpt>
      <trkpt lat="40.82014" lon="-2.25936">
        <time>2021-06-19T15:28:04+0000</time>
      </trkpt>
      <trkpt lat="40.820060000000005" lon="-2.2595400000000003">
        <time>2021-06-19T15:28:05+0000</time>
      </trkpt>
      <trkpt lat="40.819990000000004" lon="-2.25971">
        <time>2021-06-19T15:28:06+0000</time>
      </trkpt>
      <trkpt lat="40.81994" lon="-2.2598800000000003">
        <time>2021-06-19T15:28:07+0000</time>
      </trkpt>
      <trkpt lat="40.81993000000001" lon="-2.26006">
        <time>2021-06-19T15:28:08+0000</time>
      </trkpt>
      <trkpt lat="40.81996" lon="-2.2602700000000002">
        <time>2021-06-19T15:28:09+0000</time>
      </trkpt>
      <trkpt lat="40.82001" lon="-2.2604900000000003">
        <time>2021-06-19T15:28:10+0000</time>
      </trkpt>
      <trkpt lat="40.820080000000004" lon="-2.26074">
        <time>2021-06-19T15:28:11+0000</time>
      </trkpt>
      <trkpt lat="40.82016" lon="-2.261">
        <time>2021-06-19T15:28:12+0000</time>
      </trkpt>
      <trkpt lat="40.82025" lon="-2.26125">
        <time>2021-06-19T15:28:13+0000</time>
      </trkpt>
      <trkpt lat="40.82034" lon="-2.2615100000000004">
        <time>2021-06-19T15:28:14+0000</time>
      </trkpt>
      <trkpt lat="40.820460000000004" lon="-2.26176">
        <time>2021-06-19T15:28:15+0000</time>
      </trkpt>
      <trkpt lat="40.82058000000001" lon="-2.26203">
        <time>2021-06-19T15:28:16+0000</time>
      </trkpt>
      <trkpt lat="40.82072" lon="-2.2623">
        <time>2021-06-19T15:28:17+0000</time>
      </trkpt>
      <trkpt lat="40.820870000000006" lon="-2.26257">
        <time>2021-06-19T15:28:18+0000</time>
      </trkpt>
      <trkpt lat="40.82101" lon="-2.2628500000000003">
        <time>2021-06-19T15:28:19+0000</time>
      </trkpt>
      <trkpt lat="40.82114000000001" lon="-2.26311">
        <time>2021-06-19T15:28:20+0000</time>
      </trkpt>
      <trkpt lat="40.821270000000005" lon="-2.26336">
        <time>2021-06-19T15:28:21+0000</time>
      </trkpt>
      <trkpt lat="40.821380000000005" lon="-2.26359">
        <time>2021-06-19T15:28:22+0000</time>
      </trkpt>
      <trkpt lat="40.821490000000004" lon="-2.2638100000000003">
        <time>2021-06-19T15:28:23+0000</time>
      </trkpt>
      <trkpt lat="40.82159" lon="-2.2640000000000002">
        <time>2021-06-19T15:28:24+0000</time>
      </trkpt>
      <trkpt lat="40.821690000000004" lon="-2.26419">
        <time>2021-06-19T15:28:25+0000</time>
      </trkpt>
      <trkpt lat="40.82177" lon="-2.2643600000000004">
        <time>2021-06-19T15:28:26+0000</time>
      </trkpt>
      <trkpt lat="40.82184" lon="-2.26452">
        <time>2021-06-19T15:28:27+0000</time>
      </trkpt>
      <trkpt lat="40.82190000000001" lon="-2.2646800000000002">
        <time>2021-06-19T15:28:28+0000</time>
      </trkpt>
      <trkpt lat="40.821940000000005" lon="-2.26485">
        <time>2021-06-19T15:28:29+0000</time>
      </trkpt>
      <trkpt lat="40.821960000000004" lon="-2.26506">
        <time>2021-06-19T15:28:30+0000</time>
      </trkpt>
      <trkpt lat="40.82197" lon="-2.2652900000000002">
        <time>2021-06-19T15:28:31+0000</time>
      </trkpt>
      <trkpt lat="40.82198" lon="-2.26552">
        <time>2021-06-19T15:28:32+0000</time>
      </trkpt>
      <trkpt lat="40.82199000000001" lon="-2.26575">
        <time>2021-06-19T15:28:33+0000</time>
      </trkpt>
      <trkpt lat="40.82199000000001" lon="-2.2659800000000003">
        <time>2021-06-19T15:28:34+0000</time>
      </trkpt>
      <trkpt lat="40.822010000000006" lon="-2.2661900000000004">
        <time>2021-06-19T15:28:35+0000</time>
      </trkpt>
      <trkpt lat="40.82202" lon="-2.2664">
        <time>2021-06-19T15:28:36+0000</time>
      </trkpt>
      <trkpt lat="40.822030000000005" lon="-2.2666000000000004">
        <time>2021-06-19T15:28:37+0000</time>
      </trkpt>
      <trkpt lat="40.82202" lon="-2.2668000000000004">
        <time>2021-06-19T15:28:38+0000</time>
      </trkpt>
      <trkpt lat="40.82199000000001" lon="-2.2670000000000003">
        <time>2021-06-19T15:28:39+0000</time>
      </trkpt>
      <trkpt lat="40.821940000000005" lon="-2.2672000000000003">
        <time>2021-06-19T15:28:40+0000</time>
      </trkpt>
      <trkpt lat="40.82188" lon="-2.26742">
        <time>2021-06-19T15:28:41+0000</time>
      </trkpt>
      <trkpt lat="40.821810000000006" lon="-2.26764">
        <time>2021-06-19T15:28:42+0000</time>
      </trkpt>
      <trkpt lat="40.821740000000005" lon="-2.2678700000000003">
        <time>2021-06-19T15:28:43+0000</time>
      </trkpt>
      <trkpt lat="40.82168" lon="-2.2681">
        <time>2021-06-19T15:28:44+0000</time>
      </trkpt>
      <trkpt lat="40.82159" lon="-2.26832">
        <time>2021-06-19T15:28:45+0000</time>
      </trkpt>
      <trkpt lat="40.821490000000004" lon="-2.2685500000000003">
        <time>2021-06-19T15:28:46+0000</time>
      </trkpt>
      <trkpt lat="40.82137" lon="-2.2687700000000004">
        <time>2021-06-19T15:28:47+0000</time>
      </trkpt>
      <trkpt lat="40.82124" lon="-2.26898">
        <time>2021-06-19T15:28:48+0000</time>
      </trkpt>
      <trkpt lat="40.821110000000004" lon="-2.2692">
        <time>2021-06-19T15:28:49+0000</time>
      </trkpt>
      <trkpt lat="40.820980000000006" lon="-2.2694">
        <time>2021-06-19T15:28:50+0000</time>
      </trkpt>
      <trkpt lat="40.820870000000006" lon="-2.26961">
        <time>2021-06-19T15:28:51+0000</time>
      </trkpt>
      <trkpt lat="40.82074" lon="-2.26982">
        <time>2021-06-19T15:28:52+0000</time>
      </trkpt>
      <trkpt lat="40.82065" lon="-2.27006">
        <time>2021-06-19T15:28:53+0000</time>
      </trkpt>
      <trkpt lat="40.82058000000001" lon="-2.27034">
        <time>2021-06-19T15:28:54+0000</time>
      </trkpt>
      <trkpt lat="40.82054" lon="-2.27061">
        <time>2021-06-19T15:28:55+0000</time>
      </trkpt>
      <trkpt lat="40.8205" lon="-2.27088">
        <time>2021-06-19T15:28:56+0000</time>
      </trkpt>
      <trkpt lat="40.82047" lon="-2.2711400000000004">
        <time>2021-06-19T15:28:57+0000</time>
      </trkpt>
      <trkpt lat="40.820460000000004" lon="-2.2713900000000002">
        <time>2021-06-19T15:28:58+0000</time>
      </trkpt>
      <trkpt lat="40.82048" lon="-2.27165">
        <time>2021-06-19T15:28:59+0000</time>
      </trkpt>
      <trkpt lat="40.820510000000006" lon="-2.27191">
        <time>2021-06-19T15:29:00+0000</time>
      </trkpt>
      <trkpt lat="40.82054" lon="-2.2721500000000003">
        <time>2021-06-19T15:29:01+0000</time>
      </trkpt>
      <trkpt lat="40.820570000000004" lon="-2.2723600000000004">
        <time>2021-06-19T15:29:02+0000</time>
      </trkpt>
      <trkpt lat="40.820600000000006" lon="-2.27257">
        <time>2021-06-19T15:29:03+0000</time>
      </trkpt>
      <trkpt lat="40.820620000000005" lon="-2.2727500000000003">
        <time>2021-06-19T15:29:04+0000</time>
      </trkpt>
      <trkpt lat="40.820640000000004" lon="-2.27292">
        <time>2021-06-19T15:29:05+0000</time>
      </trkpt>
      <trkpt lat="40.82065" lon="-2.2731000000000003">
        <time>2021-06-19T15:29:06+0000</time>
      </trkpt>
      <trkpt lat="40.82067" lon="-2.2732900000000003">
        <time>2021-06-19T15:29:07+0000</time>
      </trkpt>
      <trkpt lat="40.82065" lon="-2.2735100000000004">
        <time>2021-06-19T15:29:08+0000</time>
      </trkpt>
      <trkpt lat="40.820620000000005" lon="-2.27374">
        <time>2021-06-19T15:29:09+0000</time>
      </trkpt>
      <trkpt lat="40.82058000000001" lon="-2.2739700000000003">
        <time>2021-06-19T15:29:10+0000</time>
      </trkpt>
      <trkpt lat="40.820510000000006" lon="-2.2742">
        <time>2021-06-19T15:29:11+0000</time>
      </trkpt>
      <trkpt lat="40.82045" lon="-2.2744500000000003">
        <time>2021-06-19T15:29:12+0000</time>
      </trkpt>
      <trkpt lat="40.820350000000005" lon="-2.27467">
        <time>2021-06-19T15:29:13+0000</time>
      </trkpt>
      <trkpt lat="40.82027" lon="-2.2749200000000003">
        <time>2021-06-19T15:29:14+0000</time>
      </trkpt>
      <trkpt lat="40.8202" lon="-2.27518">
        <time>2021-06-19T15:29:15+0000</time>
      </trkpt>
      <trkpt lat="40.820130000000006" lon="-2.27543">
        <time>2021-06-19T15:29:16+0000</time>
      </trkpt>
      <trkpt lat="40.820060000000005" lon="-2.2757">
        <time>2021-06-19T15:29:17+0000</time>
      </trkpt>
      <trkpt lat="40.82001" lon="-2.27596">
        <time>2021-06-19T15:29:18+0000</time>
      </trkpt>
      <trkpt lat="40.819950000000006" lon="-2.2762000000000002">
        <time>2021-06-19T15:29:19+0000</time>
      </trkpt>
      <trkpt lat="40.819880000000005" lon="-2.2764300000000004">
        <time>2021-06-19T15:29:20+0000</time>
      </trkpt>
      <trkpt lat="40.81985" lon="-2.2766900000000003">
        <time>2021-06-19T15:29:21+0000</time>
      </trkpt>
      <trkpt lat="40.819860000000006" lon="-2.27698">
        <time>2021-06-19T15:29:22+0000</time>
      </trkpt>
      <trkpt lat="40.81985" lon="-2.2772900000000003">
        <time>2021-06-19T15:29:23+0000</time>
      </trkpt>
      <trkpt lat="40.819860000000006" lon="-2.27759">
        <time>2021-06-19T15:29:24+0000</time>
      </trkpt>
      <trkpt lat="40.819880000000005" lon="-2.2779000000000003">
        <time>2021-06-19T15:29:25+0000</time>
      </trkpt>
      <trkpt lat="40.81989" lon="-2.2782">
        <time>2021-06-19T15:29:26+0000</time>
      </trkpt>
      <trkpt lat="40.81991" lon="-2.27848">
        <time>2021-06-19T15:29:27+0000</time>
      </trkpt>
      <trkpt lat="40.81993000000001" lon="-2.27875">
        <time>2021-06-19T15:29:28+0000</time>
      </trkpt>
      <trkpt lat="40.819950000000006" lon="-2.2789800000000002">
        <time>2021-06-19T15:29:29+0000</time>
      </trkpt>
      <trkpt lat="40.819970000000005" lon="-2.27918">
        <time>2021-06-19T15:29:30+0000</time>
      </trkpt>
      <trkpt lat="40.81998" lon="-2.27937">
        <time>2021-06-19T15:29:31+0000</time>
      </trkpt>
      <trkpt lat="40.819950000000006" lon="-2.27956">
        <time>2021-06-19T15:29:32+0000</time>
      </trkpt>
      <trkpt lat="40.81989" lon="-2.27976">
        <time>2021-06-19T15:29:33+0000</time>
      </trkpt>
      <trkpt lat="40.819810000000004" lon="-2.27996">
        <time>2021-06-19T15:29:34+0000</time>
      </trkpt>
      <trkpt lat="40.819720000000004" lon="-2.28018">
        <time>2021-06-19T15:29:35+0000</time>
      </trkpt>
      <trkpt lat="40.81965" lon="-2.28039">
        <time>2021-06-19T15:29:36+0000</time>
      </trkpt>
      <trkpt lat="40.81956" lon="-2.2806100000000002">
        <time>2021-06-19T15:29:37+0000</time>
      </trkpt>
      <trkpt lat="40.819480000000006" lon="-2.28085">
        <time>2021-06-19T15:29:38+0000</time>
      </trkpt>
      <trkpt lat="40.8194" lon="-2.28111">
        <time>2021-06-19T15:29:39+0000</time>
      </trkpt>
      <trkpt lat="40.819340000000004" lon="-2.28139">
        <time>2021-06-19T15:29:40+0000</time>
      </trkpt>
      <trkpt lat="40.819300000000005" lon="-2.28169">
        <time>2021-06-19T15:29:41+0000</time>
      </trkpt>
      <trkpt lat="40.81927" lon="-2.2819900000000004">
        <time>2021-06-19T15:29:42+0000</time>
      </trkpt>
      <trkpt lat="40.81924" lon="-2.2823">
        <time>2021-06-19T15:29:43+0000</time>
      </trkpt>
      <trkpt lat="40.819210000000005" lon="-2.28261">
        <time>2021-06-19T15:29:44+0000</time>
      </trkpt>
      <trkpt lat="40.819190000000006" lon="-2.28289">
        <time>2021-06-19T15:29:45+0000</time>
      </trkpt>
      <trkpt lat="40.819160000000004" lon="-2.28315">
        <time>2021-06-19T15:29:46+0000</time>
      </trkpt>
      <trkpt lat="40.81915" lon="-2.28342">
        <time>2021-06-19T15:29:47+0000</time>
      </trkpt>
      <trkpt lat="40.81915" lon="-2.2837">
        <time>2021-06-19T15:29:48+0000</time>
      </trkpt>
      <trkpt lat="40.81918" lon="-2.28399">
        <time>2021-06-19T15:29:49+0000</time>
      </trkpt>
      <trkpt lat="40.819230000000005" lon="-2.2842700000000002">
        <time>2021-06-19T15:29:50+0000</time>
      </trkpt>
      <trkpt lat="40.819280000000006" lon="-2.2845500000000003">
        <time>2021-06-19T15:29:51+0000</time>
      </trkpt>
      <trkpt lat="40.819320000000005" lon="-2.2848200000000003">
        <time>2021-06-19T15:29:52+0000</time>
      </trkpt>
      <trkpt lat="40.81935" lon="-2.28507">
        <time>2021-06-19T15:29:53+0000</time>
      </trkpt>
      <trkpt lat="40.81938" lon="-2.28532">
        <time>2021-06-19T15:29:54+0000</time>
      </trkpt>
      <trkpt lat="40.8194" lon="-2.28555">
        <time>2021-06-19T15:29:55+0000</time>
      </trkpt>
      <trkpt lat="40.81942" lon="-2.2857700000000003">
        <time>2021-06-19T15:29:56+0000</time>
      </trkpt>
      <trkpt lat="40.81944" lon="-2.2859700000000003">
        <time>2021-06-19T15:29:57+0000</time>
      </trkpt>
      <trkpt lat="40.81945" lon="-2.28614">
        <time>2021-06-19T15:29:58+0000</time>
      </trkpt>
      <trkpt lat="40.81947" lon="-2.28628">
        <time>2021-06-19T15:29:59+0000</time>
      </trkpt>
      <trkpt lat="40.81949" lon="-2.2864">
        <time>2021-06-19T15:30:00+0000</time>
      </trkpt>
      <trkpt lat="40.819500000000005" lon="-2.2865">
        <time>2021-06-19T15:30:01+0000</time>
      </trkpt>
      <trkpt lat="40.81951" lon="-2.2865800000000003">
        <time>2021-06-19T15:30:02+0000</time>
      </trkpt>
      <trkpt lat="40.819520000000004" lon="-2.2866500000000003">
        <time>2021-06-19T15:30:03+0000</time>
      </trkpt>
      <trkpt lat="40.81954" lon="-2.28667">
        <time>2021-06-19T15:30:04+0000</time>
      </trkpt>
      <trkpt lat="40.81955000000001" lon="-2.28669">
        <time>2021-06-19T15:30:05+0000</time>
      </trkpt>
      <trkpt lat="40.819570000000006" lon="-2.2867">
        <time>2021-06-19T15:30:06+0000</time>
      </trkpt>
      <trkpt lat="40.81956" lon="-2.2867900000000003">
        <time>2021-06-19T15:30:12+0000</time>
      </trkpt>
      <trkpt lat="40.81955000000001" lon="-2.2868700000000004">
        <time>2021-06-19T15:30:13+0000</time>
      </trkpt>
      <trkpt lat="40.81955000000001" lon="-2.2869900000000003">
        <time>2021-06-19T15:30:14+0000</time>
      </trkpt>
      <trkpt lat="40.81956" lon="-2.2871300000000003">
        <time>2021-06-19T15:30:15+0000</time>
      </trkpt>
      <trkpt lat="40.819570000000006" lon="-2.28728">
        <time>2021-06-19T15:30:16+0000</time>
      </trkpt>
      <trkpt lat="40.819590000000005" lon="-2.28744">
        <time>2021-06-19T15:30:17+0000</time>
      </trkpt>
      <trkpt lat="40.819610000000004" lon="-2.2875900000000002">
        <time>2021-06-19T15:30:18+0000</time>
      </trkpt>
      <trkpt lat="40.81962" lon="-2.2877300000000003">
        <time>2021-06-19T15:30:19+0000</time>
      </trkpt>
      <trkpt lat="40.819630000000004" lon="-2.2878600000000002">
        <time>2021-06-19T15:30:20+0000</time>
      </trkpt>
      <trkpt lat="40.81964000000001" lon="-2.28798">
        <time>2021-06-19T15:30:21+0000</time>
      </trkpt>
      <trkpt lat="40.81964000000001" lon="-2.2881">
        <time>2021-06-19T15:30:22+0000</time>
      </trkpt>
      <trkpt lat="40.819610000000004" lon="-2.28823">
        <time>2021-06-19T15:30:23+0000</time>
      </trkpt>
      <trkpt lat="40.81955000000001" lon="-2.28837">
        <time>2021-06-19T15:30:24+0000</time>
      </trkpt>
      <trkpt lat="40.81946000000001" lon="-2.28852">
        <time>2021-06-19T15:30:25+0000</time>
      </trkpt>
      <trkpt lat="40.819370000000006" lon="-2.28865">
        <time>2021-06-19T15:30:26+0000</time>
      </trkpt>
      <trkpt lat="40.81927" lon="-2.28878">
        <time>2021-06-19T15:30:27+0000</time>
      </trkpt>
      <trkpt lat="40.8192" lon="-2.28891">
        <time>2021-06-19T15:30:28+0000</time>
      </trkpt>
      <trkpt lat="40.819140000000004" lon="-2.28906">
        <time>2021-06-19T15:30:29+0000</time>
      </trkpt>
      <trkpt lat="40.819100000000006" lon="-2.2892200000000003">
        <time>2021-06-19T15:30:30+0000</time>
      </trkpt>
      <trkpt lat="40.81909" lon="-2.28939">
        <time>2021-06-19T15:30:31+0000</time>
      </trkpt>
      <trkpt lat="40.81909" lon="-2.2895600000000003">
        <time>2021-06-19T15:30:32+0000</time>
      </trkpt>
      <trkpt lat="40.819120000000005" lon="-2.28972">
        <time>2021-06-19T15:30:33+0000</time>
      </trkpt>
      <trkpt lat="40.81917000000001" lon="-2.2898500000000004">
        <time>2021-06-19T15:30:34+0000</time>
      </trkpt>
      <trkpt lat="40.819250000000004" lon="-2.28996">
        <time>2021-06-19T15:30:35+0000</time>
      </trkpt>
      <trkpt lat="40.819370000000006" lon="-2.29001">
        <time>2021-06-19T15:30:36+0000</time>
      </trkpt>
      <trkpt lat="40.819520000000004" lon="-2.2899800000000003">
        <time>2021-06-19T15:30:37+0000</time>
      </trkpt>
      <trkpt lat="40.81969" lon="-2.2899200000000004">
        <time>2021-06-19T15:30:38+0000</time>
      </trkpt>
      <trkpt lat="40.819880000000005" lon="-2.28987">
        <time>2021-06-19T15:30:39+0000</time>
      </trkpt>
      <trkpt lat="40.820060000000005" lon="-2.28981">
        <time>2021-06-19T15:30:40+0000</time>
      </trkpt>
      <trkpt lat="40.82023" lon="-2.2897800000000004">
        <time>2021-06-19T15:30:41+0000</time>
      </trkpt>
      <trkpt lat="40.82039" lon="-2.28973">
        <time>2021-06-19T15:30:42+0000</time>
      </trkpt>
      <trkpt lat="40.820550000000004" lon="-2.2897100000000004">
        <time>2021-06-19T15:30:43+0000</time>
      </trkpt>
      <trkpt lat="40.820710000000005" lon="-2.2897100000000004">
        <time>2021-06-19T15:30:44+0000</time>
      </trkpt>
      <trkpt lat="40.82086" lon="-2.28972">
        <time>2021-06-19T15:30:45+0000</time>
      </trkpt>
      <trkpt lat="40.82103" lon="-2.2897100000000004">
        <time>2021-06-19T15:30:46+0000</time>
      </trkpt>
      <trkpt lat="40.821200000000005" lon="-2.2897100000000004">
        <time>2021-06-19T15:30:47+0000</time>
      </trkpt>
      <trkpt lat="40.82137" lon="-2.2897100000000004">
        <time>2021-06-19T15:30:48+0000</time>
      </trkpt>
      <trkpt lat="40.821540000000006" lon="-2.2897100000000004">
        <time>2021-06-19T15:30:49+0000</time>
      </trkpt>
      <trkpt lat="40.821720000000006" lon="-2.28973">
        <time>2021-06-19T15:30:50+0000</time>
      </trkpt>
      <trkpt lat="40.82188" lon="-2.2897700000000003">
        <time>2021-06-19T15:30:51+0000</time>
      </trkpt>
      <trkpt lat="40.82204" lon="-2.2898300000000003">
        <time>2021-06-19T15:30:52+0000</time>
      </trkpt>
      <trkpt lat="40.822210000000005" lon="-2.2899100000000003">
        <time>2021-06-19T15:30:53+0000</time>
      </trkpt>
      <trkpt lat="40.82238" lon="-2.29">
        <time>2021-06-19T15:30:54+0000</time>
      </trkpt>
      <trkpt lat="40.82255000000001" lon="-2.29009">
        <time>2021-06-19T15:30:55+0000</time>
      </trkpt>
      <trkpt lat="40.82273" lon="-2.2901800000000003">
        <time>2021-06-19T15:30:56+0000</time>
      </trkpt>
      <trkpt lat="40.822900000000004" lon="-2.29027">
        <time>2021-06-19T15:30:57+0000</time>
      </trkpt>
      <trkpt lat="40.82305" lon="-2.29036">
        <time>2021-06-19T15:30:58+0000</time>
      </trkpt>
      <trkpt lat="40.82318" lon="-2.29049">
        <time>2021-06-19T15:30:59+0000</time>
      </trkpt>
      <trkpt lat="40.82329" lon="-2.2906400000000002">
        <time>2021-06-19T15:31:00+0000</time>
      </trkpt>
      <trkpt lat="40.82341" lon="-2.2907800000000003">
        <time>2021-06-19T15:31:01+0000</time>
      </trkpt>
      <trkpt lat="40.82354" lon="-2.2909100000000002">
        <time>2021-06-19T15:31:02+0000</time>
      </trkpt>
      <trkpt lat="40.82367" lon="-2.29101">
        <time>2021-06-19T15:31:03+0000</time>
      </trkpt>
      <trkpt lat="40.82379" lon="-2.2911200000000003">
        <time>2021-06-19T15:31:04+0000</time>
      </trkpt>
      <trkpt lat="40.823890000000006" lon="-2.2912700000000004">
        <time>2021-06-19T15:31:05+0000</time>
      </trkpt>
      <trkpt lat="40.82396000000001" lon="-2.29144">
        <time>2021-06-19T15:31:06+0000</time>
      </trkpt>
      <trkpt lat="40.824020000000004" lon="-2.29163">
        <time>2021-06-19T15:31:07+0000</time>
      </trkpt>
      <trkpt lat="40.82406" lon="-2.2918700000000003">
        <time>2021-06-19T15:31:08+0000</time>
      </trkpt>
      <trkpt lat="40.82408" lon="-2.2921300000000002">
        <time>2021-06-19T15:31:09+0000</time>
      </trkpt>
      <trkpt lat="40.8241" lon="-2.29237">
        <time>2021-06-19T15:31:10+0000</time>
      </trkpt>
      <trkpt lat="40.824110000000005" lon="-2.2926100000000003">
        <time>2021-06-19T15:31:11+0000</time>
      </trkpt>
      <trkpt lat="40.824130000000004" lon="-2.29284">
        <time>2021-06-19T15:31:12+0000</time>
      </trkpt>
      <trkpt lat="40.824160000000006" lon="-2.29306">
        <time>2021-06-19T15:31:13+0000</time>
      </trkpt>
      <trkpt lat="40.824200000000005" lon="-2.29327">
        <time>2021-06-19T15:31:14+0000</time>
      </trkpt>
      <trkpt lat="40.82428" lon="-2.2935000000000003">
        <time>2021-06-19T15:31:15+0000</time>
      </trkpt>
      <trkpt lat="40.82434000000001" lon="-2.29372">
        <time>2021-06-19T15:31:16+0000</time>
      </trkpt>
      <trkpt lat="40.824400000000004" lon="-2.29394">
        <time>2021-06-19T15:31:17+0000</time>
      </trkpt>
      <trkpt lat="40.82444" lon="-2.29415">
        <time>2021-06-19T15:31:18+0000</time>
      </trkpt>
      <trkpt lat="40.824490000000004" lon="-2.29435">
        <time>2021-06-19T15:31:19+0000</time>
      </trkpt>
      <trkpt lat="40.82457" lon="-2.29454">
        <time>2021-06-19T15:31:20+0000</time>
      </trkpt>
      <trkpt lat="40.8247" lon="-2.29468">
        <time>2021-06-19T15:31:21+0000</time>
      </trkpt>
      <trkpt lat="40.82486" lon="-2.2947900000000003">
        <time>2021-06-19T15:31:22+0000</time>
      </trkpt>
      <trkpt lat="40.825050000000005" lon="-2.2948500000000003">
        <time>2021-06-19T15:31:23+0000</time>
      </trkpt>
      <trkpt lat="40.82527" lon="-2.2948600000000003">
        <time>2021-06-19T15:31:24+0000</time>
      </trkpt>
      <trkpt lat="40.825480000000006" lon="-2.2948600000000003">
        <time>2021-06-19T15:31:25+0000</time>
      </trkpt>
      <trkpt lat="40.82565" lon="-2.2948700000000004">
        <time>2021-06-19T15:31:26+0000</time>
      </trkpt>
      <trkpt lat="40.82582" lon="-2.29488">
        <time>2021-06-19T15:31:27+0000</time>
      </trkpt>
      <trkpt lat="40.825990000000004" lon="-2.29494">
        <time>2021-06-19T15:31:28+0000</time>
      </trkpt>
      <trkpt lat="40.82616" lon="-2.29503">
        <time>2021-06-19T15:31:29+0000</time>
      </trkpt>
      <trkpt lat="40.826330000000006" lon="-2.29511">
        <time>2021-06-19T15:31:30+0000</time>
      </trkpt>
      <trkpt lat="40.82652" lon="-2.2951200000000003">
        <time>2021-06-19T15:31:31+0000</time>
      </trkpt>
      <trkpt lat="40.82674" lon="-2.29509">
        <time>2021-06-19T15:31:32+0000</time>
      </trkpt>
      <trkpt lat="40.826930000000004" lon="-2.2951">
        <time>2021-06-19T15:31:33+0000</time>
      </trkpt>
      <trkpt lat="40.8271" lon="-2.29515">
        <time>2021-06-19T15:31:34+0000</time>
      </trkpt>
      <trkpt lat="40.82725000000001" lon="-2.29518">
        <time>2021-06-19T15:31:35+0000</time>
      </trkpt>
      <trkpt lat="40.827400000000004" lon="-2.29516">
        <time>2021-06-19T15:31:36+0000</time>
      </trkpt>
      <trkpt lat="40.827540000000006" lon="-2.2951">
        <time>2021-06-19T15:31:37+0000</time>
      </trkpt>
      <trkpt lat="40.827670000000005" lon="-2.29502">
        <time>2021-06-19T15:31:38+0000</time>
      </trkpt>
      <trkpt lat="40.8278" lon="-2.2949800000000002">
        <time>2021-06-19T15:31:39+0000</time>
      </trkpt>
      <trkpt lat="40.827920000000006" lon="-2.2950000000000004">
        <time>2021-06-19T15:31:40+0000</time>
      </trkpt>
      <trkpt lat="40.82806" lon="-2.29508">
        <time>2021-06-19T15:31:41+0000</time>
      </trkpt>
      <trkpt lat="40.8282" lon="-2.29517">
        <time>2021-06-19T15:31:42+0000</time>
      </trkpt>
      <trkpt lat="40.82835" lon="-2.2952000000000004">
        <time>2021-06-19T15:31:43+0000</time>
      </trkpt>
      <trkpt lat="40.828520000000005" lon="-2.29515">
        <time>2021-06-19T15:31:44+0000</time>
      </trkpt>
      <trkpt lat="40.82871" lon="-2.2951200000000003">
        <time>2021-06-19T15:31:45+0000</time>
      </trkpt>
      <trkpt lat="40.828900000000004" lon="-2.2952000000000004">
        <time>2021-06-19T15:31:46+0000</time>
      </trkpt>
      <trkpt lat="40.829100000000004" lon="-2.2952600000000003">
        <time>2021-06-19T15:31:47+0000</time>
      </trkpt>
      <trkpt lat="40.8293" lon="-2.29529">
        <time>2021-06-19T15:31:48+0000</time>
      </trkpt>
      <trkpt lat="40.82949" lon="-2.2953400000000004">
        <time>2021-06-19T15:31:49+0000</time>
      </trkpt>
      <trkpt lat="40.82967" lon="-2.2953300000000003">
        <time>2021-06-19T15:31:50+0000</time>
      </trkpt>
      <trkpt lat="40.829840000000004" lon="-2.29529">
        <time>2021-06-19T15:31:51+0000</time>
      </trkpt>
      <trkpt lat="40.83003" lon="-2.29524">
        <time>2021-06-19T15:31:52+0000</time>
      </trkpt>
      <trkpt lat="40.83023" lon="-2.29522">
        <time>2021-06-19T15:31:53+0000</time>
      </trkpt>
      <trkpt lat="40.83044" lon="-2.29522">
        <time>2021-06-19T15:31:54+0000</time>
      </trkpt>
      <trkpt lat="40.83066" lon="-2.29521">
        <time>2021-06-19T15:31:55+0000</time>
      </trkpt>
      <trkpt lat="40.83086" lon="-2.29521">
        <time>2021-06-19T15:31:56+0000</time>
      </trkpt>
      <trkpt lat="40.831050000000005" lon="-2.29521">
        <time>2021-06-19T15:31:57+0000</time>
      </trkpt>
      <trkpt lat="40.83124" lon="-2.2951900000000003">
        <time>2021-06-19T15:31:58+0000</time>
      </trkpt>
      <trkpt lat="40.831430000000005" lon="-2.29522">
        <time>2021-06-19T15:31:59+0000</time>
      </trkpt>
      <trkpt lat="40.831610000000005" lon="-2.29528">
        <time>2021-06-19T15:32:00+0000</time>
      </trkpt>
      <trkpt lat="40.831790000000005" lon="-2.2953300000000003">
        <time>2021-06-19T15:32:01+0000</time>
      </trkpt>
      <trkpt lat="40.83196" lon="-2.29536">
        <time>2021-06-19T15:32:02+0000</time>
      </trkpt>
      <trkpt lat="40.83212" lon="-2.2954000000000003">
        <time>2021-06-19T15:32:03+0000</time>
      </trkpt>
      <trkpt lat="40.832240000000006" lon="-2.29543">
        <time>2021-06-19T15:32:04+0000</time>
      </trkpt>
      <trkpt lat="40.83236" lon="-2.29544">
        <time>2021-06-19T15:32:05+0000</time>
      </trkpt>
      <trkpt lat="40.83247" lon="-2.29538">
        <time>2021-06-19T15:32:06+0000</time>
      </trkpt>
      <trkpt lat="40.83254" lon="-2.2952700000000004">
        <time>2021-06-19T15:32:07+0000</time>
      </trkpt>
      <trkpt lat="40.832640000000005" lon="-2.29516">
        <time>2021-06-19T15:32:08+0000</time>
      </trkpt>
      <trkpt lat="40.832770000000004" lon="-2.29509">
        <time>2021-06-19T15:32:09+0000</time>
      </trkpt>
      <trkpt lat="40.832910000000005" lon="-2.29508">
        <time>2021-06-19T15:32:10+0000</time>
      </trkpt>
      <trkpt lat="40.83308" lon="-2.2951200000000003">
        <time>2021-06-19T15:32:11+0000</time>
      </trkpt>
      <trkpt lat="40.83325000000001" lon="-2.29518">
        <time>2021-06-19T15:32:12+0000</time>
      </trkpt>
      <trkpt lat="40.83339" lon="-2.29529">
        <time>2021-06-19T15:32:13+0000</time>
      </trkpt>
      <trkpt lat="40.83353" lon="-2.2954100000000004">
        <time>2021-06-19T15:32:14+0000</time>
      </trkpt>
      <trkpt lat="40.833670000000005" lon="-2.2955200000000002">
        <time>2021-06-19T15:32:15+0000</time>
      </trkpt>
      <trkpt lat="40.83384" lon="-2.29557">
        <time>2021-06-19T15:32:16+0000</time>
      </trkpt>
      <trkpt lat="40.83402" lon="-2.2956000000000003">
        <time>2021-06-19T15:32:17+0000</time>
      </trkpt>
      <trkpt lat="40.834230000000005" lon="-2.29565">
        <time>2021-06-19T15:32:18+0000</time>
      </trkpt>
      <trkpt lat="40.834450000000004" lon="-2.2956800000000004">
        <time>2021-06-19T15:32:19+0000</time>
      </trkpt>
      <trkpt lat="40.83469" lon="-2.29571">
        <time>2021-06-19T15:32:20+0000</time>
      </trkpt>
      <trkpt lat="40.83493" lon="-2.29576">
        <time>2021-06-19T15:32:21+0000</time>
      </trkpt>
      <trkpt lat="40.83516" lon="-2.2958100000000004">
        <time>2021-06-19T15:32:22+0000</time>
      </trkpt>
      <trkpt lat="40.83538" lon="-2.2958600000000002">
        <time>2021-06-19T15:32:23+0000</time>
      </trkpt>
      <trkpt lat="40.83560000000001" lon="-2.29592">
        <time>2021-06-19T15:32:24+0000</time>
      </trkpt>
      <trkpt lat="40.83579" lon="-2.29597">
        <time>2021-06-19T15:32:25+0000</time>
      </trkpt>
      <trkpt lat="40.83596" lon="-2.2960100000000003">
        <time>2021-06-19T15:32:26+0000</time>
      </trkpt>
      <trkpt lat="40.83612" lon="-2.2960700000000003">
        <time>2021-06-19T15:32:27+0000</time>
      </trkpt>
      <trkpt lat="40.836270000000006" lon="-2.29616">
        <time>2021-06-19T15:32:28+0000</time>
      </trkpt>
      <trkpt lat="40.83641" lon="-2.29626">
        <time>2021-06-19T15:32:29+0000</time>
      </trkpt>
      <trkpt lat="40.83653" lon="-2.29639">
        <time>2021-06-19T15:32:30+0000</time>
      </trkpt>
      <trkpt lat="40.83663000000001" lon="-2.29652">
        <time>2021-06-19T15:32:31+0000</time>
      </trkpt>
      <trkpt lat="40.836710000000004" lon="-2.29664">
        <time>2021-06-19T15:32:32+0000</time>
      </trkpt>
      <trkpt lat="40.836780000000005" lon="-2.29677">
        <time>2021-06-19T15:32:33+0000</time>
      </trkpt>
      <trkpt lat="40.836800000000004" lon="-2.29692">
        <time>2021-06-19T15:32:34+0000</time>
      </trkpt>
      <trkpt lat="40.836760000000005" lon="-2.2970800000000002">
        <time>2021-06-19T15:32:35+0000</time>
      </trkpt>
      <trkpt lat="40.836690000000004" lon="-2.2972300000000003">
        <time>2021-06-19T15:32:36+0000</time>
      </trkpt>
      <trkpt lat="40.83663000000001" lon="-2.29739">
        <time>2021-06-19T15:32:37+0000</time>
      </trkpt>
      <trkpt lat="40.83662" lon="-2.2975700000000003">
        <time>2021-06-19T15:32:38+0000</time>
      </trkpt>
      <trkpt lat="40.83662" lon="-2.29772">
        <time>2021-06-19T15:32:39+0000</time>
      </trkpt>
      <trkpt lat="40.83664" lon="-2.29786">
        <time>2021-06-19T15:32:40+0000</time>
      </trkpt>
      <trkpt lat="40.83668" lon="-2.2979800000000004">
        <time>2021-06-19T15:32:41+0000</time>
      </trkpt>
      <trkpt lat="40.83677" lon="-2.29807">
        <time>2021-06-19T15:32:42+0000</time>
      </trkpt>
      <trkpt lat="40.836890000000004" lon="-2.29815">
        <time>2021-06-19T15:32:43+0000</time>
      </trkpt>
      <trkpt lat="40.83701000000001" lon="-2.2982">
        <time>2021-06-19T15:32:44+0000</time>
      </trkpt>
      <trkpt lat="40.83713" lon="-2.2982400000000003">
        <time>2021-06-19T15:32:45+0000</time>
      </trkpt>
      <trkpt lat="40.83726" lon="-2.2982500000000003">
        <time>2021-06-19T15:32:46+0000</time>
      </trkpt>
      <trkpt lat="40.837390000000006" lon="-2.29823">
        <time>2021-06-19T15:32:47+0000</time>
      </trkpt>
      <trkpt lat="40.83751" lon="-2.29821">
        <time>2021-06-19T15:32:48+0000</time>
      </trkpt>
      <trkpt lat="40.83762" lon="-2.29822">
        <time>2021-06-19T15:32:49+0000</time>
      </trkpt>
      <trkpt lat="40.837700000000005" lon="-2.2983100000000003">
        <time>2021-06-19T15:32:50+0000</time>
      </trkpt>
      <trkpt lat="40.83775000000001" lon="-2.2984400000000003">
        <time>2021-06-19T15:32:51+0000</time>
      </trkpt>
      <trkpt lat="40.83776" lon="-2.29861">
        <time>2021-06-19T15:32:52+0000</time>
      </trkpt>
      <trkpt lat="40.837740000000004" lon="-2.2988000000000004">
        <time>2021-06-19T15:32:53+0000</time>
      </trkpt>
      <trkpt lat="40.837720000000004" lon="-2.2989900000000003">
        <time>2021-06-19T15:32:54+0000</time>
      </trkpt>
      <trkpt lat="40.837700000000005" lon="-2.29916">
        <time>2021-06-19T15:32:55+0000</time>
      </trkpt>
      <trkpt lat="40.83771" lon="-2.2993400000000004">
        <time>2021-06-19T15:32:56+0000</time>
      </trkpt>
      <trkpt lat="40.83775000000001" lon="-2.2995400000000004">
        <time>2021-06-19T15:32:57+0000</time>
      </trkpt>
      <trkpt lat="40.8378" lon="-2.2997500000000004">
        <time>2021-06-19T15:32:58+0000</time>
      </trkpt>
      <trkpt lat="40.83787" lon="-2.2999500000000004">
        <time>2021-06-19T15:32:59+0000</time>
      </trkpt>
      <trkpt lat="40.83793" lon="-2.3001400000000003">
        <time>2021-06-19T15:33:00+0000</time>
      </trkpt>
      <trkpt lat="40.837990000000005" lon="-2.30031">
        <time>2021-06-19T15:33:01+0000</time>
      </trkpt>
      <trkpt lat="40.83805" lon="-2.3004700000000002">
        <time>2021-06-19T15:33:02+0000</time>
      </trkpt>
      <trkpt lat="40.83814" lon="-2.30059">
        <time>2021-06-19T15:33:03+0000</time>
      </trkpt>
      <trkpt lat="40.838240000000006" lon="-2.3006900000000003">
        <time>2021-06-19T15:33:04+0000</time>
      </trkpt>
      <trkpt lat="40.838390000000004" lon="-2.30073">
        <time>2021-06-19T15:33:05+0000</time>
      </trkpt>
      <trkpt lat="40.838550000000005" lon="-2.3006900000000003">
        <time>2021-06-19T15:33:06+0000</time>
      </trkpt>
      <trkpt lat="40.83874" lon="-2.30058">
        <time>2021-06-19T15:33:07+0000</time>
      </trkpt>
      <trkpt lat="40.83894" lon="-2.30044">
        <time>2021-06-19T15:33:08+0000</time>
      </trkpt>
      <trkpt lat="40.839130000000004" lon="-2.3003">
        <time>2021-06-19T15:33:09+0000</time>
      </trkpt>
      <trkpt lat="40.83932" lon="-2.30017">
        <time>2021-06-19T15:33:10+0000</time>
      </trkpt>
      <trkpt lat="40.8395" lon="-2.30006">
        <time>2021-06-19T15:33:11+0000</time>
      </trkpt>
      <trkpt lat="40.83968" lon="-2.2999300000000003">
        <time>2021-06-19T15:33:12+0000</time>
      </trkpt>
      <trkpt lat="40.839870000000005" lon="-2.2997900000000002">
        <time>2021-06-19T15:33:13+0000</time>
      </trkpt>
      <trkpt lat="40.84006" lon="-2.2996700000000003">
        <time>2021-06-19T15:33:14+0000</time>
      </trkpt>
      <trkpt lat="40.840250000000005" lon="-2.29957">
        <time>2021-06-19T15:33:15+0000</time>
      </trkpt>
      <trkpt lat="40.84044" lon="-2.2995">
        <time>2021-06-19T15:33:16+0000</time>
      </trkpt>
      <trkpt lat="40.84064" lon="-2.29945">
        <time>2021-06-19T15:33:17+0000</time>
      </trkpt>
      <trkpt lat="40.84085" lon="-2.29943">
        <time>2021-06-19T15:33:18+0000</time>
      </trkpt>
      <trkpt lat="40.84107" lon="-2.29942">
        <time>2021-06-19T15:33:19+0000</time>
      </trkpt>
      <trkpt lat="40.84127" lon="-2.29943">
        <time>2021-06-19T15:33:20+0000</time>
      </trkpt>
      <trkpt lat="40.84147" lon="-2.29944">
        <time>2021-06-19T15:33:21+0000</time>
      </trkpt>
      <trkpt lat="40.84167" lon="-2.29944">
        <time>2021-06-19T15:33:22+0000</time>
      </trkpt>
      <trkpt lat="40.841860000000004" lon="-2.29943">
        <time>2021-06-19T15:33:23+0000</time>
      </trkpt>
      <trkpt lat="40.842060000000004" lon="-2.2994100000000004">
        <time>2021-06-19T15:33:24+0000</time>
      </trkpt>
      <trkpt lat="40.84225" lon="-2.29931">
        <time>2021-06-19T15:33:25+0000</time>
      </trkpt>
      <trkpt lat="40.842470000000006" lon="-2.2992000000000004">
        <time>2021-06-19T15:33:26+0000</time>
      </trkpt>
      <trkpt lat="40.842710000000004" lon="-2.29908">
        <time>2021-06-19T15:33:27+0000</time>
      </trkpt>
      <trkpt lat="40.842940000000006" lon="-2.29896">
        <time>2021-06-19T15:33:28+0000</time>
      </trkpt>
      <trkpt lat="40.84317" lon="-2.2988500000000003">
        <time>2021-06-19T15:33:29+0000</time>
      </trkpt>
      <trkpt lat="40.84339000000001" lon="-2.29875">
        <time>2021-06-19T15:33:30+0000</time>
      </trkpt>
      <trkpt lat="40.843610000000005" lon="-2.2986400000000002">
        <time>2021-06-19T15:33:31+0000</time>
      </trkpt>
      <trkpt lat="40.843810000000005" lon="-2.2985300000000004">
        <time>2021-06-19T15:33:32+0000</time>
      </trkpt>
      <trkpt lat="40.844" lon="-2.29843">
        <time>2021-06-19T15:33:33+0000</time>
      </trkpt>
      <trkpt lat="40.8442" lon="-2.29833">
        <time>2021-06-19T15:33:34+0000</time>
      </trkpt>
      <trkpt lat="40.84438" lon="-2.2982400000000003">
        <time>2021-06-19T15:33:35+0000</time>
      </trkpt>
      <trkpt lat="40.84456" lon="-2.29815">
        <time>2021-06-19T15:33:36+0000</time>
      </trkpt>
      <trkpt lat="40.844730000000006" lon="-2.29806">
        <time>2021-06-19T15:33:37+0000</time>
      </trkpt>
      <trkpt lat="40.84492" lon="-2.2980300000000002">
        <time>2021-06-19T15:33:38+0000</time>
      </trkpt>
      <trkpt lat="40.845130000000005" lon="-2.29807">
        <time>2021-06-19T15:33:39+0000</time>
      </trkpt>
      <trkpt lat="40.84534" lon="-2.2981200000000004">
        <time>2021-06-19T15:33:40+0000</time>
      </trkpt>
      <trkpt lat="40.845530000000004" lon="-2.2981800000000003">
        <time>2021-06-19T15:33:41+0000</time>
      </trkpt>
      <trkpt lat="40.845690000000005" lon="-2.2982400000000003">
        <time>2021-06-19T15:33:42+0000</time>
      </trkpt>
      <trkpt lat="40.845850000000006" lon="-2.29829">
        <time>2021-06-19T15:33:43+0000</time>
      </trkpt>
      <trkpt lat="40.84601000000001" lon="-2.2983800000000003">
        <time>2021-06-19T15:33:44+0000</time>
      </trkpt>
      <trkpt lat="40.84615" lon="-2.2985200000000003">
        <time>2021-06-19T15:33:45+0000</time>
      </trkpt>
      <trkpt lat="40.84626" lon="-2.2987">
        <time>2021-06-19T15:33:46+0000</time>
      </trkpt>
      <trkpt lat="40.84635" lon="-2.2989200000000003">
        <time>2021-06-19T15:33:47+0000</time>
      </trkpt>
      <trkpt lat="40.846410000000006" lon="-2.2991200000000003">
        <time>2021-06-19T15:33:48+0000</time>
      </trkpt>
      <trkpt lat="40.846450000000004" lon="-2.2993300000000003">
        <time>2021-06-19T15:33:49+0000</time>
      </trkpt>
      <trkpt lat="40.84646" lon="-2.2995300000000003">
        <time>2021-06-19T15:33:50+0000</time>
      </trkpt>
      <trkpt lat="40.84642" lon="-2.29971">
        <time>2021-06-19T15:33:51+0000</time>
      </trkpt>
      <trkpt lat="40.84639000000001" lon="-2.29985">
        <time>2021-06-19T15:33:52+0000</time>
      </trkpt>
      <trkpt lat="40.84639000000001" lon="-2.29998">
        <time>2021-06-19T15:33:53+0000</time>
      </trkpt>
      <trkpt lat="40.84644" lon="-2.30009">
        <time>2021-06-19T15:33:54+0000</time>
      </trkpt>
      <trkpt lat="40.84653" lon="-2.30018">
        <time>2021-06-19T15:33:55+0000</time>
      </trkpt>
      <trkpt lat="40.84666" lon="-2.3002800000000003">
        <time>2021-06-19T15:33:56+0000</time>
      </trkpt>
      <trkpt lat="40.846790000000006" lon="-2.3004100000000003">
        <time>2021-06-19T15:33:57+0000</time>
      </trkpt>
      <trkpt lat="40.846900000000005" lon="-2.3005500000000003">
        <time>2021-06-19T15:33:58+0000</time>
      </trkpt>
      <trkpt lat="40.84698" lon="-2.3006900000000003">
        <time>2021-06-19T15:33:59+0000</time>
      </trkpt>
      <trkpt lat="40.847060000000006" lon="-2.30078">
        <time>2021-06-19T15:34:00+0000</time>
      </trkpt>
      <trkpt lat="40.847150000000006" lon="-2.30085">
        <time>2021-06-19T15:34:01+0000</time>
      </trkpt>
      <trkpt lat="40.847260000000006" lon="-2.30085">
        <time>2021-06-19T15:34:02+0000</time>
      </trkpt>
      <trkpt lat="40.84738" lon="-2.3008100000000002">
        <time>2021-06-19T15:34:03+0000</time>
      </trkpt>
      <trkpt lat="40.84752" lon="-2.30073">
        <time>2021-06-19T15:34:04+0000</time>
      </trkpt>
      <trkpt lat="40.847660000000005" lon="-2.30065">
        <time>2021-06-19T15:34:05+0000</time>
      </trkpt>
      <trkpt lat="40.84781" lon="-2.30059">
        <time>2021-06-19T15:34:06+0000</time>
      </trkpt>
      <trkpt lat="40.84796" lon="-2.3005600000000004">
        <time>2021-06-19T15:34:07+0000</time>
      </trkpt>
      <trkpt lat="40.848130000000005" lon="-2.30057">
        <time>2021-06-19T15:34:08+0000</time>
      </trkpt>
      <trkpt lat="40.8483" lon="-2.3006100000000003">
        <time>2021-06-19T15:34:09+0000</time>
      </trkpt>
      <trkpt lat="40.848470000000006" lon="-2.30067">
        <time>2021-06-19T15:34:10+0000</time>
      </trkpt>
      <trkpt lat="40.848650000000006" lon="-2.30073">
        <time>2021-06-19T15:34:11+0000</time>
      </trkpt>
      <trkpt lat="40.84882" lon="-2.30079">
        <time>2021-06-19T15:34:12+0000</time>
      </trkpt>
      <trkpt lat="40.84897" lon="-2.30085">
        <time>2021-06-19T15:34:13+0000</time>
      </trkpt>
      <trkpt lat="40.849120000000006" lon="-2.3009000000000004">
        <time>2021-06-19T15:34:14+0000</time>
      </trkpt>
      <trkpt lat="40.84926" lon="-2.30094">
        <time>2021-06-19T15:34:15+0000</time>
      </trkpt>
      <trkpt lat="40.849410000000006" lon="-2.30094">
        <time>2021-06-19T15:34:16+0000</time>
      </trkpt>
      <trkpt lat="40.84955" lon="-2.30087">
        <time>2021-06-19T15:34:17+0000</time>
      </trkpt>
      <trkpt lat="40.84969" lon="-2.3007500000000003">
        <time>2021-06-19T15:34:18+0000</time>
      </trkpt>
      <trkpt lat="40.84982" lon="-2.3005600000000004">
        <time>2021-06-19T15:34:19+0000</time>
      </trkpt>
      <trkpt lat="40.84995000000001" lon="-2.3003400000000003">
        <time>2021-06-19T15:34:20+0000</time>
      </trkpt>
      <trkpt lat="40.85007" lon="-2.30012">
        <time>2021-06-19T15:34:21+0000</time>
      </trkpt>
      <trkpt lat="40.8502" lon="-2.29985">
        <time>2021-06-19T15:34:22+0000</time>
      </trkpt>
      <trkpt lat="40.85033000000001" lon="-2.29957">
        <time>2021-06-19T15:34:23+0000</time>
      </trkpt>
      <trkpt lat="40.85047" lon="-2.29929">
        <time>2021-06-19T15:34:24+0000</time>
      </trkpt>
      <trkpt lat="40.85061" lon="-2.29903">
        <time>2021-06-19T15:34:25+0000</time>
      </trkpt>
      <trkpt lat="40.850730000000006" lon="-2.2987900000000003">
        <time>2021-06-19T15:34:26+0000</time>
      </trkpt>
      <trkpt lat="40.850840000000005" lon="-2.2985700000000002">
        <time>2021-06-19T15:34:27+0000</time>
      </trkpt>
      <trkpt lat="40.850950000000005" lon="-2.29836">
        <time>2021-06-19T15:34:28+0000</time>
      </trkpt>
      <trkpt lat="40.85105" lon="-2.29816">
        <time>2021-06-19T15:34:29+0000</time>
      </trkpt>
      <trkpt lat="40.85114" lon="-2.2979800000000004">
        <time>2021-06-19T15:34:30+0000</time>
      </trkpt>
      <trkpt lat="40.851220000000005" lon="-2.29779">
        <time>2021-06-19T15:34:31+0000</time>
      </trkpt>
      <trkpt lat="40.85128" lon="-2.2975600000000003">
        <time>2021-06-19T15:34:32+0000</time>
      </trkpt>
      <trkpt lat="40.851350000000004" lon="-2.2973100000000004">
        <time>2021-06-19T15:34:33+0000</time>
      </trkpt>
      <trkpt lat="40.85145" lon="-2.29706">
        <time>2021-06-19T15:34:34+0000</time>
      </trkpt>
      <trkpt lat="40.85157" lon="-2.2968">
        <time>2021-06-19T15:34:35+0000</time>
      </trkpt>
      <trkpt lat="40.85168" lon="-2.29657">
        <time>2021-06-19T15:34:36+0000</time>
      </trkpt>
      <trkpt lat="40.851780000000005" lon="-2.2963500000000003">
        <time>2021-06-19T15:34:37+0000</time>
      </trkpt>
      <trkpt lat="40.851870000000005" lon="-2.2961400000000003">
        <time>2021-06-19T15:34:38+0000</time>
      </trkpt>
      <trkpt lat="40.851960000000005" lon="-2.2959">
        <time>2021-06-19T15:34:39+0000</time>
      </trkpt>
      <trkpt lat="40.852050000000006" lon="-2.29564">
        <time>2021-06-19T15:34:40+0000</time>
      </trkpt>
      <trkpt lat="40.852120000000006" lon="-2.29536">
        <time>2021-06-19T15:34:41+0000</time>
      </trkpt>
      <trkpt lat="40.85219" lon="-2.2950600000000003">
        <time>2021-06-19T15:34:42+0000</time>
      </trkpt>
      <trkpt lat="40.85224" lon="-2.29477">
        <time>2021-06-19T15:34:43+0000</time>
      </trkpt>
      <trkpt lat="40.85228" lon="-2.2945">
        <time>2021-06-19T15:34:44+0000</time>
      </trkpt>
      <trkpt lat="40.85230000000001" lon="-2.29422">
        <time>2021-06-19T15:34:45+0000</time>
      </trkpt>
      <trkpt lat="40.85230000000001" lon="-2.29394">
        <time>2021-06-19T15:34:46+0000</time>
      </trkpt>
      <trkpt lat="40.85228" lon="-2.29366">
        <time>2021-06-19T15:34:47+0000</time>
      </trkpt>
      <trkpt lat="40.85224" lon="-2.2933700000000004">
        <time>2021-06-19T15:34:48+0000</time>
      </trkpt>
      <trkpt lat="40.852180000000004" lon="-2.29307">
        <time>2021-06-19T15:34:49+0000</time>
      </trkpt>
      <trkpt lat="40.8521" lon="-2.29277">
        <time>2021-06-19T15:34:50+0000</time>
      </trkpt>
      <trkpt lat="40.852030000000006" lon="-2.2925">
        <time>2021-06-19T15:34:51+0000</time>
      </trkpt>
      <trkpt lat="40.85197" lon="-2.29226">
        <time>2021-06-19T15:34:52+0000</time>
      </trkpt>
      <trkpt lat="40.851910000000004" lon="-2.29206">
        <time>2021-06-19T15:34:53+0000</time>
      </trkpt>
      <trkpt lat="40.85186" lon="-2.29185">
        <time>2021-06-19T15:34:54+0000</time>
      </trkpt>
      <trkpt lat="40.851820000000004" lon="-2.2916800000000004">
        <time>2021-06-19T15:34:55+0000</time>
      </trkpt>
      <trkpt lat="40.85179" lon="-2.29151">
        <time>2021-06-19T15:34:56+0000</time>
      </trkpt>
      <trkpt lat="40.85179" lon="-2.2913400000000004">
        <time>2021-06-19T15:34:57+0000</time>
      </trkpt>
      <trkpt lat="40.85181" lon="-2.29115">
        <time>2021-06-19T15:34:58+0000</time>
      </trkpt>
      <trkpt lat="40.85188" lon="-2.29095">
        <time>2021-06-19T15:34:59+0000</time>
      </trkpt>
      <trkpt lat="40.85199" lon="-2.29076">
        <time>2021-06-19T15:35:00+0000</time>
      </trkpt>
      <trkpt lat="40.85213" lon="-2.29056">
        <time>2021-06-19T15:35:01+0000</time>
      </trkpt>
      <trkpt lat="40.85228" lon="-2.29034">
        <time>2021-06-19T15:35:02+0000</time>
      </trkpt>
      <trkpt lat="40.852430000000005" lon="-2.29013">
        <time>2021-06-19T15:35:03+0000</time>
      </trkpt>
      <trkpt lat="40.85255" lon="-2.28993">
        <time>2021-06-19T15:35:04+0000</time>
      </trkpt>
      <trkpt lat="40.85267" lon="-2.28974">
        <time>2021-06-19T15:35:05+0000</time>
      </trkpt>
      <trkpt lat="40.85277000000001" lon="-2.28959">
        <time>2021-06-19T15:35:06+0000</time>
      </trkpt>
      <trkpt lat="40.85286000000001" lon="-2.28945">
        <time>2021-06-19T15:35:07+0000</time>
      </trkpt>
      <trkpt lat="40.85295" lon="-2.28933">
        <time>2021-06-19T15:35:08+0000</time>
      </trkpt>
      <trkpt lat="40.85305" lon="-2.28926">
        <time>2021-06-19T15:35:09+0000</time>
      </trkpt>
      <trkpt lat="40.85316" lon="-2.28927">
        <time>2021-06-19T15:35:10+0000</time>
      </trkpt>
      <trkpt lat="40.853260000000006" lon="-2.28934">
        <time>2021-06-19T15:35:11+0000</time>
      </trkpt>
      <trkpt lat="40.85338" lon="-2.28946">
        <time>2021-06-19T15:35:12+0000</time>
      </trkpt>
      <trkpt lat="40.85351" lon="-2.28959">
        <time>2021-06-19T15:35:13+0000</time>
      </trkpt>
      <trkpt lat="40.853660000000005" lon="-2.2896900000000002">
        <time>2021-06-19T15:35:14+0000</time>
      </trkpt>
      <trkpt lat="40.853820000000006" lon="-2.28975">
        <time>2021-06-19T15:35:15+0000</time>
      </trkpt>
      <trkpt lat="40.853970000000004" lon="-2.28975">
        <time>2021-06-19T15:35:16+0000</time>
      </trkpt>
      <trkpt lat="40.85412" lon="-2.2897000000000003">
        <time>2021-06-19T15:35:17+0000</time>
      </trkpt>
      <trkpt lat="40.85425" lon="-2.28968">
        <time>2021-06-19T15:35:18+0000</time>
      </trkpt>
      <trkpt lat="40.85439" lon="-2.28972">
        <time>2021-06-19T15:35:19+0000</time>
      </trkpt>
      <trkpt lat="40.85454" lon="-2.28981">
        <time>2021-06-19T15:35:20+0000</time>
      </trkpt>
      <trkpt lat="40.85468" lon="-2.2899200000000004">
        <time>2021-06-19T15:35:21+0000</time>
      </trkpt>
      <trkpt lat="40.854780000000005" lon="-2.29006">
        <time>2021-06-19T15:35:22+0000</time>
      </trkpt>
      <trkpt lat="40.85486" lon="-2.29022">
        <time>2021-06-19T15:35:23+0000</time>
      </trkpt>
      <trkpt lat="40.8549" lon="-2.29041">
        <time>2021-06-19T15:35:24+0000</time>
      </trkpt>
      <trkpt lat="40.854910000000004" lon="-2.29063">
        <time>2021-06-19T15:35:25+0000</time>
      </trkpt>
      <trkpt lat="40.8549" lon="-2.29083">
        <time>2021-06-19T15:35:26+0000</time>
      </trkpt>
      <trkpt lat="40.85493" lon="-2.29103">
        <time>2021-06-19T15:35:27+0000</time>
      </trkpt>
      <trkpt lat="40.85502" lon="-2.29122">
        <time>2021-06-19T15:35:28+0000</time>
      </trkpt>
      <trkpt lat="40.85513" lon="-2.2914000000000003">
        <time>2021-06-19T15:35:29+0000</time>
      </trkpt>
      <trkpt lat="40.85524" lon="-2.29162">
        <time>2021-06-19T15:35:30+0000</time>
      </trkpt>
      <trkpt lat="40.855340000000005" lon="-2.29184">
        <time>2021-06-19T15:35:31+0000</time>
      </trkpt>
      <trkpt lat="40.85546" lon="-2.29206">
        <time>2021-06-19T15:35:32+0000</time>
      </trkpt>
      <trkpt lat="40.8556" lon="-2.29224">
        <time>2021-06-19T15:35:33+0000</time>
      </trkpt>
      <trkpt lat="40.85575" lon="-2.29238">
        <time>2021-06-19T15:35:34+0000</time>
      </trkpt>
      <trkpt lat="40.85589" lon="-2.2925">
        <time>2021-06-19T15:35:35+0000</time>
      </trkpt>
      <trkpt lat="40.85604" lon="-2.2926100000000003">
        <time>2021-06-19T15:35:36+0000</time>
      </trkpt>
      <trkpt lat="40.856210000000004" lon="-2.2927000000000004">
        <time>2021-06-19T15:35:37+0000</time>
      </trkpt>
      <trkpt lat="40.856390000000005" lon="-2.29277">
        <time>2021-06-19T15:35:38+0000</time>
      </trkpt>
      <trkpt lat="40.8566" lon="-2.2928">
        <time>2021-06-19T15:35:39+0000</time>
      </trkpt>
      <trkpt lat="40.856820000000006" lon="-2.2928200000000003">
        <time>2021-06-19T15:35:40+0000</time>
      </trkpt>
      <trkpt lat="40.85705" lon="-2.2928300000000004">
        <time>2021-06-19T15:35:41+0000</time>
      </trkpt>
      <trkpt lat="40.85728" lon="-2.29285">
        <time>2021-06-19T15:35:42+0000</time>
      </trkpt>
      <trkpt lat="40.857530000000004" lon="-2.2928800000000003">
        <time>2021-06-19T15:35:43+0000</time>
      </trkpt>
      <trkpt lat="40.85779" lon="-2.2928900000000003">
        <time>2021-06-19T15:35:44+0000</time>
      </trkpt>
      <trkpt lat="40.85803000000001" lon="-2.29292">
        <time>2021-06-19T15:35:45+0000</time>
      </trkpt>
      <trkpt lat="40.858270000000005" lon="-2.2929500000000003">
        <time>2021-06-19T15:35:46+0000</time>
      </trkpt>
      <trkpt lat="40.85851" lon="-2.2929700000000004">
        <time>2021-06-19T15:35:47+0000</time>
      </trkpt>
      <trkpt lat="40.858760000000004" lon="-2.2929500000000003">
        <time>2021-06-19T15:35:48+0000</time>
      </trkpt>
      <trkpt lat="40.859010000000005" lon="-2.2928800000000003">
        <time>2021-06-19T15:35:49+0000</time>
      </trkpt>
      <trkpt lat="40.859260000000006" lon="-2.29277">
        <time>2021-06-19T15:35:50+0000</time>
      </trkpt>
      <trkpt lat="40.859500000000004" lon="-2.29266">
        <time>2021-06-19T15:35:51+0000</time>
      </trkpt>
      <trkpt lat="40.859730000000006" lon="-2.2925600000000004">
        <time>2021-06-19T15:35:52+0000</time>
      </trkpt>
      <trkpt lat="40.859950000000005" lon="-2.2924900000000004">
        <time>2021-06-19T15:35:53+0000</time>
      </trkpt>
      <trkpt lat="40.860150000000004" lon="-2.29243">
        <time>2021-06-19T15:35:54+0000</time>
      </trkpt>
      <trkpt lat="40.860350000000004" lon="-2.29237">
        <time>2021-06-19T15:35:55+0000</time>
      </trkpt>
      <trkpt lat="40.86055" lon="-2.29232">
        <time>2021-06-19T15:35:56+0000</time>
      </trkpt>
      <trkpt lat="40.86075" lon="-2.29226">
        <time>2021-06-19T15:35:57+0000</time>
      </trkpt>
      <trkpt lat="40.86095" lon="-2.2922100000000003">
        <time>2021-06-19T15:35:58+0000</time>
      </trkpt>
      <trkpt lat="40.861160000000005" lon="-2.2921400000000003">
        <time>2021-06-19T15:35:59+0000</time>
      </trkpt>
      <trkpt lat="40.861380000000004" lon="-2.29204">
        <time>2021-06-19T15:36:00+0000</time>
      </trkpt>
      <trkpt lat="40.8616" lon="-2.29192">
        <time>2021-06-19T15:36:01+0000</time>
      </trkpt>
      <trkpt lat="40.86182" lon="-2.29179">
        <time>2021-06-19T15:36:02+0000</time>
      </trkpt>
      <trkpt lat="40.86204" lon="-2.2916600000000003">
        <time>2021-06-19T15:36:03+0000</time>
      </trkpt>
      <trkpt lat="40.86224" lon="-2.2915200000000002">
        <time>2021-06-19T15:36:04+0000</time>
      </trkpt>
      <trkpt lat="40.86245" lon="-2.29137">
        <time>2021-06-19T15:36:05+0000</time>
      </trkpt>
      <trkpt lat="40.862640000000006" lon="-2.2912000000000003">
        <time>2021-06-19T15:36:06+0000</time>
      </trkpt>
      <trkpt lat="40.86283" lon="-2.29101">
        <time>2021-06-19T15:36:07+0000</time>
      </trkpt>
      <trkpt lat="40.86299" lon="-2.29082">
        <time>2021-06-19T15:36:08+0000</time>
      </trkpt>
      <trkpt lat="40.863150000000005" lon="-2.2906400000000002">
        <time>2021-06-19T15:36:09+0000</time>
      </trkpt>
      <trkpt lat="40.8633" lon="-2.29048">
        <time>2021-06-19T15:36:10+0000</time>
      </trkpt>
      <trkpt lat="40.86345" lon="-2.29033">
        <time>2021-06-19T15:36:11+0000</time>
      </trkpt>
      <trkpt lat="40.86359" lon="-2.2901900000000004">
        <time>2021-06-19T15:36:12+0000</time>
      </trkpt>
      <trkpt lat="40.86372" lon="-2.29009">
        <time>2021-06-19T15:36:13+0000</time>
      </trkpt>
      <trkpt lat="40.863870000000006" lon="-2.2900400000000003">
        <time>2021-06-19T15:36:14+0000</time>
      </trkpt>
      <trkpt lat="40.86403000000001" lon="-2.2900400000000003">
        <time>2021-06-19T15:36:15+0000</time>
      </trkpt>
      <trkpt lat="40.86421" lon="-2.29009">
        <time>2021-06-19T15:36:16+0000</time>
      </trkpt>
      <trkpt lat="40.86439" lon="-2.2901700000000003">
        <time>2021-06-19T15:36:17+0000</time>
      </trkpt>
      <trkpt lat="40.864560000000004" lon="-2.29027">
        <time>2021-06-19T15:36:18+0000</time>
      </trkpt>
      <trkpt lat="40.864740000000005" lon="-2.2903900000000004">
        <time>2021-06-19T15:36:19+0000</time>
      </trkpt>
      <trkpt lat="40.86489" lon="-2.29054">
        <time>2021-06-19T15:36:20+0000</time>
      </trkpt>
      <trkpt lat="40.865030000000004" lon="-2.29067">
        <time>2021-06-19T15:36:21+0000</time>
      </trkpt>
      <trkpt lat="40.8652" lon="-2.29077">
        <time>2021-06-19T15:36:22+0000</time>
      </trkpt>
      <trkpt lat="40.865370000000006" lon="-2.2908500000000003">
        <time>2021-06-19T15:36:23+0000</time>
      </trkpt>
      <trkpt lat="40.865570000000005" lon="-2.2909">
        <time>2021-06-19T15:36:24+0000</time>
      </trkpt>
      <trkpt lat="40.86578" lon="-2.2909300000000004">
        <time>2021-06-19T15:36:25+0000</time>
      </trkpt>
      <trkpt lat="40.86600000000001" lon="-2.29094">
        <time>2021-06-19T15:36:26+0000</time>
      </trkpt>
      <trkpt lat="40.866220000000006" lon="-2.2909300000000004">
        <time>2021-06-19T15:36:27+0000</time>
      </trkpt>
      <trkpt lat="40.86645" lon="-2.2909200000000003">
        <time>2021-06-19T15:36:28+0000</time>
      </trkpt>
      <trkpt lat="40.866670000000006" lon="-2.29088">
        <time>2021-06-19T15:36:29+0000</time>
      </trkpt>
      <trkpt lat="40.866890000000005" lon="-2.29084">
        <time>2021-06-19T15:36:30+0000</time>
      </trkpt>
      <trkpt lat="40.867090000000005" lon="-2.2907900000000003">
        <time>2021-06-19T15:36:31+0000</time>
      </trkpt>
      <trkpt lat="40.867290000000004" lon="-2.29076">
        <time>2021-06-19T15:36:32+0000</time>
      </trkpt>
      <trkpt lat="40.86748" lon="-2.29075">
        <time>2021-06-19T15:36:33+0000</time>
      </trkpt>
      <trkpt lat="40.867670000000004" lon="-2.2907800000000003">
        <time>2021-06-19T15:36:34+0000</time>
      </trkpt>
      <trkpt lat="40.86786" lon="-2.29082">
        <time>2021-06-19T15:36:35+0000</time>
      </trkpt>
      <trkpt lat="40.868030000000005" lon="-2.2908700000000004">
        <time>2021-06-19T15:36:36+0000</time>
      </trkpt>
      <trkpt lat="40.868190000000006" lon="-2.2909100000000002">
        <time>2021-06-19T15:36:37+0000</time>
      </trkpt>
      <trkpt lat="40.86835000000001" lon="-2.2909900000000003">
        <time>2021-06-19T15:36:38+0000</time>
      </trkpt>
      <trkpt lat="40.868520000000004" lon="-2.2911200000000003">
        <time>2021-06-19T15:36:39+0000</time>
      </trkpt>
      <trkpt lat="40.868680000000005" lon="-2.29129">
        <time>2021-06-19T15:36:40+0000</time>
      </trkpt>
      <trkpt lat="40.868860000000005" lon="-2.2914700000000003">
        <time>2021-06-19T15:36:41+0000</time>
      </trkpt>
      <trkpt lat="40.869040000000005" lon="-2.29165">
        <time>2021-06-19T15:36:42+0000</time>
      </trkpt>
      <trkpt lat="40.869220000000006" lon="-2.29183">
        <time>2021-06-19T15:36:43+0000</time>
      </trkpt>
      <trkpt lat="40.869400000000006" lon="-2.29199">
        <time>2021-06-19T15:36:44+0000</time>
      </trkpt>
      <trkpt lat="40.86957" lon="-2.29212">
        <time>2021-06-19T15:36:45+0000</time>
      </trkpt>
      <trkpt lat="40.86974" lon="-2.29224">
        <time>2021-06-19T15:36:46+0000</time>
      </trkpt>
      <trkpt lat="40.86994000000001" lon="-2.29233">
        <time>2021-06-19T15:36:47+0000</time>
      </trkpt>
      <trkpt lat="40.870160000000006" lon="-2.29239">
        <time>2021-06-19T15:36:48+0000</time>
      </trkpt>
      <trkpt lat="40.87037" lon="-2.29243">
        <time>2021-06-19T15:36:49+0000</time>
      </trkpt>
      <trkpt lat="40.87057" lon="-2.29243">
        <time>2021-06-19T15:36:50+0000</time>
      </trkpt>
      <trkpt lat="40.87075" lon="-2.2924100000000003">
        <time>2021-06-19T15:36:51+0000</time>
      </trkpt>
      <trkpt lat="40.87095" lon="-2.29233">
        <time>2021-06-19T15:36:52+0000</time>
      </trkpt>
      <trkpt lat="40.871170000000006" lon="-2.29223">
        <time>2021-06-19T15:36:53+0000</time>
      </trkpt>
      <trkpt lat="40.871390000000005" lon="-2.29211">
        <time>2021-06-19T15:36:54+0000</time>
      </trkpt>
      <trkpt lat="40.87158" lon="-2.2920100000000003">
        <time>2021-06-19T15:36:55+0000</time>
      </trkpt>
      <trkpt lat="40.871770000000005" lon="-2.29191">
        <time>2021-06-19T15:36:56+0000</time>
      </trkpt>
      <trkpt lat="40.871950000000005" lon="-2.29179">
        <time>2021-06-19T15:36:57+0000</time>
      </trkpt>
      <trkpt lat="40.87214" lon="-2.29164">
        <time>2021-06-19T15:36:58+0000</time>
      </trkpt>
      <trkpt lat="40.8723" lon="-2.2914600000000003">
        <time>2021-06-19T15:36:59+0000</time>
      </trkpt>
      <trkpt lat="40.87243" lon="-2.29129">
        <time>2021-06-19T15:37:00+0000</time>
      </trkpt>
      <trkpt lat="40.872530000000005" lon="-2.29115">
        <time>2021-06-19T15:37:01+0000</time>
      </trkpt>
      <trkpt lat="40.87263" lon="-2.29104">
        <time>2021-06-19T15:37:02+0000</time>
      </trkpt>
      <trkpt lat="40.872730000000004" lon="-2.29094">
        <time>2021-06-19T15:37:03+0000</time>
      </trkpt>
      <trkpt lat="40.87283" lon="-2.2909">
        <time>2021-06-19T15:37:04+0000</time>
      </trkpt>
      <trkpt lat="40.87294" lon="-2.29089">
        <time>2021-06-19T15:37:05+0000</time>
      </trkpt>
      <trkpt lat="40.87308" lon="-2.29089">
        <time>2021-06-19T15:37:06+0000</time>
      </trkpt>
      <trkpt lat="40.87323000000001" lon="-2.29083">
        <time>2021-06-19T15:37:07+0000</time>
      </trkpt>
      <trkpt lat="40.87339" lon="-2.2907300000000004">
        <time>2021-06-19T15:37:08+0000</time>
      </trkpt>
      <trkpt lat="40.873580000000004" lon="-2.29061">
        <time>2021-06-19T15:37:09+0000</time>
      </trkpt>
      <trkpt lat="40.87377" lon="-2.29047">
        <time>2021-06-19T15:37:10+0000</time>
      </trkpt>
      <trkpt lat="40.873960000000004" lon="-2.29035">
        <time>2021-06-19T15:37:11+0000</time>
      </trkpt>
      <trkpt lat="40.874140000000004" lon="-2.29022">
        <time>2021-06-19T15:37:12+0000</time>
      </trkpt>
      <trkpt lat="40.874320000000004" lon="-2.2901000000000002">
        <time>2021-06-19T15:37:13+0000</time>
      </trkpt>
      <trkpt lat="40.87449" lon="-2.28996">
        <time>2021-06-19T15:37:14+0000</time>
      </trkpt>
      <trkpt lat="40.87464000000001" lon="-2.2898">
        <time>2021-06-19T15:37:15+0000</time>
      </trkpt>
      <trkpt lat="40.874770000000005" lon="-2.2896">
        <time>2021-06-19T15:37:16+0000</time>
      </trkpt>
      <trkpt lat="40.87492" lon="-2.28935">
        <time>2021-06-19T15:37:17+0000</time>
      </trkpt>
      <trkpt lat="40.87507" lon="-2.2890800000000002">
        <time>2021-06-19T15:37:18+0000</time>
      </trkpt>
      <trkpt lat="40.87521" lon="-2.2888100000000002">
        <time>2021-06-19T15:37:19+0000</time>
      </trkpt>
      <trkpt lat="40.87536" lon="-2.2885500000000003">
        <time>2021-06-19T15:37:20+0000</time>
      </trkpt>
      <trkpt lat="40.875490000000006" lon="-2.28831">
        <time>2021-06-19T15:37:21+0000</time>
      </trkpt>
      <trkpt lat="40.875620000000005" lon="-2.2881">
        <time>2021-06-19T15:37:22+0000</time>
      </trkpt>
      <trkpt lat="40.87577" lon="-2.28792">
        <time>2021-06-19T15:37:23+0000</time>
      </trkpt>
      <trkpt lat="40.875930000000004" lon="-2.28777">
        <time>2021-06-19T15:37:24+0000</time>
      </trkpt>
      <trkpt lat="40.87608" lon="-2.28762">
        <time>2021-06-19T15:37:25+0000</time>
      </trkpt>
      <trkpt lat="40.87623000000001" lon="-2.2874800000000004">
        <time>2021-06-19T15:37:26+0000</time>
      </trkpt>
      <trkpt lat="40.876360000000005" lon="-2.28735">
        <time>2021-06-19T15:37:27+0000</time>
      </trkpt>
      <trkpt lat="40.8765" lon="-2.28723">
        <time>2021-06-19T15:37:28+0000</time>
      </trkpt>
      <trkpt lat="40.876630000000006" lon="-2.28709">
        <time>2021-06-19T15:37:29+0000</time>
      </trkpt>
      <trkpt lat="40.87675" lon="-2.28696">
        <time>2021-06-19T15:37:30+0000</time>
      </trkpt>
      <trkpt lat="40.876870000000004" lon="-2.2868000000000004">
        <time>2021-06-19T15:37:31+0000</time>
      </trkpt>
      <trkpt lat="40.876990000000006" lon="-2.28663">
        <time>2021-06-19T15:37:32+0000</time>
      </trkpt>
      <trkpt lat="40.877140000000004" lon="-2.28649">
        <time>2021-06-19T15:37:33+0000</time>
      </trkpt>
      <trkpt lat="40.87733" lon="-2.2863700000000002">
        <time>2021-06-19T15:37:34+0000</time>
      </trkpt>
      <trkpt lat="40.87754" lon="-2.2862400000000003">
        <time>2021-06-19T15:37:35+0000</time>
      </trkpt>
      <trkpt lat="40.877750000000006" lon="-2.2861000000000002">
        <time>2021-06-19T15:37:36+0000</time>
      </trkpt>
      <trkpt lat="40.87796" lon="-2.28596">
        <time>2021-06-19T15:37:37+0000</time>
      </trkpt>
      <trkpt lat="40.87816" lon="-2.2858400000000003">
        <time>2021-06-19T15:37:38+0000</time>
      </trkpt>
      <trkpt lat="40.87836" lon="-2.28574">
        <time>2021-06-19T15:37:39+0000</time>
      </trkpt>
      <trkpt lat="40.878550000000004" lon="-2.2856500000000004">
        <time>2021-06-19T15:37:40+0000</time>
      </trkpt>
      <trkpt lat="40.87874" lon="-2.2856">
        <time>2021-06-19T15:37:41+0000</time>
      </trkpt>
      <trkpt lat="40.87892" lon="-2.2855600000000003">
        <time>2021-06-19T15:37:42+0000</time>
      </trkpt>
      <trkpt lat="40.879090000000005" lon="-2.28554">
        <time>2021-06-19T15:37:43+0000</time>
      </trkpt>
      <trkpt lat="40.87928" lon="-2.2855800000000004">
        <time>2021-06-19T15:37:44+0000</time>
      </trkpt>
      <trkpt lat="40.879490000000004" lon="-2.2856400000000003">
        <time>2021-06-19T15:37:45+0000</time>
      </trkpt>
      <trkpt lat="40.87971" lon="-2.2857100000000004">
        <time>2021-06-19T15:37:46+0000</time>
      </trkpt>
      <trkpt lat="40.87995" lon="-2.2858">
        <time>2021-06-19T15:37:47+0000</time>
      </trkpt>
      <trkpt lat="40.88018" lon="-2.2859000000000003">
        <time>2021-06-19T15:37:48+0000</time>
      </trkpt>
      <trkpt lat="40.880410000000005" lon="-2.2860300000000002">
        <time>2021-06-19T15:37:49+0000</time>
      </trkpt>
      <trkpt lat="40.880660000000006" lon="-2.2861700000000003">
        <time>2021-06-19T15:37:50+0000</time>
      </trkpt>
      <trkpt lat="40.880900000000004" lon="-2.2863100000000003">
        <time>2021-06-19T15:37:51+0000</time>
      </trkpt>
      <trkpt lat="40.881130000000006" lon="-2.28647">
        <time>2021-06-19T15:37:52+0000</time>
      </trkpt>
      <trkpt lat="40.881350000000005" lon="-2.2866400000000002">
        <time>2021-06-19T15:37:53+0000</time>
      </trkpt>
      <trkpt lat="40.88157" lon="-2.28683">
        <time>2021-06-19T15:37:54+0000</time>
      </trkpt>
      <trkpt lat="40.881780000000006" lon="-2.28704">
        <time>2021-06-19T15:37:55+0000</time>
      </trkpt>
      <trkpt lat="40.88199" lon="-2.2872500000000002">
        <time>2021-06-19T15:37:56+0000</time>
      </trkpt>
      <trkpt lat="40.882200000000005" lon="-2.2874700000000003">
        <time>2021-06-19T15:37:57+0000</time>
      </trkpt>
      <trkpt lat="40.88241" lon="-2.2876700000000003">
        <time>2021-06-19T15:37:58+0000</time>
      </trkpt>
      <trkpt lat="40.88262" lon="-2.2878800000000004">
        <time>2021-06-19T15:37:59+0000</time>
      </trkpt>
      <trkpt lat="40.88284" lon="-2.2880900000000004">
        <time>2021-06-19T15:38:00+0000</time>
      </trkpt>
      <trkpt lat="40.88308000000001" lon="-2.2882700000000002">
        <time>2021-06-19T15:38:01+0000</time>
      </trkpt>
      <trkpt lat="40.883320000000005" lon="-2.28846">
        <time>2021-06-19T15:38:02+0000</time>
      </trkpt>
      <trkpt lat="40.88356" lon="-2.28864">
        <time>2021-06-19T15:38:03+0000</time>
      </trkpt>
      <trkpt lat="40.883810000000004" lon="-2.2888200000000003">
        <time>2021-06-19T15:38:04+0000</time>
      </trkpt>
      <trkpt lat="40.884060000000005" lon="-2.28899">
        <time>2021-06-19T15:38:05+0000</time>
      </trkpt>
      <trkpt lat="40.8843" lon="-2.2891700000000004">
        <time>2021-06-19T15:38:06+0000</time>
      </trkpt>
      <trkpt lat="40.884570000000004" lon="-2.2893100000000004">
        <time>2021-06-19T15:38:07+0000</time>
      </trkpt>
      <trkpt lat="40.884840000000004" lon="-2.28945">
        <time>2021-06-19T15:38:08+0000</time>
      </trkpt>
      <trkpt lat="40.885110000000005" lon="-2.2895700000000003">
        <time>2021-06-19T15:38:09+0000</time>
      </trkpt>
      <trkpt lat="40.88537" lon="-2.2896900000000002">
        <time>2021-06-19T15:38:10+0000</time>
      </trkpt>
      <trkpt lat="40.88562" lon="-2.2898">
        <time>2021-06-19T15:38:11+0000</time>
      </trkpt>
      <trkpt lat="40.885870000000004" lon="-2.2899000000000003">
        <time>2021-06-19T15:38:12+0000</time>
      </trkpt>
      <trkpt lat="40.886100000000006" lon="-2.29">
        <time>2021-06-19T15:38:13+0000</time>
      </trkpt>
      <trkpt lat="40.886320000000005" lon="-2.2901000000000002">
        <time>2021-06-19T15:38:14+0000</time>
      </trkpt>
      <trkpt lat="40.88653" lon="-2.29021">
        <time>2021-06-19T15:38:15+0000</time>
      </trkpt>
      <trkpt lat="40.88674" lon="-2.29035">
        <time>2021-06-19T15:38:16+0000</time>
      </trkpt>
      <trkpt lat="40.886950000000006" lon="-2.2905300000000004">
        <time>2021-06-19T15:38:17+0000</time>
      </trkpt>
      <trkpt lat="40.887150000000005" lon="-2.2907200000000003">
        <time>2021-06-19T15:38:18+0000</time>
      </trkpt>
      <trkpt lat="40.887350000000005" lon="-2.2909">
        <time>2021-06-19T15:38:19+0000</time>
      </trkpt>
      <trkpt lat="40.88754" lon="-2.2910700000000004">
        <time>2021-06-19T15:38:20+0000</time>
      </trkpt>
      <trkpt lat="40.887730000000005" lon="-2.29121">
        <time>2021-06-19T15:38:21+0000</time>
      </trkpt>
      <trkpt lat="40.88792" lon="-2.2913300000000003">
        <time>2021-06-19T15:38:22+0000</time>
      </trkpt>
      <trkpt lat="40.8881" lon="-2.29143">
        <time>2021-06-19T15:38:23+0000</time>
      </trkpt>
      <trkpt lat="40.888270000000006" lon="-2.29151">
        <time>2021-06-19T15:38:24+0000</time>
      </trkpt>
      <trkpt lat="40.88844" lon="-2.2916000000000003">
        <time>2021-06-19T15:38:25+0000</time>
      </trkpt>
      <trkpt lat="40.888600000000004" lon="-2.29169">
        <time>2021-06-19T15:38:26+0000</time>
      </trkpt>
      <trkpt lat="40.88875" lon="-2.29177">
        <time>2021-06-19T15:38:27+0000</time>
      </trkpt>
      <trkpt lat="40.88890000000001" lon="-2.2918600000000002">
        <time>2021-06-19T15:38:28+0000</time>
      </trkpt>
      <trkpt lat="40.889050000000005" lon="-2.2919400000000003">
        <time>2021-06-19T15:38:29+0000</time>
      </trkpt>
      <trkpt lat="40.889190000000006" lon="-2.2920100000000003">
        <time>2021-06-19T15:38:30+0000</time>
      </trkpt>
      <trkpt lat="40.889320000000005" lon="-2.2920800000000003">
        <time>2021-06-19T15:38:31+0000</time>
      </trkpt>
      <trkpt lat="40.88944" lon="-2.2921400000000003">
        <time>2021-06-19T15:38:32+0000</time>
      </trkpt>
      <trkpt lat="40.889570000000006" lon="-2.2922100000000003">
        <time>2021-06-19T15:38:33+0000</time>
      </trkpt>
      <trkpt lat="40.88969" lon="-2.2922700000000003">
        <time>2021-06-19T15:38:34+0000</time>
      </trkpt>
      <trkpt lat="40.889810000000004" lon="-2.2923400000000003">
        <time>2021-06-19T15:38:35+0000</time>
      </trkpt>
      <trkpt lat="40.88991" lon="-2.2924100000000003">
        <time>2021-06-19T15:38:36+0000</time>
      </trkpt>
      <trkpt lat="40.890010000000004" lon="-2.2924700000000002">
        <time>2021-06-19T15:38:37+0000</time>
      </trkpt>
      <trkpt lat="40.890100000000004" lon="-2.2925400000000002">
        <time>2021-06-19T15:38:38+0000</time>
      </trkpt>
      <trkpt lat="40.89021" lon="-2.2926">
        <time>2021-06-19T15:38:39+0000</time>
      </trkpt>
      <trkpt lat="40.89031000000001" lon="-2.29266">
        <time>2021-06-19T15:38:40+0000</time>
      </trkpt>
      <trkpt lat="40.890440000000005" lon="-2.2927000000000004">
        <time>2021-06-19T15:38:41+0000</time>
      </trkpt>
      <trkpt lat="40.89058" lon="-2.29273">
        <time>2021-06-19T15:38:42+0000</time>
      </trkpt>
      <trkpt lat="40.89074" lon="-2.2927400000000002">
        <time>2021-06-19T15:38:43+0000</time>
      </trkpt>
      <trkpt lat="40.8909" lon="-2.2927600000000004">
        <time>2021-06-19T15:38:44+0000</time>
      </trkpt>
      <trkpt lat="40.891070000000006" lon="-2.29278">
        <time>2021-06-19T15:38:45+0000</time>
      </trkpt>
      <trkpt lat="40.89124" lon="-2.2928100000000002">
        <time>2021-06-19T15:38:46+0000</time>
      </trkpt>
      <trkpt lat="40.891400000000004" lon="-2.2928300000000004">
        <time>2021-06-19T15:38:47+0000</time>
      </trkpt>
      <trkpt lat="40.891560000000005" lon="-2.29286">
        <time>2021-06-19T15:38:48+0000</time>
      </trkpt>
      <trkpt lat="40.89172000000001" lon="-2.2928800000000003">
        <time>2021-06-19T15:38:49+0000</time>
      </trkpt>
      <trkpt lat="40.891870000000004" lon="-2.2929000000000004">
        <time>2021-06-19T15:38:50+0000</time>
      </trkpt>
      <trkpt lat="40.892030000000005" lon="-2.29292">
        <time>2021-06-19T15:38:51+0000</time>
      </trkpt>
      <trkpt lat="40.89219000000001" lon="-2.29294">
        <time>2021-06-19T15:38:52+0000</time>
      </trkpt>
      <trkpt lat="40.89235" lon="-2.2929600000000003">
        <time>2021-06-19T15:38:53+0000</time>
      </trkpt>
      <trkpt lat="40.892520000000005" lon="-2.2929700000000004">
        <time>2021-06-19T15:38:54+0000</time>
      </trkpt>
      <trkpt lat="40.89271" lon="-2.29298">
        <time>2021-06-19T15:38:55+0000</time>
      </trkpt>
      <trkpt lat="40.892900000000004" lon="-2.29298">
        <time>2021-06-19T15:38:56+0000</time>
      </trkpt>
      <trkpt lat="40.89312" lon="-2.29299">
        <time>2021-06-19T15:38:57+0000</time>
      </trkpt>
      <trkpt lat="40.89334" lon="-2.293">
        <time>2021-06-19T15:38:58+0000</time>
      </trkpt>
      <trkpt lat="40.89358" lon="-2.293">
        <time>2021-06-19T15:38:59+0000</time>
      </trkpt>
      <trkpt lat="40.89383" lon="-2.29301">
        <time>2021-06-19T15:39:00+0000</time>
      </trkpt>
      <trkpt lat="40.89408" lon="-2.2930200000000003">
        <time>2021-06-19T15:39:01+0000</time>
      </trkpt>
      <trkpt lat="40.89434000000001" lon="-2.2930300000000003">
        <time>2021-06-19T15:39:02+0000</time>
      </trkpt>
      <trkpt lat="40.894600000000004" lon="-2.29304">
        <time>2021-06-19T15:39:03+0000</time>
      </trkpt>
      <trkpt lat="40.894850000000005" lon="-2.29305">
        <time>2021-06-19T15:39:04+0000</time>
      </trkpt>
      <trkpt lat="40.89509" lon="-2.29306">
        <time>2021-06-19T15:39:05+0000</time>
      </trkpt>
      <trkpt lat="40.895340000000004" lon="-2.29306">
        <time>2021-06-19T15:39:06+0000</time>
      </trkpt>
      <trkpt lat="40.89558" lon="-2.29307">
        <time>2021-06-19T15:39:07+0000</time>
      </trkpt>
      <trkpt lat="40.895830000000004" lon="-2.2930800000000002">
        <time>2021-06-19T15:39:08+0000</time>
      </trkpt>
      <trkpt lat="40.896080000000005" lon="-2.2930900000000003">
        <time>2021-06-19T15:39:09+0000</time>
      </trkpt>
      <trkpt lat="40.896330000000006" lon="-2.2931000000000004">
        <time>2021-06-19T15:39:10+0000</time>
      </trkpt>
      <trkpt lat="40.89658" lon="-2.29311">
        <time>2021-06-19T15:39:11+0000</time>
      </trkpt>
      <trkpt lat="40.89683" lon="-2.29311">
        <time>2021-06-19T15:39:12+0000</time>
      </trkpt>
      <trkpt lat="40.897090000000006" lon="-2.29312">
        <time>2021-06-19T15:39:13+0000</time>
      </trkpt>
      <trkpt lat="40.89734" lon="-2.29313">
        <time>2021-06-19T15:39:14+0000</time>
      </trkpt>
      <trkpt lat="40.89759" lon="-2.29314">
        <time>2021-06-19T15:39:15+0000</time>
      </trkpt>
      <trkpt lat="40.897830000000006" lon="-2.2931500000000002">
        <time>2021-06-19T15:39:16+0000</time>
      </trkpt>
      <trkpt lat="40.898070000000004" lon="-2.2931600000000003">
        <time>2021-06-19T15:39:17+0000</time>
      </trkpt>
      <trkpt lat="40.89829" lon="-2.2931600000000003">
        <time>2021-06-19T15:39:18+0000</time>
      </trkpt>
      <trkpt lat="40.898500000000006" lon="-2.2931700000000004">
        <time>2021-06-19T15:39:19+0000</time>
      </trkpt>
      <trkpt lat="40.89871" lon="-2.2931700000000004">
        <time>2021-06-19T15:39:20+0000</time>
      </trkpt>
      <trkpt lat="40.89893" lon="-2.29319">
        <time>2021-06-19T15:39:21+0000</time>
      </trkpt>
      <trkpt lat="40.89916" lon="-2.2932200000000003">
        <time>2021-06-19T15:39:22+0000</time>
      </trkpt>
      <trkpt lat="40.899390000000004" lon="-2.29327">
        <time>2021-06-19T15:39:23+0000</time>
      </trkpt>
      <trkpt lat="40.899620000000006" lon="-2.29335">
        <time>2021-06-19T15:39:24+0000</time>
      </trkpt>
      <trkpt lat="40.899860000000004" lon="-2.2934300000000003">
        <time>2021-06-19T15:39:25+0000</time>
      </trkpt>
      <trkpt lat="40.90008" lon="-2.2935100000000004">
        <time>2021-06-19T15:39:26+0000</time>
      </trkpt>
      <trkpt lat="40.9003" lon="-2.29359">
        <time>2021-06-19T15:39:27+0000</time>
      </trkpt>
      <trkpt lat="40.90052" lon="-2.29367">
        <time>2021-06-19T15:39:28+0000</time>
      </trkpt>
      <trkpt lat="40.90073" lon="-2.29379">
        <time>2021-06-19T15:39:29+0000</time>
      </trkpt>
      <trkpt lat="40.900940000000006" lon="-2.29394">
        <time>2021-06-19T15:39:30+0000</time>
      </trkpt>
      <trkpt lat="40.901140000000005" lon="-2.2941100000000003">
        <time>2021-06-19T15:39:31+0000</time>
      </trkpt>
      <trkpt lat="40.901320000000005" lon="-2.2943000000000002">
        <time>2021-06-19T15:39:32+0000</time>
      </trkpt>
      <trkpt lat="40.90151" lon="-2.29449">
        <time>2021-06-19T15:39:33+0000</time>
      </trkpt>
      <trkpt lat="40.90169" lon="-2.29467">
        <time>2021-06-19T15:39:34+0000</time>
      </trkpt>
      <trkpt lat="40.90189" lon="-2.2948500000000003">
        <time>2021-06-19T15:39:35+0000</time>
      </trkpt>
      <trkpt lat="40.90209" lon="-2.29502">
        <time>2021-06-19T15:39:36+0000</time>
      </trkpt>
      <trkpt lat="40.902300000000004" lon="-2.29516">
        <time>2021-06-19T15:39:37+0000</time>
      </trkpt>
      <trkpt lat="40.9025" lon="-2.2952700000000004">
        <time>2021-06-19T15:39:38+0000</time>
      </trkpt>
      <trkpt lat="40.9027" lon="-2.29538">
        <time>2021-06-19T15:39:39+0000</time>
      </trkpt>
      <trkpt lat="40.9029" lon="-2.2955">
        <time>2021-06-19T15:39:40+0000</time>
      </trkpt>
      <trkpt lat="40.9031" lon="-2.2956600000000003">
        <time>2021-06-19T15:39:41+0000</time>
      </trkpt>
      <trkpt lat="40.90328" lon="-2.2958600000000002">
        <time>2021-06-19T15:39:42+0000</time>
      </trkpt>
      <trkpt lat="40.90345000000001" lon="-2.29606">
        <time>2021-06-19T15:39:43+0000</time>
      </trkpt>
      <trkpt lat="40.90361" lon="-2.29625">
        <time>2021-06-19T15:39:44+0000</time>
      </trkpt>
      <trkpt lat="40.90377" lon="-2.29645">
        <time>2021-06-19T15:39:45+0000</time>
      </trkpt>
      <trkpt lat="40.90392000000001" lon="-2.2966800000000003">
        <time>2021-06-19T15:39:46+0000</time>
      </trkpt>
      <trkpt lat="40.90406" lon="-2.29694">
        <time>2021-06-19T15:39:47+0000</time>
      </trkpt>
      <trkpt lat="40.9042" lon="-2.29721">
        <time>2021-06-19T15:39:48+0000</time>
      </trkpt>
      <trkpt lat="40.904340000000005" lon="-2.2974900000000003">
        <time>2021-06-19T15:39:49+0000</time>
      </trkpt>
      <trkpt lat="40.90448000000001" lon="-2.2977700000000003">
        <time>2021-06-19T15:39:50+0000</time>
      </trkpt>
      <trkpt lat="40.904630000000004" lon="-2.2980500000000004">
        <time>2021-06-19T15:39:51+0000</time>
      </trkpt>
      <trkpt lat="40.904770000000006" lon="-2.29833">
        <time>2021-06-19T15:39:52+0000</time>
      </trkpt>
      <trkpt lat="40.90491" lon="-2.29861">
        <time>2021-06-19T15:39:53+0000</time>
      </trkpt>
      <trkpt lat="40.90505" lon="-2.2989">
        <time>2021-06-19T15:39:54+0000</time>
      </trkpt>
      <trkpt lat="40.9052" lon="-2.2991900000000003">
        <time>2021-06-19T15:39:55+0000</time>
      </trkpt>
      <trkpt lat="40.90534" lon="-2.2994700000000003">
        <time>2021-06-19T15:39:56+0000</time>
      </trkpt>
      <trkpt lat="40.905480000000004" lon="-2.2997500000000004">
        <time>2021-06-19T15:39:57+0000</time>
      </trkpt>
      <trkpt lat="40.905620000000006" lon="-2.3000200000000004">
        <time>2021-06-19T15:39:58+0000</time>
      </trkpt>
      <trkpt lat="40.90576" lon="-2.3002800000000003">
        <time>2021-06-19T15:39:59+0000</time>
      </trkpt>
      <trkpt lat="40.905910000000006" lon="-2.30052">
        <time>2021-06-19T15:40:00+0000</time>
      </trkpt>
      <trkpt lat="40.90605" lon="-2.3007500000000003">
        <time>2021-06-19T15:40:01+0000</time>
      </trkpt>
      <trkpt lat="40.90619" lon="-2.3009600000000003">
        <time>2021-06-19T15:40:02+0000</time>
      </trkpt>
      <trkpt lat="40.906330000000004" lon="-2.3011500000000003">
        <time>2021-06-19T15:40:03+0000</time>
      </trkpt>
      <trkpt lat="40.906470000000006" lon="-2.30133">
        <time>2021-06-19T15:40:04+0000</time>
      </trkpt>
      <trkpt lat="40.90661" lon="-2.30152">
        <time>2021-06-19T15:40:05+0000</time>
      </trkpt>
      <trkpt lat="40.90675" lon="-2.3017100000000004">
        <time>2021-06-19T15:40:06+0000</time>
      </trkpt>
      <trkpt lat="40.90688" lon="-2.3019000000000003">
        <time>2021-06-19T15:40:07+0000</time>
      </trkpt>
      <trkpt lat="40.90702" lon="-2.30208">
        <time>2021-06-19T15:40:08+0000</time>
      </trkpt>
      <trkpt lat="40.907140000000005" lon="-2.3022500000000004">
        <time>2021-06-19T15:40:09+0000</time>
      </trkpt>
      <trkpt lat="40.90728" lon="-2.30242">
        <time>2021-06-19T15:40:10+0000</time>
      </trkpt>
      <trkpt lat="40.907410000000006" lon="-2.3025900000000004">
        <time>2021-06-19T15:40:11+0000</time>
      </trkpt>
      <trkpt lat="40.90753" lon="-2.30275">
        <time>2021-06-19T15:40:12+0000</time>
      </trkpt>
      <trkpt lat="40.907650000000004" lon="-2.3029200000000003">
        <time>2021-06-19T15:40:13+0000</time>
      </trkpt>
      <trkpt lat="40.90776" lon="-2.3030700000000004">
        <time>2021-06-19T15:40:14+0000</time>
      </trkpt>
      <trkpt lat="40.907880000000006" lon="-2.30323">
        <time>2021-06-19T15:40:15+0000</time>
      </trkpt>
      <trkpt lat="40.907990000000005" lon="-2.3033900000000003">
        <time>2021-06-19T15:40:16+0000</time>
      </trkpt>
      <trkpt lat="40.90809" lon="-2.3035400000000004">
        <time>2021-06-19T15:40:17+0000</time>
      </trkpt>
      <trkpt lat="40.908190000000005" lon="-2.3037">
        <time>2021-06-19T15:40:18+0000</time>
      </trkpt>
      <trkpt lat="40.90827" lon="-2.30389">
        <time>2021-06-19T15:40:19+0000</time>
      </trkpt>
      <trkpt lat="40.90834" lon="-2.30409">
        <time>2021-06-19T15:40:20+0000</time>
      </trkpt>
      <trkpt lat="40.9084" lon="-2.30432">
        <time>2021-06-19T15:40:21+0000</time>
      </trkpt>
      <trkpt lat="40.90845" lon="-2.3045500000000003">
        <time>2021-06-19T15:40:22+0000</time>
      </trkpt>
      <trkpt lat="40.90851000000001" lon="-2.3048">
        <time>2021-06-19T15:40:23+0000</time>
      </trkpt>
      <trkpt lat="40.908570000000005" lon="-2.30505">
        <time>2021-06-19T15:40:24+0000</time>
      </trkpt>
      <trkpt lat="40.908660000000005" lon="-2.30532">
        <time>2021-06-19T15:40:25+0000</time>
      </trkpt>
      <trkpt lat="40.908750000000005" lon="-2.3056">
        <time>2021-06-19T15:40:26+0000</time>
      </trkpt>
      <trkpt lat="40.90885" lon="-2.30588">
        <time>2021-06-19T15:40:27+0000</time>
      </trkpt>
      <trkpt lat="40.90896" lon="-2.3061700000000003">
        <time>2021-06-19T15:40:28+0000</time>
      </trkpt>
      <trkpt lat="40.90907" lon="-2.30648">
        <time>2021-06-19T15:40:29+0000</time>
      </trkpt>
      <trkpt lat="40.909180000000006" lon="-2.3068000000000004">
        <time>2021-06-19T15:40:30+0000</time>
      </trkpt>
      <trkpt lat="40.9093" lon="-2.3071200000000003">
        <time>2021-06-19T15:40:31+0000</time>
      </trkpt>
      <trkpt lat="40.90941" lon="-2.3074500000000002">
        <time>2021-06-19T15:40:32+0000</time>
      </trkpt>
      <trkpt lat="40.90952" lon="-2.30776">
        <time>2021-06-19T15:40:33+0000</time>
      </trkpt>
      <trkpt lat="40.90964" lon="-2.3080700000000003">
        <time>2021-06-19T15:40:34+0000</time>
      </trkpt>
      <trkpt lat="40.909740000000006" lon="-2.30837">
        <time>2021-06-19T15:40:35+0000</time>
      </trkpt>
      <trkpt lat="40.90984" lon="-2.30866">
        <time>2021-06-19T15:40:36+0000</time>
      </trkpt>
      <trkpt lat="40.909940000000006" lon="-2.30893">
        <time>2021-06-19T15:40:37+0000</time>
      </trkpt>
      <trkpt lat="40.91004" lon="-2.30921">
        <time>2021-06-19T15:40:38+0000</time>
      </trkpt>
      <trkpt lat="40.91013" lon="-2.30947">
        <time>2021-06-19T15:40:39+0000</time>
      </trkpt>
      <trkpt lat="40.910230000000006" lon="-2.30973">
        <time>2021-06-19T15:40:40+0000</time>
      </trkpt>
      <trkpt lat="40.91033" lon="-2.3099800000000004">
        <time>2021-06-19T15:40:41+0000</time>
      </trkpt>
      <trkpt lat="40.91042" lon="-2.3102400000000003">
        <time>2021-06-19T15:40:42+0000</time>
      </trkpt>
      <trkpt lat="40.91051" lon="-2.3105">
        <time>2021-06-19T15:40:43+0000</time>
      </trkpt>
      <trkpt lat="40.9106" lon="-2.31076">
        <time>2021-06-19T15:40:44+0000</time>
      </trkpt>
      <trkpt lat="40.910700000000006" lon="-2.31103">
        <time>2021-06-19T15:40:45+0000</time>
      </trkpt>
      <trkpt lat="40.9108" lon="-2.31131">
        <time>2021-06-19T15:40:46+0000</time>
      </trkpt>
      <trkpt lat="40.91091" lon="-2.31158">
        <time>2021-06-19T15:40:47+0000</time>
      </trkpt>
      <trkpt lat="40.91104" lon="-2.31184">
        <time>2021-06-19T15:40:48+0000</time>
      </trkpt>
      <trkpt lat="40.911190000000005" lon="-2.31209">
        <time>2021-06-19T15:40:49+0000</time>
      </trkpt>
      <trkpt lat="40.911370000000005" lon="-2.31232">
        <time>2021-06-19T15:40:50+0000</time>
      </trkpt>
      <trkpt lat="40.91156" lon="-2.31252">
        <time>2021-06-19T15:40:51+0000</time>
      </trkpt>
      <trkpt lat="40.911750000000005" lon="-2.3126900000000004">
        <time>2021-06-19T15:40:52+0000</time>
      </trkpt>
      <trkpt lat="40.911930000000005" lon="-2.31284">
        <time>2021-06-19T15:40:53+0000</time>
      </trkpt>
      <trkpt lat="40.9121" lon="-2.3129500000000003">
        <time>2021-06-19T15:40:54+0000</time>
      </trkpt>
      <trkpt lat="40.91225" lon="-2.31306">
        <time>2021-06-19T15:40:55+0000</time>
      </trkpt>
      <trkpt lat="40.91239" lon="-2.3131700000000004">
        <time>2021-06-19T15:40:56+0000</time>
      </trkpt>
      <trkpt lat="40.91252" lon="-2.31327">
        <time>2021-06-19T15:40:57+0000</time>
      </trkpt>
      <trkpt lat="40.912650000000006" lon="-2.3133600000000003">
        <time>2021-06-19T15:40:58+0000</time>
      </trkpt>
      <trkpt lat="40.912760000000006" lon="-2.31345">
        <time>2021-06-19T15:40:59+0000</time>
      </trkpt>
      <trkpt lat="40.912870000000005" lon="-2.3135100000000004">
        <time>2021-06-19T15:41:00+0000</time>
      </trkpt>
      <trkpt lat="40.91295" lon="-2.31355">
        <time>2021-06-19T15:41:01+0000</time>
      </trkpt>
      <trkpt lat="40.91302" lon="-2.31359">
        <time>2021-06-19T15:41:02+0000</time>
      </trkpt>
      <trkpt lat="40.913070000000005" lon="-2.3136300000000003">
        <time>2021-06-19T15:41:03+0000</time>
      </trkpt>
      <trkpt lat="40.91311" lon="-2.31368">
        <time>2021-06-19T15:41:04+0000</time>
      </trkpt>
      <trkpt lat="40.913120000000006" lon="-2.31374">
        <time>2021-06-19T15:41:05+0000</time>
      </trkpt>
      <trkpt lat="40.91311" lon="-2.31382">
        <time>2021-06-19T15:41:06+0000</time>
      </trkpt>
      <trkpt lat="40.913070000000005" lon="-2.3139100000000004">
        <time>2021-06-19T15:41:07+0000</time>
      </trkpt>
      <trkpt lat="40.913000000000004" lon="-2.31401">
        <time>2021-06-19T15:41:08+0000</time>
      </trkpt>
      <trkpt lat="40.91292000000001" lon="-2.31413">
        <time>2021-06-19T15:41:09+0000</time>
      </trkpt>
      <trkpt lat="40.91283000000001" lon="-2.31429">
        <time>2021-06-19T15:41:10+0000</time>
      </trkpt>
      <trkpt lat="40.91273" lon="-2.31448">
        <time>2021-06-19T15:41:11+0000</time>
      </trkpt>
      <trkpt lat="40.91261" lon="-2.31467">
        <time>2021-06-19T15:41:12+0000</time>
      </trkpt>
      <trkpt lat="40.912490000000005" lon="-2.31487">
        <time>2021-06-19T15:41:13+0000</time>
      </trkpt>
      <trkpt lat="40.91236000000001" lon="-2.3150700000000004">
        <time>2021-06-19T15:41:14+0000</time>
      </trkpt>
      <trkpt lat="40.912240000000004" lon="-2.3152700000000004">
        <time>2021-06-19T15:41:15+0000</time>
      </trkpt>
      <trkpt lat="40.912110000000006" lon="-2.3154700000000004">
        <time>2021-06-19T15:41:16+0000</time>
      </trkpt>
      <trkpt lat="40.91199" lon="-2.31569">
        <time>2021-06-19T15:41:17+0000</time>
      </trkpt>
      <trkpt lat="40.911840000000005" lon="-2.31591">
        <time>2021-06-19T15:41:18+0000</time>
      </trkpt>
      <trkpt lat="40.9117" lon="-2.3161500000000004">
        <time>2021-06-19T15:41:19+0000</time>
      </trkpt>
      <trkpt lat="40.911550000000005" lon="-2.31638">
        <time>2021-06-19T15:41:20+0000</time>
      </trkpt>
      <trkpt lat="40.911410000000004" lon="-2.3166200000000003">
        <time>2021-06-19T15:41:21+0000</time>
      </trkpt>
      <trkpt lat="40.911260000000006" lon="-2.31684">
        <time>2021-06-19T15:41:22+0000</time>
      </trkpt>
      <trkpt lat="40.91113" lon="-2.31705">
        <time>2021-06-19T15:41:23+0000</time>
      </trkpt>
      <trkpt lat="40.911" lon="-2.31725">
        <time>2021-06-19T15:41:24+0000</time>
      </trkpt>
      <trkpt lat="40.91089" lon="-2.3174300000000003">
        <time>2021-06-19T15:41:25+0000</time>
      </trkpt>
      <trkpt lat="40.910790000000006" lon="-2.3176">
        <time>2021-06-19T15:41:26+0000</time>
      </trkpt>
      <trkpt lat="40.91071" lon="-2.31779">
        <time>2021-06-19T15:41:27+0000</time>
      </trkpt>
      <trkpt lat="40.91066" lon="-2.31801">
        <time>2021-06-19T15:41:28+0000</time>
      </trkpt>
      <trkpt lat="40.91064" lon="-2.3182300000000002">
        <time>2021-06-19T15:41:29+0000</time>
      </trkpt>
      <trkpt lat="40.910610000000005" lon="-2.3184500000000003">
        <time>2021-06-19T15:41:30+0000</time>
      </trkpt>
      <trkpt lat="40.91057" lon="-2.3186500000000003">
        <time>2021-06-19T15:41:31+0000</time>
      </trkpt>
      <trkpt lat="40.91048000000001" lon="-2.3188400000000002">
        <time>2021-06-19T15:41:32+0000</time>
      </trkpt>
      <trkpt lat="40.91035" lon="-2.3190000000000004">
        <time>2021-06-19T15:41:33+0000</time>
      </trkpt>
      <trkpt lat="40.91022" lon="-2.3191300000000004">
        <time>2021-06-19T15:41:34+0000</time>
      </trkpt>
      <trkpt lat="40.910090000000004" lon="-2.3192500000000003">
        <time>2021-06-19T15:41:35+0000</time>
      </trkpt>
      <trkpt lat="40.90999" lon="-2.31938">
        <time>2021-06-19T15:41:36+0000</time>
      </trkpt>
      <trkpt lat="40.90992000000001" lon="-2.31955">
        <time>2021-06-19T15:41:37+0000</time>
      </trkpt>
      <trkpt lat="40.909890000000004" lon="-2.31975">
        <time>2021-06-19T15:41:38+0000</time>
      </trkpt>
      <trkpt lat="40.90988" lon="-2.31997">
        <time>2021-06-19T15:41:39+0000</time>
      </trkpt>
      <trkpt lat="40.90988" lon="-2.32017">
        <time>2021-06-19T15:41:40+0000</time>
      </trkpt>
      <trkpt lat="40.909850000000006" lon="-2.32037">
        <time>2021-06-19T15:41:41+0000</time>
      </trkpt>
      <trkpt lat="40.90979" lon="-2.32058">
        <time>2021-06-19T15:41:42+0000</time>
      </trkpt>
      <trkpt lat="40.909710000000004" lon="-2.32077">
        <time>2021-06-19T15:41:43+0000</time>
      </trkpt>
      <trkpt lat="40.90961" lon="-2.3209500000000003">
        <time>2021-06-19T15:41:44+0000</time>
      </trkpt>
      <trkpt lat="40.9095" lon="-2.32111">
        <time>2021-06-19T15:41:45+0000</time>
      </trkpt>
      <trkpt lat="40.909380000000006" lon="-2.3212300000000003">
        <time>2021-06-19T15:41:46+0000</time>
      </trkpt>
      <trkpt lat="40.90925" lon="-2.32133">
        <time>2021-06-19T15:41:47+0000</time>
      </trkpt>
      <trkpt lat="40.909130000000005" lon="-2.3214200000000003">
        <time>2021-06-19T15:41:48+0000</time>
      </trkpt>
      <trkpt lat="40.909020000000005" lon="-2.3214900000000003">
        <time>2021-06-19T15:41:49+0000</time>
      </trkpt>
      <trkpt lat="40.908930000000005" lon="-2.3215700000000004">
        <time>2021-06-19T15:41:50+0000</time>
      </trkpt>
      <trkpt lat="40.90883" lon="-2.3216300000000003">
        <time>2021-06-19T15:41:51+0000</time>
      </trkpt>
      <trkpt lat="40.908730000000006" lon="-2.32168">
        <time>2021-06-19T15:41:52+0000</time>
      </trkpt>
      <trkpt lat="40.908640000000005" lon="-2.32173">
        <time>2021-06-19T15:41:53+0000</time>
      </trkpt>
      <trkpt lat="40.908550000000005" lon="-2.3217800000000004">
        <time>2021-06-19T15:41:54+0000</time>
      </trkpt>
      <trkpt lat="40.908460000000005" lon="-2.32185">
        <time>2021-06-19T15:41:55+0000</time>
      </trkpt>
      <trkpt lat="40.908370000000005" lon="-2.3219100000000004">
        <time>2021-06-19T15:41:56+0000</time>
      </trkpt>
      <trkpt lat="40.90829" lon="-2.32199">
        <time>2021-06-19T15:41:57+0000</time>
      </trkpt>
      <trkpt lat="40.90822" lon="-2.32206">
        <time>2021-06-19T15:41:58+0000</time>
      </trkpt>
      <trkpt lat="40.908150000000006" lon="-2.3221200000000004">
        <time>2021-06-19T15:41:59+0000</time>
      </trkpt>
      <trkpt lat="40.908080000000005" lon="-2.3221800000000004">
        <time>2021-06-19T15:42:00+0000</time>
      </trkpt>
      <trkpt lat="40.90802" lon="-2.3222300000000002">
        <time>2021-06-19T15:42:01+0000</time>
      </trkpt>
      <trkpt lat="40.90796" lon="-2.32229">
        <time>2021-06-19T15:42:02+0000</time>
      </trkpt>
      <trkpt lat="40.90789" lon="-2.32235">
        <time>2021-06-19T15:42:03+0000</time>
      </trkpt>
      <trkpt lat="40.90782" lon="-2.32242">
        <time>2021-06-19T15:42:04+0000</time>
      </trkpt>
      <trkpt lat="40.90773" lon="-2.32246">
        <time>2021-06-19T15:42:05+0000</time>
      </trkpt>
      <trkpt lat="40.90764" lon="-2.3225100000000003">
        <time>2021-06-19T15:42:06+0000</time>
      </trkpt>
      <trkpt lat="40.907560000000004" lon="-2.32256">
        <time>2021-06-19T15:42:07+0000</time>
      </trkpt>
      <trkpt lat="40.90748000000001" lon="-2.32262">
        <time>2021-06-19T15:42:08+0000</time>
      </trkpt>
      <trkpt lat="40.907410000000006" lon="-2.3227">
        <time>2021-06-19T15:42:09+0000</time>
      </trkpt>
      <trkpt lat="40.90735" lon="-2.3227900000000004">
        <time>2021-06-19T15:42:10+0000</time>
      </trkpt>
      <trkpt lat="40.907300000000006" lon="-2.32287">
        <time>2021-06-19T15:42:11+0000</time>
      </trkpt>
      <trkpt lat="40.907250000000005" lon="-2.32294">
        <time>2021-06-19T15:42:12+0000</time>
      </trkpt>
      <trkpt lat="40.907210000000006" lon="-2.3230000000000004">
        <time>2021-06-19T15:42:13+0000</time>
      </trkpt>
      <trkpt lat="40.90717" lon="-2.3230600000000003">
        <time>2021-06-19T15:42:14+0000</time>
      </trkpt>
      <trkpt lat="40.907120000000006" lon="-2.3231300000000004">
        <time>2021-06-19T15:42:15+0000</time>
      </trkpt>
      <trkpt lat="40.907050000000005" lon="-2.32321">
        <time>2021-06-19T15:42:16+0000</time>
      </trkpt>
      <trkpt lat="40.90697" lon="-2.32328">
        <time>2021-06-19T15:42:17+0000</time>
      </trkpt>
      <trkpt lat="40.906870000000005" lon="-2.3233400000000004">
        <time>2021-06-19T15:42:18+0000</time>
      </trkpt>
      <trkpt lat="40.906780000000005" lon="-2.3233900000000003">
        <time>2021-06-19T15:42:19+0000</time>
      </trkpt>
      <trkpt lat="40.9067" lon="-2.32344">
        <time>2021-06-19T15:42:20+0000</time>
      </trkpt>
      <trkpt lat="40.90661" lon="-2.32349">
        <time>2021-06-19T15:42:21+0000</time>
      </trkpt>
      <trkpt lat="40.906510000000004" lon="-2.32355">
        <time>2021-06-19T15:42:22+0000</time>
      </trkpt>
      <trkpt lat="40.90641" lon="-2.3236100000000004">
        <time>2021-06-19T15:42:23+0000</time>
      </trkpt>
      <trkpt lat="40.90632" lon="-2.3236800000000004">
        <time>2021-06-19T15:42:24+0000</time>
      </trkpt>
      <trkpt lat="40.906240000000004" lon="-2.32375">
        <time>2021-06-19T15:42:25+0000</time>
      </trkpt>
      <trkpt lat="40.90617" lon="-2.32382">
        <time>2021-06-19T15:42:26+0000</time>
      </trkpt>
      <trkpt lat="40.906110000000005" lon="-2.3238800000000004">
        <time>2021-06-19T15:42:27+0000</time>
      </trkpt>
      <trkpt lat="40.90605" lon="-2.3239300000000003">
        <time>2021-06-19T15:42:28+0000</time>
      </trkpt>
      <trkpt lat="40.906000000000006" lon="-2.32398">
        <time>2021-06-19T15:42:29+0000</time>
      </trkpt>
      <trkpt lat="40.90594" lon="-2.32404">
        <time>2021-06-19T15:42:30+0000</time>
      </trkpt>
      <trkpt lat="40.90588" lon="-2.3241">
        <time>2021-06-19T15:42:31+0000</time>
      </trkpt>
      <trkpt lat="40.90581" lon="-2.32417">
        <time>2021-06-19T15:42:32+0000</time>
      </trkpt>
      <trkpt lat="40.905730000000005" lon="-2.32423">
        <time>2021-06-19T15:42:33+0000</time>
      </trkpt>
      <trkpt lat="40.90565" lon="-2.32432">
        <time>2021-06-19T15:42:34+0000</time>
      </trkpt>
      <trkpt lat="40.905570000000004" lon="-2.32439">
        <time>2021-06-19T15:42:35+0000</time>
      </trkpt>
      <trkpt lat="40.90549" lon="-2.32445">
        <time>2021-06-19T15:42:36+0000</time>
      </trkpt>
      <trkpt lat="40.90542000000001" lon="-2.32452">
        <time>2021-06-19T15:42:37+0000</time>
      </trkpt>
      <trkpt lat="40.90536" lon="-2.32458">
        <time>2021-06-19T15:42:38+0000</time>
      </trkpt>
      <trkpt lat="40.905280000000005" lon="-2.32463">
        <time>2021-06-19T15:42:39+0000</time>
      </trkpt>
      <trkpt lat="40.90522" lon="-2.3246900000000004">
        <time>2021-06-19T15:42:40+0000</time>
      </trkpt>
      <trkpt lat="40.90516" lon="-2.3247400000000003">
        <time>2021-06-19T15:42:41+0000</time>
      </trkpt>
      <trkpt lat="40.90511" lon="-2.3248200000000003">
        <time>2021-06-19T15:42:42+0000</time>
      </trkpt>
      <trkpt lat="40.90505" lon="-2.3248900000000003">
        <time>2021-06-19T15:42:43+0000</time>
      </trkpt>
      <trkpt lat="40.90498" lon="-2.32497">
        <time>2021-06-19T15:42:44+0000</time>
      </trkpt>
      <trkpt lat="40.90489" lon="-2.32505">
        <time>2021-06-19T15:42:45+0000</time>
      </trkpt>
      <trkpt lat="40.904830000000004" lon="-2.3251500000000003">
        <time>2021-06-19T15:42:46+0000</time>
      </trkpt>
      <trkpt lat="40.904770000000006" lon="-2.32525">
        <time>2021-06-19T15:42:47+0000</time>
      </trkpt>
      <trkpt lat="40.904720000000005" lon="-2.32534">
        <time>2021-06-19T15:42:48+0000</time>
      </trkpt>
      <trkpt lat="40.90467" lon="-2.3254200000000003">
        <time>2021-06-19T15:42:49+0000</time>
      </trkpt>
      <trkpt lat="40.90464" lon="-2.3255100000000004">
        <time>2021-06-19T15:42:50+0000</time>
      </trkpt>
      <trkpt lat="40.9046" lon="-2.32561">
        <time>2021-06-19T15:42:51+0000</time>
      </trkpt>
      <trkpt lat="40.904560000000004" lon="-2.32573">
        <time>2021-06-19T15:42:52+0000</time>
      </trkpt>
      <trkpt lat="40.90451" lon="-2.32587">
        <time>2021-06-19T15:42:53+0000</time>
      </trkpt>
      <trkpt lat="40.90446" lon="-2.32602">
        <time>2021-06-19T15:42:54+0000</time>
      </trkpt>
      <trkpt lat="40.90442" lon="-2.32615">
        <time>2021-06-19T15:42:55+0000</time>
      </trkpt>
      <trkpt lat="40.90437" lon="-2.32629">
        <time>2021-06-19T15:42:56+0000</time>
      </trkpt>
      <trkpt lat="40.904320000000006" lon="-2.32643">
        <time>2021-06-19T15:42:57+0000</time>
      </trkpt>
      <trkpt lat="40.904250000000005" lon="-2.3265700000000002">
        <time>2021-06-19T15:42:58+0000</time>
      </trkpt>
      <trkpt lat="40.90415" lon="-2.3267">
        <time>2021-06-19T15:42:59+0000</time>
      </trkpt>
      <trkpt lat="40.904030000000006" lon="-2.32681">
        <time>2021-06-19T15:43:00+0000</time>
      </trkpt>
      <trkpt lat="40.903890000000004" lon="-2.3269">
        <time>2021-06-19T15:43:01+0000</time>
      </trkpt>
      <trkpt lat="40.90377" lon="-2.3269900000000003">
        <time>2021-06-19T15:43:02+0000</time>
      </trkpt>
      <trkpt lat="40.903670000000005" lon="-2.3271">
        <time>2021-06-19T15:43:03+0000</time>
      </trkpt>
      <trkpt lat="40.903580000000005" lon="-2.32724">
        <time>2021-06-19T15:43:04+0000</time>
      </trkpt>
      <trkpt lat="40.903510000000004" lon="-2.3274000000000004">
        <time>2021-06-19T15:43:05+0000</time>
      </trkpt>
      <trkpt lat="40.90344" lon="-2.3275200000000003">
        <time>2021-06-19T15:43:06+0000</time>
      </trkpt>
      <trkpt lat="40.903360000000006" lon="-2.32763">
        <time>2021-06-19T15:43:07+0000</time>
      </trkpt>
      <trkpt lat="40.90328" lon="-2.3277300000000003">
        <time>2021-06-19T15:43:08+0000</time>
      </trkpt>
      <trkpt lat="40.903200000000005" lon="-2.32785">
        <time>2021-06-19T15:43:09+0000</time>
      </trkpt>
      <trkpt lat="40.9031" lon="-2.32797">
        <time>2021-06-19T15:43:10+0000</time>
      </trkpt>
      <trkpt lat="40.903000000000006" lon="-2.32811">
        <time>2021-06-19T15:43:11+0000</time>
      </trkpt>
      <trkpt lat="40.902890000000006" lon="-2.32825">
        <time>2021-06-19T15:43:12+0000</time>
      </trkpt>
      <trkpt lat="40.90279" lon="-2.32837">
        <time>2021-06-19T15:43:13+0000</time>
      </trkpt>
      <trkpt lat="40.902710000000006" lon="-2.3284800000000003">
        <time>2021-06-19T15:43:14+0000</time>
      </trkpt>
      <trkpt lat="40.90261" lon="-2.32863">
        <time>2021-06-19T15:43:15+0000</time>
      </trkpt>
      <trkpt lat="40.902530000000006" lon="-2.3288100000000003">
        <time>2021-06-19T15:43:16+0000</time>
      </trkpt>
      <trkpt lat="40.90247" lon="-2.329">
        <time>2021-06-19T15:43:17+0000</time>
      </trkpt>
      <trkpt lat="40.90243" lon="-2.32919">
        <time>2021-06-19T15:43:18+0000</time>
      </trkpt>
      <trkpt lat="40.90241" lon="-2.3293700000000004">
        <time>2021-06-19T15:43:19+0000</time>
      </trkpt>
      <trkpt lat="40.902420000000006" lon="-2.32958">
        <time>2021-06-19T15:43:20+0000</time>
      </trkpt>
      <trkpt lat="40.902440000000006" lon="-2.3298">
        <time>2021-06-19T15:43:21+0000</time>
      </trkpt>
      <trkpt lat="40.90247" lon="-2.3300300000000003">
        <time>2021-06-19T15:43:22+0000</time>
      </trkpt>
      <trkpt lat="40.902480000000004" lon="-2.33028">
        <time>2021-06-19T15:43:23+0000</time>
      </trkpt>
      <trkpt lat="40.90247" lon="-2.33054">
        <time>2021-06-19T15:43:24+0000</time>
      </trkpt>
      <trkpt lat="40.90245" lon="-2.3308">
        <time>2021-06-19T15:43:25+0000</time>
      </trkpt>
      <trkpt lat="40.902390000000004" lon="-2.33107">
        <time>2021-06-19T15:43:26+0000</time>
      </trkpt>
      <trkpt lat="40.90231" lon="-2.3313300000000003">
        <time>2021-06-19T15:43:27+0000</time>
      </trkpt>
      <trkpt lat="40.902210000000004" lon="-2.3316100000000004">
        <time>2021-06-19T15:43:28+0000</time>
      </trkpt>
      <trkpt lat="40.902120000000004" lon="-2.3318700000000003">
        <time>2021-06-19T15:43:29+0000</time>
      </trkpt>
      <trkpt lat="40.90202" lon="-2.3321500000000004">
        <time>2021-06-19T15:43:30+0000</time>
      </trkpt>
      <trkpt lat="40.90193" lon="-2.33244">
        <time>2021-06-19T15:43:31+0000</time>
      </trkpt>
      <trkpt lat="40.90182" lon="-2.33273">
        <time>2021-06-19T15:43:32+0000</time>
      </trkpt>
      <trkpt lat="40.90169" lon="-2.3330300000000004">
        <time>2021-06-19T15:43:33+0000</time>
      </trkpt>
      <trkpt lat="40.90155" lon="-2.33332">
        <time>2021-06-19T15:43:34+0000</time>
      </trkpt>
      <trkpt lat="40.90142" lon="-2.3336">
        <time>2021-06-19T15:43:35+0000</time>
      </trkpt>
      <trkpt lat="40.90128" lon="-2.33387">
        <time>2021-06-19T15:43:36+0000</time>
      </trkpt>
      <trkpt lat="40.90115" lon="-2.33413">
        <time>2021-06-19T15:43:37+0000</time>
      </trkpt>
      <trkpt lat="40.901" lon="-2.3344">
        <time>2021-06-19T15:43:38+0000</time>
      </trkpt>
      <trkpt lat="40.90084" lon="-2.33467">
        <time>2021-06-19T15:43:39+0000</time>
      </trkpt>
      <trkpt lat="40.900670000000005" lon="-2.3349200000000003">
        <time>2021-06-19T15:43:40+0000</time>
      </trkpt>
      <trkpt lat="40.900490000000005" lon="-2.33516">
        <time>2021-06-19T15:43:41+0000</time>
      </trkpt>
      <trkpt lat="40.900310000000005" lon="-2.3354000000000004">
        <time>2021-06-19T15:43:42+0000</time>
      </trkpt>
      <trkpt lat="40.900110000000005" lon="-2.33564">
        <time>2021-06-19T15:43:43+0000</time>
      </trkpt>
      <trkpt lat="40.899910000000006" lon="-2.3358800000000004">
        <time>2021-06-19T15:43:44+0000</time>
      </trkpt>
      <trkpt lat="40.8997" lon="-2.33612">
        <time>2021-06-19T15:43:45+0000</time>
      </trkpt>
      <trkpt lat="40.89949" lon="-2.3363500000000004">
        <time>2021-06-19T15:43:46+0000</time>
      </trkpt>
      <trkpt lat="40.89929" lon="-2.33658">
        <time>2021-06-19T15:43:47+0000</time>
      </trkpt>
      <trkpt lat="40.89909" lon="-2.3368100000000003">
        <time>2021-06-19T15:43:48+0000</time>
      </trkpt>
      <trkpt lat="40.89889" lon="-2.33705">
        <time>2021-06-19T15:43:49+0000</time>
      </trkpt>
      <trkpt lat="40.898700000000005" lon="-2.3372800000000002">
        <time>2021-06-19T15:43:50+0000</time>
      </trkpt>
      <trkpt lat="40.898520000000005" lon="-2.33753">
        <time>2021-06-19T15:43:51+0000</time>
      </trkpt>
      <trkpt lat="40.898340000000005" lon="-2.3377800000000004">
        <time>2021-06-19T15:43:52+0000</time>
      </trkpt>
      <trkpt lat="40.89817" lon="-2.3380400000000003">
        <time>2021-06-19T15:43:53+0000</time>
      </trkpt>
      <trkpt lat="40.898" lon="-2.3383200000000004">
        <time>2021-06-19T15:43:54+0000</time>
      </trkpt>
      <trkpt lat="40.89784" lon="-2.33862">
        <time>2021-06-19T15:43:55+0000</time>
      </trkpt>
      <trkpt lat="40.897670000000005" lon="-2.3389300000000004">
        <time>2021-06-19T15:43:56+0000</time>
      </trkpt>
      <trkpt lat="40.897510000000004" lon="-2.33924">
        <time>2021-06-19T15:43:57+0000</time>
      </trkpt>
      <trkpt lat="40.89735" lon="-2.33955">
        <time>2021-06-19T15:43:58+0000</time>
      </trkpt>
      <trkpt lat="40.89719" lon="-2.33984">
        <time>2021-06-19T15:43:59+0000</time>
      </trkpt>
      <trkpt lat="40.89703" lon="-2.3401300000000003">
        <time>2021-06-19T15:44:00+0000</time>
      </trkpt>
      <trkpt lat="40.89688" lon="-2.3404200000000004">
        <time>2021-06-19T15:44:01+0000</time>
      </trkpt>
      <trkpt lat="40.896710000000006" lon="-2.3407">
        <time>2021-06-19T15:44:02+0000</time>
      </trkpt>
      <trkpt lat="40.896530000000006" lon="-2.34097">
        <time>2021-06-19T15:44:03+0000</time>
      </trkpt>
      <trkpt lat="40.896330000000006" lon="-2.3412300000000004">
        <time>2021-06-19T15:44:04+0000</time>
      </trkpt>
      <trkpt lat="40.89612" lon="-2.3414800000000002">
        <time>2021-06-19T15:44:05+0000</time>
      </trkpt>
      <trkpt lat="40.89591" lon="-2.34173">
        <time>2021-06-19T15:44:06+0000</time>
      </trkpt>
      <trkpt lat="40.89571" lon="-2.3419800000000004">
        <time>2021-06-19T15:44:07+0000</time>
      </trkpt>
      <trkpt lat="40.895520000000005" lon="-2.3422300000000003">
        <time>2021-06-19T15:44:08+0000</time>
      </trkpt>
      <trkpt lat="40.895340000000004" lon="-2.3425000000000002">
        <time>2021-06-19T15:44:09+0000</time>
      </trkpt>
      <trkpt lat="40.89517" lon="-2.3427800000000003">
        <time>2021-06-19T15:44:10+0000</time>
      </trkpt>
      <trkpt lat="40.895030000000006" lon="-2.34308">
        <time>2021-06-19T15:44:11+0000</time>
      </trkpt>
      <trkpt lat="40.89491" lon="-2.3433900000000003">
        <time>2021-06-19T15:44:12+0000</time>
      </trkpt>
      <trkpt lat="40.894800000000004" lon="-2.34371">
        <time>2021-06-19T15:44:13+0000</time>
      </trkpt>
      <trkpt lat="40.8947" lon="-2.34404">
        <time>2021-06-19T15:44:14+0000</time>
      </trkpt>
      <trkpt lat="40.89463000000001" lon="-2.34438">
        <time>2021-06-19T15:44:15+0000</time>
      </trkpt>
      <trkpt lat="40.89459" lon="-2.34473">
        <time>2021-06-19T15:44:16+0000</time>
      </trkpt>
      <trkpt lat="40.89455" lon="-2.3450900000000003">
        <time>2021-06-19T15:44:17+0000</time>
      </trkpt>
      <trkpt lat="40.894510000000004" lon="-2.3454400000000004">
        <time>2021-06-19T15:44:18+0000</time>
      </trkpt>
      <trkpt lat="40.89448" lon="-2.3458">
        <time>2021-06-19T15:44:19+0000</time>
      </trkpt>
      <trkpt lat="40.89441" lon="-2.34615">
        <time>2021-06-19T15:44:20+0000</time>
      </trkpt>
      <trkpt lat="40.89432" lon="-2.34648">
        <time>2021-06-19T15:44:21+0000</time>
      </trkpt>
      <trkpt lat="40.89419" lon="-2.3468">
        <time>2021-06-19T15:44:22+0000</time>
      </trkpt>
      <trkpt lat="40.89406" lon="-2.3471">
        <time>2021-06-19T15:44:23+0000</time>
      </trkpt>
      <trkpt lat="40.89394" lon="-2.34737">
        <time>2021-06-19T15:44:24+0000</time>
      </trkpt>
      <trkpt lat="40.893840000000004" lon="-2.34764">
        <time>2021-06-19T15:44:25+0000</time>
      </trkpt>
      <trkpt lat="40.89376" lon="-2.3479200000000002">
        <time>2021-06-19T15:44:26+0000</time>
      </trkpt>
      <trkpt lat="40.89372" lon="-2.34822">
        <time>2021-06-19T15:44:27+0000</time>
      </trkpt>
      <trkpt lat="40.893710000000006" lon="-2.3485300000000002">
        <time>2021-06-19T15:44:28+0000</time>
      </trkpt>
      <trkpt lat="40.893710000000006" lon="-2.34886">
        <time>2021-06-19T15:44:29+0000</time>
      </trkpt>
      <trkpt lat="40.89374" lon="-2.34917">
        <time>2021-06-19T15:44:30+0000</time>
      </trkpt>
      <trkpt lat="40.89374" lon="-2.34946">
        <time>2021-06-19T15:44:31+0000</time>
      </trkpt>
      <trkpt lat="40.893730000000005" lon="-2.34974">
        <time>2021-06-19T15:44:32+0000</time>
      </trkpt>
      <trkpt lat="40.89367" lon="-2.35002">
        <time>2021-06-19T15:44:33+0000</time>
      </trkpt>
      <trkpt lat="40.89358" lon="-2.35028">
        <time>2021-06-19T15:44:34+0000</time>
      </trkpt>
      <trkpt lat="40.893460000000005" lon="-2.35053">
        <time>2021-06-19T15:44:35+0000</time>
      </trkpt>
      <trkpt lat="40.89331000000001" lon="-2.3507800000000003">
        <time>2021-06-19T15:44:36+0000</time>
      </trkpt>
      <trkpt lat="40.893170000000005" lon="-2.35102">
        <time>2021-06-19T15:44:37+0000</time>
      </trkpt>
      <trkpt lat="40.893060000000006" lon="-2.3512500000000003">
        <time>2021-06-19T15:44:38+0000</time>
      </trkpt>
      <trkpt lat="40.892990000000005" lon="-2.3515">
        <time>2021-06-19T15:44:39+0000</time>
      </trkpt>
      <trkpt lat="40.89296" lon="-2.35178">
        <time>2021-06-19T15:44:40+0000</time>
      </trkpt>
      <trkpt lat="40.89298" lon="-2.3520700000000003">
        <time>2021-06-19T15:44:41+0000</time>
      </trkpt>
      <trkpt lat="40.893010000000004" lon="-2.3523300000000003">
        <time>2021-06-19T15:44:42+0000</time>
      </trkpt>
      <trkpt lat="40.893010000000004" lon="-2.3526000000000002">
        <time>2021-06-19T15:44:43+0000</time>
      </trkpt>
      <trkpt lat="40.892970000000005" lon="-2.35286">
        <time>2021-06-19T15:44:44+0000</time>
      </trkpt>
      <trkpt lat="40.892880000000005" lon="-2.3531000000000004">
        <time>2021-06-19T15:44:45+0000</time>
      </trkpt>
      <trkpt lat="40.89278" lon="-2.35333">
        <time>2021-06-19T15:44:46+0000</time>
      </trkpt>
      <trkpt lat="40.89271" lon="-2.3535700000000004">
        <time>2021-06-19T15:44:47+0000</time>
      </trkpt>
      <trkpt lat="40.89269" lon="-2.3538400000000004">
        <time>2021-06-19T15:44:48+0000</time>
      </trkpt>
      <trkpt lat="40.892700000000005" lon="-2.35413">
        <time>2021-06-19T15:44:49+0000</time>
      </trkpt>
      <trkpt lat="40.89271" lon="-2.3544300000000002">
        <time>2021-06-19T15:44:50+0000</time>
      </trkpt>
      <trkpt lat="40.892680000000006" lon="-2.35474">
        <time>2021-06-19T15:44:51+0000</time>
      </trkpt>
      <trkpt lat="40.892630000000004" lon="-2.3550400000000002">
        <time>2021-06-19T15:44:52+0000</time>
      </trkpt>
      <trkpt lat="40.89256" lon="-2.3553300000000004">
        <time>2021-06-19T15:44:53+0000</time>
      </trkpt>
      <trkpt lat="40.89247" lon="-2.3556000000000004">
        <time>2021-06-19T15:44:54+0000</time>
      </trkpt>
      <trkpt lat="40.892340000000004" lon="-2.3558600000000003">
        <time>2021-06-19T15:44:55+0000</time>
      </trkpt>
      <trkpt lat="40.8922" lon="-2.35611">
        <time>2021-06-19T15:44:56+0000</time>
      </trkpt>
      <trkpt lat="40.89204" lon="-2.3563500000000004">
        <time>2021-06-19T15:44:57+0000</time>
      </trkpt>
      <trkpt lat="40.891850000000005" lon="-2.35656">
        <time>2021-06-19T15:44:58+0000</time>
      </trkpt>
      <trkpt lat="40.89164" lon="-2.35673">
        <time>2021-06-19T15:44:59+0000</time>
      </trkpt>
      <trkpt lat="40.891420000000004" lon="-2.3568800000000003">
        <time>2021-06-19T15:45:00+0000</time>
      </trkpt>
      <trkpt lat="40.891180000000006" lon="-2.357">
        <time>2021-06-19T15:45:01+0000</time>
      </trkpt>
      <trkpt lat="40.89094" lon="-2.3570900000000004">
        <time>2021-06-19T15:45:02+0000</time>
      </trkpt>
      <trkpt lat="40.890690000000006" lon="-2.35719">
        <time>2021-06-19T15:45:03+0000</time>
      </trkpt>
      <trkpt lat="40.890440000000005" lon="-2.3572900000000003">
        <time>2021-06-19T15:45:04+0000</time>
      </trkpt>
      <trkpt lat="40.890190000000004" lon="-2.3574100000000002">
        <time>2021-06-19T15:45:05+0000</time>
      </trkpt>
      <trkpt lat="40.88994" lon="-2.3575500000000003">
        <time>2021-06-19T15:45:06+0000</time>
      </trkpt>
      <trkpt lat="40.889700000000005" lon="-2.35771">
        <time>2021-06-19T15:45:07+0000</time>
      </trkpt>
      <trkpt lat="40.88946000000001" lon="-2.3578900000000003">
        <time>2021-06-19T15:45:08+0000</time>
      </trkpt>
      <trkpt lat="40.88922" lon="-2.35808">
        <time>2021-06-19T15:45:09+0000</time>
      </trkpt>
      <trkpt lat="40.888980000000004" lon="-2.35829">
        <time>2021-06-19T15:45:10+0000</time>
      </trkpt>
      <trkpt lat="40.88875" lon="-2.3585000000000003">
        <time>2021-06-19T15:45:11+0000</time>
      </trkpt>
      <trkpt lat="40.88852000000001" lon="-2.3587100000000003">
        <time>2021-06-19T15:45:12+0000</time>
      </trkpt>
      <trkpt lat="40.888290000000005" lon="-2.35893">
        <time>2021-06-19T15:45:13+0000</time>
      </trkpt>
      <trkpt lat="40.888070000000006" lon="-2.35914">
        <time>2021-06-19T15:45:14+0000</time>
      </trkpt>
      <trkpt lat="40.88785" lon="-2.35937">
        <time>2021-06-19T15:45:15+0000</time>
      </trkpt>
      <trkpt lat="40.88765" lon="-2.3596000000000004">
        <time>2021-06-19T15:45:16+0000</time>
      </trkpt>
      <trkpt lat="40.88745" lon="-2.3598700000000004">
        <time>2021-06-19T15:45:17+0000</time>
      </trkpt>
      <trkpt lat="40.887280000000004" lon="-2.3601400000000003">
        <time>2021-06-19T15:45:18+0000</time>
      </trkpt>
      <trkpt lat="40.887130000000006" lon="-2.3604200000000004">
        <time>2021-06-19T15:45:19+0000</time>
      </trkpt>
      <trkpt lat="40.887" lon="-2.3606900000000004">
        <time>2021-06-19T15:45:20+0000</time>
      </trkpt>
      <trkpt lat="40.886880000000005" lon="-2.3609400000000003">
        <time>2021-06-19T15:45:21+0000</time>
      </trkpt>
      <trkpt lat="40.88676" lon="-2.36119">
        <time>2021-06-19T15:45:22+0000</time>
      </trkpt>
      <trkpt lat="40.8866" lon="-2.3614200000000003">
        <time>2021-06-19T15:45:23+0000</time>
      </trkpt>
      <trkpt lat="40.88642" lon="-2.3616300000000003">
        <time>2021-06-19T15:45:24+0000</time>
      </trkpt>
      <trkpt lat="40.886210000000005" lon="-2.3618200000000003">
        <time>2021-06-19T15:45:25+0000</time>
      </trkpt>
      <trkpt lat="40.88599000000001" lon="-2.36201">
        <time>2021-06-19T15:45:26+0000</time>
      </trkpt>
      <trkpt lat="40.88577" lon="-2.36219">
        <time>2021-06-19T15:45:27+0000</time>
      </trkpt>
      <trkpt lat="40.88555" lon="-2.36239">
        <time>2021-06-19T15:45:28+0000</time>
      </trkpt>
      <trkpt lat="40.88533" lon="-2.3626">
        <time>2021-06-19T15:45:29+0000</time>
      </trkpt>
      <trkpt lat="40.885110000000005" lon="-2.3627900000000004">
        <time>2021-06-19T15:45:30+0000</time>
      </trkpt>
      <trkpt lat="40.8849" lon="-2.3629800000000003">
        <time>2021-06-19T15:45:31+0000</time>
      </trkpt>
      <trkpt lat="40.88468" lon="-2.36317">
        <time>2021-06-19T15:45:32+0000</time>
      </trkpt>
      <trkpt lat="40.884460000000004" lon="-2.36335">
        <time>2021-06-19T15:45:33+0000</time>
      </trkpt>
      <trkpt lat="40.884220000000006" lon="-2.36351">
        <time>2021-06-19T15:45:34+0000</time>
      </trkpt>
      <trkpt lat="40.88398" lon="-2.3636700000000004">
        <time>2021-06-19T15:45:35+0000</time>
      </trkpt>
      <trkpt lat="40.883720000000004" lon="-2.36382">
        <time>2021-06-19T15:45:36+0000</time>
      </trkpt>
      <trkpt lat="40.88345" lon="-2.36396">
        <time>2021-06-19T15:45:37+0000</time>
      </trkpt>
      <trkpt lat="40.88318" lon="-2.3641">
        <time>2021-06-19T15:45:38+0000</time>
      </trkpt>
      <trkpt lat="40.88290000000001" lon="-2.36422">
        <time>2021-06-19T15:45:39+0000</time>
      </trkpt>
      <trkpt lat="40.88262" lon="-2.3643400000000003">
        <time>2021-06-19T15:45:40+0000</time>
      </trkpt>
      <trkpt lat="40.88233" lon="-2.3644600000000002">
        <time>2021-06-19T15:45:41+0000</time>
      </trkpt>
      <trkpt lat="40.88205000000001" lon="-2.36457">
        <time>2021-06-19T15:45:42+0000</time>
      </trkpt>
      <trkpt lat="40.88177" lon="-2.36465">
        <time>2021-06-19T15:45:43+0000</time>
      </trkpt>
      <trkpt lat="40.881510000000006" lon="-2.3647400000000003">
        <time>2021-06-19T15:45:44+0000</time>
      </trkpt>
      <trkpt lat="40.881260000000005" lon="-2.3648200000000004">
        <time>2021-06-19T15:45:45+0000</time>
      </trkpt>
      <trkpt lat="40.881" lon="-2.36491">
        <time>2021-06-19T15:45:46+0000</time>
      </trkpt>
      <trkpt lat="40.880750000000006" lon="-2.3650200000000003">
        <time>2021-06-19T15:45:47+0000</time>
      </trkpt>
      <trkpt lat="40.88049" lon="-2.36513">
        <time>2021-06-19T15:45:48+0000</time>
      </trkpt>
      <trkpt lat="40.88024" lon="-2.36526">
        <time>2021-06-19T15:45:49+0000</time>
      </trkpt>
      <trkpt lat="40.87998" lon="-2.36539">
        <time>2021-06-19T15:45:50+0000</time>
      </trkpt>
      <trkpt lat="40.87973" lon="-2.36554">
        <time>2021-06-19T15:45:51+0000</time>
      </trkpt>
      <trkpt lat="40.879490000000004" lon="-2.3657000000000004">
        <time>2021-06-19T15:45:52+0000</time>
      </trkpt>
      <trkpt lat="40.87924" lon="-2.36586">
        <time>2021-06-19T15:45:53+0000</time>
      </trkpt>
      <trkpt lat="40.87901" lon="-2.3660300000000003">
        <time>2021-06-19T15:45:54+0000</time>
      </trkpt>
      <trkpt lat="40.87879" lon="-2.3662">
        <time>2021-06-19T15:45:55+0000</time>
      </trkpt>
      <trkpt lat="40.87857" lon="-2.36639">
        <time>2021-06-19T15:45:56+0000</time>
      </trkpt>
      <trkpt lat="40.87836" lon="-2.3666">
        <time>2021-06-19T15:45:57+0000</time>
      </trkpt>
      <trkpt lat="40.878150000000005" lon="-2.36683">
        <time>2021-06-19T15:45:58+0000</time>
      </trkpt>
      <trkpt lat="40.87796" lon="-2.36707">
        <time>2021-06-19T15:45:59+0000</time>
      </trkpt>
      <trkpt lat="40.87778" lon="-2.3673300000000004">
        <time>2021-06-19T15:46:00+0000</time>
      </trkpt>
      <trkpt lat="40.877610000000004" lon="-2.36762">
        <time>2021-06-19T15:46:01+0000</time>
      </trkpt>
      <trkpt lat="40.877460000000006" lon="-2.3679300000000003">
        <time>2021-06-19T15:46:02+0000</time>
      </trkpt>
      <trkpt lat="40.87731" lon="-2.36824">
        <time>2021-06-19T15:46:03+0000</time>
      </trkpt>
      <trkpt lat="40.87716" lon="-2.3685500000000004">
        <time>2021-06-19T15:46:04+0000</time>
      </trkpt>
      <trkpt lat="40.877010000000006" lon="-2.36884">
        <time>2021-06-19T15:46:05+0000</time>
      </trkpt>
      <trkpt lat="40.87686" lon="-2.36913">
        <time>2021-06-19T15:46:06+0000</time>
      </trkpt>
      <trkpt lat="40.87671" lon="-2.3694200000000003">
        <time>2021-06-19T15:46:07+0000</time>
      </trkpt>
      <trkpt lat="40.876560000000005" lon="-2.3697000000000004">
        <time>2021-06-19T15:46:08+0000</time>
      </trkpt>
      <trkpt lat="40.87639" lon="-2.36998">
        <time>2021-06-19T15:46:09+0000</time>
      </trkpt>
      <trkpt lat="40.87619" lon="-2.3702400000000003">
        <time>2021-06-19T15:46:10+0000</time>
      </trkpt>
      <trkpt lat="40.87597" lon="-2.37047">
        <time>2021-06-19T15:46:11+0000</time>
      </trkpt>
      <trkpt lat="40.87574" lon="-2.37069">
        <time>2021-06-19T15:46:12+0000</time>
      </trkpt>
      <trkpt lat="40.875490000000006" lon="-2.37087">
        <time>2021-06-19T15:46:13+0000</time>
      </trkpt>
      <trkpt lat="40.87523" lon="-2.37103">
        <time>2021-06-19T15:46:14+0000</time>
      </trkpt>
      <trkpt lat="40.874950000000005" lon="-2.37115">
        <time>2021-06-19T15:46:15+0000</time>
      </trkpt>
      <trkpt lat="40.874660000000006" lon="-2.3712500000000003">
        <time>2021-06-19T15:46:16+0000</time>
      </trkpt>
      <trkpt lat="40.874370000000006" lon="-2.3713100000000003">
        <time>2021-06-19T15:46:17+0000</time>
      </trkpt>
      <trkpt lat="40.87407" lon="-2.3713300000000004">
        <time>2021-06-19T15:46:18+0000</time>
      </trkpt>
      <trkpt lat="40.87377" lon="-2.3713200000000003">
        <time>2021-06-19T15:46:19+0000</time>
      </trkpt>
      <trkpt lat="40.87348" lon="-2.37127">
        <time>2021-06-19T15:46:20+0000</time>
      </trkpt>
      <trkpt lat="40.87321" lon="-2.37122">
        <time>2021-06-19T15:46:21+0000</time>
      </trkpt>
      <trkpt lat="40.872930000000004" lon="-2.3711100000000003">
        <time>2021-06-19T15:46:22+0000</time>
      </trkpt>
      <trkpt lat="40.87267000000001" lon="-2.3709800000000003">
        <time>2021-06-19T15:46:23+0000</time>
      </trkpt>
      <trkpt lat="40.87241" lon="-2.37081">
        <time>2021-06-19T15:46:24+0000</time>
      </trkpt>
      <trkpt lat="40.872170000000004" lon="-2.37061">
        <time>2021-06-19T15:46:25+0000</time>
      </trkpt>
      <trkpt lat="40.87192" lon="-2.3704">
        <time>2021-06-19T15:46:26+0000</time>
      </trkpt>
      <trkpt lat="40.871680000000005" lon="-2.3701700000000003">
        <time>2021-06-19T15:46:27+0000</time>
      </trkpt>
      <trkpt lat="40.871430000000004" lon="-2.36994">
        <time>2021-06-19T15:46:28+0000</time>
      </trkpt>
      <trkpt lat="40.871190000000006" lon="-2.36971">
        <time>2021-06-19T15:46:29+0000</time>
      </trkpt>
      <trkpt lat="40.87095" lon="-2.3694800000000003">
        <time>2021-06-19T15:46:30+0000</time>
      </trkpt>
      <trkpt lat="40.87071" lon="-2.36925">
        <time>2021-06-19T15:46:31+0000</time>
      </trkpt>
      <trkpt lat="40.87048" lon="-2.3690300000000004">
        <time>2021-06-19T15:46:32+0000</time>
      </trkpt>
      <trkpt lat="40.87026" lon="-2.3688200000000004">
        <time>2021-06-19T15:46:33+0000</time>
      </trkpt>
      <trkpt lat="40.870050000000006" lon="-2.3686100000000003">
        <time>2021-06-19T15:46:34+0000</time>
      </trkpt>
      <trkpt lat="40.869820000000004" lon="-2.36839">
        <time>2021-06-19T15:46:35+0000</time>
      </trkpt>
      <trkpt lat="40.869600000000005" lon="-2.36817">
        <time>2021-06-19T15:46:36+0000</time>
      </trkpt>
      <trkpt lat="40.86937" lon="-2.36795">
        <time>2021-06-19T15:46:37+0000</time>
      </trkpt>
      <trkpt lat="40.86916" lon="-2.36775">
        <time>2021-06-19T15:46:38+0000</time>
      </trkpt>
      <trkpt lat="40.868950000000005" lon="-2.36755">
        <time>2021-06-19T15:46:39+0000</time>
      </trkpt>
      <trkpt lat="40.868750000000006" lon="-2.36736">
        <time>2021-06-19T15:46:40+0000</time>
      </trkpt>
      <trkpt lat="40.868550000000006" lon="-2.3671900000000003">
        <time>2021-06-19T15:46:41+0000</time>
      </trkpt>
      <trkpt lat="40.86835000000001" lon="-2.3670400000000003">
        <time>2021-06-19T15:46:42+0000</time>
      </trkpt>
      <trkpt lat="40.86816" lon="-2.36693">
        <time>2021-06-19T15:46:43+0000</time>
      </trkpt>
      <trkpt lat="40.86795" lon="-2.3668600000000004">
        <time>2021-06-19T15:46:44+0000</time>
      </trkpt>
      <trkpt lat="40.86775" lon="-2.36683">
        <time>2021-06-19T15:46:45+0000</time>
      </trkpt>
      <trkpt lat="40.86755" lon="-2.36683">
        <time>2021-06-19T15:46:46+0000</time>
      </trkpt>
      <trkpt lat="40.867360000000005" lon="-2.36683">
        <time>2021-06-19T15:46:47+0000</time>
      </trkpt>
      <trkpt lat="40.86717" lon="-2.3669200000000004">
        <time>2021-06-19T15:46:48+0000</time>
      </trkpt>
      <trkpt lat="40.86697" lon="-2.367">
        <time>2021-06-19T15:46:49+0000</time>
      </trkpt>
      <trkpt lat="40.86679" lon="-2.3671200000000003">
        <time>2021-06-19T15:46:50+0000</time>
      </trkpt>
      <trkpt lat="40.86661" lon="-2.3673">
        <time>2021-06-19T15:46:51+0000</time>
      </trkpt>
      <trkpt lat="40.86645" lon="-2.3675">
        <time>2021-06-19T15:46:52+0000</time>
      </trkpt>
      <trkpt lat="40.866310000000006" lon="-2.36775">
        <time>2021-06-19T15:46:53+0000</time>
      </trkpt>
      <trkpt lat="40.86619" lon="-2.36804">
        <time>2021-06-19T15:46:54+0000</time>
      </trkpt>
      <trkpt lat="40.8661" lon="-2.3683400000000003">
        <time>2021-06-19T15:46:55+0000</time>
      </trkpt>
      <trkpt lat="40.866040000000005" lon="-2.36866">
        <time>2021-06-19T15:46:56+0000</time>
      </trkpt>
      <trkpt lat="40.86598" lon="-2.36899">
        <time>2021-06-19T15:46:57+0000</time>
      </trkpt>
      <trkpt lat="40.865950000000005" lon="-2.3693000000000004">
        <time>2021-06-19T15:46:58+0000</time>
      </trkpt>
      <trkpt lat="40.865930000000006" lon="-2.3696200000000003">
        <time>2021-06-19T15:46:59+0000</time>
      </trkpt>
      <trkpt lat="40.86591000000001" lon="-2.36993">
        <time>2021-06-19T15:47:00+0000</time>
      </trkpt>
      <trkpt lat="40.865880000000004" lon="-2.3702500000000004">
        <time>2021-06-19T15:47:01+0000</time>
      </trkpt>
      <trkpt lat="40.86585" lon="-2.3705700000000003">
        <time>2021-06-19T15:47:02+0000</time>
      </trkpt>
      <trkpt lat="40.8658" lon="-2.37088">
        <time>2021-06-19T15:47:03+0000</time>
      </trkpt>
      <trkpt lat="40.86572" lon="-2.3711900000000004">
        <time>2021-06-19T15:47:04+0000</time>
      </trkpt>
      <trkpt lat="40.8656" lon="-2.37149">
        <time>2021-06-19T15:47:05+0000</time>
      </trkpt>
      <trkpt lat="40.86545" lon="-2.37176">
        <time>2021-06-19T15:47:06+0000</time>
      </trkpt>
      <trkpt lat="40.86527" lon="-2.3720100000000004">
        <time>2021-06-19T15:47:07+0000</time>
      </trkpt>
      <trkpt lat="40.86506000000001" lon="-2.37222">
        <time>2021-06-19T15:47:08+0000</time>
      </trkpt>
      <trkpt lat="40.86484" lon="-2.3724000000000003">
        <time>2021-06-19T15:47:09+0000</time>
      </trkpt>
      <trkpt lat="40.86462" lon="-2.3725500000000004">
        <time>2021-06-19T15:47:10+0000</time>
      </trkpt>
      <trkpt lat="40.86439" lon="-2.3726900000000004">
        <time>2021-06-19T15:47:11+0000</time>
      </trkpt>
      <trkpt lat="40.864180000000005" lon="-2.37285">
        <time>2021-06-19T15:47:12+0000</time>
      </trkpt>
      <trkpt lat="40.86399" lon="-2.3730200000000004">
        <time>2021-06-19T15:47:13+0000</time>
      </trkpt>
      <trkpt lat="40.863820000000004" lon="-2.3732100000000003">
        <time>2021-06-19T15:47:14+0000</time>
      </trkpt>
      <trkpt lat="40.863670000000006" lon="-2.37344">
        <time>2021-06-19T15:47:15+0000</time>
      </trkpt>
      <trkpt lat="40.86352" lon="-2.37371">
        <time>2021-06-19T15:47:16+0000</time>
      </trkpt>
      <trkpt lat="40.86338000000001" lon="-2.37398">
        <time>2021-06-19T15:47:17+0000</time>
      </trkpt>
      <trkpt lat="40.863240000000005" lon="-2.3742500000000004">
        <time>2021-06-19T15:47:18+0000</time>
      </trkpt>
      <trkpt lat="40.863080000000004" lon="-2.37453">
        <time>2021-06-19T15:47:19+0000</time>
      </trkpt>
      <trkpt lat="40.8629" lon="-2.3747800000000003">
        <time>2021-06-19T15:47:20+0000</time>
      </trkpt>
      <trkpt lat="40.862700000000004" lon="-2.37501">
        <time>2021-06-19T15:47:21+0000</time>
      </trkpt>
      <trkpt lat="40.86247" lon="-2.3751900000000004">
        <time>2021-06-19T15:47:22+0000</time>
      </trkpt>
      <trkpt lat="40.862230000000004" lon="-2.3753300000000004">
        <time>2021-06-19T15:47:23+0000</time>
      </trkpt>
      <trkpt lat="40.86197000000001" lon="-2.37542">
        <time>2021-06-19T15:47:24+0000</time>
      </trkpt>
      <trkpt lat="40.861700000000006" lon="-2.3754600000000003">
        <time>2021-06-19T15:47:25+0000</time>
      </trkpt>
      <trkpt lat="40.861430000000006" lon="-2.3754600000000003">
        <time>2021-06-19T15:47:26+0000</time>
      </trkpt>
      <trkpt lat="40.86115" lon="-2.3754500000000003">
        <time>2021-06-19T15:47:27+0000</time>
      </trkpt>
      <trkpt lat="40.86088" lon="-2.37543">
        <time>2021-06-19T15:47:28+0000</time>
      </trkpt>
      <trkpt lat="40.86061" lon="-2.37543">
        <time>2021-06-19T15:47:29+0000</time>
      </trkpt>
      <trkpt lat="40.860350000000004" lon="-2.3754500000000003">
        <time>2021-06-19T15:47:30+0000</time>
      </trkpt>
      <trkpt lat="40.8601" lon="-2.3755">
        <time>2021-06-19T15:47:31+0000</time>
      </trkpt>
      <trkpt lat="40.859840000000005" lon="-2.37556">
        <time>2021-06-19T15:47:32+0000</time>
      </trkpt>
      <trkpt lat="40.8596" lon="-2.3756500000000003">
        <time>2021-06-19T15:47:33+0000</time>
      </trkpt>
      <trkpt lat="40.859370000000006" lon="-2.3757800000000002">
        <time>2021-06-19T15:47:34+0000</time>
      </trkpt>
      <trkpt lat="40.859140000000004" lon="-2.37591">
        <time>2021-06-19T15:47:35+0000</time>
      </trkpt>
      <trkpt lat="40.85891" lon="-2.37605">
        <time>2021-06-19T15:47:36+0000</time>
      </trkpt>
      <trkpt lat="40.858670000000004" lon="-2.3761900000000002">
        <time>2021-06-19T15:47:37+0000</time>
      </trkpt>
      <trkpt lat="40.85844" lon="-2.3763500000000004">
        <time>2021-06-19T15:47:38+0000</time>
      </trkpt>
      <trkpt lat="40.858200000000004" lon="-2.3765">
        <time>2021-06-19T15:47:39+0000</time>
      </trkpt>
      <trkpt lat="40.85795" lon="-2.37666">
        <time>2021-06-19T15:47:40+0000</time>
      </trkpt>
      <trkpt lat="40.8577" lon="-2.3768100000000003">
        <time>2021-06-19T15:47:41+0000</time>
      </trkpt>
      <trkpt lat="40.85745" lon="-2.3769600000000004">
        <time>2021-06-19T15:47:42+0000</time>
      </trkpt>
      <trkpt lat="40.857200000000006" lon="-2.37712">
        <time>2021-06-19T15:47:43+0000</time>
      </trkpt>
      <trkpt lat="40.85694" lon="-2.3772800000000003">
        <time>2021-06-19T15:47:44+0000</time>
      </trkpt>
      <trkpt lat="40.856680000000004" lon="-2.37744">
        <time>2021-06-19T15:47:45+0000</time>
      </trkpt>
      <trkpt lat="40.856410000000004" lon="-2.3776100000000002">
        <time>2021-06-19T15:47:46+0000</time>
      </trkpt>
      <trkpt lat="40.85613" lon="-2.37779">
        <time>2021-06-19T15:47:47+0000</time>
      </trkpt>
      <trkpt lat="40.855850000000004" lon="-2.3779600000000003">
        <time>2021-06-19T15:47:48+0000</time>
      </trkpt>
      <trkpt lat="40.855560000000004" lon="-2.37814">
        <time>2021-06-19T15:47:49+0000</time>
      </trkpt>
      <trkpt lat="40.85528" lon="-2.3783100000000004">
        <time>2021-06-19T15:47:50+0000</time>
      </trkpt>
      <trkpt lat="40.85501" lon="-2.37849">
        <time>2021-06-19T15:47:51+0000</time>
      </trkpt>
      <trkpt lat="40.85474000000001" lon="-2.3786500000000004">
        <time>2021-06-19T15:47:52+0000</time>
      </trkpt>
      <trkpt lat="40.85448" lon="-2.37882">
        <time>2021-06-19T15:47:53+0000</time>
      </trkpt>
      <trkpt lat="40.85421" lon="-2.3789800000000003">
        <time>2021-06-19T15:47:54+0000</time>
      </trkpt>
      <trkpt lat="40.85396" lon="-2.37914">
        <time>2021-06-19T15:47:55+0000</time>
      </trkpt>
      <trkpt lat="40.85371000000001" lon="-2.37929">
        <time>2021-06-19T15:47:56+0000</time>
      </trkpt>
      <trkpt lat="40.853480000000005" lon="-2.37943">
        <time>2021-06-19T15:47:57+0000</time>
      </trkpt>
      <trkpt lat="40.853260000000006" lon="-2.37956">
        <time>2021-06-19T15:47:58+0000</time>
      </trkpt>
      <trkpt lat="40.85305" lon="-2.37969">
        <time>2021-06-19T15:47:59+0000</time>
      </trkpt>
      <trkpt lat="40.85284" lon="-2.37982">
        <time>2021-06-19T15:48:00+0000</time>
      </trkpt>
      <trkpt lat="40.85264" lon="-2.37996">
        <time>2021-06-19T15:48:01+0000</time>
      </trkpt>
      <trkpt lat="40.852430000000005" lon="-2.38011">
        <time>2021-06-19T15:48:02+0000</time>
      </trkpt>
      <trkpt lat="40.85222" lon="-2.3803">
        <time>2021-06-19T15:48:03+0000</time>
      </trkpt>
      <trkpt lat="40.85202" lon="-2.38052">
        <time>2021-06-19T15:48:04+0000</time>
      </trkpt>
      <trkpt lat="40.85183000000001" lon="-2.38077">
        <time>2021-06-19T15:48:05+0000</time>
      </trkpt>
      <trkpt lat="40.85165000000001" lon="-2.38104">
        <time>2021-06-19T15:48:06+0000</time>
      </trkpt>
      <trkpt lat="40.851490000000005" lon="-2.38133">
        <time>2021-06-19T15:48:07+0000</time>
      </trkpt>
      <trkpt lat="40.851350000000004" lon="-2.38165">
        <time>2021-06-19T15:48:08+0000</time>
      </trkpt>
      <trkpt lat="40.851240000000004" lon="-2.3819700000000004">
        <time>2021-06-19T15:48:09+0000</time>
      </trkpt>
      <trkpt lat="40.851150000000004" lon="-2.38233">
        <time>2021-06-19T15:48:10+0000</time>
      </trkpt>
      <trkpt lat="40.85108" lon="-2.3827000000000003">
        <time>2021-06-19T15:48:11+0000</time>
      </trkpt>
      <trkpt lat="40.851040000000005" lon="-2.38308">
        <time>2021-06-19T15:48:12+0000</time>
      </trkpt>
      <trkpt lat="40.85101" lon="-2.38348">
        <time>2021-06-19T15:48:13+0000</time>
      </trkpt>
      <trkpt lat="40.85099" lon="-2.38389">
        <time>2021-06-19T15:48:14+0000</time>
      </trkpt>
      <trkpt lat="40.850950000000005" lon="-2.38429">
        <time>2021-06-19T15:48:15+0000</time>
      </trkpt>
      <trkpt lat="40.850910000000006" lon="-2.38469">
        <time>2021-06-19T15:48:16+0000</time>
      </trkpt>
      <trkpt lat="40.85085" lon="-2.3850700000000002">
        <time>2021-06-19T15:48:17+0000</time>
      </trkpt>
      <trkpt lat="40.85076" lon="-2.38545">
        <time>2021-06-19T15:48:18+0000</time>
      </trkpt>
      <trkpt lat="40.850640000000006" lon="-2.3858200000000003">
        <time>2021-06-19T15:48:19+0000</time>
      </trkpt>
      <trkpt lat="40.850500000000004" lon="-2.38619">
        <time>2021-06-19T15:48:20+0000</time>
      </trkpt>
      <trkpt lat="40.85033000000001" lon="-2.38655">
        <time>2021-06-19T15:48:21+0000</time>
      </trkpt>
      <trkpt lat="40.85016" lon="-2.3869000000000002">
        <time>2021-06-19T15:48:22+0000</time>
      </trkpt>
      <trkpt lat="40.84998" lon="-2.3872500000000003">
        <time>2021-06-19T15:48:23+0000</time>
      </trkpt>
      <trkpt lat="40.849810000000005" lon="-2.3875900000000003">
        <time>2021-06-19T15:48:24+0000</time>
      </trkpt>
      <trkpt lat="40.84964" lon="-2.3879200000000003">
        <time>2021-06-19T15:48:25+0000</time>
      </trkpt>
      <trkpt lat="40.84948" lon="-2.38825">
        <time>2021-06-19T15:48:26+0000</time>
      </trkpt>
      <trkpt lat="40.84933" lon="-2.3885500000000004">
        <time>2021-06-19T15:48:27+0000</time>
      </trkpt>
      <trkpt lat="40.849180000000004" lon="-2.38884">
        <time>2021-06-19T15:48:28+0000</time>
      </trkpt>
      <trkpt lat="40.849030000000006" lon="-2.3891400000000003">
        <time>2021-06-19T15:48:29+0000</time>
      </trkpt>
      <trkpt lat="40.848870000000005" lon="-2.3894300000000004">
        <time>2021-06-19T15:48:30+0000</time>
      </trkpt>
      <trkpt lat="40.84872" lon="-2.38973">
        <time>2021-06-19T15:48:31+0000</time>
      </trkpt>
      <trkpt lat="40.848560000000006" lon="-2.3900300000000003">
        <time>2021-06-19T15:48:32+0000</time>
      </trkpt>
      <trkpt lat="40.84841" lon="-2.39033">
        <time>2021-06-19T15:48:33+0000</time>
      </trkpt>
      <trkpt lat="40.84826" lon="-2.3906400000000003">
        <time>2021-06-19T15:48:34+0000</time>
      </trkpt>
      <trkpt lat="40.8481" lon="-2.39095">
        <time>2021-06-19T15:48:35+0000</time>
      </trkpt>
      <trkpt lat="40.847950000000004" lon="-2.3912600000000004">
        <time>2021-06-19T15:48:36+0000</time>
      </trkpt>
      <trkpt lat="40.84781" lon="-2.39155">
        <time>2021-06-19T15:48:37+0000</time>
      </trkpt>
      <trkpt lat="40.84767" lon="-2.39183">
        <time>2021-06-19T15:48:38+0000</time>
      </trkpt>
      <trkpt lat="40.84752" lon="-2.3921300000000003">
        <time>2021-06-19T15:48:39+0000</time>
      </trkpt>
      <trkpt lat="40.84738" lon="-2.39242">
        <time>2021-06-19T15:48:40+0000</time>
      </trkpt>
      <trkpt lat="40.84723" lon="-2.39271">
        <time>2021-06-19T15:48:41+0000</time>
      </trkpt>
      <trkpt lat="40.84709" lon="-2.3930000000000002">
        <time>2021-06-19T15:48:42+0000</time>
      </trkpt>
      <trkpt lat="40.84696" lon="-2.3933">
        <time>2021-06-19T15:48:43+0000</time>
      </trkpt>
      <trkpt lat="40.84685" lon="-2.3936100000000002">
        <time>2021-06-19T15:48:44+0000</time>
      </trkpt>
      <trkpt lat="40.84675" lon="-2.3939000000000004">
        <time>2021-06-19T15:48:45+0000</time>
      </trkpt>
      <trkpt lat="40.846680000000006" lon="-2.39419">
        <time>2021-06-19T15:48:46+0000</time>
      </trkpt>
      <trkpt lat="40.846610000000005" lon="-2.3945000000000003">
        <time>2021-06-19T15:48:47+0000</time>
      </trkpt>
      <trkpt lat="40.846560000000004" lon="-2.39482">
        <time>2021-06-19T15:48:48+0000</time>
      </trkpt>
      <trkpt lat="40.84653" lon="-2.39515">
        <time>2021-06-19T15:48:49+0000</time>
      </trkpt>
      <trkpt lat="40.846520000000005" lon="-2.39549">
        <time>2021-06-19T15:48:50+0000</time>
      </trkpt>
      <trkpt lat="40.84653" lon="-2.39584">
        <time>2021-06-19T15:48:51+0000</time>
      </trkpt>
      <trkpt lat="40.846540000000005" lon="-2.3961900000000003">
        <time>2021-06-19T15:48:52+0000</time>
      </trkpt>
      <trkpt lat="40.846590000000006" lon="-2.3965500000000004">
        <time>2021-06-19T15:48:53+0000</time>
      </trkpt>
      <trkpt lat="40.846650000000004" lon="-2.3968900000000004">
        <time>2021-06-19T15:48:54+0000</time>
      </trkpt>
      <trkpt lat="40.84673" lon="-2.3972300000000004">
        <time>2021-06-19T15:48:55+0000</time>
      </trkpt>
      <trkpt lat="40.846830000000004" lon="-2.3975500000000003">
        <time>2021-06-19T15:48:56+0000</time>
      </trkpt>
      <trkpt lat="40.84693" lon="-2.39786">
        <time>2021-06-19T15:48:57+0000</time>
      </trkpt>
      <trkpt lat="40.847030000000004" lon="-2.3981500000000002">
        <time>2021-06-19T15:48:58+0000</time>
      </trkpt>
      <trkpt lat="40.84713" lon="-2.3984400000000003">
        <time>2021-06-19T15:48:59+0000</time>
      </trkpt>
      <trkpt lat="40.84723" lon="-2.3987200000000004">
        <time>2021-06-19T15:49:00+0000</time>
      </trkpt>
      <trkpt lat="40.84731" lon="-2.39901">
        <time>2021-06-19T15:49:01+0000</time>
      </trkpt>
      <trkpt lat="40.847370000000005" lon="-2.3993200000000003">
        <time>2021-06-19T15:49:02+0000</time>
      </trkpt>
      <trkpt lat="40.8474" lon="-2.3996500000000003">
        <time>2021-06-19T15:49:03+0000</time>
      </trkpt>
      <trkpt lat="40.84741" lon="-2.3999900000000003">
        <time>2021-06-19T15:49:04+0000</time>
      </trkpt>
      <trkpt lat="40.847370000000005" lon="-2.4003400000000004">
        <time>2021-06-19T15:49:05+0000</time>
      </trkpt>
      <trkpt lat="40.84729" lon="-2.40069">
        <time>2021-06-19T15:49:06+0000</time>
      </trkpt>
      <trkpt lat="40.84716" lon="-2.40103">
        <time>2021-06-19T15:49:07+0000</time>
      </trkpt>
      <trkpt lat="40.847" lon="-2.4013500000000003">
        <time>2021-06-19T15:49:08+0000</time>
      </trkpt>
      <trkpt lat="40.8468" lon="-2.40164">
        <time>2021-06-19T15:49:09+0000</time>
      </trkpt>
      <trkpt lat="40.846590000000006" lon="-2.4019000000000004">
        <time>2021-06-19T15:49:10+0000</time>
      </trkpt>
      <trkpt lat="40.84639000000001" lon="-2.40214">
        <time>2021-06-19T15:49:11+0000</time>
      </trkpt>
      <trkpt lat="40.84619" lon="-2.4023800000000004">
        <time>2021-06-19T15:49:12+0000</time>
      </trkpt>
      <trkpt lat="40.84601000000001" lon="-2.40261">
        <time>2021-06-19T15:49:13+0000</time>
      </trkpt>
      <trkpt lat="40.84584" lon="-2.4028500000000004">
        <time>2021-06-19T15:49:14+0000</time>
      </trkpt>
      <trkpt lat="40.84568" lon="-2.4031100000000003">
        <time>2021-06-19T15:49:15+0000</time>
      </trkpt>
      <trkpt lat="40.84554000000001" lon="-2.4033800000000003">
        <time>2021-06-19T15:49:16+0000</time>
      </trkpt>
      <trkpt lat="40.845420000000004" lon="-2.4036500000000003">
        <time>2021-06-19T15:49:17+0000</time>
      </trkpt>
      <trkpt lat="40.845310000000005" lon="-2.4039300000000003">
        <time>2021-06-19T15:49:18+0000</time>
      </trkpt>
      <trkpt lat="40.84521" lon="-2.40424">
        <time>2021-06-19T15:49:19+0000</time>
      </trkpt>
      <trkpt lat="40.84512" lon="-2.4045500000000004">
        <time>2021-06-19T15:49:20+0000</time>
      </trkpt>
      <trkpt lat="40.84503" lon="-2.4048800000000004">
        <time>2021-06-19T15:49:21+0000</time>
      </trkpt>
      <trkpt lat="40.844950000000004" lon="-2.4052200000000004">
        <time>2021-06-19T15:49:22+0000</time>
      </trkpt>
      <trkpt lat="40.84487" lon="-2.40557">
        <time>2021-06-19T15:49:23+0000</time>
      </trkpt>
      <trkpt lat="40.84479" lon="-2.40592">
        <time>2021-06-19T15:49:24+0000</time>
      </trkpt>
      <trkpt lat="40.844710000000006" lon="-2.40627">
        <time>2021-06-19T15:49:25+0000</time>
      </trkpt>
      <trkpt lat="40.844620000000006" lon="-2.40662">
        <time>2021-06-19T15:49:26+0000</time>
      </trkpt>
      <trkpt lat="40.84454" lon="-2.40696">
        <time>2021-06-19T15:49:27+0000</time>
      </trkpt>
      <trkpt lat="40.844460000000005" lon="-2.4073100000000003">
        <time>2021-06-19T15:49:28+0000</time>
      </trkpt>
      <trkpt lat="40.84438" lon="-2.4076500000000003">
        <time>2021-06-19T15:49:29+0000</time>
      </trkpt>
      <trkpt lat="40.84429" lon="-2.4079900000000003">
        <time>2021-06-19T15:49:30+0000</time>
      </trkpt>
      <trkpt lat="40.844210000000004" lon="-2.4083400000000004">
        <time>2021-06-19T15:49:31+0000</time>
      </trkpt>
      <trkpt lat="40.84413" lon="-2.40869">
        <time>2021-06-19T15:49:32+0000</time>
      </trkpt>
      <trkpt lat="40.84405" lon="-2.40903">
        <time>2021-06-19T15:49:33+0000</time>
      </trkpt>
      <trkpt lat="40.843970000000006" lon="-2.40939">
        <time>2021-06-19T15:49:34+0000</time>
      </trkpt>
      <trkpt lat="40.843880000000006" lon="-2.40974">
        <time>2021-06-19T15:49:35+0000</time>
      </trkpt>
      <trkpt lat="40.8438" lon="-2.4101000000000004">
        <time>2021-06-19T15:49:36+0000</time>
      </trkpt>
      <trkpt lat="40.84371" lon="-2.41046">
        <time>2021-06-19T15:49:37+0000</time>
      </trkpt>
      <trkpt lat="40.84362" lon="-2.4108300000000003">
        <time>2021-06-19T15:49:38+0000</time>
      </trkpt>
      <trkpt lat="40.84353" lon="-2.4112">
        <time>2021-06-19T15:49:39+0000</time>
      </trkpt>
      <trkpt lat="40.843450000000004" lon="-2.4115800000000003">
        <time>2021-06-19T15:49:40+0000</time>
      </trkpt>
      <trkpt lat="40.843360000000004" lon="-2.41196">
        <time>2021-06-19T15:49:41+0000</time>
      </trkpt>
      <trkpt lat="40.84326" lon="-2.41235">
        <time>2021-06-19T15:49:42+0000</time>
      </trkpt>
      <trkpt lat="40.84317" lon="-2.4127300000000003">
        <time>2021-06-19T15:49:43+0000</time>
      </trkpt>
      <trkpt lat="40.84308" lon="-2.41311">
        <time>2021-06-19T15:49:44+0000</time>
      </trkpt>
      <trkpt lat="40.84299" lon="-2.4135">
        <time>2021-06-19T15:49:45+0000</time>
      </trkpt>
      <trkpt lat="40.8429" lon="-2.4138800000000002">
        <time>2021-06-19T15:49:46+0000</time>
      </trkpt>
      <trkpt lat="40.84281" lon="-2.41425">
        <time>2021-06-19T15:49:47+0000</time>
      </trkpt>
      <trkpt lat="40.84272" lon="-2.41462">
        <time>2021-06-19T15:49:48+0000</time>
      </trkpt>
      <trkpt lat="40.84264" lon="-2.4149700000000003">
        <time>2021-06-19T15:49:49+0000</time>
      </trkpt>
      <trkpt lat="40.842560000000006" lon="-2.4153000000000002">
        <time>2021-06-19T15:49:50+0000</time>
      </trkpt>
      <trkpt lat="40.842490000000005" lon="-2.41563">
        <time>2021-06-19T15:49:51+0000</time>
      </trkpt>
      <trkpt lat="40.84241" lon="-2.41595">
        <time>2021-06-19T15:49:52+0000</time>
      </trkpt>
      <trkpt lat="40.842330000000004" lon="-2.41628">
        <time>2021-06-19T15:49:53+0000</time>
      </trkpt>
      <trkpt lat="40.84225" lon="-2.4166000000000003">
        <time>2021-06-19T15:49:54+0000</time>
      </trkpt>
      <trkpt lat="40.84217" lon="-2.4169300000000002">
        <time>2021-06-19T15:49:55+0000</time>
      </trkpt>
      <trkpt lat="40.842090000000006" lon="-2.41726">
        <time>2021-06-19T15:49:56+0000</time>
      </trkpt>
      <trkpt lat="40.84201" lon="-2.41759">
        <time>2021-06-19T15:49:57+0000</time>
      </trkpt>
      <trkpt lat="40.84194" lon="-2.41791">
        <time>2021-06-19T15:49:58+0000</time>
      </trkpt>
      <trkpt lat="40.841860000000004" lon="-2.41825">
        <time>2021-06-19T15:49:59+0000</time>
      </trkpt>
      <trkpt lat="40.84178" lon="-2.41859">
        <time>2021-06-19T15:50:00+0000</time>
      </trkpt>
      <trkpt lat="40.8417" lon="-2.41893">
        <time>2021-06-19T15:50:01+0000</time>
      </trkpt>
      <trkpt lat="40.84161" lon="-2.41928">
        <time>2021-06-19T15:50:02+0000</time>
      </trkpt>
      <trkpt lat="40.84152" lon="-2.41963">
        <time>2021-06-19T15:50:03+0000</time>
      </trkpt>
      <trkpt lat="40.841440000000006" lon="-2.4199900000000003">
        <time>2021-06-19T15:50:04+0000</time>
      </trkpt>
      <trkpt lat="40.841350000000006" lon="-2.42036">
        <time>2021-06-19T15:50:05+0000</time>
      </trkpt>
      <trkpt lat="40.84127" lon="-2.4207300000000003">
        <time>2021-06-19T15:50:06+0000</time>
      </trkpt>
      <trkpt lat="40.841170000000005" lon="-2.42111">
        <time>2021-06-19T15:50:07+0000</time>
      </trkpt>
      <trkpt lat="40.841080000000005" lon="-2.4214900000000004">
        <time>2021-06-19T15:50:08+0000</time>
      </trkpt>
      <trkpt lat="40.840990000000005" lon="-2.4218800000000003">
        <time>2021-06-19T15:50:09+0000</time>
      </trkpt>
      <trkpt lat="40.84089" lon="-2.42227">
        <time>2021-06-19T15:50:10+0000</time>
      </trkpt>
      <trkpt lat="40.8408" lon="-2.4226500000000004">
        <time>2021-06-19T15:50:11+0000</time>
      </trkpt>
      <trkpt lat="40.84071" lon="-2.4230400000000003">
        <time>2021-06-19T15:50:12+0000</time>
      </trkpt>
      <trkpt lat="40.84062" lon="-2.42342">
        <time>2021-06-19T15:50:13+0000</time>
      </trkpt>
      <trkpt lat="40.840540000000004" lon="-2.4237900000000003">
        <time>2021-06-19T15:50:14+0000</time>
      </trkpt>
      <trkpt lat="40.840450000000004" lon="-2.42415">
        <time>2021-06-19T15:50:15+0000</time>
      </trkpt>
      <trkpt lat="40.84037" lon="-2.42451">
        <time>2021-06-19T15:50:16+0000</time>
      </trkpt>
      <trkpt lat="40.84029" lon="-2.42485">
        <time>2021-06-19T15:50:17+0000</time>
      </trkpt>
      <trkpt lat="40.840210000000006" lon="-2.42518">
        <time>2021-06-19T15:50:18+0000</time>
      </trkpt>
      <trkpt lat="40.84013" lon="-2.4255">
        <time>2021-06-19T15:50:19+0000</time>
      </trkpt>
      <trkpt lat="40.84006" lon="-2.4258200000000003">
        <time>2021-06-19T15:50:20+0000</time>
      </trkpt>
      <trkpt lat="40.83999" lon="-2.42613">
        <time>2021-06-19T15:50:21+0000</time>
      </trkpt>
      <trkpt lat="40.83991" lon="-2.4264300000000003">
        <time>2021-06-19T15:50:22+0000</time>
      </trkpt>
      <trkpt lat="40.83984" lon="-2.42674">
        <time>2021-06-19T15:50:23+0000</time>
      </trkpt>
      <trkpt lat="40.839760000000005" lon="-2.42706">
        <time>2021-06-19T15:50:24+0000</time>
      </trkpt>
      <trkpt lat="40.839690000000004" lon="-2.4273800000000003">
        <time>2021-06-19T15:50:25+0000</time>
      </trkpt>
      <trkpt lat="40.83963000000001" lon="-2.4277200000000003">
        <time>2021-06-19T15:50:26+0000</time>
      </trkpt>
      <trkpt lat="40.83957" lon="-2.4280700000000004">
        <time>2021-06-19T15:50:27+0000</time>
      </trkpt>
      <trkpt lat="40.83953" lon="-2.42844">
        <time>2021-06-19T15:50:28+0000</time>
      </trkpt>
      <trkpt lat="40.839490000000005" lon="-2.4288100000000004">
        <time>2021-06-19T15:50:29+0000</time>
      </trkpt>
      <trkpt lat="40.83944" lon="-2.42919">
        <time>2021-06-19T15:50:30+0000</time>
      </trkpt>
      <trkpt lat="40.839400000000005" lon="-2.42958">
        <time>2021-06-19T15:50:31+0000</time>
      </trkpt>
      <trkpt lat="40.83935" lon="-2.4299700000000004">
        <time>2021-06-19T15:50:32+0000</time>
      </trkpt>
      <trkpt lat="40.8393" lon="-2.4303700000000004">
        <time>2021-06-19T15:50:33+0000</time>
      </trkpt>
      <trkpt lat="40.83925" lon="-2.4307600000000003">
        <time>2021-06-19T15:50:34+0000</time>
      </trkpt>
      <trkpt lat="40.839200000000005" lon="-2.4311700000000003">
        <time>2021-06-19T15:50:35+0000</time>
      </trkpt>
      <trkpt lat="40.839150000000004" lon="-2.4315700000000002">
        <time>2021-06-19T15:50:36+0000</time>
      </trkpt>
      <trkpt lat="40.839110000000005" lon="-2.43197">
        <time>2021-06-19T15:50:37+0000</time>
      </trkpt>
      <trkpt lat="40.83906" lon="-2.43237">
        <time>2021-06-19T15:50:38+0000</time>
      </trkpt>
      <trkpt lat="40.83901" lon="-2.43277">
        <time>2021-06-19T15:50:39+0000</time>
      </trkpt>
      <trkpt lat="40.83896" lon="-2.4331400000000003">
        <time>2021-06-19T15:50:40+0000</time>
      </trkpt>
      <trkpt lat="40.838910000000006" lon="-2.4335">
        <time>2021-06-19T15:50:41+0000</time>
      </trkpt>
      <trkpt lat="40.83887" lon="-2.43386">
        <time>2021-06-19T15:50:42+0000</time>
      </trkpt>
      <trkpt lat="40.838820000000005" lon="-2.43421">
        <time>2021-06-19T15:50:43+0000</time>
      </trkpt>
      <trkpt lat="40.83878" lon="-2.4345700000000003">
        <time>2021-06-19T15:50:44+0000</time>
      </trkpt>
      <trkpt lat="40.838730000000005" lon="-2.43493">
        <time>2021-06-19T15:50:45+0000</time>
      </trkpt>
      <trkpt lat="40.838680000000004" lon="-2.43529">
        <time>2021-06-19T15:50:46+0000</time>
      </trkpt>
      <trkpt lat="40.838640000000005" lon="-2.4356600000000004">
        <time>2021-06-19T15:50:47+0000</time>
      </trkpt>
      <trkpt lat="40.83859" lon="-2.43603">
        <time>2021-06-19T15:50:48+0000</time>
      </trkpt>
      <trkpt lat="40.838550000000005" lon="-2.4364000000000003">
        <time>2021-06-19T15:50:49+0000</time>
      </trkpt>
      <trkpt lat="40.8385" lon="-2.43678">
        <time>2021-06-19T15:50:50+0000</time>
      </trkpt>
      <trkpt lat="40.838460000000005" lon="-2.43716">
        <time>2021-06-19T15:50:51+0000</time>
      </trkpt>
      <trkpt lat="40.838420000000006" lon="-2.4375400000000003">
        <time>2021-06-19T15:50:52+0000</time>
      </trkpt>
      <trkpt lat="40.838370000000005" lon="-2.43791">
        <time>2021-06-19T15:50:53+0000</time>
      </trkpt>
      <trkpt lat="40.838330000000006" lon="-2.4382900000000003">
        <time>2021-06-19T15:50:54+0000</time>
      </trkpt>
      <trkpt lat="40.838280000000005" lon="-2.43865">
        <time>2021-06-19T15:50:55+0000</time>
      </trkpt>
      <trkpt lat="40.838240000000006" lon="-2.43901">
        <time>2021-06-19T15:50:56+0000</time>
      </trkpt>
      <trkpt lat="40.838190000000004" lon="-2.43936">
        <time>2021-06-19T15:50:57+0000</time>
      </trkpt>
      <trkpt lat="40.838150000000006" lon="-2.4397200000000003">
        <time>2021-06-19T15:50:58+0000</time>
      </trkpt>
      <trkpt lat="40.838100000000004" lon="-2.44009">
        <time>2021-06-19T15:50:59+0000</time>
      </trkpt>
      <trkpt lat="40.838060000000006" lon="-2.4404600000000003">
        <time>2021-06-19T15:51:00+0000</time>
      </trkpt>
      <trkpt lat="40.838010000000004" lon="-2.44084">
        <time>2021-06-19T15:51:01+0000</time>
      </trkpt>
      <trkpt lat="40.837970000000006" lon="-2.4412100000000003">
        <time>2021-06-19T15:51:02+0000</time>
      </trkpt>
      <trkpt lat="40.837920000000004" lon="-2.44159">
        <time>2021-06-19T15:51:03+0000</time>
      </trkpt>
      <trkpt lat="40.83787" lon="-2.44198">
        <time>2021-06-19T15:51:04+0000</time>
      </trkpt>
      <trkpt lat="40.83782" lon="-2.4423700000000004">
        <time>2021-06-19T15:51:05+0000</time>
      </trkpt>
      <trkpt lat="40.83778" lon="-2.4427700000000003">
        <time>2021-06-19T15:51:06+0000</time>
      </trkpt>
      <trkpt lat="40.83773" lon="-2.44316">
        <time>2021-06-19T15:51:07+0000</time>
      </trkpt>
      <trkpt lat="40.837680000000006" lon="-2.44356">
        <time>2021-06-19T15:51:08+0000</time>
      </trkpt>
      <trkpt lat="40.837630000000004" lon="-2.44395">
        <time>2021-06-19T15:51:09+0000</time>
      </trkpt>
      <trkpt lat="40.83758" lon="-2.44435">
        <time>2021-06-19T15:51:10+0000</time>
      </trkpt>
      <trkpt lat="40.83753" lon="-2.4447400000000004">
        <time>2021-06-19T15:51:11+0000</time>
      </trkpt>
      <trkpt lat="40.837480000000006" lon="-2.4451300000000002">
        <time>2021-06-19T15:51:12+0000</time>
      </trkpt>
      <trkpt lat="40.83742" lon="-2.44552">
        <time>2021-06-19T15:51:13+0000</time>
      </trkpt>
      <trkpt lat="40.83738" lon="-2.44591">
        <time>2021-06-19T15:51:14+0000</time>
      </trkpt>
      <trkpt lat="40.83733" lon="-2.4463000000000004">
        <time>2021-06-19T15:51:15+0000</time>
      </trkpt>
      <trkpt lat="40.83728" lon="-2.4466900000000003">
        <time>2021-06-19T15:51:16+0000</time>
      </trkpt>
      <trkpt lat="40.83724" lon="-2.44708">
        <time>2021-06-19T15:51:17+0000</time>
      </trkpt>
      <trkpt lat="40.83719000000001" lon="-2.4474600000000004">
        <time>2021-06-19T15:51:18+0000</time>
      </trkpt>
      <trkpt lat="40.837140000000005" lon="-2.4478500000000003">
        <time>2021-06-19T15:51:19+0000</time>
      </trkpt>
      <trkpt lat="40.83709" lon="-2.44824">
        <time>2021-06-19T15:51:20+0000</time>
      </trkpt>
      <trkpt lat="40.83704" lon="-2.44863">
        <time>2021-06-19T15:51:21+0000</time>
      </trkpt>
      <trkpt lat="40.837" lon="-2.44903">
        <time>2021-06-19T15:51:22+0000</time>
      </trkpt>
      <trkpt lat="40.83695" lon="-2.4494100000000003">
        <time>2021-06-19T15:51:23+0000</time>
      </trkpt>
      <trkpt lat="40.836890000000004" lon="-2.4498">
        <time>2021-06-19T15:51:24+0000</time>
      </trkpt>
      <trkpt lat="40.836830000000006" lon="-2.45019">
        <time>2021-06-19T15:51:25+0000</time>
      </trkpt>
      <trkpt lat="40.83677" lon="-2.4505700000000004">
        <time>2021-06-19T15:51:26+0000</time>
      </trkpt>
      <trkpt lat="40.836690000000004" lon="-2.45095">
        <time>2021-06-19T15:51:27+0000</time>
      </trkpt>
      <trkpt lat="40.836600000000004" lon="-2.45133">
        <time>2021-06-19T15:51:28+0000</time>
      </trkpt>
      <trkpt lat="40.8365" lon="-2.4517100000000003">
        <time>2021-06-19T15:51:29+0000</time>
      </trkpt>
      <trkpt lat="40.836400000000005" lon="-2.4521">
        <time>2021-06-19T15:51:30+0000</time>
      </trkpt>
      <trkpt lat="40.836290000000005" lon="-2.45248">
        <time>2021-06-19T15:51:31+0000</time>
      </trkpt>
      <trkpt lat="40.83617" lon="-2.4528600000000003">
        <time>2021-06-19T15:51:32+0000</time>
      </trkpt>
      <trkpt lat="40.836040000000004" lon="-2.45324">
        <time>2021-06-19T15:51:33+0000</time>
      </trkpt>
      <trkpt lat="40.8359" lon="-2.4536000000000002">
        <time>2021-06-19T15:51:34+0000</time>
      </trkpt>
      <trkpt lat="40.835750000000004" lon="-2.4539600000000004">
        <time>2021-06-19T15:51:35+0000</time>
      </trkpt>
      <trkpt lat="40.83561" lon="-2.45431">
        <time>2021-06-19T15:51:36+0000</time>
      </trkpt>
      <trkpt lat="40.83547" lon="-2.4546400000000004">
        <time>2021-06-19T15:51:37+0000</time>
      </trkpt>
      <trkpt lat="40.83532" lon="-2.4549700000000003">
        <time>2021-06-19T15:51:38+0000</time>
      </trkpt>
      <trkpt lat="40.83518" lon="-2.4553000000000003">
        <time>2021-06-19T15:51:39+0000</time>
      </trkpt>
      <trkpt lat="40.835040000000006" lon="-2.45563">
        <time>2021-06-19T15:51:40+0000</time>
      </trkpt>
      <trkpt lat="40.834900000000005" lon="-2.45596">
        <time>2021-06-19T15:51:41+0000</time>
      </trkpt>
      <trkpt lat="40.83476" lon="-2.45628">
        <time>2021-06-19T15:51:42+0000</time>
      </trkpt>
      <trkpt lat="40.83462" lon="-2.4566000000000003">
        <time>2021-06-19T15:51:43+0000</time>
      </trkpt>
      <trkpt lat="40.834480000000006" lon="-2.45691">
        <time>2021-06-19T15:51:44+0000</time>
      </trkpt>
      <trkpt lat="40.834340000000005" lon="-2.45723">
        <time>2021-06-19T15:51:45+0000</time>
      </trkpt>
      <trkpt lat="40.834210000000006" lon="-2.4575600000000004">
        <time>2021-06-19T15:51:46+0000</time>
      </trkpt>
      <trkpt lat="40.834070000000004" lon="-2.4578900000000004">
        <time>2021-06-19T15:51:47+0000</time>
      </trkpt>
      <trkpt lat="40.833920000000006" lon="-2.4582200000000003">
        <time>2021-06-19T15:51:48+0000</time>
      </trkpt>
      <trkpt lat="40.833780000000004" lon="-2.4585500000000002">
        <time>2021-06-19T15:51:49+0000</time>
      </trkpt>
      <trkpt lat="40.83364" lon="-2.45888">
        <time>2021-06-19T15:51:50+0000</time>
      </trkpt>
      <trkpt lat="40.8335" lon="-2.45921">
        <time>2021-06-19T15:51:51+0000</time>
      </trkpt>
      <trkpt lat="40.83337" lon="-2.4595200000000004">
        <time>2021-06-19T15:51:52+0000</time>
      </trkpt>
      <trkpt lat="40.83324" lon="-2.45982">
        <time>2021-06-19T15:51:53+0000</time>
      </trkpt>
      <trkpt lat="40.833090000000006" lon="-2.4601100000000002">
        <time>2021-06-19T15:51:54+0000</time>
      </trkpt>
      <trkpt lat="40.832910000000005" lon="-2.4603900000000003">
        <time>2021-06-19T15:51:55+0000</time>
      </trkpt>
      <trkpt lat="40.832710000000006" lon="-2.4606600000000003">
        <time>2021-06-19T15:51:56+0000</time>
      </trkpt>
      <trkpt lat="40.832480000000004" lon="-2.46091">
        <time>2021-06-19T15:51:57+0000</time>
      </trkpt>
      <trkpt lat="40.83223" lon="-2.46112">
        <time>2021-06-19T15:51:58+0000</time>
      </trkpt>
      <trkpt lat="40.831970000000005" lon="-2.46132">
        <time>2021-06-19T15:51:59+0000</time>
      </trkpt>
      <trkpt lat="40.831700000000005" lon="-2.4614900000000004">
        <time>2021-06-19T15:52:00+0000</time>
      </trkpt>
      <trkpt lat="40.83142" lon="-2.46165">
        <time>2021-06-19T15:52:01+0000</time>
      </trkpt>
      <trkpt lat="40.83113" lon="-2.4618">
        <time>2021-06-19T15:52:02+0000</time>
      </trkpt>
      <trkpt lat="40.830850000000005" lon="-2.4619600000000004">
        <time>2021-06-19T15:52:03+0000</time>
      </trkpt>
      <trkpt lat="40.83057" lon="-2.46211">
        <time>2021-06-19T15:52:04+0000</time>
      </trkpt>
      <trkpt lat="40.8303" lon="-2.46225">
        <time>2021-06-19T15:52:05+0000</time>
      </trkpt>
      <trkpt lat="40.830040000000004" lon="-2.46239">
        <time>2021-06-19T15:52:06+0000</time>
      </trkpt>
      <trkpt lat="40.82979" lon="-2.46253">
        <time>2021-06-19T15:52:07+0000</time>
      </trkpt>
      <trkpt lat="40.829550000000005" lon="-2.46266">
        <time>2021-06-19T15:52:08+0000</time>
      </trkpt>
      <trkpt lat="40.82932" lon="-2.4627800000000004">
        <time>2021-06-19T15:52:09+0000</time>
      </trkpt>
      <trkpt lat="40.82909" lon="-2.4629100000000004">
        <time>2021-06-19T15:52:10+0000</time>
      </trkpt>
      <trkpt lat="40.828880000000005" lon="-2.46302">
        <time>2021-06-19T15:52:11+0000</time>
      </trkpt>
      <trkpt lat="40.828660000000006" lon="-2.46314">
        <time>2021-06-19T15:52:12+0000</time>
      </trkpt>
      <trkpt lat="40.828450000000004" lon="-2.46327">
        <time>2021-06-19T15:52:13+0000</time>
      </trkpt>
      <trkpt lat="40.828250000000004" lon="-2.4634">
        <time>2021-06-19T15:52:14+0000</time>
      </trkpt>
      <trkpt lat="40.82806" lon="-2.46356">
        <time>2021-06-19T15:52:15+0000</time>
      </trkpt>
      <trkpt lat="40.82790000000001" lon="-2.46375">
        <time>2021-06-19T15:52:16+0000</time>
      </trkpt>
      <trkpt lat="40.827760000000005" lon="-2.4639800000000003">
        <time>2021-06-19T15:52:17+0000</time>
      </trkpt>
      <trkpt lat="40.827650000000006" lon="-2.46424">
        <time>2021-06-19T15:52:18+0000</time>
      </trkpt>
      <trkpt lat="40.82755" lon="-2.4645200000000003">
        <time>2021-06-19T15:52:19+0000</time>
      </trkpt>
      <trkpt lat="40.827490000000004" lon="-2.46482">
        <time>2021-06-19T15:52:20+0000</time>
      </trkpt>
      <trkpt lat="40.82746" lon="-2.4651400000000003">
        <time>2021-06-19T15:52:21+0000</time>
      </trkpt>
      <trkpt lat="40.827470000000005" lon="-2.46546">
        <time>2021-06-19T15:52:22+0000</time>
      </trkpt>
      <trkpt lat="40.8275" lon="-2.4658">
        <time>2021-06-19T15:52:23+0000</time>
      </trkpt>
      <trkpt lat="40.827560000000005" lon="-2.46614">
        <time>2021-06-19T15:52:24+0000</time>
      </trkpt>
      <trkpt lat="40.82764" lon="-2.4664800000000002">
        <time>2021-06-19T15:52:25+0000</time>
      </trkpt>
      <trkpt lat="40.82773" lon="-2.4668">
        <time>2021-06-19T15:52:26+0000</time>
      </trkpt>
      <trkpt lat="40.82782" lon="-2.46713">
        <time>2021-06-19T15:52:27+0000</time>
      </trkpt>
      <trkpt lat="40.82791" lon="-2.46747">
        <time>2021-06-19T15:52:28+0000</time>
      </trkpt>
      <trkpt lat="40.82799000000001" lon="-2.4678">
        <time>2021-06-19T15:52:29+0000</time>
      </trkpt>
      <trkpt lat="40.82806" lon="-2.46815">
        <time>2021-06-19T15:52:30+0000</time>
      </trkpt>
      <trkpt lat="40.828120000000006" lon="-2.46848">
        <time>2021-06-19T15:52:31+0000</time>
      </trkpt>
      <trkpt lat="40.828160000000004" lon="-2.4688100000000004">
        <time>2021-06-19T15:52:32+0000</time>
      </trkpt>
      <trkpt lat="40.82818" lon="-2.4691500000000004">
        <time>2021-06-19T15:52:33+0000</time>
      </trkpt>
      <trkpt lat="40.82818" lon="-2.4694800000000003">
        <time>2021-06-19T15:52:34+0000</time>
      </trkpt>
      <trkpt lat="40.82817" lon="-2.4698100000000003">
        <time>2021-06-19T15:52:35+0000</time>
      </trkpt>
      <trkpt lat="40.82813" lon="-2.4701500000000003">
        <time>2021-06-19T15:52:36+0000</time>
      </trkpt>
      <trkpt lat="40.828070000000004" lon="-2.4705000000000004">
        <time>2021-06-19T15:52:37+0000</time>
      </trkpt>
      <trkpt lat="40.827980000000004" lon="-2.47085">
        <time>2021-06-19T15:52:38+0000</time>
      </trkpt>
      <trkpt lat="40.82788" lon="-2.47119">
        <time>2021-06-19T15:52:39+0000</time>
      </trkpt>
      <trkpt lat="40.827740000000006" lon="-2.47153">
        <time>2021-06-19T15:52:40+0000</time>
      </trkpt>
      <trkpt lat="40.827580000000005" lon="-2.4718600000000004">
        <time>2021-06-19T15:52:41+0000</time>
      </trkpt>
      <trkpt lat="40.827400000000004" lon="-2.47217">
        <time>2021-06-19T15:52:42+0000</time>
      </trkpt>
      <trkpt lat="40.82721" lon="-2.47248">
        <time>2021-06-19T15:52:43+0000</time>
      </trkpt>
      <trkpt lat="40.82703" lon="-2.4727900000000003">
        <time>2021-06-19T15:52:44+0000</time>
      </trkpt>
      <trkpt lat="40.82686" lon="-2.47309">
        <time>2021-06-19T15:52:45+0000</time>
      </trkpt>
      <trkpt lat="40.826710000000006" lon="-2.4734000000000003">
        <time>2021-06-19T15:52:46+0000</time>
      </trkpt>
      <trkpt lat="40.82656" lon="-2.47372">
        <time>2021-06-19T15:52:47+0000</time>
      </trkpt>
      <trkpt lat="40.82641" lon="-2.47406">
        <time>2021-06-19T15:52:48+0000</time>
      </trkpt>
      <trkpt lat="40.826280000000004" lon="-2.47441">
        <time>2021-06-19T15:52:49+0000</time>
      </trkpt>
      <trkpt lat="40.82614" lon="-2.4747600000000003">
        <time>2021-06-19T15:52:50+0000</time>
      </trkpt>
      <trkpt lat="40.826" lon="-2.4751100000000004">
        <time>2021-06-19T15:52:51+0000</time>
      </trkpt>
      <trkpt lat="40.825860000000006" lon="-2.47546">
        <time>2021-06-19T15:52:52+0000</time>
      </trkpt>
      <trkpt lat="40.82573" lon="-2.47581">
        <time>2021-06-19T15:52:53+0000</time>
      </trkpt>
      <trkpt lat="40.8256" lon="-2.47615">
        <time>2021-06-19T15:52:54+0000</time>
      </trkpt>
      <trkpt lat="40.82547" lon="-2.47649">
        <time>2021-06-19T15:52:55+0000</time>
      </trkpt>
      <trkpt lat="40.825340000000004" lon="-2.47682">
        <time>2021-06-19T15:52:56+0000</time>
      </trkpt>
      <trkpt lat="40.825210000000006" lon="-2.4771500000000004">
        <time>2021-06-19T15:52:57+0000</time>
      </trkpt>
      <trkpt lat="40.82509" lon="-2.4774700000000003">
        <time>2021-06-19T15:52:58+0000</time>
      </trkpt>
      <trkpt lat="40.824960000000004" lon="-2.4778000000000002">
        <time>2021-06-19T15:52:59+0000</time>
      </trkpt>
      <trkpt lat="40.82484" lon="-2.47813">
        <time>2021-06-19T15:53:00+0000</time>
      </trkpt>
      <trkpt lat="40.824720000000006" lon="-2.47845">
        <time>2021-06-19T15:53:01+0000</time>
      </trkpt>
      <trkpt lat="40.82459" lon="-2.47878">
        <time>2021-06-19T15:53:02+0000</time>
      </trkpt>
      <trkpt lat="40.82448" lon="-2.47908">
        <time>2021-06-19T15:53:03+0000</time>
      </trkpt>
      <trkpt lat="40.824380000000005" lon="-2.47939">
        <time>2021-06-19T15:53:04+0000</time>
      </trkpt>
      <trkpt lat="40.824290000000005" lon="-2.47969">
        <time>2021-06-19T15:53:05+0000</time>
      </trkpt>
      <trkpt lat="40.82421" lon="-2.48001">
        <time>2021-06-19T15:53:06+0000</time>
      </trkpt>
      <trkpt lat="40.82415" lon="-2.48034">
        <time>2021-06-19T15:53:07+0000</time>
      </trkpt>
      <trkpt lat="40.82408" lon="-2.4806700000000004">
        <time>2021-06-19T15:53:08+0000</time>
      </trkpt>
      <trkpt lat="40.82403" lon="-2.4810100000000004">
        <time>2021-06-19T15:53:09+0000</time>
      </trkpt>
      <trkpt lat="40.82397" lon="-2.48136">
        <time>2021-06-19T15:53:10+0000</time>
      </trkpt>
      <trkpt lat="40.823910000000005" lon="-2.4817">
        <time>2021-06-19T15:53:11+0000</time>
      </trkpt>
      <trkpt lat="40.823840000000004" lon="-2.48204">
        <time>2021-06-19T15:53:12+0000</time>
      </trkpt>
      <trkpt lat="40.82376" lon="-2.48239">
        <time>2021-06-19T15:53:13+0000</time>
      </trkpt>
      <trkpt lat="40.823640000000005" lon="-2.48273">
        <time>2021-06-19T15:53:14+0000</time>
      </trkpt>
      <trkpt lat="40.823510000000006" lon="-2.48308">
        <time>2021-06-19T15:53:15+0000</time>
      </trkpt>
      <trkpt lat="40.82336" lon="-2.4834300000000002">
        <time>2021-06-19T15:53:16+0000</time>
      </trkpt>
      <trkpt lat="40.823190000000004" lon="-2.48376">
        <time>2021-06-19T15:53:17+0000</time>
      </trkpt>
      <trkpt lat="40.823010000000004" lon="-2.48407">
        <time>2021-06-19T15:53:18+0000</time>
      </trkpt>
      <trkpt lat="40.82282" lon="-2.48436">
        <time>2021-06-19T15:53:19+0000</time>
      </trkpt>
      <trkpt lat="40.82262" lon="-2.48464">
        <time>2021-06-19T15:53:20+0000</time>
      </trkpt>
      <trkpt lat="40.82242" lon="-2.48491">
        <time>2021-06-19T15:53:21+0000</time>
      </trkpt>
      <trkpt lat="40.822210000000005" lon="-2.48517">
        <time>2021-06-19T15:53:22+0000</time>
      </trkpt>
      <trkpt lat="40.822010000000006" lon="-2.48544">
        <time>2021-06-19T15:53:23+0000</time>
      </trkpt>
      <trkpt lat="40.8218" lon="-2.48571">
        <time>2021-06-19T15:53:24+0000</time>
      </trkpt>
      <trkpt lat="40.821600000000004" lon="-2.48598">
        <time>2021-06-19T15:53:25+0000</time>
      </trkpt>
      <trkpt lat="40.82139" lon="-2.48625">
        <time>2021-06-19T15:53:26+0000</time>
      </trkpt>
      <trkpt lat="40.82119" lon="-2.48652">
        <time>2021-06-19T15:53:27+0000</time>
      </trkpt>
      <trkpt lat="40.820980000000006" lon="-2.48678">
        <time>2021-06-19T15:53:28+0000</time>
      </trkpt>
      <trkpt lat="40.820780000000006" lon="-2.4870400000000004">
        <time>2021-06-19T15:53:29+0000</time>
      </trkpt>
      <trkpt lat="40.820570000000004" lon="-2.4873000000000003">
        <time>2021-06-19T15:53:30+0000</time>
      </trkpt>
      <trkpt lat="40.82036" lon="-2.48756">
        <time>2021-06-19T15:53:31+0000</time>
      </trkpt>
      <trkpt lat="40.820150000000005" lon="-2.48782">
        <time>2021-06-19T15:53:32+0000</time>
      </trkpt>
      <trkpt lat="40.819950000000006" lon="-2.48809">
        <time>2021-06-19T15:53:33+0000</time>
      </trkpt>
      <trkpt lat="40.81974" lon="-2.48836">
        <time>2021-06-19T15:53:34+0000</time>
      </trkpt>
      <trkpt lat="40.81953" lon="-2.48863">
        <time>2021-06-19T15:53:35+0000</time>
      </trkpt>
      <trkpt lat="40.819320000000005" lon="-2.48891">
        <time>2021-06-19T15:53:36+0000</time>
      </trkpt>
      <trkpt lat="40.81911" lon="-2.48918">
        <time>2021-06-19T15:53:37+0000</time>
      </trkpt>
      <trkpt lat="40.818900000000006" lon="-2.4894600000000002">
        <time>2021-06-19T15:53:38+0000</time>
      </trkpt>
      <trkpt lat="40.818690000000004" lon="-2.48973">
        <time>2021-06-19T15:53:39+0000</time>
      </trkpt>
      <trkpt lat="40.81848" lon="-2.48999">
        <time>2021-06-19T15:53:40+0000</time>
      </trkpt>
      <trkpt lat="40.81828" lon="-2.49024">
        <time>2021-06-19T15:53:41+0000</time>
      </trkpt>
      <trkpt lat="40.81808" lon="-2.4905000000000004">
        <time>2021-06-19T15:53:42+0000</time>
      </trkpt>
      <trkpt lat="40.817890000000006" lon="-2.4907600000000003">
        <time>2021-06-19T15:53:43+0000</time>
      </trkpt>
      <trkpt lat="40.817690000000006" lon="-2.4910200000000002">
        <time>2021-06-19T15:53:44+0000</time>
      </trkpt>
      <trkpt lat="40.8175" lon="-2.49126">
        <time>2021-06-19T15:53:45+0000</time>
      </trkpt>
      <trkpt lat="40.81732" lon="-2.4915000000000003">
        <time>2021-06-19T15:53:46+0000</time>
      </trkpt>
      <trkpt lat="40.81714" lon="-2.4917200000000004">
        <time>2021-06-19T15:53:47+0000</time>
      </trkpt>
      <trkpt lat="40.816970000000005" lon="-2.4919300000000004">
        <time>2021-06-19T15:53:48+0000</time>
      </trkpt>
      <trkpt lat="40.816810000000004" lon="-2.49215">
        <time>2021-06-19T15:53:49+0000</time>
      </trkpt>
      <trkpt lat="40.81664000000001" lon="-2.49236">
        <time>2021-06-19T15:53:50+0000</time>
      </trkpt>
      <trkpt lat="40.816460000000006" lon="-2.4925800000000002">
        <time>2021-06-19T15:53:51+0000</time>
      </trkpt>
      <trkpt lat="40.816280000000006" lon="-2.4928000000000003">
        <time>2021-06-19T15:53:52+0000</time>
      </trkpt>
      <trkpt lat="40.816100000000006" lon="-2.49302">
        <time>2021-06-19T15:53:53+0000</time>
      </trkpt>
      <trkpt lat="40.81591" lon="-2.49323">
        <time>2021-06-19T15:53:54+0000</time>
      </trkpt>
      <trkpt lat="40.815720000000006" lon="-2.49345">
        <time>2021-06-19T15:53:55+0000</time>
      </trkpt>
      <trkpt lat="40.81552000000001" lon="-2.49366">
        <time>2021-06-19T15:53:56+0000</time>
      </trkpt>
      <trkpt lat="40.81532" lon="-2.4938700000000003">
        <time>2021-06-19T15:53:57+0000</time>
      </trkpt>
      <trkpt lat="40.81512" lon="-2.4940800000000003">
        <time>2021-06-19T15:53:58+0000</time>
      </trkpt>
      <trkpt lat="40.814930000000004" lon="-2.4943000000000004">
        <time>2021-06-19T15:53:59+0000</time>
      </trkpt>
      <trkpt lat="40.814730000000004" lon="-2.49452">
        <time>2021-06-19T15:54:00+0000</time>
      </trkpt>
      <trkpt lat="40.81452" lon="-2.49474">
        <time>2021-06-19T15:54:01+0000</time>
      </trkpt>
      <trkpt lat="40.814310000000006" lon="-2.4949700000000004">
        <time>2021-06-19T15:54:02+0000</time>
      </trkpt>
      <trkpt lat="40.8141" lon="-2.49521">
        <time>2021-06-19T15:54:03+0000</time>
      </trkpt>
      <trkpt lat="40.813880000000005" lon="-2.4954400000000003">
        <time>2021-06-19T15:54:04+0000</time>
      </trkpt>
      <trkpt lat="40.813660000000006" lon="-2.49567">
        <time>2021-06-19T15:54:05+0000</time>
      </trkpt>
      <trkpt lat="40.81345" lon="-2.4959100000000003">
        <time>2021-06-19T15:54:06+0000</time>
      </trkpt>
      <trkpt lat="40.81324" lon="-2.4961300000000004">
        <time>2021-06-19T15:54:07+0000</time>
      </trkpt>
      <trkpt lat="40.813030000000005" lon="-2.49636">
        <time>2021-06-19T15:54:08+0000</time>
      </trkpt>
      <trkpt lat="40.812830000000005" lon="-2.4965900000000003">
        <time>2021-06-19T15:54:09+0000</time>
      </trkpt>
      <trkpt lat="40.81262" lon="-2.4968100000000004">
        <time>2021-06-19T15:54:10+0000</time>
      </trkpt>
      <trkpt lat="40.81242" lon="-2.49703">
        <time>2021-06-19T15:54:11+0000</time>
      </trkpt>
      <trkpt lat="40.81222" lon="-2.4972600000000003">
        <time>2021-06-19T15:54:12+0000</time>
      </trkpt>
      <trkpt lat="40.812020000000004" lon="-2.4974800000000004">
        <time>2021-06-19T15:54:13+0000</time>
      </trkpt>
      <trkpt lat="40.81183" lon="-2.4977">
        <time>2021-06-19T15:54:14+0000</time>
      </trkpt>
      <trkpt lat="40.81163" lon="-2.49792">
        <time>2021-06-19T15:54:15+0000</time>
      </trkpt>
      <trkpt lat="40.81143" lon="-2.4981400000000002">
        <time>2021-06-19T15:54:16+0000</time>
      </trkpt>
      <trkpt lat="40.81123" lon="-2.4983700000000004">
        <time>2021-06-19T15:54:17+0000</time>
      </trkpt>
      <trkpt lat="40.81103" lon="-2.49859">
        <time>2021-06-19T15:54:18+0000</time>
      </trkpt>
      <trkpt lat="40.81082000000001" lon="-2.4988200000000003">
        <time>2021-06-19T15:54:19+0000</time>
      </trkpt>
      <trkpt lat="40.81062" lon="-2.49905">
        <time>2021-06-19T15:54:20+0000</time>
      </trkpt>
      <trkpt lat="40.81042" lon="-2.4992900000000002">
        <time>2021-06-19T15:54:21+0000</time>
      </trkpt>
      <trkpt lat="40.810210000000005" lon="-2.4995200000000004">
        <time>2021-06-19T15:54:22+0000</time>
      </trkpt>
      <trkpt lat="40.81" lon="-2.4997700000000003">
        <time>2021-06-19T15:54:23+0000</time>
      </trkpt>
      <trkpt lat="40.80979000000001" lon="-2.50001">
        <time>2021-06-19T15:54:24+0000</time>
      </trkpt>
      <trkpt lat="40.809580000000004" lon="-2.5002500000000003">
        <time>2021-06-19T15:54:25+0000</time>
      </trkpt>
      <trkpt lat="40.809360000000005" lon="-2.5005">
        <time>2021-06-19T15:54:26+0000</time>
      </trkpt>
      <trkpt lat="40.809140000000006" lon="-2.50076">
        <time>2021-06-19T15:54:27+0000</time>
      </trkpt>
      <trkpt lat="40.80892" lon="-2.5010100000000004">
        <time>2021-06-19T15:54:28+0000</time>
      </trkpt>
      <trkpt lat="40.8087" lon="-2.5012800000000004">
        <time>2021-06-19T15:54:29+0000</time>
      </trkpt>
      <trkpt lat="40.80848" lon="-2.5015400000000003">
        <time>2021-06-19T15:54:30+0000</time>
      </trkpt>
      <trkpt lat="40.80825" lon="-2.5018000000000002">
        <time>2021-06-19T15:54:31+0000</time>
      </trkpt>
      <trkpt lat="40.808020000000006" lon="-2.50206">
        <time>2021-06-19T15:54:32+0000</time>
      </trkpt>
      <trkpt lat="40.8078" lon="-2.50232">
        <time>2021-06-19T15:54:33+0000</time>
      </trkpt>
      <trkpt lat="40.8076" lon="-2.5026100000000002">
        <time>2021-06-19T15:54:34+0000</time>
      </trkpt>
      <trkpt lat="40.80744000000001" lon="-2.50293">
        <time>2021-06-19T15:54:35+0000</time>
      </trkpt>
      <trkpt lat="40.807300000000005" lon="-2.50326">
        <time>2021-06-19T15:54:36+0000</time>
      </trkpt>
      <trkpt lat="40.807170000000006" lon="-2.50361">
        <time>2021-06-19T15:54:37+0000</time>
      </trkpt>
      <trkpt lat="40.807050000000004" lon="-2.50395">
        <time>2021-06-19T15:54:38+0000</time>
      </trkpt>
      <trkpt lat="40.80693" lon="-2.50429">
        <time>2021-06-19T15:54:39+0000</time>
      </trkpt>
      <trkpt lat="40.8068" lon="-2.50463">
        <time>2021-06-19T15:54:40+0000</time>
      </trkpt>
      <trkpt lat="40.806670000000004" lon="-2.50495">
        <time>2021-06-19T15:54:41+0000</time>
      </trkpt>
      <trkpt lat="40.806520000000006" lon="-2.5052600000000003">
        <time>2021-06-19T15:54:42+0000</time>
      </trkpt>
      <trkpt lat="40.80635" lon="-2.50556">
        <time>2021-06-19T15:54:43+0000</time>
      </trkpt>
      <trkpt lat="40.80617" lon="-2.50586">
        <time>2021-06-19T15:54:44+0000</time>
      </trkpt>
      <trkpt lat="40.80597" lon="-2.50613">
        <time>2021-06-19T15:54:45+0000</time>
      </trkpt>
      <trkpt lat="40.80576000000001" lon="-2.50639">
        <time>2021-06-19T15:54:46+0000</time>
      </trkpt>
      <trkpt lat="40.805530000000005" lon="-2.5066300000000004">
        <time>2021-06-19T15:54:47+0000</time>
      </trkpt>
      <trkpt lat="40.8053" lon="-2.50687">
        <time>2021-06-19T15:54:48+0000</time>
      </trkpt>
      <trkpt lat="40.80507" lon="-2.5071100000000004">
        <time>2021-06-19T15:54:49+0000</time>
      </trkpt>
      <trkpt lat="40.80483" lon="-2.50734">
        <time>2021-06-19T15:54:50+0000</time>
      </trkpt>
      <trkpt lat="40.804610000000004" lon="-2.5075800000000004">
        <time>2021-06-19T15:54:51+0000</time>
      </trkpt>
      <trkpt lat="40.804390000000005" lon="-2.50781">
        <time>2021-06-19T15:54:52+0000</time>
      </trkpt>
      <trkpt lat="40.80418" lon="-2.5080600000000004">
        <time>2021-06-19T15:54:53+0000</time>
      </trkpt>
      <trkpt lat="40.80397000000001" lon="-2.5083100000000003">
        <time>2021-06-19T15:54:54+0000</time>
      </trkpt>
      <trkpt lat="40.80377" lon="-2.50856">
        <time>2021-06-19T15:54:55+0000</time>
      </trkpt>
      <trkpt lat="40.80357" lon="-2.50881">
        <time>2021-06-19T15:54:56+0000</time>
      </trkpt>
      <trkpt lat="40.803380000000004" lon="-2.5090600000000003">
        <time>2021-06-19T15:54:57+0000</time>
      </trkpt>
      <trkpt lat="40.803200000000004" lon="-2.50929">
        <time>2021-06-19T15:54:58+0000</time>
      </trkpt>
      <trkpt lat="40.803020000000004" lon="-2.50952">
        <time>2021-06-19T15:54:59+0000</time>
      </trkpt>
      <trkpt lat="40.80285000000001" lon="-2.5097500000000004">
        <time>2021-06-19T15:55:00+0000</time>
      </trkpt>
      <trkpt lat="40.80268" lon="-2.5099600000000004">
        <time>2021-06-19T15:55:01+0000</time>
      </trkpt>
      <trkpt lat="40.802510000000005" lon="-2.51017">
        <time>2021-06-19T15:55:02+0000</time>
      </trkpt>
      <trkpt lat="40.802350000000004" lon="-2.51038">
        <time>2021-06-19T15:55:03+0000</time>
      </trkpt>
      <trkpt lat="40.80219" lon="-2.51058">
        <time>2021-06-19T15:55:04+0000</time>
      </trkpt>
      <trkpt lat="40.80201" lon="-2.51079">
        <time>2021-06-19T15:55:05+0000</time>
      </trkpt>
      <trkpt lat="40.801820000000006" lon="-2.51099">
        <time>2021-06-19T15:55:06+0000</time>
      </trkpt>
      <trkpt lat="40.801610000000004" lon="-2.5111800000000004">
        <time>2021-06-19T15:55:07+0000</time>
      </trkpt>
      <trkpt lat="40.801390000000005" lon="-2.5113700000000003">
        <time>2021-06-19T15:55:08+0000</time>
      </trkpt>
      <trkpt lat="40.80116" lon="-2.51154">
        <time>2021-06-19T15:55:09+0000</time>
      </trkpt>
      <trkpt lat="40.800920000000005" lon="-2.5117100000000003">
        <time>2021-06-19T15:55:10+0000</time>
      </trkpt>
      <trkpt lat="40.80068" lon="-2.51188">
        <time>2021-06-19T15:55:11+0000</time>
      </trkpt>
      <trkpt lat="40.800450000000005" lon="-2.5120500000000003">
        <time>2021-06-19T15:55:12+0000</time>
      </trkpt>
      <trkpt lat="40.80021" lon="-2.51222">
        <time>2021-06-19T15:55:13+0000</time>
      </trkpt>
      <trkpt lat="40.799960000000006" lon="-2.5123900000000003">
        <time>2021-06-19T15:55:14+0000</time>
      </trkpt>
      <trkpt lat="40.79972" lon="-2.51257">
        <time>2021-06-19T15:55:15+0000</time>
      </trkpt>
      <trkpt lat="40.79948" lon="-2.5127400000000004">
        <time>2021-06-19T15:55:16+0000</time>
      </trkpt>
      <trkpt lat="40.79923" lon="-2.5129200000000003">
        <time>2021-06-19T15:55:17+0000</time>
      </trkpt>
      <trkpt lat="40.79898" lon="-2.5131">
        <time>2021-06-19T15:55:18+0000</time>
      </trkpt>
      <trkpt lat="40.798730000000006" lon="-2.5132800000000004">
        <time>2021-06-19T15:55:19+0000</time>
      </trkpt>
      <trkpt lat="40.79847" lon="-2.5134700000000003">
        <time>2021-06-19T15:55:20+0000</time>
      </trkpt>
      <trkpt lat="40.798210000000005" lon="-2.5136600000000002">
        <time>2021-06-19T15:55:21+0000</time>
      </trkpt>
      <trkpt lat="40.79796" lon="-2.51385">
        <time>2021-06-19T15:55:22+0000</time>
      </trkpt>
      <trkpt lat="40.79769" lon="-2.51404">
        <time>2021-06-19T15:55:23+0000</time>
      </trkpt>
      <trkpt lat="40.797430000000006" lon="-2.5142300000000004">
        <time>2021-06-19T15:55:24+0000</time>
      </trkpt>
      <trkpt lat="40.797160000000005" lon="-2.5144200000000003">
        <time>2021-06-19T15:55:25+0000</time>
      </trkpt>
      <trkpt lat="40.796890000000005" lon="-2.5146200000000003">
        <time>2021-06-19T15:55:26+0000</time>
      </trkpt>
      <trkpt lat="40.796620000000004" lon="-2.5148200000000003">
        <time>2021-06-19T15:55:27+0000</time>
      </trkpt>
      <trkpt lat="40.79636" lon="-2.51501">
        <time>2021-06-19T15:55:28+0000</time>
      </trkpt>
      <trkpt lat="40.796110000000006" lon="-2.51519">
        <time>2021-06-19T15:55:29+0000</time>
      </trkpt>
      <trkpt lat="40.795860000000005" lon="-2.5153700000000003">
        <time>2021-06-19T15:55:30+0000</time>
      </trkpt>
      <trkpt lat="40.79561" lon="-2.51554">
        <time>2021-06-19T15:55:31+0000</time>
      </trkpt>
      <trkpt lat="40.795370000000005" lon="-2.5157100000000003">
        <time>2021-06-19T15:55:32+0000</time>
      </trkpt>
      <trkpt lat="40.79514" lon="-2.51587">
        <time>2021-06-19T15:55:33+0000</time>
      </trkpt>
      <trkpt lat="40.79491" lon="-2.51603">
        <time>2021-06-19T15:55:34+0000</time>
      </trkpt>
      <trkpt lat="40.794700000000006" lon="-2.51621">
        <time>2021-06-19T15:55:35+0000</time>
      </trkpt>
      <trkpt lat="40.794470000000004" lon="-2.51637">
        <time>2021-06-19T15:55:36+0000</time>
      </trkpt>
      <trkpt lat="40.794250000000005" lon="-2.51654">
        <time>2021-06-19T15:55:37+0000</time>
      </trkpt>
      <trkpt lat="40.79401" lon="-2.51669">
        <time>2021-06-19T15:55:38+0000</time>
      </trkpt>
      <trkpt lat="40.793780000000005" lon="-2.5168600000000003">
        <time>2021-06-19T15:55:39+0000</time>
      </trkpt>
      <trkpt lat="40.79354" lon="-2.51702">
        <time>2021-06-19T15:55:40+0000</time>
      </trkpt>
      <trkpt lat="40.7933" lon="-2.51722">
        <time>2021-06-19T15:55:41+0000</time>
      </trkpt>
      <trkpt lat="40.793040000000005" lon="-2.51738">
        <time>2021-06-19T15:55:42+0000</time>
      </trkpt>
      <trkpt lat="40.79280000000001" lon="-2.51756">
        <time>2021-06-19T15:55:43+0000</time>
      </trkpt>
      <trkpt lat="40.79256" lon="-2.5177400000000003">
        <time>2021-06-19T15:55:44+0000</time>
      </trkpt>
      <trkpt lat="40.792320000000004" lon="-2.51791">
        <time>2021-06-19T15:55:45+0000</time>
      </trkpt>
      <trkpt lat="40.79209" lon="-2.5180800000000003">
        <time>2021-06-19T15:55:46+0000</time>
      </trkpt>
      <trkpt lat="40.79187" lon="-2.51824">
        <time>2021-06-19T15:55:47+0000</time>
      </trkpt>
      <trkpt lat="40.79164" lon="-2.5184100000000003">
        <time>2021-06-19T15:55:48+0000</time>
      </trkpt>
      <trkpt lat="40.79142" lon="-2.5185600000000004">
        <time>2021-06-19T15:55:49+0000</time>
      </trkpt>
      <trkpt lat="40.79119" lon="-2.51872">
        <time>2021-06-19T15:55:50+0000</time>
      </trkpt>
      <trkpt lat="40.790960000000005" lon="-2.5188900000000003">
        <time>2021-06-19T15:55:51+0000</time>
      </trkpt>
      <trkpt lat="40.79072" lon="-2.51907">
        <time>2021-06-19T15:55:52+0000</time>
      </trkpt>
      <trkpt lat="40.79048" lon="-2.51925">
        <time>2021-06-19T15:55:53+0000</time>
      </trkpt>
      <trkpt lat="40.79023" lon="-2.5194400000000003">
        <time>2021-06-19T15:55:54+0000</time>
      </trkpt>
      <trkpt lat="40.789970000000004" lon="-2.51962">
        <time>2021-06-19T15:55:55+0000</time>
      </trkpt>
      <trkpt lat="40.78971000000001" lon="-2.5198">
        <time>2021-06-19T15:55:56+0000</time>
      </trkpt>
      <trkpt lat="40.78945" lon="-2.5199900000000004">
        <time>2021-06-19T15:55:57+0000</time>
      </trkpt>
      <trkpt lat="40.789190000000005" lon="-2.5201800000000003">
        <time>2021-06-19T15:55:58+0000</time>
      </trkpt>
      <trkpt lat="40.78893" lon="-2.52037">
        <time>2021-06-19T15:55:59+0000</time>
      </trkpt>
      <trkpt lat="40.78867" lon="-2.52055">
        <time>2021-06-19T15:56:00+0000</time>
      </trkpt>
      <trkpt lat="40.788430000000005" lon="-2.5207200000000003">
        <time>2021-06-19T15:56:01+0000</time>
      </trkpt>
      <trkpt lat="40.7882" lon="-2.52089">
        <time>2021-06-19T15:56:02+0000</time>
      </trkpt>
      <trkpt lat="40.787980000000005" lon="-2.5210500000000002">
        <time>2021-06-19T15:56:03+0000</time>
      </trkpt>
      <trkpt lat="40.787760000000006" lon="-2.5212100000000004">
        <time>2021-06-19T15:56:04+0000</time>
      </trkpt>
      <trkpt lat="40.78754" lon="-2.52137">
        <time>2021-06-19T15:56:05+0000</time>
      </trkpt>
      <trkpt lat="40.78732" lon="-2.5215500000000004">
        <time>2021-06-19T15:56:06+0000</time>
      </trkpt>
      <trkpt lat="40.7871" lon="-2.5217500000000004">
        <time>2021-06-19T15:56:07+0000</time>
      </trkpt>
      <trkpt lat="40.7869" lon="-2.52199">
        <time>2021-06-19T15:56:08+0000</time>
      </trkpt>
      <trkpt lat="40.7867" lon="-2.52225">
        <time>2021-06-19T15:56:09+0000</time>
      </trkpt>
      <trkpt lat="40.786500000000004" lon="-2.5225400000000002">
        <time>2021-06-19T15:56:10+0000</time>
      </trkpt>
      <trkpt lat="40.786300000000004" lon="-2.5228300000000004">
        <time>2021-06-19T15:56:11+0000</time>
      </trkpt>
      <trkpt lat="40.786100000000005" lon="-2.52308">
        <time>2021-06-19T15:56:12+0000</time>
      </trkpt>
      <trkpt lat="40.78586000000001" lon="-2.5232900000000003">
        <time>2021-06-19T15:56:13+0000</time>
      </trkpt>
      <trkpt lat="40.785610000000005" lon="-2.52347">
        <time>2021-06-19T15:56:14+0000</time>
      </trkpt>
      <trkpt lat="40.78537" lon="-2.5236300000000003">
        <time>2021-06-19T15:56:15+0000</time>
      </trkpt>
      <trkpt lat="40.78513" lon="-2.5237900000000004">
        <time>2021-06-19T15:56:16+0000</time>
      </trkpt>
      <trkpt lat="40.7849" lon="-2.52395">
        <time>2021-06-19T15:56:17+0000</time>
      </trkpt>
      <trkpt lat="40.7847" lon="-2.5241200000000004">
        <time>2021-06-19T15:56:18+0000</time>
      </trkpt>
      <trkpt lat="40.78452" lon="-2.5243100000000003">
        <time>2021-06-19T15:56:19+0000</time>
      </trkpt>
      <trkpt lat="40.78435" lon="-2.52454">
        <time>2021-06-19T15:56:20+0000</time>
      </trkpt>
      <trkpt lat="40.784200000000006" lon="-2.5248000000000004">
        <time>2021-06-19T15:56:21+0000</time>
      </trkpt>
      <trkpt lat="40.78408" lon="-2.52508">
        <time>2021-06-19T15:56:22+0000</time>
      </trkpt>
      <trkpt lat="40.78396" lon="-2.52536">
        <time>2021-06-19T15:56:23+0000</time>
      </trkpt>
      <trkpt lat="40.78383" lon="-2.5256100000000004">
        <time>2021-06-19T15:56:24+0000</time>
      </trkpt>
      <trkpt lat="40.78367" lon="-2.52583">
        <time>2021-06-19T15:56:25+0000</time>
      </trkpt>
      <trkpt lat="40.78349" lon="-2.5260100000000003">
        <time>2021-06-19T15:56:26+0000</time>
      </trkpt>
      <trkpt lat="40.783280000000005" lon="-2.5261500000000003">
        <time>2021-06-19T15:56:27+0000</time>
      </trkpt>
      <trkpt lat="40.78305" lon="-2.52624">
        <time>2021-06-19T15:56:28+0000</time>
      </trkpt>
      <trkpt lat="40.782810000000005" lon="-2.5262700000000002">
        <time>2021-06-19T15:56:29+0000</time>
      </trkpt>
      <trkpt lat="40.78257000000001" lon="-2.52624">
        <time>2021-06-19T15:56:30+0000</time>
      </trkpt>
      <trkpt lat="40.782340000000005" lon="-2.5261600000000004">
        <time>2021-06-19T15:56:31+0000</time>
      </trkpt>
      <trkpt lat="40.782120000000006" lon="-2.52605">
        <time>2021-06-19T15:56:32+0000</time>
      </trkpt>
      <trkpt lat="40.78191" lon="-2.52597">
        <time>2021-06-19T15:56:33+0000</time>
      </trkpt>
      <trkpt lat="40.781710000000004" lon="-2.52592">
        <time>2021-06-19T15:56:34+0000</time>
      </trkpt>
      <trkpt lat="40.781530000000004" lon="-2.5258800000000003">
        <time>2021-06-19T15:56:35+0000</time>
      </trkpt>
      <trkpt lat="40.78134" lon="-2.52591">
        <time>2021-06-19T15:56:36+0000</time>
      </trkpt>
      <trkpt lat="40.78116" lon="-2.52599">
        <time>2021-06-19T15:56:37+0000</time>
      </trkpt>
      <trkpt lat="40.78098000000001" lon="-2.52611">
        <time>2021-06-19T15:56:38+0000</time>
      </trkpt>
      <trkpt lat="40.780820000000006" lon="-2.5262800000000003">
        <time>2021-06-19T15:56:39+0000</time>
      </trkpt>
      <trkpt lat="40.780680000000004" lon="-2.5264900000000003">
        <time>2021-06-19T15:56:40+0000</time>
      </trkpt>
      <trkpt lat="40.78058" lon="-2.52674">
        <time>2021-06-19T15:56:41+0000</time>
      </trkpt>
      <trkpt lat="40.78051000000001" lon="-2.52701">
        <time>2021-06-19T15:56:42+0000</time>
      </trkpt>
      <trkpt lat="40.78049" lon="-2.5273100000000004">
        <time>2021-06-19T15:56:43+0000</time>
      </trkpt>
      <trkpt lat="40.78051000000001" lon="-2.52761">
        <time>2021-06-19T15:56:44+0000</time>
      </trkpt>
      <trkpt lat="40.78058" lon="-2.5279100000000003">
        <time>2021-06-19T15:56:45+0000</time>
      </trkpt>
      <trkpt lat="40.780680000000004" lon="-2.52822">
        <time>2021-06-19T15:56:46+0000</time>
      </trkpt>
      <trkpt lat="40.780800000000006" lon="-2.5285300000000004">
        <time>2021-06-19T15:56:47+0000</time>
      </trkpt>
      <trkpt lat="40.78092" lon="-2.52883">
        <time>2021-06-19T15:56:48+0000</time>
      </trkpt>
      <trkpt lat="40.78103" lon="-2.52911">
        <time>2021-06-19T15:56:49+0000</time>
      </trkpt>
      <trkpt lat="40.78114" lon="-2.5293900000000002">
        <time>2021-06-19T15:56:50+0000</time>
      </trkpt>
      <trkpt lat="40.78123" lon="-2.5296700000000003">
        <time>2021-06-19T15:56:51+0000</time>
      </trkpt>
      <trkpt lat="40.7813" lon="-2.52997">
        <time>2021-06-19T15:56:52+0000</time>
      </trkpt>
      <trkpt lat="40.78132" lon="-2.5302900000000004">
        <time>2021-06-19T15:56:53+0000</time>
      </trkpt>
      <trkpt lat="40.78132" lon="-2.5306200000000003">
        <time>2021-06-19T15:56:54+0000</time>
      </trkpt>
      <trkpt lat="40.781290000000006" lon="-2.53094">
        <time>2021-06-19T15:56:55+0000</time>
      </trkpt>
      <trkpt lat="40.78126" lon="-2.53125">
        <time>2021-06-19T15:56:56+0000</time>
      </trkpt>
      <trkpt lat="40.781240000000004" lon="-2.5315600000000003">
        <time>2021-06-19T15:56:57+0000</time>
      </trkpt>
      <trkpt lat="40.78123" lon="-2.53186">
        <time>2021-06-19T15:56:58+0000</time>
      </trkpt>
      <trkpt lat="40.781240000000004" lon="-2.53216">
        <time>2021-06-19T15:56:59+0000</time>
      </trkpt>
      <trkpt lat="40.78128" lon="-2.53248">
        <time>2021-06-19T15:57:00+0000</time>
      </trkpt>
      <trkpt lat="40.78134" lon="-2.53281">
        <time>2021-06-19T15:57:01+0000</time>
      </trkpt>
      <trkpt lat="40.781420000000004" lon="-2.53315">
        <time>2021-06-19T15:57:02+0000</time>
      </trkpt>
      <trkpt lat="40.7815" lon="-2.5335">
        <time>2021-06-19T15:57:03+0000</time>
      </trkpt>
      <trkpt lat="40.78157" lon="-2.53385">
        <time>2021-06-19T15:57:04+0000</time>
      </trkpt>
      <trkpt lat="40.781620000000004" lon="-2.53418">
        <time>2021-06-19T15:57:05+0000</time>
      </trkpt>
      <trkpt lat="40.781650000000006" lon="-2.53453">
        <time>2021-06-19T15:57:06+0000</time>
      </trkpt>
      <trkpt lat="40.781650000000006" lon="-2.53487">
        <time>2021-06-19T15:57:07+0000</time>
      </trkpt>
      <trkpt lat="40.78163" lon="-2.5352">
        <time>2021-06-19T15:57:08+0000</time>
      </trkpt>
      <trkpt lat="40.78159" lon="-2.53553">
        <time>2021-06-19T15:57:09+0000</time>
      </trkpt>
      <trkpt lat="40.78154000000001" lon="-2.5358400000000003">
        <time>2021-06-19T15:57:10+0000</time>
      </trkpt>
      <trkpt lat="40.7815" lon="-2.53615">
        <time>2021-06-19T15:57:11+0000</time>
      </trkpt>
      <trkpt lat="40.78148" lon="-2.5364500000000003">
        <time>2021-06-19T15:57:12+0000</time>
      </trkpt>
      <trkpt lat="40.78146" lon="-2.53677">
        <time>2021-06-19T15:57:13+0000</time>
      </trkpt>
      <trkpt lat="40.781470000000006" lon="-2.5371">
        <time>2021-06-19T15:57:14+0000</time>
      </trkpt>
      <trkpt lat="40.7815" lon="-2.53742">
        <time>2021-06-19T15:57:15+0000</time>
      </trkpt>
      <trkpt lat="40.781560000000006" lon="-2.5377500000000004">
        <time>2021-06-19T15:57:16+0000</time>
      </trkpt>
      <trkpt lat="40.78163" lon="-2.5380900000000004">
        <time>2021-06-19T15:57:17+0000</time>
      </trkpt>
      <trkpt lat="40.78173" lon="-2.5384200000000003">
        <time>2021-06-19T15:57:18+0000</time>
      </trkpt>
      <trkpt lat="40.78186" lon="-2.53874">
        <time>2021-06-19T15:57:19+0000</time>
      </trkpt>
      <trkpt lat="40.781980000000004" lon="-2.53906">
        <time>2021-06-19T15:57:20+0000</time>
      </trkpt>
      <trkpt lat="40.7821" lon="-2.5393700000000003">
        <time>2021-06-19T15:57:21+0000</time>
      </trkpt>
      <trkpt lat="40.78222" lon="-2.53967">
        <time>2021-06-19T15:57:22+0000</time>
      </trkpt>
      <trkpt lat="40.78233" lon="-2.5399700000000003">
        <time>2021-06-19T15:57:23+0000</time>
      </trkpt>
      <trkpt lat="40.78244" lon="-2.5402600000000004">
        <time>2021-06-19T15:57:24+0000</time>
      </trkpt>
      <trkpt lat="40.782560000000004" lon="-2.54054">
        <time>2021-06-19T15:57:25+0000</time>
      </trkpt>
      <trkpt lat="40.782680000000006" lon="-2.54081">
        <time>2021-06-19T15:57:26+0000</time>
      </trkpt>
      <trkpt lat="40.782830000000004" lon="-2.5410700000000004">
        <time>2021-06-19T15:57:27+0000</time>
      </trkpt>
      <trkpt lat="40.783010000000004" lon="-2.5413300000000003">
        <time>2021-06-19T15:57:28+0000</time>
      </trkpt>
      <trkpt lat="40.783190000000005" lon="-2.54156">
        <time>2021-06-19T15:57:29+0000</time>
      </trkpt>
      <trkpt lat="40.78338" lon="-2.54178">
        <time>2021-06-19T15:57:30+0000</time>
      </trkpt>
      <trkpt lat="40.78356" lon="-2.5420000000000003">
        <time>2021-06-19T15:57:31+0000</time>
      </trkpt>
      <trkpt lat="40.78372" lon="-2.54223">
        <time>2021-06-19T15:57:32+0000</time>
      </trkpt>
      <trkpt lat="40.78385" lon="-2.5424800000000003">
        <time>2021-06-19T15:57:33+0000</time>
      </trkpt>
      <trkpt lat="40.78394" lon="-2.5427600000000004">
        <time>2021-06-19T15:57:34+0000</time>
      </trkpt>
      <trkpt lat="40.78401" lon="-2.5430300000000003">
        <time>2021-06-19T15:57:35+0000</time>
      </trkpt>
      <trkpt lat="40.784040000000005" lon="-2.54333">
        <time>2021-06-19T15:57:36+0000</time>
      </trkpt>
      <trkpt lat="40.784040000000005" lon="-2.5436400000000003">
        <time>2021-06-19T15:57:37+0000</time>
      </trkpt>
      <trkpt lat="40.784000000000006" lon="-2.5439800000000004">
        <time>2021-06-19T15:57:38+0000</time>
      </trkpt>
      <trkpt lat="40.783950000000004" lon="-2.5443100000000003">
        <time>2021-06-19T15:57:39+0000</time>
      </trkpt>
      <trkpt lat="40.783910000000006" lon="-2.54462">
        <time>2021-06-19T15:57:40+0000</time>
      </trkpt>
      <trkpt lat="40.783860000000004" lon="-2.5449300000000004">
        <time>2021-06-19T15:57:41+0000</time>
      </trkpt>
      <trkpt lat="40.78381" lon="-2.54522">
        <time>2021-06-19T15:57:42+0000</time>
      </trkpt>
      <trkpt lat="40.783750000000005" lon="-2.5455">
        <time>2021-06-19T15:57:43+0000</time>
      </trkpt>
      <trkpt lat="40.783680000000004" lon="-2.54576">
        <time>2021-06-19T15:57:44+0000</time>
      </trkpt>
      <trkpt lat="40.78358" lon="-2.54599">
        <time>2021-06-19T15:57:45+0000</time>
      </trkpt>
      <trkpt lat="40.78343" lon="-2.54619">
        <time>2021-06-19T15:57:46+0000</time>
      </trkpt>
      <trkpt lat="40.78325" lon="-2.5463600000000004">
        <time>2021-06-19T15:57:47+0000</time>
      </trkpt>
      <trkpt lat="40.78304000000001" lon="-2.54651">
        <time>2021-06-19T15:57:48+0000</time>
      </trkpt>
      <trkpt lat="40.78282" lon="-2.54665">
        <time>2021-06-19T15:57:49+0000</time>
      </trkpt>
      <trkpt lat="40.782630000000005" lon="-2.5468200000000003">
        <time>2021-06-19T15:57:50+0000</time>
      </trkpt>
      <trkpt lat="40.78249" lon="-2.5470400000000004">
        <time>2021-06-19T15:57:51+0000</time>
      </trkpt>
      <trkpt lat="40.782360000000004" lon="-2.5472900000000003">
        <time>2021-06-19T15:57:52+0000</time>
      </trkpt>
      <trkpt lat="40.78226" lon="-2.54755">
        <time>2021-06-19T15:57:53+0000</time>
      </trkpt>
      <trkpt lat="40.782160000000005" lon="-2.5478">
        <time>2021-06-19T15:57:54+0000</time>
      </trkpt>
      <trkpt lat="40.78204" lon="-2.54802">
        <time>2021-06-19T15:57:55+0000</time>
      </trkpt>
      <trkpt lat="40.781890000000004" lon="-2.54822">
        <time>2021-06-19T15:57:56+0000</time>
      </trkpt>
      <trkpt lat="40.7817" lon="-2.5483900000000004">
        <time>2021-06-19T15:57:57+0000</time>
      </trkpt>
      <trkpt lat="40.78148" lon="-2.5485100000000003">
        <time>2021-06-19T15:57:58+0000</time>
      </trkpt>
      <trkpt lat="40.78125" lon="-2.5485900000000004">
        <time>2021-06-19T15:57:59+0000</time>
      </trkpt>
      <trkpt lat="40.781000000000006" lon="-2.54861">
        <time>2021-06-19T15:58:00+0000</time>
      </trkpt>
      <trkpt lat="40.78078" lon="-2.5486400000000002">
        <time>2021-06-19T15:58:01+0000</time>
      </trkpt>
      <trkpt lat="40.780570000000004" lon="-2.54867">
        <time>2021-06-19T15:58:02+0000</time>
      </trkpt>
      <trkpt lat="40.78036" lon="-2.54875">
        <time>2021-06-19T15:58:03+0000</time>
      </trkpt>
      <trkpt lat="40.780170000000005" lon="-2.5488500000000003">
        <time>2021-06-19T15:58:04+0000</time>
      </trkpt>
      <trkpt lat="40.77998" lon="-2.5489900000000003">
        <time>2021-06-19T15:58:05+0000</time>
      </trkpt>
      <trkpt lat="40.779790000000006" lon="-2.54917">
        <time>2021-06-19T15:58:06+0000</time>
      </trkpt>
      <trkpt lat="40.779610000000005" lon="-2.54937">
        <time>2021-06-19T15:58:07+0000</time>
      </trkpt>
      <trkpt lat="40.77942" lon="-2.5495900000000002">
        <time>2021-06-19T15:58:08+0000</time>
      </trkpt>
      <trkpt lat="40.779230000000005" lon="-2.5498200000000004">
        <time>2021-06-19T15:58:09+0000</time>
      </trkpt>
      <trkpt lat="40.77904" lon="-2.5500700000000003">
        <time>2021-06-19T15:58:10+0000</time>
      </trkpt>
      <trkpt lat="40.77884" lon="-2.55031">
        <time>2021-06-19T15:58:11+0000</time>
      </trkpt>
      <trkpt lat="40.778650000000006" lon="-2.5505500000000003">
        <time>2021-06-19T15:58:12+0000</time>
      </trkpt>
      <trkpt lat="40.77845000000001" lon="-2.55078">
        <time>2021-06-19T15:58:13+0000</time>
      </trkpt>
      <trkpt lat="40.77825" lon="-2.55098">
        <time>2021-06-19T15:58:14+0000</time>
      </trkpt>
      <trkpt lat="40.77803" lon="-2.5511700000000004">
        <time>2021-06-19T15:58:15+0000</time>
      </trkpt>
      <trkpt lat="40.77778" lon="-2.55134">
        <time>2021-06-19T15:58:16+0000</time>
      </trkpt>
      <trkpt lat="40.77751000000001" lon="-2.55148">
        <time>2021-06-19T15:58:17+0000</time>
      </trkpt>
      <trkpt lat="40.77722" lon="-2.5516">
        <time>2021-06-19T15:58:18+0000</time>
      </trkpt>
      <trkpt lat="40.776920000000004" lon="-2.55172">
        <time>2021-06-19T15:58:19+0000</time>
      </trkpt>
      <trkpt lat="40.77662" lon="-2.5518400000000003">
        <time>2021-06-19T15:58:20+0000</time>
      </trkpt>
      <trkpt lat="40.77633" lon="-2.5519700000000003">
        <time>2021-06-19T15:58:21+0000</time>
      </trkpt>
      <trkpt lat="40.77606" lon="-2.55209">
        <time>2021-06-19T15:58:22+0000</time>
      </trkpt>
      <trkpt lat="40.775800000000004" lon="-2.55221">
        <time>2021-06-19T15:58:23+0000</time>
      </trkpt>
      <trkpt lat="40.775560000000006" lon="-2.5523100000000003">
        <time>2021-06-19T15:58:24+0000</time>
      </trkpt>
      <trkpt lat="40.775330000000004" lon="-2.55242">
        <time>2021-06-19T15:58:25+0000</time>
      </trkpt>
      <trkpt lat="40.775130000000004" lon="-2.5525300000000004">
        <time>2021-06-19T15:58:26+0000</time>
      </trkpt>
      <trkpt lat="40.77494" lon="-2.5526500000000003">
        <time>2021-06-19T15:58:27+0000</time>
      </trkpt>
      <trkpt lat="40.77476" lon="-2.55281">
        <time>2021-06-19T15:58:28+0000</time>
      </trkpt>
      <trkpt lat="40.77458" lon="-2.55302">
        <time>2021-06-19T15:58:29+0000</time>
      </trkpt>
      <trkpt lat="40.774420000000006" lon="-2.55324">
        <time>2021-06-19T15:58:30+0000</time>
      </trkpt>
      <trkpt lat="40.774280000000005" lon="-2.5535">
        <time>2021-06-19T15:58:31+0000</time>
      </trkpt>
      <trkpt lat="40.77416" lon="-2.5538000000000003">
        <time>2021-06-19T15:58:32+0000</time>
      </trkpt>
      <trkpt lat="40.774080000000005" lon="-2.5541300000000002">
        <time>2021-06-19T15:58:33+0000</time>
      </trkpt>
      <trkpt lat="40.77403" lon="-2.5544800000000003">
        <time>2021-06-19T15:58:34+0000</time>
      </trkpt>
      <trkpt lat="40.774010000000004" lon="-2.55487">
        <time>2021-06-19T15:58:35+0000</time>
      </trkpt>
      <trkpt lat="40.77402" lon="-2.55526">
        <time>2021-06-19T15:58:36+0000</time>
      </trkpt>
      <trkpt lat="40.77402" lon="-2.55566">
        <time>2021-06-19T15:58:37+0000</time>
      </trkpt>
      <trkpt lat="40.77403" lon="-2.5560300000000002">
        <time>2021-06-19T15:58:38+0000</time>
      </trkpt>
      <trkpt lat="40.77404000000001" lon="-2.5564">
        <time>2021-06-19T15:58:39+0000</time>
      </trkpt>
      <trkpt lat="40.77405" lon="-2.55676">
        <time>2021-06-19T15:58:40+0000</time>
      </trkpt>
      <trkpt lat="40.77404000000001" lon="-2.55711">
        <time>2021-06-19T15:58:41+0000</time>
      </trkpt>
      <trkpt lat="40.77402" lon="-2.5574600000000003">
        <time>2021-06-19T15:58:42+0000</time>
      </trkpt>
      <trkpt lat="40.77396" lon="-2.5578200000000004">
        <time>2021-06-19T15:58:43+0000</time>
      </trkpt>
      <trkpt lat="40.773880000000005" lon="-2.5582100000000003">
        <time>2021-06-19T15:58:44+0000</time>
      </trkpt>
      <trkpt lat="40.773790000000005" lon="-2.5586100000000003">
        <time>2021-06-19T15:58:45+0000</time>
      </trkpt>
      <trkpt lat="40.77367" lon="-2.5590100000000002">
        <time>2021-06-19T15:58:46+0000</time>
      </trkpt>
      <trkpt lat="40.77355" lon="-2.5594200000000003">
        <time>2021-06-19T15:58:47+0000</time>
      </trkpt>
      <trkpt lat="40.773430000000005" lon="-2.5598400000000003">
        <time>2021-06-19T15:58:48+0000</time>
      </trkpt>
      <trkpt lat="40.77331" lon="-2.5602600000000004">
        <time>2021-06-19T15:58:49+0000</time>
      </trkpt>
      <trkpt lat="40.77319000000001" lon="-2.56068">
        <time>2021-06-19T15:58:50+0000</time>
      </trkpt>
      <trkpt lat="40.77308" lon="-2.56108">
        <time>2021-06-19T15:58:51+0000</time>
      </trkpt>
      <trkpt lat="40.772960000000005" lon="-2.5614600000000003">
        <time>2021-06-19T15:58:52+0000</time>
      </trkpt>
      <trkpt lat="40.77286" lon="-2.56183">
        <time>2021-06-19T15:58:53+0000</time>
      </trkpt>
      <trkpt lat="40.772760000000005" lon="-2.56218">
        <time>2021-06-19T15:58:54+0000</time>
      </trkpt>
      <trkpt lat="40.77266" lon="-2.56252">
        <time>2021-06-19T15:58:55+0000</time>
      </trkpt>
      <trkpt lat="40.77255" lon="-2.56285">
        <time>2021-06-19T15:58:56+0000</time>
      </trkpt>
      <trkpt lat="40.77244" lon="-2.56319">
        <time>2021-06-19T15:58:57+0000</time>
      </trkpt>
      <trkpt lat="40.77232" lon="-2.56352">
        <time>2021-06-19T15:58:58+0000</time>
      </trkpt>
      <trkpt lat="40.77219" lon="-2.5638400000000003">
        <time>2021-06-19T15:58:59+0000</time>
      </trkpt>
      <trkpt lat="40.77205" lon="-2.56416">
        <time>2021-06-19T15:59:00+0000</time>
      </trkpt>
      <trkpt lat="40.77188" lon="-2.56447">
        <time>2021-06-19T15:59:01+0000</time>
      </trkpt>
      <trkpt lat="40.7717" lon="-2.5647800000000003">
        <time>2021-06-19T15:59:02+0000</time>
      </trkpt>
      <trkpt lat="40.7715" lon="-2.5650700000000004">
        <time>2021-06-19T15:59:03+0000</time>
      </trkpt>
      <trkpt lat="40.771280000000004" lon="-2.56536">
        <time>2021-06-19T15:59:04+0000</time>
      </trkpt>
      <trkpt lat="40.77105" lon="-2.56562">
        <time>2021-06-19T15:59:05+0000</time>
      </trkpt>
      <trkpt lat="40.770810000000004" lon="-2.5658600000000003">
        <time>2021-06-19T15:59:06+0000</time>
      </trkpt>
      <trkpt lat="40.7706" lon="-2.5660700000000003">
        <time>2021-06-19T15:59:07+0000</time>
      </trkpt>
      <trkpt lat="40.770410000000005" lon="-2.5663">
        <time>2021-06-19T15:59:08+0000</time>
      </trkpt>
      <trkpt lat="40.77024" lon="-2.5665400000000003">
        <time>2021-06-19T15:59:09+0000</time>
      </trkpt>
      <trkpt lat="40.770120000000006" lon="-2.5668">
        <time>2021-06-19T15:59:10+0000</time>
      </trkpt>
      <trkpt lat="40.770010000000006" lon="-2.5670900000000003">
        <time>2021-06-19T15:59:11+0000</time>
      </trkpt>
      <trkpt lat="40.76995" lon="-2.56739">
        <time>2021-06-19T15:59:12+0000</time>
      </trkpt>
      <trkpt lat="40.76991" lon="-2.5676900000000002">
        <time>2021-06-19T15:59:13+0000</time>
      </trkpt>
      <trkpt lat="40.769920000000006" lon="-2.56802">
        <time>2021-06-19T15:59:14+0000</time>
      </trkpt>
      <trkpt lat="40.769940000000005" lon="-2.56836">
        <time>2021-06-19T15:59:15+0000</time>
      </trkpt>
      <trkpt lat="40.76999" lon="-2.56869">
        <time>2021-06-19T15:59:16+0000</time>
      </trkpt>
      <trkpt lat="40.77004" lon="-2.56902">
        <time>2021-06-19T15:59:17+0000</time>
      </trkpt>
      <trkpt lat="40.770070000000004" lon="-2.56936">
        <time>2021-06-19T15:59:18+0000</time>
      </trkpt>
      <trkpt lat="40.770070000000004" lon="-2.56971">
        <time>2021-06-19T15:59:19+0000</time>
      </trkpt>
      <trkpt lat="40.77004" lon="-2.5700600000000002">
        <time>2021-06-19T15:59:20+0000</time>
      </trkpt>
      <trkpt lat="40.76999" lon="-2.5704100000000003">
        <time>2021-06-19T15:59:21+0000</time>
      </trkpt>
      <trkpt lat="40.769940000000005" lon="-2.5707600000000004">
        <time>2021-06-19T15:59:22+0000</time>
      </trkpt>
      <trkpt lat="40.7699" lon="-2.5710900000000003">
        <time>2021-06-19T15:59:23+0000</time>
      </trkpt>
      <trkpt lat="40.7699" lon="-2.57141">
        <time>2021-06-19T15:59:24+0000</time>
      </trkpt>
      <trkpt lat="40.76991" lon="-2.57172">
        <time>2021-06-19T15:59:25+0000</time>
      </trkpt>
      <trkpt lat="40.76997" lon="-2.5720400000000003">
        <time>2021-06-19T15:59:26+0000</time>
      </trkpt>
      <trkpt lat="40.77006" lon="-2.5723700000000003">
        <time>2021-06-19T15:59:27+0000</time>
      </trkpt>
      <trkpt lat="40.77017" lon="-2.5727100000000003">
        <time>2021-06-19T15:59:28+0000</time>
      </trkpt>
      <trkpt lat="40.77031" lon="-2.5730500000000003">
        <time>2021-06-19T15:59:29+0000</time>
      </trkpt>
      <trkpt lat="40.77046" lon="-2.5733800000000002">
        <time>2021-06-19T15:59:30+0000</time>
      </trkpt>
      <trkpt lat="40.770610000000005" lon="-2.57371">
        <time>2021-06-19T15:59:31+0000</time>
      </trkpt>
      <trkpt lat="40.77073" lon="-2.57404">
        <time>2021-06-19T15:59:32+0000</time>
      </trkpt>
      <trkpt lat="40.770810000000004" lon="-2.57439">
        <time>2021-06-19T15:59:33+0000</time>
      </trkpt>
      <trkpt lat="40.770860000000006" lon="-2.57477">
        <time>2021-06-19T15:59:34+0000</time>
      </trkpt>
      <trkpt lat="40.77089" lon="-2.5751700000000004">
        <time>2021-06-19T15:59:35+0000</time>
      </trkpt>
      <trkpt lat="40.770900000000005" lon="-2.5755700000000004">
        <time>2021-06-19T15:59:36+0000</time>
      </trkpt>
      <trkpt lat="40.77091" lon="-2.5759700000000003">
        <time>2021-06-19T15:59:37+0000</time>
      </trkpt>
      <trkpt lat="40.77093" lon="-2.57636">
        <time>2021-06-19T15:59:38+0000</time>
      </trkpt>
      <trkpt lat="40.770950000000006" lon="-2.57674">
        <time>2021-06-19T15:59:39+0000</time>
      </trkpt>
      <trkpt lat="40.77096" lon="-2.5771300000000004">
        <time>2021-06-19T15:59:40+0000</time>
      </trkpt>
      <trkpt lat="40.77098" lon="-2.5775300000000003">
        <time>2021-06-19T15:59:41+0000</time>
      </trkpt>
      <trkpt lat="40.771" lon="-2.5779400000000003">
        <time>2021-06-19T15:59:42+0000</time>
      </trkpt>
      <trkpt lat="40.77102" lon="-2.5783500000000004">
        <time>2021-06-19T15:59:43+0000</time>
      </trkpt>
      <trkpt lat="40.77103" lon="-2.57877">
        <time>2021-06-19T15:59:44+0000</time>
      </trkpt>
      <trkpt lat="40.77105" lon="-2.57919">
        <time>2021-06-19T15:59:45+0000</time>
      </trkpt>
      <trkpt lat="40.77107" lon="-2.57961">
        <time>2021-06-19T15:59:46+0000</time>
      </trkpt>
      <trkpt lat="40.771080000000005" lon="-2.5800400000000003">
        <time>2021-06-19T15:59:47+0000</time>
      </trkpt>
      <trkpt lat="40.771100000000004" lon="-2.5804600000000004">
        <time>2021-06-19T15:59:48+0000</time>
      </trkpt>
      <trkpt lat="40.77111" lon="-2.58088">
        <time>2021-06-19T15:59:49+0000</time>
      </trkpt>
      <trkpt lat="40.77113000000001" lon="-2.5813">
        <time>2021-06-19T15:59:50+0000</time>
      </trkpt>
      <trkpt lat="40.77114" lon="-2.58171">
        <time>2021-06-19T15:59:51+0000</time>
      </trkpt>
      <trkpt lat="40.77116" lon="-2.58209">
        <time>2021-06-19T15:59:52+0000</time>
      </trkpt>
      <trkpt lat="40.77118" lon="-2.58246">
        <time>2021-06-19T15:59:53+0000</time>
      </trkpt>
      <trkpt lat="40.771190000000004" lon="-2.5828200000000003">
        <time>2021-06-19T15:59:54+0000</time>
      </trkpt>
      <trkpt lat="40.77121" lon="-2.58318">
        <time>2021-06-19T15:59:55+0000</time>
      </trkpt>
      <trkpt lat="40.77123" lon="-2.5835500000000002">
        <time>2021-06-19T15:59:56+0000</time>
      </trkpt>
      <trkpt lat="40.771240000000006" lon="-2.58392">
        <time>2021-06-19T15:59:57+0000</time>
      </trkpt>
      <trkpt lat="40.77125" lon="-2.5843000000000003">
        <time>2021-06-19T15:59:58+0000</time>
      </trkpt>
      <trkpt lat="40.77127" lon="-2.58469">
        <time>2021-06-19T15:59:59+0000</time>
      </trkpt>
      <trkpt lat="40.771300000000004" lon="-2.58508">
        <time>2021-06-19T16:00:00+0000</time>
      </trkpt>
      <trkpt lat="40.77131000000001" lon="-2.58548">
        <time>2021-06-19T16:00:01+0000</time>
      </trkpt>
      <trkpt lat="40.771330000000006" lon="-2.5858800000000004">
        <time>2021-06-19T16:00:02+0000</time>
      </trkpt>
      <trkpt lat="40.77134" lon="-2.5862900000000004">
        <time>2021-06-19T16:00:03+0000</time>
      </trkpt>
      <trkpt lat="40.77136" lon="-2.5866900000000004">
        <time>2021-06-19T16:00:04+0000</time>
      </trkpt>
      <trkpt lat="40.771370000000005" lon="-2.5871000000000004">
        <time>2021-06-19T16:00:05+0000</time>
      </trkpt>
      <trkpt lat="40.771390000000004" lon="-2.5875000000000004">
        <time>2021-06-19T16:00:06+0000</time>
      </trkpt>
      <trkpt lat="40.7714" lon="-2.5879100000000004">
        <time>2021-06-19T16:00:07+0000</time>
      </trkpt>
      <trkpt lat="40.771420000000006" lon="-2.58833">
        <time>2021-06-19T16:00:08+0000</time>
      </trkpt>
      <trkpt lat="40.77143" lon="-2.58876">
        <time>2021-06-19T16:00:09+0000</time>
      </trkpt>
      <trkpt lat="40.77145" lon="-2.5891800000000003">
        <time>2021-06-19T16:00:10+0000</time>
      </trkpt>
      <trkpt lat="40.77147" lon="-2.5896000000000003">
        <time>2021-06-19T16:00:11+0000</time>
      </trkpt>
      <trkpt lat="40.771480000000004" lon="-2.5900100000000004">
        <time>2021-06-19T16:00:12+0000</time>
      </trkpt>
      <trkpt lat="40.7715" lon="-2.59043">
        <time>2021-06-19T16:00:13+0000</time>
      </trkpt>
      <trkpt lat="40.77152" lon="-2.5908300000000004">
        <time>2021-06-19T16:00:14+0000</time>
      </trkpt>
      <trkpt lat="40.771530000000006" lon="-2.5912400000000004">
        <time>2021-06-19T16:00:15+0000</time>
      </trkpt>
      <trkpt lat="40.771550000000005" lon="-2.5916300000000003">
        <time>2021-06-19T16:00:16+0000</time>
      </trkpt>
      <trkpt lat="40.77156" lon="-2.59202">
        <time>2021-06-19T16:00:17+0000</time>
      </trkpt>
      <trkpt lat="40.77158" lon="-2.59241">
        <time>2021-06-19T16:00:18+0000</time>
      </trkpt>
      <trkpt lat="40.77159" lon="-2.5927900000000004">
        <time>2021-06-19T16:00:19+0000</time>
      </trkpt>
      <trkpt lat="40.77161" lon="-2.59317">
        <time>2021-06-19T16:00:20+0000</time>
      </trkpt>
      <trkpt lat="40.771620000000006" lon="-2.5935400000000004">
        <time>2021-06-19T16:00:21+0000</time>
      </trkpt>
      <trkpt lat="40.771640000000005" lon="-2.5939">
        <time>2021-06-19T16:00:22+0000</time>
      </trkpt>
      <trkpt lat="40.77165" lon="-2.59424">
        <time>2021-06-19T16:00:23+0000</time>
      </trkpt>
      <trkpt lat="40.771660000000004" lon="-2.5945500000000004">
        <time>2021-06-19T16:00:24+0000</time>
      </trkpt>
      <trkpt lat="40.77168" lon="-2.5948700000000002">
        <time>2021-06-19T16:00:25+0000</time>
      </trkpt>
      <trkpt lat="40.77169000000001" lon="-2.59519">
        <time>2021-06-19T16:00:26+0000</time>
      </trkpt>
      <trkpt lat="40.7717" lon="-2.59553">
        <time>2021-06-19T16:00:27+0000</time>
      </trkpt>
      <trkpt lat="40.771730000000005" lon="-2.59586">
        <time>2021-06-19T16:00:28+0000</time>
      </trkpt>
      <trkpt lat="40.771770000000004" lon="-2.59621">
        <time>2021-06-19T16:00:29+0000</time>
      </trkpt>
      <trkpt lat="40.77183" lon="-2.59656">
        <time>2021-06-19T16:00:30+0000</time>
      </trkpt>
      <trkpt lat="40.77192" lon="-2.5969200000000003">
        <time>2021-06-19T16:00:31+0000</time>
      </trkpt>
      <trkpt lat="40.77201" lon="-2.59729">
        <time>2021-06-19T16:00:32+0000</time>
      </trkpt>
      <trkpt lat="40.772110000000005" lon="-2.5976600000000003">
        <time>2021-06-19T16:00:33+0000</time>
      </trkpt>
      <trkpt lat="40.77221" lon="-2.59803">
        <time>2021-06-19T16:00:34+0000</time>
      </trkpt>
      <trkpt lat="40.772310000000004" lon="-2.5984000000000003">
        <time>2021-06-19T16:00:35+0000</time>
      </trkpt>
      <trkpt lat="40.77241" lon="-2.5987600000000004">
        <time>2021-06-19T16:00:36+0000</time>
      </trkpt>
      <trkpt lat="40.7725" lon="-2.59912">
        <time>2021-06-19T16:00:37+0000</time>
      </trkpt>
      <trkpt lat="40.77259" lon="-2.5994800000000002">
        <time>2021-06-19T16:00:38+0000</time>
      </trkpt>
      <trkpt lat="40.77268" lon="-2.5998400000000004">
        <time>2021-06-19T16:00:39+0000</time>
      </trkpt>
      <trkpt lat="40.77277" lon="-2.60019">
        <time>2021-06-19T16:00:40+0000</time>
      </trkpt>
      <trkpt lat="40.77286" lon="-2.60054">
        <time>2021-06-19T16:00:41+0000</time>
      </trkpt>
      <trkpt lat="40.772960000000005" lon="-2.60089">
        <time>2021-06-19T16:00:42+0000</time>
      </trkpt>
      <trkpt lat="40.773050000000005" lon="-2.60123">
        <time>2021-06-19T16:00:43+0000</time>
      </trkpt>
      <trkpt lat="40.773140000000005" lon="-2.60157">
        <time>2021-06-19T16:00:44+0000</time>
      </trkpt>
      <trkpt lat="40.77322" lon="-2.60191">
        <time>2021-06-19T16:00:45+0000</time>
      </trkpt>
      <trkpt lat="40.77331" lon="-2.60225">
        <time>2021-06-19T16:00:46+0000</time>
      </trkpt>
      <trkpt lat="40.773390000000006" lon="-2.60259">
        <time>2021-06-19T16:00:47+0000</time>
      </trkpt>
      <trkpt lat="40.77349" lon="-2.6029500000000003">
        <time>2021-06-19T16:00:48+0000</time>
      </trkpt>
      <trkpt lat="40.77358" lon="-2.60332">
        <time>2021-06-19T16:00:49+0000</time>
      </trkpt>
      <trkpt lat="40.773680000000006" lon="-2.60368">
        <time>2021-06-19T16:00:50+0000</time>
      </trkpt>
      <trkpt lat="40.773770000000006" lon="-2.6040400000000004">
        <time>2021-06-19T16:00:51+0000</time>
      </trkpt>
      <trkpt lat="40.77387" lon="-2.6043900000000004">
        <time>2021-06-19T16:00:52+0000</time>
      </trkpt>
      <trkpt lat="40.77396" lon="-2.6047200000000004">
        <time>2021-06-19T16:00:53+0000</time>
      </trkpt>
      <trkpt lat="40.77404000000001" lon="-2.6050400000000002">
        <time>2021-06-19T16:00:54+0000</time>
      </trkpt>
      <trkpt lat="40.77412" lon="-2.6053400000000004">
        <time>2021-06-19T16:00:55+0000</time>
      </trkpt>
      <trkpt lat="40.774190000000004" lon="-2.60564">
        <time>2021-06-19T16:00:56+0000</time>
      </trkpt>
      <trkpt lat="40.77427" lon="-2.6059300000000003">
        <time>2021-06-19T16:00:57+0000</time>
      </trkpt>
      <trkpt lat="40.77436" lon="-2.60624">
        <time>2021-06-19T16:00:58+0000</time>
      </trkpt>
      <trkpt lat="40.774480000000004" lon="-2.6065400000000003">
        <time>2021-06-19T16:00:59+0000</time>
      </trkpt>
      <trkpt lat="40.77460000000001" lon="-2.60684">
        <time>2021-06-19T16:01:00+0000</time>
      </trkpt>
      <trkpt lat="40.77474" lon="-2.60713">
        <time>2021-06-19T16:01:01+0000</time>
      </trkpt>
      <trkpt lat="40.7749" lon="-2.6074">
        <time>2021-06-19T16:01:02+0000</time>
      </trkpt>
      <trkpt lat="40.77507000000001" lon="-2.60767">
        <time>2021-06-19T16:01:03+0000</time>
      </trkpt>
      <trkpt lat="40.775240000000004" lon="-2.60794">
        <time>2021-06-19T16:01:04+0000</time>
      </trkpt>
      <trkpt lat="40.77541" lon="-2.60822">
        <time>2021-06-19T16:01:05+0000</time>
      </trkpt>
      <trkpt lat="40.775580000000005" lon="-2.6085000000000003">
        <time>2021-06-19T16:01:06+0000</time>
      </trkpt>
      <trkpt lat="40.77575" lon="-2.6087700000000003">
        <time>2021-06-19T16:01:07+0000</time>
      </trkpt>
      <trkpt lat="40.77593" lon="-2.6090600000000004">
        <time>2021-06-19T16:01:08+0000</time>
      </trkpt>
      <trkpt lat="40.77610000000001" lon="-2.60935">
        <time>2021-06-19T16:01:09+0000</time>
      </trkpt>
      <trkpt lat="40.776230000000005" lon="-2.6096600000000003">
        <time>2021-06-19T16:01:10+0000</time>
      </trkpt>
      <trkpt lat="40.77635" lon="-2.60998">
        <time>2021-06-19T16:01:11+0000</time>
      </trkpt>
      <trkpt lat="40.776450000000004" lon="-2.6103">
        <time>2021-06-19T16:01:12+0000</time>
      </trkpt>
      <trkpt lat="40.77653" lon="-2.61064">
        <time>2021-06-19T16:01:13+0000</time>
      </trkpt>
      <trkpt lat="40.77658" lon="-2.61097">
        <time>2021-06-19T16:01:14+0000</time>
      </trkpt>
      <trkpt lat="40.77662" lon="-2.6113000000000004">
        <time>2021-06-19T16:01:15+0000</time>
      </trkpt>
      <trkpt lat="40.77666000000001" lon="-2.6116200000000003">
        <time>2021-06-19T16:01:16+0000</time>
      </trkpt>
      <trkpt lat="40.77671" lon="-2.61193">
        <time>2021-06-19T16:01:17+0000</time>
      </trkpt>
      <trkpt lat="40.776790000000005" lon="-2.6122300000000003">
        <time>2021-06-19T16:01:18+0000</time>
      </trkpt>
      <trkpt lat="40.77689" lon="-2.6125200000000004">
        <time>2021-06-19T16:01:19+0000</time>
      </trkpt>
      <trkpt lat="40.77702" lon="-2.61282">
        <time>2021-06-19T16:01:20+0000</time>
      </trkpt>
      <trkpt lat="40.777170000000005" lon="-2.6131300000000004">
        <time>2021-06-19T16:01:21+0000</time>
      </trkpt>
      <trkpt lat="40.77731" lon="-2.6134500000000003">
        <time>2021-06-19T16:01:22+0000</time>
      </trkpt>
      <trkpt lat="40.77745" lon="-2.61375">
        <time>2021-06-19T16:01:23+0000</time>
      </trkpt>
      <trkpt lat="40.777590000000004" lon="-2.61404">
        <time>2021-06-19T16:01:24+0000</time>
      </trkpt>
      <trkpt lat="40.777730000000005" lon="-2.61432">
        <time>2021-06-19T16:01:25+0000</time>
      </trkpt>
      <trkpt lat="40.777890000000006" lon="-2.6146000000000003">
        <time>2021-06-19T16:01:26+0000</time>
      </trkpt>
      <trkpt lat="40.77806" lon="-2.61485">
        <time>2021-06-19T16:01:27+0000</time>
      </trkpt>
      <trkpt lat="40.778240000000004" lon="-2.6150800000000003">
        <time>2021-06-19T16:01:28+0000</time>
      </trkpt>
      <trkpt lat="40.778420000000004" lon="-2.6152900000000003">
        <time>2021-06-19T16:01:29+0000</time>
      </trkpt>
      <trkpt lat="40.778600000000004" lon="-2.6155000000000004">
        <time>2021-06-19T16:01:30+0000</time>
      </trkpt>
      <trkpt lat="40.77875" lon="-2.61572">
        <time>2021-06-19T16:01:31+0000</time>
      </trkpt>
      <trkpt lat="40.778890000000004" lon="-2.6159600000000003">
        <time>2021-06-19T16:01:32+0000</time>
      </trkpt>
      <trkpt lat="40.77901000000001" lon="-2.6162500000000004">
        <time>2021-06-19T16:01:33+0000</time>
      </trkpt>
      <trkpt lat="40.77911" lon="-2.61655">
        <time>2021-06-19T16:01:34+0000</time>
      </trkpt>
      <trkpt lat="40.77919" lon="-2.6168400000000003">
        <time>2021-06-19T16:01:35+0000</time>
      </trkpt>
      <trkpt lat="40.77928" lon="-2.6171200000000003">
        <time>2021-06-19T16:01:36+0000</time>
      </trkpt>
      <trkpt lat="40.779360000000004" lon="-2.61737">
        <time>2021-06-19T16:01:37+0000</time>
      </trkpt>
      <trkpt lat="40.779430000000005" lon="-2.6176000000000004">
        <time>2021-06-19T16:01:38+0000</time>
      </trkpt>
      <trkpt lat="40.77949" lon="-2.6178100000000004">
        <time>2021-06-19T16:01:39+0000</time>
      </trkpt>
      <trkpt lat="40.779560000000004" lon="-2.6180100000000004">
        <time>2021-06-19T16:01:40+0000</time>
      </trkpt>
      <trkpt lat="40.77964" lon="-2.6182100000000004">
        <time>2021-06-19T16:01:41+0000</time>
      </trkpt>
      <trkpt lat="40.779740000000004" lon="-2.61839">
        <time>2021-06-19T16:01:42+0000</time>
      </trkpt>
      <trkpt lat="40.77985" lon="-2.6185500000000004">
        <time>2021-06-19T16:01:43+0000</time>
      </trkpt>
      <trkpt lat="40.77996" lon="-2.61866">
        <time>2021-06-19T16:01:44+0000</time>
      </trkpt>
      <trkpt lat="40.78005" lon="-2.6187600000000004">
        <time>2021-06-19T16:01:45+0000</time>
      </trkpt>
      <trkpt lat="40.78014" lon="-2.61885">
        <time>2021-06-19T16:01:46+0000</time>
      </trkpt>
      <trkpt lat="40.780240000000006" lon="-2.6189">
        <time>2021-06-19T16:01:47+0000</time>
      </trkpt>
      <trkpt lat="40.78034" lon="-2.61892">
        <time>2021-06-19T16:01:48+0000</time>
      </trkpt>
      <trkpt lat="40.78043" lon="-2.61885">
        <time>2021-06-19T16:01:49+0000</time>
      </trkpt>
      <trkpt lat="40.78054" lon="-2.6188000000000002">
        <time>2021-06-19T16:01:50+0000</time>
      </trkpt>
      <trkpt lat="40.780660000000005" lon="-2.61878">
        <time>2021-06-19T16:01:51+0000</time>
      </trkpt>
      <trkpt lat="40.780770000000004" lon="-2.61877">
        <time>2021-06-19T16:01:52+0000</time>
      </trkpt>
      <trkpt lat="40.78087" lon="-2.6188300000000004">
        <time>2021-06-19T16:01:53+0000</time>
      </trkpt>
      <trkpt lat="40.78094" lon="-2.6189400000000003">
        <time>2021-06-19T16:01:54+0000</time>
      </trkpt>
      <trkpt lat="40.78101" lon="-2.6190800000000003">
        <time>2021-06-19T16:01:55+0000</time>
      </trkpt>
      <trkpt lat="40.781090000000006" lon="-2.6192200000000003">
        <time>2021-06-19T16:01:56+0000</time>
      </trkpt>
      <trkpt lat="40.78117" lon="-2.6193600000000004">
        <time>2021-06-19T16:01:57+0000</time>
      </trkpt>
      <trkpt lat="40.78125" lon="-2.6195000000000004">
        <time>2021-06-19T16:01:58+0000</time>
      </trkpt>
      <trkpt lat="40.781330000000004" lon="-2.6196300000000003">
        <time>2021-06-19T16:01:59+0000</time>
      </trkpt>
      <trkpt lat="40.781400000000005" lon="-2.6197600000000003">
        <time>2021-06-19T16:02:00+0000</time>
      </trkpt>
      <trkpt lat="40.781470000000006" lon="-2.61988">
        <time>2021-06-19T16:02:01+0000</time>
      </trkpt>
      <trkpt lat="40.78154000000001" lon="-2.62">
        <time>2021-06-19T16:02:02+0000</time>
      </trkpt>
      <trkpt lat="40.78161" lon="-2.62012">
        <time>2021-06-19T16:02:03+0000</time>
      </trkpt>
      <trkpt lat="40.781670000000005" lon="-2.6202400000000003">
        <time>2021-06-19T16:02:04+0000</time>
      </trkpt>
      <trkpt lat="40.7817" lon="-2.6203700000000003">
        <time>2021-06-19T16:02:05+0000</time>
      </trkpt>
      <trkpt lat="40.7817" lon="-2.62049">
        <time>2021-06-19T16:02:06+0000</time>
      </trkpt>
      <trkpt lat="40.7817" lon="-2.62062">
        <time>2021-06-19T16:02:07+0000</time>
      </trkpt>
      <trkpt lat="40.78168" lon="-2.62075">
        <time>2021-06-19T16:02:08+0000</time>
      </trkpt>
      <trkpt lat="40.781650000000006" lon="-2.62088">
        <time>2021-06-19T16:02:09+0000</time>
      </trkpt>
      <trkpt lat="40.781620000000004" lon="-2.62102">
        <time>2021-06-19T16:02:10+0000</time>
      </trkpt>
      <trkpt lat="40.781580000000005" lon="-2.62115">
        <time>2021-06-19T16:02:11+0000</time>
      </trkpt>
      <trkpt lat="40.78155" lon="-2.62128">
        <time>2021-06-19T16:02:12+0000</time>
      </trkpt>
      <trkpt lat="40.781530000000004" lon="-2.6214000000000004">
        <time>2021-06-19T16:02:13+0000</time>
      </trkpt>
      <trkpt lat="40.7815" lon="-2.6215200000000003">
        <time>2021-06-19T16:02:14+0000</time>
      </trkpt>
      <trkpt lat="40.781470000000006" lon="-2.62163">
        <time>2021-06-19T16:02:15+0000</time>
      </trkpt>
      <trkpt lat="40.78145000000001" lon="-2.6217400000000004">
        <time>2021-06-19T16:02:16+0000</time>
      </trkpt>
      <trkpt lat="40.781420000000004" lon="-2.62184">
        <time>2021-06-19T16:02:17+0000</time>
      </trkpt>
      <trkpt lat="40.781400000000005" lon="-2.6219400000000004">
        <time>2021-06-19T16:02:18+0000</time>
      </trkpt>
      <trkpt lat="40.781380000000006" lon="-2.62202">
        <time>2021-06-19T16:02:19+0000</time>
      </trkpt>
      <trkpt lat="40.78136000000001" lon="-2.6221">
        <time>2021-06-19T16:02:20+0000</time>
      </trkpt>
      <trkpt lat="40.78135" lon="-2.6221500000000004">
        <time>2021-06-19T16:02:21+0000</time>
      </trkpt>
      <trkpt lat="40.78134" lon="-2.6221900000000002">
        <time>2021-06-19T16:02:22+0000</time>
      </trkpt>
      <trkpt lat="40.78134" lon="-2.62223">
        <time>2021-06-19T16:02:23+0000</time>
      </trkpt>
      <trkpt lat="40.781330000000004" lon="-2.6222600000000003">
        <time>2021-06-19T16:02:24+0000</time>
      </trkpt>
      <trkpt lat="40.78132" lon="-2.62229">
        <time>2021-06-19T16:02:25+0000</time>
      </trkpt>
      <trkpt lat="40.781310000000005" lon="-2.62231">
        <time>2021-06-19T16:02:26+0000</time>
      </trkpt>
      <trkpt lat="40.781290000000006" lon="-2.6223300000000003">
        <time>2021-06-19T16:02:27+0000</time>
      </trkpt>
      <trkpt lat="40.781270000000006" lon="-2.6223400000000003">
        <time>2021-06-19T16:02:28+0000</time>
      </trkpt>
      <trkpt lat="40.781270000000006" lon="-2.6223500000000004">
        <time>2021-06-19T16:02:29+0000</time>
      </trkpt>
      <trkpt lat="40.781270000000006" lon="-2.62237">
        <time>2021-06-19T16:02:35+0000</time>
      </trkpt>
      <trkpt lat="40.78126" lon="-2.62239">
        <time>2021-06-19T16:02:36+0000</time>
      </trkpt>
      <trkpt lat="40.78126" lon="-2.6224000000000003">
        <time>2021-06-19T16:02:37+0000</time>
      </trkpt>
    </trkseg>
  </trk>
</gpx>
